<?xml version="1.0" encoding="UTF-8"?>
<gpx version="1.1" creator="https://www.youtrack.es" xsi:schemaLocation="http://www.topografix.com/GPX/1/1 http://www.topografix.com/GPX/1/1/gpx.xsd http://www.garmin.com/xmlschemas/GpxExtensions/v3 http://www.garmin.com/xmlschemas/GpxExtensionsv3.xsd http://www.garmin.com/xmlschemas/TrackPointExtension/v1 http://www.garmin.com/xmlschemas/TrackPointExtensionv1.xsd" xmlns:gpxtpx="http://www.garmin.com/xmlschemas/TrackPointExtension/v1" xmlns:gpxx="http://www.garmin.com/xmlschemas/GpxExtensions/v3" xmlns:xsi="http://www.w3.org/2001/XMLSchema-instance">
  <metadata>
    <author>
      <name>juanma abellan</name>
      <email id="peluki1077" domain="gmail.com"/>
    </author>
    <link href="https://www.youtrack.es">
      <text>YouTrack.es</text>
    </link>
    <time>2026-05-09T00:11:09Z</time>
  </metadata>
  <trk>
    <src>https://www.youtrack.es</src>
    <link href="https://www.youtrack.es/ruta/27234-media-marathon-siyasa--7-11-21">
      <text>YouTrack.es</text>
    </link>
    <trkseg>
      <trkpt lat="38.1925700" lon="-1.4237950">
        <ele>299.6</ele>
        <time>2021-11-06T16:39:09Z</time>
      </trkpt>
      <trkpt lat="38.1925240" lon="-1.4238710">
        <ele>299.4</ele>
        <time>2021-11-06T16:39:17Z</time>
      </trkpt>
      <trkpt lat="38.1925020" lon="-1.4239390">
        <ele>300.6</ele>
        <time>2021-11-06T16:39:22Z</time>
      </trkpt>
      <trkpt lat="38.1924960" lon="-1.4239600">
        <ele>301.8</ele>
        <time>2021-11-06T16:39:24Z</time>
      </trkpt>
      <trkpt lat="38.1924940" lon="-1.4239720">
        <ele>302.2</ele>
        <time>2021-11-06T16:39:25Z</time>
      </trkpt>
      <trkpt lat="38.1924930" lon="-1.4239940">
        <ele>303.0</ele>
        <time>2021-11-06T16:39:27Z</time>
      </trkpt>
      <trkpt lat="38.1924900" lon="-1.4240410">
        <ele>304.0</ele>
        <time>2021-11-06T16:39:31Z</time>
      </trkpt>
      <trkpt lat="38.1924880" lon="-1.4240470">
        <ele>304.2</ele>
        <time>2021-11-06T16:39:32Z</time>
      </trkpt>
      <trkpt lat="38.1924870" lon="-1.4240530">
        <ele>304.4</ele>
        <time>2021-11-06T16:39:33Z</time>
      </trkpt>
      <trkpt lat="38.1925170" lon="-1.4240850">
        <ele>305.0</ele>
        <time>2021-11-06T16:39:40Z</time>
      </trkpt>
      <trkpt lat="38.1925430" lon="-1.4241090">
        <ele>305.6</ele>
        <time>2021-11-06T16:39:43Z</time>
      </trkpt>
      <trkpt lat="38.1925630" lon="-1.4241290">
        <ele>306.2</ele>
        <time>2021-11-06T16:39:45Z</time>
      </trkpt>
      <trkpt lat="38.1925720" lon="-1.4241430">
        <ele>304.6</ele>
        <time>2021-11-06T16:39:46Z</time>
      </trkpt>
      <trkpt lat="38.1925960" lon="-1.4241870">
        <ele>305.0</ele>
        <time>2021-11-06T16:39:50Z</time>
      </trkpt>
      <trkpt lat="38.1926260" lon="-1.4242910">
        <ele>305.6</ele>
        <time>2021-11-06T16:39:57Z</time>
      </trkpt>
      <trkpt lat="38.1926350" lon="-1.4243270">
        <ele>306.8</ele>
        <time>2021-11-06T16:40:00Z</time>
      </trkpt>
      <trkpt lat="38.1926430" lon="-1.4243630">
        <ele>307.4</ele>
        <time>2021-11-06T16:40:03Z</time>
      </trkpt>
      <trkpt lat="38.1926400" lon="-1.4244070">
        <ele>307.8</ele>
        <time>2021-11-06T16:40:07Z</time>
      </trkpt>
      <trkpt lat="38.1926300" lon="-1.4244250">
        <ele>308.4</ele>
        <time>2021-11-06T16:40:09Z</time>
      </trkpt>
      <trkpt lat="38.1926180" lon="-1.4244430">
        <ele>309.0</ele>
        <time>2021-11-06T16:40:11Z</time>
      </trkpt>
      <trkpt lat="38.1926050" lon="-1.4244660">
        <ele>310.2</ele>
        <time>2021-11-06T16:40:14Z</time>
      </trkpt>
      <trkpt lat="38.1925980" lon="-1.4244880">
        <ele>310.6</ele>
        <time>2021-11-06T16:40:16Z</time>
      </trkpt>
      <trkpt lat="38.1925870" lon="-1.4245130">
        <ele>311.4</ele>
        <time>2021-11-06T16:40:18Z</time>
      </trkpt>
      <trkpt lat="38.1925530" lon="-1.4245720">
        <ele>312.4</ele>
        <time>2021-11-06T16:40:24Z</time>
      </trkpt>
      <trkpt lat="38.1925490" lon="-1.4245800">
        <ele>312.6</ele>
        <time>2021-11-06T16:40:25Z</time>
      </trkpt>
      <trkpt lat="38.1925380" lon="-1.4245980">
        <ele>313.6</ele>
        <time>2021-11-06T16:40:29Z</time>
      </trkpt>
      <trkpt lat="38.1925340" lon="-1.4246070">
        <ele>313.8</ele>
        <time>2021-11-06T16:40:30Z</time>
      </trkpt>
      <trkpt lat="38.1925190" lon="-1.4246270">
        <ele>314.8</ele>
        <time>2021-11-06T16:40:33Z</time>
      </trkpt>
      <trkpt lat="38.1925090" lon="-1.4246460">
        <ele>315.4</ele>
        <time>2021-11-06T16:40:36Z</time>
      </trkpt>
      <trkpt lat="38.1925070" lon="-1.4246530">
        <ele>315.4</ele>
        <time>2021-11-06T16:40:37Z</time>
      </trkpt>
      <trkpt lat="38.1925010" lon="-1.4246640">
        <ele>316.0</ele>
        <time>2021-11-06T16:40:39Z</time>
      </trkpt>
      <trkpt lat="38.1924900" lon="-1.4246940">
        <ele>317.2</ele>
        <time>2021-11-06T16:40:42Z</time>
      </trkpt>
      <trkpt lat="38.1924880" lon="-1.4247130">
        <ele>317.6</ele>
        <time>2021-11-06T16:40:43Z</time>
      </trkpt>
      <trkpt lat="38.1924810" lon="-1.4247590">
        <ele>318.2</ele>
        <time>2021-11-06T16:40:45Z</time>
      </trkpt>
      <trkpt lat="38.1924720" lon="-1.4248350">
        <ele>318.8</ele>
        <time>2021-11-06T16:40:48Z</time>
      </trkpt>
      <trkpt lat="38.1924720" lon="-1.4248840">
        <ele>319.2</ele>
        <time>2021-11-06T16:40:50Z</time>
      </trkpt>
      <trkpt lat="38.1924640" lon="-1.4249450">
        <ele>319.0</ele>
        <time>2021-11-06T16:40:53Z</time>
      </trkpt>
      <trkpt lat="38.1924420" lon="-1.4250140">
        <ele>319.4</ele>
        <time>2021-11-06T16:40:56Z</time>
      </trkpt>
      <trkpt lat="38.1924230" lon="-1.4250590">
        <ele>320.4</ele>
        <time>2021-11-06T16:40:58Z</time>
      </trkpt>
      <trkpt lat="38.1923970" lon="-1.4251190">
        <ele>321.4</ele>
        <time>2021-11-06T16:41:01Z</time>
      </trkpt>
      <trkpt lat="38.1923770" lon="-1.4251660">
        <ele>321.8</ele>
        <time>2021-11-06T16:41:04Z</time>
      </trkpt>
      <trkpt lat="38.1923640" lon="-1.4251880">
        <ele>322.8</ele>
        <time>2021-11-06T16:41:06Z</time>
      </trkpt>
      <trkpt lat="38.1923470" lon="-1.4252080">
        <ele>323.8</ele>
        <time>2021-11-06T16:41:08Z</time>
      </trkpt>
      <trkpt lat="38.1923180" lon="-1.4252350">
        <ele>324.6</ele>
        <time>2021-11-06T16:41:11Z</time>
      </trkpt>
      <trkpt lat="38.1923100" lon="-1.4252470">
        <ele>324.8</ele>
        <time>2021-11-06T16:41:12Z</time>
      </trkpt>
      <trkpt lat="38.1922600" lon="-1.4253090">
        <ele>326.0</ele>
        <time>2021-11-06T16:41:18Z</time>
      </trkpt>
      <trkpt lat="38.1922530" lon="-1.4253190">
        <ele>326.2</ele>
        <time>2021-11-06T16:41:19Z</time>
      </trkpt>
      <trkpt lat="38.1922180" lon="-1.4253880">
        <ele>327.4</ele>
        <time>2021-11-06T16:41:25Z</time>
      </trkpt>
      <trkpt lat="38.1922000" lon="-1.4254110">
        <ele>328.0</ele>
        <time>2021-11-06T16:41:28Z</time>
      </trkpt>
      <trkpt lat="38.1921800" lon="-1.4254250">
        <ele>328.4</ele>
        <time>2021-11-06T16:41:30Z</time>
      </trkpt>
      <trkpt lat="38.1921590" lon="-1.4254320">
        <ele>329.0</ele>
        <time>2021-11-06T16:41:32Z</time>
      </trkpt>
      <trkpt lat="38.1921440" lon="-1.4254420">
        <ele>329.2</ele>
        <time>2021-11-06T16:41:34Z</time>
      </trkpt>
      <trkpt lat="38.1921240" lon="-1.4254580">
        <ele>329.6</ele>
        <time>2021-11-06T16:41:36Z</time>
      </trkpt>
      <trkpt lat="38.1920710" lon="-1.4255040">
        <ele>330.4</ele>
        <time>2021-11-06T16:41:40Z</time>
      </trkpt>
      <trkpt lat="38.1920400" lon="-1.4255370">
        <ele>330.8</ele>
        <time>2021-11-06T16:41:43Z</time>
      </trkpt>
      <trkpt lat="38.1919920" lon="-1.4255800">
        <ele>330.4</ele>
        <time>2021-11-06T16:41:47Z</time>
      </trkpt>
      <trkpt lat="38.1918970" lon="-1.4256460">
        <ele>331.0</ele>
        <time>2021-11-06T16:41:54Z</time>
      </trkpt>
      <trkpt lat="38.1918070" lon="-1.4257150">
        <ele>331.0</ele>
        <time>2021-11-06T16:42:00Z</time>
      </trkpt>
      <trkpt lat="38.1917730" lon="-1.4258080">
        <ele>331.0</ele>
        <time>2021-11-06T16:42:06Z</time>
      </trkpt>
      <trkpt lat="38.1917720" lon="-1.4258290">
        <ele>331.0</ele>
        <time>2021-11-06T16:42:07Z</time>
      </trkpt>
      <trkpt lat="38.1917610" lon="-1.4259320">
        <ele>331.4</ele>
        <time>2021-11-06T16:42:12Z</time>
      </trkpt>
      <trkpt lat="38.1917540" lon="-1.4259820">
        <ele>331.8</ele>
        <time>2021-11-06T16:42:15Z</time>
      </trkpt>
      <trkpt lat="38.1917400" lon="-1.4260200">
        <ele>332.0</ele>
        <time>2021-11-06T16:42:18Z</time>
      </trkpt>
      <trkpt lat="38.1917330" lon="-1.4260370">
        <ele>332.2</ele>
        <time>2021-11-06T16:42:19Z</time>
      </trkpt>
      <trkpt lat="38.1916570" lon="-1.4261930">
        <ele>332.6</ele>
        <time>2021-11-06T16:42:26Z</time>
      </trkpt>
      <trkpt lat="38.1915870" lon="-1.4262910">
        <ele>331.2</ele>
        <time>2021-11-06T16:42:31Z</time>
      </trkpt>
      <trkpt lat="38.1915650" lon="-1.4263490">
        <ele>330.4</ele>
        <time>2021-11-06T16:42:34Z</time>
      </trkpt>
      <trkpt lat="38.1915670" lon="-1.4263750">
        <ele>329.8</ele>
        <time>2021-11-06T16:42:36Z</time>
      </trkpt>
      <trkpt lat="38.1915870" lon="-1.4264270">
        <ele>330.4</ele>
        <time>2021-11-06T16:42:42Z</time>
      </trkpt>
      <trkpt lat="38.1915950" lon="-1.4264370">
        <ele>331.0</ele>
        <time>2021-11-06T16:42:43Z</time>
      </trkpt>
      <trkpt lat="38.1916200" lon="-1.4264700">
        <ele>331.6</ele>
        <time>2021-11-06T16:42:45Z</time>
      </trkpt>
      <trkpt lat="38.1916690" lon="-1.4265200">
        <ele>331.0</ele>
        <time>2021-11-06T16:42:49Z</time>
      </trkpt>
      <trkpt lat="38.1917430" lon="-1.4265750">
        <ele>330.4</ele>
        <time>2021-11-06T16:42:56Z</time>
      </trkpt>
      <trkpt lat="38.1917610" lon="-1.4265870">
        <ele>330.4</ele>
        <time>2021-11-06T16:42:58Z</time>
      </trkpt>
      <trkpt lat="38.1917960" lon="-1.4266070">
        <ele>331.0</ele>
        <time>2021-11-06T16:43:01Z</time>
      </trkpt>
      <trkpt lat="38.1918070" lon="-1.4266410">
        <ele>331.6</ele>
        <time>2021-11-06T16:43:04Z</time>
      </trkpt>
      <trkpt lat="38.1917970" lon="-1.4266710">
        <ele>330.4</ele>
        <time>2021-11-06T16:43:06Z</time>
      </trkpt>
      <trkpt lat="38.1917920" lon="-1.4266850">
        <ele>330.4</ele>
        <time>2021-11-06T16:43:07Z</time>
      </trkpt>
      <trkpt lat="38.1917400" lon="-1.4267470">
        <ele>331.6</ele>
        <time>2021-11-06T16:43:15Z</time>
      </trkpt>
      <trkpt lat="38.1917370" lon="-1.4267490">
        <ele>332.0</ele>
        <time>2021-11-06T16:43:16Z</time>
      </trkpt>
      <trkpt lat="38.1917310" lon="-1.4267570">
        <ele>332.2</ele>
        <time>2021-11-06T16:43:17Z</time>
      </trkpt>
      <trkpt lat="38.1917220" lon="-1.4267740">
        <ele>333.0</ele>
        <time>2021-11-06T16:43:19Z</time>
      </trkpt>
      <trkpt lat="38.1917240" lon="-1.4267910">
        <ele>333.2</ele>
        <time>2021-11-06T16:43:21Z</time>
      </trkpt>
      <trkpt lat="38.1917320" lon="-1.4268110">
        <ele>333.4</ele>
        <time>2021-11-06T16:43:23Z</time>
      </trkpt>
      <trkpt lat="38.1917350" lon="-1.4268310">
        <ele>334.0</ele>
        <time>2021-11-06T16:43:26Z</time>
      </trkpt>
      <trkpt lat="38.1917330" lon="-1.4268350">
        <ele>334.2</ele>
        <time>2021-11-06T16:43:27Z</time>
      </trkpt>
      <trkpt lat="38.1917070" lon="-1.4268650">
        <ele>335.0</ele>
        <time>2021-11-06T16:43:33Z</time>
      </trkpt>
      <trkpt lat="38.1917070" lon="-1.4268710">
        <ele>335.2</ele>
        <time>2021-11-06T16:43:34Z</time>
      </trkpt>
      <trkpt lat="38.1917210" lon="-1.4268830">
        <ele>336.2</ele>
        <time>2021-11-06T16:43:39Z</time>
      </trkpt>
      <trkpt lat="38.1917240" lon="-1.4269720">
        <ele>335.6</ele>
        <time>2021-11-06T16:43:45Z</time>
      </trkpt>
      <trkpt lat="38.1917220" lon="-1.4270480">
        <ele>336.0</ele>
        <time>2021-11-06T16:43:51Z</time>
      </trkpt>
      <trkpt lat="38.1917090" lon="-1.4270890">
        <ele>337.2</ele>
        <time>2021-11-06T16:43:55Z</time>
      </trkpt>
      <trkpt lat="38.1917070" lon="-1.4270980">
        <ele>337.6</ele>
        <time>2021-11-06T16:43:56Z</time>
      </trkpt>
      <trkpt lat="38.1917070" lon="-1.4271070">
        <ele>338.0</ele>
        <time>2021-11-06T16:43:57Z</time>
      </trkpt>
      <trkpt lat="38.1917080" lon="-1.4271210">
        <ele>338.4</ele>
        <time>2021-11-06T16:43:58Z</time>
      </trkpt>
      <trkpt lat="38.1917150" lon="-1.4271570">
        <ele>338.8</ele>
        <time>2021-11-06T16:44:00Z</time>
      </trkpt>
      <trkpt lat="38.1917240" lon="-1.4271820">
        <ele>339.4</ele>
        <time>2021-11-06T16:44:03Z</time>
      </trkpt>
      <trkpt lat="38.1917250" lon="-1.4271860">
        <ele>339.4</ele>
        <time>2021-11-06T16:44:04Z</time>
      </trkpt>
      <trkpt lat="38.1917240" lon="-1.4271960">
        <ele>339.8</ele>
        <time>2021-11-06T16:44:05Z</time>
      </trkpt>
      <trkpt lat="38.1917210" lon="-1.4272050">
        <ele>340.0</ele>
        <time>2021-11-06T16:44:06Z</time>
      </trkpt>
      <trkpt lat="38.1917000" lon="-1.4272280">
        <ele>340.8</ele>
        <time>2021-11-06T16:44:09Z</time>
      </trkpt>
      <trkpt lat="38.1916930" lon="-1.4272270">
        <ele>341.0</ele>
        <time>2021-11-06T16:44:10Z</time>
      </trkpt>
      <trkpt lat="38.1916800" lon="-1.4271990">
        <ele>341.6</ele>
        <time>2021-11-06T16:44:13Z</time>
      </trkpt>
      <trkpt lat="38.1916690" lon="-1.4271870">
        <ele>341.8</ele>
        <time>2021-11-06T16:44:15Z</time>
      </trkpt>
      <trkpt lat="38.1916630" lon="-1.4271820">
        <ele>342.0</ele>
        <time>2021-11-06T16:44:16Z</time>
      </trkpt>
      <trkpt lat="38.1916480" lon="-1.4271510">
        <ele>342.8</ele>
        <time>2021-11-06T16:44:19Z</time>
      </trkpt>
      <trkpt lat="38.1916340" lon="-1.4271300">
        <ele>343.4</ele>
        <time>2021-11-06T16:44:21Z</time>
      </trkpt>
      <trkpt lat="38.1916230" lon="-1.4271090">
        <ele>344.0</ele>
        <time>2021-11-06T16:44:23Z</time>
      </trkpt>
      <trkpt lat="38.1916020" lon="-1.4270790">
        <ele>344.6</ele>
        <time>2021-11-06T16:44:27Z</time>
      </trkpt>
      <trkpt lat="38.1915700" lon="-1.4270680">
        <ele>345.2</ele>
        <time>2021-11-06T16:44:30Z</time>
      </trkpt>
      <trkpt lat="38.1915560" lon="-1.4270670">
        <ele>345.4</ele>
        <time>2021-11-06T16:44:31Z</time>
      </trkpt>
      <trkpt lat="38.1915300" lon="-1.4270670">
        <ele>346.0</ele>
        <time>2021-11-06T16:44:33Z</time>
      </trkpt>
      <trkpt lat="38.1915030" lon="-1.4270730">
        <ele>346.6</ele>
        <time>2021-11-06T16:44:35Z</time>
      </trkpt>
      <trkpt lat="38.1914770" lon="-1.4270870">
        <ele>347.2</ele>
        <time>2021-11-06T16:44:37Z</time>
      </trkpt>
      <trkpt lat="38.1914550" lon="-1.4271180">
        <ele>348.2</ele>
        <time>2021-11-06T16:44:41Z</time>
      </trkpt>
      <trkpt lat="38.1914610" lon="-1.4271280">
        <ele>348.6</ele>
        <time>2021-11-06T16:44:42Z</time>
      </trkpt>
      <trkpt lat="38.1914670" lon="-1.4271410">
        <ele>348.8</ele>
        <time>2021-11-06T16:44:43Z</time>
      </trkpt>
      <trkpt lat="38.1914910" lon="-1.4271810">
        <ele>349.6</ele>
        <time>2021-11-06T16:44:46Z</time>
      </trkpt>
      <trkpt lat="38.1914980" lon="-1.4271950">
        <ele>350.0</ele>
        <time>2021-11-06T16:44:47Z</time>
      </trkpt>
      <trkpt lat="38.1915130" lon="-1.4272360">
        <ele>350.6</ele>
        <time>2021-11-06T16:44:50Z</time>
      </trkpt>
      <trkpt lat="38.1915280" lon="-1.4273100">
        <ele>351.8</ele>
        <time>2021-11-06T16:44:55Z</time>
      </trkpt>
      <trkpt lat="38.1915230" lon="-1.4273410">
        <ele>353.0</ele>
        <time>2021-11-06T16:45:00Z</time>
      </trkpt>
      <trkpt lat="38.1915160" lon="-1.4273430">
        <ele>353.2</ele>
        <time>2021-11-06T16:45:01Z</time>
      </trkpt>
      <trkpt lat="38.1915020" lon="-1.4273580">
        <ele>353.6</ele>
        <time>2021-11-06T16:45:03Z</time>
      </trkpt>
      <trkpt lat="38.1914800" lon="-1.4273700">
        <ele>354.0</ele>
        <time>2021-11-06T16:45:05Z</time>
      </trkpt>
      <trkpt lat="38.1914590" lon="-1.4273840">
        <ele>354.4</ele>
        <time>2021-11-06T16:45:07Z</time>
      </trkpt>
      <trkpt lat="38.1914210" lon="-1.4274090">
        <ele>355.4</ele>
        <time>2021-11-06T16:45:11Z</time>
      </trkpt>
      <trkpt lat="38.1914030" lon="-1.4274210">
        <ele>356.0</ele>
        <time>2021-11-06T16:45:14Z</time>
      </trkpt>
      <trkpt lat="38.1913910" lon="-1.4274450">
        <ele>356.6</ele>
        <time>2021-11-06T16:45:16Z</time>
      </trkpt>
      <trkpt lat="38.1913700" lon="-1.4274600">
        <ele>357.2</ele>
        <time>2021-11-06T16:45:19Z</time>
      </trkpt>
      <trkpt lat="38.1913660" lon="-1.4274560">
        <ele>357.6</ele>
        <time>2021-11-06T16:45:20Z</time>
      </trkpt>
      <trkpt lat="38.1913590" lon="-1.4274550">
        <ele>357.8</ele>
        <time>2021-11-06T16:45:21Z</time>
      </trkpt>
      <trkpt lat="38.1913510" lon="-1.4274480">
        <ele>358.0</ele>
        <time>2021-11-06T16:45:22Z</time>
      </trkpt>
      <trkpt lat="38.1913350" lon="-1.4274220">
        <ele>358.8</ele>
        <time>2021-11-06T16:45:24Z</time>
      </trkpt>
      <trkpt lat="38.1913180" lon="-1.4273930">
        <ele>359.6</ele>
        <time>2021-11-06T16:45:26Z</time>
      </trkpt>
      <trkpt lat="38.1912990" lon="-1.4273870">
        <ele>360.0</ele>
        <time>2021-11-06T16:45:28Z</time>
      </trkpt>
      <trkpt lat="38.1912780" lon="-1.4274260">
        <ele>360.4</ele>
        <time>2021-11-06T16:45:31Z</time>
      </trkpt>
      <trkpt lat="38.1912720" lon="-1.4274680">
        <ele>361.0</ele>
        <time>2021-11-06T16:45:34Z</time>
      </trkpt>
      <trkpt lat="38.1912560" lon="-1.4275000">
        <ele>362.0</ele>
        <time>2021-11-06T16:45:37Z</time>
      </trkpt>
      <trkpt lat="38.1912490" lon="-1.4275120">
        <ele>362.2</ele>
        <time>2021-11-06T16:45:38Z</time>
      </trkpt>
      <trkpt lat="38.1912220" lon="-1.4275510">
        <ele>363.4</ele>
        <time>2021-11-06T16:45:41Z</time>
      </trkpt>
      <trkpt lat="38.1912020" lon="-1.4275560">
        <ele>364.2</ele>
        <time>2021-11-06T16:45:44Z</time>
      </trkpt>
      <trkpt lat="38.1911950" lon="-1.4275540">
        <ele>364.4</ele>
        <time>2021-11-06T16:45:45Z</time>
      </trkpt>
      <trkpt lat="38.1911510" lon="-1.4275480">
        <ele>365.4</ele>
        <time>2021-11-06T16:45:50Z</time>
      </trkpt>
      <trkpt lat="38.1911450" lon="-1.4275530">
        <ele>365.8</ele>
        <time>2021-11-06T16:45:51Z</time>
      </trkpt>
      <trkpt lat="38.1911380" lon="-1.4275580">
        <ele>366.0</ele>
        <time>2021-11-06T16:45:52Z</time>
      </trkpt>
      <trkpt lat="38.1911190" lon="-1.4275950">
        <ele>366.6</ele>
        <time>2021-11-06T16:45:55Z</time>
      </trkpt>
      <trkpt lat="38.1911020" lon="-1.4276270">
        <ele>367.2</ele>
        <time>2021-11-06T16:45:58Z</time>
      </trkpt>
      <trkpt lat="38.1910910" lon="-1.4276480">
        <ele>367.6</ele>
        <time>2021-11-06T16:46:00Z</time>
      </trkpt>
      <trkpt lat="38.1910600" lon="-1.4277080">
        <ele>368.6</ele>
        <time>2021-11-06T16:46:05Z</time>
      </trkpt>
      <trkpt lat="38.1910510" lon="-1.4277230">
        <ele>369.0</ele>
        <time>2021-11-06T16:46:06Z</time>
      </trkpt>
      <trkpt lat="38.1909990" lon="-1.4277830">
        <ele>370.0</ele>
        <time>2021-11-06T16:46:11Z</time>
      </trkpt>
      <trkpt lat="38.1909900" lon="-1.4277950">
        <ele>370.2</ele>
        <time>2021-11-06T16:46:12Z</time>
      </trkpt>
      <trkpt lat="38.1909590" lon="-1.4278370">
        <ele>371.2</ele>
        <time>2021-11-06T16:46:18Z</time>
      </trkpt>
      <trkpt lat="38.1909210" lon="-1.4278610">
        <ele>372.4</ele>
        <time>2021-11-06T16:46:23Z</time>
      </trkpt>
      <trkpt lat="38.1909120" lon="-1.4279010">
        <ele>373.0</ele>
        <time>2021-11-06T16:46:26Z</time>
      </trkpt>
      <trkpt lat="38.1909040" lon="-1.4279350">
        <ele>373.6</ele>
        <time>2021-11-06T16:46:29Z</time>
      </trkpt>
      <trkpt lat="38.1908860" lon="-1.4279600">
        <ele>374.4</ele>
        <time>2021-11-06T16:46:32Z</time>
      </trkpt>
      <trkpt lat="38.1908780" lon="-1.4279700">
        <ele>374.6</ele>
        <time>2021-11-06T16:46:33Z</time>
      </trkpt>
      <trkpt lat="38.1908640" lon="-1.4279890">
        <ele>373.0</ele>
        <time>2021-11-06T16:46:35Z</time>
      </trkpt>
      <trkpt lat="38.1908500" lon="-1.4280360">
        <ele>372.2</ele>
        <time>2021-11-06T16:46:39Z</time>
      </trkpt>
      <trkpt lat="38.1908070" lon="-1.4280980">
        <ele>373.8</ele>
        <time>2021-11-06T16:46:46Z</time>
      </trkpt>
      <trkpt lat="38.1907930" lon="-1.4281030">
        <ele>374.2</ele>
        <time>2021-11-06T16:46:48Z</time>
      </trkpt>
      <trkpt lat="38.1907650" lon="-1.4280560">
        <ele>374.8</ele>
        <time>2021-11-06T16:46:51Z</time>
      </trkpt>
      <trkpt lat="38.1907320" lon="-1.4280100">
        <ele>374.8</ele>
        <time>2021-11-06T16:46:56Z</time>
      </trkpt>
      <trkpt lat="38.1907210" lon="-1.4280000">
        <ele>374.8</ele>
        <time>2021-11-06T16:46:58Z</time>
      </trkpt>
      <trkpt lat="38.1907090" lon="-1.4280280">
        <ele>375.2</ele>
        <time>2021-11-06T16:47:01Z</time>
      </trkpt>
      <trkpt lat="38.1907070" lon="-1.4280490">
        <ele>374.8</ele>
        <time>2021-11-06T16:47:03Z</time>
      </trkpt>
      <trkpt lat="38.1907050" lon="-1.4280680">
        <ele>373.2</ele>
        <time>2021-11-06T16:47:05Z</time>
      </trkpt>
      <trkpt lat="38.1907090" lon="-1.4281260">
        <ele>373.4</ele>
        <time>2021-11-06T16:47:10Z</time>
      </trkpt>
      <trkpt lat="38.1906940" lon="-1.4281810">
        <ele>374.2</ele>
        <time>2021-11-06T16:47:14Z</time>
      </trkpt>
      <trkpt lat="38.1906900" lon="-1.4282290">
        <ele>374.8</ele>
        <time>2021-11-06T16:47:17Z</time>
      </trkpt>
      <trkpt lat="38.1906820" lon="-1.4282620">
        <ele>375.2</ele>
        <time>2021-11-06T16:47:21Z</time>
      </trkpt>
      <trkpt lat="38.1906770" lon="-1.4282690">
        <ele>375.4</ele>
        <time>2021-11-06T16:47:23Z</time>
      </trkpt>
      <trkpt lat="38.1906750" lon="-1.4282730">
        <ele>375.8</ele>
        <time>2021-11-06T16:47:24Z</time>
      </trkpt>
      <trkpt lat="38.1906730" lon="-1.4282790">
        <ele>376.0</ele>
        <time>2021-11-06T16:47:25Z</time>
      </trkpt>
      <trkpt lat="38.1906690" lon="-1.4282840">
        <ele>376.6</ele>
        <time>2021-11-06T16:47:26Z</time>
      </trkpt>
      <trkpt lat="38.1906550" lon="-1.4283150">
        <ele>377.6</ele>
        <time>2021-11-06T16:47:31Z</time>
      </trkpt>
      <trkpt lat="38.1906150" lon="-1.4284000">
        <ele>378.8</ele>
        <time>2021-11-06T16:47:38Z</time>
      </trkpt>
      <trkpt lat="38.1906030" lon="-1.4284690">
        <ele>379.6</ele>
        <time>2021-11-06T16:47:44Z</time>
      </trkpt>
      <trkpt lat="38.1906100" lon="-1.4285120">
        <ele>380.0</ele>
        <time>2021-11-06T16:47:47Z</time>
      </trkpt>
      <trkpt lat="38.1906110" lon="-1.4285290">
        <ele>380.2</ele>
        <time>2021-11-06T16:47:48Z</time>
      </trkpt>
      <trkpt lat="38.1906100" lon="-1.4285620">
        <ele>381.0</ele>
        <time>2021-11-06T16:47:50Z</time>
      </trkpt>
      <trkpt lat="38.1906120" lon="-1.4285780">
        <ele>381.2</ele>
        <time>2021-11-06T16:47:51Z</time>
      </trkpt>
      <trkpt lat="38.1906080" lon="-1.4286140">
        <ele>381.6</ele>
        <time>2021-11-06T16:47:54Z</time>
      </trkpt>
      <trkpt lat="38.1906010" lon="-1.4286260">
        <ele>382.2</ele>
        <time>2021-11-06T16:47:56Z</time>
      </trkpt>
      <trkpt lat="38.1905950" lon="-1.4286250">
        <ele>382.4</ele>
        <time>2021-11-06T16:47:57Z</time>
      </trkpt>
      <trkpt lat="38.1905740" lon="-1.4286000">
        <ele>383.2</ele>
        <time>2021-11-06T16:48:00Z</time>
      </trkpt>
      <trkpt lat="38.1905690" lon="-1.4285810">
        <ele>383.2</ele>
        <time>2021-11-06T16:48:01Z</time>
      </trkpt>
      <trkpt lat="38.1905580" lon="-1.4285340">
        <ele>384.4</ele>
        <time>2021-11-06T16:48:05Z</time>
      </trkpt>
      <trkpt lat="38.1905560" lon="-1.4285270">
        <ele>384.6</ele>
        <time>2021-11-06T16:48:06Z</time>
      </trkpt>
      <trkpt lat="38.1905510" lon="-1.4285150">
        <ele>384.8</ele>
        <time>2021-11-06T16:48:07Z</time>
      </trkpt>
      <trkpt lat="38.1905300" lon="-1.4284710">
        <ele>385.4</ele>
        <time>2021-11-06T16:48:10Z</time>
      </trkpt>
      <trkpt lat="38.1905170" lon="-1.4284500">
        <ele>386.0</ele>
        <time>2021-11-06T16:48:12Z</time>
      </trkpt>
      <trkpt lat="38.1905100" lon="-1.4284420">
        <ele>386.4</ele>
        <time>2021-11-06T16:48:13Z</time>
      </trkpt>
      <trkpt lat="38.1905030" lon="-1.4284310">
        <ele>386.8</ele>
        <time>2021-11-06T16:48:14Z</time>
      </trkpt>
      <trkpt lat="38.1904600" lon="-1.4283640">
        <ele>388.0</ele>
        <time>2021-11-06T16:48:20Z</time>
      </trkpt>
      <trkpt lat="38.1904500" lon="-1.4283750">
        <ele>388.6</ele>
        <time>2021-11-06T16:48:21Z</time>
      </trkpt>
      <trkpt lat="38.1904400" lon="-1.4284180">
        <ele>389.0</ele>
        <time>2021-11-06T16:48:23Z</time>
      </trkpt>
      <trkpt lat="38.1904370" lon="-1.4284500">
        <ele>389.2</ele>
        <time>2021-11-06T16:48:25Z</time>
      </trkpt>
      <trkpt lat="38.1904200" lon="-1.4284880">
        <ele>390.0</ele>
        <time>2021-11-06T16:48:29Z</time>
      </trkpt>
      <trkpt lat="38.1904070" lon="-1.4285480">
        <ele>391.0</ele>
        <time>2021-11-06T16:48:33Z</time>
      </trkpt>
      <trkpt lat="38.1904040" lon="-1.4285620">
        <ele>391.2</ele>
        <time>2021-11-06T16:48:34Z</time>
      </trkpt>
      <trkpt lat="38.1903940" lon="-1.4286230">
        <ele>391.8</ele>
        <time>2021-11-06T16:48:39Z</time>
      </trkpt>
      <trkpt lat="38.1903890" lon="-1.4286640">
        <ele>392.2</ele>
        <time>2021-11-06T16:48:42Z</time>
      </trkpt>
      <trkpt lat="38.1903860" lon="-1.4287000">
        <ele>393.4</ele>
        <time>2021-11-06T16:48:45Z</time>
      </trkpt>
      <trkpt lat="38.1903870" lon="-1.4287100">
        <ele>393.6</ele>
        <time>2021-11-06T16:48:46Z</time>
      </trkpt>
      <trkpt lat="38.1903920" lon="-1.4287260">
        <ele>394.0</ele>
        <time>2021-11-06T16:48:49Z</time>
      </trkpt>
      <trkpt lat="38.1903990" lon="-1.4287290">
        <ele>394.4</ele>
        <time>2021-11-06T16:48:51Z</time>
      </trkpt>
      <trkpt lat="38.1903920" lon="-1.4287400">
        <ele>395.0</ele>
        <time>2021-11-06T16:48:55Z</time>
      </trkpt>
      <trkpt lat="38.1903840" lon="-1.4287300">
        <ele>395.8</ele>
        <time>2021-11-06T16:48:58Z</time>
      </trkpt>
      <trkpt lat="38.1903750" lon="-1.4287070">
        <ele>396.4</ele>
        <time>2021-11-06T16:49:01Z</time>
      </trkpt>
      <trkpt lat="38.1903730" lon="-1.4286880">
        <ele>397.0</ele>
        <time>2021-11-06T16:49:04Z</time>
      </trkpt>
      <trkpt lat="38.1903640" lon="-1.4286760">
        <ele>397.6</ele>
        <time>2021-11-06T16:49:07Z</time>
      </trkpt>
      <trkpt lat="38.1903440" lon="-1.4286470">
        <ele>398.0</ele>
        <time>2021-11-06T16:49:12Z</time>
      </trkpt>
      <trkpt lat="38.1903380" lon="-1.4286330">
        <ele>398.0</ele>
        <time>2021-11-06T16:49:13Z</time>
      </trkpt>
      <trkpt lat="38.1903250" lon="-1.4286010">
        <ele>399.0</ele>
        <time>2021-11-06T16:49:16Z</time>
      </trkpt>
      <trkpt lat="38.1903010" lon="-1.4285760">
        <ele>399.8</ele>
        <time>2021-11-06T16:49:19Z</time>
      </trkpt>
      <trkpt lat="38.1902830" lon="-1.4285520">
        <ele>400.0</ele>
        <time>2021-11-06T16:49:21Z</time>
      </trkpt>
      <trkpt lat="38.1902590" lon="-1.4285310">
        <ele>400.8</ele>
        <time>2021-11-06T16:49:24Z</time>
      </trkpt>
      <trkpt lat="38.1902430" lon="-1.4285190">
        <ele>401.2</ele>
        <time>2021-11-06T16:49:26Z</time>
      </trkpt>
      <trkpt lat="38.1902340" lon="-1.4285140">
        <ele>401.6</ele>
        <time>2021-11-06T16:49:27Z</time>
      </trkpt>
      <trkpt lat="38.1902180" lon="-1.4285100">
        <ele>402.2</ele>
        <time>2021-11-06T16:49:29Z</time>
      </trkpt>
      <trkpt lat="38.1901980" lon="-1.4284910">
        <ele>403.4</ele>
        <time>2021-11-06T16:49:32Z</time>
      </trkpt>
      <trkpt lat="38.1901940" lon="-1.4284870">
        <ele>403.6</ele>
        <time>2021-11-06T16:49:33Z</time>
      </trkpt>
      <trkpt lat="38.1901530" lon="-1.4284570">
        <ele>404.0</ele>
        <time>2021-11-06T16:49:38Z</time>
      </trkpt>
      <trkpt lat="38.1901350" lon="-1.4284480">
        <ele>404.4</ele>
        <time>2021-11-06T16:49:40Z</time>
      </trkpt>
      <trkpt lat="38.1901050" lon="-1.4284310">
        <ele>405.2</ele>
        <time>2021-11-06T16:49:44Z</time>
      </trkpt>
      <trkpt lat="38.1900950" lon="-1.4284170">
        <ele>404.8</ele>
        <time>2021-11-06T16:49:46Z</time>
      </trkpt>
      <trkpt lat="38.1900680" lon="-1.4283960">
        <ele>404.8</ele>
        <time>2021-11-06T16:49:49Z</time>
      </trkpt>
      <trkpt lat="38.1900590" lon="-1.4283960">
        <ele>404.8</ele>
        <time>2021-11-06T16:49:50Z</time>
      </trkpt>
      <trkpt lat="38.1900500" lon="-1.4283990">
        <ele>404.8</ele>
        <time>2021-11-06T16:49:51Z</time>
      </trkpt>
      <trkpt lat="38.1900110" lon="-1.4283990">
        <ele>403.8</ele>
        <time>2021-11-06T16:49:55Z</time>
      </trkpt>
      <trkpt lat="38.1899540" lon="-1.4283630">
        <ele>403.8</ele>
        <time>2021-11-06T16:50:01Z</time>
      </trkpt>
      <trkpt lat="38.1899230" lon="-1.4283610">
        <ele>404.2</ele>
        <time>2021-11-06T16:50:04Z</time>
      </trkpt>
      <trkpt lat="38.1899140" lon="-1.4283590">
        <ele>404.6</ele>
        <time>2021-11-06T16:50:05Z</time>
      </trkpt>
      <trkpt lat="38.1898410" lon="-1.4283540">
        <ele>405.4</ele>
        <time>2021-11-06T16:50:10Z</time>
      </trkpt>
      <trkpt lat="38.1898300" lon="-1.4283490">
        <ele>405.6</ele>
        <time>2021-11-06T16:50:11Z</time>
      </trkpt>
      <trkpt lat="38.1897520" lon="-1.4283250">
        <ele>406.8</ele>
        <time>2021-11-06T16:50:17Z</time>
      </trkpt>
      <trkpt lat="38.1897260" lon="-1.4283200">
        <ele>407.0</ele>
        <time>2021-11-06T16:50:19Z</time>
      </trkpt>
      <trkpt lat="38.1896850" lon="-1.4283180">
        <ele>407.8</ele>
        <time>2021-11-06T16:50:22Z</time>
      </trkpt>
      <trkpt lat="38.1895980" lon="-1.4283400">
        <ele>407.8</ele>
        <time>2021-11-06T16:50:26Z</time>
      </trkpt>
      <trkpt lat="38.1894210" lon="-1.4284390">
        <ele>407.8</ele>
        <time>2021-11-06T16:50:33Z</time>
      </trkpt>
      <trkpt lat="38.1893150" lon="-1.4284800">
        <ele>408.2</ele>
        <time>2021-11-06T16:50:38Z</time>
      </trkpt>
      <trkpt lat="38.1892760" lon="-1.4285030">
        <ele>409.0</ele>
        <time>2021-11-06T16:50:40Z</time>
      </trkpt>
      <trkpt lat="38.1892260" lon="-1.4285330">
        <ele>410.2</ele>
        <time>2021-11-06T16:50:43Z</time>
      </trkpt>
      <trkpt lat="38.1892100" lon="-1.4285400">
        <ele>410.8</ele>
        <time>2021-11-06T16:50:44Z</time>
      </trkpt>
      <trkpt lat="38.1891940" lon="-1.4285410">
        <ele>411.2</ele>
        <time>2021-11-06T16:50:45Z</time>
      </trkpt>
      <trkpt lat="38.1891770" lon="-1.4285450">
        <ele>411.6</ele>
        <time>2021-11-06T16:50:46Z</time>
      </trkpt>
      <trkpt lat="38.1891280" lon="-1.4285780">
        <ele>412.6</ele>
        <time>2021-11-06T16:50:49Z</time>
      </trkpt>
      <trkpt lat="38.1890730" lon="-1.4286680">
        <ele>413.8</ele>
        <time>2021-11-06T16:50:53Z</time>
      </trkpt>
      <trkpt lat="38.1890610" lon="-1.4286880">
        <ele>414.0</ele>
        <time>2021-11-06T16:50:54Z</time>
      </trkpt>
      <trkpt lat="38.1890420" lon="-1.4287210">
        <ele>415.0</ele>
        <time>2021-11-06T16:50:56Z</time>
      </trkpt>
      <trkpt lat="38.1890050" lon="-1.4287820">
        <ele>415.4</ele>
        <time>2021-11-06T16:51:00Z</time>
      </trkpt>
      <trkpt lat="38.1889860" lon="-1.4288450">
        <ele>416.2</ele>
        <time>2021-11-06T16:51:03Z</time>
      </trkpt>
      <trkpt lat="38.1889700" lon="-1.4289020">
        <ele>417.2</ele>
        <time>2021-11-06T16:51:06Z</time>
      </trkpt>
      <trkpt lat="38.1889630" lon="-1.4289200">
        <ele>417.4</ele>
        <time>2021-11-06T16:51:07Z</time>
      </trkpt>
      <trkpt lat="38.1889300" lon="-1.4290080">
        <ele>418.4</ele>
        <time>2021-11-06T16:51:11Z</time>
      </trkpt>
      <trkpt lat="38.1889110" lon="-1.4290540">
        <ele>419.6</ele>
        <time>2021-11-06T16:51:14Z</time>
      </trkpt>
      <trkpt lat="38.1889000" lon="-1.4291370">
        <ele>420.6</ele>
        <time>2021-11-06T16:51:19Z</time>
      </trkpt>
      <trkpt lat="38.1888960" lon="-1.4291470">
        <ele>421.0</ele>
        <time>2021-11-06T16:51:20Z</time>
      </trkpt>
      <trkpt lat="38.1888640" lon="-1.4291840">
        <ele>421.8</ele>
        <time>2021-11-06T16:51:24Z</time>
      </trkpt>
      <trkpt lat="38.1888490" lon="-1.4291930">
        <ele>422.2</ele>
        <time>2021-11-06T16:51:26Z</time>
      </trkpt>
      <trkpt lat="38.1888330" lon="-1.4292090">
        <ele>422.8</ele>
        <time>2021-11-06T16:51:28Z</time>
      </trkpt>
      <trkpt lat="38.1887980" lon="-1.4292760">
        <ele>424.0</ele>
        <time>2021-11-06T16:51:33Z</time>
      </trkpt>
      <trkpt lat="38.1887940" lon="-1.4292870">
        <ele>424.2</ele>
        <time>2021-11-06T16:51:34Z</time>
      </trkpt>
      <trkpt lat="38.1887870" lon="-1.4293520">
        <ele>425.2</ele>
        <time>2021-11-06T16:51:38Z</time>
      </trkpt>
      <trkpt lat="38.1887740" lon="-1.4294440">
        <ele>426.0</ele>
        <time>2021-11-06T16:51:43Z</time>
      </trkpt>
      <trkpt lat="38.1887730" lon="-1.4294850">
        <ele>426.2</ele>
        <time>2021-11-06T16:51:45Z</time>
      </trkpt>
      <trkpt lat="38.1887780" lon="-1.4295770">
        <ele>426.8</ele>
        <time>2021-11-06T16:51:49Z</time>
      </trkpt>
      <trkpt lat="38.1887770" lon="-1.4296230">
        <ele>427.2</ele>
        <time>2021-11-06T16:51:52Z</time>
      </trkpt>
      <trkpt lat="38.1887690" lon="-1.4296760">
        <ele>427.8</ele>
        <time>2021-11-06T16:51:55Z</time>
      </trkpt>
      <trkpt lat="38.1887590" lon="-1.4297570">
        <ele>427.8</ele>
        <time>2021-11-06T16:52:00Z</time>
      </trkpt>
      <trkpt lat="38.1887610" lon="-1.4297780">
        <ele>428.4</ele>
        <time>2021-11-06T16:52:01Z</time>
      </trkpt>
      <trkpt lat="38.1887740" lon="-1.4298360">
        <ele>429.6</ele>
        <time>2021-11-06T16:52:04Z</time>
      </trkpt>
      <trkpt lat="38.1887870" lon="-1.4298490">
        <ele>429.6</ele>
        <time>2021-11-06T16:52:05Z</time>
      </trkpt>
      <trkpt lat="38.1888030" lon="-1.4298600">
        <ele>429.8</ele>
        <time>2021-11-06T16:52:06Z</time>
      </trkpt>
      <trkpt lat="38.1888940" lon="-1.4299160">
        <ele>430.6</ele>
        <time>2021-11-06T16:52:13Z</time>
      </trkpt>
      <trkpt lat="38.1889060" lon="-1.4299220">
        <ele>430.6</ele>
        <time>2021-11-06T16:52:14Z</time>
      </trkpt>
      <trkpt lat="38.1889900" lon="-1.4299800">
        <ele>431.2</ele>
        <time>2021-11-06T16:52:21Z</time>
      </trkpt>
      <trkpt lat="38.1890320" lon="-1.4300090">
        <ele>431.6</ele>
        <time>2021-11-06T16:52:24Z</time>
      </trkpt>
      <trkpt lat="38.1890660" lon="-1.4300270">
        <ele>431.6</ele>
        <time>2021-11-06T16:52:26Z</time>
      </trkpt>
      <trkpt lat="38.1891050" lon="-1.4300480">
        <ele>431.8</ele>
        <time>2021-11-06T16:52:28Z</time>
      </trkpt>
      <trkpt lat="38.1892030" lon="-1.4301130">
        <ele>432.0</ele>
        <time>2021-11-06T16:52:33Z</time>
      </trkpt>
      <trkpt lat="38.1892370" lon="-1.4301930">
        <ele>432.2</ele>
        <time>2021-11-06T16:52:37Z</time>
      </trkpt>
      <trkpt lat="38.1892540" lon="-1.4302490">
        <ele>432.8</ele>
        <time>2021-11-06T16:52:39Z</time>
      </trkpt>
      <trkpt lat="38.1892920" lon="-1.4303190">
        <ele>433.2</ele>
        <time>2021-11-06T16:52:42Z</time>
      </trkpt>
      <trkpt lat="38.1893670" lon="-1.4304580">
        <ele>434.0</ele>
        <time>2021-11-06T16:52:48Z</time>
      </trkpt>
      <trkpt lat="38.1894040" lon="-1.4305770">
        <ele>435.0</ele>
        <time>2021-11-06T16:52:53Z</time>
      </trkpt>
      <trkpt lat="38.1894090" lon="-1.4306020">
        <ele>435.0</ele>
        <time>2021-11-06T16:52:54Z</time>
      </trkpt>
      <trkpt lat="38.1894020" lon="-1.4307150">
        <ele>435.8</ele>
        <time>2021-11-06T16:52:59Z</time>
      </trkpt>
      <trkpt lat="38.1893910" lon="-1.4307530">
        <ele>436.0</ele>
        <time>2021-11-06T16:53:01Z</time>
      </trkpt>
      <trkpt lat="38.1893910" lon="-1.4307700">
        <ele>436.4</ele>
        <time>2021-11-06T16:53:02Z</time>
      </trkpt>
      <trkpt lat="38.1893940" lon="-1.4308050">
        <ele>437.0</ele>
        <time>2021-11-06T16:53:04Z</time>
      </trkpt>
      <trkpt lat="38.1894040" lon="-1.4308860">
        <ele>438.2</ele>
        <time>2021-11-06T16:53:08Z</time>
      </trkpt>
      <trkpt lat="38.1894130" lon="-1.4309050">
        <ele>438.8</ele>
        <time>2021-11-06T16:53:09Z</time>
      </trkpt>
      <trkpt lat="38.1894220" lon="-1.4309190">
        <ele>439.2</ele>
        <time>2021-11-06T16:53:10Z</time>
      </trkpt>
      <trkpt lat="38.1894310" lon="-1.4309340">
        <ele>439.4</ele>
        <time>2021-11-06T16:53:11Z</time>
      </trkpt>
      <trkpt lat="38.1894690" lon="-1.4310450">
        <ele>440.2</ele>
        <time>2021-11-06T16:53:17Z</time>
      </trkpt>
      <trkpt lat="38.1894780" lon="-1.4310740">
        <ele>440.4</ele>
        <time>2021-11-06T16:53:19Z</time>
      </trkpt>
      <trkpt lat="38.1895020" lon="-1.4311230">
        <ele>441.0</ele>
        <time>2021-11-06T16:53:23Z</time>
      </trkpt>
      <trkpt lat="38.1895270" lon="-1.4311620">
        <ele>441.6</ele>
        <time>2021-11-06T16:53:26Z</time>
      </trkpt>
      <trkpt lat="38.1895560" lon="-1.4312380">
        <ele>442.8</ele>
        <time>2021-11-06T16:53:30Z</time>
      </trkpt>
      <trkpt lat="38.1895570" lon="-1.4313440">
        <ele>443.6</ele>
        <time>2021-11-06T16:53:36Z</time>
      </trkpt>
      <trkpt lat="38.1895460" lon="-1.4313810">
        <ele>444.0</ele>
        <time>2021-11-06T16:53:38Z</time>
      </trkpt>
      <trkpt lat="38.1895210" lon="-1.4314640">
        <ele>444.6</ele>
        <time>2021-11-06T16:53:44Z</time>
      </trkpt>
      <trkpt lat="38.1895070" lon="-1.4315080">
        <ele>445.2</ele>
        <time>2021-11-06T16:53:46Z</time>
      </trkpt>
      <trkpt lat="38.1894980" lon="-1.4316230">
        <ele>445.6</ele>
        <time>2021-11-06T16:53:51Z</time>
      </trkpt>
      <trkpt lat="38.1894720" lon="-1.4317340">
        <ele>446.2</ele>
        <time>2021-11-06T16:53:57Z</time>
      </trkpt>
      <trkpt lat="38.1894650" lon="-1.4317490">
        <ele>446.4</ele>
        <time>2021-11-06T16:53:58Z</time>
      </trkpt>
      <trkpt lat="38.1894190" lon="-1.4318880">
        <ele>447.0</ele>
        <time>2021-11-06T16:54:05Z</time>
      </trkpt>
      <trkpt lat="38.1894210" lon="-1.4319100">
        <ele>447.6</ele>
        <time>2021-11-06T16:54:06Z</time>
      </trkpt>
      <trkpt lat="38.1894490" lon="-1.4319480">
        <ele>448.8</ele>
        <time>2021-11-06T16:54:09Z</time>
      </trkpt>
      <trkpt lat="38.1894640" lon="-1.4319490">
        <ele>449.2</ele>
        <time>2021-11-06T16:54:10Z</time>
      </trkpt>
      <trkpt lat="38.1894720" lon="-1.4319510">
        <ele>449.4</ele>
        <time>2021-11-06T16:54:11Z</time>
      </trkpt>
      <trkpt lat="38.1894830" lon="-1.4319440">
        <ele>449.6</ele>
        <time>2021-11-06T16:54:12Z</time>
      </trkpt>
      <trkpt lat="38.1894980" lon="-1.4319020">
        <ele>449.8</ele>
        <time>2021-11-06T16:54:14Z</time>
      </trkpt>
      <trkpt lat="38.1895060" lon="-1.4318810">
        <ele>450.2</ele>
        <time>2021-11-06T16:54:15Z</time>
      </trkpt>
      <trkpt lat="38.1895170" lon="-1.4318680">
        <ele>450.4</ele>
        <time>2021-11-06T16:54:16Z</time>
      </trkpt>
      <trkpt lat="38.1895780" lon="-1.4318140">
        <ele>451.2</ele>
        <time>2021-11-06T16:54:20Z</time>
      </trkpt>
      <trkpt lat="38.1895970" lon="-1.4317790">
        <ele>451.4</ele>
        <time>2021-11-06T16:54:22Z</time>
      </trkpt>
      <trkpt lat="38.1896180" lon="-1.4317500">
        <ele>452.4</ele>
        <time>2021-11-06T16:54:25Z</time>
      </trkpt>
      <trkpt lat="38.1896550" lon="-1.4317160">
        <ele>452.8</ele>
        <time>2021-11-06T16:54:28Z</time>
      </trkpt>
      <trkpt lat="38.1896760" lon="-1.4316990">
        <ele>452.8</ele>
        <time>2021-11-06T16:54:30Z</time>
      </trkpt>
      <trkpt lat="38.1896920" lon="-1.4316920">
        <ele>453.4</ele>
        <time>2021-11-06T16:54:32Z</time>
      </trkpt>
      <trkpt lat="38.1896990" lon="-1.4316880">
        <ele>453.4</ele>
        <time>2021-11-06T16:54:33Z</time>
      </trkpt>
      <trkpt lat="38.1897070" lon="-1.4316850">
        <ele>453.6</ele>
        <time>2021-11-06T16:54:34Z</time>
      </trkpt>
      <trkpt lat="38.1897320" lon="-1.4317120">
        <ele>454.6</ele>
        <time>2021-11-06T16:54:38Z</time>
      </trkpt>
      <trkpt lat="38.1897190" lon="-1.4317690">
        <ele>455.6</ele>
        <time>2021-11-06T16:54:42Z</time>
      </trkpt>
      <trkpt lat="38.1897160" lon="-1.4317790">
        <ele>455.6</ele>
        <time>2021-11-06T16:54:43Z</time>
      </trkpt>
      <trkpt lat="38.1897120" lon="-1.4317890">
        <ele>455.8</ele>
        <time>2021-11-06T16:54:44Z</time>
      </trkpt>
      <trkpt lat="38.1896970" lon="-1.4318420">
        <ele>456.8</ele>
        <time>2021-11-06T16:54:48Z</time>
      </trkpt>
      <trkpt lat="38.1897010" lon="-1.4318890">
        <ele>457.4</ele>
        <time>2021-11-06T16:54:51Z</time>
      </trkpt>
      <trkpt lat="38.1897050" lon="-1.4318970">
        <ele>457.6</ele>
        <time>2021-11-06T16:54:52Z</time>
      </trkpt>
      <trkpt lat="38.1897090" lon="-1.4319100">
        <ele>457.6</ele>
        <time>2021-11-06T16:54:54Z</time>
      </trkpt>
      <trkpt lat="38.1896980" lon="-1.4319270">
        <ele>457.6</ele>
        <time>2021-11-06T16:54:56Z</time>
      </trkpt>
      <trkpt lat="38.1896730" lon="-1.4319800">
        <ele>458.2</ele>
        <time>2021-11-06T16:55:00Z</time>
      </trkpt>
      <trkpt lat="38.1896590" lon="-1.4320030">
        <ele>458.8</ele>
        <time>2021-11-06T16:55:02Z</time>
      </trkpt>
      <trkpt lat="38.1896440" lon="-1.4320210">
        <ele>459.4</ele>
        <time>2021-11-06T16:55:05Z</time>
      </trkpt>
      <trkpt lat="38.1896310" lon="-1.4320690">
        <ele>460.4</ele>
        <time>2021-11-06T16:55:08Z</time>
      </trkpt>
      <trkpt lat="38.1896270" lon="-1.4320830">
        <ele>460.8</ele>
        <time>2021-11-06T16:55:09Z</time>
      </trkpt>
      <trkpt lat="38.1896160" lon="-1.4321260">
        <ele>461.6</ele>
        <time>2021-11-06T16:55:12Z</time>
      </trkpt>
      <trkpt lat="38.1895980" lon="-1.4321840">
        <ele>462.6</ele>
        <time>2021-11-06T16:55:16Z</time>
      </trkpt>
      <trkpt lat="38.1895950" lon="-1.4321950">
        <ele>463.0</ele>
        <time>2021-11-06T16:55:17Z</time>
      </trkpt>
      <trkpt lat="38.1895680" lon="-1.4322350">
        <ele>463.6</ele>
        <time>2021-11-06T16:55:21Z</time>
      </trkpt>
      <trkpt lat="38.1895610" lon="-1.4322570">
        <ele>464.2</ele>
        <time>2021-11-06T16:55:23Z</time>
      </trkpt>
      <trkpt lat="38.1895630" lon="-1.4322780">
        <ele>464.6</ele>
        <time>2021-11-06T16:55:25Z</time>
      </trkpt>
      <trkpt lat="38.1895440" lon="-1.4323420">
        <ele>465.8</ele>
        <time>2021-11-06T16:55:30Z</time>
      </trkpt>
      <trkpt lat="38.1895420" lon="-1.4323560">
        <ele>466.2</ele>
        <time>2021-11-06T16:55:31Z</time>
      </trkpt>
      <trkpt lat="38.1895390" lon="-1.4323690">
        <ele>466.8</ele>
        <time>2021-11-06T16:55:33Z</time>
      </trkpt>
      <trkpt lat="38.1895400" lon="-1.4323750">
        <ele>467.4</ele>
        <time>2021-11-06T16:55:36Z</time>
      </trkpt>
      <trkpt lat="38.1895330" lon="-1.4324560">
        <ele>467.6</ele>
        <time>2021-11-06T16:55:41Z</time>
      </trkpt>
      <trkpt lat="38.1895220" lon="-1.4324790">
        <ele>468.0</ele>
        <time>2021-11-06T16:55:43Z</time>
      </trkpt>
      <trkpt lat="38.1895130" lon="-1.4325470">
        <ele>469.2</ele>
        <time>2021-11-06T16:55:47Z</time>
      </trkpt>
      <trkpt lat="38.1895120" lon="-1.4325720">
        <ele>469.6</ele>
        <time>2021-11-06T16:55:49Z</time>
      </trkpt>
      <trkpt lat="38.1895070" lon="-1.4326100">
        <ele>470.4</ele>
        <time>2021-11-06T16:55:52Z</time>
      </trkpt>
      <trkpt lat="38.1895000" lon="-1.4326210">
        <ele>471.0</ele>
        <time>2021-11-06T16:55:55Z</time>
      </trkpt>
      <trkpt lat="38.1895030" lon="-1.4326250">
        <ele>471.2</ele>
        <time>2021-11-06T16:55:56Z</time>
      </trkpt>
      <trkpt lat="38.1895020" lon="-1.4326350">
        <ele>471.6</ele>
        <time>2021-11-06T16:55:58Z</time>
      </trkpt>
      <trkpt lat="38.1895020" lon="-1.4326790">
        <ele>472.8</ele>
        <time>2021-11-06T16:56:01Z</time>
      </trkpt>
      <trkpt lat="38.1895030" lon="-1.4327280">
        <ele>473.6</ele>
        <time>2021-11-06T16:56:03Z</time>
      </trkpt>
      <trkpt lat="38.1895080" lon="-1.4327500">
        <ele>474.2</ele>
        <time>2021-11-06T16:56:04Z</time>
      </trkpt>
      <trkpt lat="38.1895010" lon="-1.4328190">
        <ele>475.2</ele>
        <time>2021-11-06T16:56:09Z</time>
      </trkpt>
      <trkpt lat="38.1894850" lon="-1.4329330">
        <ele>476.2</ele>
        <time>2021-11-06T16:56:16Z</time>
      </trkpt>
      <trkpt lat="38.1894890" lon="-1.4329480">
        <ele>476.6</ele>
        <time>2021-11-06T16:56:17Z</time>
      </trkpt>
      <trkpt lat="38.1894780" lon="-1.4330390">
        <ele>477.8</ele>
        <time>2021-11-06T16:56:23Z</time>
      </trkpt>
      <trkpt lat="38.1894750" lon="-1.4330450">
        <ele>478.0</ele>
        <time>2021-11-06T16:56:24Z</time>
      </trkpt>
      <trkpt lat="38.1894920" lon="-1.4331020">
        <ele>478.4</ele>
        <time>2021-11-06T16:56:29Z</time>
      </trkpt>
      <trkpt lat="38.1895030" lon="-1.4331470">
        <ele>479.0</ele>
        <time>2021-11-06T16:56:32Z</time>
      </trkpt>
      <trkpt lat="38.1895130" lon="-1.4331960">
        <ele>479.8</ele>
        <time>2021-11-06T16:56:35Z</time>
      </trkpt>
      <trkpt lat="38.1895170" lon="-1.4332090">
        <ele>480.2</ele>
        <time>2021-11-06T16:56:36Z</time>
      </trkpt>
      <trkpt lat="38.1895270" lon="-1.4332690">
        <ele>481.2</ele>
        <time>2021-11-06T16:56:41Z</time>
      </trkpt>
      <trkpt lat="38.1895290" lon="-1.4332830">
        <ele>481.4</ele>
        <time>2021-11-06T16:56:42Z</time>
      </trkpt>
      <trkpt lat="38.1895260" lon="-1.4333620">
        <ele>482.2</ele>
        <time>2021-11-06T16:56:47Z</time>
      </trkpt>
      <trkpt lat="38.1895290" lon="-1.4333730">
        <ele>483.0</ele>
        <time>2021-11-06T16:56:49Z</time>
      </trkpt>
      <trkpt lat="38.1895260" lon="-1.4334110">
        <ele>483.0</ele>
        <time>2021-11-06T16:56:53Z</time>
      </trkpt>
      <trkpt lat="38.1895270" lon="-1.4334640">
        <ele>483.4</ele>
        <time>2021-11-06T16:56:56Z</time>
      </trkpt>
      <trkpt lat="38.1895220" lon="-1.4335140">
        <ele>484.4</ele>
        <time>2021-11-06T16:56:58Z</time>
      </trkpt>
      <trkpt lat="38.1895200" lon="-1.4335340">
        <ele>484.8</ele>
        <time>2021-11-06T16:56:59Z</time>
      </trkpt>
      <trkpt lat="38.1895090" lon="-1.4336080">
        <ele>485.8</ele>
        <time>2021-11-06T16:57:03Z</time>
      </trkpt>
      <trkpt lat="38.1895030" lon="-1.4336910">
        <ele>486.8</ele>
        <time>2021-11-06T16:57:10Z</time>
      </trkpt>
      <trkpt lat="38.1895050" lon="-1.4337050">
        <ele>486.8</ele>
        <time>2021-11-06T16:57:11Z</time>
      </trkpt>
      <trkpt lat="38.1894970" lon="-1.4337270">
        <ele>488.0</ele>
        <time>2021-11-06T16:57:14Z</time>
      </trkpt>
      <trkpt lat="38.1894930" lon="-1.4337590">
        <ele>488.2</ele>
        <time>2021-11-06T16:57:16Z</time>
      </trkpt>
      <trkpt lat="38.1894870" lon="-1.4338120">
        <ele>489.2</ele>
        <time>2021-11-06T16:57:19Z</time>
      </trkpt>
      <trkpt lat="38.1894770" lon="-1.4338560">
        <ele>490.2</ele>
        <time>2021-11-06T16:57:22Z</time>
      </trkpt>
      <trkpt lat="38.1894730" lon="-1.4338720">
        <ele>490.2</ele>
        <time>2021-11-06T16:57:23Z</time>
      </trkpt>
      <trkpt lat="38.1894470" lon="-1.4339360">
        <ele>491.2</ele>
        <time>2021-11-06T16:57:28Z</time>
      </trkpt>
      <trkpt lat="38.1894370" lon="-1.4339490">
        <ele>491.4</ele>
        <time>2021-11-06T16:57:29Z</time>
      </trkpt>
      <trkpt lat="38.1893860" lon="-1.4340210">
        <ele>492.6</ele>
        <time>2021-11-06T16:57:34Z</time>
      </trkpt>
      <trkpt lat="38.1893650" lon="-1.4340250">
        <ele>493.2</ele>
        <time>2021-11-06T16:57:36Z</time>
      </trkpt>
      <trkpt lat="38.1893510" lon="-1.4340230">
        <ele>493.6</ele>
        <time>2021-11-06T16:57:38Z</time>
      </trkpt>
      <trkpt lat="38.1893360" lon="-1.4340310">
        <ele>493.8</ele>
        <time>2021-11-06T16:57:40Z</time>
      </trkpt>
      <trkpt lat="38.1892640" lon="-1.4340830">
        <ele>495.0</ele>
        <time>2021-11-06T16:57:47Z</time>
      </trkpt>
      <trkpt lat="38.1892520" lon="-1.4340960">
        <ele>495.2</ele>
        <time>2021-11-06T16:57:48Z</time>
      </trkpt>
      <trkpt lat="38.1891990" lon="-1.4341480">
        <ele>496.2</ele>
        <time>2021-11-06T16:57:53Z</time>
      </trkpt>
      <trkpt lat="38.1891820" lon="-1.4341620">
        <ele>496.6</ele>
        <time>2021-11-06T16:57:55Z</time>
      </trkpt>
      <trkpt lat="38.1891730" lon="-1.4342200">
        <ele>497.4</ele>
        <time>2021-11-06T16:57:58Z</time>
      </trkpt>
      <trkpt lat="38.1891750" lon="-1.4343100">
        <ele>498.4</ele>
        <time>2021-11-06T16:58:03Z</time>
      </trkpt>
      <trkpt lat="38.1892000" lon="-1.4343260">
        <ele>498.8</ele>
        <time>2021-11-06T16:58:06Z</time>
      </trkpt>
      <trkpt lat="38.1892230" lon="-1.4343000">
        <ele>499.6</ele>
        <time>2021-11-06T16:58:08Z</time>
      </trkpt>
      <trkpt lat="38.1892940" lon="-1.4342480">
        <ele>500.8</ele>
        <time>2021-11-06T16:58:14Z</time>
      </trkpt>
      <trkpt lat="38.1893310" lon="-1.4342530">
        <ele>502.0</ele>
        <time>2021-11-06T16:58:18Z</time>
      </trkpt>
      <trkpt lat="38.1893600" lon="-1.4342560">
        <ele>502.4</ele>
        <time>2021-11-06T16:58:20Z</time>
      </trkpt>
      <trkpt lat="38.1893890" lon="-1.4342590">
        <ele>503.0</ele>
        <time>2021-11-06T16:58:22Z</time>
      </trkpt>
      <trkpt lat="38.1894390" lon="-1.4342740">
        <ele>504.2</ele>
        <time>2021-11-06T16:58:27Z</time>
      </trkpt>
      <trkpt lat="38.1894350" lon="-1.4342900">
        <ele>504.6</ele>
        <time>2021-11-06T16:58:29Z</time>
      </trkpt>
      <trkpt lat="38.1894180" lon="-1.4343150">
        <ele>505.2</ele>
        <time>2021-11-06T16:58:31Z</time>
      </trkpt>
      <trkpt lat="38.1893970" lon="-1.4343360">
        <ele>506.2</ele>
        <time>2021-11-06T16:58:34Z</time>
      </trkpt>
      <trkpt lat="38.1893900" lon="-1.4343410">
        <ele>506.4</ele>
        <time>2021-11-06T16:58:35Z</time>
      </trkpt>
      <trkpt lat="38.1893640" lon="-1.4343930">
        <ele>507.4</ele>
        <time>2021-11-06T16:58:40Z</time>
      </trkpt>
      <trkpt lat="38.1893400" lon="-1.4344410">
        <ele>508.2</ele>
        <time>2021-11-06T16:58:43Z</time>
      </trkpt>
      <trkpt lat="38.1893220" lon="-1.4344830">
        <ele>508.6</ele>
        <time>2021-11-06T16:58:46Z</time>
      </trkpt>
      <trkpt lat="38.1893070" lon="-1.4345130">
        <ele>508.8</ele>
        <time>2021-11-06T16:58:48Z</time>
      </trkpt>
      <trkpt lat="38.1892900" lon="-1.4345670">
        <ele>509.6</ele>
        <time>2021-11-06T16:58:51Z</time>
      </trkpt>
      <trkpt lat="38.1892750" lon="-1.4346380">
        <ele>510.6</ele>
        <time>2021-11-06T16:58:56Z</time>
      </trkpt>
      <trkpt lat="38.1892730" lon="-1.4346550">
        <ele>510.8</ele>
        <time>2021-11-06T16:58:57Z</time>
      </trkpt>
      <trkpt lat="38.1892730" lon="-1.4346680">
        <ele>511.0</ele>
        <time>2021-11-06T16:58:58Z</time>
      </trkpt>
      <trkpt lat="38.1892760" lon="-1.4346930">
        <ele>511.6</ele>
        <time>2021-11-06T16:59:00Z</time>
      </trkpt>
      <trkpt lat="38.1892720" lon="-1.4347130">
        <ele>512.2</ele>
        <time>2021-11-06T16:59:02Z</time>
      </trkpt>
      <trkpt lat="38.1892730" lon="-1.4347350">
        <ele>512.6</ele>
        <time>2021-11-06T16:59:04Z</time>
      </trkpt>
      <trkpt lat="38.1892980" lon="-1.4348110">
        <ele>513.8</ele>
        <time>2021-11-06T16:59:08Z</time>
      </trkpt>
      <trkpt lat="38.1893030" lon="-1.4348260">
        <ele>514.0</ele>
        <time>2021-11-06T16:59:09Z</time>
      </trkpt>
      <trkpt lat="38.1892970" lon="-1.4348980">
        <ele>515.0</ele>
        <time>2021-11-06T16:59:14Z</time>
      </trkpt>
      <trkpt lat="38.1892780" lon="-1.4349350">
        <ele>515.6</ele>
        <time>2021-11-06T16:59:16Z</time>
      </trkpt>
      <trkpt lat="38.1892540" lon="-1.4349820">
        <ele>516.2</ele>
        <time>2021-11-06T16:59:19Z</time>
      </trkpt>
      <trkpt lat="38.1892430" lon="-1.4350200">
        <ele>516.8</ele>
        <time>2021-11-06T16:59:22Z</time>
      </trkpt>
      <trkpt lat="38.1892370" lon="-1.4350320">
        <ele>517.0</ele>
        <time>2021-11-06T16:59:23Z</time>
      </trkpt>
      <trkpt lat="38.1892230" lon="-1.4350560">
        <ele>517.4</ele>
        <time>2021-11-06T16:59:25Z</time>
      </trkpt>
      <trkpt lat="38.1891860" lon="-1.4351070">
        <ele>518.4</ele>
        <time>2021-11-06T16:59:29Z</time>
      </trkpt>
      <trkpt lat="38.1891770" lon="-1.4351230">
        <ele>518.6</ele>
        <time>2021-11-06T16:59:30Z</time>
      </trkpt>
      <trkpt lat="38.1891470" lon="-1.4351700">
        <ele>519.4</ele>
        <time>2021-11-06T16:59:33Z</time>
      </trkpt>
      <trkpt lat="38.1890940" lon="-1.4352150">
        <ele>519.8</ele>
        <time>2021-11-06T16:59:37Z</time>
      </trkpt>
      <trkpt lat="38.1890310" lon="-1.4352670">
        <ele>520.6</ele>
        <time>2021-11-06T16:59:43Z</time>
      </trkpt>
      <trkpt lat="38.1890000" lon="-1.4353030">
        <ele>520.8</ele>
        <time>2021-11-06T16:59:47Z</time>
      </trkpt>
      <trkpt lat="38.1889820" lon="-1.4353220">
        <ele>521.0</ele>
        <time>2021-11-06T16:59:49Z</time>
      </trkpt>
      <trkpt lat="38.1889620" lon="-1.4353560">
        <ele>521.6</ele>
        <time>2021-11-06T16:59:52Z</time>
      </trkpt>
      <trkpt lat="38.1889480" lon="-1.4354050">
        <ele>522.6</ele>
        <time>2021-11-06T16:59:56Z</time>
      </trkpt>
      <trkpt lat="38.1889410" lon="-1.4354150">
        <ele>522.8</ele>
        <time>2021-11-06T16:59:57Z</time>
      </trkpt>
      <trkpt lat="38.1888860" lon="-1.4354850">
        <ele>523.6</ele>
        <time>2021-11-06T17:00:02Z</time>
      </trkpt>
      <trkpt lat="38.1888770" lon="-1.4355130">
        <ele>523.8</ele>
        <time>2021-11-06T17:00:04Z</time>
      </trkpt>
      <trkpt lat="38.1888530" lon="-1.4356000">
        <ele>524.6</ele>
        <time>2021-11-06T17:00:09Z</time>
      </trkpt>
      <trkpt lat="38.1888350" lon="-1.4356690">
        <ele>524.8</ele>
        <time>2021-11-06T17:00:13Z</time>
      </trkpt>
      <trkpt lat="38.1888370" lon="-1.4357130">
        <ele>526.2</ele>
        <time>2021-11-06T17:00:16Z</time>
      </trkpt>
      <trkpt lat="38.1888520" lon="-1.4358390">
        <ele>527.2</ele>
        <time>2021-11-06T17:00:23Z</time>
      </trkpt>
      <trkpt lat="38.1889200" lon="-1.4358950">
        <ele>528.2</ele>
        <time>2021-11-06T17:00:29Z</time>
      </trkpt>
      <trkpt lat="38.1889310" lon="-1.4358990">
        <ele>528.6</ele>
        <time>2021-11-06T17:00:30Z</time>
      </trkpt>
      <trkpt lat="38.1889580" lon="-1.4359100">
        <ele>529.8</ele>
        <time>2021-11-06T17:00:33Z</time>
      </trkpt>
      <trkpt lat="38.1889630" lon="-1.4359160">
        <ele>529.8</ele>
        <time>2021-11-06T17:00:34Z</time>
      </trkpt>
      <trkpt lat="38.1890000" lon="-1.4359530">
        <ele>530.4</ele>
        <time>2021-11-06T17:00:40Z</time>
      </trkpt>
      <trkpt lat="38.1890610" lon="-1.4360250">
        <ele>530.4</ele>
        <time>2021-11-06T17:00:46Z</time>
      </trkpt>
      <trkpt lat="38.1890900" lon="-1.4360790">
        <ele>530.8</ele>
        <time>2021-11-06T17:00:50Z</time>
      </trkpt>
      <trkpt lat="38.1891080" lon="-1.4361260">
        <ele>531.4</ele>
        <time>2021-11-06T17:00:53Z</time>
      </trkpt>
      <trkpt lat="38.1891120" lon="-1.4361310">
        <ele>531.4</ele>
        <time>2021-11-06T17:00:54Z</time>
      </trkpt>
      <trkpt lat="38.1891100" lon="-1.4361320">
        <ele>531.4</ele>
        <time>2021-11-06T17:00:56Z</time>
      </trkpt>
      <trkpt lat="38.1891000" lon="-1.4361460">
        <ele>531.4</ele>
        <time>2021-11-06T17:00:58Z</time>
      </trkpt>
      <trkpt lat="38.1891270" lon="-1.4361650">
        <ele>531.2</ele>
        <time>2021-11-06T17:01:04Z</time>
      </trkpt>
      <trkpt lat="38.1891390" lon="-1.4361740">
        <ele>531.4</ele>
        <time>2021-11-06T17:01:05Z</time>
      </trkpt>
      <trkpt lat="38.1891560" lon="-1.4361950">
        <ele>531.8</ele>
        <time>2021-11-06T17:01:07Z</time>
      </trkpt>
      <trkpt lat="38.1891590" lon="-1.4362120">
        <ele>532.0</ele>
        <time>2021-11-06T17:01:08Z</time>
      </trkpt>
      <trkpt lat="38.1891720" lon="-1.4362600">
        <ele>532.4</ele>
        <time>2021-11-06T17:01:11Z</time>
      </trkpt>
      <trkpt lat="38.1891830" lon="-1.4363690">
        <ele>533.0</ele>
        <time>2021-11-06T17:01:17Z</time>
      </trkpt>
      <trkpt lat="38.1892090" lon="-1.4363990">
        <ele>533.4</ele>
        <time>2021-11-06T17:01:19Z</time>
      </trkpt>
      <trkpt lat="38.1892480" lon="-1.4364310">
        <ele>534.0</ele>
        <time>2021-11-06T17:01:23Z</time>
      </trkpt>
      <trkpt lat="38.1892890" lon="-1.4364680">
        <ele>535.2</ele>
        <time>2021-11-06T17:01:27Z</time>
      </trkpt>
      <trkpt lat="38.1893220" lon="-1.4364800">
        <ele>535.8</ele>
        <time>2021-11-06T17:01:30Z</time>
      </trkpt>
      <trkpt lat="38.1893370" lon="-1.4364930">
        <ele>536.4</ele>
        <time>2021-11-06T17:01:32Z</time>
      </trkpt>
      <trkpt lat="38.1893550" lon="-1.4365110">
        <ele>536.8</ele>
        <time>2021-11-06T17:01:34Z</time>
      </trkpt>
      <trkpt lat="38.1893750" lon="-1.4365360">
        <ele>537.4</ele>
        <time>2021-11-06T17:01:36Z</time>
      </trkpt>
      <trkpt lat="38.1893830" lon="-1.4365430">
        <ele>537.6</ele>
        <time>2021-11-06T17:01:37Z</time>
      </trkpt>
      <trkpt lat="38.1894170" lon="-1.4366000">
        <ele>538.6</ele>
        <time>2021-11-06T17:01:42Z</time>
      </trkpt>
      <trkpt lat="38.1894230" lon="-1.4366080">
        <ele>539.0</ele>
        <time>2021-11-06T17:01:43Z</time>
      </trkpt>
      <trkpt lat="38.1894520" lon="-1.4366380">
        <ele>539.8</ele>
        <time>2021-11-06T17:01:46Z</time>
      </trkpt>
      <trkpt lat="38.1894840" lon="-1.4366530">
        <ele>540.8</ele>
        <time>2021-11-06T17:01:49Z</time>
      </trkpt>
      <trkpt lat="38.1894940" lon="-1.4366720">
        <ele>541.2</ele>
        <time>2021-11-06T17:01:51Z</time>
      </trkpt>
      <trkpt lat="38.1895170" lon="-1.4367550">
        <ele>542.0</ele>
        <time>2021-11-06T17:01:56Z</time>
      </trkpt>
      <trkpt lat="38.1895220" lon="-1.4367690">
        <ele>542.2</ele>
        <time>2021-11-06T17:01:57Z</time>
      </trkpt>
      <trkpt lat="38.1895360" lon="-1.4368150">
        <ele>543.0</ele>
        <time>2021-11-06T17:02:00Z</time>
      </trkpt>
      <trkpt lat="38.1895520" lon="-1.4368920">
        <ele>543.8</ele>
        <time>2021-11-06T17:02:05Z</time>
      </trkpt>
      <trkpt lat="38.1895820" lon="-1.4369480">
        <ele>544.2</ele>
        <time>2021-11-06T17:02:08Z</time>
      </trkpt>
      <trkpt lat="38.1895890" lon="-1.4369630">
        <ele>544.6</ele>
        <time>2021-11-06T17:02:09Z</time>
      </trkpt>
      <trkpt lat="38.1896000" lon="-1.4370020">
        <ele>544.8</ele>
        <time>2021-11-06T17:02:11Z</time>
      </trkpt>
      <trkpt lat="38.1896130" lon="-1.4371100">
        <ele>545.0</ele>
        <time>2021-11-06T17:02:18Z</time>
      </trkpt>
      <trkpt lat="38.1896130" lon="-1.4371280">
        <ele>545.6</ele>
        <time>2021-11-06T17:02:19Z</time>
      </trkpt>
      <trkpt lat="38.1896130" lon="-1.4372030">
        <ele>546.6</ele>
        <time>2021-11-06T17:02:23Z</time>
      </trkpt>
      <trkpt lat="38.1896180" lon="-1.4372440">
        <ele>546.6</ele>
        <time>2021-11-06T17:02:25Z</time>
      </trkpt>
      <trkpt lat="38.1896380" lon="-1.4373770">
        <ele>546.4</ele>
        <time>2021-11-06T17:02:30Z</time>
      </trkpt>
      <trkpt lat="38.1896390" lon="-1.4375580">
        <ele>545.6</ele>
        <time>2021-11-06T17:02:36Z</time>
      </trkpt>
      <trkpt lat="38.1896280" lon="-1.4377220">
        <ele>546.4</ele>
        <time>2021-11-06T17:02:42Z</time>
      </trkpt>
      <trkpt lat="38.1896180" lon="-1.4377570">
        <ele>546.4</ele>
        <time>2021-11-06T17:02:44Z</time>
      </trkpt>
      <trkpt lat="38.1895930" lon="-1.4377840">
        <ele>545.8</ele>
        <time>2021-11-06T17:02:46Z</time>
      </trkpt>
      <trkpt lat="38.1895680" lon="-1.4377990">
        <ele>546.4</ele>
        <time>2021-11-06T17:02:49Z</time>
      </trkpt>
      <trkpt lat="38.1895630" lon="-1.4377980">
        <ele>546.8</ele>
        <time>2021-11-06T17:02:50Z</time>
      </trkpt>
      <trkpt lat="38.1895630" lon="-1.4377910">
        <ele>547.0</ele>
        <time>2021-11-06T17:02:51Z</time>
      </trkpt>
      <trkpt lat="38.1895490" lon="-1.4378130">
        <ele>547.6</ele>
        <time>2021-11-06T17:02:56Z</time>
      </trkpt>
      <trkpt lat="38.1895490" lon="-1.4378260">
        <ele>547.8</ele>
        <time>2021-11-06T17:02:57Z</time>
      </trkpt>
      <trkpt lat="38.1895660" lon="-1.4378980">
        <ele>549.0</ele>
        <time>2021-11-06T17:03:03Z</time>
      </trkpt>
      <trkpt lat="38.1895530" lon="-1.4379450">
        <ele>550.2</ele>
        <time>2021-11-06T17:03:06Z</time>
      </trkpt>
      <trkpt lat="38.1895340" lon="-1.4379670">
        <ele>551.0</ele>
        <time>2021-11-06T17:03:08Z</time>
      </trkpt>
      <trkpt lat="38.1895250" lon="-1.4379800">
        <ele>551.2</ele>
        <time>2021-11-06T17:03:09Z</time>
      </trkpt>
      <trkpt lat="38.1895140" lon="-1.4379980">
        <ele>551.2</ele>
        <time>2021-11-06T17:03:10Z</time>
      </trkpt>
      <trkpt lat="38.1894780" lon="-1.4380740">
        <ele>551.6</ele>
        <time>2021-11-06T17:03:15Z</time>
      </trkpt>
      <trkpt lat="38.1894810" lon="-1.4381560">
        <ele>552.4</ele>
        <time>2021-11-06T17:03:20Z</time>
      </trkpt>
      <trkpt lat="38.1894980" lon="-1.4382420">
        <ele>553.2</ele>
        <time>2021-11-06T17:03:26Z</time>
      </trkpt>
      <trkpt lat="38.1895220" lon="-1.4383080">
        <ele>552.4</ele>
        <time>2021-11-06T17:03:29Z</time>
      </trkpt>
      <trkpt lat="38.1895460" lon="-1.4383800">
        <ele>551.4</ele>
        <time>2021-11-06T17:03:32Z</time>
      </trkpt>
      <trkpt lat="38.1895620" lon="-1.4384180">
        <ele>551.2</ele>
        <time>2021-11-06T17:03:34Z</time>
      </trkpt>
      <trkpt lat="38.1896140" lon="-1.4384790">
        <ele>551.6</ele>
        <time>2021-11-06T17:03:38Z</time>
      </trkpt>
      <trkpt lat="38.1896530" lon="-1.4385110">
        <ele>552.2</ele>
        <time>2021-11-06T17:03:41Z</time>
      </trkpt>
      <trkpt lat="38.1896980" lon="-1.4385430">
        <ele>553.4</ele>
        <time>2021-11-06T17:03:45Z</time>
      </trkpt>
      <trkpt lat="38.1897300" lon="-1.4385580">
        <ele>554.0</ele>
        <time>2021-11-06T17:03:48Z</time>
      </trkpt>
      <trkpt lat="38.1897450" lon="-1.4385830">
        <ele>554.8</ele>
        <time>2021-11-06T17:03:50Z</time>
      </trkpt>
      <trkpt lat="38.1897570" lon="-1.4385950">
        <ele>555.2</ele>
        <time>2021-11-06T17:03:51Z</time>
      </trkpt>
      <trkpt lat="38.1897960" lon="-1.4386360">
        <ele>556.0</ele>
        <time>2021-11-06T17:03:55Z</time>
      </trkpt>
      <trkpt lat="38.1898290" lon="-1.4386760">
        <ele>557.0</ele>
        <time>2021-11-06T17:03:59Z</time>
      </trkpt>
      <trkpt lat="38.1898360" lon="-1.4386910">
        <ele>557.2</ele>
        <time>2021-11-06T17:04:00Z</time>
      </trkpt>
      <trkpt lat="38.1898570" lon="-1.4387360">
        <ele>558.6</ele>
        <time>2021-11-06T17:04:03Z</time>
      </trkpt>
      <trkpt lat="38.1898720" lon="-1.4387670">
        <ele>559.0</ele>
        <time>2021-11-06T17:04:05Z</time>
      </trkpt>
      <trkpt lat="38.1899140" lon="-1.4387830">
        <ele>558.8</ele>
        <time>2021-11-06T17:04:09Z</time>
      </trkpt>
      <trkpt lat="38.1899270" lon="-1.4387860">
        <ele>558.8</ele>
        <time>2021-11-06T17:04:10Z</time>
      </trkpt>
      <trkpt lat="38.1899830" lon="-1.4388620">
        <ele>559.8</ele>
        <time>2021-11-06T17:04:16Z</time>
      </trkpt>
      <trkpt lat="38.1900340" lon="-1.4389830">
        <ele>560.6</ele>
        <time>2021-11-06T17:04:23Z</time>
      </trkpt>
      <trkpt lat="38.1900740" lon="-1.4390370">
        <ele>560.8</ele>
        <time>2021-11-06T17:04:26Z</time>
      </trkpt>
      <trkpt lat="38.1901200" lon="-1.4390840">
        <ele>561.2</ele>
        <time>2021-11-06T17:04:29Z</time>
      </trkpt>
      <trkpt lat="38.1901920" lon="-1.4391660">
        <ele>562.0</ele>
        <time>2021-11-06T17:04:34Z</time>
      </trkpt>
      <trkpt lat="38.1902370" lon="-1.4392210">
        <ele>563.2</ele>
        <time>2021-11-06T17:04:38Z</time>
      </trkpt>
      <trkpt lat="38.1902460" lon="-1.4392340">
        <ele>563.6</ele>
        <time>2021-11-06T17:04:39Z</time>
      </trkpt>
      <trkpt lat="38.1902590" lon="-1.4392530">
        <ele>564.0</ele>
        <time>2021-11-06T17:04:41Z</time>
      </trkpt>
      <trkpt lat="38.1902730" lon="-1.4392790">
        <ele>564.6</ele>
        <time>2021-11-06T17:04:43Z</time>
      </trkpt>
      <trkpt lat="38.1902800" lon="-1.4392880">
        <ele>565.2</ele>
        <time>2021-11-06T17:04:45Z</time>
      </trkpt>
      <trkpt lat="38.1902850" lon="-1.4392970">
        <ele>565.6</ele>
        <time>2021-11-06T17:04:47Z</time>
      </trkpt>
      <trkpt lat="38.1902840" lon="-1.4393080">
        <ele>565.8</ele>
        <time>2021-11-06T17:04:48Z</time>
      </trkpt>
      <trkpt lat="38.1902990" lon="-1.4393650">
        <ele>566.6</ele>
        <time>2021-11-06T17:04:52Z</time>
      </trkpt>
      <trkpt lat="38.1903110" lon="-1.4393810">
        <ele>566.8</ele>
        <time>2021-11-06T17:04:54Z</time>
      </trkpt>
      <trkpt lat="38.1903370" lon="-1.4394110">
        <ele>567.6</ele>
        <time>2021-11-06T17:04:58Z</time>
      </trkpt>
      <trkpt lat="38.1903490" lon="-1.4394200">
        <ele>567.8</ele>
        <time>2021-11-06T17:04:59Z</time>
      </trkpt>
      <trkpt lat="38.1903610" lon="-1.4394290">
        <ele>568.2</ele>
        <time>2021-11-06T17:05:00Z</time>
      </trkpt>
      <trkpt lat="38.1903760" lon="-1.4394510">
        <ele>568.6</ele>
        <time>2021-11-06T17:05:02Z</time>
      </trkpt>
      <trkpt lat="38.1903810" lon="-1.4395150">
        <ele>568.6</ele>
        <time>2021-11-06T17:05:04Z</time>
      </trkpt>
      <trkpt lat="38.1903900" lon="-1.4396060">
        <ele>568.8</ele>
        <time>2021-11-06T17:05:09Z</time>
      </trkpt>
      <trkpt lat="38.1903880" lon="-1.4396250">
        <ele>569.0</ele>
        <time>2021-11-06T17:05:10Z</time>
      </trkpt>
      <trkpt lat="38.1903900" lon="-1.4396790">
        <ele>570.2</ele>
        <time>2021-11-06T17:05:13Z</time>
      </trkpt>
      <trkpt lat="38.1903690" lon="-1.4397680">
        <ele>571.2</ele>
        <time>2021-11-06T17:05:18Z</time>
      </trkpt>
      <trkpt lat="38.1903610" lon="-1.4397880">
        <ele>571.2</ele>
        <time>2021-11-06T17:05:19Z</time>
      </trkpt>
      <trkpt lat="38.1903320" lon="-1.4398700">
        <ele>571.0</ele>
        <time>2021-11-06T17:05:24Z</time>
      </trkpt>
      <trkpt lat="38.1903380" lon="-1.4398990">
        <ele>570.8</ele>
        <time>2021-11-06T17:05:26Z</time>
      </trkpt>
      <trkpt lat="38.1903520" lon="-1.4399400">
        <ele>571.6</ele>
        <time>2021-11-06T17:05:29Z</time>
      </trkpt>
      <trkpt lat="38.1903730" lon="-1.4399480">
        <ele>572.4</ele>
        <time>2021-11-06T17:05:33Z</time>
      </trkpt>
      <trkpt lat="38.1903910" lon="-1.4399620">
        <ele>573.2</ele>
        <time>2021-11-06T17:05:36Z</time>
      </trkpt>
      <trkpt lat="38.1903950" lon="-1.4399730">
        <ele>573.4</ele>
        <time>2021-11-06T17:05:37Z</time>
      </trkpt>
      <trkpt lat="38.1904050" lon="-1.4400250">
        <ele>574.6</ele>
        <time>2021-11-06T17:05:41Z</time>
      </trkpt>
      <trkpt lat="38.1904100" lon="-1.4400340">
        <ele>574.8</ele>
        <time>2021-11-06T17:05:42Z</time>
      </trkpt>
      <trkpt lat="38.1904280" lon="-1.4400780">
        <ele>575.6</ele>
        <time>2021-11-06T17:05:46Z</time>
      </trkpt>
      <trkpt lat="38.1904290" lon="-1.4400950">
        <ele>575.8</ele>
        <time>2021-11-06T17:05:47Z</time>
      </trkpt>
      <trkpt lat="38.1904320" lon="-1.4401310">
        <ele>576.6</ele>
        <time>2021-11-06T17:05:49Z</time>
      </trkpt>
      <trkpt lat="38.1904360" lon="-1.4401730">
        <ele>577.0</ele>
        <time>2021-11-06T17:05:51Z</time>
      </trkpt>
      <trkpt lat="38.1904400" lon="-1.4402050">
        <ele>577.4</ele>
        <time>2021-11-06T17:05:53Z</time>
      </trkpt>
      <trkpt lat="38.1904520" lon="-1.4402470">
        <ele>578.2</ele>
        <time>2021-11-06T17:05:56Z</time>
      </trkpt>
      <trkpt lat="38.1904560" lon="-1.4402720">
        <ele>578.6</ele>
        <time>2021-11-06T17:05:58Z</time>
      </trkpt>
      <trkpt lat="38.1904750" lon="-1.4403250">
        <ele>579.4</ele>
        <time>2021-11-06T17:06:02Z</time>
      </trkpt>
      <trkpt lat="38.1905060" lon="-1.4403920">
        <ele>580.4</ele>
        <time>2021-11-06T17:06:06Z</time>
      </trkpt>
      <trkpt lat="38.1905630" lon="-1.4404300">
        <ele>581.6</ele>
        <time>2021-11-06T17:06:11Z</time>
      </trkpt>
      <trkpt lat="38.1905840" lon="-1.4404480">
        <ele>582.2</ele>
        <time>2021-11-06T17:06:13Z</time>
      </trkpt>
      <trkpt lat="38.1905970" lon="-1.4404670">
        <ele>582.6</ele>
        <time>2021-11-06T17:06:15Z</time>
      </trkpt>
      <trkpt lat="38.1906140" lon="-1.4404900">
        <ele>582.8</ele>
        <time>2021-11-06T17:06:17Z</time>
      </trkpt>
      <trkpt lat="38.1906170" lon="-1.4405100">
        <ele>583.2</ele>
        <time>2021-11-06T17:06:18Z</time>
      </trkpt>
      <trkpt lat="38.1906310" lon="-1.4405470">
        <ele>583.8</ele>
        <time>2021-11-06T17:06:20Z</time>
      </trkpt>
      <trkpt lat="38.1906570" lon="-1.4405910">
        <ele>584.4</ele>
        <time>2021-11-06T17:06:24Z</time>
      </trkpt>
      <trkpt lat="38.1906710" lon="-1.4406180">
        <ele>584.8</ele>
        <time>2021-11-06T17:06:26Z</time>
      </trkpt>
      <trkpt lat="38.1906990" lon="-1.4406630">
        <ele>585.6</ele>
        <time>2021-11-06T17:06:30Z</time>
      </trkpt>
      <trkpt lat="38.1907060" lon="-1.4406750">
        <ele>586.0</ele>
        <time>2021-11-06T17:06:31Z</time>
      </trkpt>
      <trkpt lat="38.1907770" lon="-1.4407940">
        <ele>587.2</ele>
        <time>2021-11-06T17:06:39Z</time>
      </trkpt>
      <trkpt lat="38.1908490" lon="-1.4408630">
        <ele>587.8</ele>
        <time>2021-11-06T17:06:45Z</time>
      </trkpt>
      <trkpt lat="38.1908710" lon="-1.4408970">
        <ele>588.0</ele>
        <time>2021-11-06T17:06:48Z</time>
      </trkpt>
      <trkpt lat="38.1908580" lon="-1.4409570">
        <ele>588.2</ele>
        <time>2021-11-06T17:06:52Z</time>
      </trkpt>
      <trkpt lat="38.1908510" lon="-1.4409640">
        <ele>588.4</ele>
        <time>2021-11-06T17:06:53Z</time>
      </trkpt>
      <trkpt lat="38.1908390" lon="-1.4409930">
        <ele>588.6</ele>
        <time>2021-11-06T17:06:55Z</time>
      </trkpt>
      <trkpt lat="38.1908220" lon="-1.4410460">
        <ele>589.6</ele>
        <time>2021-11-06T17:06:58Z</time>
      </trkpt>
      <trkpt lat="38.1907710" lon="-1.4411340">
        <ele>590.4</ele>
        <time>2021-11-06T17:07:04Z</time>
      </trkpt>
      <trkpt lat="38.1907640" lon="-1.4411470">
        <ele>590.8</ele>
        <time>2021-11-06T17:07:05Z</time>
      </trkpt>
      <trkpt lat="38.1907630" lon="-1.4412370">
        <ele>591.2</ele>
        <time>2021-11-06T17:07:11Z</time>
      </trkpt>
      <trkpt lat="38.1907540" lon="-1.4413080">
        <ele>592.0</ele>
        <time>2021-11-06T17:07:15Z</time>
      </trkpt>
      <trkpt lat="38.1907420" lon="-1.4413610">
        <ele>593.2</ele>
        <time>2021-11-06T17:07:18Z</time>
      </trkpt>
      <trkpt lat="38.1907140" lon="-1.4414920">
        <ele>594.2</ele>
        <time>2021-11-06T17:07:25Z</time>
      </trkpt>
      <trkpt lat="38.1907100" lon="-1.4415560">
        <ele>595.6</ele>
        <time>2021-11-06T17:07:29Z</time>
      </trkpt>
      <trkpt lat="38.1907160" lon="-1.4416010">
        <ele>596.2</ele>
        <time>2021-11-06T17:07:32Z</time>
      </trkpt>
      <trkpt lat="38.1907200" lon="-1.4416340">
        <ele>596.8</ele>
        <time>2021-11-06T17:07:34Z</time>
      </trkpt>
      <trkpt lat="38.1907260" lon="-1.4416900">
        <ele>598.0</ele>
        <time>2021-11-06T17:07:37Z</time>
      </trkpt>
      <trkpt lat="38.1907190" lon="-1.4417530">
        <ele>598.8</ele>
        <time>2021-11-06T17:07:40Z</time>
      </trkpt>
      <trkpt lat="38.1907190" lon="-1.4417800">
        <ele>599.0</ele>
        <time>2021-11-06T17:07:41Z</time>
      </trkpt>
      <trkpt lat="38.1906960" lon="-1.4418790">
        <ele>599.0</ele>
        <time>2021-11-06T17:07:45Z</time>
      </trkpt>
      <trkpt lat="38.1906760" lon="-1.4420150">
        <ele>598.8</ele>
        <time>2021-11-06T17:07:50Z</time>
      </trkpt>
      <trkpt lat="38.1906560" lon="-1.4421360">
        <ele>600.0</ele>
        <time>2021-11-06T17:07:55Z</time>
      </trkpt>
      <trkpt lat="38.1906460" lon="-1.4421990">
        <ele>601.2</ele>
        <time>2021-11-06T17:07:58Z</time>
      </trkpt>
      <trkpt lat="38.1906380" lon="-1.4422610">
        <ele>601.6</ele>
        <time>2021-11-06T17:08:01Z</time>
      </trkpt>
      <trkpt lat="38.1906570" lon="-1.4422940">
        <ele>602.4</ele>
        <time>2021-11-06T17:08:04Z</time>
      </trkpt>
      <trkpt lat="38.1906740" lon="-1.4422940">
        <ele>602.8</ele>
        <time>2021-11-06T17:08:05Z</time>
      </trkpt>
      <trkpt lat="38.1906900" lon="-1.4422850">
        <ele>603.2</ele>
        <time>2021-11-06T17:08:06Z</time>
      </trkpt>
      <trkpt lat="38.1906900" lon="-1.4422850">
        <ele>603.4</ele>
        <time>2021-11-06T17:08:07Z</time>
      </trkpt>
      <trkpt lat="38.1907040" lon="-1.4422210">
        <ele>603.2</ele>
        <time>2021-11-06T17:10:35Z</time>
      </trkpt>
      <trkpt lat="38.1907230" lon="-1.4421660">
        <ele>603.2</ele>
        <time>2021-11-06T17:10:39Z</time>
      </trkpt>
      <trkpt lat="38.1907720" lon="-1.4420800">
        <ele>603.2</ele>
        <time>2021-11-06T17:10:45Z</time>
      </trkpt>
      <trkpt lat="38.1908080" lon="-1.4418790">
        <ele>602.8</ele>
        <time>2021-11-06T17:10:52Z</time>
      </trkpt>
      <trkpt lat="38.1908440" lon="-1.4417540">
        <ele>602.4</ele>
        <time>2021-11-06T17:10:56Z</time>
      </trkpt>
      <trkpt lat="38.1908820" lon="-1.4416650">
        <ele>602.4</ele>
        <time>2021-11-06T17:10:59Z</time>
      </trkpt>
      <trkpt lat="38.1909680" lon="-1.4415750">
        <ele>602.6</ele>
        <time>2021-11-06T17:11:04Z</time>
      </trkpt>
      <trkpt lat="38.1910780" lon="-1.4414440">
        <ele>602.8</ele>
        <time>2021-11-06T17:11:10Z</time>
      </trkpt>
      <trkpt lat="38.1911520" lon="-1.4412760">
        <ele>602.6</ele>
        <time>2021-11-06T17:11:16Z</time>
      </trkpt>
      <trkpt lat="38.1911740" lon="-1.4412150">
        <ele>603.2</ele>
        <time>2021-11-06T17:11:18Z</time>
      </trkpt>
      <trkpt lat="38.1912190" lon="-1.4411120">
        <ele>603.2</ele>
        <time>2021-11-06T17:11:22Z</time>
      </trkpt>
      <trkpt lat="38.1912400" lon="-1.4410640">
        <ele>603.4</ele>
        <time>2021-11-06T17:11:24Z</time>
      </trkpt>
      <trkpt lat="38.1912880" lon="-1.4409420">
        <ele>603.8</ele>
        <time>2021-11-06T17:11:29Z</time>
      </trkpt>
      <trkpt lat="38.1913030" lon="-1.4408950">
        <ele>604.8</ele>
        <time>2021-11-06T17:11:31Z</time>
      </trkpt>
      <trkpt lat="38.1913510" lon="-1.4408120">
        <ele>605.6</ele>
        <time>2021-11-06T17:11:35Z</time>
      </trkpt>
      <trkpt lat="38.1913650" lon="-1.4407930">
        <ele>605.8</ele>
        <time>2021-11-06T17:11:36Z</time>
      </trkpt>
      <trkpt lat="38.1914190" lon="-1.4407270">
        <ele>607.0</ele>
        <time>2021-11-06T17:11:40Z</time>
      </trkpt>
      <trkpt lat="38.1914500" lon="-1.4406800">
        <ele>607.6</ele>
        <time>2021-11-06T17:11:42Z</time>
      </trkpt>
      <trkpt lat="38.1914760" lon="-1.4406280">
        <ele>608.2</ele>
        <time>2021-11-06T17:11:44Z</time>
      </trkpt>
      <trkpt lat="38.1915080" lon="-1.4405590">
        <ele>608.6</ele>
        <time>2021-11-06T17:11:47Z</time>
      </trkpt>
      <trkpt lat="38.1915150" lon="-1.4405340">
        <ele>609.2</ele>
        <time>2021-11-06T17:11:48Z</time>
      </trkpt>
      <trkpt lat="38.1915150" lon="-1.4404200">
        <ele>610.2</ele>
        <time>2021-11-06T17:11:52Z</time>
      </trkpt>
      <trkpt lat="38.1915150" lon="-1.4403740">
        <ele>610.4</ele>
        <time>2021-11-06T17:11:54Z</time>
      </trkpt>
      <trkpt lat="38.1915080" lon="-1.4403020">
        <ele>611.4</ele>
        <time>2021-11-06T17:11:57Z</time>
      </trkpt>
      <trkpt lat="38.1915060" lon="-1.4402740">
        <ele>611.2</ele>
        <time>2021-11-06T17:11:58Z</time>
      </trkpt>
      <trkpt lat="38.1914930" lon="-1.4401690">
        <ele>612.8</ele>
        <time>2021-11-06T17:12:02Z</time>
      </trkpt>
      <trkpt lat="38.1914840" lon="-1.4401160">
        <ele>613.0</ele>
        <time>2021-11-06T17:12:04Z</time>
      </trkpt>
      <trkpt lat="38.1914700" lon="-1.4400600">
        <ele>613.8</ele>
        <time>2021-11-06T17:12:06Z</time>
      </trkpt>
      <trkpt lat="38.1914470" lon="-1.4399120">
        <ele>613.4</ele>
        <time>2021-11-06T17:12:11Z</time>
      </trkpt>
      <trkpt lat="38.1914480" lon="-1.4398830">
        <ele>613.2</ele>
        <time>2021-11-06T17:12:12Z</time>
      </trkpt>
      <trkpt lat="38.1914500" lon="-1.4397980">
        <ele>613.0</ele>
        <time>2021-11-06T17:12:15Z</time>
      </trkpt>
      <trkpt lat="38.1914500" lon="-1.4397670">
        <ele>612.8</ele>
        <time>2021-11-06T17:12:16Z</time>
      </trkpt>
      <trkpt lat="38.1914350" lon="-1.4396460">
        <ele>612.0</ele>
        <time>2021-11-06T17:12:20Z</time>
      </trkpt>
      <trkpt lat="38.1914270" lon="-1.4395620">
        <ele>611.8</ele>
        <time>2021-11-06T17:12:23Z</time>
      </trkpt>
      <trkpt lat="38.1914110" lon="-1.4394600">
        <ele>611.0</ele>
        <time>2021-11-06T17:12:26Z</time>
      </trkpt>
      <trkpt lat="38.1913890" lon="-1.4393180">
        <ele>610.2</ele>
        <time>2021-11-06T17:12:30Z</time>
      </trkpt>
      <trkpt lat="38.1913820" lon="-1.4392480">
        <ele>609.8</ele>
        <time>2021-11-06T17:12:32Z</time>
      </trkpt>
      <trkpt lat="38.1913630" lon="-1.4391200">
        <ele>608.8</ele>
        <time>2021-11-06T17:12:36Z</time>
      </trkpt>
      <trkpt lat="38.1913510" lon="-1.4390300">
        <ele>608.0</ele>
        <time>2021-11-06T17:12:39Z</time>
      </trkpt>
      <trkpt lat="38.1913460" lon="-1.4390000">
        <ele>607.6</ele>
        <time>2021-11-06T17:12:40Z</time>
      </trkpt>
      <trkpt lat="38.1913360" lon="-1.4389290">
        <ele>606.4</ele>
        <time>2021-11-06T17:12:42Z</time>
      </trkpt>
      <trkpt lat="38.1912980" lon="-1.4387980">
        <ele>606.0</ele>
        <time>2021-11-06T17:12:46Z</time>
      </trkpt>
      <trkpt lat="38.1912760" lon="-1.4387370">
        <ele>605.4</ele>
        <time>2021-11-06T17:12:48Z</time>
      </trkpt>
      <trkpt lat="38.1911990" lon="-1.4386070">
        <ele>605.0</ele>
        <time>2021-11-06T17:12:53Z</time>
      </trkpt>
      <trkpt lat="38.1911380" lon="-1.4385380">
        <ele>604.4</ele>
        <time>2021-11-06T17:12:56Z</time>
      </trkpt>
      <trkpt lat="38.1910750" lon="-1.4384940">
        <ele>604.2</ele>
        <time>2021-11-06T17:12:59Z</time>
      </trkpt>
      <trkpt lat="38.1909150" lon="-1.4384150">
        <ele>603.2</ele>
        <time>2021-11-06T17:13:06Z</time>
      </trkpt>
      <trkpt lat="38.1908920" lon="-1.4384020">
        <ele>603.2</ele>
        <time>2021-11-06T17:13:07Z</time>
      </trkpt>
      <trkpt lat="38.1907550" lon="-1.4383250">
        <ele>603.0</ele>
        <time>2021-11-06T17:13:13Z</time>
      </trkpt>
      <trkpt lat="38.1906550" lon="-1.4382300">
        <ele>602.2</ele>
        <time>2021-11-06T17:13:18Z</time>
      </trkpt>
      <trkpt lat="38.1906290" lon="-1.4381700">
        <ele>601.8</ele>
        <time>2021-11-06T17:13:20Z</time>
      </trkpt>
      <trkpt lat="38.1906260" lon="-1.4380070">
        <ele>601.4</ele>
        <time>2021-11-06T17:13:25Z</time>
      </trkpt>
      <trkpt lat="38.1906420" lon="-1.4379770">
        <ele>601.2</ele>
        <time>2021-11-06T17:13:26Z</time>
      </trkpt>
      <trkpt lat="38.1907250" lon="-1.4379070">
        <ele>600.8</ele>
        <time>2021-11-06T17:13:30Z</time>
      </trkpt>
      <trkpt lat="38.1908280" lon="-1.4379380">
        <ele>600.2</ele>
        <time>2021-11-06T17:13:34Z</time>
      </trkpt>
      <trkpt lat="38.1908800" lon="-1.4380160">
        <ele>599.8</ele>
        <time>2021-11-06T17:13:37Z</time>
      </trkpt>
      <trkpt lat="38.1909030" lon="-1.4380860">
        <ele>599.0</ele>
        <time>2021-11-06T17:13:39Z</time>
      </trkpt>
      <trkpt lat="38.1909180" lon="-1.4381060">
        <ele>598.6</ele>
        <time>2021-11-06T17:13:40Z</time>
      </trkpt>
      <trkpt lat="38.1909930" lon="-1.4381640">
        <ele>597.6</ele>
        <time>2021-11-06T17:13:44Z</time>
      </trkpt>
      <trkpt lat="38.1910160" lon="-1.4381760">
        <ele>597.4</ele>
        <time>2021-11-06T17:13:45Z</time>
      </trkpt>
      <trkpt lat="38.1911560" lon="-1.4382010">
        <ele>597.2</ele>
        <time>2021-11-06T17:13:51Z</time>
      </trkpt>
      <trkpt lat="38.1912220" lon="-1.4381980">
        <ele>596.4</ele>
        <time>2021-11-06T17:13:54Z</time>
      </trkpt>
      <trkpt lat="38.1912650" lon="-1.4382010">
        <ele>595.2</ele>
        <time>2021-11-06T17:13:56Z</time>
      </trkpt>
      <trkpt lat="38.1912900" lon="-1.4382030">
        <ele>594.8</ele>
        <time>2021-11-06T17:13:57Z</time>
      </trkpt>
      <trkpt lat="38.1913440" lon="-1.4382130">
        <ele>594.0</ele>
        <time>2021-11-06T17:13:59Z</time>
      </trkpt>
      <trkpt lat="38.1914550" lon="-1.4382570">
        <ele>592.8</ele>
        <time>2021-11-06T17:14:03Z</time>
      </trkpt>
      <trkpt lat="38.1915080" lon="-1.4382710">
        <ele>592.4</ele>
        <time>2021-11-06T17:14:05Z</time>
      </trkpt>
      <trkpt lat="38.1916710" lon="-1.4382920">
        <ele>591.8</ele>
        <time>2021-11-06T17:14:11Z</time>
      </trkpt>
      <trkpt lat="38.1917210" lon="-1.4382900">
        <ele>591.2</ele>
        <time>2021-11-06T17:14:13Z</time>
      </trkpt>
      <trkpt lat="38.1917680" lon="-1.4382850">
        <ele>590.6</ele>
        <time>2021-11-06T17:14:15Z</time>
      </trkpt>
      <trkpt lat="38.1918700" lon="-1.4382850">
        <ele>590.0</ele>
        <time>2021-11-06T17:14:19Z</time>
      </trkpt>
      <trkpt lat="38.1918970" lon="-1.4382900">
        <ele>589.6</ele>
        <time>2021-11-06T17:14:20Z</time>
      </trkpt>
      <trkpt lat="38.1920360" lon="-1.4383030">
        <ele>588.6</ele>
        <time>2021-11-06T17:14:25Z</time>
      </trkpt>
      <trkpt lat="38.1920610" lon="-1.4383110">
        <ele>588.4</ele>
        <time>2021-11-06T17:14:26Z</time>
      </trkpt>
      <trkpt lat="38.1921610" lon="-1.4383660">
        <ele>587.6</ele>
        <time>2021-11-06T17:14:31Z</time>
      </trkpt>
      <trkpt lat="38.1922040" lon="-1.4383880">
        <ele>587.4</ele>
        <time>2021-11-06T17:14:33Z</time>
      </trkpt>
      <trkpt lat="38.1923050" lon="-1.4384380">
        <ele>586.0</ele>
        <time>2021-11-06T17:14:37Z</time>
      </trkpt>
      <trkpt lat="38.1923260" lon="-1.4384540">
        <ele>585.2</ele>
        <time>2021-11-06T17:14:38Z</time>
      </trkpt>
      <trkpt lat="38.1923500" lon="-1.4384710">
        <ele>584.6</ele>
        <time>2021-11-06T17:14:39Z</time>
      </trkpt>
      <trkpt lat="38.1923960" lon="-1.4385090">
        <ele>583.2</ele>
        <time>2021-11-06T17:14:41Z</time>
      </trkpt>
      <trkpt lat="38.1924380" lon="-1.4385450">
        <ele>582.4</ele>
        <time>2021-11-06T17:14:43Z</time>
      </trkpt>
      <trkpt lat="38.1924550" lon="-1.4385600">
        <ele>582.0</ele>
        <time>2021-11-06T17:14:44Z</time>
      </trkpt>
      <trkpt lat="38.1925060" lon="-1.4386600">
        <ele>581.2</ele>
        <time>2021-11-06T17:14:48Z</time>
      </trkpt>
      <trkpt lat="38.1925250" lon="-1.4387220">
        <ele>580.8</ele>
        <time>2021-11-06T17:14:50Z</time>
      </trkpt>
      <trkpt lat="38.1925590" lon="-1.4388200">
        <ele>580.0</ele>
        <time>2021-11-06T17:14:53Z</time>
      </trkpt>
      <trkpt lat="38.1925880" lon="-1.4388780">
        <ele>579.8</ele>
        <time>2021-11-06T17:14:55Z</time>
      </trkpt>
      <trkpt lat="38.1926450" lon="-1.4390000">
        <ele>579.0</ele>
        <time>2021-11-06T17:14:59Z</time>
      </trkpt>
      <trkpt lat="38.1926540" lon="-1.4390260">
        <ele>578.8</ele>
        <time>2021-11-06T17:15:00Z</time>
      </trkpt>
      <trkpt lat="38.1927330" lon="-1.4391940">
        <ele>578.4</ele>
        <time>2021-11-06T17:15:06Z</time>
      </trkpt>
      <trkpt lat="38.1927970" lon="-1.4393000">
        <ele>577.8</ele>
        <time>2021-11-06T17:15:10Z</time>
      </trkpt>
      <trkpt lat="38.1928400" lon="-1.4393790">
        <ele>577.8</ele>
        <time>2021-11-06T17:15:13Z</time>
      </trkpt>
      <trkpt lat="38.1929190" lon="-1.4395200">
        <ele>576.8</ele>
        <time>2021-11-06T17:15:18Z</time>
      </trkpt>
      <trkpt lat="38.1929360" lon="-1.4395410">
        <ele>576.8</ele>
        <time>2021-11-06T17:15:19Z</time>
      </trkpt>
      <trkpt lat="38.1930580" lon="-1.4397460">
        <ele>576.4</ele>
        <time>2021-11-06T17:15:26Z</time>
      </trkpt>
      <trkpt lat="38.1931200" lon="-1.4398940">
        <ele>575.2</ele>
        <time>2021-11-06T17:15:31Z</time>
      </trkpt>
      <trkpt lat="38.1931750" lon="-1.4400340">
        <ele>574.2</ele>
        <time>2021-11-06T17:15:36Z</time>
      </trkpt>
      <trkpt lat="38.1932080" lon="-1.4400960">
        <ele>573.8</ele>
        <time>2021-11-06T17:15:38Z</time>
      </trkpt>
      <trkpt lat="38.1932700" lon="-1.4402320">
        <ele>573.4</ele>
        <time>2021-11-06T17:15:43Z</time>
      </trkpt>
      <trkpt lat="38.1932870" lon="-1.4402950">
        <ele>572.8</ele>
        <time>2021-11-06T17:15:45Z</time>
      </trkpt>
      <trkpt lat="38.1933220" lon="-1.4403700">
        <ele>571.8</ele>
        <time>2021-11-06T17:15:48Z</time>
      </trkpt>
      <trkpt lat="38.1933320" lon="-1.4403900">
        <ele>571.8</ele>
        <time>2021-11-06T17:15:49Z</time>
      </trkpt>
      <trkpt lat="38.1934010" lon="-1.4405530">
        <ele>572.4</ele>
        <time>2021-11-06T17:15:55Z</time>
      </trkpt>
      <trkpt lat="38.1934850" lon="-1.4407560">
        <ele>570.8</ele>
        <time>2021-11-06T17:16:01Z</time>
      </trkpt>
      <trkpt lat="38.1935150" lon="-1.4408920">
        <ele>569.8</ele>
        <time>2021-11-06T17:16:05Z</time>
      </trkpt>
      <trkpt lat="38.1935290" lon="-1.4409530">
        <ele>569.2</ele>
        <time>2021-11-06T17:16:07Z</time>
      </trkpt>
      <trkpt lat="38.1935320" lon="-1.4410210">
        <ele>568.6</ele>
        <time>2021-11-06T17:16:09Z</time>
      </trkpt>
      <trkpt lat="38.1935110" lon="-1.4411550">
        <ele>568.2</ele>
        <time>2021-11-06T17:16:13Z</time>
      </trkpt>
      <trkpt lat="38.1934330" lon="-1.4413390">
        <ele>567.8</ele>
        <time>2021-11-06T17:16:19Z</time>
      </trkpt>
      <trkpt lat="38.1934210" lon="-1.4413660">
        <ele>567.6</ele>
        <time>2021-11-06T17:16:20Z</time>
      </trkpt>
      <trkpt lat="38.1933700" lon="-1.4415040">
        <ele>566.4</ele>
        <time>2021-11-06T17:16:25Z</time>
      </trkpt>
      <trkpt lat="38.1934400" lon="-1.4416230">
        <ele>565.8</ele>
        <time>2021-11-06T17:16:30Z</time>
      </trkpt>
      <trkpt lat="38.1934650" lon="-1.4416280">
        <ele>565.8</ele>
        <time>2021-11-06T17:16:31Z</time>
      </trkpt>
      <trkpt lat="38.1935060" lon="-1.4416080">
        <ele>565.2</ele>
        <time>2021-11-06T17:16:33Z</time>
      </trkpt>
      <trkpt lat="38.1935280" lon="-1.4415860">
        <ele>564.8</ele>
        <time>2021-11-06T17:16:34Z</time>
      </trkpt>
      <trkpt lat="38.1935650" lon="-1.4415230">
        <ele>563.6</ele>
        <time>2021-11-06T17:16:36Z</time>
      </trkpt>
      <trkpt lat="38.1935880" lon="-1.4414510">
        <ele>563.2</ele>
        <time>2021-11-06T17:16:38Z</time>
      </trkpt>
      <trkpt lat="38.1936110" lon="-1.4413070">
        <ele>562.6</ele>
        <time>2021-11-06T17:16:42Z</time>
      </trkpt>
      <trkpt lat="38.1936180" lon="-1.4412730">
        <ele>562.0</ele>
        <time>2021-11-06T17:16:43Z</time>
      </trkpt>
      <trkpt lat="38.1936340" lon="-1.4412060">
        <ele>561.4</ele>
        <time>2021-11-06T17:16:45Z</time>
      </trkpt>
      <trkpt lat="38.1936510" lon="-1.4411190">
        <ele>561.2</ele>
        <time>2021-11-06T17:16:48Z</time>
      </trkpt>
      <trkpt lat="38.1936880" lon="-1.4408790">
        <ele>560.6</ele>
        <time>2021-11-06T17:16:55Z</time>
      </trkpt>
      <trkpt lat="38.1936920" lon="-1.4408450">
        <ele>560.6</ele>
        <time>2021-11-06T17:16:56Z</time>
      </trkpt>
      <trkpt lat="38.1936970" lon="-1.4407780">
        <ele>560.4</ele>
        <time>2021-11-06T17:16:58Z</time>
      </trkpt>
      <trkpt lat="38.1936830" lon="-1.4406330">
        <ele>559.6</ele>
        <time>2021-11-06T17:17:02Z</time>
      </trkpt>
      <trkpt lat="38.1936720" lon="-1.4405660">
        <ele>559.0</ele>
        <time>2021-11-06T17:17:04Z</time>
      </trkpt>
      <trkpt lat="38.1936650" lon="-1.4404610">
        <ele>558.6</ele>
        <time>2021-11-06T17:17:07Z</time>
      </trkpt>
      <trkpt lat="38.1936660" lon="-1.4403700">
        <ele>558.0</ele>
        <time>2021-11-06T17:17:10Z</time>
      </trkpt>
      <trkpt lat="38.1936550" lon="-1.4403080">
        <ele>557.6</ele>
        <time>2021-11-06T17:17:12Z</time>
      </trkpt>
      <trkpt lat="38.1936360" lon="-1.4402030">
        <ele>556.8</ele>
        <time>2021-11-06T17:17:15Z</time>
      </trkpt>
      <trkpt lat="38.1936150" lon="-1.4400660">
        <ele>556.0</ele>
        <time>2021-11-06T17:17:19Z</time>
      </trkpt>
      <trkpt lat="38.1936080" lon="-1.4400330">
        <ele>555.6</ele>
        <time>2021-11-06T17:17:20Z</time>
      </trkpt>
      <trkpt lat="38.1935860" lon="-1.4399150">
        <ele>554.8</ele>
        <time>2021-11-06T17:17:24Z</time>
      </trkpt>
      <trkpt lat="38.1935810" lon="-1.4398790">
        <ele>554.4</ele>
        <time>2021-11-06T17:17:25Z</time>
      </trkpt>
      <trkpt lat="38.1935550" lon="-1.4397060">
        <ele>553.4</ele>
        <time>2021-11-06T17:17:30Z</time>
      </trkpt>
      <trkpt lat="38.1935330" lon="-1.4395440">
        <ele>552.2</ele>
        <time>2021-11-06T17:17:35Z</time>
      </trkpt>
      <trkpt lat="38.1934440" lon="-1.4393420">
        <ele>551.0</ele>
        <time>2021-11-06T17:17:42Z</time>
      </trkpt>
      <trkpt lat="38.1934250" lon="-1.4391790">
        <ele>549.8</ele>
        <time>2021-11-06T17:17:47Z</time>
      </trkpt>
      <trkpt lat="38.1934290" lon="-1.4391430">
        <ele>549.6</ele>
        <time>2021-11-06T17:17:48Z</time>
      </trkpt>
      <trkpt lat="38.1934330" lon="-1.4389760">
        <ele>548.4</ele>
        <time>2021-11-06T17:17:53Z</time>
      </trkpt>
      <trkpt lat="38.1934250" lon="-1.4389400">
        <ele>548.2</ele>
        <time>2021-11-06T17:17:54Z</time>
      </trkpt>
      <trkpt lat="38.1933780" lon="-1.4387450">
        <ele>547.6</ele>
        <time>2021-11-06T17:18:00Z</time>
      </trkpt>
      <trkpt lat="38.1933720" lon="-1.4387150">
        <ele>547.4</ele>
        <time>2021-11-06T17:18:01Z</time>
      </trkpt>
      <trkpt lat="38.1933440" lon="-1.4385740">
        <ele>546.4</ele>
        <time>2021-11-06T17:18:06Z</time>
      </trkpt>
      <trkpt lat="38.1933450" lon="-1.4385520">
        <ele>546.4</ele>
        <time>2021-11-06T17:18:07Z</time>
      </trkpt>
      <trkpt lat="38.1933720" lon="-1.4385080">
        <ele>545.0</ele>
        <time>2021-11-06T17:18:10Z</time>
      </trkpt>
      <trkpt lat="38.1933940" lon="-1.4384940">
        <ele>544.8</ele>
        <time>2021-11-06T17:18:11Z</time>
      </trkpt>
      <trkpt lat="38.1934670" lon="-1.4384860">
        <ele>544.0</ele>
        <time>2021-11-06T17:18:13Z</time>
      </trkpt>
      <trkpt lat="38.1935300" lon="-1.4384980">
        <ele>543.6</ele>
        <time>2021-11-06T17:18:15Z</time>
      </trkpt>
      <trkpt lat="38.1935930" lon="-1.4385680">
        <ele>543.0</ele>
        <time>2021-11-06T17:18:18Z</time>
      </trkpt>
      <trkpt lat="38.1936030" lon="-1.4385960">
        <ele>542.8</ele>
        <time>2021-11-06T17:18:19Z</time>
      </trkpt>
      <trkpt lat="38.1936310" lon="-1.4387260">
        <ele>542.0</ele>
        <time>2021-11-06T17:18:23Z</time>
      </trkpt>
      <trkpt lat="38.1936330" lon="-1.4387620">
        <ele>541.8</ele>
        <time>2021-11-06T17:18:24Z</time>
      </trkpt>
      <trkpt lat="38.1936530" lon="-1.4389510">
        <ele>541.0</ele>
        <time>2021-11-06T17:18:30Z</time>
      </trkpt>
      <trkpt lat="38.1936590" lon="-1.4389800">
        <ele>540.8</ele>
        <time>2021-11-06T17:18:31Z</time>
      </trkpt>
      <trkpt lat="38.1936970" lon="-1.4391010">
        <ele>539.6</ele>
        <time>2021-11-06T17:18:35Z</time>
      </trkpt>
      <trkpt lat="38.1937070" lon="-1.4391310">
        <ele>539.6</ele>
        <time>2021-11-06T17:18:36Z</time>
      </trkpt>
      <trkpt lat="38.1937620" lon="-1.4392940">
        <ele>540.6</ele>
        <time>2021-11-06T17:18:42Z</time>
      </trkpt>
      <trkpt lat="38.1938060" lon="-1.4394660">
        <ele>541.0</ele>
        <time>2021-11-06T17:18:48Z</time>
      </trkpt>
      <trkpt lat="38.1938460" lon="-1.4396560">
        <ele>541.0</ele>
        <time>2021-11-06T17:18:55Z</time>
      </trkpt>
      <trkpt lat="38.1938790" lon="-1.4398430">
        <ele>540.6</ele>
        <time>2021-11-06T17:19:01Z</time>
      </trkpt>
      <trkpt lat="38.1939470" lon="-1.4399660">
        <ele>540.2</ele>
        <time>2021-11-06T17:19:06Z</time>
      </trkpt>
      <trkpt lat="38.1940190" lon="-1.4400000">
        <ele>539.4</ele>
        <time>2021-11-06T17:19:11Z</time>
      </trkpt>
      <trkpt lat="38.1940460" lon="-1.4399630">
        <ele>538.4</ele>
        <time>2021-11-06T17:19:13Z</time>
      </trkpt>
      <trkpt lat="38.1940540" lon="-1.4399380">
        <ele>538.0</ele>
        <time>2021-11-06T17:19:14Z</time>
      </trkpt>
      <trkpt lat="38.1940610" lon="-1.4399100">
        <ele>537.6</ele>
        <time>2021-11-06T17:19:15Z</time>
      </trkpt>
      <trkpt lat="38.1940590" lon="-1.4399110">
        <ele>536.8</ele>
        <time>2021-11-06T17:19:17Z</time>
      </trkpt>
      <trkpt lat="38.1940790" lon="-1.4398300">
        <ele>535.8</ele>
        <time>2021-11-06T17:19:19Z</time>
      </trkpt>
      <trkpt lat="38.1940850" lon="-1.4398090">
        <ele>535.2</ele>
        <time>2021-11-06T17:19:20Z</time>
      </trkpt>
      <trkpt lat="38.1941080" lon="-1.4397200">
        <ele>534.6</ele>
        <time>2021-11-06T17:19:23Z</time>
      </trkpt>
      <trkpt lat="38.1941160" lon="-1.4396540">
        <ele>534.2</ele>
        <time>2021-11-06T17:19:25Z</time>
      </trkpt>
      <trkpt lat="38.1941130" lon="-1.4395270">
        <ele>533.4</ele>
        <time>2021-11-06T17:19:28Z</time>
      </trkpt>
      <trkpt lat="38.1940980" lon="-1.4394030">
        <ele>532.6</ele>
        <time>2021-11-06T17:19:32Z</time>
      </trkpt>
      <trkpt lat="38.1940910" lon="-1.4393670">
        <ele>532.2</ele>
        <time>2021-11-06T17:19:33Z</time>
      </trkpt>
      <trkpt lat="38.1940580" lon="-1.4392320">
        <ele>531.2</ele>
        <time>2021-11-06T17:19:37Z</time>
      </trkpt>
      <trkpt lat="38.1940490" lon="-1.4392060">
        <ele>530.8</ele>
        <time>2021-11-06T17:19:38Z</time>
      </trkpt>
      <trkpt lat="38.1940100" lon="-1.4391220">
        <ele>530.0</ele>
        <time>2021-11-06T17:19:41Z</time>
      </trkpt>
      <trkpt lat="38.1939730" lon="-1.4390330">
        <ele>530.8</ele>
        <time>2021-11-06T17:19:44Z</time>
      </trkpt>
      <trkpt lat="38.1939400" lon="-1.4388420">
        <ele>529.6</ele>
        <time>2021-11-06T17:19:50Z</time>
      </trkpt>
      <trkpt lat="38.1939470" lon="-1.4388150">
        <ele>529.6</ele>
        <time>2021-11-06T17:19:51Z</time>
      </trkpt>
      <trkpt lat="38.1939840" lon="-1.4387550">
        <ele>529.0</ele>
        <time>2021-11-06T17:19:54Z</time>
      </trkpt>
      <trkpt lat="38.1941330" lon="-1.4386750">
        <ele>527.8</ele>
        <time>2021-11-06T17:20:00Z</time>
      </trkpt>
      <trkpt lat="38.1942820" lon="-1.4386390">
        <ele>526.4</ele>
        <time>2021-11-06T17:20:06Z</time>
      </trkpt>
      <trkpt lat="38.1944060" lon="-1.4385800">
        <ele>525.2</ele>
        <time>2021-11-06T17:20:11Z</time>
      </trkpt>
      <trkpt lat="38.1944290" lon="-1.4385630">
        <ele>524.8</ele>
        <time>2021-11-06T17:20:12Z</time>
      </trkpt>
      <trkpt lat="38.1945370" lon="-1.4384270">
        <ele>524.0</ele>
        <time>2021-11-06T17:20:18Z</time>
      </trkpt>
      <trkpt lat="38.1945880" lon="-1.4383600">
        <ele>523.0</ele>
        <time>2021-11-06T17:20:21Z</time>
      </trkpt>
      <trkpt lat="38.1946650" lon="-1.4382710">
        <ele>521.8</ele>
        <time>2021-11-06T17:20:25Z</time>
      </trkpt>
      <trkpt lat="38.1946860" lon="-1.4382530">
        <ele>521.6</ele>
        <time>2021-11-06T17:20:26Z</time>
      </trkpt>
      <trkpt lat="38.1947750" lon="-1.4381940">
        <ele>521.2</ele>
        <time>2021-11-06T17:20:30Z</time>
      </trkpt>
      <trkpt lat="38.1947960" lon="-1.4381760">
        <ele>520.6</ele>
        <time>2021-11-06T17:20:31Z</time>
      </trkpt>
      <trkpt lat="38.1948680" lon="-1.4381170">
        <ele>519.6</ele>
        <time>2021-11-06T17:20:34Z</time>
      </trkpt>
      <trkpt lat="38.1949190" lon="-1.4380850">
        <ele>519.0</ele>
        <time>2021-11-06T17:20:36Z</time>
      </trkpt>
      <trkpt lat="38.1949700" lon="-1.4380600">
        <ele>518.2</ele>
        <time>2021-11-06T17:20:38Z</time>
      </trkpt>
      <trkpt lat="38.1950400" lon="-1.4380240">
        <ele>517.2</ele>
        <time>2021-11-06T17:20:41Z</time>
      </trkpt>
      <trkpt lat="38.1950620" lon="-1.4380150">
        <ele>516.8</ele>
        <time>2021-11-06T17:20:42Z</time>
      </trkpt>
      <trkpt lat="38.1951060" lon="-1.4379940">
        <ele>516.0</ele>
        <time>2021-11-06T17:20:44Z</time>
      </trkpt>
      <trkpt lat="38.1951820" lon="-1.4379650">
        <ele>514.8</ele>
        <time>2021-11-06T17:20:47Z</time>
      </trkpt>
      <trkpt lat="38.1952990" lon="-1.4379050">
        <ele>513.6</ele>
        <time>2021-11-06T17:20:52Z</time>
      </trkpt>
      <trkpt lat="38.1953220" lon="-1.4378930">
        <ele>513.4</ele>
        <time>2021-11-06T17:20:53Z</time>
      </trkpt>
      <trkpt lat="38.1954200" lon="-1.4378550">
        <ele>512.4</ele>
        <time>2021-11-06T17:20:57Z</time>
      </trkpt>
      <trkpt lat="38.1955110" lon="-1.4378080">
        <ele>511.6</ele>
        <time>2021-11-06T17:21:01Z</time>
      </trkpt>
      <trkpt lat="38.1955330" lon="-1.4377970">
        <ele>511.0</ele>
        <time>2021-11-06T17:21:02Z</time>
      </trkpt>
      <trkpt lat="38.1955980" lon="-1.4377530">
        <ele>509.6</ele>
        <time>2021-11-06T17:21:05Z</time>
      </trkpt>
      <trkpt lat="38.1956620" lon="-1.4376820">
        <ele>508.4</ele>
        <time>2021-11-06T17:21:08Z</time>
      </trkpt>
      <trkpt lat="38.1957540" lon="-1.4375430">
        <ele>507.2</ele>
        <time>2021-11-06T17:21:12Z</time>
      </trkpt>
      <trkpt lat="38.1957970" lon="-1.4374530">
        <ele>506.2</ele>
        <time>2021-11-06T17:21:15Z</time>
      </trkpt>
      <trkpt lat="38.1958080" lon="-1.4374210">
        <ele>505.4</ele>
        <time>2021-11-06T17:21:16Z</time>
      </trkpt>
      <trkpt lat="38.1958320" lon="-1.4372730">
        <ele>504.2</ele>
        <time>2021-11-06T17:21:20Z</time>
      </trkpt>
      <trkpt lat="38.1958310" lon="-1.4372350">
        <ele>503.8</ele>
        <time>2021-11-06T17:21:21Z</time>
      </trkpt>
      <trkpt lat="38.1958240" lon="-1.4371690">
        <ele>503.2</ele>
        <time>2021-11-06T17:21:23Z</time>
      </trkpt>
      <trkpt lat="38.1958050" lon="-1.4370370">
        <ele>502.6</ele>
        <time>2021-11-06T17:21:27Z</time>
      </trkpt>
      <trkpt lat="38.1957990" lon="-1.4370070">
        <ele>502.0</ele>
        <time>2021-11-06T17:21:28Z</time>
      </trkpt>
      <trkpt lat="38.1957810" lon="-1.4369150">
        <ele>501.0</ele>
        <time>2021-11-06T17:21:31Z</time>
      </trkpt>
      <trkpt lat="38.1957570" lon="-1.4368230">
        <ele>499.8</ele>
        <time>2021-11-06T17:21:34Z</time>
      </trkpt>
      <trkpt lat="38.1957490" lon="-1.4367890">
        <ele>499.6</ele>
        <time>2021-11-06T17:21:35Z</time>
      </trkpt>
      <trkpt lat="38.1957290" lon="-1.4366970">
        <ele>498.8</ele>
        <time>2021-11-06T17:21:38Z</time>
      </trkpt>
      <trkpt lat="38.1957190" lon="-1.4365980">
        <ele>498.0</ele>
        <time>2021-11-06T17:21:41Z</time>
      </trkpt>
      <trkpt lat="38.1957060" lon="-1.4365390">
        <ele>497.6</ele>
        <time>2021-11-06T17:21:43Z</time>
      </trkpt>
      <trkpt lat="38.1956610" lon="-1.4364150">
        <ele>496.4</ele>
        <time>2021-11-06T17:21:47Z</time>
      </trkpt>
      <trkpt lat="38.1955940" lon="-1.4362740">
        <ele>495.2</ele>
        <time>2021-11-06T17:21:52Z</time>
      </trkpt>
      <trkpt lat="38.1955820" lon="-1.4362170">
        <ele>494.4</ele>
        <time>2021-11-06T17:21:54Z</time>
      </trkpt>
      <trkpt lat="38.1955820" lon="-1.4361890">
        <ele>494.2</ele>
        <time>2021-11-06T17:21:55Z</time>
      </trkpt>
      <trkpt lat="38.1955860" lon="-1.4361740">
        <ele>493.8</ele>
        <time>2021-11-06T17:21:56Z</time>
      </trkpt>
      <trkpt lat="38.1956010" lon="-1.4361590">
        <ele>493.2</ele>
        <time>2021-11-06T17:21:58Z</time>
      </trkpt>
      <trkpt lat="38.1956470" lon="-1.4361680">
        <ele>492.8</ele>
        <time>2021-11-06T17:22:00Z</time>
      </trkpt>
      <trkpt lat="38.1957020" lon="-1.4361970">
        <ele>492.2</ele>
        <time>2021-11-06T17:22:02Z</time>
      </trkpt>
      <trkpt lat="38.1957640" lon="-1.4362680">
        <ele>491.8</ele>
        <time>2021-11-06T17:22:05Z</time>
      </trkpt>
      <trkpt lat="38.1958140" lon="-1.4363620">
        <ele>491.2</ele>
        <time>2021-11-06T17:22:08Z</time>
      </trkpt>
      <trkpt lat="38.1959230" lon="-1.4365040">
        <ele>491.0</ele>
        <time>2021-11-06T17:22:15Z</time>
      </trkpt>
      <trkpt lat="38.1959400" lon="-1.4365240">
        <ele>490.6</ele>
        <time>2021-11-06T17:22:16Z</time>
      </trkpt>
      <trkpt lat="38.1959890" lon="-1.4366000">
        <ele>489.4</ele>
        <time>2021-11-06T17:22:19Z</time>
      </trkpt>
      <trkpt lat="38.1960370" lon="-1.4366840">
        <ele>488.4</ele>
        <time>2021-11-06T17:22:22Z</time>
      </trkpt>
      <trkpt lat="38.1960810" lon="-1.4367970">
        <ele>487.2</ele>
        <time>2021-11-06T17:22:26Z</time>
      </trkpt>
      <trkpt lat="38.1960900" lon="-1.4368290">
        <ele>486.8</ele>
        <time>2021-11-06T17:22:27Z</time>
      </trkpt>
      <trkpt lat="38.1961140" lon="-1.4369000">
        <ele>486.2</ele>
        <time>2021-11-06T17:22:30Z</time>
      </trkpt>
      <trkpt lat="38.1961330" lon="-1.4369890">
        <ele>485.2</ele>
        <time>2021-11-06T17:22:33Z</time>
      </trkpt>
      <trkpt lat="38.1961420" lon="-1.4370230">
        <ele>484.8</ele>
        <time>2021-11-06T17:22:34Z</time>
      </trkpt>
      <trkpt lat="38.1961910" lon="-1.4371360">
        <ele>484.2</ele>
        <time>2021-11-06T17:22:38Z</time>
      </trkpt>
      <trkpt lat="38.1962190" lon="-1.4371940">
        <ele>483.8</ele>
        <time>2021-11-06T17:22:40Z</time>
      </trkpt>
      <trkpt lat="38.1962870" lon="-1.4373190">
        <ele>483.0</ele>
        <time>2021-11-06T17:22:44Z</time>
      </trkpt>
      <trkpt lat="38.1963040" lon="-1.4373500">
        <ele>482.8</ele>
        <time>2021-11-06T17:22:45Z</time>
      </trkpt>
      <trkpt lat="38.1963590" lon="-1.4374370">
        <ele>481.6</ele>
        <time>2021-11-06T17:22:48Z</time>
      </trkpt>
      <trkpt lat="38.1963770" lon="-1.4374610">
        <ele>481.4</ele>
        <time>2021-11-06T17:22:49Z</time>
      </trkpt>
      <trkpt lat="38.1964160" lon="-1.4375050">
        <ele>480.6</ele>
        <time>2021-11-06T17:22:51Z</time>
      </trkpt>
      <trkpt lat="38.1964920" lon="-1.4375340">
        <ele>480.0</ele>
        <time>2021-11-06T17:22:54Z</time>
      </trkpt>
      <trkpt lat="38.1966110" lon="-1.4374840">
        <ele>479.8</ele>
        <time>2021-11-06T17:22:59Z</time>
      </trkpt>
      <trkpt lat="38.1967100" lon="-1.4373750">
        <ele>479.4</ele>
        <time>2021-11-06T17:23:04Z</time>
      </trkpt>
      <trkpt lat="38.1967430" lon="-1.4373190">
        <ele>478.8</ele>
        <time>2021-11-06T17:23:06Z</time>
      </trkpt>
      <trkpt lat="38.1968600" lon="-1.4371470">
        <ele>478.6</ele>
        <time>2021-11-06T17:23:13Z</time>
      </trkpt>
      <trkpt lat="38.1969020" lon="-1.4370980">
        <ele>478.4</ele>
        <time>2021-11-06T17:23:15Z</time>
      </trkpt>
      <trkpt lat="38.1969640" lon="-1.4370420">
        <ele>477.2</ele>
        <time>2021-11-06T17:23:18Z</time>
      </trkpt>
      <trkpt lat="38.1969860" lon="-1.4370270">
        <ele>476.8</ele>
        <time>2021-11-06T17:23:19Z</time>
      </trkpt>
      <trkpt lat="38.1971130" lon="-1.4369510">
        <ele>475.8</ele>
        <time>2021-11-06T17:23:25Z</time>
      </trkpt>
      <trkpt lat="38.1971340" lon="-1.4369410">
        <ele>475.6</ele>
        <time>2021-11-06T17:23:26Z</time>
      </trkpt>
      <trkpt lat="38.1972550" lon="-1.4368870">
        <ele>474.6</ele>
        <time>2021-11-06T17:23:31Z</time>
      </trkpt>
      <trkpt lat="38.1972800" lon="-1.4368720">
        <ele>474.4</ele>
        <time>2021-11-06T17:23:32Z</time>
      </trkpt>
      <trkpt lat="38.1974480" lon="-1.4367740">
        <ele>473.6</ele>
        <time>2021-11-06T17:23:39Z</time>
      </trkpt>
      <trkpt lat="38.1974860" lon="-1.4367140">
        <ele>473.2</ele>
        <time>2021-11-06T17:23:41Z</time>
      </trkpt>
      <trkpt lat="38.1975380" lon="-1.4365890">
        <ele>472.4</ele>
        <time>2021-11-06T17:23:45Z</time>
      </trkpt>
      <trkpt lat="38.1975520" lon="-1.4365550">
        <ele>472.2</ele>
        <time>2021-11-06T17:23:46Z</time>
      </trkpt>
      <trkpt lat="38.1976330" lon="-1.4363830">
        <ele>471.2</ele>
        <time>2021-11-06T17:23:52Z</time>
      </trkpt>
      <trkpt lat="38.1976510" lon="-1.4363620">
        <ele>471.0</ele>
        <time>2021-11-06T17:23:53Z</time>
      </trkpt>
      <trkpt lat="38.1977210" lon="-1.4363040">
        <ele>470.2</ele>
        <time>2021-11-06T17:23:57Z</time>
      </trkpt>
      <trkpt lat="38.1977390" lon="-1.4362940">
        <ele>470.0</ele>
        <time>2021-11-06T17:23:58Z</time>
      </trkpt>
      <trkpt lat="38.1978380" lon="-1.4362710">
        <ele>469.8</ele>
        <time>2021-11-06T17:24:02Z</time>
      </trkpt>
      <trkpt lat="38.1979460" lon="-1.4362360">
        <ele>469.0</ele>
        <time>2021-11-06T17:24:06Z</time>
      </trkpt>
      <trkpt lat="38.1980280" lon="-1.4362160">
        <ele>468.2</ele>
        <time>2021-11-06T17:24:09Z</time>
      </trkpt>
      <trkpt lat="38.1981910" lon="-1.4361460">
        <ele>467.2</ele>
        <time>2021-11-06T17:24:15Z</time>
      </trkpt>
      <trkpt lat="38.1983290" lon="-1.4361200">
        <ele>466.2</ele>
        <time>2021-11-06T17:24:21Z</time>
      </trkpt>
      <trkpt lat="38.1983540" lon="-1.4361210">
        <ele>466.0</ele>
        <time>2021-11-06T17:24:22Z</time>
      </trkpt>
      <trkpt lat="38.1984900" lon="-1.4361390">
        <ele>465.0</ele>
        <time>2021-11-06T17:24:27Z</time>
      </trkpt>
      <trkpt lat="38.1985170" lon="-1.4361410">
        <ele>464.6</ele>
        <time>2021-11-06T17:24:28Z</time>
      </trkpt>
      <trkpt lat="38.1986180" lon="-1.4361590">
        <ele>464.0</ele>
        <time>2021-11-06T17:24:32Z</time>
      </trkpt>
      <trkpt lat="38.1987590" lon="-1.4361740">
        <ele>463.6</ele>
        <time>2021-11-06T17:24:37Z</time>
      </trkpt>
      <trkpt lat="38.1988450" lon="-1.4361720">
        <ele>462.6</ele>
        <time>2021-11-06T17:24:40Z</time>
      </trkpt>
      <trkpt lat="38.1989790" lon="-1.4361430">
        <ele>461.4</ele>
        <time>2021-11-06T17:24:45Z</time>
      </trkpt>
      <trkpt lat="38.1990970" lon="-1.4361160">
        <ele>460.8</ele>
        <time>2021-11-06T17:24:50Z</time>
      </trkpt>
      <trkpt lat="38.1991710" lon="-1.4361330">
        <ele>460.4</ele>
        <time>2021-11-06T17:24:53Z</time>
      </trkpt>
      <trkpt lat="38.1992420" lon="-1.4361610">
        <ele>459.8</ele>
        <time>2021-11-06T17:24:56Z</time>
      </trkpt>
      <trkpt lat="38.1993170" lon="-1.4361870">
        <ele>459.2</ele>
        <time>2021-11-06T17:24:59Z</time>
      </trkpt>
      <trkpt lat="38.1994390" lon="-1.4362340">
        <ele>458.0</ele>
        <time>2021-11-06T17:25:04Z</time>
      </trkpt>
      <trkpt lat="38.1994650" lon="-1.4362430">
        <ele>457.8</ele>
        <time>2021-11-06T17:25:05Z</time>
      </trkpt>
      <trkpt lat="38.1995360" lon="-1.4362770">
        <ele>457.0</ele>
        <time>2021-11-06T17:25:08Z</time>
      </trkpt>
      <trkpt lat="38.1995790" lon="-1.4363020">
        <ele>456.6</ele>
        <time>2021-11-06T17:25:10Z</time>
      </trkpt>
      <trkpt lat="38.1996380" lon="-1.4363150">
        <ele>455.8</ele>
        <time>2021-11-06T17:25:13Z</time>
      </trkpt>
      <trkpt lat="38.1996820" lon="-1.4362990">
        <ele>455.6</ele>
        <time>2021-11-06T17:25:15Z</time>
      </trkpt>
      <trkpt lat="38.1997070" lon="-1.4362800">
        <ele>455.6</ele>
        <time>2021-11-06T17:25:16Z</time>
      </trkpt>
      <trkpt lat="38.1998040" lon="-1.4361510">
        <ele>454.8</ele>
        <time>2021-11-06T17:25:20Z</time>
      </trkpt>
      <trkpt lat="38.1998470" lon="-1.4360910">
        <ele>455.0</ele>
        <time>2021-11-06T17:25:23Z</time>
      </trkpt>
      <trkpt lat="38.1999040" lon="-1.4360520">
        <ele>455.0</ele>
        <time>2021-11-06T17:25:29Z</time>
      </trkpt>
      <trkpt lat="38.1999610" lon="-1.4360330">
        <ele>454.0</ele>
        <time>2021-11-06T17:25:35Z</time>
      </trkpt>
      <trkpt lat="38.1999900" lon="-1.4360380">
        <ele>453.8</ele>
        <time>2021-11-06T17:25:41Z</time>
      </trkpt>
      <trkpt lat="38.1999900" lon="-1.4360380">
        <ele>453.8</ele>
        <time>2021-11-06T17:25:44Z</time>
      </trkpt>
      <trkpt lat="38.2000550" lon="-1.4360600">
        <ele>453.6</ele>
        <time>2021-11-06T17:25:48Z</time>
      </trkpt>
      <trkpt lat="38.2001060" lon="-1.4360840">
        <ele>452.6</ele>
        <time>2021-11-06T17:25:55Z</time>
      </trkpt>
      <trkpt lat="38.2001240" lon="-1.4360880">
        <ele>452.6</ele>
        <time>2021-11-06T17:25:56Z</time>
      </trkpt>
      <trkpt lat="38.2001740" lon="-1.4360910">
        <ele>452.4</ele>
        <time>2021-11-06T17:25:58Z</time>
      </trkpt>
      <trkpt lat="38.2002470" lon="-1.4361020">
        <ele>451.6</ele>
        <time>2021-11-06T17:26:01Z</time>
      </trkpt>
      <trkpt lat="38.2002920" lon="-1.4361080">
        <ele>450.6</ele>
        <time>2021-11-06T17:26:03Z</time>
      </trkpt>
      <trkpt lat="38.2003150" lon="-1.4361090">
        <ele>450.4</ele>
        <time>2021-11-06T17:26:04Z</time>
      </trkpt>
      <trkpt lat="38.2004890" lon="-1.4361100">
        <ele>449.8</ele>
        <time>2021-11-06T17:26:10Z</time>
      </trkpt>
      <trkpt lat="38.2005690" lon="-1.4361200">
        <ele>449.6</ele>
        <time>2021-11-06T17:26:13Z</time>
      </trkpt>
      <trkpt lat="38.2006680" lon="-1.4361460">
        <ele>449.4</ele>
        <time>2021-11-06T17:26:17Z</time>
      </trkpt>
      <trkpt lat="38.2007710" lon="-1.4361720">
        <ele>448.6</ele>
        <time>2021-11-06T17:26:21Z</time>
      </trkpt>
      <trkpt lat="38.2008450" lon="-1.4361890">
        <ele>448.2</ele>
        <time>2021-11-06T17:26:24Z</time>
      </trkpt>
      <trkpt lat="38.2009210" lon="-1.4362080">
        <ele>447.4</ele>
        <time>2021-11-06T17:26:27Z</time>
      </trkpt>
      <trkpt lat="38.2010090" lon="-1.4362720">
        <ele>447.0</ele>
        <time>2021-11-06T17:26:31Z</time>
      </trkpt>
      <trkpt lat="38.2010740" lon="-1.4363240">
        <ele>446.4</ele>
        <time>2021-11-06T17:26:34Z</time>
      </trkpt>
      <trkpt lat="38.2010960" lon="-1.4363410">
        <ele>446.2</ele>
        <time>2021-11-06T17:26:35Z</time>
      </trkpt>
      <trkpt lat="38.2011700" lon="-1.4363980">
        <ele>445.2</ele>
        <time>2021-11-06T17:26:38Z</time>
      </trkpt>
      <trkpt lat="38.2011980" lon="-1.4364130">
        <ele>445.0</ele>
        <time>2021-11-06T17:26:39Z</time>
      </trkpt>
      <trkpt lat="38.2013620" lon="-1.4365260">
        <ele>444.4</ele>
        <time>2021-11-06T17:26:46Z</time>
      </trkpt>
      <trkpt lat="38.2014350" lon="-1.4365540">
        <ele>443.8</ele>
        <time>2021-11-06T17:26:49Z</time>
      </trkpt>
      <trkpt lat="38.2015030" lon="-1.4365640">
        <ele>443.0</ele>
        <time>2021-11-06T17:26:52Z</time>
      </trkpt>
      <trkpt lat="38.2015450" lon="-1.4365690">
        <ele>442.8</ele>
        <time>2021-11-06T17:26:54Z</time>
      </trkpt>
      <trkpt lat="38.2016130" lon="-1.4365810">
        <ele>441.6</ele>
        <time>2021-11-06T17:26:58Z</time>
      </trkpt>
      <trkpt lat="38.2016270" lon="-1.4365850">
        <ele>441.4</ele>
        <time>2021-11-06T17:26:59Z</time>
      </trkpt>
      <trkpt lat="38.2017340" lon="-1.4365880">
        <ele>441.0</ele>
        <time>2021-11-06T17:27:04Z</time>
      </trkpt>
      <trkpt lat="38.2018150" lon="-1.4365910">
        <ele>440.6</ele>
        <time>2021-11-06T17:27:07Z</time>
      </trkpt>
      <trkpt lat="38.2019170" lon="-1.4366130">
        <ele>439.8</ele>
        <time>2021-11-06T17:27:11Z</time>
      </trkpt>
      <trkpt lat="38.2019460" lon="-1.4366200">
        <ele>439.4</ele>
        <time>2021-11-06T17:27:12Z</time>
      </trkpt>
      <trkpt lat="38.2020750" lon="-1.4367010">
        <ele>438.6</ele>
        <time>2021-11-06T17:27:17Z</time>
      </trkpt>
      <trkpt lat="38.2021120" lon="-1.4367430">
        <ele>438.2</ele>
        <time>2021-11-06T17:27:19Z</time>
      </trkpt>
      <trkpt lat="38.2021270" lon="-1.4368290">
        <ele>437.2</ele>
        <time>2021-11-06T17:27:22Z</time>
      </trkpt>
      <trkpt lat="38.2021190" lon="-1.4368700">
        <ele>436.8</ele>
        <time>2021-11-06T17:27:23Z</time>
      </trkpt>
      <trkpt lat="38.2021220" lon="-1.4369250">
        <ele>435.4</ele>
        <time>2021-11-06T17:27:25Z</time>
      </trkpt>
      <trkpt lat="38.2021130" lon="-1.4369730">
        <ele>434.2</ele>
        <time>2021-11-06T17:27:27Z</time>
      </trkpt>
      <trkpt lat="38.2021060" lon="-1.4370000">
        <ele>434.2</ele>
        <time>2021-11-06T17:27:28Z</time>
      </trkpt>
      <trkpt lat="38.2020400" lon="-1.4371460">
        <ele>433.2</ele>
        <time>2021-11-06T17:27:35Z</time>
      </trkpt>
      <trkpt lat="38.2020290" lon="-1.4371720">
        <ele>432.8</ele>
        <time>2021-11-06T17:27:36Z</time>
      </trkpt>
      <trkpt lat="38.2020020" lon="-1.4373090">
        <ele>432.2</ele>
        <time>2021-11-06T17:27:40Z</time>
      </trkpt>
      <trkpt lat="38.2019990" lon="-1.4373830">
        <ele>431.8</ele>
        <time>2021-11-06T17:27:42Z</time>
      </trkpt>
      <trkpt lat="38.2020230" lon="-1.4374910">
        <ele>431.2</ele>
        <time>2021-11-06T17:27:45Z</time>
      </trkpt>
      <trkpt lat="38.2020580" lon="-1.4375520">
        <ele>430.2</ele>
        <time>2021-11-06T17:27:47Z</time>
      </trkpt>
      <trkpt lat="38.2021310" lon="-1.4376360">
        <ele>429.4</ele>
        <time>2021-11-06T17:27:50Z</time>
      </trkpt>
      <trkpt lat="38.2021890" lon="-1.4376860">
        <ele>429.2</ele>
        <time>2021-11-06T17:27:52Z</time>
      </trkpt>
      <trkpt lat="38.2022390" lon="-1.4377300">
        <ele>428.0</ele>
        <time>2021-11-06T17:27:54Z</time>
      </trkpt>
      <trkpt lat="38.2022660" lon="-1.4377720">
        <ele>427.8</ele>
        <time>2021-11-06T17:27:56Z</time>
      </trkpt>
      <trkpt lat="38.2023230" lon="-1.4378650">
        <ele>427.4</ele>
        <time>2021-11-06T17:28:00Z</time>
      </trkpt>
      <trkpt lat="38.2023540" lon="-1.4379200">
        <ele>426.8</ele>
        <time>2021-11-06T17:28:02Z</time>
      </trkpt>
      <trkpt lat="38.2023920" lon="-1.4379920">
        <ele>425.6</ele>
        <time>2021-11-06T17:28:05Z</time>
      </trkpt>
      <trkpt lat="38.2024030" lon="-1.4380150">
        <ele>425.4</ele>
        <time>2021-11-06T17:28:06Z</time>
      </trkpt>
      <trkpt lat="38.2024420" lon="-1.4381000">
        <ele>424.6</ele>
        <time>2021-11-06T17:28:09Z</time>
      </trkpt>
      <trkpt lat="38.2024770" lon="-1.4381930">
        <ele>424.4</ele>
        <time>2021-11-06T17:28:12Z</time>
      </trkpt>
      <trkpt lat="38.2025270" lon="-1.4383430">
        <ele>423.6</ele>
        <time>2021-11-06T17:28:17Z</time>
      </trkpt>
      <trkpt lat="38.2025480" lon="-1.4383990">
        <ele>422.8</ele>
        <time>2021-11-06T17:28:19Z</time>
      </trkpt>
      <trkpt lat="38.2025790" lon="-1.4385090">
        <ele>422.2</ele>
        <time>2021-11-06T17:28:22Z</time>
      </trkpt>
      <trkpt lat="38.2026030" lon="-1.4385780">
        <ele>421.6</ele>
        <time>2021-11-06T17:28:24Z</time>
      </trkpt>
      <trkpt lat="38.2026240" lon="-1.4386390">
        <ele>421.2</ele>
        <time>2021-11-06T17:28:26Z</time>
      </trkpt>
      <trkpt lat="38.2026440" lon="-1.4387140">
        <ele>420.0</ele>
        <time>2021-11-06T17:28:29Z</time>
      </trkpt>
      <trkpt lat="38.2026500" lon="-1.4387400">
        <ele>419.8</ele>
        <time>2021-11-06T17:28:30Z</time>
      </trkpt>
      <trkpt lat="38.2026680" lon="-1.4389420">
        <ele>419.2</ele>
        <time>2021-11-06T17:28:36Z</time>
      </trkpt>
      <trkpt lat="38.2026440" lon="-1.4390150">
        <ele>419.0</ele>
        <time>2021-11-06T17:28:39Z</time>
      </trkpt>
      <trkpt lat="38.2026360" lon="-1.4390460">
        <ele>418.6</ele>
        <time>2021-11-06T17:28:40Z</time>
      </trkpt>
      <trkpt lat="38.2026250" lon="-1.4390740">
        <ele>418.4</ele>
        <time>2021-11-06T17:28:41Z</time>
      </trkpt>
      <trkpt lat="38.2025950" lon="-1.4391280">
        <ele>417.4</ele>
        <time>2021-11-06T17:28:44Z</time>
      </trkpt>
      <trkpt lat="38.2025880" lon="-1.4391610">
        <ele>417.0</ele>
        <time>2021-11-06T17:28:46Z</time>
      </trkpt>
      <trkpt lat="38.2025870" lon="-1.4391970">
        <ele>416.8</ele>
        <time>2021-11-06T17:28:49Z</time>
      </trkpt>
      <trkpt lat="38.2025820" lon="-1.4392220">
        <ele>416.6</ele>
        <time>2021-11-06T17:28:52Z</time>
      </trkpt>
      <trkpt lat="38.2025760" lon="-1.4392360">
        <ele>416.6</ele>
        <time>2021-11-06T17:28:53Z</time>
      </trkpt>
      <trkpt lat="38.2025670" lon="-1.4392520">
        <ele>416.4</ele>
        <time>2021-11-06T17:28:54Z</time>
      </trkpt>
      <trkpt lat="38.2025380" lon="-1.4392810">
        <ele>416.4</ele>
        <time>2021-11-06T17:28:58Z</time>
      </trkpt>
      <trkpt lat="38.2025260" lon="-1.4392840">
        <ele>416.2</ele>
        <time>2021-11-06T17:29:00Z</time>
      </trkpt>
      <trkpt lat="38.2025180" lon="-1.4392930">
        <ele>416.2</ele>
        <time>2021-11-06T17:29:01Z</time>
      </trkpt>
      <trkpt lat="38.2024930" lon="-1.4393360">
        <ele>416.2</ele>
        <time>2021-11-06T17:29:04Z</time>
      </trkpt>
      <trkpt lat="38.2024930" lon="-1.4393360">
        <ele>416.4</ele>
        <time>2021-11-06T17:29:06Z</time>
      </trkpt>
      <trkpt lat="38.2024950" lon="-1.4394810">
        <ele>416.8</ele>
        <time>2021-11-06T17:29:45Z</time>
      </trkpt>
      <trkpt lat="38.2024740" lon="-1.4395390">
        <ele>416.8</ele>
        <time>2021-11-06T17:29:48Z</time>
      </trkpt>
      <trkpt lat="38.2024650" lon="-1.4395920">
        <ele>416.6</ele>
        <time>2021-11-06T17:29:50Z</time>
      </trkpt>
      <trkpt lat="38.2024680" lon="-1.4396780">
        <ele>416.0</ele>
        <time>2021-11-06T17:29:53Z</time>
      </trkpt>
      <trkpt lat="38.2024830" lon="-1.4398060">
        <ele>414.8</ele>
        <time>2021-11-06T17:29:57Z</time>
      </trkpt>
      <trkpt lat="38.2024990" lon="-1.4398810">
        <ele>414.4</ele>
        <time>2021-11-06T17:29:59Z</time>
      </trkpt>
      <trkpt lat="38.2025380" lon="-1.4399700">
        <ele>413.8</ele>
        <time>2021-11-06T17:30:02Z</time>
      </trkpt>
      <trkpt lat="38.2025800" lon="-1.4400640">
        <ele>412.6</ele>
        <time>2021-11-06T17:30:05Z</time>
      </trkpt>
      <trkpt lat="38.2025970" lon="-1.4401590">
        <ele>412.4</ele>
        <time>2021-11-06T17:30:10Z</time>
      </trkpt>
      <trkpt lat="38.2026460" lon="-1.4402350">
        <ele>412.4</ele>
        <time>2021-11-06T17:30:14Z</time>
      </trkpt>
      <trkpt lat="38.2027630" lon="-1.4402720">
        <ele>412.8</ele>
        <time>2021-11-06T17:30:19Z</time>
      </trkpt>
      <trkpt lat="38.2029000" lon="-1.4402380">
        <ele>413.6</ele>
        <time>2021-11-06T17:30:24Z</time>
      </trkpt>
      <trkpt lat="38.2029230" lon="-1.4402310">
        <ele>413.8</ele>
        <time>2021-11-06T17:30:25Z</time>
      </trkpt>
      <trkpt lat="38.2030250" lon="-1.4401740">
        <ele>415.2</ele>
        <time>2021-11-06T17:30:30Z</time>
      </trkpt>
      <trkpt lat="38.2031280" lon="-1.4401140">
        <ele>416.0</ele>
        <time>2021-11-06T17:30:35Z</time>
      </trkpt>
      <trkpt lat="38.2032790" lon="-1.4400240">
        <ele>415.4</ele>
        <time>2021-11-06T17:30:42Z</time>
      </trkpt>
      <trkpt lat="38.2034530" lon="-1.4399330">
        <ele>415.4</ele>
        <time>2021-11-06T17:30:49Z</time>
      </trkpt>
      <trkpt lat="38.2035920" lon="-1.4398840">
        <ele>415.4</ele>
        <time>2021-11-06T17:30:55Z</time>
      </trkpt>
      <trkpt lat="38.2037420" lon="-1.4398570">
        <ele>415.6</ele>
        <time>2021-11-06T17:31:02Z</time>
      </trkpt>
      <trkpt lat="38.2039130" lon="-1.4398210">
        <ele>416.2</ele>
        <time>2021-11-06T17:31:09Z</time>
      </trkpt>
      <trkpt lat="38.2040010" lon="-1.4398140">
        <ele>417.6</ele>
        <time>2021-11-06T17:31:13Z</time>
      </trkpt>
      <trkpt lat="38.2040810" lon="-1.4398300">
        <ele>418.4</ele>
        <time>2021-11-06T17:31:16Z</time>
      </trkpt>
      <trkpt lat="38.2041090" lon="-1.4398400">
        <ele>418.6</ele>
        <time>2021-11-06T17:31:17Z</time>
      </trkpt>
      <trkpt lat="38.2042440" lon="-1.4398880">
        <ele>419.4</ele>
        <time>2021-11-06T17:31:23Z</time>
      </trkpt>
      <trkpt lat="38.2043980" lon="-1.4399730">
        <ele>419.0</ele>
        <time>2021-11-06T17:31:30Z</time>
      </trkpt>
      <trkpt lat="38.2044220" lon="-1.4399880">
        <ele>418.8</ele>
        <time>2021-11-06T17:31:31Z</time>
      </trkpt>
      <trkpt lat="38.2045540" lon="-1.4400870">
        <ele>417.8</ele>
        <time>2021-11-06T17:31:38Z</time>
      </trkpt>
      <trkpt lat="38.2045830" lon="-1.4401310">
        <ele>417.6</ele>
        <time>2021-11-06T17:31:40Z</time>
      </trkpt>
      <trkpt lat="38.2046360" lon="-1.4402170">
        <ele>417.6</ele>
        <time>2021-11-06T17:31:44Z</time>
      </trkpt>
      <trkpt lat="38.2047240" lon="-1.4403700">
        <ele>418.6</ele>
        <time>2021-11-06T17:31:51Z</time>
      </trkpt>
      <trkpt lat="38.2048350" lon="-1.4405330">
        <ele>418.6</ele>
        <time>2021-11-06T17:31:58Z</time>
      </trkpt>
      <trkpt lat="38.2048940" lon="-1.4406470">
        <ele>419.4</ele>
        <time>2021-11-06T17:32:03Z</time>
      </trkpt>
      <trkpt lat="38.2049510" lon="-1.4407170">
        <ele>420.0</ele>
        <time>2021-11-06T17:32:07Z</time>
      </trkpt>
      <trkpt lat="38.2049930" lon="-1.4407420">
        <ele>420.6</ele>
        <time>2021-11-06T17:32:09Z</time>
      </trkpt>
      <trkpt lat="38.2050380" lon="-1.4407700">
        <ele>421.0</ele>
        <time>2021-11-06T17:32:11Z</time>
      </trkpt>
      <trkpt lat="38.2051350" lon="-1.4408360">
        <ele>421.6</ele>
        <time>2021-11-06T17:32:15Z</time>
      </trkpt>
      <trkpt lat="38.2052540" lon="-1.4408980">
        <ele>421.6</ele>
        <time>2021-11-06T17:32:20Z</time>
      </trkpt>
      <trkpt lat="38.2053510" lon="-1.4409260">
        <ele>422.0</ele>
        <time>2021-11-06T17:32:24Z</time>
      </trkpt>
      <trkpt lat="38.2054090" lon="-1.4409150">
        <ele>422.6</ele>
        <time>2021-11-06T17:32:27Z</time>
      </trkpt>
      <trkpt lat="38.2054770" lon="-1.4409040">
        <ele>423.4</ele>
        <time>2021-11-06T17:32:30Z</time>
      </trkpt>
      <trkpt lat="38.2055430" lon="-1.4408910">
        <ele>423.6</ele>
        <time>2021-11-06T17:32:33Z</time>
      </trkpt>
      <trkpt lat="38.2056200" lon="-1.4408770">
        <ele>424.4</ele>
        <time>2021-11-06T17:32:37Z</time>
      </trkpt>
      <trkpt lat="38.2056650" lon="-1.4408690">
        <ele>424.8</ele>
        <time>2021-11-06T17:32:39Z</time>
      </trkpt>
      <trkpt lat="38.2057880" lon="-1.4408850">
        <ele>424.0</ele>
        <time>2021-11-06T17:32:44Z</time>
      </trkpt>
      <trkpt lat="38.2058960" lon="-1.4408740">
        <ele>422.8</ele>
        <time>2021-11-06T17:32:48Z</time>
      </trkpt>
      <trkpt lat="38.2059500" lon="-1.4408750">
        <ele>421.8</ele>
        <time>2021-11-06T17:32:50Z</time>
      </trkpt>
      <trkpt lat="38.2060690" lon="-1.4409090">
        <ele>420.8</ele>
        <time>2021-11-06T17:32:54Z</time>
      </trkpt>
      <trkpt lat="38.2060940" lon="-1.4409340">
        <ele>420.0</ele>
        <time>2021-11-06T17:32:56Z</time>
      </trkpt>
      <trkpt lat="38.2060910" lon="-1.4409410">
        <ele>419.6</ele>
        <time>2021-11-06T17:32:57Z</time>
      </trkpt>
      <trkpt lat="38.2060750" lon="-1.4409580">
        <ele>419.4</ele>
        <time>2021-11-06T17:32:59Z</time>
      </trkpt>
      <trkpt lat="38.2060640" lon="-1.4409620">
        <ele>419.6</ele>
        <time>2021-11-06T17:33:01Z</time>
      </trkpt>
      <trkpt lat="38.2060350" lon="-1.4409880">
        <ele>420.2</ele>
        <time>2021-11-06T17:33:04Z</time>
      </trkpt>
      <trkpt lat="38.2060110" lon="-1.4410110">
        <ele>420.8</ele>
        <time>2021-11-06T17:33:06Z</time>
      </trkpt>
      <trkpt lat="38.2059610" lon="-1.4410510">
        <ele>421.8</ele>
        <time>2021-11-06T17:33:10Z</time>
      </trkpt>
      <trkpt lat="38.2059490" lon="-1.4410510">
        <ele>422.0</ele>
        <time>2021-11-06T17:33:11Z</time>
      </trkpt>
      <trkpt lat="38.2059270" lon="-1.4410520">
        <ele>422.6</ele>
        <time>2021-11-06T17:33:13Z</time>
      </trkpt>
      <trkpt lat="38.2059190" lon="-1.4410570">
        <ele>422.8</ele>
        <time>2021-11-06T17:33:14Z</time>
      </trkpt>
      <trkpt lat="38.2058880" lon="-1.4411010">
        <ele>423.4</ele>
        <time>2021-11-06T17:33:17Z</time>
      </trkpt>
      <trkpt lat="38.2058830" lon="-1.4411190">
        <ele>423.8</ele>
        <time>2021-11-06T17:33:18Z</time>
      </trkpt>
      <trkpt lat="38.2058470" lon="-1.4411860">
        <ele>425.0</ele>
        <time>2021-11-06T17:33:23Z</time>
      </trkpt>
      <trkpt lat="38.2058340" lon="-1.4412060">
        <ele>425.4</ele>
        <time>2021-11-06T17:33:25Z</time>
      </trkpt>
      <trkpt lat="38.2057640" lon="-1.4413120">
        <ele>426.0</ele>
        <time>2021-11-06T17:33:33Z</time>
      </trkpt>
      <trkpt lat="38.2057530" lon="-1.4413370">
        <ele>426.0</ele>
        <time>2021-11-06T17:33:35Z</time>
      </trkpt>
      <trkpt lat="38.2057390" lon="-1.4413850">
        <ele>427.2</ele>
        <time>2021-11-06T17:33:40Z</time>
      </trkpt>
      <trkpt lat="38.2057230" lon="-1.4413870">
        <ele>428.0</ele>
        <time>2021-11-06T17:33:42Z</time>
      </trkpt>
      <trkpt lat="38.2057160" lon="-1.4413920">
        <ele>428.4</ele>
        <time>2021-11-06T17:33:43Z</time>
      </trkpt>
      <trkpt lat="38.2057100" lon="-1.4413950">
        <ele>429.0</ele>
        <time>2021-11-06T17:33:44Z</time>
      </trkpt>
      <trkpt lat="38.2056990" lon="-1.4414000">
        <ele>429.4</ele>
        <time>2021-11-06T17:33:46Z</time>
      </trkpt>
      <trkpt lat="38.2056960" lon="-1.4414040">
        <ele>429.6</ele>
        <time>2021-11-06T17:33:47Z</time>
      </trkpt>
      <trkpt lat="38.2056840" lon="-1.4414130">
        <ele>430.0</ele>
        <time>2021-11-06T17:33:50Z</time>
      </trkpt>
      <trkpt lat="38.2056820" lon="-1.4414210">
        <ele>430.2</ele>
        <time>2021-11-06T17:33:51Z</time>
      </trkpt>
      <trkpt lat="38.2056800" lon="-1.4414300">
        <ele>430.6</ele>
        <time>2021-11-06T17:33:52Z</time>
      </trkpt>
      <trkpt lat="38.2056540" lon="-1.4414490">
        <ele>432.2</ele>
        <time>2021-11-06T17:33:57Z</time>
      </trkpt>
      <trkpt lat="38.2056490" lon="-1.4414580">
        <ele>432.6</ele>
        <time>2021-11-06T17:33:58Z</time>
      </trkpt>
      <trkpt lat="38.2056380" lon="-1.4414780">
        <ele>433.4</ele>
        <time>2021-11-06T17:34:00Z</time>
      </trkpt>
      <trkpt lat="38.2056240" lon="-1.4414920">
        <ele>434.0</ele>
        <time>2021-11-06T17:34:03Z</time>
      </trkpt>
      <trkpt lat="38.2056030" lon="-1.4415030">
        <ele>434.6</ele>
        <time>2021-11-06T17:34:06Z</time>
      </trkpt>
      <trkpt lat="38.2055880" lon="-1.4415270">
        <ele>435.4</ele>
        <time>2021-11-06T17:34:09Z</time>
      </trkpt>
      <trkpt lat="38.2055840" lon="-1.4415320">
        <ele>435.6</ele>
        <time>2021-11-06T17:34:10Z</time>
      </trkpt>
      <trkpt lat="38.2055650" lon="-1.4415350">
        <ele>436.8</ele>
        <time>2021-11-06T17:34:15Z</time>
      </trkpt>
      <trkpt lat="38.2055370" lon="-1.4415470">
        <ele>437.8</ele>
        <time>2021-11-06T17:34:19Z</time>
      </trkpt>
      <trkpt lat="38.2055270" lon="-1.4415550">
        <ele>438.2</ele>
        <time>2021-11-06T17:34:21Z</time>
      </trkpt>
      <trkpt lat="38.2055230" lon="-1.4415650">
        <ele>439.0</ele>
        <time>2021-11-06T17:34:23Z</time>
      </trkpt>
      <trkpt lat="38.2055150" lon="-1.4415850">
        <ele>439.8</ele>
        <time>2021-11-06T17:34:26Z</time>
      </trkpt>
      <trkpt lat="38.2055130" lon="-1.4415970">
        <ele>440.0</ele>
        <time>2021-11-06T17:34:27Z</time>
      </trkpt>
      <trkpt lat="38.2055120" lon="-1.4416370">
        <ele>441.2</ele>
        <time>2021-11-06T17:34:32Z</time>
      </trkpt>
      <trkpt lat="38.2054800" lon="-1.4416460">
        <ele>442.2</ele>
        <time>2021-11-06T17:34:38Z</time>
      </trkpt>
      <trkpt lat="38.2054650" lon="-1.4416540">
        <ele>443.4</ele>
        <time>2021-11-06T17:34:42Z</time>
      </trkpt>
      <trkpt lat="38.2054620" lon="-1.4416600">
        <ele>443.6</ele>
        <time>2021-11-06T17:34:43Z</time>
      </trkpt>
      <trkpt lat="38.2054580" lon="-1.4416650">
        <ele>444.6</ele>
        <time>2021-11-06T17:34:47Z</time>
      </trkpt>
      <trkpt lat="38.2054600" lon="-1.4416690">
        <ele>445.2</ele>
        <time>2021-11-06T17:34:49Z</time>
      </trkpt>
      <trkpt lat="38.2054470" lon="-1.4416810">
        <ele>445.6</ele>
        <time>2021-11-06T17:34:54Z</time>
      </trkpt>
      <trkpt lat="38.2054450" lon="-1.4417030">
        <ele>446.0</ele>
        <time>2021-11-06T17:34:56Z</time>
      </trkpt>
      <trkpt lat="38.2054380" lon="-1.4417250">
        <ele>446.8</ele>
        <time>2021-11-06T17:34:59Z</time>
      </trkpt>
      <trkpt lat="38.2054210" lon="-1.4417480">
        <ele>447.8</ele>
        <time>2021-11-06T17:35:03Z</time>
      </trkpt>
      <trkpt lat="38.2054190" lon="-1.4417550">
        <ele>448.0</ele>
        <time>2021-11-06T17:35:04Z</time>
      </trkpt>
      <trkpt lat="38.2054140" lon="-1.4417660">
        <ele>448.2</ele>
        <time>2021-11-06T17:35:06Z</time>
      </trkpt>
      <trkpt lat="38.2054140" lon="-1.4417930">
        <ele>449.0</ele>
        <time>2021-11-06T17:35:09Z</time>
      </trkpt>
      <trkpt lat="38.2054140" lon="-1.4418270">
        <ele>449.6</ele>
        <time>2021-11-06T17:35:11Z</time>
      </trkpt>
      <trkpt lat="38.2054060" lon="-1.4418470">
        <ele>450.0</ele>
        <time>2021-11-06T17:35:13Z</time>
      </trkpt>
      <trkpt lat="38.2054040" lon="-1.4418580">
        <ele>450.2</ele>
        <time>2021-11-06T17:35:15Z</time>
      </trkpt>
      <trkpt lat="38.2053910" lon="-1.4418600">
        <ele>451.2</ele>
        <time>2021-11-06T17:35:18Z</time>
      </trkpt>
      <trkpt lat="38.2053840" lon="-1.4418610">
        <ele>451.4</ele>
        <time>2021-11-06T17:35:19Z</time>
      </trkpt>
      <trkpt lat="38.2053750" lon="-1.4418770">
        <ele>452.4</ele>
        <time>2021-11-06T17:35:21Z</time>
      </trkpt>
      <trkpt lat="38.2053730" lon="-1.4419030">
        <ele>453.2</ele>
        <time>2021-11-06T17:35:25Z</time>
      </trkpt>
      <trkpt lat="38.2053650" lon="-1.4419170">
        <ele>453.4</ele>
        <time>2021-11-06T17:35:27Z</time>
      </trkpt>
      <trkpt lat="38.2053480" lon="-1.4419530">
        <ele>454.4</ele>
        <time>2021-11-06T17:35:31Z</time>
      </trkpt>
      <trkpt lat="38.2053460" lon="-1.4419590">
        <ele>454.8</ele>
        <time>2021-11-06T17:35:32Z</time>
      </trkpt>
      <trkpt lat="38.2053410" lon="-1.4419690">
        <ele>455.6</ele>
        <time>2021-11-06T17:35:34Z</time>
      </trkpt>
      <trkpt lat="38.2053360" lon="-1.4419880">
        <ele>455.8</ele>
        <time>2021-11-06T17:35:38Z</time>
      </trkpt>
      <trkpt lat="38.2053600" lon="-1.4419950">
        <ele>457.0</ele>
        <time>2021-11-06T17:35:44Z</time>
      </trkpt>
      <trkpt lat="38.2053610" lon="-1.4420010">
        <ele>457.4</ele>
        <time>2021-11-06T17:35:45Z</time>
      </trkpt>
      <trkpt lat="38.2053540" lon="-1.4420170">
        <ele>458.2</ele>
        <time>2021-11-06T17:35:47Z</time>
      </trkpt>
      <trkpt lat="38.2053420" lon="-1.4420560">
        <ele>459.0</ele>
        <time>2021-11-06T17:35:52Z</time>
      </trkpt>
      <trkpt lat="38.2053420" lon="-1.4420590">
        <ele>459.4</ele>
        <time>2021-11-06T17:35:53Z</time>
      </trkpt>
      <trkpt lat="38.2053290" lon="-1.4420880">
        <ele>460.0</ele>
        <time>2021-11-06T17:35:59Z</time>
      </trkpt>
      <trkpt lat="38.2052880" lon="-1.4421100">
        <ele>460.6</ele>
        <time>2021-11-06T17:36:03Z</time>
      </trkpt>
      <trkpt lat="38.2052690" lon="-1.4421390">
        <ele>461.8</ele>
        <time>2021-11-06T17:36:07Z</time>
      </trkpt>
      <trkpt lat="38.2052720" lon="-1.4421500">
        <ele>463.0</ele>
        <time>2021-11-06T17:36:10Z</time>
      </trkpt>
      <trkpt lat="38.2052670" lon="-1.4421700">
        <ele>463.4</ele>
        <time>2021-11-06T17:36:13Z</time>
      </trkpt>
      <trkpt lat="38.2052610" lon="-1.4421800">
        <ele>463.6</ele>
        <time>2021-11-06T17:36:19Z</time>
      </trkpt>
      <trkpt lat="38.2052570" lon="-1.4421960">
        <ele>464.4</ele>
        <time>2021-11-06T17:36:22Z</time>
      </trkpt>
      <trkpt lat="38.2052610" lon="-1.4421960">
        <ele>464.8</ele>
        <time>2021-11-06T17:36:25Z</time>
      </trkpt>
      <trkpt lat="38.2052350" lon="-1.4422530">
        <ele>465.6</ele>
        <time>2021-11-06T17:36:34Z</time>
      </trkpt>
      <trkpt lat="38.2052200" lon="-1.4422890">
        <ele>466.8</ele>
        <time>2021-11-06T17:36:38Z</time>
      </trkpt>
      <trkpt lat="38.2052180" lon="-1.4422940">
        <ele>467.2</ele>
        <time>2021-11-06T17:36:40Z</time>
      </trkpt>
      <trkpt lat="38.2052130" lon="-1.4422970">
        <ele>467.8</ele>
        <time>2021-11-06T17:36:42Z</time>
      </trkpt>
      <trkpt lat="38.2052050" lon="-1.4423270">
        <ele>468.4</ele>
        <time>2021-11-06T17:36:46Z</time>
      </trkpt>
      <trkpt lat="38.2052000" lon="-1.4423500">
        <ele>469.4</ele>
        <time>2021-11-06T17:36:49Z</time>
      </trkpt>
      <trkpt lat="38.2051900" lon="-1.4423580">
        <ele>470.2</ele>
        <time>2021-11-06T17:36:52Z</time>
      </trkpt>
      <trkpt lat="38.2051880" lon="-1.4423630">
        <ele>470.6</ele>
        <time>2021-11-06T17:36:53Z</time>
      </trkpt>
      <trkpt lat="38.2051800" lon="-1.4423870">
        <ele>471.8</ele>
        <time>2021-11-06T17:36:59Z</time>
      </trkpt>
      <trkpt lat="38.2051620" lon="-1.4424030">
        <ele>472.4</ele>
        <time>2021-11-06T17:37:06Z</time>
      </trkpt>
      <trkpt lat="38.2051600" lon="-1.4424170">
        <ele>473.0</ele>
        <time>2021-11-06T17:37:11Z</time>
      </trkpt>
      <trkpt lat="38.2051570" lon="-1.4424260">
        <ele>473.0</ele>
        <time>2021-11-06T17:37:13Z</time>
      </trkpt>
      <trkpt lat="38.2051650" lon="-1.4424710">
        <ele>474.0</ele>
        <time>2021-11-06T17:37:19Z</time>
      </trkpt>
      <trkpt lat="38.2051780" lon="-1.4424900">
        <ele>475.2</ele>
        <time>2021-11-06T17:37:23Z</time>
      </trkpt>
      <trkpt lat="38.2051790" lon="-1.4425170">
        <ele>476.4</ele>
        <time>2021-11-06T17:37:25Z</time>
      </trkpt>
      <trkpt lat="38.2051770" lon="-1.4425250">
        <ele>476.6</ele>
        <time>2021-11-06T17:37:26Z</time>
      </trkpt>
      <trkpt lat="38.2051780" lon="-1.4425240">
        <ele>477.4</ele>
        <time>2021-11-06T17:37:30Z</time>
      </trkpt>
      <trkpt lat="38.2051810" lon="-1.4425250">
        <ele>477.6</ele>
        <time>2021-11-06T17:37:31Z</time>
      </trkpt>
      <trkpt lat="38.2051650" lon="-1.4425730">
        <ele>478.2</ele>
        <time>2021-11-06T17:37:40Z</time>
      </trkpt>
      <trkpt lat="38.2051610" lon="-1.4425740">
        <ele>478.6</ele>
        <time>2021-11-06T17:37:42Z</time>
      </trkpt>
      <trkpt lat="38.2051420" lon="-1.4425640">
        <ele>479.8</ele>
        <time>2021-11-06T17:37:45Z</time>
      </trkpt>
      <trkpt lat="38.2051330" lon="-1.4425670">
        <ele>480.0</ele>
        <time>2021-11-06T17:37:46Z</time>
      </trkpt>
      <trkpt lat="38.2051200" lon="-1.4425950">
        <ele>480.6</ele>
        <time>2021-11-06T17:37:49Z</time>
      </trkpt>
      <trkpt lat="38.2051130" lon="-1.4425960">
        <ele>481.0</ele>
        <time>2021-11-06T17:37:51Z</time>
      </trkpt>
      <trkpt lat="38.2051100" lon="-1.4426230">
        <ele>482.2</ele>
        <time>2021-11-06T17:37:55Z</time>
      </trkpt>
      <trkpt lat="38.2051110" lon="-1.4426370">
        <ele>483.2</ele>
        <time>2021-11-06T17:37:57Z</time>
      </trkpt>
      <trkpt lat="38.2051070" lon="-1.4426430">
        <ele>483.4</ele>
        <time>2021-11-06T17:37:58Z</time>
      </trkpt>
      <trkpt lat="38.2050840" lon="-1.4426740">
        <ele>484.4</ele>
        <time>2021-11-06T17:38:04Z</time>
      </trkpt>
      <trkpt lat="38.2050860" lon="-1.4426750">
        <ele>484.6</ele>
        <time>2021-11-06T17:38:05Z</time>
      </trkpt>
      <trkpt lat="38.2050660" lon="-1.4426980">
        <ele>485.4</ele>
        <time>2021-11-06T17:38:10Z</time>
      </trkpt>
      <trkpt lat="38.2050630" lon="-1.4427040">
        <ele>485.6</ele>
        <time>2021-11-06T17:38:11Z</time>
      </trkpt>
      <trkpt lat="38.2050370" lon="-1.4427550">
        <ele>486.4</ele>
        <time>2021-11-06T17:38:16Z</time>
      </trkpt>
      <trkpt lat="38.2050340" lon="-1.4427640">
        <ele>486.8</ele>
        <time>2021-11-06T17:38:17Z</time>
      </trkpt>
      <trkpt lat="38.2050320" lon="-1.4427850">
        <ele>487.8</ele>
        <time>2021-11-06T17:38:21Z</time>
      </trkpt>
      <trkpt lat="38.2050330" lon="-1.4427880">
        <ele>488.0</ele>
        <time>2021-11-06T17:38:22Z</time>
      </trkpt>
      <trkpt lat="38.2050340" lon="-1.4427900">
        <ele>488.0</ele>
        <time>2021-11-06T17:38:23Z</time>
      </trkpt>
      <trkpt lat="38.2050310" lon="-1.4428010">
        <ele>489.0</ele>
        <time>2021-11-06T17:38:27Z</time>
      </trkpt>
      <trkpt lat="38.2050210" lon="-1.4428140">
        <ele>489.2</ele>
        <time>2021-11-06T17:38:29Z</time>
      </trkpt>
      <trkpt lat="38.2049900" lon="-1.4428270">
        <ele>490.2</ele>
        <time>2021-11-06T17:38:34Z</time>
      </trkpt>
      <trkpt lat="38.2049700" lon="-1.4428320">
        <ele>491.0</ele>
        <time>2021-11-06T17:38:39Z</time>
      </trkpt>
      <trkpt lat="38.2049510" lon="-1.4428350">
        <ele>491.2</ele>
        <time>2021-11-06T17:38:41Z</time>
      </trkpt>
      <trkpt lat="38.2049410" lon="-1.4428550">
        <ele>491.6</ele>
        <time>2021-11-06T17:38:44Z</time>
      </trkpt>
      <trkpt lat="38.2049370" lon="-1.4428590">
        <ele>492.6</ele>
        <time>2021-11-06T17:38:46Z</time>
      </trkpt>
      <trkpt lat="38.2049250" lon="-1.4428690">
        <ele>493.6</ele>
        <time>2021-11-06T17:38:49Z</time>
      </trkpt>
      <trkpt lat="38.2049210" lon="-1.4428690">
        <ele>493.8</ele>
        <time>2021-11-06T17:38:50Z</time>
      </trkpt>
      <trkpt lat="38.2049020" lon="-1.4428840">
        <ele>494.8</ele>
        <time>2021-11-06T17:38:54Z</time>
      </trkpt>
      <trkpt lat="38.2048890" lon="-1.4428920">
        <ele>495.2</ele>
        <time>2021-11-06T17:38:56Z</time>
      </trkpt>
      <trkpt lat="38.2048740" lon="-1.4428980">
        <ele>496.0</ele>
        <time>2021-11-06T17:38:59Z</time>
      </trkpt>
      <trkpt lat="38.2048560" lon="-1.4429080">
        <ele>496.2</ele>
        <time>2021-11-06T17:39:02Z</time>
      </trkpt>
      <trkpt lat="38.2048470" lon="-1.4429130">
        <ele>497.2</ele>
        <time>2021-11-06T17:39:05Z</time>
      </trkpt>
      <trkpt lat="38.2048340" lon="-1.4429090">
        <ele>498.0</ele>
        <time>2021-11-06T17:39:08Z</time>
      </trkpt>
      <trkpt lat="38.2048330" lon="-1.4429030">
        <ele>498.2</ele>
        <time>2021-11-06T17:39:09Z</time>
      </trkpt>
      <trkpt lat="38.2048150" lon="-1.4429190">
        <ele>499.4</ele>
        <time>2021-11-06T17:39:13Z</time>
      </trkpt>
      <trkpt lat="38.2048060" lon="-1.4429340">
        <ele>499.8</ele>
        <time>2021-11-06T17:39:15Z</time>
      </trkpt>
      <trkpt lat="38.2047830" lon="-1.4429590">
        <ele>500.6</ele>
        <time>2021-11-06T17:39:19Z</time>
      </trkpt>
      <trkpt lat="38.2047740" lon="-1.4429760">
        <ele>501.8</ele>
        <time>2021-11-06T17:39:22Z</time>
      </trkpt>
      <trkpt lat="38.2047670" lon="-1.4430070">
        <ele>502.4</ele>
        <time>2021-11-06T17:39:24Z</time>
      </trkpt>
      <trkpt lat="38.2047570" lon="-1.4430370">
        <ele>502.8</ele>
        <time>2021-11-06T17:39:27Z</time>
      </trkpt>
      <trkpt lat="38.2047410" lon="-1.4430600">
        <ele>503.6</ele>
        <time>2021-11-06T17:39:31Z</time>
      </trkpt>
      <trkpt lat="38.2047380" lon="-1.4430710">
        <ele>504.2</ele>
        <time>2021-11-06T17:39:33Z</time>
      </trkpt>
      <trkpt lat="38.2047250" lon="-1.4430810">
        <ele>504.6</ele>
        <time>2021-11-06T17:39:35Z</time>
      </trkpt>
      <trkpt lat="38.2047210" lon="-1.4431080">
        <ele>505.2</ele>
        <time>2021-11-06T17:39:38Z</time>
      </trkpt>
      <trkpt lat="38.2047100" lon="-1.4431280">
        <ele>505.6</ele>
        <time>2021-11-06T17:39:41Z</time>
      </trkpt>
      <trkpt lat="38.2047260" lon="-1.4431120">
        <ele>506.4</ele>
        <time>2021-11-06T17:39:44Z</time>
      </trkpt>
      <trkpt lat="38.2047280" lon="-1.4431180">
        <ele>506.8</ele>
        <time>2021-11-06T17:39:48Z</time>
      </trkpt>
      <trkpt lat="38.2047090" lon="-1.4431470">
        <ele>507.4</ele>
        <time>2021-11-06T17:39:59Z</time>
      </trkpt>
      <trkpt lat="38.2046790" lon="-1.4431680">
        <ele>508.2</ele>
        <time>2021-11-06T17:40:06Z</time>
      </trkpt>
      <trkpt lat="38.2046760" lon="-1.4431690">
        <ele>509.0</ele>
        <time>2021-11-06T17:40:07Z</time>
      </trkpt>
      <trkpt lat="38.2046890" lon="-1.4431680">
        <ele>509.8</ele>
        <time>2021-11-06T17:40:11Z</time>
      </trkpt>
      <trkpt lat="38.2046780" lon="-1.4431960">
        <ele>509.6</ele>
        <time>2021-11-06T17:40:19Z</time>
      </trkpt>
      <trkpt lat="38.2046650" lon="-1.4432080">
        <ele>510.0</ele>
        <time>2021-11-06T17:40:21Z</time>
      </trkpt>
      <trkpt lat="38.2046430" lon="-1.4432300">
        <ele>511.2</ele>
        <time>2021-11-06T17:40:25Z</time>
      </trkpt>
      <trkpt lat="38.2046370" lon="-1.4432320">
        <ele>511.4</ele>
        <time>2021-11-06T17:40:26Z</time>
      </trkpt>
      <trkpt lat="38.2046200" lon="-1.4432580">
        <ele>512.2</ele>
        <time>2021-11-06T17:40:29Z</time>
      </trkpt>
      <trkpt lat="38.2046090" lon="-1.4432680">
        <ele>513.2</ele>
        <time>2021-11-06T17:40:32Z</time>
      </trkpt>
      <trkpt lat="38.2046080" lon="-1.4432670">
        <ele>513.6</ele>
        <time>2021-11-06T17:40:33Z</time>
      </trkpt>
      <trkpt lat="38.2045860" lon="-1.4432790">
        <ele>514.4</ele>
        <time>2021-11-06T17:40:37Z</time>
      </trkpt>
      <trkpt lat="38.2045830" lon="-1.4432810">
        <ele>514.6</ele>
        <time>2021-11-06T17:40:39Z</time>
      </trkpt>
      <trkpt lat="38.2045770" lon="-1.4432810">
        <ele>515.4</ele>
        <time>2021-11-06T17:40:44Z</time>
      </trkpt>
      <trkpt lat="38.2045760" lon="-1.4432790">
        <ele>515.8</ele>
        <time>2021-11-06T17:40:46Z</time>
      </trkpt>
      <trkpt lat="38.2045510" lon="-1.4432900">
        <ele>516.6</ele>
        <time>2021-11-06T17:40:50Z</time>
      </trkpt>
      <trkpt lat="38.2045250" lon="-1.4433070">
        <ele>518.0</ele>
        <time>2021-11-06T17:40:54Z</time>
      </trkpt>
      <trkpt lat="38.2045170" lon="-1.4433460">
        <ele>519.2</ele>
        <time>2021-11-06T17:40:58Z</time>
      </trkpt>
      <trkpt lat="38.2044990" lon="-1.4433600">
        <ele>520.4</ele>
        <time>2021-11-06T17:41:03Z</time>
      </trkpt>
      <trkpt lat="38.2044910" lon="-1.4433540">
        <ele>521.4</ele>
        <time>2021-11-06T17:41:05Z</time>
      </trkpt>
      <trkpt lat="38.2044840" lon="-1.4433550">
        <ele>522.0</ele>
        <time>2021-11-06T17:41:06Z</time>
      </trkpt>
      <trkpt lat="38.2044820" lon="-1.4434140">
        <ele>523.2</ele>
        <time>2021-11-06T17:41:11Z</time>
      </trkpt>
      <trkpt lat="38.2044690" lon="-1.4434760">
        <ele>524.4</ele>
        <time>2021-11-06T17:41:16Z</time>
      </trkpt>
      <trkpt lat="38.2044630" lon="-1.4434820">
        <ele>524.6</ele>
        <time>2021-11-06T17:41:17Z</time>
      </trkpt>
      <trkpt lat="38.2044510" lon="-1.4435010">
        <ele>525.4</ele>
        <time>2021-11-06T17:41:21Z</time>
      </trkpt>
      <trkpt lat="38.2044560" lon="-1.4435090">
        <ele>526.4</ele>
        <time>2021-11-06T17:41:25Z</time>
      </trkpt>
      <trkpt lat="38.2044540" lon="-1.4435050">
        <ele>526.6</ele>
        <time>2021-11-06T17:41:26Z</time>
      </trkpt>
      <trkpt lat="38.2044480" lon="-1.4434940">
        <ele>527.8</ele>
        <time>2021-11-06T17:41:31Z</time>
      </trkpt>
      <trkpt lat="38.2044420" lon="-1.4435010">
        <ele>528.0</ele>
        <time>2021-11-06T17:41:33Z</time>
      </trkpt>
      <trkpt lat="38.2044240" lon="-1.4434900">
        <ele>528.4</ele>
        <time>2021-11-06T17:41:40Z</time>
      </trkpt>
      <trkpt lat="38.2043970" lon="-1.4435000">
        <ele>528.8</ele>
        <time>2021-11-06T17:41:43Z</time>
      </trkpt>
      <trkpt lat="38.2043650" lon="-1.4435380">
        <ele>529.8</ele>
        <time>2021-11-06T17:41:48Z</time>
      </trkpt>
      <trkpt lat="38.2043580" lon="-1.4435560">
        <ele>531.0</ele>
        <time>2021-11-06T17:41:51Z</time>
      </trkpt>
      <trkpt lat="38.2043550" lon="-1.4435680">
        <ele>532.2</ele>
        <time>2021-11-06T17:41:55Z</time>
      </trkpt>
      <trkpt lat="38.2043560" lon="-1.4435690">
        <ele>532.4</ele>
        <time>2021-11-06T17:41:56Z</time>
      </trkpt>
      <trkpt lat="38.2043630" lon="-1.4436180">
        <ele>532.4</ele>
        <time>2021-11-06T17:42:03Z</time>
      </trkpt>
      <trkpt lat="38.2043580" lon="-1.4436610">
        <ele>533.2</ele>
        <time>2021-11-06T17:42:09Z</time>
      </trkpt>
      <trkpt lat="38.2043530" lon="-1.4436660">
        <ele>533.6</ele>
        <time>2021-11-06T17:42:10Z</time>
      </trkpt>
      <trkpt lat="38.2043390" lon="-1.4436780">
        <ele>534.6</ele>
        <time>2021-11-06T17:42:13Z</time>
      </trkpt>
      <trkpt lat="38.2043400" lon="-1.4436920">
        <ele>535.2</ele>
        <time>2021-11-06T17:42:15Z</time>
      </trkpt>
      <trkpt lat="38.2043430" lon="-1.4436890">
        <ele>535.8</ele>
        <time>2021-11-06T17:42:16Z</time>
      </trkpt>
      <trkpt lat="38.2043420" lon="-1.4437000">
        <ele>536.8</ele>
        <time>2021-11-06T17:42:20Z</time>
      </trkpt>
      <trkpt lat="38.2043400" lon="-1.4437050">
        <ele>536.8</ele>
        <time>2021-11-06T17:42:21Z</time>
      </trkpt>
      <trkpt lat="38.2043310" lon="-1.4437530">
        <ele>537.6</ele>
        <time>2021-11-06T17:42:27Z</time>
      </trkpt>
      <trkpt lat="38.2043320" lon="-1.4437630">
        <ele>538.0</ele>
        <time>2021-11-06T17:42:28Z</time>
      </trkpt>
      <trkpt lat="38.2043320" lon="-1.4437620">
        <ele>539.0</ele>
        <time>2021-11-06T17:42:33Z</time>
      </trkpt>
      <trkpt lat="38.2043100" lon="-1.4437750">
        <ele>540.2</ele>
        <time>2021-11-06T17:42:37Z</time>
      </trkpt>
      <trkpt lat="38.2042930" lon="-1.4437850">
        <ele>540.6</ele>
        <time>2021-11-06T17:42:39Z</time>
      </trkpt>
      <trkpt lat="38.2042750" lon="-1.4438000">
        <ele>541.2</ele>
        <time>2021-11-06T17:42:43Z</time>
      </trkpt>
      <trkpt lat="38.2042640" lon="-1.4437990">
        <ele>541.8</ele>
        <time>2021-11-06T17:42:45Z</time>
      </trkpt>
      <trkpt lat="38.2042370" lon="-1.4437980">
        <ele>542.4</ele>
        <time>2021-11-06T17:42:49Z</time>
      </trkpt>
      <trkpt lat="38.2042340" lon="-1.4438210">
        <ele>543.2</ele>
        <time>2021-11-06T17:42:52Z</time>
      </trkpt>
      <trkpt lat="38.2042390" lon="-1.4438230">
        <ele>543.4</ele>
        <time>2021-11-06T17:42:53Z</time>
      </trkpt>
      <trkpt lat="38.2042640" lon="-1.4438040">
        <ele>544.6</ele>
        <time>2021-11-06T17:42:56Z</time>
      </trkpt>
      <trkpt lat="38.2042730" lon="-1.4438030">
        <ele>544.8</ele>
        <time>2021-11-06T17:42:57Z</time>
      </trkpt>
      <trkpt lat="38.2042870" lon="-1.4438070">
        <ele>545.4</ele>
        <time>2021-11-06T17:43:00Z</time>
      </trkpt>
      <trkpt lat="38.2042860" lon="-1.4438120">
        <ele>545.6</ele>
        <time>2021-11-06T17:43:01Z</time>
      </trkpt>
      <trkpt lat="38.2042770" lon="-1.4438280">
        <ele>546.2</ele>
        <time>2021-11-06T17:43:03Z</time>
      </trkpt>
      <trkpt lat="38.2042620" lon="-1.4438450">
        <ele>546.8</ele>
        <time>2021-11-06T17:43:05Z</time>
      </trkpt>
      <trkpt lat="38.2042540" lon="-1.4438570">
        <ele>547.0</ele>
        <time>2021-11-06T17:43:06Z</time>
      </trkpt>
      <trkpt lat="38.2041840" lon="-1.4439140">
        <ele>547.4</ele>
        <time>2021-11-06T17:43:11Z</time>
      </trkpt>
      <trkpt lat="38.2041620" lon="-1.4439430">
        <ele>547.0</ele>
        <time>2021-11-06T17:43:15Z</time>
      </trkpt>
      <trkpt lat="38.2041620" lon="-1.4439450">
        <ele>547.0</ele>
        <time>2021-11-06T17:43:16Z</time>
      </trkpt>
      <trkpt lat="38.2041600" lon="-1.4439530">
        <ele>547.0</ele>
        <time>2021-11-06T17:43:17Z</time>
      </trkpt>
      <trkpt lat="38.2041580" lon="-1.4439570">
        <ele>548.4</ele>
        <time>2021-11-06T17:43:19Z</time>
      </trkpt>
      <trkpt lat="38.2041480" lon="-1.4439700">
        <ele>549.4</ele>
        <time>2021-11-06T17:43:23Z</time>
      </trkpt>
      <trkpt lat="38.2041450" lon="-1.4439730">
        <ele>549.6</ele>
        <time>2021-11-06T17:43:24Z</time>
      </trkpt>
      <trkpt lat="38.2041370" lon="-1.4439830">
        <ele>550.8</ele>
        <time>2021-11-06T17:43:27Z</time>
      </trkpt>
      <trkpt lat="38.2041240" lon="-1.4440060">
        <ele>551.4</ele>
        <time>2021-11-06T17:43:31Z</time>
      </trkpt>
      <trkpt lat="38.2041170" lon="-1.4440160">
        <ele>552.0</ele>
        <time>2021-11-06T17:43:33Z</time>
      </trkpt>
      <trkpt lat="38.2041040" lon="-1.4440250">
        <ele>552.2</ele>
        <time>2021-11-06T17:43:35Z</time>
      </trkpt>
      <trkpt lat="38.2041010" lon="-1.4440340">
        <ele>552.4</ele>
        <time>2021-11-06T17:43:37Z</time>
      </trkpt>
      <trkpt lat="38.2041110" lon="-1.4440260">
        <ele>553.2</ele>
        <time>2021-11-06T17:43:41Z</time>
      </trkpt>
      <trkpt lat="38.2041000" lon="-1.4440110">
        <ele>553.6</ele>
        <time>2021-11-06T17:43:43Z</time>
      </trkpt>
      <trkpt lat="38.2040880" lon="-1.4440070">
        <ele>554.2</ele>
        <time>2021-11-06T17:43:45Z</time>
      </trkpt>
      <trkpt lat="38.2040640" lon="-1.4440170">
        <ele>554.8</ele>
        <time>2021-11-06T17:43:49Z</time>
      </trkpt>
      <trkpt lat="38.2040500" lon="-1.4440520">
        <ele>555.4</ele>
        <time>2021-11-06T17:43:53Z</time>
      </trkpt>
      <trkpt lat="38.2040430" lon="-1.4440800">
        <ele>556.6</ele>
        <time>2021-11-06T17:43:56Z</time>
      </trkpt>
      <trkpt lat="38.2040360" lon="-1.4440910">
        <ele>556.8</ele>
        <time>2021-11-06T17:43:57Z</time>
      </trkpt>
      <trkpt lat="38.2040170" lon="-1.4441280">
        <ele>557.8</ele>
        <time>2021-11-06T17:44:02Z</time>
      </trkpt>
      <trkpt lat="38.2040040" lon="-1.4441340">
        <ele>558.2</ele>
        <time>2021-11-06T17:44:05Z</time>
      </trkpt>
      <trkpt lat="38.2039960" lon="-1.4441380">
        <ele>558.8</ele>
        <time>2021-11-06T17:44:07Z</time>
      </trkpt>
      <trkpt lat="38.2039830" lon="-1.4441580">
        <ele>559.8</ele>
        <time>2021-11-06T17:44:10Z</time>
      </trkpt>
      <trkpt lat="38.2039780" lon="-1.4441800">
        <ele>560.2</ele>
        <time>2021-11-06T17:44:12Z</time>
      </trkpt>
      <trkpt lat="38.2039590" lon="-1.4442150">
        <ele>560.4</ele>
        <time>2021-11-06T17:44:17Z</time>
      </trkpt>
      <trkpt lat="38.2039500" lon="-1.4442240">
        <ele>561.0</ele>
        <time>2021-11-06T17:44:19Z</time>
      </trkpt>
      <trkpt lat="38.2039270" lon="-1.4442400">
        <ele>562.0</ele>
        <time>2021-11-06T17:44:24Z</time>
      </trkpt>
      <trkpt lat="38.2039250" lon="-1.4442430">
        <ele>562.2</ele>
        <time>2021-11-06T17:44:25Z</time>
      </trkpt>
      <trkpt lat="38.2039240" lon="-1.4442300">
        <ele>563.4</ele>
        <time>2021-11-06T17:44:30Z</time>
      </trkpt>
      <trkpt lat="38.2038820" lon="-1.4442640">
        <ele>564.6</ele>
        <time>2021-11-06T17:44:34Z</time>
      </trkpt>
      <trkpt lat="38.2038710" lon="-1.4442790">
        <ele>565.2</ele>
        <time>2021-11-06T17:44:36Z</time>
      </trkpt>
      <trkpt lat="38.2038600" lon="-1.4442970">
        <ele>565.8</ele>
        <time>2021-11-06T17:44:39Z</time>
      </trkpt>
      <trkpt lat="38.2038500" lon="-1.4443020">
        <ele>566.8</ele>
        <time>2021-11-06T17:44:43Z</time>
      </trkpt>
      <trkpt lat="38.2038500" lon="-1.4442960">
        <ele>566.8</ele>
        <time>2021-11-06T17:44:44Z</time>
      </trkpt>
      <trkpt lat="38.2038610" lon="-1.4443080">
        <ele>567.2</ele>
        <time>2021-11-06T17:44:48Z</time>
      </trkpt>
      <trkpt lat="38.2038520" lon="-1.4443310">
        <ele>567.0</ele>
        <time>2021-11-06T17:44:55Z</time>
      </trkpt>
      <trkpt lat="38.2038510" lon="-1.4443220">
        <ele>568.0</ele>
        <time>2021-11-06T17:44:58Z</time>
      </trkpt>
      <trkpt lat="38.2038450" lon="-1.4443340">
        <ele>569.2</ele>
        <time>2021-11-06T17:45:01Z</time>
      </trkpt>
      <trkpt lat="38.2038220" lon="-1.4443540">
        <ele>570.2</ele>
        <time>2021-11-06T17:45:05Z</time>
      </trkpt>
      <trkpt lat="38.2038120" lon="-1.4443570">
        <ele>570.0</ele>
        <time>2021-11-06T17:45:07Z</time>
      </trkpt>
      <trkpt lat="38.2037590" lon="-1.4444120">
        <ele>570.4</ele>
        <time>2021-11-06T17:45:14Z</time>
      </trkpt>
      <trkpt lat="38.2037410" lon="-1.4444530">
        <ele>571.4</ele>
        <time>2021-11-06T17:45:19Z</time>
      </trkpt>
      <trkpt lat="38.2037340" lon="-1.4444610">
        <ele>571.6</ele>
        <time>2021-11-06T17:45:21Z</time>
      </trkpt>
      <trkpt lat="38.2037020" lon="-1.4444940">
        <ele>571.8</ele>
        <time>2021-11-06T17:45:27Z</time>
      </trkpt>
      <trkpt lat="38.2036580" lon="-1.4445370">
        <ele>572.6</ele>
        <time>2021-11-06T17:45:32Z</time>
      </trkpt>
      <trkpt lat="38.2036500" lon="-1.4445480">
        <ele>573.0</ele>
        <time>2021-11-06T17:45:34Z</time>
      </trkpt>
      <trkpt lat="38.2036460" lon="-1.4445560">
        <ele>573.2</ele>
        <time>2021-11-06T17:45:35Z</time>
      </trkpt>
      <trkpt lat="38.2036320" lon="-1.4446010">
        <ele>573.8</ele>
        <time>2021-11-06T17:45:40Z</time>
      </trkpt>
      <trkpt lat="38.2036230" lon="-1.4446160">
        <ele>574.2</ele>
        <time>2021-11-06T17:45:42Z</time>
      </trkpt>
      <trkpt lat="38.2036210" lon="-1.4446150">
        <ele>574.6</ele>
        <time>2021-11-06T17:45:43Z</time>
      </trkpt>
      <trkpt lat="38.2036190" lon="-1.4446190">
        <ele>575.0</ele>
        <time>2021-11-06T17:45:44Z</time>
      </trkpt>
      <trkpt lat="38.2036080" lon="-1.4446290">
        <ele>575.6</ele>
        <time>2021-11-06T17:45:47Z</time>
      </trkpt>
      <trkpt lat="38.2036000" lon="-1.4446190">
        <ele>576.6</ele>
        <time>2021-11-06T17:45:50Z</time>
      </trkpt>
      <trkpt lat="38.2035860" lon="-1.4446220">
        <ele>577.6</ele>
        <time>2021-11-06T17:45:53Z</time>
      </trkpt>
      <trkpt lat="38.2035780" lon="-1.4446300">
        <ele>578.0</ele>
        <time>2021-11-06T17:45:54Z</time>
      </trkpt>
      <trkpt lat="38.2035630" lon="-1.4446310">
        <ele>579.2</ele>
        <time>2021-11-06T17:45:57Z</time>
      </trkpt>
      <trkpt lat="38.2035520" lon="-1.4446560">
        <ele>579.4</ele>
        <time>2021-11-06T17:45:59Z</time>
      </trkpt>
      <trkpt lat="38.2035470" lon="-1.4447010">
        <ele>580.2</ele>
        <time>2021-11-06T17:46:03Z</time>
      </trkpt>
      <trkpt lat="38.2035460" lon="-1.4447000">
        <ele>580.4</ele>
        <time>2021-11-06T17:46:04Z</time>
      </trkpt>
      <trkpt lat="38.2035520" lon="-1.4447450">
        <ele>580.6</ele>
        <time>2021-11-06T17:46:09Z</time>
      </trkpt>
      <trkpt lat="38.2035510" lon="-1.4447620">
        <ele>581.2</ele>
        <time>2021-11-06T17:46:12Z</time>
      </trkpt>
      <trkpt lat="38.2035500" lon="-1.4447680">
        <ele>581.4</ele>
        <time>2021-11-06T17:46:13Z</time>
      </trkpt>
      <trkpt lat="38.2035410" lon="-1.4447780">
        <ele>581.8</ele>
        <time>2021-11-06T17:46:16Z</time>
      </trkpt>
      <trkpt lat="38.2035360" lon="-1.4447820">
        <ele>582.4</ele>
        <time>2021-11-06T17:46:17Z</time>
      </trkpt>
      <trkpt lat="38.2035140" lon="-1.4448110">
        <ele>583.4</ele>
        <time>2021-11-06T17:46:21Z</time>
      </trkpt>
      <trkpt lat="38.2035070" lon="-1.4448180">
        <ele>583.8</ele>
        <time>2021-11-06T17:46:22Z</time>
      </trkpt>
      <trkpt lat="38.2034860" lon="-1.4448540">
        <ele>584.6</ele>
        <time>2021-11-06T17:46:27Z</time>
      </trkpt>
      <trkpt lat="38.2034820" lon="-1.4448550">
        <ele>585.0</ele>
        <time>2021-11-06T17:46:28Z</time>
      </trkpt>
      <trkpt lat="38.2034750" lon="-1.4448680">
        <ele>585.6</ele>
        <time>2021-11-06T17:46:30Z</time>
      </trkpt>
      <trkpt lat="38.2034650" lon="-1.4448780">
        <ele>586.0</ele>
        <time>2021-11-06T17:46:33Z</time>
      </trkpt>
      <trkpt lat="38.2034540" lon="-1.4449000">
        <ele>586.8</ele>
        <time>2021-11-06T17:46:38Z</time>
      </trkpt>
      <trkpt lat="38.2034490" lon="-1.4449080">
        <ele>587.2</ele>
        <time>2021-11-06T17:46:39Z</time>
      </trkpt>
      <trkpt lat="38.2034370" lon="-1.4449240">
        <ele>588.0</ele>
        <time>2021-11-06T17:46:42Z</time>
      </trkpt>
      <trkpt lat="38.2034250" lon="-1.4449100">
        <ele>588.6</ele>
        <time>2021-11-06T17:46:45Z</time>
      </trkpt>
      <trkpt lat="38.2034210" lon="-1.4449210">
        <ele>589.0</ele>
        <time>2021-11-06T17:46:48Z</time>
      </trkpt>
      <trkpt lat="38.2034350" lon="-1.4449260">
        <ele>590.0</ele>
        <time>2021-11-06T17:46:52Z</time>
      </trkpt>
      <trkpt lat="38.2034000" lon="-1.4449660">
        <ele>590.8</ele>
        <time>2021-11-06T17:46:59Z</time>
      </trkpt>
      <trkpt lat="38.2033850" lon="-1.4449640">
        <ele>591.4</ele>
        <time>2021-11-06T17:47:01Z</time>
      </trkpt>
      <trkpt lat="38.2033660" lon="-1.4449880">
        <ele>592.0</ele>
        <time>2021-11-06T17:47:05Z</time>
      </trkpt>
      <trkpt lat="38.2033560" lon="-1.4450070">
        <ele>592.4</ele>
        <time>2021-11-06T17:47:07Z</time>
      </trkpt>
      <trkpt lat="38.2033300" lon="-1.4450560">
        <ele>593.6</ele>
        <time>2021-11-06T17:47:12Z</time>
      </trkpt>
      <trkpt lat="38.2033140" lon="-1.4451450">
        <ele>594.6</ele>
        <time>2021-11-06T17:47:18Z</time>
      </trkpt>
      <trkpt lat="38.2033160" lon="-1.4451770">
        <ele>595.0</ele>
        <time>2021-11-06T17:47:21Z</time>
      </trkpt>
      <trkpt lat="38.2033110" lon="-1.4451900">
        <ele>595.8</ele>
        <time>2021-11-06T17:47:23Z</time>
      </trkpt>
      <trkpt lat="38.2033010" lon="-1.4451980">
        <ele>596.2</ele>
        <time>2021-11-06T17:47:25Z</time>
      </trkpt>
      <trkpt lat="38.2033180" lon="-1.4452030">
        <ele>596.4</ele>
        <time>2021-11-06T17:47:31Z</time>
      </trkpt>
      <trkpt lat="38.2033160" lon="-1.4452030">
        <ele>597.0</ele>
        <time>2021-11-06T17:47:35Z</time>
      </trkpt>
      <trkpt lat="38.2033090" lon="-1.4452150">
        <ele>597.8</ele>
        <time>2021-11-06T17:47:38Z</time>
      </trkpt>
      <trkpt lat="38.2033090" lon="-1.4452190">
        <ele>598.0</ele>
        <time>2021-11-06T17:47:39Z</time>
      </trkpt>
      <trkpt lat="38.2033020" lon="-1.4452470">
        <ele>599.0</ele>
        <time>2021-11-06T17:47:44Z</time>
      </trkpt>
      <trkpt lat="38.2032950" lon="-1.4452530">
        <ele>599.2</ele>
        <time>2021-11-06T17:47:45Z</time>
      </trkpt>
      <trkpt lat="38.2032670" lon="-1.4452910">
        <ele>600.2</ele>
        <time>2021-11-06T17:47:49Z</time>
      </trkpt>
      <trkpt lat="38.2032420" lon="-1.4453230">
        <ele>601.0</ele>
        <time>2021-11-06T17:47:54Z</time>
      </trkpt>
      <trkpt lat="38.2032330" lon="-1.4453120">
        <ele>601.2</ele>
        <time>2021-11-06T17:47:58Z</time>
      </trkpt>
      <trkpt lat="38.2032220" lon="-1.4453410">
        <ele>602.0</ele>
        <time>2021-11-06T17:48:01Z</time>
      </trkpt>
      <trkpt lat="38.2032190" lon="-1.4453440">
        <ele>602.4</ele>
        <time>2021-11-06T17:48:02Z</time>
      </trkpt>
      <trkpt lat="38.2032050" lon="-1.4453590">
        <ele>603.4</ele>
        <time>2021-11-06T17:48:05Z</time>
      </trkpt>
      <trkpt lat="38.2032020" lon="-1.4453700">
        <ele>603.6</ele>
        <time>2021-11-06T17:48:06Z</time>
      </trkpt>
      <trkpt lat="38.2032050" lon="-1.4454260">
        <ele>604.8</ele>
        <time>2021-11-06T17:48:11Z</time>
      </trkpt>
      <trkpt lat="38.2032070" lon="-1.4454370">
        <ele>605.2</ele>
        <time>2021-11-06T17:48:12Z</time>
      </trkpt>
      <trkpt lat="38.2032100" lon="-1.4454620">
        <ele>605.8</ele>
        <time>2021-11-06T17:48:14Z</time>
      </trkpt>
      <trkpt lat="38.2032090" lon="-1.4454970">
        <ele>606.8</ele>
        <time>2021-11-06T17:48:18Z</time>
      </trkpt>
      <trkpt lat="38.2032090" lon="-1.4454890">
        <ele>608.0</ele>
        <time>2021-11-06T17:48:24Z</time>
      </trkpt>
      <trkpt lat="38.2032090" lon="-1.4454870">
        <ele>608.4</ele>
        <time>2021-11-06T17:48:25Z</time>
      </trkpt>
      <trkpt lat="38.2032240" lon="-1.4454800">
        <ele>609.2</ele>
        <time>2021-11-06T17:48:29Z</time>
      </trkpt>
      <trkpt lat="38.2032230" lon="-1.4454860">
        <ele>609.4</ele>
        <time>2021-11-06T17:48:32Z</time>
      </trkpt>
      <trkpt lat="38.2031830" lon="-1.4455060">
        <ele>610.2</ele>
        <time>2021-11-06T17:48:39Z</time>
      </trkpt>
      <trkpt lat="38.2031830" lon="-1.4455120">
        <ele>610.2</ele>
        <time>2021-11-06T17:48:40Z</time>
      </trkpt>
      <trkpt lat="38.2031870" lon="-1.4455420">
        <ele>611.4</ele>
        <time>2021-11-06T17:48:45Z</time>
      </trkpt>
      <trkpt lat="38.2031850" lon="-1.4455570">
        <ele>612.4</ele>
        <time>2021-11-06T17:48:50Z</time>
      </trkpt>
      <trkpt lat="38.2031840" lon="-1.4455610">
        <ele>612.4</ele>
        <time>2021-11-06T17:48:51Z</time>
      </trkpt>
      <trkpt lat="38.2031700" lon="-1.4455560">
        <ele>613.4</ele>
        <time>2021-11-06T17:48:56Z</time>
      </trkpt>
      <trkpt lat="38.2031640" lon="-1.4455570">
        <ele>613.4</ele>
        <time>2021-11-06T17:48:57Z</time>
      </trkpt>
      <trkpt lat="38.2031440" lon="-1.4455790">
        <ele>614.6</ele>
        <time>2021-11-06T17:49:01Z</time>
      </trkpt>
      <trkpt lat="38.2031390" lon="-1.4455900">
        <ele>615.6</ele>
        <time>2021-11-06T17:49:06Z</time>
      </trkpt>
      <trkpt lat="38.2031390" lon="-1.4455870">
        <ele>615.6</ele>
        <time>2021-11-06T17:49:07Z</time>
      </trkpt>
      <trkpt lat="38.2031240" lon="-1.4456030">
        <ele>616.6</ele>
        <time>2021-11-06T17:49:13Z</time>
      </trkpt>
      <trkpt lat="38.2031260" lon="-1.4456030">
        <ele>617.0</ele>
        <time>2021-11-06T17:49:14Z</time>
      </trkpt>
      <trkpt lat="38.2031060" lon="-1.4455860">
        <ele>618.0</ele>
        <time>2021-11-06T17:49:18Z</time>
      </trkpt>
      <trkpt lat="38.2030890" lon="-1.4455640">
        <ele>618.4</ele>
        <time>2021-11-06T17:49:20Z</time>
      </trkpt>
      <trkpt lat="38.2030830" lon="-1.4455560">
        <ele>618.6</ele>
        <time>2021-11-06T17:49:21Z</time>
      </trkpt>
      <trkpt lat="38.2030770" lon="-1.4455420">
        <ele>619.2</ele>
        <time>2021-11-06T17:49:23Z</time>
      </trkpt>
      <trkpt lat="38.2030900" lon="-1.4455460">
        <ele>619.8</ele>
        <time>2021-11-06T17:49:27Z</time>
      </trkpt>
      <trkpt lat="38.2030880" lon="-1.4455530">
        <ele>620.4</ele>
        <time>2021-11-06T17:49:29Z</time>
      </trkpt>
      <trkpt lat="38.2030870" lon="-1.4455180">
        <ele>621.4</ele>
        <time>2021-11-06T17:49:34Z</time>
      </trkpt>
      <trkpt lat="38.2030420" lon="-1.4455470">
        <ele>622.6</ele>
        <time>2021-11-06T17:49:40Z</time>
      </trkpt>
      <trkpt lat="38.2030320" lon="-1.4455560">
        <ele>623.0</ele>
        <time>2021-11-06T17:49:42Z</time>
      </trkpt>
      <trkpt lat="38.2030020" lon="-1.4455880">
        <ele>623.8</ele>
        <time>2021-11-06T17:49:47Z</time>
      </trkpt>
      <trkpt lat="38.2029860" lon="-1.4456310">
        <ele>624.2</ele>
        <time>2021-11-06T17:49:50Z</time>
      </trkpt>
      <trkpt lat="38.2029810" lon="-1.4456500">
        <ele>625.0</ele>
        <time>2021-11-06T17:49:52Z</time>
      </trkpt>
      <trkpt lat="38.2029730" lon="-1.4456740">
        <ele>625.8</ele>
        <time>2021-11-06T17:49:57Z</time>
      </trkpt>
      <trkpt lat="38.2029690" lon="-1.4456740">
        <ele>626.0</ele>
        <time>2021-11-06T17:49:58Z</time>
      </trkpt>
      <trkpt lat="38.2029610" lon="-1.4456830">
        <ele>627.4</ele>
        <time>2021-11-06T17:50:03Z</time>
      </trkpt>
      <trkpt lat="38.2029460" lon="-1.4456950">
        <ele>628.0</ele>
        <time>2021-11-06T17:50:09Z</time>
      </trkpt>
      <trkpt lat="38.2029480" lon="-1.4457040">
        <ele>628.4</ele>
        <time>2021-11-06T17:50:11Z</time>
      </trkpt>
      <trkpt lat="38.2029370" lon="-1.4457050">
        <ele>629.6</ele>
        <time>2021-11-06T17:50:13Z</time>
      </trkpt>
      <trkpt lat="38.2029320" lon="-1.4457090">
        <ele>630.0</ele>
        <time>2021-11-06T17:50:15Z</time>
      </trkpt>
      <trkpt lat="38.2029160" lon="-1.4457160">
        <ele>630.6</ele>
        <time>2021-11-06T17:50:20Z</time>
      </trkpt>
      <trkpt lat="38.2029120" lon="-1.4457140">
        <ele>631.2</ele>
        <time>2021-11-06T17:50:22Z</time>
      </trkpt>
      <trkpt lat="38.2028940" lon="-1.4457420">
        <ele>631.6</ele>
        <time>2021-11-06T17:50:26Z</time>
      </trkpt>
      <trkpt lat="38.2028930" lon="-1.4457560">
        <ele>632.6</ele>
        <time>2021-11-06T17:50:31Z</time>
      </trkpt>
      <trkpt lat="38.2028970" lon="-1.4457670">
        <ele>632.8</ele>
        <time>2021-11-06T17:50:32Z</time>
      </trkpt>
      <trkpt lat="38.2028710" lon="-1.4458010">
        <ele>633.8</ele>
        <time>2021-11-06T17:50:38Z</time>
      </trkpt>
      <trkpt lat="38.2028620" lon="-1.4458370">
        <ele>635.0</ele>
        <time>2021-11-06T17:50:42Z</time>
      </trkpt>
      <trkpt lat="38.2028730" lon="-1.4458560">
        <ele>636.0</ele>
        <time>2021-11-06T17:50:45Z</time>
      </trkpt>
      <trkpt lat="38.2028910" lon="-1.4458740">
        <ele>636.8</ele>
        <time>2021-11-06T17:50:48Z</time>
      </trkpt>
      <trkpt lat="38.2028970" lon="-1.4458810">
        <ele>637.0</ele>
        <time>2021-11-06T17:50:49Z</time>
      </trkpt>
      <trkpt lat="38.2028930" lon="-1.4458990">
        <ele>638.0</ele>
        <time>2021-11-06T17:50:52Z</time>
      </trkpt>
      <trkpt lat="38.2028920" lon="-1.4459060">
        <ele>638.2</ele>
        <time>2021-11-06T17:50:53Z</time>
      </trkpt>
      <trkpt lat="38.2028670" lon="-1.4459500">
        <ele>639.4</ele>
        <time>2021-11-06T17:50:59Z</time>
      </trkpt>
      <trkpt lat="38.2028590" lon="-1.4459620">
        <ele>640.2</ele>
        <time>2021-11-06T17:51:08Z</time>
      </trkpt>
      <trkpt lat="38.2028640" lon="-1.4459770">
        <ele>640.6</ele>
        <time>2021-11-06T17:51:10Z</time>
      </trkpt>
      <trkpt lat="38.2028670" lon="-1.4460110">
        <ele>641.4</ele>
        <time>2021-11-06T17:51:13Z</time>
      </trkpt>
      <trkpt lat="38.2028700" lon="-1.4460270">
        <ele>642.0</ele>
        <time>2021-11-06T17:51:15Z</time>
      </trkpt>
      <trkpt lat="38.2028620" lon="-1.4460300">
        <ele>642.4</ele>
        <time>2021-11-06T17:51:18Z</time>
      </trkpt>
      <trkpt lat="38.2028530" lon="-1.4460430">
        <ele>643.0</ele>
        <time>2021-11-06T17:51:21Z</time>
      </trkpt>
      <trkpt lat="38.2028430" lon="-1.4460650">
        <ele>644.0</ele>
        <time>2021-11-06T17:51:24Z</time>
      </trkpt>
      <trkpt lat="38.2028410" lon="-1.4460680">
        <ele>644.0</ele>
        <time>2021-11-06T17:51:25Z</time>
      </trkpt>
      <trkpt lat="38.2028260" lon="-1.4460970">
        <ele>645.0</ele>
        <time>2021-11-06T17:51:30Z</time>
      </trkpt>
      <trkpt lat="38.2028210" lon="-1.4461190">
        <ele>645.2</ele>
        <time>2021-11-06T17:51:32Z</time>
      </trkpt>
      <trkpt lat="38.2028200" lon="-1.4461530">
        <ele>646.0</ele>
        <time>2021-11-06T17:51:36Z</time>
      </trkpt>
      <trkpt lat="38.2028210" lon="-1.4461630">
        <ele>646.4</ele>
        <time>2021-11-06T17:51:37Z</time>
      </trkpt>
      <trkpt lat="38.2028280" lon="-1.4461770">
        <ele>647.0</ele>
        <time>2021-11-06T17:51:40Z</time>
      </trkpt>
      <trkpt lat="38.2028280" lon="-1.4461770">
        <ele>647.6</ele>
        <time>2021-11-06T17:51:42Z</time>
      </trkpt>
      <trkpt lat="38.2028120" lon="-1.4462000">
        <ele>648.2</ele>
        <time>2021-11-06T17:51:48Z</time>
      </trkpt>
      <trkpt lat="38.2028090" lon="-1.4462140">
        <ele>649.0</ele>
        <time>2021-11-06T17:51:51Z</time>
      </trkpt>
      <trkpt lat="38.2028090" lon="-1.4462200">
        <ele>649.6</ele>
        <time>2021-11-06T17:51:54Z</time>
      </trkpt>
      <trkpt lat="38.2027960" lon="-1.4462160">
        <ele>650.2</ele>
        <time>2021-11-06T17:51:56Z</time>
      </trkpt>
      <trkpt lat="38.2027940" lon="-1.4462680">
        <ele>651.0</ele>
        <time>2021-11-06T17:52:00Z</time>
      </trkpt>
      <trkpt lat="38.2028050" lon="-1.4462980">
        <ele>651.2</ele>
        <time>2021-11-06T17:52:03Z</time>
      </trkpt>
      <trkpt lat="38.2028030" lon="-1.4463130">
        <ele>651.4</ele>
        <time>2021-11-06T17:52:06Z</time>
      </trkpt>
      <trkpt lat="38.2028000" lon="-1.4463190">
        <ele>651.6</ele>
        <time>2021-11-06T17:52:07Z</time>
      </trkpt>
      <trkpt lat="38.2027810" lon="-1.4463210">
        <ele>652.4</ele>
        <time>2021-11-06T17:52:10Z</time>
      </trkpt>
      <trkpt lat="38.2027660" lon="-1.4463290">
        <ele>653.0</ele>
        <time>2021-11-06T17:52:12Z</time>
      </trkpt>
      <trkpt lat="38.2027620" lon="-1.4463390">
        <ele>653.4</ele>
        <time>2021-11-06T17:52:13Z</time>
      </trkpt>
      <trkpt lat="38.2027540" lon="-1.4463870">
        <ele>654.6</ele>
        <time>2021-11-06T17:52:18Z</time>
      </trkpt>
      <trkpt lat="38.2027300" lon="-1.4464320">
        <ele>655.6</ele>
        <time>2021-11-06T17:52:22Z</time>
      </trkpt>
      <trkpt lat="38.2027240" lon="-1.4464430">
        <ele>655.8</ele>
        <time>2021-11-06T17:52:23Z</time>
      </trkpt>
      <trkpt lat="38.2027190" lon="-1.4464510">
        <ele>656.2</ele>
        <time>2021-11-06T17:52:24Z</time>
      </trkpt>
      <trkpt lat="38.2027090" lon="-1.4464640">
        <ele>656.8</ele>
        <time>2021-11-06T17:52:27Z</time>
      </trkpt>
      <trkpt lat="38.2027050" lon="-1.4464720">
        <ele>657.0</ele>
        <time>2021-11-06T17:52:28Z</time>
      </trkpt>
      <trkpt lat="38.2027000" lon="-1.4464810">
        <ele>657.2</ele>
        <time>2021-11-06T17:52:29Z</time>
      </trkpt>
      <trkpt lat="38.2026940" lon="-1.4464920">
        <ele>657.4</ele>
        <time>2021-11-06T17:52:30Z</time>
      </trkpt>
      <trkpt lat="38.2026780" lon="-1.4465090">
        <ele>658.2</ele>
        <time>2021-11-06T17:52:34Z</time>
      </trkpt>
      <trkpt lat="38.2026770" lon="-1.4464790">
        <ele>659.4</ele>
        <time>2021-11-06T17:52:40Z</time>
      </trkpt>
      <trkpt lat="38.2026740" lon="-1.4465250">
        <ele>659.4</ele>
        <time>2021-11-06T17:52:47Z</time>
      </trkpt>
      <trkpt lat="38.2026520" lon="-1.4465570">
        <ele>660.6</ele>
        <time>2021-11-06T17:52:51Z</time>
      </trkpt>
      <trkpt lat="38.2026470" lon="-1.4465590">
        <ele>661.2</ele>
        <time>2021-11-06T17:52:53Z</time>
      </trkpt>
      <trkpt lat="38.2026390" lon="-1.4465790">
        <ele>661.6</ele>
        <time>2021-11-06T17:52:56Z</time>
      </trkpt>
      <trkpt lat="38.2026300" lon="-1.4465840">
        <ele>662.6</ele>
        <time>2021-11-06T17:52:58Z</time>
      </trkpt>
      <trkpt lat="38.2025870" lon="-1.4465990">
        <ele>663.8</ele>
        <time>2021-11-06T17:53:04Z</time>
      </trkpt>
      <trkpt lat="38.2025820" lon="-1.4466020">
        <ele>663.8</ele>
        <time>2021-11-06T17:53:05Z</time>
      </trkpt>
      <trkpt lat="38.2025680" lon="-1.4466380">
        <ele>665.2</ele>
        <time>2021-11-06T17:53:09Z</time>
      </trkpt>
      <trkpt lat="38.2025560" lon="-1.4466470">
        <ele>665.8</ele>
        <time>2021-11-06T17:53:11Z</time>
      </trkpt>
      <trkpt lat="38.2025470" lon="-1.4466690">
        <ele>666.2</ele>
        <time>2021-11-06T17:53:13Z</time>
      </trkpt>
      <trkpt lat="38.2025370" lon="-1.4466960">
        <ele>667.4</ele>
        <time>2021-11-06T17:53:17Z</time>
      </trkpt>
      <trkpt lat="38.2025330" lon="-1.4466970">
        <ele>667.6</ele>
        <time>2021-11-06T17:53:18Z</time>
      </trkpt>
      <trkpt lat="38.2025200" lon="-1.4467210">
        <ele>668.6</ele>
        <time>2021-11-06T17:53:22Z</time>
      </trkpt>
      <trkpt lat="38.2025000" lon="-1.4467690">
        <ele>669.0</ele>
        <time>2021-11-06T17:53:27Z</time>
      </trkpt>
      <trkpt lat="38.2024990" lon="-1.4467840">
        <ele>669.8</ele>
        <time>2021-11-06T17:53:29Z</time>
      </trkpt>
      <trkpt lat="38.2025050" lon="-1.4468230">
        <ele>670.8</ele>
        <time>2021-11-06T17:53:33Z</time>
      </trkpt>
      <trkpt lat="38.2025080" lon="-1.4468280">
        <ele>671.8</ele>
        <time>2021-11-06T17:53:36Z</time>
      </trkpt>
      <trkpt lat="38.2025280" lon="-1.4468390">
        <ele>672.8</ele>
        <time>2021-11-06T17:53:41Z</time>
      </trkpt>
      <trkpt lat="38.2025360" lon="-1.4468500">
        <ele>673.0</ele>
        <time>2021-11-06T17:53:44Z</time>
      </trkpt>
      <trkpt lat="38.2025030" lon="-1.4468770">
        <ele>673.6</ele>
        <time>2021-11-06T17:53:49Z</time>
      </trkpt>
      <trkpt lat="38.2024890" lon="-1.4469020">
        <ele>674.0</ele>
        <time>2021-11-06T17:53:51Z</time>
      </trkpt>
      <trkpt lat="38.2024910" lon="-1.4469250">
        <ele>675.2</ele>
        <time>2021-11-06T17:53:54Z</time>
      </trkpt>
      <trkpt lat="38.2024930" lon="-1.4469200">
        <ele>675.8</ele>
        <time>2021-11-06T17:53:56Z</time>
      </trkpt>
      <trkpt lat="38.2025010" lon="-1.4469280">
        <ele>676.4</ele>
        <time>2021-11-06T17:54:00Z</time>
      </trkpt>
      <trkpt lat="38.2024800" lon="-1.4469730">
        <ele>676.6</ele>
        <time>2021-11-06T17:54:03Z</time>
      </trkpt>
      <trkpt lat="38.2024680" lon="-1.4469910">
        <ele>677.4</ele>
        <time>2021-11-06T17:54:06Z</time>
      </trkpt>
      <trkpt lat="38.2024600" lon="-1.4470040">
        <ele>678.2</ele>
        <time>2021-11-06T17:54:09Z</time>
      </trkpt>
      <trkpt lat="38.2024520" lon="-1.4470230">
        <ele>678.6</ele>
        <time>2021-11-06T17:54:12Z</time>
      </trkpt>
      <trkpt lat="38.2024550" lon="-1.4470480">
        <ele>679.6</ele>
        <time>2021-11-06T17:54:15Z</time>
      </trkpt>
      <trkpt lat="38.2024390" lon="-1.4470820">
        <ele>680.8</ele>
        <time>2021-11-06T17:54:22Z</time>
      </trkpt>
      <trkpt lat="38.2024320" lon="-1.4471090">
        <ele>682.2</ele>
        <time>2021-11-06T17:54:25Z</time>
      </trkpt>
      <trkpt lat="38.2024350" lon="-1.4471250">
        <ele>682.6</ele>
        <time>2021-11-06T17:54:27Z</time>
      </trkpt>
      <trkpt lat="38.2024350" lon="-1.4471510">
        <ele>683.4</ele>
        <time>2021-11-06T17:54:30Z</time>
      </trkpt>
      <trkpt lat="38.2024360" lon="-1.4471850">
        <ele>684.2</ele>
        <time>2021-11-06T17:54:33Z</time>
      </trkpt>
      <trkpt lat="38.2024390" lon="-1.4471930">
        <ele>684.4</ele>
        <time>2021-11-06T17:54:34Z</time>
      </trkpt>
      <trkpt lat="38.2024500" lon="-1.4472260">
        <ele>685.2</ele>
        <time>2021-11-06T17:54:39Z</time>
      </trkpt>
      <trkpt lat="38.2024450" lon="-1.4472340">
        <ele>685.4</ele>
        <time>2021-11-06T17:54:40Z</time>
      </trkpt>
      <trkpt lat="38.2024340" lon="-1.4472430">
        <ele>686.6</ele>
        <time>2021-11-06T17:54:43Z</time>
      </trkpt>
      <trkpt lat="38.2024450" lon="-1.4472760">
        <ele>687.2</ele>
        <time>2021-11-06T17:54:48Z</time>
      </trkpt>
      <trkpt lat="38.2024240" lon="-1.4472840">
        <ele>687.2</ele>
        <time>2021-11-06T17:54:53Z</time>
      </trkpt>
      <trkpt lat="38.2024130" lon="-1.4473160">
        <ele>688.0</ele>
        <time>2021-11-06T17:54:57Z</time>
      </trkpt>
      <trkpt lat="38.2024030" lon="-1.4473400">
        <ele>688.8</ele>
        <time>2021-11-06T17:54:59Z</time>
      </trkpt>
      <trkpt lat="38.2023980" lon="-1.4473440">
        <ele>689.2</ele>
        <time>2021-11-06T17:55:00Z</time>
      </trkpt>
      <trkpt lat="38.2023770" lon="-1.4473720">
        <ele>689.8</ele>
        <time>2021-11-06T17:55:04Z</time>
      </trkpt>
      <trkpt lat="38.2023700" lon="-1.4474000">
        <ele>690.4</ele>
        <time>2021-11-06T17:55:07Z</time>
      </trkpt>
      <trkpt lat="38.2023680" lon="-1.4474090">
        <ele>690.8</ele>
        <time>2021-11-06T17:55:09Z</time>
      </trkpt>
      <trkpt lat="38.2023640" lon="-1.4474190">
        <ele>691.8</ele>
        <time>2021-11-06T17:55:12Z</time>
      </trkpt>
      <trkpt lat="38.2023510" lon="-1.4474150">
        <ele>692.2</ele>
        <time>2021-11-06T17:55:15Z</time>
      </trkpt>
      <trkpt lat="38.2023300" lon="-1.4474320">
        <ele>692.8</ele>
        <time>2021-11-06T17:55:17Z</time>
      </trkpt>
      <trkpt lat="38.2023180" lon="-1.4474580">
        <ele>693.6</ele>
        <time>2021-11-06T17:55:20Z</time>
      </trkpt>
      <trkpt lat="38.2023170" lon="-1.4474670">
        <ele>694.0</ele>
        <time>2021-11-06T17:55:21Z</time>
      </trkpt>
      <trkpt lat="38.2023000" lon="-1.4475000">
        <ele>695.0</ele>
        <time>2021-11-06T17:55:27Z</time>
      </trkpt>
      <trkpt lat="38.2022870" lon="-1.4475380">
        <ele>696.2</ele>
        <time>2021-11-06T17:55:31Z</time>
      </trkpt>
      <trkpt lat="38.2022770" lon="-1.4475590">
        <ele>697.2</ele>
        <time>2021-11-06T17:55:34Z</time>
      </trkpt>
      <trkpt lat="38.2022730" lon="-1.4475670">
        <ele>697.4</ele>
        <time>2021-11-06T17:55:35Z</time>
      </trkpt>
      <trkpt lat="38.2022600" lon="-1.4476120">
        <ele>698.2</ele>
        <time>2021-11-06T17:55:41Z</time>
      </trkpt>
      <trkpt lat="38.2022560" lon="-1.4476160">
        <ele>698.4</ele>
        <time>2021-11-06T17:55:42Z</time>
      </trkpt>
      <trkpt lat="38.2022320" lon="-1.4476430">
        <ele>699.0</ele>
        <time>2021-11-06T17:55:48Z</time>
      </trkpt>
      <trkpt lat="38.2022270" lon="-1.4476510">
        <ele>699.6</ele>
        <time>2021-11-06T17:55:50Z</time>
      </trkpt>
      <trkpt lat="38.2022230" lon="-1.4476640">
        <ele>700.2</ele>
        <time>2021-11-06T17:55:53Z</time>
      </trkpt>
      <trkpt lat="38.2021980" lon="-1.4477030">
        <ele>700.8</ele>
        <time>2021-11-06T17:55:58Z</time>
      </trkpt>
      <trkpt lat="38.2021890" lon="-1.4477080">
        <ele>701.4</ele>
        <time>2021-11-06T17:56:01Z</time>
      </trkpt>
      <trkpt lat="38.2021900" lon="-1.4477210">
        <ele>701.8</ele>
        <time>2021-11-06T17:56:04Z</time>
      </trkpt>
      <trkpt lat="38.2021780" lon="-1.4477400">
        <ele>702.6</ele>
        <time>2021-11-06T17:56:10Z</time>
      </trkpt>
      <trkpt lat="38.2021650" lon="-1.4477490">
        <ele>703.2</ele>
        <time>2021-11-06T17:56:12Z</time>
      </trkpt>
      <trkpt lat="38.2021390" lon="-1.4477910">
        <ele>704.0</ele>
        <time>2021-11-06T17:56:18Z</time>
      </trkpt>
      <trkpt lat="38.2021040" lon="-1.4478520">
        <ele>704.4</ele>
        <time>2021-11-06T17:56:23Z</time>
      </trkpt>
      <trkpt lat="38.2020980" lon="-1.4478660">
        <ele>704.6</ele>
        <time>2021-11-06T17:56:24Z</time>
      </trkpt>
      <trkpt lat="38.2020910" lon="-1.4478830">
        <ele>705.0</ele>
        <time>2021-11-06T17:56:26Z</time>
      </trkpt>
      <trkpt lat="38.2020850" lon="-1.4479000">
        <ele>705.4</ele>
        <time>2021-11-06T17:56:28Z</time>
      </trkpt>
      <trkpt lat="38.2020930" lon="-1.4479190">
        <ele>706.2</ele>
        <time>2021-11-06T17:56:32Z</time>
      </trkpt>
      <trkpt lat="38.2021020" lon="-1.4479310">
        <ele>706.6</ele>
        <time>2021-11-06T17:56:33Z</time>
      </trkpt>
      <trkpt lat="38.2021090" lon="-1.4479600">
        <ele>707.8</ele>
        <time>2021-11-06T17:56:36Z</time>
      </trkpt>
      <trkpt lat="38.2021020" lon="-1.4479760">
        <ele>708.0</ele>
        <time>2021-11-06T17:56:37Z</time>
      </trkpt>
      <trkpt lat="38.2020900" lon="-1.4480350">
        <ele>708.6</ele>
        <time>2021-11-06T17:56:44Z</time>
      </trkpt>
      <trkpt lat="38.2020910" lon="-1.4480440">
        <ele>708.8</ele>
        <time>2021-11-06T17:56:47Z</time>
      </trkpt>
      <trkpt lat="38.2020700" lon="-1.4480770">
        <ele>709.2</ele>
        <time>2021-11-06T17:56:52Z</time>
      </trkpt>
      <trkpt lat="38.2020620" lon="-1.4480980">
        <ele>710.0</ele>
        <time>2021-11-06T17:56:56Z</time>
      </trkpt>
      <trkpt lat="38.2020620" lon="-1.4481090">
        <ele>710.2</ele>
        <time>2021-11-06T17:56:58Z</time>
      </trkpt>
      <trkpt lat="38.2020520" lon="-1.4481560">
        <ele>711.0</ele>
        <time>2021-11-06T17:57:05Z</time>
      </trkpt>
      <trkpt lat="38.2020320" lon="-1.4481830">
        <ele>712.4</ele>
        <time>2021-11-06T17:57:10Z</time>
      </trkpt>
      <trkpt lat="38.2020220" lon="-1.4481890">
        <ele>712.2</ele>
        <time>2021-11-06T17:57:11Z</time>
      </trkpt>
      <trkpt lat="38.2019980" lon="-1.4481980">
        <ele>712.0</ele>
        <time>2021-11-06T17:57:14Z</time>
      </trkpt>
      <trkpt lat="38.2019810" lon="-1.4482100">
        <ele>711.8</ele>
        <time>2021-11-06T17:57:17Z</time>
      </trkpt>
      <trkpt lat="38.2019860" lon="-1.4482200">
        <ele>711.6</ele>
        <time>2021-11-06T17:57:21Z</time>
      </trkpt>
      <trkpt lat="38.2020150" lon="-1.4482560">
        <ele>712.2</ele>
        <time>2021-11-06T17:57:28Z</time>
      </trkpt>
      <trkpt lat="38.2020060" lon="-1.4482780">
        <ele>711.8</ele>
        <time>2021-11-06T17:57:32Z</time>
      </trkpt>
      <trkpt lat="38.2019880" lon="-1.4483010">
        <ele>711.2</ele>
        <time>2021-11-06T17:57:34Z</time>
      </trkpt>
      <trkpt lat="38.2019580" lon="-1.4483230">
        <ele>711.0</ele>
        <time>2021-11-06T17:57:37Z</time>
      </trkpt>
      <trkpt lat="38.2019530" lon="-1.4483230">
        <ele>711.0</ele>
        <time>2021-11-06T17:57:38Z</time>
      </trkpt>
      <trkpt lat="38.2019360" lon="-1.4483250">
        <ele>710.4</ele>
        <time>2021-11-06T17:57:42Z</time>
      </trkpt>
      <trkpt lat="38.2019220" lon="-1.4483420">
        <ele>710.2</ele>
        <time>2021-11-06T17:57:44Z</time>
      </trkpt>
      <trkpt lat="38.2019040" lon="-1.4483510">
        <ele>710.2</ele>
        <time>2021-11-06T17:57:46Z</time>
      </trkpt>
      <trkpt lat="38.2018860" lon="-1.4483390">
        <ele>711.0</ele>
        <time>2021-11-06T17:57:49Z</time>
      </trkpt>
      <trkpt lat="38.2018870" lon="-1.4483270">
        <ele>711.2</ele>
        <time>2021-11-06T17:57:51Z</time>
      </trkpt>
      <trkpt lat="38.2018900" lon="-1.4483190">
        <ele>711.2</ele>
        <time>2021-11-06T17:57:52Z</time>
      </trkpt>
      <trkpt lat="38.2018330" lon="-1.4483680">
        <ele>712.4</ele>
        <time>2021-11-06T17:58:01Z</time>
      </trkpt>
      <trkpt lat="38.2018220" lon="-1.4483860">
        <ele>712.6</ele>
        <time>2021-11-06T17:58:02Z</time>
      </trkpt>
      <trkpt lat="38.2018120" lon="-1.4484020">
        <ele>712.8</ele>
        <time>2021-11-06T17:58:03Z</time>
      </trkpt>
      <trkpt lat="38.2017930" lon="-1.4484290">
        <ele>713.4</ele>
        <time>2021-11-06T17:58:06Z</time>
      </trkpt>
      <trkpt lat="38.2017840" lon="-1.4484360">
        <ele>713.6</ele>
        <time>2021-11-06T17:58:07Z</time>
      </trkpt>
      <trkpt lat="38.2017620" lon="-1.4485090">
        <ele>714.4</ele>
        <time>2021-11-06T17:58:13Z</time>
      </trkpt>
      <trkpt lat="38.2017610" lon="-1.4485200">
        <ele>714.8</ele>
        <time>2021-11-06T17:58:14Z</time>
      </trkpt>
      <trkpt lat="38.2017510" lon="-1.4485670">
        <ele>715.6</ele>
        <time>2021-11-06T17:58:18Z</time>
      </trkpt>
      <trkpt lat="38.2017400" lon="-1.4485950">
        <ele>716.2</ele>
        <time>2021-11-06T17:58:20Z</time>
      </trkpt>
      <trkpt lat="38.2017080" lon="-1.4486770">
        <ele>716.6</ele>
        <time>2021-11-06T17:58:25Z</time>
      </trkpt>
      <trkpt lat="38.2017070" lon="-1.4486880">
        <ele>716.6</ele>
        <time>2021-11-06T17:58:26Z</time>
      </trkpt>
      <trkpt lat="38.2016990" lon="-1.4487540">
        <ele>717.2</ele>
        <time>2021-11-06T17:58:32Z</time>
      </trkpt>
      <trkpt lat="38.2016920" lon="-1.4487660">
        <ele>717.6</ele>
        <time>2021-11-06T17:58:33Z</time>
      </trkpt>
      <trkpt lat="38.2016860" lon="-1.4487710">
        <ele>717.6</ele>
        <time>2021-11-06T17:58:35Z</time>
      </trkpt>
      <trkpt lat="38.2016830" lon="-1.4487780">
        <ele>717.6</ele>
        <time>2021-11-06T17:58:38Z</time>
      </trkpt>
      <trkpt lat="38.2016890" lon="-1.4488610">
        <ele>717.4</ele>
        <time>2021-11-06T17:58:44Z</time>
      </trkpt>
      <trkpt lat="38.2016690" lon="-1.4489510">
        <ele>718.0</ele>
        <time>2021-11-06T17:58:50Z</time>
      </trkpt>
      <trkpt lat="38.2016660" lon="-1.4490240">
        <ele>718.8</ele>
        <time>2021-11-06T17:58:56Z</time>
      </trkpt>
      <trkpt lat="38.2016620" lon="-1.4490320">
        <ele>718.8</ele>
        <time>2021-11-06T17:58:57Z</time>
      </trkpt>
      <trkpt lat="38.2016300" lon="-1.4490970">
        <ele>719.6</ele>
        <time>2021-11-06T17:59:03Z</time>
      </trkpt>
      <trkpt lat="38.2016270" lon="-1.4490980">
        <ele>719.6</ele>
        <time>2021-11-06T17:59:04Z</time>
      </trkpt>
      <trkpt lat="38.2016310" lon="-1.4491020">
        <ele>719.6</ele>
        <time>2021-11-06T17:59:06Z</time>
      </trkpt>
      <trkpt lat="38.2016340" lon="-1.4491120">
        <ele>719.8</ele>
        <time>2021-11-06T17:59:08Z</time>
      </trkpt>
      <trkpt lat="38.2016330" lon="-1.4491180">
        <ele>719.8</ele>
        <time>2021-11-06T17:59:09Z</time>
      </trkpt>
      <trkpt lat="38.2016150" lon="-1.4491700">
        <ele>720.0</ele>
        <time>2021-11-06T17:59:15Z</time>
      </trkpt>
      <trkpt lat="38.2016100" lon="-1.4492730">
        <ele>720.8</ele>
        <time>2021-11-06T17:59:21Z</time>
      </trkpt>
      <trkpt lat="38.2016100" lon="-1.4492880">
        <ele>720.8</ele>
        <time>2021-11-06T17:59:22Z</time>
      </trkpt>
      <trkpt lat="38.2016080" lon="-1.4493580">
        <ele>721.8</ele>
        <time>2021-11-06T17:59:27Z</time>
      </trkpt>
      <trkpt lat="38.2016030" lon="-1.4493740">
        <ele>722.0</ele>
        <time>2021-11-06T17:59:28Z</time>
      </trkpt>
      <trkpt lat="38.2015880" lon="-1.4494300">
        <ele>723.0</ele>
        <time>2021-11-06T17:59:32Z</time>
      </trkpt>
      <trkpt lat="38.2015790" lon="-1.4494490">
        <ele>723.2</ele>
        <time>2021-11-06T17:59:34Z</time>
      </trkpt>
      <trkpt lat="38.2015780" lon="-1.4494720">
        <ele>723.8</ele>
        <time>2021-11-06T17:59:36Z</time>
      </trkpt>
      <trkpt lat="38.2015740" lon="-1.4495210">
        <ele>724.0</ele>
        <time>2021-11-06T17:59:39Z</time>
      </trkpt>
      <trkpt lat="38.2015750" lon="-1.4495420">
        <ele>724.2</ele>
        <time>2021-11-06T17:59:40Z</time>
      </trkpt>
      <trkpt lat="38.2015870" lon="-1.4496340">
        <ele>725.2</ele>
        <time>2021-11-06T17:59:46Z</time>
      </trkpt>
      <trkpt lat="38.2015870" lon="-1.4496430">
        <ele>725.2</ele>
        <time>2021-11-06T17:59:47Z</time>
      </trkpt>
      <trkpt lat="38.2015830" lon="-1.4496640">
        <ele>725.4</ele>
        <time>2021-11-06T17:59:49Z</time>
      </trkpt>
      <trkpt lat="38.2015840" lon="-1.4496840">
        <ele>726.2</ele>
        <time>2021-11-06T17:59:51Z</time>
      </trkpt>
      <trkpt lat="38.2015660" lon="-1.4497140">
        <ele>727.0</ele>
        <time>2021-11-06T17:59:54Z</time>
      </trkpt>
      <trkpt lat="38.2015650" lon="-1.4497240">
        <ele>727.0</ele>
        <time>2021-11-06T17:59:55Z</time>
      </trkpt>
      <trkpt lat="38.2015610" lon="-1.4497330">
        <ele>727.2</ele>
        <time>2021-11-06T17:59:56Z</time>
      </trkpt>
      <trkpt lat="38.2015410" lon="-1.4497530">
        <ele>727.2</ele>
        <time>2021-11-06T17:59:58Z</time>
      </trkpt>
      <trkpt lat="38.2015290" lon="-1.4497650">
        <ele>727.0</ele>
        <time>2021-11-06T17:59:59Z</time>
      </trkpt>
      <trkpt lat="38.2014750" lon="-1.4498050">
        <ele>726.0</ele>
        <time>2021-11-06T18:00:03Z</time>
      </trkpt>
      <trkpt lat="38.2014670" lon="-1.4498160">
        <ele>725.8</ele>
        <time>2021-11-06T18:00:04Z</time>
      </trkpt>
      <trkpt lat="38.2014080" lon="-1.4498420">
        <ele>725.6</ele>
        <time>2021-11-06T18:00:11Z</time>
      </trkpt>
      <trkpt lat="38.2013620" lon="-1.4498500">
        <ele>726.8</ele>
        <time>2021-11-06T18:00:16Z</time>
      </trkpt>
      <trkpt lat="38.2013570" lon="-1.4498560">
        <ele>727.2</ele>
        <time>2021-11-06T18:00:17Z</time>
      </trkpt>
      <trkpt lat="38.2013400" lon="-1.4498820">
        <ele>728.4</ele>
        <time>2021-11-06T18:00:21Z</time>
      </trkpt>
      <trkpt lat="38.2013310" lon="-1.4498900">
        <ele>729.2</ele>
        <time>2021-11-06T18:00:23Z</time>
      </trkpt>
      <trkpt lat="38.2013260" lon="-1.4499210">
        <ele>729.4</ele>
        <time>2021-11-06T18:00:26Z</time>
      </trkpt>
      <trkpt lat="38.2013160" lon="-1.4499280">
        <ele>729.4</ele>
        <time>2021-11-06T18:00:28Z</time>
      </trkpt>
      <trkpt lat="38.2012920" lon="-1.4499320">
        <ele>730.4</ele>
        <time>2021-11-06T18:00:31Z</time>
      </trkpt>
      <trkpt lat="38.2012780" lon="-1.4499450">
        <ele>731.6</ele>
        <time>2021-11-06T18:00:35Z</time>
      </trkpt>
      <trkpt lat="38.2012640" lon="-1.4499650">
        <ele>732.6</ele>
        <time>2021-11-06T18:00:39Z</time>
      </trkpt>
      <trkpt lat="38.2012650" lon="-1.4499670">
        <ele>732.6</ele>
        <time>2021-11-06T18:00:40Z</time>
      </trkpt>
      <trkpt lat="38.2012530" lon="-1.4499980">
        <ele>732.8</ele>
        <time>2021-11-06T18:00:47Z</time>
      </trkpt>
      <trkpt lat="38.2012410" lon="-1.4500220">
        <ele>733.4</ele>
        <time>2021-11-06T18:00:52Z</time>
      </trkpt>
      <trkpt lat="38.2012410" lon="-1.4500290">
        <ele>733.6</ele>
        <time>2021-11-06T18:00:53Z</time>
      </trkpt>
      <trkpt lat="38.2012310" lon="-1.4500480">
        <ele>734.4</ele>
        <time>2021-11-06T18:00:58Z</time>
      </trkpt>
      <trkpt lat="38.2012180" lon="-1.4500370">
        <ele>734.8</ele>
        <time>2021-11-06T18:01:01Z</time>
      </trkpt>
      <trkpt lat="38.2012160" lon="-1.4500300">
        <ele>734.8</ele>
        <time>2021-11-06T18:01:03Z</time>
      </trkpt>
      <trkpt lat="38.2011770" lon="-1.4500340">
        <ele>736.0</ele>
        <time>2021-11-06T18:01:11Z</time>
      </trkpt>
      <trkpt lat="38.2011450" lon="-1.4500850">
        <ele>737.2</ele>
        <time>2021-11-06T18:01:17Z</time>
      </trkpt>
      <trkpt lat="38.2011410" lon="-1.4500910">
        <ele>737.6</ele>
        <time>2021-11-06T18:01:18Z</time>
      </trkpt>
      <trkpt lat="38.2011210" lon="-1.4501190">
        <ele>738.4</ele>
        <time>2021-11-06T18:01:22Z</time>
      </trkpt>
      <trkpt lat="38.2011160" lon="-1.4501280">
        <ele>738.6</ele>
        <time>2021-11-06T18:01:23Z</time>
      </trkpt>
      <trkpt lat="38.2011050" lon="-1.4501400">
        <ele>739.2</ele>
        <time>2021-11-06T18:01:25Z</time>
      </trkpt>
      <trkpt lat="38.2011000" lon="-1.4501420">
        <ele>739.4</ele>
        <time>2021-11-06T18:01:26Z</time>
      </trkpt>
      <trkpt lat="38.2010940" lon="-1.4501370">
        <ele>739.6</ele>
        <time>2021-11-06T18:01:27Z</time>
      </trkpt>
      <trkpt lat="38.2010810" lon="-1.4501290">
        <ele>740.2</ele>
        <time>2021-11-06T18:01:29Z</time>
      </trkpt>
      <trkpt lat="38.2010740" lon="-1.4501300">
        <ele>740.8</ele>
        <time>2021-11-06T18:01:30Z</time>
      </trkpt>
      <trkpt lat="38.2010690" lon="-1.4501430">
        <ele>741.0</ele>
        <time>2021-11-06T18:01:31Z</time>
      </trkpt>
      <trkpt lat="38.2010630" lon="-1.4501920">
        <ele>741.6</ele>
        <time>2021-11-06T18:01:35Z</time>
      </trkpt>
      <trkpt lat="38.2010650" lon="-1.4501970">
        <ele>741.8</ele>
        <time>2021-11-06T18:01:37Z</time>
      </trkpt>
      <trkpt lat="38.2010450" lon="-1.4502060">
        <ele>742.2</ele>
        <time>2021-11-06T18:01:42Z</time>
      </trkpt>
      <trkpt lat="38.2010380" lon="-1.4502200">
        <ele>743.0</ele>
        <time>2021-11-06T18:01:45Z</time>
      </trkpt>
      <trkpt lat="38.2010300" lon="-1.4502300">
        <ele>744.2</ele>
        <time>2021-11-06T18:01:49Z</time>
      </trkpt>
      <trkpt lat="38.2010120" lon="-1.4502670">
        <ele>745.0</ele>
        <time>2021-11-06T18:01:54Z</time>
      </trkpt>
      <trkpt lat="38.2010050" lon="-1.4502680">
        <ele>745.4</ele>
        <time>2021-11-06T18:01:55Z</time>
      </trkpt>
      <trkpt lat="38.2009900" lon="-1.4502760">
        <ele>746.4</ele>
        <time>2021-11-06T18:01:57Z</time>
      </trkpt>
      <trkpt lat="38.2009850" lon="-1.4502900">
        <ele>746.6</ele>
        <time>2021-11-06T18:01:58Z</time>
      </trkpt>
      <trkpt lat="38.2009680" lon="-1.4503360">
        <ele>747.4</ele>
        <time>2021-11-06T18:02:02Z</time>
      </trkpt>
      <trkpt lat="38.2009600" lon="-1.4503540">
        <ele>747.8</ele>
        <time>2021-11-06T18:02:04Z</time>
      </trkpt>
      <trkpt lat="38.2009540" lon="-1.4503660">
        <ele>748.8</ele>
        <time>2021-11-06T18:02:06Z</time>
      </trkpt>
      <trkpt lat="38.2009540" lon="-1.4503710">
        <ele>749.0</ele>
        <time>2021-11-06T18:02:07Z</time>
      </trkpt>
      <trkpt lat="38.2009580" lon="-1.4503890">
        <ele>749.4</ele>
        <time>2021-11-06T18:02:11Z</time>
      </trkpt>
      <trkpt lat="38.2009590" lon="-1.4503890">
        <ele>749.8</ele>
        <time>2021-11-06T18:02:12Z</time>
      </trkpt>
      <trkpt lat="38.2009500" lon="-1.4503910">
        <ele>750.8</ele>
        <time>2021-11-06T18:02:15Z</time>
      </trkpt>
      <trkpt lat="38.2009430" lon="-1.4503950">
        <ele>751.0</ele>
        <time>2021-11-06T18:02:16Z</time>
      </trkpt>
      <trkpt lat="38.2009300" lon="-1.4504220">
        <ele>751.0</ele>
        <time>2021-11-06T18:02:20Z</time>
      </trkpt>
      <trkpt lat="38.2009320" lon="-1.4504420">
        <ele>752.0</ele>
        <time>2021-11-06T18:02:23Z</time>
      </trkpt>
      <trkpt lat="38.2009150" lon="-1.4504560">
        <ele>752.6</ele>
        <time>2021-11-06T18:02:26Z</time>
      </trkpt>
      <trkpt lat="38.2009030" lon="-1.4504640">
        <ele>753.2</ele>
        <time>2021-11-06T18:02:28Z</time>
      </trkpt>
      <trkpt lat="38.2008820" lon="-1.4504870">
        <ele>754.4</ele>
        <time>2021-11-06T18:02:32Z</time>
      </trkpt>
      <trkpt lat="38.2008690" lon="-1.4504860">
        <ele>755.4</ele>
        <time>2021-11-06T18:02:36Z</time>
      </trkpt>
      <trkpt lat="38.2008590" lon="-1.4504710">
        <ele>756.4</ele>
        <time>2021-11-06T18:02:39Z</time>
      </trkpt>
      <trkpt lat="38.2008400" lon="-1.4504720">
        <ele>757.4</ele>
        <time>2021-11-06T18:02:45Z</time>
      </trkpt>
      <trkpt lat="38.2008240" lon="-1.4505280">
        <ele>758.6</ele>
        <time>2021-11-06T18:02:50Z</time>
      </trkpt>
      <trkpt lat="38.2008270" lon="-1.4505380">
        <ele>758.8</ele>
        <time>2021-11-06T18:02:51Z</time>
      </trkpt>
      <trkpt lat="38.2008270" lon="-1.4505740">
        <ele>759.6</ele>
        <time>2021-11-06T18:02:56Z</time>
      </trkpt>
      <trkpt lat="38.2008300" lon="-1.4505740">
        <ele>760.0</ele>
        <time>2021-11-06T18:03:00Z</time>
      </trkpt>
      <trkpt lat="38.2008100" lon="-1.4506010">
        <ele>760.4</ele>
        <time>2021-11-06T18:03:07Z</time>
      </trkpt>
      <trkpt lat="38.2007950" lon="-1.4506100">
        <ele>760.8</ele>
        <time>2021-11-06T18:03:10Z</time>
      </trkpt>
      <trkpt lat="38.2007590" lon="-1.4506250">
        <ele>762.0</ele>
        <time>2021-11-06T18:03:16Z</time>
      </trkpt>
      <trkpt lat="38.2007530" lon="-1.4506320">
        <ele>762.2</ele>
        <time>2021-11-06T18:03:17Z</time>
      </trkpt>
      <trkpt lat="38.2007280" lon="-1.4506300">
        <ele>763.2</ele>
        <time>2021-11-06T18:03:21Z</time>
      </trkpt>
      <trkpt lat="38.2007210" lon="-1.4506360">
        <ele>763.6</ele>
        <time>2021-11-06T18:03:23Z</time>
      </trkpt>
      <trkpt lat="38.2007140" lon="-1.4506380">
        <ele>764.2</ele>
        <time>2021-11-06T18:03:25Z</time>
      </trkpt>
      <trkpt lat="38.2007110" lon="-1.4506390">
        <ele>765.0</ele>
        <time>2021-11-06T18:03:31Z</time>
      </trkpt>
      <trkpt lat="38.2007010" lon="-1.4506510">
        <ele>765.2</ele>
        <time>2021-11-06T18:03:34Z</time>
      </trkpt>
      <trkpt lat="38.2006910" lon="-1.4506910">
        <ele>766.4</ele>
        <time>2021-11-06T18:03:39Z</time>
      </trkpt>
      <trkpt lat="38.2006730" lon="-1.4507070">
        <ele>767.4</ele>
        <time>2021-11-06T18:03:43Z</time>
      </trkpt>
      <trkpt lat="38.2006620" lon="-1.4507230">
        <ele>768.0</ele>
        <time>2021-11-06T18:03:45Z</time>
      </trkpt>
      <trkpt lat="38.2006490" lon="-1.4507440">
        <ele>768.6</ele>
        <time>2021-11-06T18:03:49Z</time>
      </trkpt>
      <trkpt lat="38.2006340" lon="-1.4507410">
        <ele>769.8</ele>
        <time>2021-11-06T18:03:53Z</time>
      </trkpt>
      <trkpt lat="38.2006130" lon="-1.4507680">
        <ele>770.8</ele>
        <time>2021-11-06T18:03:56Z</time>
      </trkpt>
      <trkpt lat="38.2006060" lon="-1.4507720">
        <ele>770.8</ele>
        <time>2021-11-06T18:03:57Z</time>
      </trkpt>
      <trkpt lat="38.2005680" lon="-1.4507370">
        <ele>772.2</ele>
        <time>2021-11-06T18:04:03Z</time>
      </trkpt>
      <trkpt lat="38.2005370" lon="-1.4507030">
        <ele>773.8</ele>
        <time>2021-11-06T18:04:09Z</time>
      </trkpt>
      <trkpt lat="38.2005060" lon="-1.4506920">
        <ele>774.8</ele>
        <time>2021-11-06T18:04:13Z</time>
      </trkpt>
      <trkpt lat="38.2004990" lon="-1.4506920">
        <ele>774.8</ele>
        <time>2021-11-06T18:04:15Z</time>
      </trkpt>
      <trkpt lat="38.2004720" lon="-1.4506940">
        <ele>775.2</ele>
        <time>2021-11-06T18:04:23Z</time>
      </trkpt>
      <trkpt lat="38.2004600" lon="-1.4507040">
        <ele>776.0</ele>
        <time>2021-11-06T18:04:25Z</time>
      </trkpt>
      <trkpt lat="38.2004650" lon="-1.4507070">
        <ele>777.2</ele>
        <time>2021-11-06T18:04:29Z</time>
      </trkpt>
      <trkpt lat="38.2004670" lon="-1.4507130">
        <ele>777.2</ele>
        <time>2021-11-06T18:04:30Z</time>
      </trkpt>
      <trkpt lat="38.2004380" lon="-1.4507510">
        <ele>776.8</ele>
        <time>2021-11-06T18:04:38Z</time>
      </trkpt>
      <trkpt lat="38.2003980" lon="-1.4507700">
        <ele>778.2</ele>
        <time>2021-11-06T18:04:43Z</time>
      </trkpt>
      <trkpt lat="38.2003840" lon="-1.4507770">
        <ele>779.0</ele>
        <time>2021-11-06T18:04:45Z</time>
      </trkpt>
      <trkpt lat="38.2003760" lon="-1.4507860">
        <ele>779.4</ele>
        <time>2021-11-06T18:04:46Z</time>
      </trkpt>
      <trkpt lat="38.2003500" lon="-1.4508170">
        <ele>780.2</ele>
        <time>2021-11-06T18:04:51Z</time>
      </trkpt>
      <trkpt lat="38.2003460" lon="-1.4508210">
        <ele>780.6</ele>
        <time>2021-11-06T18:04:52Z</time>
      </trkpt>
      <trkpt lat="38.2003090" lon="-1.4508430">
        <ele>781.8</ele>
        <time>2021-11-06T18:04:56Z</time>
      </trkpt>
      <trkpt lat="38.2003010" lon="-1.4508550">
        <ele>782.2</ele>
        <time>2021-11-06T18:04:57Z</time>
      </trkpt>
      <trkpt lat="38.2002820" lon="-1.4508720">
        <ele>783.0</ele>
        <time>2021-11-06T18:05:00Z</time>
      </trkpt>
      <trkpt lat="38.2002700" lon="-1.4508910">
        <ele>783.4</ele>
        <time>2021-11-06T18:05:04Z</time>
      </trkpt>
      <trkpt lat="38.2002610" lon="-1.4509170">
        <ele>784.0</ele>
        <time>2021-11-06T18:05:07Z</time>
      </trkpt>
      <trkpt lat="38.2002620" lon="-1.4509410">
        <ele>785.0</ele>
        <time>2021-11-06T18:05:10Z</time>
      </trkpt>
      <trkpt lat="38.2002600" lon="-1.4509720">
        <ele>785.8</ele>
        <time>2021-11-06T18:05:15Z</time>
      </trkpt>
      <trkpt lat="38.2002550" lon="-1.4509750">
        <ele>786.0</ele>
        <time>2021-11-06T18:05:17Z</time>
      </trkpt>
      <trkpt lat="38.2002480" lon="-1.4509950">
        <ele>787.4</ele>
        <time>2021-11-06T18:05:20Z</time>
      </trkpt>
      <trkpt lat="38.2002440" lon="-1.4510020">
        <ele>787.6</ele>
        <time>2021-11-06T18:05:21Z</time>
      </trkpt>
      <trkpt lat="38.2002270" lon="-1.4510270">
        <ele>788.6</ele>
        <time>2021-11-06T18:05:25Z</time>
      </trkpt>
      <trkpt lat="38.2002200" lon="-1.4510430">
        <ele>789.0</ele>
        <time>2021-11-06T18:05:27Z</time>
      </trkpt>
      <trkpt lat="38.2002140" lon="-1.4510670">
        <ele>789.6</ele>
        <time>2021-11-06T18:05:29Z</time>
      </trkpt>
      <trkpt lat="38.2002130" lon="-1.4511090">
        <ele>790.6</ele>
        <time>2021-11-06T18:05:33Z</time>
      </trkpt>
      <trkpt lat="38.2002120" lon="-1.4511110">
        <ele>790.6</ele>
        <time>2021-11-06T18:05:34Z</time>
      </trkpt>
      <trkpt lat="38.2002150" lon="-1.4511610">
        <ele>791.6</ele>
        <time>2021-11-06T18:05:40Z</time>
      </trkpt>
      <trkpt lat="38.2002100" lon="-1.4511700">
        <ele>792.0</ele>
        <time>2021-11-06T18:05:41Z</time>
      </trkpt>
      <trkpt lat="38.2001730" lon="-1.4512000">
        <ele>793.0</ele>
        <time>2021-11-06T18:05:45Z</time>
      </trkpt>
      <trkpt lat="38.2001480" lon="-1.4512400">
        <ele>793.6</ele>
        <time>2021-11-06T18:05:51Z</time>
      </trkpt>
      <trkpt lat="38.2001450" lon="-1.4512480">
        <ele>794.0</ele>
        <time>2021-11-06T18:05:53Z</time>
      </trkpt>
      <trkpt lat="38.2001300" lon="-1.4512800">
        <ele>794.8</ele>
        <time>2021-11-06T18:05:57Z</time>
      </trkpt>
      <trkpt lat="38.2001310" lon="-1.4513040">
        <ele>795.2</ele>
        <time>2021-11-06T18:05:59Z</time>
      </trkpt>
      <trkpt lat="38.2001520" lon="-1.4513400">
        <ele>795.8</ele>
        <time>2021-11-06T18:06:03Z</time>
      </trkpt>
      <trkpt lat="38.2001530" lon="-1.4513680">
        <ele>796.2</ele>
        <time>2021-11-06T18:06:07Z</time>
      </trkpt>
      <trkpt lat="38.2001500" lon="-1.4513780">
        <ele>796.6</ele>
        <time>2021-11-06T18:06:09Z</time>
      </trkpt>
      <trkpt lat="38.2001490" lon="-1.4513960">
        <ele>797.2</ele>
        <time>2021-11-06T18:06:12Z</time>
      </trkpt>
      <trkpt lat="38.2001440" lon="-1.4514240">
        <ele>798.0</ele>
        <time>2021-11-06T18:06:17Z</time>
      </trkpt>
      <trkpt lat="38.2001330" lon="-1.4514390">
        <ele>798.4</ele>
        <time>2021-11-06T18:06:20Z</time>
      </trkpt>
      <trkpt lat="38.2001090" lon="-1.4514500">
        <ele>799.6</ele>
        <time>2021-11-06T18:06:23Z</time>
      </trkpt>
      <trkpt lat="38.2001050" lon="-1.4514520">
        <ele>799.6</ele>
        <time>2021-11-06T18:06:24Z</time>
      </trkpt>
      <trkpt lat="38.2000880" lon="-1.4514580">
        <ele>800.6</ele>
        <time>2021-11-06T18:06:28Z</time>
      </trkpt>
      <trkpt lat="38.2000790" lon="-1.4514670">
        <ele>800.8</ele>
        <time>2021-11-06T18:06:30Z</time>
      </trkpt>
      <trkpt lat="38.2000630" lon="-1.4514810">
        <ele>801.6</ele>
        <time>2021-11-06T18:06:34Z</time>
      </trkpt>
      <trkpt lat="38.2000550" lon="-1.4514850">
        <ele>802.2</ele>
        <time>2021-11-06T18:06:36Z</time>
      </trkpt>
      <trkpt lat="38.2000370" lon="-1.4514960">
        <ele>802.8</ele>
        <time>2021-11-06T18:06:39Z</time>
      </trkpt>
      <trkpt lat="38.2000270" lon="-1.4514900">
        <ele>803.8</ele>
        <time>2021-11-06T18:06:42Z</time>
      </trkpt>
      <trkpt lat="38.2000250" lon="-1.4514940">
        <ele>804.0</ele>
        <time>2021-11-06T18:06:43Z</time>
      </trkpt>
      <trkpt lat="38.2000250" lon="-1.4515340">
        <ele>804.4</ele>
        <time>2021-11-06T18:06:48Z</time>
      </trkpt>
      <trkpt lat="38.2000130" lon="-1.4515640">
        <ele>805.2</ele>
        <time>2021-11-06T18:06:52Z</time>
      </trkpt>
      <trkpt lat="38.1999950" lon="-1.4515800">
        <ele>806.2</ele>
        <time>2021-11-06T18:06:55Z</time>
      </trkpt>
      <trkpt lat="38.1999820" lon="-1.4516120">
        <ele>807.2</ele>
        <time>2021-11-06T18:07:01Z</time>
      </trkpt>
      <trkpt lat="38.1999750" lon="-1.4516290">
        <ele>807.2</ele>
        <time>2021-11-06T18:07:02Z</time>
      </trkpt>
      <trkpt lat="38.1999600" lon="-1.4516710">
        <ele>807.4</ele>
        <time>2021-11-06T18:07:09Z</time>
      </trkpt>
      <trkpt lat="38.1999290" lon="-1.4516710">
        <ele>808.2</ele>
        <time>2021-11-06T18:07:17Z</time>
      </trkpt>
      <trkpt lat="38.1999190" lon="-1.4516680">
        <ele>808.4</ele>
        <time>2021-11-06T18:07:19Z</time>
      </trkpt>
      <trkpt lat="38.1998690" lon="-1.4516940">
        <ele>809.2</ele>
        <time>2021-11-06T18:07:26Z</time>
      </trkpt>
      <trkpt lat="38.1998650" lon="-1.4516940">
        <ele>809.2</ele>
        <time>2021-11-06T18:07:27Z</time>
      </trkpt>
      <trkpt lat="38.1998520" lon="-1.4517030">
        <ele>810.4</ele>
        <time>2021-11-06T18:07:31Z</time>
      </trkpt>
      <trkpt lat="38.1998450" lon="-1.4517070">
        <ele>810.8</ele>
        <time>2021-11-06T18:07:33Z</time>
      </trkpt>
      <trkpt lat="38.1998410" lon="-1.4517280">
        <ele>811.6</ele>
        <time>2021-11-06T18:07:35Z</time>
      </trkpt>
      <trkpt lat="38.1998410" lon="-1.4517740">
        <ele>811.8</ele>
        <time>2021-11-06T18:07:39Z</time>
      </trkpt>
      <trkpt lat="38.1998470" lon="-1.4518270">
        <ele>811.8</ele>
        <time>2021-11-06T18:07:46Z</time>
      </trkpt>
      <trkpt lat="38.1998230" lon="-1.4518460">
        <ele>812.6</ele>
        <time>2021-11-06T18:07:55Z</time>
      </trkpt>
      <trkpt lat="38.1997820" lon="-1.4518910">
        <ele>813.4</ele>
        <time>2021-11-06T18:08:01Z</time>
      </trkpt>
      <trkpt lat="38.1997760" lon="-1.4518950">
        <ele>813.8</ele>
        <time>2021-11-06T18:08:02Z</time>
      </trkpt>
      <trkpt lat="38.1997640" lon="-1.4519100">
        <ele>814.8</ele>
        <time>2021-11-06T18:08:08Z</time>
      </trkpt>
      <trkpt lat="38.1997640" lon="-1.4519180">
        <ele>815.8</ele>
        <time>2021-11-06T18:08:14Z</time>
      </trkpt>
      <trkpt lat="38.1997690" lon="-1.4519320">
        <ele>816.0</ele>
        <time>2021-11-06T18:08:16Z</time>
      </trkpt>
      <trkpt lat="38.1997620" lon="-1.4519520">
        <ele>817.0</ele>
        <time>2021-11-06T18:08:19Z</time>
      </trkpt>
      <trkpt lat="38.1997620" lon="-1.4519550">
        <ele>817.6</ele>
        <time>2021-11-06T18:08:22Z</time>
      </trkpt>
      <trkpt lat="38.1997590" lon="-1.4519730">
        <ele>818.2</ele>
        <time>2021-11-06T18:08:29Z</time>
      </trkpt>
      <trkpt lat="38.1997570" lon="-1.4519740">
        <ele>818.2</ele>
        <time>2021-11-06T18:08:30Z</time>
      </trkpt>
      <trkpt lat="38.1997540" lon="-1.4519990">
        <ele>818.6</ele>
        <time>2021-11-06T18:08:38Z</time>
      </trkpt>
      <trkpt lat="38.1997510" lon="-1.4520020">
        <ele>819.4</ele>
        <time>2021-11-06T18:08:40Z</time>
      </trkpt>
      <trkpt lat="38.1997450" lon="-1.4520000">
        <ele>820.2</ele>
        <time>2021-11-06T18:08:44Z</time>
      </trkpt>
      <trkpt lat="38.1997420" lon="-1.4520020">
        <ele>820.8</ele>
        <time>2021-11-06T18:08:45Z</time>
      </trkpt>
      <trkpt lat="38.1997170" lon="-1.4520160">
        <ele>821.8</ele>
        <time>2021-11-06T18:08:48Z</time>
      </trkpt>
      <trkpt lat="38.1996920" lon="-1.4520330">
        <ele>822.8</ele>
        <time>2021-11-06T18:08:51Z</time>
      </trkpt>
      <trkpt lat="38.1996790" lon="-1.4520350">
        <ele>823.2</ele>
        <time>2021-11-06T18:08:59Z</time>
      </trkpt>
      <trkpt lat="38.1996810" lon="-1.4520280">
        <ele>824.0</ele>
        <time>2021-11-06T18:09:03Z</time>
      </trkpt>
      <trkpt lat="38.1996900" lon="-1.4520440">
        <ele>824.6</ele>
        <time>2021-11-06T18:09:07Z</time>
      </trkpt>
      <trkpt lat="38.1996910" lon="-1.4520290">
        <ele>825.0</ele>
        <time>2021-11-06T18:09:13Z</time>
      </trkpt>
      <trkpt lat="38.1996940" lon="-1.4520020">
        <ele>826.2</ele>
        <time>2021-11-06T18:09:19Z</time>
      </trkpt>
      <trkpt lat="38.1996850" lon="-1.4520020">
        <ele>827.4</ele>
        <time>2021-11-06T18:09:22Z</time>
      </trkpt>
      <trkpt lat="38.1996710" lon="-1.4519990">
        <ele>827.6</ele>
        <time>2021-11-06T18:09:24Z</time>
      </trkpt>
      <trkpt lat="38.1996560" lon="-1.4520100">
        <ele>828.6</ele>
        <time>2021-11-06T18:09:31Z</time>
      </trkpt>
      <trkpt lat="38.1996430" lon="-1.4520420">
        <ele>829.6</ele>
        <time>2021-11-06T18:09:35Z</time>
      </trkpt>
      <trkpt lat="38.1996300" lon="-1.4520480">
        <ele>830.0</ele>
        <time>2021-11-06T18:09:37Z</time>
      </trkpt>
      <trkpt lat="38.1996120" lon="-1.4520650">
        <ele>830.8</ele>
        <time>2021-11-06T18:09:40Z</time>
      </trkpt>
      <trkpt lat="38.1996120" lon="-1.4520740">
        <ele>831.4</ele>
        <time>2021-11-06T18:09:43Z</time>
      </trkpt>
      <trkpt lat="38.1996040" lon="-1.4520710">
        <ele>832.2</ele>
        <time>2021-11-06T18:09:45Z</time>
      </trkpt>
      <trkpt lat="38.1995700" lon="-1.4520760">
        <ele>833.6</ele>
        <time>2021-11-06T18:09:50Z</time>
      </trkpt>
      <trkpt lat="38.1995670" lon="-1.4520580">
        <ele>834.8</ele>
        <time>2021-11-06T18:09:56Z</time>
      </trkpt>
      <trkpt lat="38.1995690" lon="-1.4520720">
        <ele>835.0</ele>
        <time>2021-11-06T18:09:58Z</time>
      </trkpt>
      <trkpt lat="38.1995680" lon="-1.4520900">
        <ele>835.8</ele>
        <time>2021-11-06T18:10:02Z</time>
      </trkpt>
      <trkpt lat="38.1995850" lon="-1.4521170">
        <ele>836.4</ele>
        <time>2021-11-06T18:10:06Z</time>
      </trkpt>
      <trkpt lat="38.1995840" lon="-1.4521190">
        <ele>837.0</ele>
        <time>2021-11-06T18:10:07Z</time>
      </trkpt>
      <trkpt lat="38.1995610" lon="-1.4520880">
        <ele>838.0</ele>
        <time>2021-11-06T18:10:12Z</time>
      </trkpt>
      <trkpt lat="38.1995570" lon="-1.4520830">
        <ele>838.2</ele>
        <time>2021-11-06T18:10:13Z</time>
      </trkpt>
      <trkpt lat="38.1995550" lon="-1.4520420">
        <ele>839.2</ele>
        <time>2021-11-06T18:10:19Z</time>
      </trkpt>
      <trkpt lat="38.1995300" lon="-1.4520270">
        <ele>840.2</ele>
        <time>2021-11-06T18:10:25Z</time>
      </trkpt>
      <trkpt lat="38.1995220" lon="-1.4520250">
        <ele>840.6</ele>
        <time>2021-11-06T18:10:26Z</time>
      </trkpt>
      <trkpt lat="38.1994740" lon="-1.4520480">
        <ele>841.6</ele>
        <time>2021-11-06T18:10:33Z</time>
      </trkpt>
      <trkpt lat="38.1994660" lon="-1.4520530">
        <ele>841.8</ele>
        <time>2021-11-06T18:10:34Z</time>
      </trkpt>
      <trkpt lat="38.1994540" lon="-1.4520610">
        <ele>842.6</ele>
        <time>2021-11-06T18:10:37Z</time>
      </trkpt>
      <trkpt lat="38.1994530" lon="-1.4520710">
        <ele>843.0</ele>
        <time>2021-11-06T18:10:40Z</time>
      </trkpt>
      <trkpt lat="38.1994500" lon="-1.4520980">
        <ele>843.8</ele>
        <time>2021-11-06T18:10:44Z</time>
      </trkpt>
      <trkpt lat="38.1994290" lon="-1.4521400">
        <ele>844.8</ele>
        <time>2021-11-06T18:10:48Z</time>
      </trkpt>
      <trkpt lat="38.1994230" lon="-1.4521500">
        <ele>844.8</ele>
        <time>2021-11-06T18:10:49Z</time>
      </trkpt>
      <trkpt lat="38.1994230" lon="-1.4521800">
        <ele>846.0</ele>
        <time>2021-11-06T18:10:54Z</time>
      </trkpt>
      <trkpt lat="38.1994090" lon="-1.4521820">
        <ele>847.2</ele>
        <time>2021-11-06T18:10:58Z</time>
      </trkpt>
      <trkpt lat="38.1993920" lon="-1.4521700">
        <ele>847.8</ele>
        <time>2021-11-06T18:11:01Z</time>
      </trkpt>
      <trkpt lat="38.1993850" lon="-1.4521570">
        <ele>848.2</ele>
        <time>2021-11-06T18:11:03Z</time>
      </trkpt>
      <trkpt lat="38.1993850" lon="-1.4521370">
        <ele>848.8</ele>
        <time>2021-11-06T18:11:06Z</time>
      </trkpt>
      <trkpt lat="38.1993890" lon="-1.4521350">
        <ele>849.4</ele>
        <time>2021-11-06T18:11:13Z</time>
      </trkpt>
      <trkpt lat="38.1993870" lon="-1.4521380">
        <ele>849.4</ele>
        <time>2021-11-06T18:11:14Z</time>
      </trkpt>
      <trkpt lat="38.1993810" lon="-1.4521510">
        <ele>850.4</ele>
        <time>2021-11-06T18:11:18Z</time>
      </trkpt>
      <trkpt lat="38.1993680" lon="-1.4521560">
        <ele>850.8</ele>
        <time>2021-11-06T18:11:21Z</time>
      </trkpt>
      <trkpt lat="38.1993530" lon="-1.4521630">
        <ele>851.6</ele>
        <time>2021-11-06T18:11:25Z</time>
      </trkpt>
      <trkpt lat="38.1993330" lon="-1.4521790">
        <ele>852.2</ele>
        <time>2021-11-06T18:11:28Z</time>
      </trkpt>
      <trkpt lat="38.1993220" lon="-1.4521900">
        <ele>852.6</ele>
        <time>2021-11-06T18:11:30Z</time>
      </trkpt>
      <trkpt lat="38.1993040" lon="-1.4521960">
        <ele>853.4</ele>
        <time>2021-11-06T18:11:34Z</time>
      </trkpt>
      <trkpt lat="38.1993000" lon="-1.4521930">
        <ele>854.0</ele>
        <time>2021-11-06T18:11:35Z</time>
      </trkpt>
      <trkpt lat="38.1992670" lon="-1.4522350">
        <ele>855.2</ele>
        <time>2021-11-06T18:11:41Z</time>
      </trkpt>
      <trkpt lat="38.1992440" lon="-1.4522690">
        <ele>856.6</ele>
        <time>2021-11-06T18:11:47Z</time>
      </trkpt>
      <trkpt lat="38.1992420" lon="-1.4522690">
        <ele>856.8</ele>
        <time>2021-11-06T18:11:48Z</time>
      </trkpt>
      <trkpt lat="38.1992360" lon="-1.4522690">
        <ele>857.2</ele>
        <time>2021-11-06T18:11:50Z</time>
      </trkpt>
      <trkpt lat="38.1992240" lon="-1.4522660">
        <ele>857.6</ele>
        <time>2021-11-06T18:11:53Z</time>
      </trkpt>
      <trkpt lat="38.1992100" lon="-1.4522800">
        <ele>858.0</ele>
        <time>2021-11-06T18:11:56Z</time>
      </trkpt>
      <trkpt lat="38.1991970" lon="-1.4522990">
        <ele>858.6</ele>
        <time>2021-11-06T18:11:59Z</time>
      </trkpt>
      <trkpt lat="38.1991890" lon="-1.4523070">
        <ele>859.8</ele>
        <time>2021-11-06T18:12:02Z</time>
      </trkpt>
      <trkpt lat="38.1991830" lon="-1.4523580">
        <ele>860.2</ele>
        <time>2021-11-06T18:12:08Z</time>
      </trkpt>
      <trkpt lat="38.1991840" lon="-1.4523830">
        <ele>861.0</ele>
        <time>2021-11-06T18:12:11Z</time>
      </trkpt>
      <trkpt lat="38.1991840" lon="-1.4523970">
        <ele>862.2</ele>
        <time>2021-11-06T18:12:15Z</time>
      </trkpt>
      <trkpt lat="38.1991820" lon="-1.4523970">
        <ele>862.4</ele>
        <time>2021-11-06T18:12:16Z</time>
      </trkpt>
      <trkpt lat="38.1991570" lon="-1.4524180">
        <ele>863.2</ele>
        <time>2021-11-06T18:12:20Z</time>
      </trkpt>
      <trkpt lat="38.1991420" lon="-1.4524210">
        <ele>863.8</ele>
        <time>2021-11-06T18:12:23Z</time>
      </trkpt>
      <trkpt lat="38.1991060" lon="-1.4524670">
        <ele>864.4</ele>
        <time>2021-11-06T18:12:27Z</time>
      </trkpt>
      <trkpt lat="38.1990970" lon="-1.4524780">
        <ele>865.6</ele>
        <time>2021-11-06T18:12:30Z</time>
      </trkpt>
      <trkpt lat="38.1990930" lon="-1.4524890">
        <ele>866.2</ele>
        <time>2021-11-06T18:12:31Z</time>
      </trkpt>
      <trkpt lat="38.1990900" lon="-1.4524980">
        <ele>866.8</ele>
        <time>2021-11-06T18:12:32Z</time>
      </trkpt>
      <trkpt lat="38.1990760" lon="-1.4525090">
        <ele>867.8</ele>
        <time>2021-11-06T18:12:35Z</time>
      </trkpt>
      <trkpt lat="38.1990780" lon="-1.4525090">
        <ele>868.4</ele>
        <time>2021-11-06T18:12:36Z</time>
      </trkpt>
      <trkpt lat="38.1990800" lon="-1.4525130">
        <ele>868.6</ele>
        <time>2021-11-06T18:12:37Z</time>
      </trkpt>
      <trkpt lat="38.1990790" lon="-1.4525010">
        <ele>869.2</ele>
        <time>2021-11-06T18:12:42Z</time>
      </trkpt>
      <trkpt lat="38.1990800" lon="-1.4524980">
        <ele>869.4</ele>
        <time>2021-11-06T18:12:43Z</time>
      </trkpt>
      <trkpt lat="38.1990810" lon="-1.4524930">
        <ele>869.4</ele>
        <time>2021-11-06T18:12:44Z</time>
      </trkpt>
      <trkpt lat="38.1990520" lon="-1.4525510">
        <ele>869.4</ele>
        <time>2021-11-06T18:12:49Z</time>
      </trkpt>
      <trkpt lat="38.1990470" lon="-1.4525610">
        <ele>869.0</ele>
        <time>2021-11-06T18:12:52Z</time>
      </trkpt>
      <trkpt lat="38.1990450" lon="-1.4525570">
        <ele>869.0</ele>
        <time>2021-11-06T18:12:55Z</time>
      </trkpt>
      <trkpt lat="38.1990430" lon="-1.4526130">
        <ele>869.0</ele>
        <time>2021-11-06T18:13:02Z</time>
      </trkpt>
      <trkpt lat="38.1990420" lon="-1.4526450">
        <ele>869.0</ele>
        <time>2021-11-06T18:13:04Z</time>
      </trkpt>
      <trkpt lat="38.1990290" lon="-1.4526680">
        <ele>869.0</ele>
        <time>2021-11-06T18:13:06Z</time>
      </trkpt>
      <trkpt lat="38.1990130" lon="-1.4526800">
        <ele>868.8</ele>
        <time>2021-11-06T18:13:08Z</time>
      </trkpt>
      <trkpt lat="38.1989960" lon="-1.4527400">
        <ele>869.0</ele>
        <time>2021-11-06T18:13:12Z</time>
      </trkpt>
      <trkpt lat="38.1989800" lon="-1.4528310">
        <ele>868.8</ele>
        <time>2021-11-06T18:13:18Z</time>
      </trkpt>
      <trkpt lat="38.1989800" lon="-1.4528550">
        <ele>868.8</ele>
        <time>2021-11-06T18:13:20Z</time>
      </trkpt>
      <trkpt lat="38.1989500" lon="-1.4529240">
        <ele>869.2</ele>
        <time>2021-11-06T18:13:27Z</time>
      </trkpt>
      <trkpt lat="38.1989250" lon="-1.4529600">
        <ele>869.8</ele>
        <time>2021-11-06T18:13:31Z</time>
      </trkpt>
      <trkpt lat="38.1989200" lon="-1.4529670">
        <ele>870.6</ele>
        <time>2021-11-06T18:13:33Z</time>
      </trkpt>
      <trkpt lat="38.1989180" lon="-1.4529720">
        <ele>871.0</ele>
        <time>2021-11-06T18:13:34Z</time>
      </trkpt>
      <trkpt lat="38.1989110" lon="-1.4529950">
        <ele>871.6</ele>
        <time>2021-11-06T18:13:38Z</time>
      </trkpt>
      <trkpt lat="38.1989080" lon="-1.4530020">
        <ele>871.8</ele>
        <time>2021-11-06T18:13:39Z</time>
      </trkpt>
      <trkpt lat="38.1989060" lon="-1.4530140">
        <ele>872.8</ele>
        <time>2021-11-06T18:13:46Z</time>
      </trkpt>
      <trkpt lat="38.1989100" lon="-1.4530200">
        <ele>873.0</ele>
        <time>2021-11-06T18:13:47Z</time>
      </trkpt>
      <trkpt lat="38.1989080" lon="-1.4530450">
        <ele>873.4</ele>
        <time>2021-11-06T18:13:52Z</time>
      </trkpt>
      <trkpt lat="38.1988870" lon="-1.4530640">
        <ele>874.2</ele>
        <time>2021-11-06T18:13:55Z</time>
      </trkpt>
      <trkpt lat="38.1988820" lon="-1.4530880">
        <ele>874.6</ele>
        <time>2021-11-06T18:13:58Z</time>
      </trkpt>
      <trkpt lat="38.1988760" lon="-1.4531170">
        <ele>875.4</ele>
        <time>2021-11-06T18:14:01Z</time>
      </trkpt>
      <trkpt lat="38.1988730" lon="-1.4531330">
        <ele>875.8</ele>
        <time>2021-11-06T18:14:03Z</time>
      </trkpt>
      <trkpt lat="38.1988720" lon="-1.4531380">
        <ele>876.4</ele>
        <time>2021-11-06T18:14:05Z</time>
      </trkpt>
      <trkpt lat="38.1988510" lon="-1.4531500">
        <ele>877.4</ele>
        <time>2021-11-06T18:14:08Z</time>
      </trkpt>
      <trkpt lat="38.1988440" lon="-1.4531530">
        <ele>877.6</ele>
        <time>2021-11-06T18:14:09Z</time>
      </trkpt>
      <trkpt lat="38.1988360" lon="-1.4531640">
        <ele>877.8</ele>
        <time>2021-11-06T18:14:13Z</time>
      </trkpt>
      <trkpt lat="38.1988440" lon="-1.4531740">
        <ele>878.2</ele>
        <time>2021-11-06T18:14:20Z</time>
      </trkpt>
      <trkpt lat="38.1988110" lon="-1.4532230">
        <ele>878.6</ele>
        <time>2021-11-06T18:14:25Z</time>
      </trkpt>
      <trkpt lat="38.1987920" lon="-1.4532570">
        <ele>879.6</ele>
        <time>2021-11-06T18:14:31Z</time>
      </trkpt>
      <trkpt lat="38.1987900" lon="-1.4532840">
        <ele>880.8</ele>
        <time>2021-11-06T18:14:36Z</time>
      </trkpt>
      <trkpt lat="38.1987900" lon="-1.4532890">
        <ele>881.0</ele>
        <time>2021-11-06T18:14:37Z</time>
      </trkpt>
      <trkpt lat="38.1988000" lon="-1.4533170">
        <ele>882.0</ele>
        <time>2021-11-06T18:14:41Z</time>
      </trkpt>
      <trkpt lat="38.1988080" lon="-1.4533240">
        <ele>882.4</ele>
        <time>2021-11-06T18:14:43Z</time>
      </trkpt>
      <trkpt lat="38.1988220" lon="-1.4533350">
        <ele>883.4</ele>
        <time>2021-11-06T18:14:47Z</time>
      </trkpt>
      <trkpt lat="38.1988240" lon="-1.4533630">
        <ele>884.2</ele>
        <time>2021-11-06T18:14:53Z</time>
      </trkpt>
      <trkpt lat="38.1988230" lon="-1.4533660">
        <ele>884.8</ele>
        <time>2021-11-06T18:14:54Z</time>
      </trkpt>
      <trkpt lat="38.1988140" lon="-1.4534130">
        <ele>885.4</ele>
        <time>2021-11-06T18:14:58Z</time>
      </trkpt>
      <trkpt lat="38.1988060" lon="-1.4534360">
        <ele>885.8</ele>
        <time>2021-11-06T18:15:00Z</time>
      </trkpt>
      <trkpt lat="38.1987830" lon="-1.4534670">
        <ele>886.8</ele>
        <time>2021-11-06T18:15:05Z</time>
      </trkpt>
      <trkpt lat="38.1987820" lon="-1.4534760">
        <ele>887.0</ele>
        <time>2021-11-06T18:15:06Z</time>
      </trkpt>
      <trkpt lat="38.1987660" lon="-1.4535190">
        <ele>888.2</ele>
        <time>2021-11-06T18:15:10Z</time>
      </trkpt>
      <trkpt lat="38.1987540" lon="-1.4535440">
        <ele>888.8</ele>
        <time>2021-11-06T18:15:12Z</time>
      </trkpt>
      <trkpt lat="38.1987440" lon="-1.4535500">
        <ele>888.6</ele>
        <time>2021-11-06T18:15:13Z</time>
      </trkpt>
      <trkpt lat="38.1987230" lon="-1.4535880">
        <ele>888.6</ele>
        <time>2021-11-06T18:15:16Z</time>
      </trkpt>
      <trkpt lat="38.1987180" lon="-1.4536270">
        <ele>889.2</ele>
        <time>2021-11-06T18:15:20Z</time>
      </trkpt>
      <trkpt lat="38.1987150" lon="-1.4536560">
        <ele>890.0</ele>
        <time>2021-11-06T18:15:23Z</time>
      </trkpt>
      <trkpt lat="38.1987140" lon="-1.4536690">
        <ele>890.2</ele>
        <time>2021-11-06T18:15:24Z</time>
      </trkpt>
      <trkpt lat="38.1987090" lon="-1.4536880">
        <ele>890.4</ele>
        <time>2021-11-06T18:15:28Z</time>
      </trkpt>
      <trkpt lat="38.1987070" lon="-1.4537510">
        <ele>890.4</ele>
        <time>2021-11-06T18:15:35Z</time>
      </trkpt>
      <trkpt lat="38.1987070" lon="-1.4537530">
        <ele>890.8</ele>
        <time>2021-11-06T18:15:37Z</time>
      </trkpt>
      <trkpt lat="38.1987080" lon="-1.4537730">
        <ele>890.6</ele>
        <time>2021-11-06T18:15:41Z</time>
      </trkpt>
      <trkpt lat="38.1986980" lon="-1.4538330">
        <ele>890.6</ele>
        <time>2021-11-06T18:15:46Z</time>
      </trkpt>
      <trkpt lat="38.1986970" lon="-1.4538690">
        <ele>891.2</ele>
        <time>2021-11-06T18:15:49Z</time>
      </trkpt>
      <trkpt lat="38.1986940" lon="-1.4538820">
        <ele>891.6</ele>
        <time>2021-11-06T18:15:50Z</time>
      </trkpt>
      <trkpt lat="38.1986890" lon="-1.4539080">
        <ele>892.2</ele>
        <time>2021-11-06T18:15:52Z</time>
      </trkpt>
      <trkpt lat="38.1986850" lon="-1.4539170">
        <ele>892.4</ele>
        <time>2021-11-06T18:15:53Z</time>
      </trkpt>
      <trkpt lat="38.1986290" lon="-1.4539830">
        <ele>892.6</ele>
        <time>2021-11-06T18:16:00Z</time>
      </trkpt>
      <trkpt lat="38.1985940" lon="-1.4540640">
        <ele>892.4</ele>
        <time>2021-11-06T18:16:08Z</time>
      </trkpt>
      <trkpt lat="38.1985780" lon="-1.4540520">
        <ele>891.8</ele>
        <time>2021-11-06T18:16:15Z</time>
      </trkpt>
      <trkpt lat="38.1985940" lon="-1.4541230">
        <ele>893.0</ele>
        <time>2021-11-06T18:16:24Z</time>
      </trkpt>
      <trkpt lat="38.1985940" lon="-1.4541230">
        <ele>893.2</ele>
        <time>2021-11-06T18:16:25Z</time>
      </trkpt>
      <trkpt lat="38.1986010" lon="-1.4541700">
        <ele>895.2</ele>
        <time>2021-11-06T18:22:27Z</time>
      </trkpt>
      <trkpt lat="38.1985720" lon="-1.4542160">
        <ele>895.2</ele>
        <time>2021-11-06T18:22:30Z</time>
      </trkpt>
      <trkpt lat="38.1985330" lon="-1.4543330">
        <ele>894.2</ele>
        <time>2021-11-06T18:22:34Z</time>
      </trkpt>
      <trkpt lat="38.1985340" lon="-1.4543590">
        <ele>894.0</ele>
        <time>2021-11-06T18:22:35Z</time>
      </trkpt>
      <trkpt lat="38.1985400" lon="-1.4544380">
        <ele>893.0</ele>
        <time>2021-11-06T18:22:39Z</time>
      </trkpt>
      <trkpt lat="38.1985420" lon="-1.4544500">
        <ele>893.0</ele>
        <time>2021-11-06T18:22:40Z</time>
      </trkpt>
      <trkpt lat="38.1985140" lon="-1.4545140">
        <ele>892.4</ele>
        <time>2021-11-06T18:22:46Z</time>
      </trkpt>
      <trkpt lat="38.1985110" lon="-1.4545980">
        <ele>892.2</ele>
        <time>2021-11-06T18:22:49Z</time>
      </trkpt>
      <trkpt lat="38.1985070" lon="-1.4546420">
        <ele>892.0</ele>
        <time>2021-11-06T18:22:51Z</time>
      </trkpt>
      <trkpt lat="38.1984990" lon="-1.4546760">
        <ele>891.6</ele>
        <time>2021-11-06T18:22:53Z</time>
      </trkpt>
      <trkpt lat="38.1984300" lon="-1.4547470">
        <ele>890.0</ele>
        <time>2021-11-06T18:22:57Z</time>
      </trkpt>
      <trkpt lat="38.1983880" lon="-1.4547860">
        <ele>889.0</ele>
        <time>2021-11-06T18:22:59Z</time>
      </trkpt>
      <trkpt lat="38.1983430" lon="-1.4548240">
        <ele>888.2</ele>
        <time>2021-11-06T18:23:01Z</time>
      </trkpt>
      <trkpt lat="38.1983240" lon="-1.4548400">
        <ele>887.6</ele>
        <time>2021-11-06T18:23:02Z</time>
      </trkpt>
      <trkpt lat="38.1983060" lon="-1.4548600">
        <ele>886.8</ele>
        <time>2021-11-06T18:23:03Z</time>
      </trkpt>
      <trkpt lat="38.1982850" lon="-1.4548770">
        <ele>886.2</ele>
        <time>2021-11-06T18:23:04Z</time>
      </trkpt>
      <trkpt lat="38.1982270" lon="-1.4549410">
        <ele>885.0</ele>
        <time>2021-11-06T18:23:07Z</time>
      </trkpt>
      <trkpt lat="38.1981790" lon="-1.4549970">
        <ele>884.6</ele>
        <time>2021-11-06T18:23:10Z</time>
      </trkpt>
      <trkpt lat="38.1981240" lon="-1.4550610">
        <ele>884.0</ele>
        <time>2021-11-06T18:23:13Z</time>
      </trkpt>
      <trkpt lat="38.1980660" lon="-1.4551290">
        <ele>883.2</ele>
        <time>2021-11-06T18:23:17Z</time>
      </trkpt>
      <trkpt lat="38.1980280" lon="-1.4551680">
        <ele>883.0</ele>
        <time>2021-11-06T18:23:19Z</time>
      </trkpt>
      <trkpt lat="38.1979340" lon="-1.4552650">
        <ele>881.8</ele>
        <time>2021-11-06T18:23:24Z</time>
      </trkpt>
      <trkpt lat="38.1978490" lon="-1.4553070">
        <ele>880.8</ele>
        <time>2021-11-06T18:23:28Z</time>
      </trkpt>
      <trkpt lat="38.1978200" lon="-1.4553290">
        <ele>880.6</ele>
        <time>2021-11-06T18:23:30Z</time>
      </trkpt>
      <trkpt lat="38.1978130" lon="-1.4554000">
        <ele>880.8</ele>
        <time>2021-11-06T18:23:33Z</time>
      </trkpt>
      <trkpt lat="38.1978140" lon="-1.4554470">
        <ele>880.8</ele>
        <time>2021-11-06T18:23:35Z</time>
      </trkpt>
      <trkpt lat="38.1978290" lon="-1.4556260">
        <ele>881.8</ele>
        <time>2021-11-06T18:23:41Z</time>
      </trkpt>
      <trkpt lat="38.1978370" lon="-1.4556490">
        <ele>881.8</ele>
        <time>2021-11-06T18:23:42Z</time>
      </trkpt>
      <trkpt lat="38.1978740" lon="-1.4557100">
        <ele>880.8</ele>
        <time>2021-11-06T18:23:45Z</time>
      </trkpt>
      <trkpt lat="38.1979080" lon="-1.4557420">
        <ele>880.2</ele>
        <time>2021-11-06T18:23:47Z</time>
      </trkpt>
      <trkpt lat="38.1979220" lon="-1.4557510">
        <ele>879.6</ele>
        <time>2021-11-06T18:23:48Z</time>
      </trkpt>
      <trkpt lat="38.1979380" lon="-1.4557690">
        <ele>878.6</ele>
        <time>2021-11-06T18:23:50Z</time>
      </trkpt>
      <trkpt lat="38.1979480" lon="-1.4557870">
        <ele>878.0</ele>
        <time>2021-11-06T18:23:52Z</time>
      </trkpt>
      <trkpt lat="38.1979490" lon="-1.4558140">
        <ele>877.4</ele>
        <time>2021-11-06T18:23:56Z</time>
      </trkpt>
      <trkpt lat="38.1979400" lon="-1.4558150">
        <ele>877.2</ele>
        <time>2021-11-06T18:23:58Z</time>
      </trkpt>
      <trkpt lat="38.1979490" lon="-1.4558280">
        <ele>876.8</ele>
        <time>2021-11-06T18:24:00Z</time>
      </trkpt>
      <trkpt lat="38.1979540" lon="-1.4558350">
        <ele>876.8</ele>
        <time>2021-11-06T18:24:02Z</time>
      </trkpt>
      <trkpt lat="38.1979600" lon="-1.4558410">
        <ele>876.8</ele>
        <time>2021-11-06T18:24:04Z</time>
      </trkpt>
      <trkpt lat="38.1980470" lon="-1.4559060">
        <ele>876.0</ele>
        <time>2021-11-06T18:24:11Z</time>
      </trkpt>
      <trkpt lat="38.1980990" lon="-1.4559250">
        <ele>875.0</ele>
        <time>2021-11-06T18:24:14Z</time>
      </trkpt>
      <trkpt lat="38.1981410" lon="-1.4559400">
        <ele>873.8</ele>
        <time>2021-11-06T18:24:17Z</time>
      </trkpt>
      <trkpt lat="38.1981600" lon="-1.4559470">
        <ele>872.8</ele>
        <time>2021-11-06T18:24:18Z</time>
      </trkpt>
      <trkpt lat="38.1981810" lon="-1.4559510">
        <ele>872.4</ele>
        <time>2021-11-06T18:24:19Z</time>
      </trkpt>
      <trkpt lat="38.1982380" lon="-1.4559610">
        <ele>871.2</ele>
        <time>2021-11-06T18:24:22Z</time>
      </trkpt>
      <trkpt lat="38.1982730" lon="-1.4559720">
        <ele>871.0</ele>
        <time>2021-11-06T18:24:24Z</time>
      </trkpt>
      <trkpt lat="38.1982960" lon="-1.4559860">
        <ele>869.8</ele>
        <time>2021-11-06T18:24:26Z</time>
      </trkpt>
      <trkpt lat="38.1983240" lon="-1.4560060">
        <ele>868.8</ele>
        <time>2021-11-06T18:24:28Z</time>
      </trkpt>
      <trkpt lat="38.1983410" lon="-1.4560090">
        <ele>868.4</ele>
        <time>2021-11-06T18:24:29Z</time>
      </trkpt>
      <trkpt lat="38.1983800" lon="-1.4560320">
        <ele>867.6</ele>
        <time>2021-11-06T18:24:31Z</time>
      </trkpt>
      <trkpt lat="38.1984180" lon="-1.4560570">
        <ele>866.6</ele>
        <time>2021-11-06T18:24:33Z</time>
      </trkpt>
      <trkpt lat="38.1984590" lon="-1.4560680">
        <ele>865.6</ele>
        <time>2021-11-06T18:24:35Z</time>
      </trkpt>
      <trkpt lat="38.1984800" lon="-1.4560760">
        <ele>864.4</ele>
        <time>2021-11-06T18:24:37Z</time>
      </trkpt>
      <trkpt lat="38.1985010" lon="-1.4560970">
        <ele>863.6</ele>
        <time>2021-11-06T18:24:39Z</time>
      </trkpt>
      <trkpt lat="38.1985200" lon="-1.4561260">
        <ele>862.8</ele>
        <time>2021-11-06T18:24:41Z</time>
      </trkpt>
      <trkpt lat="38.1985520" lon="-1.4561470">
        <ele>861.8</ele>
        <time>2021-11-06T18:24:44Z</time>
      </trkpt>
      <trkpt lat="38.1985680" lon="-1.4561540">
        <ele>861.4</ele>
        <time>2021-11-06T18:24:45Z</time>
      </trkpt>
      <trkpt lat="38.1985840" lon="-1.4561630">
        <ele>860.8</ele>
        <time>2021-11-06T18:24:46Z</time>
      </trkpt>
      <trkpt lat="38.1986120" lon="-1.4561970">
        <ele>859.2</ele>
        <time>2021-11-06T18:24:49Z</time>
      </trkpt>
      <trkpt lat="38.1986310" lon="-1.4562140">
        <ele>858.0</ele>
        <time>2021-11-06T18:24:51Z</time>
      </trkpt>
      <trkpt lat="38.1986410" lon="-1.4562170">
        <ele>857.6</ele>
        <time>2021-11-06T18:24:52Z</time>
      </trkpt>
      <trkpt lat="38.1986570" lon="-1.4562340">
        <ele>856.8</ele>
        <time>2021-11-06T18:24:54Z</time>
      </trkpt>
      <trkpt lat="38.1986780" lon="-1.4562970">
        <ele>855.4</ele>
        <time>2021-11-06T18:24:57Z</time>
      </trkpt>
      <trkpt lat="38.1986950" lon="-1.4563260">
        <ele>854.4</ele>
        <time>2021-11-06T18:24:59Z</time>
      </trkpt>
      <trkpt lat="38.1987120" lon="-1.4563570">
        <ele>853.0</ele>
        <time>2021-11-06T18:25:02Z</time>
      </trkpt>
      <trkpt lat="38.1987200" lon="-1.4563860">
        <ele>852.0</ele>
        <time>2021-11-06T18:25:04Z</time>
      </trkpt>
      <trkpt lat="38.1987430" lon="-1.4564340">
        <ele>851.0</ele>
        <time>2021-11-06T18:25:07Z</time>
      </trkpt>
      <trkpt lat="38.1987620" lon="-1.4564840">
        <ele>850.0</ele>
        <time>2021-11-06T18:25:10Z</time>
      </trkpt>
      <trkpt lat="38.1987780" lon="-1.4565110">
        <ele>848.4</ele>
        <time>2021-11-06T18:25:12Z</time>
      </trkpt>
      <trkpt lat="38.1987850" lon="-1.4565270">
        <ele>847.8</ele>
        <time>2021-11-06T18:25:13Z</time>
      </trkpt>
      <trkpt lat="38.1987930" lon="-1.4565420">
        <ele>847.4</ele>
        <time>2021-11-06T18:25:14Z</time>
      </trkpt>
      <trkpt lat="38.1988160" lon="-1.4565590">
        <ele>846.4</ele>
        <time>2021-11-06T18:25:16Z</time>
      </trkpt>
      <trkpt lat="38.1988420" lon="-1.4565900">
        <ele>845.2</ele>
        <time>2021-11-06T18:25:19Z</time>
      </trkpt>
      <trkpt lat="38.1988510" lon="-1.4566030">
        <ele>845.0</ele>
        <time>2021-11-06T18:25:20Z</time>
      </trkpt>
      <trkpt lat="38.1988680" lon="-1.4566260">
        <ele>844.0</ele>
        <time>2021-11-06T18:25:22Z</time>
      </trkpt>
      <trkpt lat="38.1989090" lon="-1.4566440">
        <ele>843.0</ele>
        <time>2021-11-06T18:25:25Z</time>
      </trkpt>
      <trkpt lat="38.1989290" lon="-1.4566630">
        <ele>842.0</ele>
        <time>2021-11-06T18:25:27Z</time>
      </trkpt>
      <trkpt lat="38.1989410" lon="-1.4566700">
        <ele>841.6</ele>
        <time>2021-11-06T18:25:28Z</time>
      </trkpt>
      <trkpt lat="38.1989720" lon="-1.4566980">
        <ele>840.2</ele>
        <time>2021-11-06T18:25:31Z</time>
      </trkpt>
      <trkpt lat="38.1989820" lon="-1.4567070">
        <ele>839.6</ele>
        <time>2021-11-06T18:25:32Z</time>
      </trkpt>
      <trkpt lat="38.1989940" lon="-1.4567120">
        <ele>839.0</ele>
        <time>2021-11-06T18:25:33Z</time>
      </trkpt>
      <trkpt lat="38.1990320" lon="-1.4567360">
        <ele>837.8</ele>
        <time>2021-11-06T18:25:36Z</time>
      </trkpt>
      <trkpt lat="38.1990780" lon="-1.4567610">
        <ele>836.4</ele>
        <time>2021-11-06T18:25:39Z</time>
      </trkpt>
      <trkpt lat="38.1991110" lon="-1.4567810">
        <ele>835.0</ele>
        <time>2021-11-06T18:25:42Z</time>
      </trkpt>
      <trkpt lat="38.1991380" lon="-1.4567960">
        <ele>833.8</ele>
        <time>2021-11-06T18:25:45Z</time>
      </trkpt>
      <trkpt lat="38.1991490" lon="-1.4567990">
        <ele>833.6</ele>
        <time>2021-11-06T18:25:46Z</time>
      </trkpt>
      <trkpt lat="38.1991630" lon="-1.4568000">
        <ele>832.8</ele>
        <time>2021-11-06T18:25:47Z</time>
      </trkpt>
      <trkpt lat="38.1992230" lon="-1.4567810">
        <ele>831.4</ele>
        <time>2021-11-06T18:25:51Z</time>
      </trkpt>
      <trkpt lat="38.1992530" lon="-1.4567570">
        <ele>830.8</ele>
        <time>2021-11-06T18:25:53Z</time>
      </trkpt>
      <trkpt lat="38.1992810" lon="-1.4567190">
        <ele>830.0</ele>
        <time>2021-11-06T18:25:55Z</time>
      </trkpt>
      <trkpt lat="38.1993010" lon="-1.4566810">
        <ele>828.6</ele>
        <time>2021-11-06T18:25:57Z</time>
      </trkpt>
      <trkpt lat="38.1993190" lon="-1.4566540">
        <ele>827.8</ele>
        <time>2021-11-06T18:25:59Z</time>
      </trkpt>
      <trkpt lat="38.1993300" lon="-1.4566460">
        <ele>827.4</ele>
        <time>2021-11-06T18:26:00Z</time>
      </trkpt>
      <trkpt lat="38.1993580" lon="-1.4566200">
        <ele>826.8</ele>
        <time>2021-11-06T18:26:02Z</time>
      </trkpt>
      <trkpt lat="38.1993890" lon="-1.4565940">
        <ele>826.0</ele>
        <time>2021-11-06T18:26:04Z</time>
      </trkpt>
      <trkpt lat="38.1994320" lon="-1.4565560">
        <ele>824.8</ele>
        <time>2021-11-06T18:26:07Z</time>
      </trkpt>
      <trkpt lat="38.1994680" lon="-1.4565330">
        <ele>824.2</ele>
        <time>2021-11-06T18:26:10Z</time>
      </trkpt>
      <trkpt lat="38.1994990" lon="-1.4565130">
        <ele>823.4</ele>
        <time>2021-11-06T18:26:12Z</time>
      </trkpt>
      <trkpt lat="38.1995900" lon="-1.4564510">
        <ele>822.4</ele>
        <time>2021-11-06T18:26:16Z</time>
      </trkpt>
      <trkpt lat="38.1996260" lon="-1.4564160">
        <ele>822.2</ele>
        <time>2021-11-06T18:26:18Z</time>
      </trkpt>
      <trkpt lat="38.1996450" lon="-1.4563910">
        <ele>821.2</ele>
        <time>2021-11-06T18:26:20Z</time>
      </trkpt>
      <trkpt lat="38.1996560" lon="-1.4563790">
        <ele>820.2</ele>
        <time>2021-11-06T18:26:21Z</time>
      </trkpt>
      <trkpt lat="38.1996710" lon="-1.4563600">
        <ele>819.6</ele>
        <time>2021-11-06T18:26:22Z</time>
      </trkpt>
      <trkpt lat="38.1996820" lon="-1.4563440">
        <ele>819.4</ele>
        <time>2021-11-06T18:26:23Z</time>
      </trkpt>
      <trkpt lat="38.1997440" lon="-1.4562820">
        <ele>818.4</ele>
        <time>2021-11-06T18:26:27Z</time>
      </trkpt>
      <trkpt lat="38.1997750" lon="-1.4562520">
        <ele>817.8</ele>
        <time>2021-11-06T18:26:29Z</time>
      </trkpt>
      <trkpt lat="38.1997890" lon="-1.4562350">
        <ele>817.0</ele>
        <time>2021-11-06T18:26:30Z</time>
      </trkpt>
      <trkpt lat="38.1998430" lon="-1.4561660">
        <ele>815.8</ele>
        <time>2021-11-06T18:26:33Z</time>
      </trkpt>
      <trkpt lat="38.1998580" lon="-1.4561430">
        <ele>815.2</ele>
        <time>2021-11-06T18:26:34Z</time>
      </trkpt>
      <trkpt lat="38.1998760" lon="-1.4561280">
        <ele>814.8</ele>
        <time>2021-11-06T18:26:35Z</time>
      </trkpt>
      <trkpt lat="38.1999690" lon="-1.4560700">
        <ele>813.6</ele>
        <time>2021-11-06T18:26:40Z</time>
      </trkpt>
      <trkpt lat="38.2000110" lon="-1.4560420">
        <ele>812.6</ele>
        <time>2021-11-06T18:26:42Z</time>
      </trkpt>
      <trkpt lat="38.2000560" lon="-1.4560040">
        <ele>811.0</ele>
        <time>2021-11-06T18:26:45Z</time>
      </trkpt>
      <trkpt lat="38.2000690" lon="-1.4559920">
        <ele>810.6</ele>
        <time>2021-11-06T18:26:46Z</time>
      </trkpt>
      <trkpt lat="38.2001010" lon="-1.4559560">
        <ele>809.6</ele>
        <time>2021-11-06T18:26:49Z</time>
      </trkpt>
      <trkpt lat="38.2001280" lon="-1.4558840">
        <ele>808.6</ele>
        <time>2021-11-06T18:26:52Z</time>
      </trkpt>
      <trkpt lat="38.2001390" lon="-1.4558620">
        <ele>808.4</ele>
        <time>2021-11-06T18:26:53Z</time>
      </trkpt>
      <trkpt lat="38.2001730" lon="-1.4558180">
        <ele>807.2</ele>
        <time>2021-11-06T18:26:55Z</time>
      </trkpt>
      <trkpt lat="38.2002020" lon="-1.4557960">
        <ele>806.2</ele>
        <time>2021-11-06T18:26:57Z</time>
      </trkpt>
      <trkpt lat="38.2002180" lon="-1.4557870">
        <ele>806.0</ele>
        <time>2021-11-06T18:26:58Z</time>
      </trkpt>
      <trkpt lat="38.2002520" lon="-1.4557530">
        <ele>805.0</ele>
        <time>2021-11-06T18:27:00Z</time>
      </trkpt>
      <trkpt lat="38.2002830" lon="-1.4557150">
        <ele>804.0</ele>
        <time>2021-11-06T18:27:02Z</time>
      </trkpt>
      <trkpt lat="38.2002930" lon="-1.4557040">
        <ele>803.6</ele>
        <time>2021-11-06T18:27:03Z</time>
      </trkpt>
      <trkpt lat="38.2003430" lon="-1.4556460">
        <ele>802.8</ele>
        <time>2021-11-06T18:27:07Z</time>
      </trkpt>
      <trkpt lat="38.2003620" lon="-1.4556140">
        <ele>802.2</ele>
        <time>2021-11-06T18:27:09Z</time>
      </trkpt>
      <trkpt lat="38.2003770" lon="-1.4555920">
        <ele>801.6</ele>
        <time>2021-11-06T18:27:10Z</time>
      </trkpt>
      <trkpt lat="38.2004110" lon="-1.4555060">
        <ele>800.4</ele>
        <time>2021-11-06T18:27:14Z</time>
      </trkpt>
      <trkpt lat="38.2003990" lon="-1.4554560">
        <ele>799.0</ele>
        <time>2021-11-06T18:27:17Z</time>
      </trkpt>
      <trkpt lat="38.2003830" lon="-1.4554210">
        <ele>798.0</ele>
        <time>2021-11-06T18:27:19Z</time>
      </trkpt>
      <trkpt lat="38.2003740" lon="-1.4554100">
        <ele>797.8</ele>
        <time>2021-11-06T18:27:20Z</time>
      </trkpt>
      <trkpt lat="38.2003540" lon="-1.4553550">
        <ele>796.8</ele>
        <time>2021-11-06T18:27:24Z</time>
      </trkpt>
      <trkpt lat="38.2003480" lon="-1.4553390">
        <ele>796.4</ele>
        <time>2021-11-06T18:27:25Z</time>
      </trkpt>
      <trkpt lat="38.2003360" lon="-1.4553080">
        <ele>795.4</ele>
        <time>2021-11-06T18:27:27Z</time>
      </trkpt>
      <trkpt lat="38.2003290" lon="-1.4552660">
        <ele>794.2</ele>
        <time>2021-11-06T18:27:29Z</time>
      </trkpt>
      <trkpt lat="38.2003210" lon="-1.4552180">
        <ele>793.4</ele>
        <time>2021-11-06T18:27:31Z</time>
      </trkpt>
      <trkpt lat="38.2003220" lon="-1.4551950">
        <ele>793.0</ele>
        <time>2021-11-06T18:27:32Z</time>
      </trkpt>
      <trkpt lat="38.2003220" lon="-1.4551090">
        <ele>791.6</ele>
        <time>2021-11-06T18:27:36Z</time>
      </trkpt>
      <trkpt lat="38.2003370" lon="-1.4550560">
        <ele>790.0</ele>
        <time>2021-11-06T18:27:39Z</time>
      </trkpt>
      <trkpt lat="38.2003480" lon="-1.4549980">
        <ele>788.8</ele>
        <time>2021-11-06T18:27:42Z</time>
      </trkpt>
      <trkpt lat="38.2003560" lon="-1.4549600">
        <ele>787.0</ele>
        <time>2021-11-06T18:27:44Z</time>
      </trkpt>
      <trkpt lat="38.2003590" lon="-1.4549320">
        <ele>786.4</ele>
        <time>2021-11-06T18:27:45Z</time>
      </trkpt>
      <trkpt lat="38.2003620" lon="-1.4548740">
        <ele>785.6</ele>
        <time>2021-11-06T18:27:47Z</time>
      </trkpt>
      <trkpt lat="38.2003620" lon="-1.4548360">
        <ele>784.4</ele>
        <time>2021-11-06T18:27:49Z</time>
      </trkpt>
      <trkpt lat="38.2003680" lon="-1.4547930">
        <ele>783.4</ele>
        <time>2021-11-06T18:27:51Z</time>
      </trkpt>
      <trkpt lat="38.2003660" lon="-1.4547800">
        <ele>782.6</ele>
        <time>2021-11-06T18:27:52Z</time>
      </trkpt>
      <trkpt lat="38.2003910" lon="-1.4547300">
        <ele>781.2</ele>
        <time>2021-11-06T18:27:55Z</time>
      </trkpt>
      <trkpt lat="38.2004020" lon="-1.4546850">
        <ele>780.0</ele>
        <time>2021-11-06T18:27:57Z</time>
      </trkpt>
      <trkpt lat="38.2004250" lon="-1.4546010">
        <ele>778.8</ele>
        <time>2021-11-06T18:28:00Z</time>
      </trkpt>
      <trkpt lat="38.2004480" lon="-1.4545480">
        <ele>777.8</ele>
        <time>2021-11-06T18:28:02Z</time>
      </trkpt>
      <trkpt lat="38.2004680" lon="-1.4545260">
        <ele>777.4</ele>
        <time>2021-11-06T18:28:03Z</time>
      </trkpt>
      <trkpt lat="38.2005070" lon="-1.4544860">
        <ele>776.8</ele>
        <time>2021-11-06T18:28:05Z</time>
      </trkpt>
      <trkpt lat="38.2005710" lon="-1.4544220">
        <ele>775.6</ele>
        <time>2021-11-06T18:28:08Z</time>
      </trkpt>
      <trkpt lat="38.2006080" lon="-1.4543870">
        <ele>774.2</ele>
        <time>2021-11-06T18:28:10Z</time>
      </trkpt>
      <trkpt lat="38.2006760" lon="-1.4543330">
        <ele>773.2</ele>
        <time>2021-11-06T18:28:13Z</time>
      </trkpt>
      <trkpt lat="38.2006950" lon="-1.4543120">
        <ele>773.0</ele>
        <time>2021-11-06T18:28:14Z</time>
      </trkpt>
      <trkpt lat="38.2007670" lon="-1.4542490">
        <ele>772.0</ele>
        <time>2021-11-06T18:28:17Z</time>
      </trkpt>
      <trkpt lat="38.2008030" lon="-1.4542030">
        <ele>770.4</ele>
        <time>2021-11-06T18:28:19Z</time>
      </trkpt>
      <trkpt lat="38.2008150" lon="-1.4541850">
        <ele>769.6</ele>
        <time>2021-11-06T18:28:20Z</time>
      </trkpt>
      <trkpt lat="38.2008240" lon="-1.4541650">
        <ele>769.4</ele>
        <time>2021-11-06T18:28:21Z</time>
      </trkpt>
      <trkpt lat="38.2009040" lon="-1.4540580">
        <ele>768.4</ele>
        <time>2021-11-06T18:28:26Z</time>
      </trkpt>
      <trkpt lat="38.2009240" lon="-1.4540360">
        <ele>768.0</ele>
        <time>2021-11-06T18:28:27Z</time>
      </trkpt>
      <trkpt lat="38.2010210" lon="-1.4539460">
        <ele>767.4</ele>
        <time>2021-11-06T18:28:32Z</time>
      </trkpt>
      <trkpt lat="38.2010280" lon="-1.4539260">
        <ele>767.0</ele>
        <time>2021-11-06T18:28:33Z</time>
      </trkpt>
      <trkpt lat="38.2010370" lon="-1.4538890">
        <ele>766.6</ele>
        <time>2021-11-06T18:28:35Z</time>
      </trkpt>
      <trkpt lat="38.2010430" lon="-1.4538150">
        <ele>766.6</ele>
        <time>2021-11-06T18:28:37Z</time>
      </trkpt>
      <trkpt lat="38.2010510" lon="-1.4536890">
        <ele>765.8</ele>
        <time>2021-11-06T18:28:41Z</time>
      </trkpt>
      <trkpt lat="38.2010570" lon="-1.4536260">
        <ele>765.6</ele>
        <time>2021-11-06T18:28:44Z</time>
      </trkpt>
      <trkpt lat="38.2010690" lon="-1.4535700">
        <ele>764.6</ele>
        <time>2021-11-06T18:28:47Z</time>
      </trkpt>
      <trkpt lat="38.2010950" lon="-1.4534540">
        <ele>763.2</ele>
        <time>2021-11-06T18:28:51Z</time>
      </trkpt>
      <trkpt lat="38.2011110" lon="-1.4534110">
        <ele>762.0</ele>
        <time>2021-11-06T18:28:54Z</time>
      </trkpt>
      <trkpt lat="38.2011530" lon="-1.4533410">
        <ele>760.8</ele>
        <time>2021-11-06T18:28:57Z</time>
      </trkpt>
      <trkpt lat="38.2011860" lon="-1.4532800">
        <ele>759.8</ele>
        <time>2021-11-06T18:29:01Z</time>
      </trkpt>
      <trkpt lat="38.2012050" lon="-1.4532580">
        <ele>759.2</ele>
        <time>2021-11-06T18:29:02Z</time>
      </trkpt>
      <trkpt lat="38.2012370" lon="-1.4532200">
        <ele>758.6</ele>
        <time>2021-11-06T18:29:04Z</time>
      </trkpt>
      <trkpt lat="38.2012800" lon="-1.4531530">
        <ele>757.8</ele>
        <time>2021-11-06T18:29:08Z</time>
      </trkpt>
      <trkpt lat="38.2012890" lon="-1.4531270">
        <ele>757.6</ele>
        <time>2021-11-06T18:29:09Z</time>
      </trkpt>
      <trkpt lat="38.2013090" lon="-1.4530310">
        <ele>756.4</ele>
        <time>2021-11-06T18:29:13Z</time>
      </trkpt>
      <trkpt lat="38.2013290" lon="-1.4529810">
        <ele>755.2</ele>
        <time>2021-11-06T18:29:16Z</time>
      </trkpt>
      <trkpt lat="38.2013570" lon="-1.4529180">
        <ele>754.0</ele>
        <time>2021-11-06T18:29:19Z</time>
      </trkpt>
      <trkpt lat="38.2013720" lon="-1.4528750">
        <ele>753.0</ele>
        <time>2021-11-06T18:29:21Z</time>
      </trkpt>
      <trkpt lat="38.2013760" lon="-1.4528610">
        <ele>752.4</ele>
        <time>2021-11-06T18:29:22Z</time>
      </trkpt>
      <trkpt lat="38.2013910" lon="-1.4528240">
        <ele>750.8</ele>
        <time>2021-11-06T18:29:24Z</time>
      </trkpt>
      <trkpt lat="38.2014280" lon="-1.4527510">
        <ele>749.4</ele>
        <time>2021-11-06T18:29:27Z</time>
      </trkpt>
      <trkpt lat="38.2014710" lon="-1.4526770">
        <ele>748.0</ele>
        <time>2021-11-06T18:29:31Z</time>
      </trkpt>
      <trkpt lat="38.2014910" lon="-1.4526510">
        <ele>747.0</ele>
        <time>2021-11-06T18:29:33Z</time>
      </trkpt>
      <trkpt lat="38.2015240" lon="-1.4525960">
        <ele>745.6</ele>
        <time>2021-11-06T18:29:36Z</time>
      </trkpt>
      <trkpt lat="38.2015480" lon="-1.4525570">
        <ele>744.8</ele>
        <time>2021-11-06T18:29:38Z</time>
      </trkpt>
      <trkpt lat="38.2015570" lon="-1.4525410">
        <ele>744.2</ele>
        <time>2021-11-06T18:29:39Z</time>
      </trkpt>
      <trkpt lat="38.2015810" lon="-1.4524960">
        <ele>743.2</ele>
        <time>2021-11-06T18:29:41Z</time>
      </trkpt>
      <trkpt lat="38.2015870" lon="-1.4524860">
        <ele>743.0</ele>
        <time>2021-11-06T18:29:42Z</time>
      </trkpt>
      <trkpt lat="38.2015950" lon="-1.4524840">
        <ele>742.4</ele>
        <time>2021-11-06T18:29:43Z</time>
      </trkpt>
      <trkpt lat="38.2016120" lon="-1.4524720">
        <ele>741.4</ele>
        <time>2021-11-06T18:29:45Z</time>
      </trkpt>
      <trkpt lat="38.2016280" lon="-1.4524330">
        <ele>740.8</ele>
        <time>2021-11-06T18:29:47Z</time>
      </trkpt>
      <trkpt lat="38.2016380" lon="-1.4524080">
        <ele>740.4</ele>
        <time>2021-11-06T18:29:48Z</time>
      </trkpt>
      <trkpt lat="38.2016440" lon="-1.4523850">
        <ele>739.8</ele>
        <time>2021-11-06T18:29:49Z</time>
      </trkpt>
      <trkpt lat="38.2016510" lon="-1.4523610">
        <ele>739.4</ele>
        <time>2021-11-06T18:29:50Z</time>
      </trkpt>
      <trkpt lat="38.2016620" lon="-1.4523180">
        <ele>738.4</ele>
        <time>2021-11-06T18:29:52Z</time>
      </trkpt>
      <trkpt lat="38.2016670" lon="-1.4522770">
        <ele>738.2</ele>
        <time>2021-11-06T18:29:54Z</time>
      </trkpt>
      <trkpt lat="38.2016920" lon="-1.4521710">
        <ele>737.2</ele>
        <time>2021-11-06T18:29:59Z</time>
      </trkpt>
      <trkpt lat="38.2016960" lon="-1.4521660">
        <ele>737.0</ele>
        <time>2021-11-06T18:30:00Z</time>
      </trkpt>
      <trkpt lat="38.2016990" lon="-1.4521640">
        <ele>735.6</ele>
        <time>2021-11-06T18:30:01Z</time>
      </trkpt>
      <trkpt lat="38.2017110" lon="-1.4521510">
        <ele>734.2</ele>
        <time>2021-11-06T18:30:03Z</time>
      </trkpt>
      <trkpt lat="38.2017370" lon="-1.4521250">
        <ele>733.0</ele>
        <time>2021-11-06T18:30:05Z</time>
      </trkpt>
      <trkpt lat="38.2017750" lon="-1.4520960">
        <ele>731.0</ele>
        <time>2021-11-06T18:30:07Z</time>
      </trkpt>
      <trkpt lat="38.2017980" lon="-1.4520840">
        <ele>729.8</ele>
        <time>2021-11-06T18:30:09Z</time>
      </trkpt>
      <trkpt lat="38.2018100" lon="-1.4520850">
        <ele>729.6</ele>
        <time>2021-11-06T18:30:10Z</time>
      </trkpt>
      <trkpt lat="38.2018390" lon="-1.4520620">
        <ele>728.4</ele>
        <time>2021-11-06T18:30:13Z</time>
      </trkpt>
      <trkpt lat="38.2018700" lon="-1.4520190">
        <ele>727.4</ele>
        <time>2021-11-06T18:30:16Z</time>
      </trkpt>
      <trkpt lat="38.2018890" lon="-1.4519350">
        <ele>725.8</ele>
        <time>2021-11-06T18:30:20Z</time>
      </trkpt>
      <trkpt lat="38.2019100" lon="-1.4518560">
        <ele>725.0</ele>
        <time>2021-11-06T18:30:22Z</time>
      </trkpt>
      <trkpt lat="38.2019170" lon="-1.4518260">
        <ele>724.2</ele>
        <time>2021-11-06T18:30:23Z</time>
      </trkpt>
      <trkpt lat="38.2019280" lon="-1.4517780">
        <ele>722.6</ele>
        <time>2021-11-06T18:30:25Z</time>
      </trkpt>
      <trkpt lat="38.2019370" lon="-1.4517340">
        <ele>721.4</ele>
        <time>2021-11-06T18:30:27Z</time>
      </trkpt>
      <trkpt lat="38.2019390" lon="-1.4517050">
        <ele>720.8</ele>
        <time>2021-11-06T18:30:28Z</time>
      </trkpt>
      <trkpt lat="38.2019390" lon="-1.4516770">
        <ele>720.4</ele>
        <time>2021-11-06T18:30:29Z</time>
      </trkpt>
      <trkpt lat="38.2019270" lon="-1.4516310">
        <ele>719.2</ele>
        <time>2021-11-06T18:30:31Z</time>
      </trkpt>
      <trkpt lat="38.2019290" lon="-1.4515410">
        <ele>718.0</ele>
        <time>2021-11-06T18:30:35Z</time>
      </trkpt>
      <trkpt lat="38.2019740" lon="-1.4514360">
        <ele>716.8</ele>
        <time>2021-11-06T18:30:39Z</time>
      </trkpt>
      <trkpt lat="38.2020310" lon="-1.4513410">
        <ele>715.8</ele>
        <time>2021-11-06T18:30:42Z</time>
      </trkpt>
      <trkpt lat="38.2020520" lon="-1.4513080">
        <ele>715.6</ele>
        <time>2021-11-06T18:30:43Z</time>
      </trkpt>
      <trkpt lat="38.2020760" lon="-1.4512790">
        <ele>715.6</ele>
        <time>2021-11-06T18:30:44Z</time>
      </trkpt>
      <trkpt lat="38.2021410" lon="-1.4512120">
        <ele>714.8</ele>
        <time>2021-11-06T18:30:47Z</time>
      </trkpt>
      <trkpt lat="38.2022070" lon="-1.4511230">
        <ele>713.6</ele>
        <time>2021-11-06T18:30:51Z</time>
      </trkpt>
      <trkpt lat="38.2022210" lon="-1.4510960">
        <ele>713.2</ele>
        <time>2021-11-06T18:30:53Z</time>
      </trkpt>
      <trkpt lat="38.2022510" lon="-1.4510520">
        <ele>712.6</ele>
        <time>2021-11-06T18:30:55Z</time>
      </trkpt>
      <trkpt lat="38.2023100" lon="-1.4509700">
        <ele>711.2</ele>
        <time>2021-11-06T18:30:59Z</time>
      </trkpt>
      <trkpt lat="38.2023690" lon="-1.4508560">
        <ele>709.8</ele>
        <time>2021-11-06T18:31:05Z</time>
      </trkpt>
      <trkpt lat="38.2024200" lon="-1.4507160">
        <ele>708.6</ele>
        <time>2021-11-06T18:31:10Z</time>
      </trkpt>
      <trkpt lat="38.2024840" lon="-1.4506610">
        <ele>708.6</ele>
        <time>2021-11-06T18:31:15Z</time>
      </trkpt>
      <trkpt lat="38.2025190" lon="-1.4506620">
        <ele>708.0</ele>
        <time>2021-11-06T18:31:17Z</time>
      </trkpt>
      <trkpt lat="38.2025540" lon="-1.4506580">
        <ele>707.2</ele>
        <time>2021-11-06T18:31:19Z</time>
      </trkpt>
      <trkpt lat="38.2025990" lon="-1.4506540">
        <ele>706.4</ele>
        <time>2021-11-06T18:31:21Z</time>
      </trkpt>
      <trkpt lat="38.2026220" lon="-1.4506500">
        <ele>706.2</ele>
        <time>2021-11-06T18:31:22Z</time>
      </trkpt>
      <trkpt lat="38.2026960" lon="-1.4506100">
        <ele>704.4</ele>
        <time>2021-11-06T18:31:27Z</time>
      </trkpt>
      <trkpt lat="38.2027020" lon="-1.4506020">
        <ele>703.8</ele>
        <time>2021-11-06T18:31:28Z</time>
      </trkpt>
      <trkpt lat="38.2027280" lon="-1.4505640">
        <ele>703.2</ele>
        <time>2021-11-06T18:31:30Z</time>
      </trkpt>
      <trkpt lat="38.2027640" lon="-1.4505170">
        <ele>701.8</ele>
        <time>2021-11-06T18:31:33Z</time>
      </trkpt>
      <trkpt lat="38.2027790" lon="-1.4505060">
        <ele>701.4</ele>
        <time>2021-11-06T18:31:34Z</time>
      </trkpt>
      <trkpt lat="38.2027960" lon="-1.4504960">
        <ele>700.4</ele>
        <time>2021-11-06T18:31:35Z</time>
      </trkpt>
      <trkpt lat="38.2028300" lon="-1.4504880">
        <ele>699.2</ele>
        <time>2021-11-06T18:31:37Z</time>
      </trkpt>
      <trkpt lat="38.2028530" lon="-1.4504720">
        <ele>697.8</ele>
        <time>2021-11-06T18:31:39Z</time>
      </trkpt>
      <trkpt lat="38.2028610" lon="-1.4504710">
        <ele>697.2</ele>
        <time>2021-11-06T18:31:40Z</time>
      </trkpt>
      <trkpt lat="38.2028780" lon="-1.4504670">
        <ele>696.2</ele>
        <time>2021-11-06T18:31:42Z</time>
      </trkpt>
      <trkpt lat="38.2029110" lon="-1.4504370">
        <ele>694.8</ele>
        <time>2021-11-06T18:31:45Z</time>
      </trkpt>
      <trkpt lat="38.2029200" lon="-1.4504310">
        <ele>694.6</ele>
        <time>2021-11-06T18:31:46Z</time>
      </trkpt>
      <trkpt lat="38.2029710" lon="-1.4504040">
        <ele>692.6</ele>
        <time>2021-11-06T18:31:50Z</time>
      </trkpt>
      <trkpt lat="38.2030060" lon="-1.4504030">
        <ele>691.2</ele>
        <time>2021-11-06T18:31:52Z</time>
      </trkpt>
      <trkpt lat="38.2030370" lon="-1.4504220">
        <ele>690.0</ele>
        <time>2021-11-06T18:31:54Z</time>
      </trkpt>
      <trkpt lat="38.2030760" lon="-1.4504530">
        <ele>688.8</ele>
        <time>2021-11-06T18:31:57Z</time>
      </trkpt>
      <trkpt lat="38.2031000" lon="-1.4504610">
        <ele>688.2</ele>
        <time>2021-11-06T18:31:59Z</time>
      </trkpt>
      <trkpt lat="38.2031150" lon="-1.4504580">
        <ele>687.6</ele>
        <time>2021-11-06T18:32:00Z</time>
      </trkpt>
      <trkpt lat="38.2031450" lon="-1.4504290">
        <ele>686.8</ele>
        <time>2021-11-06T18:32:02Z</time>
      </trkpt>
      <trkpt lat="38.2031600" lon="-1.4504200">
        <ele>686.4</ele>
        <time>2021-11-06T18:32:03Z</time>
      </trkpt>
      <trkpt lat="38.2031880" lon="-1.4504030">
        <ele>685.8</ele>
        <time>2021-11-06T18:32:05Z</time>
      </trkpt>
      <trkpt lat="38.2032000" lon="-1.4503970">
        <ele>685.0</ele>
        <time>2021-11-06T18:32:06Z</time>
      </trkpt>
      <trkpt lat="38.2032410" lon="-1.4503590">
        <ele>683.4</ele>
        <time>2021-11-06T18:32:09Z</time>
      </trkpt>
      <trkpt lat="38.2032610" lon="-1.4503470">
        <ele>682.6</ele>
        <time>2021-11-06T18:32:11Z</time>
      </trkpt>
      <trkpt lat="38.2032620" lon="-1.4503540">
        <ele>681.8</ele>
        <time>2021-11-06T18:32:12Z</time>
      </trkpt>
      <trkpt lat="38.2032710" lon="-1.4503310">
        <ele>680.0</ele>
        <time>2021-11-06T18:32:14Z</time>
      </trkpt>
      <trkpt lat="38.2032950" lon="-1.4503330">
        <ele>678.8</ele>
        <time>2021-11-06T18:32:16Z</time>
      </trkpt>
      <trkpt lat="38.2033120" lon="-1.4503390">
        <ele>678.6</ele>
        <time>2021-11-06T18:32:17Z</time>
      </trkpt>
      <trkpt lat="38.2033330" lon="-1.4503460">
        <ele>678.4</ele>
        <time>2021-11-06T18:32:18Z</time>
      </trkpt>
      <trkpt lat="38.2033710" lon="-1.4503500">
        <ele>677.6</ele>
        <time>2021-11-06T18:32:20Z</time>
      </trkpt>
      <trkpt lat="38.2033960" lon="-1.4503520">
        <ele>676.8</ele>
        <time>2021-11-06T18:32:22Z</time>
      </trkpt>
      <trkpt lat="38.2034130" lon="-1.4503510">
        <ele>676.6</ele>
        <time>2021-11-06T18:32:23Z</time>
      </trkpt>
      <trkpt lat="38.2034300" lon="-1.4503510">
        <ele>676.2</ele>
        <time>2021-11-06T18:32:24Z</time>
      </trkpt>
      <trkpt lat="38.2035120" lon="-1.4503500">
        <ele>674.6</ele>
        <time>2021-11-06T18:32:29Z</time>
      </trkpt>
      <trkpt lat="38.2035400" lon="-1.4503460">
        <ele>673.4</ele>
        <time>2021-11-06T18:32:31Z</time>
      </trkpt>
      <trkpt lat="38.2035900" lon="-1.4503480">
        <ele>672.2</ele>
        <time>2021-11-06T18:32:35Z</time>
      </trkpt>
      <trkpt lat="38.2036310" lon="-1.4504070">
        <ele>671.0</ele>
        <time>2021-11-06T18:32:39Z</time>
      </trkpt>
      <trkpt lat="38.2036360" lon="-1.4504210">
        <ele>670.4</ele>
        <time>2021-11-06T18:32:40Z</time>
      </trkpt>
      <trkpt lat="38.2036420" lon="-1.4504330">
        <ele>670.0</ele>
        <time>2021-11-06T18:32:41Z</time>
      </trkpt>
      <trkpt lat="38.2036560" lon="-1.4504610">
        <ele>668.8</ele>
        <time>2021-11-06T18:32:43Z</time>
      </trkpt>
      <trkpt lat="38.2036850" lon="-1.4504870">
        <ele>667.8</ele>
        <time>2021-11-06T18:32:46Z</time>
      </trkpt>
      <trkpt lat="38.2036960" lon="-1.4504910">
        <ele>667.6</ele>
        <time>2021-11-06T18:32:47Z</time>
      </trkpt>
      <trkpt lat="38.2037320" lon="-1.4505030">
        <ele>666.2</ele>
        <time>2021-11-06T18:32:50Z</time>
      </trkpt>
      <trkpt lat="38.2037450" lon="-1.4505030">
        <ele>665.8</ele>
        <time>2021-11-06T18:32:51Z</time>
      </trkpt>
      <trkpt lat="38.2037730" lon="-1.4505140">
        <ele>664.6</ele>
        <time>2021-11-06T18:32:53Z</time>
      </trkpt>
      <trkpt lat="38.2037870" lon="-1.4505260">
        <ele>664.2</ele>
        <time>2021-11-06T18:32:54Z</time>
      </trkpt>
      <trkpt lat="38.2038140" lon="-1.4505530">
        <ele>663.6</ele>
        <time>2021-11-06T18:32:56Z</time>
      </trkpt>
      <trkpt lat="38.2038560" lon="-1.4506070">
        <ele>662.4</ele>
        <time>2021-11-06T18:32:59Z</time>
      </trkpt>
      <trkpt lat="38.2038920" lon="-1.4506580">
        <ele>661.4</ele>
        <time>2021-11-06T18:33:02Z</time>
      </trkpt>
      <trkpt lat="38.2039400" lon="-1.4507500">
        <ele>659.8</ele>
        <time>2021-11-06T18:33:06Z</time>
      </trkpt>
      <trkpt lat="38.2039480" lon="-1.4507760">
        <ele>659.4</ele>
        <time>2021-11-06T18:33:07Z</time>
      </trkpt>
      <trkpt lat="38.2039710" lon="-1.4508070">
        <ele>658.6</ele>
        <time>2021-11-06T18:33:09Z</time>
      </trkpt>
      <trkpt lat="38.2039860" lon="-1.4508390">
        <ele>657.8</ele>
        <time>2021-11-06T18:33:11Z</time>
      </trkpt>
      <trkpt lat="38.2040010" lon="-1.4508800">
        <ele>657.6</ele>
        <time>2021-11-06T18:33:13Z</time>
      </trkpt>
      <trkpt lat="38.2040130" lon="-1.4509000">
        <ele>657.4</ele>
        <time>2021-11-06T18:33:14Z</time>
      </trkpt>
      <trkpt lat="38.2040510" lon="-1.4509500">
        <ele>655.6</ele>
        <time>2021-11-06T18:33:17Z</time>
      </trkpt>
      <trkpt lat="38.2040640" lon="-1.4509660">
        <ele>654.6</ele>
        <time>2021-11-06T18:33:18Z</time>
      </trkpt>
      <trkpt lat="38.2040790" lon="-1.4509830">
        <ele>654.0</ele>
        <time>2021-11-06T18:33:19Z</time>
      </trkpt>
      <trkpt lat="38.2041120" lon="-1.4510200">
        <ele>653.4</ele>
        <time>2021-11-06T18:33:21Z</time>
      </trkpt>
      <trkpt lat="38.2041690" lon="-1.4510520">
        <ele>652.2</ele>
        <time>2021-11-06T18:33:24Z</time>
      </trkpt>
      <trkpt lat="38.2041890" lon="-1.4510640">
        <ele>651.6</ele>
        <time>2021-11-06T18:33:25Z</time>
      </trkpt>
      <trkpt lat="38.2042310" lon="-1.4510760">
        <ele>651.2</ele>
        <time>2021-11-06T18:33:27Z</time>
      </trkpt>
      <trkpt lat="38.2042740" lon="-1.4510950">
        <ele>650.0</ele>
        <time>2021-11-06T18:33:29Z</time>
      </trkpt>
      <trkpt lat="38.2043580" lon="-1.4511190">
        <ele>648.8</ele>
        <time>2021-11-06T18:33:33Z</time>
      </trkpt>
      <trkpt lat="38.2043790" lon="-1.4511230">
        <ele>648.4</ele>
        <time>2021-11-06T18:33:34Z</time>
      </trkpt>
      <trkpt lat="38.2044290" lon="-1.4511380">
        <ele>647.6</ele>
        <time>2021-11-06T18:33:36Z</time>
      </trkpt>
      <trkpt lat="38.2045080" lon="-1.4511540">
        <ele>646.6</ele>
        <time>2021-11-06T18:33:39Z</time>
      </trkpt>
      <trkpt lat="38.2045300" lon="-1.4511610">
        <ele>646.0</ele>
        <time>2021-11-06T18:33:40Z</time>
      </trkpt>
      <trkpt lat="38.2045510" lon="-1.4511720">
        <ele>645.4</ele>
        <time>2021-11-06T18:33:41Z</time>
      </trkpt>
      <trkpt lat="38.2046160" lon="-1.4512050">
        <ele>644.4</ele>
        <time>2021-11-06T18:33:44Z</time>
      </trkpt>
      <trkpt lat="38.2046500" lon="-1.4512290">
        <ele>643.8</ele>
        <time>2021-11-06T18:33:46Z</time>
      </trkpt>
      <trkpt lat="38.2046810" lon="-1.4512490">
        <ele>643.4</ele>
        <time>2021-11-06T18:33:48Z</time>
      </trkpt>
      <trkpt lat="38.2046950" lon="-1.4512500">
        <ele>643.2</ele>
        <time>2021-11-06T18:33:49Z</time>
      </trkpt>
      <trkpt lat="38.2047130" lon="-1.4512540">
        <ele>643.0</ele>
        <time>2021-11-06T18:33:50Z</time>
      </trkpt>
      <trkpt lat="38.2047490" lon="-1.4512630">
        <ele>642.2</ele>
        <time>2021-11-06T18:33:52Z</time>
      </trkpt>
      <trkpt lat="38.2047980" lon="-1.4512620">
        <ele>641.8</ele>
        <time>2021-11-06T18:33:55Z</time>
      </trkpt>
      <trkpt lat="38.2048500" lon="-1.4512360">
        <ele>641.0</ele>
        <time>2021-11-06T18:33:58Z</time>
      </trkpt>
      <trkpt lat="38.2048810" lon="-1.4512330">
        <ele>640.2</ele>
        <time>2021-11-06T18:34:00Z</time>
      </trkpt>
      <trkpt lat="38.2048980" lon="-1.4512370">
        <ele>639.8</ele>
        <time>2021-11-06T18:34:01Z</time>
      </trkpt>
      <trkpt lat="38.2049290" lon="-1.4512290">
        <ele>638.6</ele>
        <time>2021-11-06T18:34:03Z</time>
      </trkpt>
      <trkpt lat="38.2049470" lon="-1.4512310">
        <ele>637.4</ele>
        <time>2021-11-06T18:34:05Z</time>
      </trkpt>
      <trkpt lat="38.2049820" lon="-1.4512190">
        <ele>636.4</ele>
        <time>2021-11-06T18:34:09Z</time>
      </trkpt>
      <trkpt lat="38.2049910" lon="-1.4512120">
        <ele>636.2</ele>
        <time>2021-11-06T18:34:10Z</time>
      </trkpt>
      <trkpt lat="38.2050090" lon="-1.4511810">
        <ele>635.2</ele>
        <time>2021-11-06T18:34:12Z</time>
      </trkpt>
      <trkpt lat="38.2050150" lon="-1.4511700">
        <ele>635.2</ele>
        <time>2021-11-06T18:34:13Z</time>
      </trkpt>
      <trkpt lat="38.2050260" lon="-1.4511470">
        <ele>634.6</ele>
        <time>2021-11-06T18:34:15Z</time>
      </trkpt>
      <trkpt lat="38.2050500" lon="-1.4511190">
        <ele>633.4</ele>
        <time>2021-11-06T18:34:18Z</time>
      </trkpt>
      <trkpt lat="38.2050660" lon="-1.4511100">
        <ele>632.0</ele>
        <time>2021-11-06T18:34:20Z</time>
      </trkpt>
      <trkpt lat="38.2051180" lon="-1.4510730">
        <ele>630.6</ele>
        <time>2021-11-06T18:34:25Z</time>
      </trkpt>
      <trkpt lat="38.2051310" lon="-1.4510720">
        <ele>629.8</ele>
        <time>2021-11-06T18:34:26Z</time>
      </trkpt>
      <trkpt lat="38.2051490" lon="-1.4510700">
        <ele>629.2</ele>
        <time>2021-11-06T18:34:27Z</time>
      </trkpt>
      <trkpt lat="38.2052020" lon="-1.4510650">
        <ele>627.8</ele>
        <time>2021-11-06T18:34:30Z</time>
      </trkpt>
      <trkpt lat="38.2052260" lon="-1.4510620">
        <ele>627.2</ele>
        <time>2021-11-06T18:34:32Z</time>
      </trkpt>
      <trkpt lat="38.2052340" lon="-1.4510600">
        <ele>626.6</ele>
        <time>2021-11-06T18:34:33Z</time>
      </trkpt>
      <trkpt lat="38.2052530" lon="-1.4510440">
        <ele>625.4</ele>
        <time>2021-11-06T18:34:36Z</time>
      </trkpt>
      <trkpt lat="38.2052610" lon="-1.4510430">
        <ele>625.4</ele>
        <time>2021-11-06T18:34:37Z</time>
      </trkpt>
      <trkpt lat="38.2052800" lon="-1.4510640">
        <ele>624.8</ele>
        <time>2021-11-06T18:34:39Z</time>
      </trkpt>
      <trkpt lat="38.2052990" lon="-1.4510700">
        <ele>624.4</ele>
        <time>2021-11-06T18:34:41Z</time>
      </trkpt>
      <trkpt lat="38.2053180" lon="-1.4510700">
        <ele>623.2</ele>
        <time>2021-11-06T18:34:43Z</time>
      </trkpt>
      <trkpt lat="38.2053240" lon="-1.4510680">
        <ele>622.4</ele>
        <time>2021-11-06T18:34:44Z</time>
      </trkpt>
      <trkpt lat="38.2053250" lon="-1.4510640">
        <ele>621.8</ele>
        <time>2021-11-06T18:34:45Z</time>
      </trkpt>
      <trkpt lat="38.2053560" lon="-1.4510380">
        <ele>621.2</ele>
        <time>2021-11-06T18:34:51Z</time>
      </trkpt>
      <trkpt lat="38.2053810" lon="-1.4510350">
        <ele>620.2</ele>
        <time>2021-11-06T18:34:53Z</time>
      </trkpt>
      <trkpt lat="38.2054090" lon="-1.4510210">
        <ele>618.6</ele>
        <time>2021-11-06T18:34:55Z</time>
      </trkpt>
      <trkpt lat="38.2054420" lon="-1.4509910">
        <ele>617.2</ele>
        <time>2021-11-06T18:34:58Z</time>
      </trkpt>
      <trkpt lat="38.2054580" lon="-1.4509860">
        <ele>616.0</ele>
        <time>2021-11-06T18:35:00Z</time>
      </trkpt>
      <trkpt lat="38.2054720" lon="-1.4509850">
        <ele>615.2</ele>
        <time>2021-11-06T18:35:02Z</time>
      </trkpt>
      <trkpt lat="38.2054790" lon="-1.4509770">
        <ele>615.0</ele>
        <time>2021-11-06T18:35:03Z</time>
      </trkpt>
      <trkpt lat="38.2054920" lon="-1.4509600">
        <ele>614.4</ele>
        <time>2021-11-06T18:35:05Z</time>
      </trkpt>
      <trkpt lat="38.2055020" lon="-1.4509570">
        <ele>614.0</ele>
        <time>2021-11-06T18:35:06Z</time>
      </trkpt>
      <trkpt lat="38.2055380" lon="-1.4509530">
        <ele>612.2</ele>
        <time>2021-11-06T18:35:09Z</time>
      </trkpt>
      <trkpt lat="38.2055450" lon="-1.4509430">
        <ele>611.6</ele>
        <time>2021-11-06T18:35:10Z</time>
      </trkpt>
      <trkpt lat="38.2055520" lon="-1.4509310">
        <ele>611.0</ele>
        <time>2021-11-06T18:35:11Z</time>
      </trkpt>
      <trkpt lat="38.2055690" lon="-1.4509260">
        <ele>610.6</ele>
        <time>2021-11-06T18:35:13Z</time>
      </trkpt>
      <trkpt lat="38.2055860" lon="-1.4509370">
        <ele>610.2</ele>
        <time>2021-11-06T18:35:15Z</time>
      </trkpt>
      <trkpt lat="38.2055880" lon="-1.4509410">
        <ele>609.8</ele>
        <time>2021-11-06T18:35:16Z</time>
      </trkpt>
      <trkpt lat="38.2055910" lon="-1.4509440">
        <ele>609.4</ele>
        <time>2021-11-06T18:35:17Z</time>
      </trkpt>
      <trkpt lat="38.2055990" lon="-1.4509350">
        <ele>609.0</ele>
        <time>2021-11-06T18:35:20Z</time>
      </trkpt>
      <trkpt lat="38.2056040" lon="-1.4509220">
        <ele>608.8</ele>
        <time>2021-11-06T18:35:22Z</time>
      </trkpt>
      <trkpt lat="38.2056010" lon="-1.4509150">
        <ele>608.6</ele>
        <time>2021-11-06T18:35:24Z</time>
      </trkpt>
      <trkpt lat="38.2056020" lon="-1.4509130">
        <ele>608.6</ele>
        <time>2021-11-06T18:35:25Z</time>
      </trkpt>
      <trkpt lat="38.2056480" lon="-1.4509130">
        <ele>608.2</ele>
        <time>2021-11-06T18:35:31Z</time>
      </trkpt>
      <trkpt lat="38.2056560" lon="-1.4509110">
        <ele>607.2</ele>
        <time>2021-11-06T18:35:32Z</time>
      </trkpt>
      <trkpt lat="38.2056900" lon="-1.4508760">
        <ele>606.2</ele>
        <time>2021-11-06T18:35:36Z</time>
      </trkpt>
      <trkpt lat="38.2056980" lon="-1.4508690">
        <ele>605.8</ele>
        <time>2021-11-06T18:35:37Z</time>
      </trkpt>
      <trkpt lat="38.2057070" lon="-1.4508650">
        <ele>605.6</ele>
        <time>2021-11-06T18:35:38Z</time>
      </trkpt>
      <trkpt lat="38.2057330" lon="-1.4508410">
        <ele>605.0</ele>
        <time>2021-11-06T18:35:41Z</time>
      </trkpt>
      <trkpt lat="38.2057440" lon="-1.4508200">
        <ele>604.0</ele>
        <time>2021-11-06T18:35:43Z</time>
      </trkpt>
      <trkpt lat="38.2057500" lon="-1.4508140">
        <ele>603.6</ele>
        <time>2021-11-06T18:35:44Z</time>
      </trkpt>
      <trkpt lat="38.2057620" lon="-1.4508050">
        <ele>602.4</ele>
        <time>2021-11-06T18:35:46Z</time>
      </trkpt>
      <trkpt lat="38.2057750" lon="-1.4507640">
        <ele>601.2</ele>
        <time>2021-11-06T18:35:50Z</time>
      </trkpt>
      <trkpt lat="38.2057800" lon="-1.4507440">
        <ele>600.4</ele>
        <time>2021-11-06T18:35:52Z</time>
      </trkpt>
      <trkpt lat="38.2057790" lon="-1.4507140">
        <ele>600.0</ele>
        <time>2021-11-06T18:35:54Z</time>
      </trkpt>
      <trkpt lat="38.2057760" lon="-1.4507000">
        <ele>599.6</ele>
        <time>2021-11-06T18:35:55Z</time>
      </trkpt>
      <trkpt lat="38.2057740" lon="-1.4506890">
        <ele>599.0</ele>
        <time>2021-11-06T18:35:56Z</time>
      </trkpt>
      <trkpt lat="38.2057740" lon="-1.4506790">
        <ele>598.6</ele>
        <time>2021-11-06T18:35:57Z</time>
      </trkpt>
      <trkpt lat="38.2057790" lon="-1.4506370">
        <ele>597.6</ele>
        <time>2021-11-06T18:36:00Z</time>
      </trkpt>
      <trkpt lat="38.2057800" lon="-1.4506170">
        <ele>597.2</ele>
        <time>2021-11-06T18:36:01Z</time>
      </trkpt>
      <trkpt lat="38.2057820" lon="-1.4505990">
        <ele>596.8</ele>
        <time>2021-11-06T18:36:02Z</time>
      </trkpt>
      <trkpt lat="38.2057830" lon="-1.4505780">
        <ele>596.4</ele>
        <time>2021-11-06T18:36:03Z</time>
      </trkpt>
      <trkpt lat="38.2057930" lon="-1.4505200">
        <ele>594.8</ele>
        <time>2021-11-06T18:36:06Z</time>
      </trkpt>
      <trkpt lat="38.2058010" lon="-1.4504800">
        <ele>593.4</ele>
        <time>2021-11-06T18:36:08Z</time>
      </trkpt>
      <trkpt lat="38.2058090" lon="-1.4504400">
        <ele>592.4</ele>
        <time>2021-11-06T18:36:10Z</time>
      </trkpt>
      <trkpt lat="38.2058140" lon="-1.4504060">
        <ele>591.2</ele>
        <time>2021-11-06T18:36:12Z</time>
      </trkpt>
      <trkpt lat="38.2058180" lon="-1.4503680">
        <ele>590.0</ele>
        <time>2021-11-06T18:36:14Z</time>
      </trkpt>
      <trkpt lat="38.2058350" lon="-1.4503280">
        <ele>589.0</ele>
        <time>2021-11-06T18:36:16Z</time>
      </trkpt>
      <trkpt lat="38.2058570" lon="-1.4502430">
        <ele>587.8</ele>
        <time>2021-11-06T18:36:20Z</time>
      </trkpt>
      <trkpt lat="38.2058810" lon="-1.4502210">
        <ele>586.8</ele>
        <time>2021-11-06T18:36:22Z</time>
      </trkpt>
      <trkpt lat="38.2058970" lon="-1.4502120">
        <ele>586.2</ele>
        <time>2021-11-06T18:36:23Z</time>
      </trkpt>
      <trkpt lat="38.2059190" lon="-1.4502040">
        <ele>585.6</ele>
        <time>2021-11-06T18:36:24Z</time>
      </trkpt>
      <trkpt lat="38.2059380" lon="-1.4501980">
        <ele>585.2</ele>
        <time>2021-11-06T18:36:25Z</time>
      </trkpt>
      <trkpt lat="38.2059820" lon="-1.4501640">
        <ele>584.4</ele>
        <time>2021-11-06T18:36:27Z</time>
      </trkpt>
      <trkpt lat="38.2060110" lon="-1.4500920">
        <ele>583.2</ele>
        <time>2021-11-06T18:36:31Z</time>
      </trkpt>
      <trkpt lat="38.2060000" lon="-1.4500220">
        <ele>582.6</ele>
        <time>2021-11-06T18:36:33Z</time>
      </trkpt>
      <trkpt lat="38.2060020" lon="-1.4499640">
        <ele>582.4</ele>
        <time>2021-11-06T18:36:35Z</time>
      </trkpt>
      <trkpt lat="38.2060010" lon="-1.4498520">
        <ele>581.6</ele>
        <time>2021-11-06T18:36:38Z</time>
      </trkpt>
      <trkpt lat="38.2059990" lon="-1.4497180">
        <ele>581.2</ele>
        <time>2021-11-06T18:36:42Z</time>
      </trkpt>
      <trkpt lat="38.2060060" lon="-1.4496310">
        <ele>580.6</ele>
        <time>2021-11-06T18:36:45Z</time>
      </trkpt>
      <trkpt lat="38.2060270" lon="-1.4495850">
        <ele>580.0</ele>
        <time>2021-11-06T18:36:48Z</time>
      </trkpt>
      <trkpt lat="38.2060430" lon="-1.4495380">
        <ele>579.6</ele>
        <time>2021-11-06T18:36:51Z</time>
      </trkpt>
      <trkpt lat="38.2060530" lon="-1.4495000">
        <ele>579.4</ele>
        <time>2021-11-06T18:36:53Z</time>
      </trkpt>
      <trkpt lat="38.2061050" lon="-1.4494330">
        <ele>579.4</ele>
        <time>2021-11-06T18:37:00Z</time>
      </trkpt>
      <trkpt lat="38.2061440" lon="-1.4494270">
        <ele>579.4</ele>
        <time>2021-11-06T18:37:02Z</time>
      </trkpt>
      <trkpt lat="38.2062060" lon="-1.4494440">
        <ele>580.0</ele>
        <time>2021-11-06T18:37:06Z</time>
      </trkpt>
      <trkpt lat="38.2062970" lon="-1.4495190">
        <ele>579.2</ele>
        <time>2021-11-06T18:37:14Z</time>
      </trkpt>
      <trkpt lat="38.2063110" lon="-1.4495460">
        <ele>578.4</ele>
        <time>2021-11-06T18:37:16Z</time>
      </trkpt>
      <trkpt lat="38.2063270" lon="-1.4495760">
        <ele>577.2</ele>
        <time>2021-11-06T18:37:19Z</time>
      </trkpt>
      <trkpt lat="38.2063320" lon="-1.4495700">
        <ele>577.0</ele>
        <time>2021-11-06T18:37:20Z</time>
      </trkpt>
      <trkpt lat="38.2063410" lon="-1.4495620">
        <ele>576.8</ele>
        <time>2021-11-06T18:37:23Z</time>
      </trkpt>
      <trkpt lat="38.2063390" lon="-1.4495580">
        <ele>576.8</ele>
        <time>2021-11-06T18:37:25Z</time>
      </trkpt>
      <trkpt lat="38.2063280" lon="-1.4495550">
        <ele>576.2</ele>
        <time>2021-11-06T18:37:31Z</time>
      </trkpt>
      <trkpt lat="38.2063310" lon="-1.4495590">
        <ele>576.2</ele>
        <time>2021-11-06T18:37:38Z</time>
      </trkpt>
      <trkpt lat="38.2063720" lon="-1.4496150">
        <ele>576.4</ele>
        <time>2021-11-06T18:37:46Z</time>
      </trkpt>
      <trkpt lat="38.2064150" lon="-1.4497250">
        <ele>575.6</ele>
        <time>2021-11-06T18:37:50Z</time>
      </trkpt>
      <trkpt lat="38.2064380" lon="-1.4497860">
        <ele>575.2</ele>
        <time>2021-11-06T18:37:52Z</time>
      </trkpt>
      <trkpt lat="38.2064620" lon="-1.4498780">
        <ele>574.0</ele>
        <time>2021-11-06T18:37:56Z</time>
      </trkpt>
      <trkpt lat="38.2064720" lon="-1.4499090">
        <ele>573.6</ele>
        <time>2021-11-06T18:37:57Z</time>
      </trkpt>
      <trkpt lat="38.2064940" lon="-1.4499670">
        <ele>573.0</ele>
        <time>2021-11-06T18:37:59Z</time>
      </trkpt>
      <trkpt lat="38.2065500" lon="-1.4500820">
        <ele>572.4</ele>
        <time>2021-11-06T18:38:03Z</time>
      </trkpt>
      <trkpt lat="38.2065910" lon="-1.4501560">
        <ele>571.8</ele>
        <time>2021-11-06T18:38:06Z</time>
      </trkpt>
      <trkpt lat="38.2066640" lon="-1.4502350">
        <ele>571.2</ele>
        <time>2021-11-06T18:38:10Z</time>
      </trkpt>
      <trkpt lat="38.2068190" lon="-1.4503320">
        <ele>570.4</ele>
        <time>2021-11-06T18:38:17Z</time>
      </trkpt>
      <trkpt lat="38.2068990" lon="-1.4503370">
        <ele>569.4</ele>
        <time>2021-11-06T18:38:20Z</time>
      </trkpt>
      <trkpt lat="38.2069950" lon="-1.4503270">
        <ele>569.2</ele>
        <time>2021-11-06T18:38:23Z</time>
      </trkpt>
      <trkpt lat="38.2070760" lon="-1.4503440">
        <ele>568.2</ele>
        <time>2021-11-06T18:38:26Z</time>
      </trkpt>
      <trkpt lat="38.2071750" lon="-1.4503950">
        <ele>567.8</ele>
        <time>2021-11-06T18:38:30Z</time>
      </trkpt>
      <trkpt lat="38.2072360" lon="-1.4504480">
        <ele>567.2</ele>
        <time>2021-11-06T18:38:33Z</time>
      </trkpt>
      <trkpt lat="38.2072810" lon="-1.4504740">
        <ele>566.2</ele>
        <time>2021-11-06T18:38:35Z</time>
      </trkpt>
      <trkpt lat="38.2073210" lon="-1.4504750">
        <ele>566.0</ele>
        <time>2021-11-06T18:38:37Z</time>
      </trkpt>
      <trkpt lat="38.2073520" lon="-1.4504180">
        <ele>564.6</ele>
        <time>2021-11-06T18:38:40Z</time>
      </trkpt>
      <trkpt lat="38.2073540" lon="-1.4503350">
        <ele>563.8</ele>
        <time>2021-11-06T18:38:42Z</time>
      </trkpt>
      <trkpt lat="38.2073460" lon="-1.4502840">
        <ele>563.6</ele>
        <time>2021-11-06T18:38:43Z</time>
      </trkpt>
      <trkpt lat="38.2073600" lon="-1.4502580">
        <ele>563.6</ele>
        <time>2021-11-06T18:38:44Z</time>
      </trkpt>
      <trkpt lat="38.2073100" lon="-1.4501040">
        <ele>562.4</ele>
        <time>2021-11-06T18:38:48Z</time>
      </trkpt>
      <trkpt lat="38.2072950" lon="-1.4500800">
        <ele>562.0</ele>
        <time>2021-11-06T18:38:49Z</time>
      </trkpt>
      <trkpt lat="38.2072600" lon="-1.4500380">
        <ele>561.2</ele>
        <time>2021-11-06T18:38:51Z</time>
      </trkpt>
      <trkpt lat="38.2071540" lon="-1.4499750">
        <ele>560.2</ele>
        <time>2021-11-06T18:38:55Z</time>
      </trkpt>
      <trkpt lat="38.2071210" lon="-1.4499690">
        <ele>560.0</ele>
        <time>2021-11-06T18:38:56Z</time>
      </trkpt>
      <trkpt lat="38.2070110" lon="-1.4499500">
        <ele>558.8</ele>
        <time>2021-11-06T18:39:00Z</time>
      </trkpt>
      <trkpt lat="38.2069870" lon="-1.4499460">
        <ele>558.8</ele>
        <time>2021-11-06T18:39:01Z</time>
      </trkpt>
      <trkpt lat="38.2069640" lon="-1.4499420">
        <ele>558.4</ele>
        <time>2021-11-06T18:39:02Z</time>
      </trkpt>
      <trkpt lat="38.2068930" lon="-1.4499280">
        <ele>557.8</ele>
        <time>2021-11-06T18:39:05Z</time>
      </trkpt>
      <trkpt lat="38.2068740" lon="-1.4499210">
        <ele>557.6</ele>
        <time>2021-11-06T18:39:06Z</time>
      </trkpt>
      <trkpt lat="38.2068280" lon="-1.4498760">
        <ele>557.2</ele>
        <time>2021-11-06T18:39:09Z</time>
      </trkpt>
      <trkpt lat="38.2068130" lon="-1.4498140">
        <ele>557.2</ele>
        <time>2021-11-06T18:39:11Z</time>
      </trkpt>
      <trkpt lat="38.2067840" lon="-1.4496920">
        <ele>556.6</ele>
        <time>2021-11-06T18:39:14Z</time>
      </trkpt>
      <trkpt lat="38.2067790" lon="-1.4496650">
        <ele>556.2</ele>
        <time>2021-11-06T18:39:15Z</time>
      </trkpt>
      <trkpt lat="38.2067310" lon="-1.4494450">
        <ele>555.8</ele>
        <time>2021-11-06T18:39:20Z</time>
      </trkpt>
      <trkpt lat="38.2067290" lon="-1.4493680">
        <ele>555.4</ele>
        <time>2021-11-06T18:39:22Z</time>
      </trkpt>
      <trkpt lat="38.2067400" lon="-1.4492020">
        <ele>554.2</ele>
        <time>2021-11-06T18:39:26Z</time>
      </trkpt>
      <trkpt lat="38.2067450" lon="-1.4491650">
        <ele>553.8</ele>
        <time>2021-11-06T18:39:27Z</time>
      </trkpt>
      <trkpt lat="38.2067640" lon="-1.4490730">
        <ele>553.2</ele>
        <time>2021-11-06T18:39:30Z</time>
      </trkpt>
      <trkpt lat="38.2067840" lon="-1.4489780">
        <ele>552.4</ele>
        <time>2021-11-06T18:39:33Z</time>
      </trkpt>
      <trkpt lat="38.2067910" lon="-1.4489080">
        <ele>552.0</ele>
        <time>2021-11-06T18:39:35Z</time>
      </trkpt>
      <trkpt lat="38.2067970" lon="-1.4488170">
        <ele>550.6</ele>
        <time>2021-11-06T18:39:38Z</time>
      </trkpt>
      <trkpt lat="38.2067980" lon="-1.4487880">
        <ele>550.2</ele>
        <time>2021-11-06T18:39:39Z</time>
      </trkpt>
      <trkpt lat="38.2067770" lon="-1.4486790">
        <ele>549.4</ele>
        <time>2021-11-06T18:39:43Z</time>
      </trkpt>
      <trkpt lat="38.2067710" lon="-1.4486470">
        <ele>549.4</ele>
        <time>2021-11-06T18:39:44Z</time>
      </trkpt>
      <trkpt lat="38.2067510" lon="-1.4485200">
        <ele>548.2</ele>
        <time>2021-11-06T18:39:48Z</time>
      </trkpt>
      <trkpt lat="38.2067130" lon="-1.4484210">
        <ele>547.6</ele>
        <time>2021-11-06T18:39:51Z</time>
      </trkpt>
      <trkpt lat="38.2066760" lon="-1.4483380">
        <ele>547.2</ele>
        <time>2021-11-06T18:39:53Z</time>
      </trkpt>
      <trkpt lat="38.2066400" lon="-1.4482760">
        <ele>546.0</ele>
        <time>2021-11-06T18:39:55Z</time>
      </trkpt>
      <trkpt lat="38.2066280" lon="-1.4482510">
        <ele>545.6</ele>
        <time>2021-11-06T18:39:56Z</time>
      </trkpt>
      <trkpt lat="38.2066040" lon="-1.4482040">
        <ele>545.0</ele>
        <time>2021-11-06T18:39:58Z</time>
      </trkpt>
      <trkpt lat="38.2066010" lon="-1.4481620">
        <ele>543.8</ele>
        <time>2021-11-06T18:40:00Z</time>
      </trkpt>
      <trkpt lat="38.2066010" lon="-1.4481370">
        <ele>543.6</ele>
        <time>2021-11-06T18:40:01Z</time>
      </trkpt>
      <trkpt lat="38.2065630" lon="-1.4480070">
        <ele>542.8</ele>
        <time>2021-11-06T18:40:05Z</time>
      </trkpt>
      <trkpt lat="38.2065570" lon="-1.4479390">
        <ele>542.2</ele>
        <time>2021-11-06T18:40:07Z</time>
      </trkpt>
      <trkpt lat="38.2065670" lon="-1.4478930">
        <ele>541.6</ele>
        <time>2021-11-06T18:40:09Z</time>
      </trkpt>
      <trkpt lat="38.2065890" lon="-1.4478810">
        <ele>541.4</ele>
        <time>2021-11-06T18:40:11Z</time>
      </trkpt>
      <trkpt lat="38.2066040" lon="-1.4478790">
        <ele>541.2</ele>
        <time>2021-11-06T18:40:12Z</time>
      </trkpt>
      <trkpt lat="38.2066590" lon="-1.4478950">
        <ele>540.0</ele>
        <time>2021-11-06T18:40:14Z</time>
      </trkpt>
      <trkpt lat="38.2066830" lon="-1.4479050">
        <ele>539.6</ele>
        <time>2021-11-06T18:40:15Z</time>
      </trkpt>
      <trkpt lat="38.2067060" lon="-1.4479180">
        <ele>539.4</ele>
        <time>2021-11-06T18:40:16Z</time>
      </trkpt>
      <trkpt lat="38.2067330" lon="-1.4479410">
        <ele>539.0</ele>
        <time>2021-11-06T18:40:17Z</time>
      </trkpt>
      <trkpt lat="38.2068100" lon="-1.4480150">
        <ele>538.0</ele>
        <time>2021-11-06T18:40:20Z</time>
      </trkpt>
      <trkpt lat="38.2068320" lon="-1.4480430">
        <ele>537.6</ele>
        <time>2021-11-06T18:40:21Z</time>
      </trkpt>
      <trkpt lat="38.2068730" lon="-1.4480870">
        <ele>536.8</ele>
        <time>2021-11-06T18:40:23Z</time>
      </trkpt>
      <trkpt lat="38.2069840" lon="-1.4481880">
        <ele>535.4</ele>
        <time>2021-11-06T18:40:28Z</time>
      </trkpt>
      <trkpt lat="38.2070820" lon="-1.4482960">
        <ele>534.4</ele>
        <time>2021-11-06T18:40:33Z</time>
      </trkpt>
      <trkpt lat="38.2071030" lon="-1.4483180">
        <ele>534.2</ele>
        <time>2021-11-06T18:40:34Z</time>
      </trkpt>
      <trkpt lat="38.2071430" lon="-1.4483560">
        <ele>533.2</ele>
        <time>2021-11-06T18:40:36Z</time>
      </trkpt>
      <trkpt lat="38.2072070" lon="-1.4484530">
        <ele>532.2</ele>
        <time>2021-11-06T18:40:40Z</time>
      </trkpt>
      <trkpt lat="38.2072210" lon="-1.4484830">
        <ele>532.2</ele>
        <time>2021-11-06T18:40:41Z</time>
      </trkpt>
      <trkpt lat="38.2072540" lon="-1.4485910">
        <ele>531.8</ele>
        <time>2021-11-06T18:40:45Z</time>
      </trkpt>
      <trkpt lat="38.2072730" lon="-1.4487700">
        <ele>531.2</ele>
        <time>2021-11-06T18:40:50Z</time>
      </trkpt>
      <trkpt lat="38.2072780" lon="-1.4488040">
        <ele>531.2</ele>
        <time>2021-11-06T18:40:51Z</time>
      </trkpt>
      <trkpt lat="38.2072750" lon="-1.4489600">
        <ele>531.0</ele>
        <time>2021-11-06T18:40:56Z</time>
      </trkpt>
      <trkpt lat="38.2072710" lon="-1.4490520">
        <ele>530.4</ele>
        <time>2021-11-06T18:40:59Z</time>
      </trkpt>
      <trkpt lat="38.2072700" lon="-1.4491220">
        <ele>530.2</ele>
        <time>2021-11-06T18:41:01Z</time>
      </trkpt>
      <trkpt lat="38.2072820" lon="-1.4491830">
        <ele>530.0</ele>
        <time>2021-11-06T18:41:03Z</time>
      </trkpt>
      <trkpt lat="38.2073440" lon="-1.4492780">
        <ele>529.4</ele>
        <time>2021-11-06T18:41:07Z</time>
      </trkpt>
      <trkpt lat="38.2074630" lon="-1.4493170">
        <ele>529.0</ele>
        <time>2021-11-06T18:41:12Z</time>
      </trkpt>
      <trkpt lat="38.2076310" lon="-1.4494170">
        <ele>528.8</ele>
        <time>2021-11-06T18:41:18Z</time>
      </trkpt>
      <trkpt lat="38.2076580" lon="-1.4494390">
        <ele>528.2</ele>
        <time>2021-11-06T18:41:19Z</time>
      </trkpt>
      <trkpt lat="38.2076840" lon="-1.4494580">
        <ele>527.6</ele>
        <time>2021-11-06T18:41:20Z</time>
      </trkpt>
      <trkpt lat="38.2077970" lon="-1.4495490">
        <ele>527.0</ele>
        <time>2021-11-06T18:41:25Z</time>
      </trkpt>
      <trkpt lat="38.2078880" lon="-1.4496910">
        <ele>526.6</ele>
        <time>2021-11-06T18:41:31Z</time>
      </trkpt>
      <trkpt lat="38.2079610" lon="-1.4498220">
        <ele>525.4</ele>
        <time>2021-11-06T18:41:36Z</time>
      </trkpt>
      <trkpt lat="38.2079880" lon="-1.4498710">
        <ele>524.8</ele>
        <time>2021-11-06T18:41:38Z</time>
      </trkpt>
      <trkpt lat="38.2080380" lon="-1.4499940">
        <ele>524.4</ele>
        <time>2021-11-06T18:41:43Z</time>
      </trkpt>
      <trkpt lat="38.2080510" lon="-1.4500170">
        <ele>524.2</ele>
        <time>2021-11-06T18:41:44Z</time>
      </trkpt>
      <trkpt lat="38.2081120" lon="-1.4501530">
        <ele>523.8</ele>
        <time>2021-11-06T18:41:49Z</time>
      </trkpt>
      <trkpt lat="38.2081350" lon="-1.4502170">
        <ele>523.0</ele>
        <time>2021-11-06T18:41:51Z</time>
      </trkpt>
      <trkpt lat="38.2081700" lon="-1.4503330">
        <ele>522.2</ele>
        <time>2021-11-06T18:41:55Z</time>
      </trkpt>
      <trkpt lat="38.2081900" lon="-1.4504050">
        <ele>521.8</ele>
        <time>2021-11-06T18:41:57Z</time>
      </trkpt>
      <trkpt lat="38.2082270" lon="-1.4505180">
        <ele>520.8</ele>
        <time>2021-11-06T18:42:01Z</time>
      </trkpt>
      <trkpt lat="38.2082360" lon="-1.4505490">
        <ele>520.6</ele>
        <time>2021-11-06T18:42:02Z</time>
      </trkpt>
      <trkpt lat="38.2083230" lon="-1.4507120">
        <ele>519.6</ele>
        <time>2021-11-06T18:42:08Z</time>
      </trkpt>
      <trkpt lat="38.2083490" lon="-1.4507340">
        <ele>519.0</ele>
        <time>2021-11-06T18:42:09Z</time>
      </trkpt>
      <trkpt lat="38.2084290" lon="-1.4507590">
        <ele>518.0</ele>
        <time>2021-11-06T18:42:12Z</time>
      </trkpt>
      <trkpt lat="38.2084860" lon="-1.4507510">
        <ele>517.4</ele>
        <time>2021-11-06T18:42:14Z</time>
      </trkpt>
      <trkpt lat="38.2085330" lon="-1.4507190">
        <ele>516.4</ele>
        <time>2021-11-06T18:42:16Z</time>
      </trkpt>
      <trkpt lat="38.2085770" lon="-1.4506730">
        <ele>515.8</ele>
        <time>2021-11-06T18:42:18Z</time>
      </trkpt>
      <trkpt lat="38.2086270" lon="-1.4505520">
        <ele>515.2</ele>
        <time>2021-11-06T18:42:22Z</time>
      </trkpt>
      <trkpt lat="38.2086320" lon="-1.4505150">
        <ele>515.2</ele>
        <time>2021-11-06T18:42:23Z</time>
      </trkpt>
      <trkpt lat="38.2086430" lon="-1.4504420">
        <ele>514.0</ele>
        <time>2021-11-06T18:42:25Z</time>
      </trkpt>
      <trkpt lat="38.2086580" lon="-1.4503370">
        <ele>513.2</ele>
        <time>2021-11-06T18:42:28Z</time>
      </trkpt>
      <trkpt lat="38.2086630" lon="-1.4503030">
        <ele>513.0</ele>
        <time>2021-11-06T18:42:29Z</time>
      </trkpt>
      <trkpt lat="38.2086350" lon="-1.4501350">
        <ele>511.6</ele>
        <time>2021-11-06T18:42:34Z</time>
      </trkpt>
      <trkpt lat="38.2086240" lon="-1.4501050">
        <ele>511.2</ele>
        <time>2021-11-06T18:42:35Z</time>
      </trkpt>
      <trkpt lat="38.2085750" lon="-1.4499990">
        <ele>510.0</ele>
        <time>2021-11-06T18:42:39Z</time>
      </trkpt>
      <trkpt lat="38.2085510" lon="-1.4499380">
        <ele>509.4</ele>
        <time>2021-11-06T18:42:41Z</time>
      </trkpt>
      <trkpt lat="38.2085320" lon="-1.4498900">
        <ele>509.0</ele>
        <time>2021-11-06T18:42:43Z</time>
      </trkpt>
      <trkpt lat="38.2084890" lon="-1.4497800">
        <ele>508.4</ele>
        <time>2021-11-06T18:42:47Z</time>
      </trkpt>
      <trkpt lat="38.2084390" lon="-1.4496510">
        <ele>508.0</ele>
        <time>2021-11-06T18:42:52Z</time>
      </trkpt>
      <trkpt lat="38.2084230" lon="-1.4496180">
        <ele>507.8</ele>
        <time>2021-11-06T18:42:53Z</time>
      </trkpt>
      <trkpt lat="38.2083200" lon="-1.4494130">
        <ele>508.2</ele>
        <time>2021-11-06T18:42:59Z</time>
      </trkpt>
      <trkpt lat="38.2082260" lon="-1.4492410">
        <ele>508.6</ele>
        <time>2021-11-06T18:43:05Z</time>
      </trkpt>
      <trkpt lat="38.2081540" lon="-1.4491310">
        <ele>509.0</ele>
        <time>2021-11-06T18:43:10Z</time>
      </trkpt>
      <trkpt lat="38.2080610" lon="-1.4489840">
        <ele>508.4</ele>
        <time>2021-11-06T18:43:15Z</time>
      </trkpt>
      <trkpt lat="38.2080080" lon="-1.4488100">
        <ele>506.6</ele>
        <time>2021-11-06T18:43:21Z</time>
      </trkpt>
      <trkpt lat="38.2080050" lon="-1.4487750">
        <ele>506.2</ele>
        <time>2021-11-06T18:43:22Z</time>
      </trkpt>
      <trkpt lat="38.2079930" lon="-1.4486560">
        <ele>505.4</ele>
        <time>2021-11-06T18:43:25Z</time>
      </trkpt>
      <trkpt lat="38.2079880" lon="-1.4485880">
        <ele>505.0</ele>
        <time>2021-11-06T18:43:27Z</time>
      </trkpt>
      <trkpt lat="38.2079860" lon="-1.4485300">
        <ele>504.4</ele>
        <time>2021-11-06T18:43:29Z</time>
      </trkpt>
      <trkpt lat="38.2079850" lon="-1.4483820">
        <ele>503.8</ele>
        <time>2021-11-06T18:43:33Z</time>
      </trkpt>
      <trkpt lat="38.2079880" lon="-1.4482850">
        <ele>503.2</ele>
        <time>2021-11-06T18:43:36Z</time>
      </trkpt>
      <trkpt lat="38.2079880" lon="-1.4481940">
        <ele>502.8</ele>
        <time>2021-11-06T18:43:39Z</time>
      </trkpt>
      <trkpt lat="38.2079910" lon="-1.4481270">
        <ele>501.8</ele>
        <time>2021-11-06T18:43:41Z</time>
      </trkpt>
      <trkpt lat="38.2079850" lon="-1.4479820">
        <ele>500.8</ele>
        <time>2021-11-06T18:43:45Z</time>
      </trkpt>
      <trkpt lat="38.2079830" lon="-1.4478310">
        <ele>499.2</ele>
        <time>2021-11-06T18:43:50Z</time>
      </trkpt>
      <trkpt lat="38.2079850" lon="-1.4477980">
        <ele>499.0</ele>
        <time>2021-11-06T18:43:51Z</time>
      </trkpt>
      <trkpt lat="38.2079930" lon="-1.4476490">
        <ele>498.2</ele>
        <time>2021-11-06T18:43:55Z</time>
      </trkpt>
      <trkpt lat="38.2079900" lon="-1.4475750">
        <ele>497.4</ele>
        <time>2021-11-06T18:43:57Z</time>
      </trkpt>
      <trkpt lat="38.2079840" lon="-1.4475170">
        <ele>497.0</ele>
        <time>2021-11-06T18:43:59Z</time>
      </trkpt>
      <trkpt lat="38.2079810" lon="-1.4474390">
        <ele>496.0</ele>
        <time>2021-11-06T18:44:02Z</time>
      </trkpt>
      <trkpt lat="38.2080100" lon="-1.4473010">
        <ele>495.0</ele>
        <time>2021-11-06T18:44:06Z</time>
      </trkpt>
      <trkpt lat="38.2080240" lon="-1.4472290">
        <ele>494.8</ele>
        <time>2021-11-06T18:44:08Z</time>
      </trkpt>
      <trkpt lat="38.2080370" lon="-1.4471510">
        <ele>493.8</ele>
        <time>2021-11-06T18:44:10Z</time>
      </trkpt>
      <trkpt lat="38.2080620" lon="-1.4469990">
        <ele>493.2</ele>
        <time>2021-11-06T18:44:14Z</time>
      </trkpt>
      <trkpt lat="38.2080950" lon="-1.4468180">
        <ele>492.4</ele>
        <time>2021-11-06T18:44:19Z</time>
      </trkpt>
      <trkpt lat="38.2081040" lon="-1.4467830">
        <ele>492.4</ele>
        <time>2021-11-06T18:44:20Z</time>
      </trkpt>
      <trkpt lat="38.2080910" lon="-1.4466130">
        <ele>491.6</ele>
        <time>2021-11-06T18:44:26Z</time>
      </trkpt>
      <trkpt lat="38.2080100" lon="-1.4465530">
        <ele>492.0</ele>
        <time>2021-11-06T18:44:31Z</time>
      </trkpt>
      <trkpt lat="38.2078930" lon="-1.4465130">
        <ele>492.2</ele>
        <time>2021-11-06T18:44:36Z</time>
      </trkpt>
      <trkpt lat="38.2077870" lon="-1.4464240">
        <ele>491.8</ele>
        <time>2021-11-06T18:44:42Z</time>
      </trkpt>
      <trkpt lat="38.2077470" lon="-1.4463680">
        <ele>491.2</ele>
        <time>2021-11-06T18:44:44Z</time>
      </trkpt>
      <trkpt lat="38.2076880" lon="-1.4462770">
        <ele>491.0</ele>
        <time>2021-11-06T18:44:47Z</time>
      </trkpt>
      <trkpt lat="38.2076190" lon="-1.4461080">
        <ele>490.2</ele>
        <time>2021-11-06T18:44:53Z</time>
      </trkpt>
      <trkpt lat="38.2076150" lon="-1.4460840">
        <ele>490.0</ele>
        <time>2021-11-06T18:44:54Z</time>
      </trkpt>
      <trkpt lat="38.2075910" lon="-1.4460010">
        <ele>489.0</ele>
        <time>2021-11-06T18:44:57Z</time>
      </trkpt>
      <trkpt lat="38.2075630" lon="-1.4458730">
        <ele>488.0</ele>
        <time>2021-11-06T18:45:01Z</time>
      </trkpt>
      <trkpt lat="38.2075590" lon="-1.4458270">
        <ele>487.6</ele>
        <time>2021-11-06T18:45:02Z</time>
      </trkpt>
      <trkpt lat="38.2075620" lon="-1.4457870">
        <ele>487.0</ele>
        <time>2021-11-06T18:45:03Z</time>
      </trkpt>
      <trkpt lat="38.2075850" lon="-1.4457470">
        <ele>486.4</ele>
        <time>2021-11-06T18:45:05Z</time>
      </trkpt>
      <trkpt lat="38.2076340" lon="-1.4457280">
        <ele>485.6</ele>
        <time>2021-11-06T18:45:07Z</time>
      </trkpt>
      <trkpt lat="38.2077270" lon="-1.4457450">
        <ele>484.4</ele>
        <time>2021-11-06T18:45:10Z</time>
      </trkpt>
      <trkpt lat="38.2078100" lon="-1.4457990">
        <ele>483.2</ele>
        <time>2021-11-06T18:45:13Z</time>
      </trkpt>
      <trkpt lat="38.2079490" lon="-1.4459180">
        <ele>481.6</ele>
        <time>2021-11-06T18:45:19Z</time>
      </trkpt>
      <trkpt lat="38.2081120" lon="-1.4460340">
        <ele>480.6</ele>
        <time>2021-11-06T18:45:26Z</time>
      </trkpt>
      <trkpt lat="38.2081360" lon="-1.4460500">
        <ele>480.6</ele>
        <time>2021-11-06T18:45:27Z</time>
      </trkpt>
      <trkpt lat="38.2082600" lon="-1.4460890">
        <ele>479.4</ele>
        <time>2021-11-06T18:45:32Z</time>
      </trkpt>
      <trkpt lat="38.2083930" lon="-1.4460400">
        <ele>478.0</ele>
        <time>2021-11-06T18:45:38Z</time>
      </trkpt>
      <trkpt lat="38.2084240" lon="-1.4460060">
        <ele>477.0</ele>
        <time>2021-11-06T18:45:40Z</time>
      </trkpt>
      <trkpt lat="38.2084690" lon="-1.4458760">
        <ele>475.8</ele>
        <time>2021-11-06T18:45:44Z</time>
      </trkpt>
      <trkpt lat="38.2084690" lon="-1.4457630">
        <ele>474.8</ele>
        <time>2021-11-06T18:45:49Z</time>
      </trkpt>
      <trkpt lat="38.2084580" lon="-1.4456830">
        <ele>473.4</ele>
        <time>2021-11-06T18:45:52Z</time>
      </trkpt>
      <trkpt lat="38.2084360" lon="-1.4456020">
        <ele>472.2</ele>
        <time>2021-11-06T18:45:55Z</time>
      </trkpt>
      <trkpt lat="38.2084230" lon="-1.4455480">
        <ele>471.2</ele>
        <time>2021-11-06T18:45:57Z</time>
      </trkpt>
      <trkpt lat="38.2084090" lon="-1.4454860">
        <ele>469.8</ele>
        <time>2021-11-06T18:45:59Z</time>
      </trkpt>
      <trkpt lat="38.2083880" lon="-1.4454300">
        <ele>469.0</ele>
        <time>2021-11-06T18:46:01Z</time>
      </trkpt>
      <trkpt lat="38.2083730" lon="-1.4454010">
        <ele>468.0</ele>
        <time>2021-11-06T18:46:02Z</time>
      </trkpt>
      <trkpt lat="38.2082870" lon="-1.4452980">
        <ele>467.0</ele>
        <time>2021-11-06T18:46:06Z</time>
      </trkpt>
      <trkpt lat="38.2082610" lon="-1.4452720">
        <ele>466.8</ele>
        <time>2021-11-06T18:46:07Z</time>
      </trkpt>
      <trkpt lat="38.2082190" lon="-1.4452300">
        <ele>466.0</ele>
        <time>2021-11-06T18:46:09Z</time>
      </trkpt>
      <trkpt lat="38.2081310" lon="-1.4451660">
        <ele>465.8</ele>
        <time>2021-11-06T18:46:13Z</time>
      </trkpt>
      <trkpt lat="38.2079620" lon="-1.4450940">
        <ele>466.0</ele>
        <time>2021-11-06T18:46:20Z</time>
      </trkpt>
      <trkpt lat="38.2078410" lon="-1.4450750">
        <ele>464.8</ele>
        <time>2021-11-06T18:46:24Z</time>
      </trkpt>
      <trkpt lat="38.2077730" lon="-1.4450650">
        <ele>464.2</ele>
        <time>2021-11-06T18:46:27Z</time>
      </trkpt>
      <trkpt lat="38.2077490" lon="-1.4450590">
        <ele>463.8</ele>
        <time>2021-11-06T18:46:28Z</time>
      </trkpt>
      <trkpt lat="38.2076360" lon="-1.4450370">
        <ele>462.6</ele>
        <time>2021-11-06T18:46:32Z</time>
      </trkpt>
      <trkpt lat="38.2076110" lon="-1.4450330">
        <ele>462.4</ele>
        <time>2021-11-06T18:46:33Z</time>
      </trkpt>
      <trkpt lat="38.2075390" lon="-1.4450060">
        <ele>461.6</ele>
        <time>2021-11-06T18:46:36Z</time>
      </trkpt>
      <trkpt lat="38.2074900" lon="-1.4449840">
        <ele>460.0</ele>
        <time>2021-11-06T18:46:38Z</time>
      </trkpt>
      <trkpt lat="38.2074650" lon="-1.4449780">
        <ele>459.6</ele>
        <time>2021-11-06T18:46:39Z</time>
      </trkpt>
      <trkpt lat="38.2073890" lon="-1.4449510">
        <ele>459.0</ele>
        <time>2021-11-06T18:46:42Z</time>
      </trkpt>
      <trkpt lat="38.2072990" lon="-1.4449090">
        <ele>458.0</ele>
        <time>2021-11-06T18:46:45Z</time>
      </trkpt>
      <trkpt lat="38.2071690" lon="-1.4448490">
        <ele>456.6</ele>
        <time>2021-11-06T18:46:50Z</time>
      </trkpt>
      <trkpt lat="38.2071230" lon="-1.4448210">
        <ele>456.2</ele>
        <time>2021-11-06T18:46:52Z</time>
      </trkpt>
      <trkpt lat="38.2070760" lon="-1.4447890">
        <ele>455.6</ele>
        <time>2021-11-06T18:46:54Z</time>
      </trkpt>
      <trkpt lat="38.2070380" lon="-1.4447560">
        <ele>454.4</ele>
        <time>2021-11-06T18:46:56Z</time>
      </trkpt>
      <trkpt lat="38.2070030" lon="-1.4447190">
        <ele>453.4</ele>
        <time>2021-11-06T18:46:58Z</time>
      </trkpt>
      <trkpt lat="38.2069130" lon="-1.4446680">
        <ele>452.4</ele>
        <time>2021-11-06T18:47:03Z</time>
      </trkpt>
      <trkpt lat="38.2069010" lon="-1.4446570">
        <ele>452.2</ele>
        <time>2021-11-06T18:47:04Z</time>
      </trkpt>
      <trkpt lat="38.2068700" lon="-1.4445840">
        <ele>451.0</ele>
        <time>2021-11-06T18:47:07Z</time>
      </trkpt>
      <trkpt lat="38.2068600" lon="-1.4445390">
        <ele>450.0</ele>
        <time>2021-11-06T18:47:08Z</time>
      </trkpt>
      <trkpt lat="38.2068450" lon="-1.4444940">
        <ele>449.6</ele>
        <time>2021-11-06T18:47:09Z</time>
      </trkpt>
      <trkpt lat="38.2068430" lon="-1.4444050">
        <ele>449.0</ele>
        <time>2021-11-06T18:47:12Z</time>
      </trkpt>
      <trkpt lat="38.2068470" lon="-1.4443790">
        <ele>448.8</ele>
        <time>2021-11-06T18:47:13Z</time>
      </trkpt>
      <trkpt lat="38.2068490" lon="-1.4443460">
        <ele>448.6</ele>
        <time>2021-11-06T18:47:14Z</time>
      </trkpt>
      <trkpt lat="38.2068540" lon="-1.4442760">
        <ele>447.6</ele>
        <time>2021-11-06T18:47:16Z</time>
      </trkpt>
      <trkpt lat="38.2068800" lon="-1.4441740">
        <ele>446.6</ele>
        <time>2021-11-06T18:47:19Z</time>
      </trkpt>
      <trkpt lat="38.2068940" lon="-1.4440830">
        <ele>445.4</ele>
        <time>2021-11-06T18:47:22Z</time>
      </trkpt>
      <trkpt lat="38.2068940" lon="-1.4440250">
        <ele>444.6</ele>
        <time>2021-11-06T18:47:24Z</time>
      </trkpt>
      <trkpt lat="38.2068920" lon="-1.4439960">
        <ele>443.8</ele>
        <time>2021-11-06T18:47:25Z</time>
      </trkpt>
      <trkpt lat="38.2068780" lon="-1.4439320">
        <ele>442.6</ele>
        <time>2021-11-06T18:47:27Z</time>
      </trkpt>
      <trkpt lat="38.2068570" lon="-1.4438450">
        <ele>441.4</ele>
        <time>2021-11-06T18:47:30Z</time>
      </trkpt>
      <trkpt lat="38.2068500" lon="-1.4437660">
        <ele>440.2</ele>
        <time>2021-11-06T18:47:33Z</time>
      </trkpt>
      <trkpt lat="38.2068560" lon="-1.4436740">
        <ele>439.0</ele>
        <time>2021-11-06T18:47:36Z</time>
      </trkpt>
      <trkpt lat="38.2068220" lon="-1.4434810">
        <ele>437.4</ele>
        <time>2021-11-06T18:47:41Z</time>
      </trkpt>
      <trkpt lat="38.2068140" lon="-1.4434310">
        <ele>436.6</ele>
        <time>2021-11-06T18:47:43Z</time>
      </trkpt>
      <trkpt lat="38.2068140" lon="-1.4434050">
        <ele>436.0</ele>
        <time>2021-11-06T18:47:44Z</time>
      </trkpt>
      <trkpt lat="38.2068070" lon="-1.4433330">
        <ele>435.0</ele>
        <time>2021-11-06T18:47:47Z</time>
      </trkpt>
      <trkpt lat="38.2067960" lon="-1.4433010">
        <ele>434.6</ele>
        <time>2021-11-06T18:47:48Z</time>
      </trkpt>
      <trkpt lat="38.2067830" lon="-1.4432690">
        <ele>433.8</ele>
        <time>2021-11-06T18:47:49Z</time>
      </trkpt>
      <trkpt lat="38.2067620" lon="-1.4431840">
        <ele>432.8</ele>
        <time>2021-11-06T18:47:52Z</time>
      </trkpt>
      <trkpt lat="38.2067560" lon="-1.4431580">
        <ele>432.4</ele>
        <time>2021-11-06T18:47:53Z</time>
      </trkpt>
      <trkpt lat="38.2067080" lon="-1.4429590">
        <ele>431.6</ele>
        <time>2021-11-06T18:47:58Z</time>
      </trkpt>
      <trkpt lat="38.2066740" lon="-1.4428470">
        <ele>431.0</ele>
        <time>2021-11-06T18:48:01Z</time>
      </trkpt>
      <trkpt lat="38.2066370" lon="-1.4427370">
        <ele>430.6</ele>
        <time>2021-11-06T18:48:04Z</time>
      </trkpt>
      <trkpt lat="38.2066120" lon="-1.4426660">
        <ele>430.4</ele>
        <time>2021-11-06T18:48:06Z</time>
      </trkpt>
      <trkpt lat="38.2065940" lon="-1.4425690">
        <ele>429.8</ele>
        <time>2021-11-06T18:48:09Z</time>
      </trkpt>
      <trkpt lat="38.2065870" lon="-1.4425150">
        <ele>429.4</ele>
        <time>2021-11-06T18:48:11Z</time>
      </trkpt>
      <trkpt lat="38.2065740" lon="-1.4424520">
        <ele>428.2</ele>
        <time>2021-11-06T18:48:14Z</time>
      </trkpt>
      <trkpt lat="38.2065590" lon="-1.4423710">
        <ele>426.8</ele>
        <time>2021-11-06T18:48:17Z</time>
      </trkpt>
      <trkpt lat="38.2065500" lon="-1.4422270">
        <ele>425.8</ele>
        <time>2021-11-06T18:48:22Z</time>
      </trkpt>
      <trkpt lat="38.2065420" lon="-1.4421730">
        <ele>425.0</ele>
        <time>2021-11-06T18:48:24Z</time>
      </trkpt>
      <trkpt lat="38.2065300" lon="-1.4421430">
        <ele>424.6</ele>
        <time>2021-11-06T18:48:25Z</time>
      </trkpt>
      <trkpt lat="38.2064930" lon="-1.4420700">
        <ele>423.4</ele>
        <time>2021-11-06T18:48:27Z</time>
      </trkpt>
      <trkpt lat="38.2064440" lon="-1.4419580">
        <ele>422.6</ele>
        <time>2021-11-06T18:48:30Z</time>
      </trkpt>
      <trkpt lat="38.2064300" lon="-1.4418950">
        <ele>422.2</ele>
        <time>2021-11-06T18:48:32Z</time>
      </trkpt>
      <trkpt lat="38.2064090" lon="-1.4417840">
        <ele>421.4</ele>
        <time>2021-11-06T18:48:36Z</time>
      </trkpt>
      <trkpt lat="38.2063820" lon="-1.4416600">
        <ele>421.0</ele>
        <time>2021-11-06T18:48:41Z</time>
      </trkpt>
      <trkpt lat="38.2063790" lon="-1.4416550">
        <ele>420.8</ele>
        <time>2021-11-06T18:48:42Z</time>
      </trkpt>
      <trkpt lat="38.2063840" lon="-1.4416330">
        <ele>420.4</ele>
        <time>2021-11-06T18:48:45Z</time>
      </trkpt>
      <trkpt lat="38.2063940" lon="-1.4416290">
        <ele>420.4</ele>
        <time>2021-11-06T18:48:47Z</time>
      </trkpt>
      <trkpt lat="38.2064160" lon="-1.4416290">
        <ele>420.4</ele>
        <time>2021-11-06T18:48:50Z</time>
      </trkpt>
      <trkpt lat="38.2064230" lon="-1.4416390">
        <ele>420.4</ele>
        <time>2021-11-06T18:48:53Z</time>
      </trkpt>
      <trkpt lat="38.2064260" lon="-1.4416300">
        <ele>420.2</ele>
        <time>2021-11-06T18:49:02Z</time>
      </trkpt>
      <trkpt lat="38.2064730" lon="-1.4416580">
        <ele>420.6</ele>
        <time>2021-11-06T18:49:08Z</time>
      </trkpt>
      <trkpt lat="38.2065560" lon="-1.4417420">
        <ele>419.8</ele>
        <time>2021-11-06T18:49:13Z</time>
      </trkpt>
      <trkpt lat="38.2065930" lon="-1.4417790">
        <ele>419.2</ele>
        <time>2021-11-06T18:49:15Z</time>
      </trkpt>
      <trkpt lat="38.2066350" lon="-1.4418260">
        <ele>418.4</ele>
        <time>2021-11-06T18:49:17Z</time>
      </trkpt>
      <trkpt lat="38.2067170" lon="-1.4419130">
        <ele>417.2</ele>
        <time>2021-11-06T18:49:21Z</time>
      </trkpt>
      <trkpt lat="38.2067360" lon="-1.4419320">
        <ele>417.2</ele>
        <time>2021-11-06T18:49:22Z</time>
      </trkpt>
      <trkpt lat="38.2068230" lon="-1.4420190">
        <ele>416.2</ele>
        <time>2021-11-06T18:49:26Z</time>
      </trkpt>
      <trkpt lat="38.2069230" lon="-1.4420720">
        <ele>415.8</ele>
        <time>2021-11-06T18:49:30Z</time>
      </trkpt>
      <trkpt lat="38.2070050" lon="-1.4420920">
        <ele>414.8</ele>
        <time>2021-11-06T18:49:33Z</time>
      </trkpt>
      <trkpt lat="38.2070810" lon="-1.4421190">
        <ele>414.0</ele>
        <time>2021-11-06T18:49:36Z</time>
      </trkpt>
      <trkpt lat="38.2071060" lon="-1.4421230">
        <ele>413.8</ele>
        <time>2021-11-06T18:49:37Z</time>
      </trkpt>
      <trkpt lat="38.2072340" lon="-1.4421530">
        <ele>412.4</ele>
        <time>2021-11-06T18:49:42Z</time>
      </trkpt>
      <trkpt lat="38.2072890" lon="-1.4421610">
        <ele>412.0</ele>
        <time>2021-11-06T18:49:44Z</time>
      </trkpt>
      <trkpt lat="38.2073460" lon="-1.4421740">
        <ele>411.4</ele>
        <time>2021-11-06T18:49:46Z</time>
      </trkpt>
      <trkpt lat="38.2074250" lon="-1.4421980">
        <ele>410.2</ele>
        <time>2021-11-06T18:49:49Z</time>
      </trkpt>
      <trkpt lat="38.2075560" lon="-1.4422240">
        <ele>408.8</ele>
        <time>2021-11-06T18:49:54Z</time>
      </trkpt>
      <trkpt lat="38.2076100" lon="-1.4422470">
        <ele>408.4</ele>
        <time>2021-11-06T18:49:56Z</time>
      </trkpt>
      <trkpt lat="38.2076590" lon="-1.4422630">
        <ele>407.8</ele>
        <time>2021-11-06T18:49:58Z</time>
      </trkpt>
      <trkpt lat="38.2077370" lon="-1.4422580">
        <ele>406.6</ele>
        <time>2021-11-06T18:50:01Z</time>
      </trkpt>
      <trkpt lat="38.2077660" lon="-1.4422670">
        <ele>406.2</ele>
        <time>2021-11-06T18:50:02Z</time>
      </trkpt>
      <trkpt lat="38.2078790" lon="-1.4422870">
        <ele>405.2</ele>
        <time>2021-11-06T18:50:06Z</time>
      </trkpt>
      <trkpt lat="38.2079720" lon="-1.4423030">
        <ele>404.2</ele>
        <time>2021-11-06T18:50:09Z</time>
      </trkpt>
      <trkpt lat="38.2080030" lon="-1.4423110">
        <ele>404.2</ele>
        <time>2021-11-06T18:50:10Z</time>
      </trkpt>
      <trkpt lat="38.2081830" lon="-1.4423320">
        <ele>403.0</ele>
        <time>2021-11-06T18:50:16Z</time>
      </trkpt>
      <trkpt lat="38.2082620" lon="-1.4423630">
        <ele>401.8</ele>
        <time>2021-11-06T18:50:19Z</time>
      </trkpt>
      <trkpt lat="38.2083670" lon="-1.4424020">
        <ele>400.4</ele>
        <time>2021-11-06T18:50:23Z</time>
      </trkpt>
      <trkpt lat="38.2084450" lon="-1.4424160">
        <ele>399.2</ele>
        <time>2021-11-06T18:50:26Z</time>
      </trkpt>
      <trkpt lat="38.2085290" lon="-1.4424400">
        <ele>398.0</ele>
        <time>2021-11-06T18:50:29Z</time>
      </trkpt>
      <trkpt lat="38.2085890" lon="-1.4424440">
        <ele>397.0</ele>
        <time>2021-11-06T18:50:31Z</time>
      </trkpt>
      <trkpt lat="38.2086190" lon="-1.4424470">
        <ele>396.8</ele>
        <time>2021-11-06T18:50:32Z</time>
      </trkpt>
      <trkpt lat="38.2087350" lon="-1.4424510">
        <ele>396.2</ele>
        <time>2021-11-06T18:50:36Z</time>
      </trkpt>
      <trkpt lat="38.2088230" lon="-1.4424570">
        <ele>395.6</ele>
        <time>2021-11-06T18:50:39Z</time>
      </trkpt>
      <trkpt lat="38.2088790" lon="-1.4424560">
        <ele>395.0</ele>
        <time>2021-11-06T18:50:41Z</time>
      </trkpt>
      <trkpt lat="38.2089350" lon="-1.4424620">
        <ele>394.6</ele>
        <time>2021-11-06T18:50:43Z</time>
      </trkpt>
      <trkpt lat="38.2089870" lon="-1.4424480">
        <ele>393.4</ele>
        <time>2021-11-06T18:50:45Z</time>
      </trkpt>
      <trkpt lat="38.2090610" lon="-1.4424500">
        <ele>392.2</ele>
        <time>2021-11-06T18:50:48Z</time>
      </trkpt>
      <trkpt lat="38.2091090" lon="-1.4424480">
        <ele>391.2</ele>
        <time>2021-11-06T18:50:50Z</time>
      </trkpt>
      <trkpt lat="38.2091890" lon="-1.4424420">
        <ele>390.0</ele>
        <time>2021-11-06T18:50:53Z</time>
      </trkpt>
      <trkpt lat="38.2092370" lon="-1.4424210">
        <ele>389.2</ele>
        <time>2021-11-06T18:50:55Z</time>
      </trkpt>
      <trkpt lat="38.2092580" lon="-1.4424190">
        <ele>388.8</ele>
        <time>2021-11-06T18:50:56Z</time>
      </trkpt>
      <trkpt lat="38.2093230" lon="-1.4424370">
        <ele>387.6</ele>
        <time>2021-11-06T18:50:59Z</time>
      </trkpt>
      <trkpt lat="38.2093780" lon="-1.4424420">
        <ele>387.2</ele>
        <time>2021-11-06T18:51:01Z</time>
      </trkpt>
      <trkpt lat="38.2094620" lon="-1.4424320">
        <ele>386.4</ele>
        <time>2021-11-06T18:51:04Z</time>
      </trkpt>
      <trkpt lat="38.2095350" lon="-1.4424120">
        <ele>385.2</ele>
        <time>2021-11-06T18:51:07Z</time>
      </trkpt>
      <trkpt lat="38.2095560" lon="-1.4424060">
        <ele>385.0</ele>
        <time>2021-11-06T18:51:08Z</time>
      </trkpt>
      <trkpt lat="38.2096000" lon="-1.4424060">
        <ele>384.2</ele>
        <time>2021-11-06T18:51:10Z</time>
      </trkpt>
      <trkpt lat="38.2096730" lon="-1.4424080">
        <ele>383.0</ele>
        <time>2021-11-06T18:51:13Z</time>
      </trkpt>
      <trkpt lat="38.2096970" lon="-1.4424030">
        <ele>382.6</ele>
        <time>2021-11-06T18:51:14Z</time>
      </trkpt>
      <trkpt lat="38.2098320" lon="-1.4424050">
        <ele>382.2</ele>
        <time>2021-11-06T18:51:19Z</time>
      </trkpt>
      <trkpt lat="38.2098860" lon="-1.4424050">
        <ele>381.8</ele>
        <time>2021-11-06T18:51:21Z</time>
      </trkpt>
      <trkpt lat="38.2099760" lon="-1.4424240">
        <ele>380.6</ele>
        <time>2021-11-06T18:51:24Z</time>
      </trkpt>
      <trkpt lat="38.2100290" lon="-1.4424530">
        <ele>380.2</ele>
        <time>2021-11-06T18:51:26Z</time>
      </trkpt>
      <trkpt lat="38.2100790" lon="-1.4425320">
        <ele>379.4</ele>
        <time>2021-11-06T18:51:29Z</time>
      </trkpt>
      <trkpt lat="38.2100950" lon="-1.4425580">
        <ele>379.0</ele>
        <time>2021-11-06T18:51:30Z</time>
      </trkpt>
      <trkpt lat="38.2101630" lon="-1.4426710">
        <ele>378.4</ele>
        <time>2021-11-06T18:51:35Z</time>
      </trkpt>
      <trkpt lat="38.2102020" lon="-1.4427170">
        <ele>378.2</ele>
        <time>2021-11-06T18:51:37Z</time>
      </trkpt>
      <trkpt lat="38.2102750" lon="-1.4427780">
        <ele>377.2</ele>
        <time>2021-11-06T18:51:40Z</time>
      </trkpt>
      <trkpt lat="38.2103540" lon="-1.4428050">
        <ele>376.2</ele>
        <time>2021-11-06T18:51:43Z</time>
      </trkpt>
      <trkpt lat="38.2104570" lon="-1.4427910">
        <ele>374.8</ele>
        <time>2021-11-06T18:51:47Z</time>
      </trkpt>
      <trkpt lat="38.2104680" lon="-1.4427650">
        <ele>374.6</ele>
        <time>2021-11-06T18:51:48Z</time>
      </trkpt>
      <trkpt lat="38.2105860" lon="-1.4427170">
        <ele>373.4</ele>
        <time>2021-11-06T18:51:53Z</time>
      </trkpt>
      <trkpt lat="38.2106100" lon="-1.4427130">
        <ele>373.0</ele>
        <time>2021-11-06T18:51:54Z</time>
      </trkpt>
      <trkpt lat="38.2106560" lon="-1.4427020">
        <ele>372.2</ele>
        <time>2021-11-06T18:51:56Z</time>
      </trkpt>
      <trkpt lat="38.2107410" lon="-1.4426740">
        <ele>371.8</ele>
        <time>2021-11-06T18:52:00Z</time>
      </trkpt>
      <trkpt lat="38.2109030" lon="-1.4426450">
        <ele>371.2</ele>
        <time>2021-11-06T18:52:05Z</time>
      </trkpt>
      <trkpt lat="38.2109290" lon="-1.4426230">
        <ele>371.2</ele>
        <time>2021-11-06T18:52:06Z</time>
      </trkpt>
      <trkpt lat="38.2110940" lon="-1.4424720">
        <ele>370.2</ele>
        <time>2021-11-06T18:52:13Z</time>
      </trkpt>
      <trkpt lat="38.2111140" lon="-1.4424430">
        <ele>370.0</ele>
        <time>2021-11-06T18:52:14Z</time>
      </trkpt>
      <trkpt lat="38.2111740" lon="-1.4423650">
        <ele>368.6</ele>
        <time>2021-11-06T18:52:17Z</time>
      </trkpt>
      <trkpt lat="38.2111940" lon="-1.4423370">
        <ele>368.2</ele>
        <time>2021-11-06T18:52:18Z</time>
      </trkpt>
      <trkpt lat="38.2112510" lon="-1.4422480">
        <ele>367.4</ele>
        <time>2021-11-06T18:52:21Z</time>
      </trkpt>
      <trkpt lat="38.2113170" lon="-1.4421250">
        <ele>366.8</ele>
        <time>2021-11-06T18:52:25Z</time>
      </trkpt>
      <trkpt lat="38.2113750" lon="-1.4419910">
        <ele>366.4</ele>
        <time>2021-11-06T18:52:29Z</time>
      </trkpt>
      <trkpt lat="38.2113980" lon="-1.4419200">
        <ele>366.4</ele>
        <time>2021-11-06T18:52:31Z</time>
      </trkpt>
      <trkpt lat="38.2114300" lon="-1.4418250">
        <ele>365.4</ele>
        <time>2021-11-06T18:52:34Z</time>
      </trkpt>
      <trkpt lat="38.2114450" lon="-1.4417600">
        <ele>365.2</ele>
        <time>2021-11-06T18:52:36Z</time>
      </trkpt>
      <trkpt lat="38.2114740" lon="-1.4415420">
        <ele>364.4</ele>
        <time>2021-11-06T18:52:42Z</time>
      </trkpt>
      <trkpt lat="38.2114770" lon="-1.4415060">
        <ele>364.2</ele>
        <time>2021-11-06T18:52:43Z</time>
      </trkpt>
      <trkpt lat="38.2114880" lon="-1.4413660">
        <ele>363.0</ele>
        <time>2021-11-06T18:52:47Z</time>
      </trkpt>
      <trkpt lat="38.2114930" lon="-1.4413410">
        <ele>362.6</ele>
        <time>2021-11-06T18:52:48Z</time>
      </trkpt>
      <trkpt lat="38.2115120" lon="-1.4412990">
        <ele>361.8</ele>
        <time>2021-11-06T18:52:50Z</time>
      </trkpt>
      <trkpt lat="38.2115310" lon="-1.4412840">
        <ele>361.6</ele>
        <time>2021-11-06T18:52:51Z</time>
      </trkpt>
      <trkpt lat="38.2115820" lon="-1.4412710">
        <ele>361.4</ele>
        <time>2021-11-06T18:52:53Z</time>
      </trkpt>
      <trkpt lat="38.2117150" lon="-1.4413300">
        <ele>360.8</ele>
        <time>2021-11-06T18:52:58Z</time>
      </trkpt>
      <trkpt lat="38.2117780" lon="-1.4413820">
        <ele>360.8</ele>
        <time>2021-11-06T18:53:01Z</time>
      </trkpt>
      <trkpt lat="38.2118260" lon="-1.4414110">
        <ele>360.8</ele>
        <time>2021-11-06T18:53:03Z</time>
      </trkpt>
      <trkpt lat="38.2119410" lon="-1.4414720">
        <ele>360.8</ele>
        <time>2021-11-06T18:53:08Z</time>
      </trkpt>
      <trkpt lat="38.2121210" lon="-1.4415220">
        <ele>361.0</ele>
        <time>2021-11-06T18:53:15Z</time>
      </trkpt>
      <trkpt lat="38.2122630" lon="-1.4414760">
        <ele>361.2</ele>
        <time>2021-11-06T18:53:21Z</time>
      </trkpt>
      <trkpt lat="38.2123480" lon="-1.4413470">
        <ele>361.6</ele>
        <time>2021-11-06T18:53:26Z</time>
      </trkpt>
      <trkpt lat="38.2123590" lon="-1.4413130">
        <ele>361.6</ele>
        <time>2021-11-06T18:53:27Z</time>
      </trkpt>
      <trkpt lat="38.2123660" lon="-1.4411400">
        <ele>361.0</ele>
        <time>2021-11-06T18:53:32Z</time>
      </trkpt>
      <trkpt lat="38.2123500" lon="-1.4409690">
        <ele>359.8</ele>
        <time>2021-11-06T18:53:37Z</time>
      </trkpt>
      <trkpt lat="38.2123370" lon="-1.4408970">
        <ele>359.6</ele>
        <time>2021-11-06T18:53:39Z</time>
      </trkpt>
      <trkpt lat="38.2123280" lon="-1.4407580">
        <ele>358.6</ele>
        <time>2021-11-06T18:53:43Z</time>
      </trkpt>
      <trkpt lat="38.2123190" lon="-1.4406890">
        <ele>358.4</ele>
        <time>2021-11-06T18:53:45Z</time>
      </trkpt>
      <trkpt lat="38.2123260" lon="-1.4405160">
        <ele>357.2</ele>
        <time>2021-11-06T18:53:50Z</time>
      </trkpt>
      <trkpt lat="38.2123340" lon="-1.4404840">
        <ele>357.0</ele>
        <time>2021-11-06T18:53:51Z</time>
      </trkpt>
      <trkpt lat="38.2124110" lon="-1.4403270">
        <ele>356.6</ele>
        <time>2021-11-06T18:53:56Z</time>
      </trkpt>
      <trkpt lat="38.2124330" lon="-1.4403030">
        <ele>357.0</ele>
        <time>2021-11-06T18:53:57Z</time>
      </trkpt>
      <trkpt lat="38.2125150" lon="-1.4402440">
        <ele>356.6</ele>
        <time>2021-11-06T18:54:00Z</time>
      </trkpt>
      <trkpt lat="38.2126380" lon="-1.4402030">
        <ele>356.2</ele>
        <time>2021-11-06T18:54:05Z</time>
      </trkpt>
      <trkpt lat="38.2126800" lon="-1.4402140">
        <ele>356.0</ele>
        <time>2021-11-06T18:54:07Z</time>
      </trkpt>
      <trkpt lat="38.2127510" lon="-1.4402740">
        <ele>357.2</ele>
        <time>2021-11-06T18:54:12Z</time>
      </trkpt>
      <trkpt lat="38.2128220" lon="-1.4403770">
        <ele>356.8</ele>
        <time>2021-11-06T18:54:19Z</time>
      </trkpt>
      <trkpt lat="38.2128760" lon="-1.4404480">
        <ele>356.8</ele>
        <time>2021-11-06T18:54:26Z</time>
      </trkpt>
      <trkpt lat="38.2128850" lon="-1.4404580">
        <ele>357.4</ele>
        <time>2021-11-06T18:54:27Z</time>
      </trkpt>
      <trkpt lat="38.2129320" lon="-1.4405070">
        <ele>358.4</ele>
        <time>2021-11-06T18:54:32Z</time>
      </trkpt>
      <trkpt lat="38.2129580" lon="-1.4405350">
        <ele>358.4</ele>
        <time>2021-11-06T18:54:35Z</time>
      </trkpt>
      <trkpt lat="38.2129660" lon="-1.4405550">
        <ele>357.2</ele>
        <time>2021-11-06T18:54:38Z</time>
      </trkpt>
      <trkpt lat="38.2129720" lon="-1.4405620">
        <ele>356.8</ele>
        <time>2021-11-06T18:54:40Z</time>
      </trkpt>
      <trkpt lat="38.2129750" lon="-1.4405600">
        <ele>357.2</ele>
        <time>2021-11-06T18:54:46Z</time>
      </trkpt>
      <trkpt lat="38.2129770" lon="-1.4405710">
        <ele>357.4</ele>
        <time>2021-11-06T18:54:51Z</time>
      </trkpt>
      <trkpt lat="38.2129770" lon="-1.4405980">
        <ele>357.4</ele>
        <time>2021-11-06T18:54:58Z</time>
      </trkpt>
      <trkpt lat="38.2130270" lon="-1.4406570">
        <ele>357.4</ele>
        <time>2021-11-06T18:55:04Z</time>
      </trkpt>
      <trkpt lat="38.2130360" lon="-1.4406720">
        <ele>357.4</ele>
        <time>2021-11-06T18:55:05Z</time>
      </trkpt>
      <trkpt lat="38.2130740" lon="-1.4407580">
        <ele>357.0</ele>
        <time>2021-11-06T18:55:11Z</time>
      </trkpt>
      <trkpt lat="38.2131230" lon="-1.4408400">
        <ele>357.2</ele>
        <time>2021-11-06T18:55:19Z</time>
      </trkpt>
      <trkpt lat="38.2131760" lon="-1.4409100">
        <ele>357.4</ele>
        <time>2021-11-06T18:55:25Z</time>
      </trkpt>
      <trkpt lat="38.2132450" lon="-1.4410180">
        <ele>357.4</ele>
        <time>2021-11-06T18:55:32Z</time>
      </trkpt>
      <trkpt lat="38.2133020" lon="-1.4411120">
        <ele>358.0</ele>
        <time>2021-11-06T18:55:38Z</time>
      </trkpt>
      <trkpt lat="38.2133730" lon="-1.4412070">
        <ele>358.0</ele>
        <time>2021-11-06T18:55:46Z</time>
      </trkpt>
      <trkpt lat="38.2134120" lon="-1.4412890">
        <ele>358.2</ele>
        <time>2021-11-06T18:55:51Z</time>
      </trkpt>
      <trkpt lat="38.2134580" lon="-1.4413970">
        <ele>358.0</ele>
        <time>2021-11-06T18:55:59Z</time>
      </trkpt>
      <trkpt lat="38.2134620" lon="-1.4414580">
        <ele>358.0</ele>
        <time>2021-11-06T18:56:05Z</time>
      </trkpt>
      <trkpt lat="38.2135130" lon="-1.4415050">
        <ele>357.8</ele>
        <time>2021-11-06T18:56:09Z</time>
      </trkpt>
      <trkpt lat="38.2135890" lon="-1.4415940">
        <ele>357.8</ele>
        <time>2021-11-06T18:56:16Z</time>
      </trkpt>
      <trkpt lat="38.2136430" lon="-1.4416950">
        <ele>358.6</ele>
        <time>2021-11-06T18:56:24Z</time>
      </trkpt>
      <trkpt lat="38.2136960" lon="-1.4417920">
        <ele>358.4</ele>
        <time>2021-11-06T18:56:31Z</time>
      </trkpt>
      <trkpt lat="38.2137850" lon="-1.4419260">
        <ele>359.0</ele>
        <time>2021-11-06T18:56:40Z</time>
      </trkpt>
      <trkpt lat="38.2138100" lon="-1.4419660">
        <ele>359.4</ele>
        <time>2021-11-06T18:56:42Z</time>
      </trkpt>
      <trkpt lat="38.2138580" lon="-1.4420430">
        <ele>359.4</ele>
        <time>2021-11-06T18:56:47Z</time>
      </trkpt>
      <trkpt lat="38.2139160" lon="-1.4421410">
        <ele>359.2</ele>
        <time>2021-11-06T18:56:54Z</time>
      </trkpt>
      <trkpt lat="38.2139860" lon="-1.4422400">
        <ele>359.6</ele>
        <time>2021-11-06T18:57:01Z</time>
      </trkpt>
      <trkpt lat="38.2140560" lon="-1.4423340">
        <ele>359.2</ele>
        <time>2021-11-06T18:57:07Z</time>
      </trkpt>
      <trkpt lat="38.2141930" lon="-1.4425360">
        <ele>358.2</ele>
        <time>2021-11-06T18:57:14Z</time>
      </trkpt>
      <trkpt lat="38.2143450" lon="-1.4426860">
        <ele>358.0</ele>
        <time>2021-11-06T18:57:20Z</time>
      </trkpt>
      <trkpt lat="38.2143640" lon="-1.4427090">
        <ele>358.0</ele>
        <time>2021-11-06T18:57:21Z</time>
      </trkpt>
      <trkpt lat="38.2144630" lon="-1.4428140">
        <ele>357.0</ele>
        <time>2021-11-06T18:57:26Z</time>
      </trkpt>
      <trkpt lat="38.2145510" lon="-1.4429240">
        <ele>356.6</ele>
        <time>2021-11-06T18:57:30Z</time>
      </trkpt>
      <trkpt lat="38.2146880" lon="-1.4430960">
        <ele>357.2</ele>
        <time>2021-11-06T18:57:37Z</time>
      </trkpt>
      <trkpt lat="38.2147680" lon="-1.4432130">
        <ele>356.8</ele>
        <time>2021-11-06T18:57:42Z</time>
      </trkpt>
      <trkpt lat="38.2148600" lon="-1.4433810">
        <ele>357.2</ele>
        <time>2021-11-06T18:57:48Z</time>
      </trkpt>
      <trkpt lat="38.2149590" lon="-1.4435670">
        <ele>357.4</ele>
        <time>2021-11-06T18:57:55Z</time>
      </trkpt>
      <trkpt lat="38.2150460" lon="-1.4437090">
        <ele>357.2</ele>
        <time>2021-11-06T18:58:01Z</time>
      </trkpt>
      <trkpt lat="38.2151430" lon="-1.4438310">
        <ele>357.2</ele>
        <time>2021-11-06T18:58:07Z</time>
      </trkpt>
      <trkpt lat="38.2152360" lon="-1.4439140">
        <ele>357.8</ele>
        <time>2021-11-06T18:58:13Z</time>
      </trkpt>
      <trkpt lat="38.2152780" lon="-1.4439630">
        <ele>358.2</ele>
        <time>2021-11-06T18:58:16Z</time>
      </trkpt>
      <trkpt lat="38.2153400" lon="-1.4440070">
        <ele>358.6</ele>
        <time>2021-11-06T18:58:19Z</time>
      </trkpt>
      <trkpt lat="38.2154200" lon="-1.4440500">
        <ele>359.2</ele>
        <time>2021-11-06T18:58:23Z</time>
      </trkpt>
      <trkpt lat="38.2154610" lon="-1.4440640">
        <ele>360.0</ele>
        <time>2021-11-06T18:58:25Z</time>
      </trkpt>
      <trkpt lat="38.2155010" lon="-1.4440560">
        <ele>360.2</ele>
        <time>2021-11-06T18:58:27Z</time>
      </trkpt>
      <trkpt lat="38.2155820" lon="-1.4440390">
        <ele>361.4</ele>
        <time>2021-11-06T18:58:31Z</time>
      </trkpt>
      <trkpt lat="38.2156000" lon="-1.4440330">
        <ele>361.8</ele>
        <time>2021-11-06T18:58:32Z</time>
      </trkpt>
      <trkpt lat="38.2156320" lon="-1.4440310">
        <ele>362.8</ele>
        <time>2021-11-06T18:58:34Z</time>
      </trkpt>
      <trkpt lat="38.2156910" lon="-1.4440200">
        <ele>363.8</ele>
        <time>2021-11-06T18:58:38Z</time>
      </trkpt>
      <trkpt lat="38.2157320" lon="-1.4439950">
        <ele>364.0</ele>
        <time>2021-11-06T18:58:41Z</time>
      </trkpt>
      <trkpt lat="38.2158130" lon="-1.4439670">
        <ele>364.8</ele>
        <time>2021-11-06T18:58:46Z</time>
      </trkpt>
      <trkpt lat="38.2158510" lon="-1.4439560">
        <ele>365.2</ele>
        <time>2021-11-06T18:58:49Z</time>
      </trkpt>
      <trkpt lat="38.2159450" lon="-1.4439680">
        <ele>365.0</ele>
        <time>2021-11-06T18:58:55Z</time>
      </trkpt>
      <trkpt lat="38.2160440" lon="-1.4439770">
        <ele>365.2</ele>
        <time>2021-11-06T18:59:02Z</time>
      </trkpt>
      <trkpt lat="38.2160880" lon="-1.4439980">
        <ele>365.8</ele>
        <time>2021-11-06T18:59:06Z</time>
      </trkpt>
      <trkpt lat="38.2161340" lon="-1.4440030">
        <ele>366.8</ele>
        <time>2021-11-06T18:59:10Z</time>
      </trkpt>
      <trkpt lat="38.2162110" lon="-1.4440100">
        <ele>368.0</ele>
        <time>2021-11-06T18:59:16Z</time>
      </trkpt>
      <trkpt lat="38.2162400" lon="-1.4440040">
        <ele>368.4</ele>
        <time>2021-11-06T18:59:18Z</time>
      </trkpt>
      <trkpt lat="38.2162860" lon="-1.4439950">
        <ele>369.2</ele>
        <time>2021-11-06T18:59:21Z</time>
      </trkpt>
      <trkpt lat="38.2163200" lon="-1.4439810">
        <ele>370.4</ele>
        <time>2021-11-06T18:59:24Z</time>
      </trkpt>
      <trkpt lat="38.2163460" lon="-1.4439810">
        <ele>370.8</ele>
        <time>2021-11-06T18:59:26Z</time>
      </trkpt>
      <trkpt lat="38.2163940" lon="-1.4439690">
        <ele>371.4</ele>
        <time>2021-11-06T18:59:29Z</time>
      </trkpt>
      <trkpt lat="38.2164400" lon="-1.4439140">
        <ele>371.8</ele>
        <time>2021-11-06T18:59:33Z</time>
      </trkpt>
      <trkpt lat="38.2164510" lon="-1.4438980">
        <ele>371.8</ele>
        <time>2021-11-06T18:59:34Z</time>
      </trkpt>
      <trkpt lat="38.2164880" lon="-1.4438180">
        <ele>371.6</ele>
        <time>2021-11-06T18:59:39Z</time>
      </trkpt>
      <trkpt lat="38.2165540" lon="-1.4436830">
        <ele>371.0</ele>
        <time>2021-11-06T18:59:48Z</time>
      </trkpt>
      <trkpt lat="38.2165810" lon="-1.4436010">
        <ele>370.4</ele>
        <time>2021-11-06T18:59:51Z</time>
      </trkpt>
      <trkpt lat="38.2166190" lon="-1.4435050">
        <ele>369.4</ele>
        <time>2021-11-06T18:59:54Z</time>
      </trkpt>
      <trkpt lat="38.2166300" lon="-1.4434700">
        <ele>369.2</ele>
        <time>2021-11-06T18:59:55Z</time>
      </trkpt>
      <trkpt lat="38.2166800" lon="-1.4433430">
        <ele>368.2</ele>
        <time>2021-11-06T18:59:59Z</time>
      </trkpt>
      <trkpt lat="38.2167910" lon="-1.4431650">
        <ele>367.2</ele>
        <time>2021-11-06T19:00:06Z</time>
      </trkpt>
      <trkpt lat="38.2168040" lon="-1.4431440">
        <ele>367.2</ele>
        <time>2021-11-06T19:00:07Z</time>
      </trkpt>
      <trkpt lat="38.2169080" lon="-1.4430750">
        <ele>365.6</ele>
        <time>2021-11-06T19:00:12Z</time>
      </trkpt>
      <trkpt lat="38.2169720" lon="-1.4430890">
        <ele>364.4</ele>
        <time>2021-11-06T19:00:15Z</time>
      </trkpt>
      <trkpt lat="38.2170110" lon="-1.4431310">
        <ele>364.2</ele>
        <time>2021-11-06T19:00:17Z</time>
      </trkpt>
      <trkpt lat="38.2171550" lon="-1.4432260">
        <ele>363.4</ele>
        <time>2021-11-06T19:00:23Z</time>
      </trkpt>
      <trkpt lat="38.2172790" lon="-1.4432870">
        <ele>362.2</ele>
        <time>2021-11-06T19:00:28Z</time>
      </trkpt>
      <trkpt lat="38.2173040" lon="-1.4432980">
        <ele>362.0</ele>
        <time>2021-11-06T19:00:29Z</time>
      </trkpt>
      <trkpt lat="38.2174320" lon="-1.4433570">
        <ele>361.0</ele>
        <time>2021-11-06T19:00:34Z</time>
      </trkpt>
      <trkpt lat="38.2174530" lon="-1.4433700">
        <ele>361.0</ele>
        <time>2021-11-06T19:00:35Z</time>
      </trkpt>
      <trkpt lat="38.2176230" lon="-1.4433440">
        <ele>360.0</ele>
        <time>2021-11-06T19:00:41Z</time>
      </trkpt>
      <trkpt lat="38.2176460" lon="-1.4433300">
        <ele>359.4</ele>
        <time>2021-11-06T19:00:42Z</time>
      </trkpt>
      <trkpt lat="38.2176840" lon="-1.4432950">
        <ele>358.4</ele>
        <time>2021-11-06T19:00:44Z</time>
      </trkpt>
      <trkpt lat="38.2177160" lon="-1.4432640">
        <ele>357.8</ele>
        <time>2021-11-06T19:00:46Z</time>
      </trkpt>
      <trkpt lat="38.2177820" lon="-1.4431880">
        <ele>357.2</ele>
        <time>2021-11-06T19:00:50Z</time>
      </trkpt>
      <trkpt lat="38.2178180" lon="-1.4431480">
        <ele>357.0</ele>
        <time>2021-11-06T19:00:52Z</time>
      </trkpt>
      <trkpt lat="38.2178740" lon="-1.4430790">
        <ele>356.2</ele>
        <time>2021-11-06T19:00:55Z</time>
      </trkpt>
      <trkpt lat="38.2179300" lon="-1.4430010">
        <ele>356.0</ele>
        <time>2021-11-06T19:00:58Z</time>
      </trkpt>
      <trkpt lat="38.2180120" lon="-1.4429320">
        <ele>355.2</ele>
        <time>2021-11-06T19:01:02Z</time>
      </trkpt>
      <trkpt lat="38.2180700" lon="-1.4429250">
        <ele>354.8</ele>
        <time>2021-11-06T19:01:05Z</time>
      </trkpt>
      <trkpt lat="38.2181090" lon="-1.4429670">
        <ele>353.8</ele>
        <time>2021-11-06T19:01:08Z</time>
      </trkpt>
      <trkpt lat="38.2181380" lon="-1.4429910">
        <ele>353.6</ele>
        <time>2021-11-06T19:01:10Z</time>
      </trkpt>
      <trkpt lat="38.2181560" lon="-1.4430440">
        <ele>352.8</ele>
        <time>2021-11-06T19:01:13Z</time>
      </trkpt>
      <trkpt lat="38.2181560" lon="-1.4430640">
        <ele>352.2</ele>
        <time>2021-11-06T19:01:15Z</time>
      </trkpt>
      <trkpt lat="38.2182290" lon="-1.4430900">
        <ele>351.4</ele>
        <time>2021-11-06T19:01:48Z</time>
      </trkpt>
      <trkpt lat="38.2183000" lon="-1.4429830">
        <ele>350.6</ele>
        <time>2021-11-06T19:01:51Z</time>
      </trkpt>
      <trkpt lat="38.2182300" lon="-1.4431950">
        <ele>368.3</ele>
        <time>2021-11-07T09:52:53Z</time>
      </trkpt>
      <trkpt lat="38.2182510" lon="-1.4431730">
        <ele>368.3</ele>
        <time>2021-11-07T09:52:55Z</time>
      </trkpt>
      <trkpt lat="38.2182290" lon="-1.4431700">
        <ele>368.3</ele>
        <time>2021-11-07T09:52:57Z</time>
      </trkpt>
      <trkpt lat="38.2182200" lon="-1.4431680">
        <ele>368.1</ele>
        <time>2021-11-07T09:52:58Z</time>
      </trkpt>
      <trkpt lat="38.2182150" lon="-1.4431660">
        <ele>368.1</ele>
        <time>2021-11-07T09:52:59Z</time>
      </trkpt>
      <trkpt lat="38.2182120" lon="-1.4431600">
        <ele>368.1</ele>
        <time>2021-11-07T09:53:01Z</time>
      </trkpt>
      <trkpt lat="38.2182110" lon="-1.4431570">
        <ele>369.0</ele>
        <time>2021-11-07T09:53:02Z</time>
      </trkpt>
      <trkpt lat="38.2182110" lon="-1.4431540">
        <ele>369.0</ele>
        <time>2021-11-07T09:53:03Z</time>
      </trkpt>
      <trkpt lat="38.2182110" lon="-1.4431510">
        <ele>369.0</ele>
        <time>2021-11-07T09:53:04Z</time>
      </trkpt>
      <trkpt lat="38.2182110" lon="-1.4431440">
        <ele>369.0</ele>
        <time>2021-11-07T09:53:06Z</time>
      </trkpt>
      <trkpt lat="38.2182110" lon="-1.4431410">
        <ele>369.0</ele>
        <time>2021-11-07T09:53:08Z</time>
      </trkpt>
      <trkpt lat="38.2182110" lon="-1.4431390">
        <ele>369.0</ele>
        <time>2021-11-07T09:53:09Z</time>
      </trkpt>
      <trkpt lat="38.2182100" lon="-1.4431370">
        <ele>369.0</ele>
        <time>2021-11-07T09:53:11Z</time>
      </trkpt>
      <trkpt lat="38.2182120" lon="-1.4431380">
        <ele>369.0</ele>
        <time>2021-11-07T09:53:14Z</time>
      </trkpt>
      <trkpt lat="38.2182140" lon="-1.4431420">
        <ele>369.0</ele>
        <time>2021-11-07T09:53:16Z</time>
      </trkpt>
      <trkpt lat="38.2182120" lon="-1.4431460">
        <ele>369.0</ele>
        <time>2021-11-07T09:53:17Z</time>
      </trkpt>
      <trkpt lat="38.2182110" lon="-1.4431540">
        <ele>369.0</ele>
        <time>2021-11-07T09:53:19Z</time>
      </trkpt>
      <trkpt lat="38.2182120" lon="-1.4431550">
        <ele>369.0</ele>
        <time>2021-11-07T09:53:20Z</time>
      </trkpt>
      <trkpt lat="38.2182120" lon="-1.4431530">
        <ele>369.0</ele>
        <time>2021-11-07T09:53:22Z</time>
      </trkpt>
      <trkpt lat="38.2182120" lon="-1.4431520">
        <ele>369.0</ele>
        <time>2021-11-07T09:53:23Z</time>
      </trkpt>
      <trkpt lat="38.2182120" lon="-1.4431520">
        <ele>369.0</ele>
        <time>2021-11-07T09:53:24Z</time>
      </trkpt>
      <trkpt lat="38.2182090" lon="-1.4431500">
        <ele>369.0</ele>
        <time>2021-11-07T09:53:25Z</time>
      </trkpt>
      <trkpt lat="38.2182030" lon="-1.4431510">
        <ele>369.0</ele>
        <time>2021-11-07T09:53:26Z</time>
      </trkpt>
      <trkpt lat="38.2182020" lon="-1.4431500">
        <ele>369.0</ele>
        <time>2021-11-07T09:53:27Z</time>
      </trkpt>
      <trkpt lat="38.2182030" lon="-1.4431480">
        <ele>369.0</ele>
        <time>2021-11-07T09:53:29Z</time>
      </trkpt>
      <trkpt lat="38.2182020" lon="-1.4431490">
        <ele>369.0</ele>
        <time>2021-11-07T09:53:30Z</time>
      </trkpt>
      <trkpt lat="38.2182020" lon="-1.4431510">
        <ele>369.0</ele>
        <time>2021-11-07T09:53:31Z</time>
      </trkpt>
      <trkpt lat="38.2182010" lon="-1.4431520">
        <ele>369.0</ele>
        <time>2021-11-07T09:53:33Z</time>
      </trkpt>
      <trkpt lat="38.2182000" lon="-1.4431530">
        <ele>369.0</ele>
        <time>2021-11-07T09:53:35Z</time>
      </trkpt>
      <trkpt lat="38.2181990" lon="-1.4431530">
        <ele>369.0</ele>
        <time>2021-11-07T09:53:36Z</time>
      </trkpt>
      <trkpt lat="38.2181960" lon="-1.4431550">
        <ele>369.0</ele>
        <time>2021-11-07T09:53:38Z</time>
      </trkpt>
      <trkpt lat="38.2181950" lon="-1.4431540">
        <ele>369.0</ele>
        <time>2021-11-07T09:53:39Z</time>
      </trkpt>
      <trkpt lat="38.2181940" lon="-1.4431560">
        <ele>369.0</ele>
        <time>2021-11-07T09:53:40Z</time>
      </trkpt>
      <trkpt lat="38.2181890" lon="-1.4431580">
        <ele>368.1</ele>
        <time>2021-11-07T09:53:42Z</time>
      </trkpt>
      <trkpt lat="38.2181910" lon="-1.4431600">
        <ele>368.1</ele>
        <time>2021-11-07T09:53:43Z</time>
      </trkpt>
      <trkpt lat="38.2181950" lon="-1.4431640">
        <ele>368.1</ele>
        <time>2021-11-07T09:53:44Z</time>
      </trkpt>
      <trkpt lat="38.2181970" lon="-1.4431660">
        <ele>368.1</ele>
        <time>2021-11-07T09:53:46Z</time>
      </trkpt>
      <trkpt lat="38.2181960" lon="-1.4431700">
        <ele>368.1</ele>
        <time>2021-11-07T09:53:47Z</time>
      </trkpt>
      <trkpt lat="38.2181970" lon="-1.4431730">
        <ele>368.1</ele>
        <time>2021-11-07T09:53:48Z</time>
      </trkpt>
      <trkpt lat="38.2181980" lon="-1.4431760">
        <ele>368.1</ele>
        <time>2021-11-07T09:53:49Z</time>
      </trkpt>
      <trkpt lat="38.2181990" lon="-1.4431800">
        <ele>368.1</ele>
        <time>2021-11-07T09:53:51Z</time>
      </trkpt>
      <trkpt lat="38.2181990" lon="-1.4431790">
        <ele>368.1</ele>
        <time>2021-11-07T09:53:53Z</time>
      </trkpt>
      <trkpt lat="38.2181990" lon="-1.4431790">
        <ele>368.1</ele>
        <time>2021-11-07T09:53:54Z</time>
      </trkpt>
      <trkpt lat="38.2181990" lon="-1.4431770">
        <ele>368.1</ele>
        <time>2021-11-07T09:53:55Z</time>
      </trkpt>
      <trkpt lat="38.2181990" lon="-1.4431750">
        <ele>368.1</ele>
        <time>2021-11-07T09:53:57Z</time>
      </trkpt>
      <trkpt lat="38.2181980" lon="-1.4431730">
        <ele>368.1</ele>
        <time>2021-11-07T09:53:58Z</time>
      </trkpt>
      <trkpt lat="38.2181970" lon="-1.4431710">
        <ele>368.1</ele>
        <time>2021-11-07T09:53:59Z</time>
      </trkpt>
      <trkpt lat="38.2181960" lon="-1.4431680">
        <ele>368.1</ele>
        <time>2021-11-07T09:54:01Z</time>
      </trkpt>
      <trkpt lat="38.2181950" lon="-1.4431650">
        <ele>368.1</ele>
        <time>2021-11-07T09:54:02Z</time>
      </trkpt>
      <trkpt lat="38.2181930" lon="-1.4431660">
        <ele>368.1</ele>
        <time>2021-11-07T09:54:03Z</time>
      </trkpt>
      <trkpt lat="38.2181930" lon="-1.4431730">
        <ele>368.1</ele>
        <time>2021-11-07T09:54:05Z</time>
      </trkpt>
      <trkpt lat="38.2181910" lon="-1.4431750">
        <ele>368.1</ele>
        <time>2021-11-07T09:54:06Z</time>
      </trkpt>
      <trkpt lat="38.2181860" lon="-1.4431750">
        <ele>368.0</ele>
        <time>2021-11-07T09:54:08Z</time>
      </trkpt>
      <trkpt lat="38.2181840" lon="-1.4431760">
        <ele>368.0</ele>
        <time>2021-11-07T09:54:09Z</time>
      </trkpt>
      <trkpt lat="38.2181820" lon="-1.4431800">
        <ele>368.0</ele>
        <time>2021-11-07T09:54:10Z</time>
      </trkpt>
      <trkpt lat="38.2181820" lon="-1.4431810">
        <ele>368.0</ele>
        <time>2021-11-07T09:54:12Z</time>
      </trkpt>
      <trkpt lat="38.2181830" lon="-1.4431840">
        <ele>368.0</ele>
        <time>2021-11-07T09:54:14Z</time>
      </trkpt>
      <trkpt lat="38.2181830" lon="-1.4431870">
        <ele>368.0</ele>
        <time>2021-11-07T09:54:15Z</time>
      </trkpt>
      <trkpt lat="38.2181840" lon="-1.4431900">
        <ele>368.0</ele>
        <time>2021-11-07T09:54:16Z</time>
      </trkpt>
      <trkpt lat="38.2181760" lon="-1.4431970">
        <ele>368.0</ele>
        <time>2021-11-07T09:54:17Z</time>
      </trkpt>
      <trkpt lat="38.2181720" lon="-1.4432010">
        <ele>367.1</ele>
        <time>2021-11-07T09:54:18Z</time>
      </trkpt>
      <trkpt lat="38.2181680" lon="-1.4432050">
        <ele>367.1</ele>
        <time>2021-11-07T09:54:19Z</time>
      </trkpt>
      <trkpt lat="38.2181640" lon="-1.4432090">
        <ele>367.1</ele>
        <time>2021-11-07T09:54:20Z</time>
      </trkpt>
      <trkpt lat="38.2181600" lon="-1.4432130">
        <ele>367.1</ele>
        <time>2021-11-07T09:54:22Z</time>
      </trkpt>
      <trkpt lat="38.2181550" lon="-1.4432170">
        <ele>367.0</ele>
        <time>2021-11-07T09:54:23Z</time>
      </trkpt>
      <trkpt lat="38.2181510" lon="-1.4432210">
        <ele>367.0</ele>
        <time>2021-11-07T09:54:24Z</time>
      </trkpt>
      <trkpt lat="38.2181470" lon="-1.4432250">
        <ele>367.0</ele>
        <time>2021-11-07T09:54:25Z</time>
      </trkpt>
      <trkpt lat="38.2181430" lon="-1.4432290">
        <ele>367.0</ele>
        <time>2021-11-07T09:54:27Z</time>
      </trkpt>
      <trkpt lat="38.2181390" lon="-1.4432320">
        <ele>367.0</ele>
        <time>2021-11-07T09:54:28Z</time>
      </trkpt>
      <trkpt lat="38.2181250" lon="-1.4432870">
        <ele>365.1</ele>
        <time>2021-11-07T09:54:29Z</time>
      </trkpt>
      <trkpt lat="38.2181130" lon="-1.4433400">
        <ele>364.1</ele>
        <time>2021-11-07T09:54:31Z</time>
      </trkpt>
      <trkpt lat="38.2181020" lon="-1.4433890">
        <ele>363.2</ele>
        <time>2021-11-07T09:54:32Z</time>
      </trkpt>
      <trkpt lat="38.2180970" lon="-1.4434380">
        <ele>362.3</ele>
        <time>2021-11-07T09:54:33Z</time>
      </trkpt>
      <trkpt lat="38.2180930" lon="-1.4434960">
        <ele>361.5</ele>
        <time>2021-11-07T09:54:34Z</time>
      </trkpt>
      <trkpt lat="38.2180820" lon="-1.4435380">
        <ele>360.8</ele>
        <time>2021-11-07T09:54:35Z</time>
      </trkpt>
      <trkpt lat="38.2180370" lon="-1.4436300">
        <ele>358.6</ele>
        <time>2021-11-07T09:54:37Z</time>
      </trkpt>
      <trkpt lat="38.2180180" lon="-1.4436790">
        <ele>358.0</ele>
        <time>2021-11-07T09:54:38Z</time>
      </trkpt>
      <trkpt lat="38.2179870" lon="-1.4436770">
        <ele>358.0</ele>
        <time>2021-11-07T09:54:39Z</time>
      </trkpt>
      <trkpt lat="38.2179500" lon="-1.4437340">
        <ele>357.8</ele>
        <time>2021-11-07T09:54:40Z</time>
      </trkpt>
      <trkpt lat="38.2179330" lon="-1.4437710">
        <ele>357.1</ele>
        <time>2021-11-07T09:54:41Z</time>
      </trkpt>
      <trkpt lat="38.2179210" lon="-1.4438170">
        <ele>356.4</ele>
        <time>2021-11-07T09:54:43Z</time>
      </trkpt>
      <trkpt lat="38.2179150" lon="-1.4438670">
        <ele>356.1</ele>
        <time>2021-11-07T09:54:44Z</time>
      </trkpt>
      <trkpt lat="38.2179120" lon="-1.4438870">
        <ele>355.5</ele>
        <time>2021-11-07T09:54:45Z</time>
      </trkpt>
      <trkpt lat="38.2179110" lon="-1.4439340">
        <ele>354.9</ele>
        <time>2021-11-07T09:54:46Z</time>
      </trkpt>
      <trkpt lat="38.2179100" lon="-1.4439490">
        <ele>354.9</ele>
        <time>2021-11-07T09:54:47Z</time>
      </trkpt>
      <trkpt lat="38.2179120" lon="-1.4439910">
        <ele>354.3</ele>
        <time>2021-11-07T09:54:49Z</time>
      </trkpt>
      <trkpt lat="38.2179080" lon="-1.4440330">
        <ele>353.7</ele>
        <time>2021-11-07T09:54:50Z</time>
      </trkpt>
      <trkpt lat="38.2178920" lon="-1.4440760">
        <ele>353.2</ele>
        <time>2021-11-07T09:54:52Z</time>
      </trkpt>
      <trkpt lat="38.2178750" lon="-1.4441110">
        <ele>353.0</ele>
        <time>2021-11-07T09:54:53Z</time>
      </trkpt>
      <trkpt lat="38.2178530" lon="-1.4441460">
        <ele>352.4</ele>
        <time>2021-11-07T09:54:55Z</time>
      </trkpt>
      <trkpt lat="38.2178480" lon="-1.4441680">
        <ele>353.0</ele>
        <time>2021-11-07T09:54:56Z</time>
      </trkpt>
      <trkpt lat="38.2178500" lon="-1.4441860">
        <ele>353.0</ele>
        <time>2021-11-07T09:54:57Z</time>
      </trkpt>
      <trkpt lat="38.2178550" lon="-1.4442060">
        <ele>351.8</ele>
        <time>2021-11-07T09:54:58Z</time>
      </trkpt>
      <trkpt lat="38.2178720" lon="-1.4442160">
        <ele>351.8</ele>
        <time>2021-11-07T09:54:59Z</time>
      </trkpt>
      <trkpt lat="38.2179140" lon="-1.4442090">
        <ele>351.3</ele>
        <time>2021-11-07T09:55:01Z</time>
      </trkpt>
      <trkpt lat="38.2179270" lon="-1.4442040">
        <ele>350.8</ele>
        <time>2021-11-07T09:55:02Z</time>
      </trkpt>
      <trkpt lat="38.2179400" lon="-1.4442000">
        <ele>350.8</ele>
        <time>2021-11-07T09:55:03Z</time>
      </trkpt>
      <trkpt lat="38.2179710" lon="-1.4442090">
        <ele>350.5</ele>
        <time>2021-11-07T09:55:04Z</time>
      </trkpt>
      <trkpt lat="38.2179830" lon="-1.4442190">
        <ele>350.5</ele>
        <time>2021-11-07T09:55:05Z</time>
      </trkpt>
      <trkpt lat="38.2179960" lon="-1.4442450">
        <ele>349.5</ele>
        <time>2021-11-07T09:55:06Z</time>
      </trkpt>
      <trkpt lat="38.2179980" lon="-1.4442700">
        <ele>349.5</ele>
        <time>2021-11-07T09:55:08Z</time>
      </trkpt>
      <trkpt lat="38.2179950" lon="-1.4443140">
        <ele>349.0</ele>
        <time>2021-11-07T09:55:09Z</time>
      </trkpt>
      <trkpt lat="38.2179960" lon="-1.4443290">
        <ele>348.5</ele>
        <time>2021-11-07T09:55:10Z</time>
      </trkpt>
      <trkpt lat="38.2179960" lon="-1.4443670">
        <ele>348.1</ele>
        <time>2021-11-07T09:55:12Z</time>
      </trkpt>
      <trkpt lat="38.2179950" lon="-1.4444150">
        <ele>347.8</ele>
        <time>2021-11-07T09:55:13Z</time>
      </trkpt>
      <trkpt lat="38.2179970" lon="-1.4444520">
        <ele>347.4</ele>
        <time>2021-11-07T09:55:14Z</time>
      </trkpt>
      <trkpt lat="38.2180000" lon="-1.4445000">
        <ele>347.1</ele>
        <time>2021-11-07T09:55:15Z</time>
      </trkpt>
      <trkpt lat="38.2180050" lon="-1.4445720">
        <ele>346.8</ele>
        <time>2021-11-07T09:55:17Z</time>
      </trkpt>
      <trkpt lat="38.2180060" lon="-1.4445990">
        <ele>346.4</ele>
        <time>2021-11-07T09:55:18Z</time>
      </trkpt>
      <trkpt lat="38.2180080" lon="-1.4446270">
        <ele>346.1</ele>
        <time>2021-11-07T09:55:19Z</time>
      </trkpt>
      <trkpt lat="38.2180150" lon="-1.4446710">
        <ele>345.7</ele>
        <time>2021-11-07T09:55:21Z</time>
      </trkpt>
      <trkpt lat="38.2180260" lon="-1.4447120">
        <ele>345.0</ele>
        <time>2021-11-07T09:55:22Z</time>
      </trkpt>
      <trkpt lat="38.2180420" lon="-1.4447550">
        <ele>344.6</ele>
        <time>2021-11-07T09:55:23Z</time>
      </trkpt>
      <trkpt lat="38.2180470" lon="-1.4447670">
        <ele>344.6</ele>
        <time>2021-11-07T09:55:24Z</time>
      </trkpt>
      <trkpt lat="38.2180570" lon="-1.4447920">
        <ele>343.8</ele>
        <time>2021-11-07T09:55:25Z</time>
      </trkpt>
      <trkpt lat="38.2180700" lon="-1.4448200">
        <ele>343.8</ele>
        <time>2021-11-07T09:55:27Z</time>
      </trkpt>
      <trkpt lat="38.2180810" lon="-1.4448610">
        <ele>343.5</ele>
        <time>2021-11-07T09:55:28Z</time>
      </trkpt>
      <trkpt lat="38.2180880" lon="-1.4448940">
        <ele>342.8</ele>
        <time>2021-11-07T09:55:29Z</time>
      </trkpt>
      <trkpt lat="38.2180950" lon="-1.4449500">
        <ele>342.6</ele>
        <time>2021-11-07T09:55:31Z</time>
      </trkpt>
      <trkpt lat="38.2181010" lon="-1.4450000">
        <ele>342.4</ele>
        <time>2021-11-07T09:55:32Z</time>
      </trkpt>
      <trkpt lat="38.2181050" lon="-1.4450410">
        <ele>342.2</ele>
        <time>2021-11-07T09:55:34Z</time>
      </trkpt>
      <trkpt lat="38.2181060" lon="-1.4451020">
        <ele>342.1</ele>
        <time>2021-11-07T09:55:35Z</time>
      </trkpt>
      <trkpt lat="38.2181030" lon="-1.4451370">
        <ele>342.0</ele>
        <time>2021-11-07T09:55:36Z</time>
      </trkpt>
      <trkpt lat="38.2181090" lon="-1.4451780">
        <ele>342.1</ele>
        <time>2021-11-07T09:55:38Z</time>
      </trkpt>
      <trkpt lat="38.2181110" lon="-1.4451920">
        <ele>342.1</ele>
        <time>2021-11-07T09:55:39Z</time>
      </trkpt>
      <trkpt lat="38.2181220" lon="-1.4452300">
        <ele>341.5</ele>
        <time>2021-11-07T09:55:40Z</time>
      </trkpt>
      <trkpt lat="38.2181310" lon="-1.4452520">
        <ele>341.5</ele>
        <time>2021-11-07T09:55:41Z</time>
      </trkpt>
      <trkpt lat="38.2181460" lon="-1.4452880">
        <ele>341.6</ele>
        <time>2021-11-07T09:55:43Z</time>
      </trkpt>
      <trkpt lat="38.2181740" lon="-1.4453270">
        <ele>341.2</ele>
        <time>2021-11-07T09:55:44Z</time>
      </trkpt>
      <trkpt lat="38.2181850" lon="-1.4453410">
        <ele>341.2</ele>
        <time>2021-11-07T09:55:45Z</time>
      </trkpt>
      <trkpt lat="38.2182080" lon="-1.4453610">
        <ele>341.0</ele>
        <time>2021-11-07T09:55:47Z</time>
      </trkpt>
      <trkpt lat="38.2182340" lon="-1.4453720">
        <ele>340.6</ele>
        <time>2021-11-07T09:55:48Z</time>
      </trkpt>
      <trkpt lat="38.2182620" lon="-1.4453900">
        <ele>340.4</ele>
        <time>2021-11-07T09:55:49Z</time>
      </trkpt>
      <trkpt lat="38.2182930" lon="-1.4454060">
        <ele>340.0</ele>
        <time>2021-11-07T09:55:50Z</time>
      </trkpt>
      <trkpt lat="38.2183200" lon="-1.4454170">
        <ele>340.0</ele>
        <time>2021-11-07T09:55:52Z</time>
      </trkpt>
      <trkpt lat="38.2183560" lon="-1.4454290">
        <ele>339.5</ele>
        <time>2021-11-07T09:55:53Z</time>
      </trkpt>
      <trkpt lat="38.2183840" lon="-1.4454390">
        <ele>339.2</ele>
        <time>2021-11-07T09:55:55Z</time>
      </trkpt>
      <trkpt lat="38.2184170" lon="-1.4454420">
        <ele>338.7</ele>
        <time>2021-11-07T09:55:56Z</time>
      </trkpt>
      <trkpt lat="38.2184490" lon="-1.4454450">
        <ele>338.2</ele>
        <time>2021-11-07T09:55:57Z</time>
      </trkpt>
      <trkpt lat="38.2184770" lon="-1.4454490">
        <ele>337.9</ele>
        <time>2021-11-07T09:55:59Z</time>
      </trkpt>
      <trkpt lat="38.2185150" lon="-1.4454450">
        <ele>337.5</ele>
        <time>2021-11-07T09:56:00Z</time>
      </trkpt>
      <trkpt lat="38.2185360" lon="-1.4454430">
        <ele>337.1</ele>
        <time>2021-11-07T09:56:01Z</time>
      </trkpt>
      <trkpt lat="38.2185620" lon="-1.4454440">
        <ele>336.7</ele>
        <time>2021-11-07T09:56:03Z</time>
      </trkpt>
      <trkpt lat="38.2185990" lon="-1.4454510">
        <ele>336.0</ele>
        <time>2021-11-07T09:56:04Z</time>
      </trkpt>
      <trkpt lat="38.2186100" lon="-1.4454530">
        <ele>335.8</ele>
        <time>2021-11-07T09:56:05Z</time>
      </trkpt>
      <trkpt lat="38.2186420" lon="-1.4454600">
        <ele>335.3</ele>
        <time>2021-11-07T09:56:06Z</time>
      </trkpt>
      <trkpt lat="38.2186540" lon="-1.4454640">
        <ele>335.0</ele>
        <time>2021-11-07T09:56:07Z</time>
      </trkpt>
      <trkpt lat="38.2186940" lon="-1.4454540">
        <ele>334.3</ele>
        <time>2021-11-07T09:56:09Z</time>
      </trkpt>
      <trkpt lat="38.2187090" lon="-1.4454490">
        <ele>334.0</ele>
        <time>2021-11-07T09:56:10Z</time>
      </trkpt>
      <trkpt lat="38.2187420" lon="-1.4454480">
        <ele>333.4</ele>
        <time>2021-11-07T09:56:11Z</time>
      </trkpt>
      <trkpt lat="38.2187780" lon="-1.4454710">
        <ele>332.7</ele>
        <time>2021-11-07T09:56:13Z</time>
      </trkpt>
      <trkpt lat="38.2187920" lon="-1.4454800">
        <ele>332.4</ele>
        <time>2021-11-07T09:56:14Z</time>
      </trkpt>
      <trkpt lat="38.2188210" lon="-1.4455110">
        <ele>331.8</ele>
        <time>2021-11-07T09:56:15Z</time>
      </trkpt>
      <trkpt lat="38.2188310" lon="-1.4455260">
        <ele>331.6</ele>
        <time>2021-11-07T09:56:16Z</time>
      </trkpt>
      <trkpt lat="38.2188520" lon="-1.4455590">
        <ele>331.1</ele>
        <time>2021-11-07T09:56:17Z</time>
      </trkpt>
      <trkpt lat="38.2188720" lon="-1.4455930">
        <ele>330.7</ele>
        <time>2021-11-07T09:56:19Z</time>
      </trkpt>
      <trkpt lat="38.2188920" lon="-1.4456250">
        <ele>330.3</ele>
        <time>2021-11-07T09:56:20Z</time>
      </trkpt>
      <trkpt lat="38.2189160" lon="-1.4456540">
        <ele>330.0</ele>
        <time>2021-11-07T09:56:21Z</time>
      </trkpt>
      <trkpt lat="38.2189410" lon="-1.4456800">
        <ele>329.8</ele>
        <time>2021-11-07T09:56:23Z</time>
      </trkpt>
      <trkpt lat="38.2189790" lon="-1.4457210">
        <ele>329.5</ele>
        <time>2021-11-07T09:56:24Z</time>
      </trkpt>
      <trkpt lat="38.2190030" lon="-1.4457430">
        <ele>329.4</ele>
        <time>2021-11-07T09:56:25Z</time>
      </trkpt>
      <trkpt lat="38.2190290" lon="-1.4457640">
        <ele>329.3</ele>
        <time>2021-11-07T09:56:27Z</time>
      </trkpt>
      <trkpt lat="38.2190640" lon="-1.4457950">
        <ele>329.2</ele>
        <time>2021-11-07T09:56:28Z</time>
      </trkpt>
      <trkpt lat="38.2190840" lon="-1.4458250">
        <ele>329.2</ele>
        <time>2021-11-07T09:56:30Z</time>
      </trkpt>
      <trkpt lat="38.2191110" lon="-1.4458670">
        <ele>329.2</ele>
        <time>2021-11-07T09:56:31Z</time>
      </trkpt>
      <trkpt lat="38.2191280" lon="-1.4458970">
        <ele>329.2</ele>
        <time>2021-11-07T09:56:33Z</time>
      </trkpt>
      <trkpt lat="38.2191490" lon="-1.4459370">
        <ele>329.1</ele>
        <time>2021-11-07T09:56:34Z</time>
      </trkpt>
      <trkpt lat="38.2191840" lon="-1.4459850">
        <ele>329.0</ele>
        <time>2021-11-07T09:56:36Z</time>
      </trkpt>
      <trkpt lat="38.2192000" lon="-1.4460000">
        <ele>328.9</ele>
        <time>2021-11-07T09:56:37Z</time>
      </trkpt>
      <trkpt lat="38.2192150" lon="-1.4460150">
        <ele>328.9</ele>
        <time>2021-11-07T09:56:38Z</time>
      </trkpt>
      <trkpt lat="38.2192350" lon="-1.4460250">
        <ele>328.8</ele>
        <time>2021-11-07T09:56:39Z</time>
      </trkpt>
      <trkpt lat="38.2192560" lon="-1.4460320">
        <ele>328.7</ele>
        <time>2021-11-07T09:56:41Z</time>
      </trkpt>
      <trkpt lat="38.2192900" lon="-1.4460340">
        <ele>328.4</ele>
        <time>2021-11-07T09:56:42Z</time>
      </trkpt>
      <trkpt lat="38.2193060" lon="-1.4460320">
        <ele>328.3</ele>
        <time>2021-11-07T09:56:43Z</time>
      </trkpt>
      <trkpt lat="38.2193300" lon="-1.4460340">
        <ele>328.1</ele>
        <time>2021-11-07T09:56:44Z</time>
      </trkpt>
      <trkpt lat="38.2193600" lon="-1.4460340">
        <ele>327.9</ele>
        <time>2021-11-07T09:56:46Z</time>
      </trkpt>
      <trkpt lat="38.2193980" lon="-1.4460290">
        <ele>327.6</ele>
        <time>2021-11-07T09:56:47Z</time>
      </trkpt>
      <trkpt lat="38.2194270" lon="-1.4460290">
        <ele>327.3</ele>
        <time>2021-11-07T09:56:48Z</time>
      </trkpt>
      <trkpt lat="38.2194590" lon="-1.4460280">
        <ele>327.0</ele>
        <time>2021-11-07T09:56:49Z</time>
      </trkpt>
      <trkpt lat="38.2195130" lon="-1.4460280">
        <ele>326.5</ele>
        <time>2021-11-07T09:56:51Z</time>
      </trkpt>
      <trkpt lat="38.2195340" lon="-1.4460270">
        <ele>326.3</ele>
        <time>2021-11-07T09:56:52Z</time>
      </trkpt>
      <trkpt lat="38.2195560" lon="-1.4460270">
        <ele>326.1</ele>
        <time>2021-11-07T09:56:53Z</time>
      </trkpt>
      <trkpt lat="38.2195820" lon="-1.4460350">
        <ele>325.9</ele>
        <time>2021-11-07T09:56:54Z</time>
      </trkpt>
      <trkpt lat="38.2196150" lon="-1.4460570">
        <ele>325.6</ele>
        <time>2021-11-07T09:56:56Z</time>
      </trkpt>
      <trkpt lat="38.2196400" lon="-1.4460860">
        <ele>325.2</ele>
        <time>2021-11-07T09:56:57Z</time>
      </trkpt>
      <trkpt lat="38.2196590" lon="-1.4461140">
        <ele>325.0</ele>
        <time>2021-11-07T09:56:58Z</time>
      </trkpt>
      <trkpt lat="38.2196800" lon="-1.4461420">
        <ele>324.6</ele>
        <time>2021-11-07T09:56:59Z</time>
      </trkpt>
      <trkpt lat="38.2196960" lon="-1.4461690">
        <ele>324.3</ele>
        <time>2021-11-07T09:57:00Z</time>
      </trkpt>
      <trkpt lat="38.2197220" lon="-1.4462110">
        <ele>323.8</ele>
        <time>2021-11-07T09:57:01Z</time>
      </trkpt>
      <trkpt lat="38.2197300" lon="-1.4462250">
        <ele>323.6</ele>
        <time>2021-11-07T09:57:02Z</time>
      </trkpt>
      <trkpt lat="38.2197440" lon="-1.4462240">
        <ele>323.4</ele>
        <time>2021-11-07T09:57:03Z</time>
      </trkpt>
      <trkpt lat="38.2197520" lon="-1.4462140">
        <ele>322.0</ele>
        <time>2021-11-07T09:57:04Z</time>
      </trkpt>
      <trkpt lat="38.2197550" lon="-1.4462080">
        <ele>321.9</ele>
        <time>2021-11-07T09:57:06Z</time>
      </trkpt>
      <trkpt lat="38.2197730" lon="-1.4462140">
        <ele>321.7</ele>
        <time>2021-11-07T09:57:07Z</time>
      </trkpt>
      <trkpt lat="38.2197890" lon="-1.4462170">
        <ele>321.5</ele>
        <time>2021-11-07T09:57:09Z</time>
      </trkpt>
      <trkpt lat="38.2198160" lon="-1.4462230">
        <ele>321.2</ele>
        <time>2021-11-07T09:57:10Z</time>
      </trkpt>
      <trkpt lat="38.2198360" lon="-1.4462250">
        <ele>320.9</ele>
        <time>2021-11-07T09:57:11Z</time>
      </trkpt>
      <trkpt lat="38.2198580" lon="-1.4462280">
        <ele>320.7</ele>
        <time>2021-11-07T09:57:13Z</time>
      </trkpt>
      <trkpt lat="38.2198870" lon="-1.4462320">
        <ele>320.3</ele>
        <time>2021-11-07T09:57:14Z</time>
      </trkpt>
      <trkpt lat="38.2198970" lon="-1.4462340">
        <ele>320.2</ele>
        <time>2021-11-07T09:57:15Z</time>
      </trkpt>
      <trkpt lat="38.2199270" lon="-1.4462440">
        <ele>319.8</ele>
        <time>2021-11-07T09:57:16Z</time>
      </trkpt>
      <trkpt lat="38.2199680" lon="-1.4462590">
        <ele>319.3</ele>
        <time>2021-11-07T09:57:17Z</time>
      </trkpt>
      <trkpt lat="38.2199840" lon="-1.4462680">
        <ele>319.0</ele>
        <time>2021-11-07T09:57:18Z</time>
      </trkpt>
      <trkpt lat="38.2200040" lon="-1.4462970">
        <ele>318.6</ele>
        <time>2021-11-07T09:57:20Z</time>
      </trkpt>
      <trkpt lat="38.2200210" lon="-1.4463500">
        <ele>318.0</ele>
        <time>2021-11-07T09:57:21Z</time>
      </trkpt>
      <trkpt lat="38.2200320" lon="-1.4464060">
        <ele>317.3</ele>
        <time>2021-11-07T09:57:23Z</time>
      </trkpt>
      <trkpt lat="38.2200400" lon="-1.4464240">
        <ele>317.1</ele>
        <time>2021-11-07T09:57:24Z</time>
      </trkpt>
      <trkpt lat="38.2200480" lon="-1.4464430">
        <ele>316.8</ele>
        <time>2021-11-07T09:57:25Z</time>
      </trkpt>
      <trkpt lat="38.2200640" lon="-1.4464780">
        <ele>316.3</ele>
        <time>2021-11-07T09:57:26Z</time>
      </trkpt>
      <trkpt lat="38.2200700" lon="-1.4464890">
        <ele>316.2</ele>
        <time>2021-11-07T09:57:27Z</time>
      </trkpt>
      <trkpt lat="38.2200870" lon="-1.4465140">
        <ele>315.8</ele>
        <time>2021-11-07T09:57:28Z</time>
      </trkpt>
      <trkpt lat="38.2201100" lon="-1.4465440">
        <ele>315.3</ele>
        <time>2021-11-07T09:57:30Z</time>
      </trkpt>
      <trkpt lat="38.2201330" lon="-1.4465810">
        <ele>314.8</ele>
        <time>2021-11-07T09:57:31Z</time>
      </trkpt>
      <trkpt lat="38.2201510" lon="-1.4466100">
        <ele>314.4</ele>
        <time>2021-11-07T09:57:32Z</time>
      </trkpt>
      <trkpt lat="38.2201740" lon="-1.4466400">
        <ele>314.0</ele>
        <time>2021-11-07T09:57:33Z</time>
      </trkpt>
      <trkpt lat="38.2202140" lon="-1.4466660">
        <ele>313.4</ele>
        <time>2021-11-07T09:57:35Z</time>
      </trkpt>
      <trkpt lat="38.2202410" lon="-1.4466740">
        <ele>313.1</ele>
        <time>2021-11-07T09:57:36Z</time>
      </trkpt>
      <trkpt lat="38.2202690" lon="-1.4466870">
        <ele>312.7</ele>
        <time>2021-11-07T09:57:37Z</time>
      </trkpt>
      <trkpt lat="38.2202990" lon="-1.4466910">
        <ele>312.4</ele>
        <time>2021-11-07T09:57:39Z</time>
      </trkpt>
      <trkpt lat="38.2203300" lon="-1.4467140">
        <ele>312.0</ele>
        <time>2021-11-07T09:57:41Z</time>
      </trkpt>
      <trkpt lat="38.2203580" lon="-1.4467310">
        <ele>311.7</ele>
        <time>2021-11-07T09:57:42Z</time>
      </trkpt>
      <trkpt lat="38.2203680" lon="-1.4467340">
        <ele>311.6</ele>
        <time>2021-11-07T09:57:43Z</time>
      </trkpt>
      <trkpt lat="38.2203990" lon="-1.4467410">
        <ele>311.2</ele>
        <time>2021-11-07T09:57:44Z</time>
      </trkpt>
      <trkpt lat="38.2204090" lon="-1.4467420">
        <ele>311.1</ele>
        <time>2021-11-07T09:57:45Z</time>
      </trkpt>
      <trkpt lat="38.2204400" lon="-1.4467470">
        <ele>310.7</ele>
        <time>2021-11-07T09:57:47Z</time>
      </trkpt>
      <trkpt lat="38.2204480" lon="-1.4467520">
        <ele>310.6</ele>
        <time>2021-11-07T09:57:48Z</time>
      </trkpt>
      <trkpt lat="38.2204720" lon="-1.4467790">
        <ele>310.2</ele>
        <time>2021-11-07T09:57:49Z</time>
      </trkpt>
      <trkpt lat="38.2205040" lon="-1.4468230">
        <ele>309.6</ele>
        <time>2021-11-07T09:57:51Z</time>
      </trkpt>
      <trkpt lat="38.2205150" lon="-1.4468410">
        <ele>309.4</ele>
        <time>2021-11-07T09:57:52Z</time>
      </trkpt>
      <trkpt lat="38.2205270" lon="-1.4468590">
        <ele>309.2</ele>
        <time>2021-11-07T09:57:53Z</time>
      </trkpt>
      <trkpt lat="38.2205610" lon="-1.4468840">
        <ele>308.8</ele>
        <time>2021-11-07T09:57:54Z</time>
      </trkpt>
      <trkpt lat="38.2205730" lon="-1.4468910">
        <ele>308.6</ele>
        <time>2021-11-07T09:57:55Z</time>
      </trkpt>
      <trkpt lat="38.2206090" lon="-1.4469020">
        <ele>308.2</ele>
        <time>2021-11-07T09:57:56Z</time>
      </trkpt>
      <trkpt lat="38.2206230" lon="-1.4469050">
        <ele>308.1</ele>
        <time>2021-11-07T09:57:57Z</time>
      </trkpt>
      <trkpt lat="38.2206610" lon="-1.4469160">
        <ele>307.7</ele>
        <time>2021-11-07T09:57:59Z</time>
      </trkpt>
      <trkpt lat="38.2206740" lon="-1.4469210">
        <ele>307.5</ele>
        <time>2021-11-07T09:58:00Z</time>
      </trkpt>
      <trkpt lat="38.2207030" lon="-1.4469330">
        <ele>307.2</ele>
        <time>2021-11-07T09:58:01Z</time>
      </trkpt>
      <trkpt lat="38.2207260" lon="-1.4469430">
        <ele>307.0</ele>
        <time>2021-11-07T09:58:02Z</time>
      </trkpt>
      <trkpt lat="38.2207520" lon="-1.4469580">
        <ele>306.7</ele>
        <time>2021-11-07T09:58:04Z</time>
      </trkpt>
      <trkpt lat="38.2207790" lon="-1.4469750">
        <ele>306.4</ele>
        <time>2021-11-07T09:58:05Z</time>
      </trkpt>
      <trkpt lat="38.2208080" lon="-1.4469870">
        <ele>306.1</ele>
        <time>2021-11-07T09:58:06Z</time>
      </trkpt>
      <trkpt lat="38.2208380" lon="-1.4469930">
        <ele>305.8</ele>
        <time>2021-11-07T09:58:07Z</time>
      </trkpt>
      <trkpt lat="38.2208740" lon="-1.4470030">
        <ele>305.4</ele>
        <time>2021-11-07T09:58:09Z</time>
      </trkpt>
      <trkpt lat="38.2209080" lon="-1.4470190">
        <ele>305.0</ele>
        <time>2021-11-07T09:58:10Z</time>
      </trkpt>
      <trkpt lat="38.2209320" lon="-1.4470270">
        <ele>304.8</ele>
        <time>2021-11-07T09:58:11Z</time>
      </trkpt>
      <trkpt lat="38.2209680" lon="-1.4470350">
        <ele>304.4</ele>
        <time>2021-11-07T09:58:13Z</time>
      </trkpt>
      <trkpt lat="38.2210070" lon="-1.4470410">
        <ele>304.1</ele>
        <time>2021-11-07T09:58:14Z</time>
      </trkpt>
      <trkpt lat="38.2210420" lon="-1.4470440">
        <ele>303.7</ele>
        <time>2021-11-07T09:58:15Z</time>
      </trkpt>
      <trkpt lat="38.2210750" lon="-1.4470360">
        <ele>303.4</ele>
        <time>2021-11-07T09:58:17Z</time>
      </trkpt>
      <trkpt lat="38.2211200" lon="-1.4470220">
        <ele>303.0</ele>
        <time>2021-11-07T09:58:18Z</time>
      </trkpt>
      <trkpt lat="38.2211440" lon="-1.4470140">
        <ele>302.8</ele>
        <time>2021-11-07T09:58:19Z</time>
      </trkpt>
      <trkpt lat="38.2211910" lon="-1.4470180">
        <ele>302.4</ele>
        <time>2021-11-07T09:58:21Z</time>
      </trkpt>
      <trkpt lat="38.2212290" lon="-1.4470250">
        <ele>302.1</ele>
        <time>2021-11-07T09:58:22Z</time>
      </trkpt>
      <trkpt lat="38.2212410" lon="-1.4470280">
        <ele>302.0</ele>
        <time>2021-11-07T09:58:23Z</time>
      </trkpt>
      <trkpt lat="38.2212840" lon="-1.4470370">
        <ele>301.4</ele>
        <time>2021-11-07T09:58:25Z</time>
      </trkpt>
      <trkpt lat="38.2213010" lon="-1.4470410">
        <ele>301.1</ele>
        <time>2021-11-07T09:58:27Z</time>
      </trkpt>
      <trkpt lat="38.2213170" lon="-1.4470460">
        <ele>300.9</ele>
        <time>2021-11-07T09:58:28Z</time>
      </trkpt>
      <trkpt lat="38.2213340" lon="-1.4470500">
        <ele>300.7</ele>
        <time>2021-11-07T09:58:29Z</time>
      </trkpt>
      <trkpt lat="38.2213500" lon="-1.4470540">
        <ele>300.5</ele>
        <time>2021-11-07T09:58:31Z</time>
      </trkpt>
      <trkpt lat="38.2213670" lon="-1.4470580">
        <ele>300.2</ele>
        <time>2021-11-07T09:58:32Z</time>
      </trkpt>
      <trkpt lat="38.2213840" lon="-1.4470630">
        <ele>300.0</ele>
        <time>2021-11-07T09:58:33Z</time>
      </trkpt>
      <trkpt lat="38.2214060" lon="-1.4470690">
        <ele>299.7</ele>
        <time>2021-11-07T09:58:34Z</time>
      </trkpt>
      <trkpt lat="38.2214300" lon="-1.4470840">
        <ele>299.4</ele>
        <time>2021-11-07T09:58:36Z</time>
      </trkpt>
      <trkpt lat="38.2214650" lon="-1.4471160">
        <ele>298.9</ele>
        <time>2021-11-07T09:58:37Z</time>
      </trkpt>
      <trkpt lat="38.2214950" lon="-1.4471280">
        <ele>298.5</ele>
        <time>2021-11-07T09:58:39Z</time>
      </trkpt>
      <trkpt lat="38.2215280" lon="-1.4471450">
        <ele>298.1</ele>
        <time>2021-11-07T09:58:40Z</time>
      </trkpt>
      <trkpt lat="38.2215550" lon="-1.4471620">
        <ele>297.8</ele>
        <time>2021-11-07T09:58:41Z</time>
      </trkpt>
      <trkpt lat="38.2215810" lon="-1.4471740">
        <ele>297.4</ele>
        <time>2021-11-07T09:58:42Z</time>
      </trkpt>
      <trkpt lat="38.2216130" lon="-1.4471850">
        <ele>297.1</ele>
        <time>2021-11-07T09:58:44Z</time>
      </trkpt>
      <trkpt lat="38.2216450" lon="-1.4472100">
        <ele>296.6</ele>
        <time>2021-11-07T09:58:45Z</time>
      </trkpt>
      <trkpt lat="38.2216760" lon="-1.4472380">
        <ele>296.2</ele>
        <time>2021-11-07T09:58:46Z</time>
      </trkpt>
      <trkpt lat="38.2216980" lon="-1.4472620">
        <ele>295.9</ele>
        <time>2021-11-07T09:58:47Z</time>
      </trkpt>
      <trkpt lat="38.2217350" lon="-1.4472870">
        <ele>295.4</ele>
        <time>2021-11-07T09:58:49Z</time>
      </trkpt>
      <trkpt lat="38.2217720" lon="-1.4473050">
        <ele>295.0</ele>
        <time>2021-11-07T09:58:50Z</time>
      </trkpt>
      <trkpt lat="38.2218080" lon="-1.4473330">
        <ele>294.5</ele>
        <time>2021-11-07T09:58:51Z</time>
      </trkpt>
      <trkpt lat="38.2218380" lon="-1.4473590">
        <ele>294.1</ele>
        <time>2021-11-07T09:58:52Z</time>
      </trkpt>
      <trkpt lat="38.2218690" lon="-1.4473800">
        <ele>293.7</ele>
        <time>2021-11-07T09:58:54Z</time>
      </trkpt>
      <trkpt lat="38.2218950" lon="-1.4473970">
        <ele>293.4</ele>
        <time>2021-11-07T09:58:55Z</time>
      </trkpt>
      <trkpt lat="38.2219200" lon="-1.4474120">
        <ele>293.0</ele>
        <time>2021-11-07T09:58:56Z</time>
      </trkpt>
      <trkpt lat="38.2219530" lon="-1.4474300">
        <ele>292.6</ele>
        <time>2021-11-07T09:58:57Z</time>
      </trkpt>
      <trkpt lat="38.2219770" lon="-1.4474440">
        <ele>292.3</ele>
        <time>2021-11-07T09:58:58Z</time>
      </trkpt>
      <trkpt lat="38.2220030" lon="-1.4474640">
        <ele>292.0</ele>
        <time>2021-11-07T09:58:59Z</time>
      </trkpt>
      <trkpt lat="38.2220260" lon="-1.4474840">
        <ele>291.7</ele>
        <time>2021-11-07T09:59:00Z</time>
      </trkpt>
      <trkpt lat="38.2220460" lon="-1.4475080">
        <ele>291.3</ele>
        <time>2021-11-07T09:59:01Z</time>
      </trkpt>
      <trkpt lat="38.2220790" lon="-1.4475420">
        <ele>290.9</ele>
        <time>2021-11-07T09:59:02Z</time>
      </trkpt>
      <trkpt lat="38.2220900" lon="-1.4475570">
        <ele>290.7</ele>
        <time>2021-11-07T09:59:03Z</time>
      </trkpt>
      <trkpt lat="38.2221110" lon="-1.4475810">
        <ele>290.4</ele>
        <time>2021-11-07T09:59:04Z</time>
      </trkpt>
      <trkpt lat="38.2221360" lon="-1.4476300">
        <ele>289.8</ele>
        <time>2021-11-07T09:59:06Z</time>
      </trkpt>
      <trkpt lat="38.2221410" lon="-1.4476560">
        <ele>289.6</ele>
        <time>2021-11-07T09:59:07Z</time>
      </trkpt>
      <trkpt lat="38.2221620" lon="-1.4476860">
        <ele>289.3</ele>
        <time>2021-11-07T09:59:09Z</time>
      </trkpt>
      <trkpt lat="38.2221840" lon="-1.4477190">
        <ele>288.9</ele>
        <time>2021-11-07T09:59:10Z</time>
      </trkpt>
      <trkpt lat="38.2222030" lon="-1.4477500">
        <ele>288.7</ele>
        <time>2021-11-07T09:59:11Z</time>
      </trkpt>
      <trkpt lat="38.2222310" lon="-1.4477930">
        <ele>288.3</ele>
        <time>2021-11-07T09:59:13Z</time>
      </trkpt>
      <trkpt lat="38.2222660" lon="-1.4478350">
        <ele>287.8</ele>
        <time>2021-11-07T09:59:14Z</time>
      </trkpt>
      <trkpt lat="38.2222910" lon="-1.4478630">
        <ele>287.5</ele>
        <time>2021-11-07T09:59:15Z</time>
      </trkpt>
      <trkpt lat="38.2223130" lon="-1.4478810">
        <ele>287.3</ele>
        <time>2021-11-07T09:59:16Z</time>
      </trkpt>
      <trkpt lat="38.2223330" lon="-1.4479010">
        <ele>287.0</ele>
        <time>2021-11-07T09:59:18Z</time>
      </trkpt>
      <trkpt lat="38.2223710" lon="-1.4479290">
        <ele>286.5</ele>
        <time>2021-11-07T09:59:19Z</time>
      </trkpt>
      <trkpt lat="38.2223910" lon="-1.4479410">
        <ele>286.3</ele>
        <time>2021-11-07T09:59:20Z</time>
      </trkpt>
      <trkpt lat="38.2224160" lon="-1.4479500">
        <ele>286.0</ele>
        <time>2021-11-07T09:59:21Z</time>
      </trkpt>
      <trkpt lat="38.2224470" lon="-1.4479550">
        <ele>285.6</ele>
        <time>2021-11-07T09:59:23Z</time>
      </trkpt>
      <trkpt lat="38.2224820" lon="-1.4479560">
        <ele>285.0</ele>
        <time>2021-11-07T09:59:24Z</time>
      </trkpt>
      <trkpt lat="38.2224950" lon="-1.4479560">
        <ele>284.9</ele>
        <time>2021-11-07T09:59:25Z</time>
      </trkpt>
      <trkpt lat="38.2225160" lon="-1.4479580">
        <ele>284.5</ele>
        <time>2021-11-07T09:59:26Z</time>
      </trkpt>
      <trkpt lat="38.2225470" lon="-1.4479670">
        <ele>284.0</ele>
        <time>2021-11-07T09:59:28Z</time>
      </trkpt>
      <trkpt lat="38.2225820" lon="-1.4479710">
        <ele>283.4</ele>
        <time>2021-11-07T09:59:29Z</time>
      </trkpt>
      <trkpt lat="38.2225970" lon="-1.4479720">
        <ele>283.2</ele>
        <time>2021-11-07T09:59:30Z</time>
      </trkpt>
      <trkpt lat="38.2226250" lon="-1.4479740">
        <ele>282.7</ele>
        <time>2021-11-07T09:59:31Z</time>
      </trkpt>
      <trkpt lat="38.2226340" lon="-1.4479760">
        <ele>282.5</ele>
        <time>2021-11-07T09:59:32Z</time>
      </trkpt>
      <trkpt lat="38.2226730" lon="-1.4479770">
        <ele>281.8</ele>
        <time>2021-11-07T09:59:34Z</time>
      </trkpt>
      <trkpt lat="38.2226880" lon="-1.4479790">
        <ele>281.5</ele>
        <time>2021-11-07T09:59:35Z</time>
      </trkpt>
      <trkpt lat="38.2227090" lon="-1.4479890">
        <ele>281.1</ele>
        <time>2021-11-07T09:59:37Z</time>
      </trkpt>
      <trkpt lat="38.2227440" lon="-1.4480160">
        <ele>280.4</ele>
        <time>2021-11-07T09:59:39Z</time>
      </trkpt>
      <trkpt lat="38.2227600" lon="-1.4480500">
        <ele>280.1</ele>
        <time>2021-11-07T09:59:40Z</time>
      </trkpt>
      <trkpt lat="38.2227780" lon="-1.4480820">
        <ele>279.9</ele>
        <time>2021-11-07T09:59:41Z</time>
      </trkpt>
      <trkpt lat="38.2227960" lon="-1.4481160">
        <ele>279.6</ele>
        <time>2021-11-07T09:59:42Z</time>
      </trkpt>
      <trkpt lat="38.2228120" lon="-1.4481480">
        <ele>279.4</ele>
        <time>2021-11-07T09:59:43Z</time>
      </trkpt>
      <trkpt lat="38.2228350" lon="-1.4481930">
        <ele>279.1</ele>
        <time>2021-11-07T09:59:45Z</time>
      </trkpt>
      <trkpt lat="38.2228660" lon="-1.4482340">
        <ele>278.8</ele>
        <time>2021-11-07T09:59:46Z</time>
      </trkpt>
      <trkpt lat="38.2228800" lon="-1.4482510">
        <ele>278.7</ele>
        <time>2021-11-07T09:59:47Z</time>
      </trkpt>
      <trkpt lat="38.2229030" lon="-1.4482760">
        <ele>278.5</ele>
        <time>2021-11-07T09:59:48Z</time>
      </trkpt>
      <trkpt lat="38.2229230" lon="-1.4482960">
        <ele>278.4</ele>
        <time>2021-11-07T09:59:49Z</time>
      </trkpt>
      <trkpt lat="38.2229470" lon="-1.4483250">
        <ele>278.2</ele>
        <time>2021-11-07T09:59:51Z</time>
      </trkpt>
      <trkpt lat="38.2229800" lon="-1.4483670">
        <ele>278.0</ele>
        <time>2021-11-07T09:59:52Z</time>
      </trkpt>
      <trkpt lat="38.2229950" lon="-1.4483850">
        <ele>277.9</ele>
        <time>2021-11-07T09:59:53Z</time>
      </trkpt>
      <trkpt lat="38.2230160" lon="-1.4484130">
        <ele>277.8</ele>
        <time>2021-11-07T09:59:54Z</time>
      </trkpt>
      <trkpt lat="38.2230620" lon="-1.4484630">
        <ele>277.5</ele>
        <time>2021-11-07T09:59:56Z</time>
      </trkpt>
      <trkpt lat="38.2230810" lon="-1.4484820">
        <ele>277.4</ele>
        <time>2021-11-07T09:59:57Z</time>
      </trkpt>
      <trkpt lat="38.2231000" lon="-1.4485010">
        <ele>277.3</ele>
        <time>2021-11-07T09:59:58Z</time>
      </trkpt>
      <trkpt lat="38.2231340" lon="-1.4485190">
        <ele>277.2</ele>
        <time>2021-11-07T10:00:00Z</time>
      </trkpt>
      <trkpt lat="38.2231670" lon="-1.4485300">
        <ele>277.0</ele>
        <time>2021-11-07T10:00:01Z</time>
      </trkpt>
      <trkpt lat="38.2231780" lon="-1.4485310">
        <ele>277.0</ele>
        <time>2021-11-07T10:00:02Z</time>
      </trkpt>
      <trkpt lat="38.2232020" lon="-1.4485320">
        <ele>276.9</ele>
        <time>2021-11-07T10:00:03Z</time>
      </trkpt>
      <trkpt lat="38.2232350" lon="-1.4485320">
        <ele>276.8</ele>
        <time>2021-11-07T10:00:05Z</time>
      </trkpt>
      <trkpt lat="38.2232630" lon="-1.4485270">
        <ele>276.7</ele>
        <time>2021-11-07T10:00:06Z</time>
      </trkpt>
      <trkpt lat="38.2232870" lon="-1.4485170">
        <ele>276.6</ele>
        <time>2021-11-07T10:00:07Z</time>
      </trkpt>
      <trkpt lat="38.2233210" lon="-1.4484970">
        <ele>276.5</ele>
        <time>2021-11-07T10:00:09Z</time>
      </trkpt>
      <trkpt lat="38.2233560" lon="-1.4484700">
        <ele>276.3</ele>
        <time>2021-11-07T10:00:10Z</time>
      </trkpt>
      <trkpt lat="38.2233870" lon="-1.4484540">
        <ele>276.2</ele>
        <time>2021-11-07T10:00:12Z</time>
      </trkpt>
      <trkpt lat="38.2234170" lon="-1.4484550">
        <ele>276.1</ele>
        <time>2021-11-07T10:00:13Z</time>
      </trkpt>
      <trkpt lat="38.2234390" lon="-1.4484600">
        <ele>276.0</ele>
        <time>2021-11-07T10:00:14Z</time>
      </trkpt>
      <trkpt lat="38.2234580" lon="-1.4484670">
        <ele>275.9</ele>
        <time>2021-11-07T10:00:16Z</time>
      </trkpt>
      <trkpt lat="38.2234870" lon="-1.4484930">
        <ele>275.8</ele>
        <time>2021-11-07T10:00:17Z</time>
      </trkpt>
      <trkpt lat="38.2234990" lon="-1.4485040">
        <ele>275.7</ele>
        <time>2021-11-07T10:00:18Z</time>
      </trkpt>
      <trkpt lat="38.2235190" lon="-1.4485300">
        <ele>275.6</ele>
        <time>2021-11-07T10:00:19Z</time>
      </trkpt>
      <trkpt lat="38.2235330" lon="-1.4485640">
        <ele>275.5</ele>
        <time>2021-11-07T10:00:20Z</time>
      </trkpt>
      <trkpt lat="38.2235510" lon="-1.4485900">
        <ele>275.4</ele>
        <time>2021-11-07T10:00:22Z</time>
      </trkpt>
      <trkpt lat="38.2235580" lon="-1.4485980">
        <ele>275.3</ele>
        <time>2021-11-07T10:00:23Z</time>
      </trkpt>
      <trkpt lat="38.2235670" lon="-1.4486410">
        <ele>275.2</ele>
        <time>2021-11-07T10:00:24Z</time>
      </trkpt>
      <trkpt lat="38.2235750" lon="-1.4486800">
        <ele>275.1</ele>
        <time>2021-11-07T10:00:26Z</time>
      </trkpt>
      <trkpt lat="38.2235880" lon="-1.4487210">
        <ele>275.1</ele>
        <time>2021-11-07T10:00:27Z</time>
      </trkpt>
      <trkpt lat="38.2236030" lon="-1.4487580">
        <ele>275.0</ele>
        <time>2021-11-07T10:00:28Z</time>
      </trkpt>
      <trkpt lat="38.2236120" lon="-1.4487960">
        <ele>275.0</ele>
        <time>2021-11-07T10:00:30Z</time>
      </trkpt>
      <trkpt lat="38.2236120" lon="-1.4488490">
        <ele>275.1</ele>
        <time>2021-11-07T10:00:31Z</time>
      </trkpt>
      <trkpt lat="38.2236090" lon="-1.4488860">
        <ele>275.1</ele>
        <time>2021-11-07T10:00:32Z</time>
      </trkpt>
      <trkpt lat="38.2236050" lon="-1.4489320">
        <ele>275.2</ele>
        <time>2021-11-07T10:00:33Z</time>
      </trkpt>
      <trkpt lat="38.2235910" lon="-1.4489720">
        <ele>274.8</ele>
        <time>2021-11-07T10:00:35Z</time>
      </trkpt>
      <trkpt lat="38.2235690" lon="-1.4490070">
        <ele>274.2</ele>
        <time>2021-11-07T10:00:36Z</time>
      </trkpt>
      <trkpt lat="38.2235430" lon="-1.4490370">
        <ele>273.7</ele>
        <time>2021-11-07T10:00:37Z</time>
      </trkpt>
      <trkpt lat="38.2235230" lon="-1.4490630">
        <ele>273.6</ele>
        <time>2021-11-07T10:00:38Z</time>
      </trkpt>
      <trkpt lat="38.2235060" lon="-1.4491030">
        <ele>273.1</ele>
        <time>2021-11-07T10:00:39Z</time>
      </trkpt>
      <trkpt lat="38.2234900" lon="-1.4491400">
        <ele>272.8</ele>
        <time>2021-11-07T10:00:41Z</time>
      </trkpt>
      <trkpt lat="38.2234630" lon="-1.4491750">
        <ele>272.3</ele>
        <time>2021-11-07T10:00:42Z</time>
      </trkpt>
      <trkpt lat="38.2234430" lon="-1.4491980">
        <ele>272.2</ele>
        <time>2021-11-07T10:00:43Z</time>
      </trkpt>
      <trkpt lat="38.2234170" lon="-1.4492230">
        <ele>272.0</ele>
        <time>2021-11-07T10:00:44Z</time>
      </trkpt>
      <trkpt lat="38.2233870" lon="-1.4492450">
        <ele>271.9</ele>
        <time>2021-11-07T10:00:45Z</time>
      </trkpt>
      <trkpt lat="38.2233550" lon="-1.4492650">
        <ele>271.7</ele>
        <time>2021-11-07T10:00:46Z</time>
      </trkpt>
      <trkpt lat="38.2233320" lon="-1.4492830">
        <ele>271.7</ele>
        <time>2021-11-07T10:00:47Z</time>
      </trkpt>
      <trkpt lat="38.2233010" lon="-1.4493000">
        <ele>271.7</ele>
        <time>2021-11-07T10:00:49Z</time>
      </trkpt>
      <trkpt lat="38.2232810" lon="-1.4493410">
        <ele>271.6</ele>
        <time>2021-11-07T10:00:50Z</time>
      </trkpt>
      <trkpt lat="38.2232810" lon="-1.4493630">
        <ele>271.5</ele>
        <time>2021-11-07T10:00:51Z</time>
      </trkpt>
      <trkpt lat="38.2232850" lon="-1.4493880">
        <ele>271.5</ele>
        <time>2021-11-07T10:00:53Z</time>
      </trkpt>
      <trkpt lat="38.2232980" lon="-1.4494190">
        <ele>271.4</ele>
        <time>2021-11-07T10:00:54Z</time>
      </trkpt>
      <trkpt lat="38.2233210" lon="-1.4494450">
        <ele>271.2</ele>
        <time>2021-11-07T10:00:55Z</time>
      </trkpt>
      <trkpt lat="38.2233300" lon="-1.4494540">
        <ele>271.1</ele>
        <time>2021-11-07T10:00:56Z</time>
      </trkpt>
      <trkpt lat="38.2233520" lon="-1.4494690">
        <ele>270.9</ele>
        <time>2021-11-07T10:00:57Z</time>
      </trkpt>
      <trkpt lat="38.2233730" lon="-1.4494820">
        <ele>270.8</ele>
        <time>2021-11-07T10:00:59Z</time>
      </trkpt>
      <trkpt lat="38.2234030" lon="-1.4494870">
        <ele>270.6</ele>
        <time>2021-11-07T10:01:00Z</time>
      </trkpt>
      <trkpt lat="38.2234330" lon="-1.4494940">
        <ele>270.4</ele>
        <time>2021-11-07T10:01:01Z</time>
      </trkpt>
      <trkpt lat="38.2234680" lon="-1.4494850">
        <ele>270.2</ele>
        <time>2021-11-07T10:01:02Z</time>
      </trkpt>
      <trkpt lat="38.2234810" lon="-1.4494820">
        <ele>270.1</ele>
        <time>2021-11-07T10:01:03Z</time>
      </trkpt>
      <trkpt lat="38.2235180" lon="-1.4494700">
        <ele>270.0</ele>
        <time>2021-11-07T10:01:05Z</time>
      </trkpt>
      <trkpt lat="38.2235310" lon="-1.4494650">
        <ele>269.9</ele>
        <time>2021-11-07T10:01:06Z</time>
      </trkpt>
      <trkpt lat="38.2235700" lon="-1.4494560">
        <ele>269.7</ele>
        <time>2021-11-07T10:01:07Z</time>
      </trkpt>
      <trkpt lat="38.2235980" lon="-1.4494520">
        <ele>269.6</ele>
        <time>2021-11-07T10:01:08Z</time>
      </trkpt>
      <trkpt lat="38.2236450" lon="-1.4494610">
        <ele>269.4</ele>
        <time>2021-11-07T10:01:10Z</time>
      </trkpt>
      <trkpt lat="38.2236610" lon="-1.4494670">
        <ele>269.4</ele>
        <time>2021-11-07T10:01:11Z</time>
      </trkpt>
      <trkpt lat="38.2236760" lon="-1.4494740">
        <ele>269.3</ele>
        <time>2021-11-07T10:01:12Z</time>
      </trkpt>
      <trkpt lat="38.2237010" lon="-1.4494890">
        <ele>269.2</ele>
        <time>2021-11-07T10:01:13Z</time>
      </trkpt>
      <trkpt lat="38.2237310" lon="-1.4495150">
        <ele>269.0</ele>
        <time>2021-11-07T10:01:15Z</time>
      </trkpt>
      <trkpt lat="38.2237570" lon="-1.4495390">
        <ele>268.9</ele>
        <time>2021-11-07T10:01:16Z</time>
      </trkpt>
      <trkpt lat="38.2237870" lon="-1.4495750">
        <ele>268.8</ele>
        <time>2021-11-07T10:01:17Z</time>
      </trkpt>
      <trkpt lat="38.2237980" lon="-1.4495890">
        <ele>268.7</ele>
        <time>2021-11-07T10:01:18Z</time>
      </trkpt>
      <trkpt lat="38.2238220" lon="-1.4496130">
        <ele>268.6</ele>
        <time>2021-11-07T10:01:19Z</time>
      </trkpt>
      <trkpt lat="38.2238470" lon="-1.4496380">
        <ele>268.4</ele>
        <time>2021-11-07T10:01:20Z</time>
      </trkpt>
      <trkpt lat="38.2238800" lon="-1.4496770">
        <ele>268.3</ele>
        <time>2021-11-07T10:01:22Z</time>
      </trkpt>
      <trkpt lat="38.2238930" lon="-1.4496920">
        <ele>268.2</ele>
        <time>2021-11-07T10:01:23Z</time>
      </trkpt>
      <trkpt lat="38.2239050" lon="-1.4497070">
        <ele>268.1</ele>
        <time>2021-11-07T10:01:24Z</time>
      </trkpt>
      <trkpt lat="38.2239270" lon="-1.4497300">
        <ele>268.0</ele>
        <time>2021-11-07T10:01:25Z</time>
      </trkpt>
      <trkpt lat="38.2239500" lon="-1.4497530">
        <ele>267.9</ele>
        <time>2021-11-07T10:01:26Z</time>
      </trkpt>
      <trkpt lat="38.2239810" lon="-1.4497850">
        <ele>267.7</ele>
        <time>2021-11-07T10:01:27Z</time>
      </trkpt>
      <trkpt lat="38.2239910" lon="-1.4497950">
        <ele>267.7</ele>
        <time>2021-11-07T10:01:28Z</time>
      </trkpt>
      <trkpt lat="38.2240170" lon="-1.4498130">
        <ele>267.6</ele>
        <time>2021-11-07T10:01:30Z</time>
      </trkpt>
      <trkpt lat="38.2240560" lon="-1.4498300">
        <ele>267.4</ele>
        <time>2021-11-07T10:01:31Z</time>
      </trkpt>
      <trkpt lat="38.2240850" lon="-1.4498360">
        <ele>267.3</ele>
        <time>2021-11-07T10:01:33Z</time>
      </trkpt>
      <trkpt lat="38.2241230" lon="-1.4498380">
        <ele>267.2</ele>
        <time>2021-11-07T10:01:34Z</time>
      </trkpt>
      <trkpt lat="38.2241510" lon="-1.4498380">
        <ele>267.1</ele>
        <time>2021-11-07T10:01:36Z</time>
      </trkpt>
      <trkpt lat="38.2241860" lon="-1.4498280">
        <ele>267.0</ele>
        <time>2021-11-07T10:01:37Z</time>
      </trkpt>
      <trkpt lat="38.2242140" lon="-1.4498130">
        <ele>266.9</ele>
        <time>2021-11-07T10:01:39Z</time>
      </trkpt>
      <trkpt lat="38.2242460" lon="-1.4497840">
        <ele>266.7</ele>
        <time>2021-11-07T10:01:40Z</time>
      </trkpt>
      <trkpt lat="38.2242730" lon="-1.4497560">
        <ele>266.6</ele>
        <time>2021-11-07T10:01:42Z</time>
      </trkpt>
      <trkpt lat="38.2242840" lon="-1.4497470">
        <ele>266.6</ele>
        <time>2021-11-07T10:01:43Z</time>
      </trkpt>
      <trkpt lat="38.2243220" lon="-1.4497270">
        <ele>266.4</ele>
        <time>2021-11-07T10:01:45Z</time>
      </trkpt>
      <trkpt lat="38.2243350" lon="-1.4497260">
        <ele>266.4</ele>
        <time>2021-11-07T10:01:46Z</time>
      </trkpt>
      <trkpt lat="38.2243470" lon="-1.4497250">
        <ele>266.4</ele>
        <time>2021-11-07T10:01:47Z</time>
      </trkpt>
      <trkpt lat="38.2243610" lon="-1.4497260">
        <ele>266.3</ele>
        <time>2021-11-07T10:01:48Z</time>
      </trkpt>
      <trkpt lat="38.2243780" lon="-1.4497220">
        <ele>266.3</ele>
        <time>2021-11-07T10:01:50Z</time>
      </trkpt>
      <trkpt lat="38.2244040" lon="-1.4497140">
        <ele>266.2</ele>
        <time>2021-11-07T10:01:51Z</time>
      </trkpt>
      <trkpt lat="38.2244270" lon="-1.4497090">
        <ele>266.1</ele>
        <time>2021-11-07T10:01:53Z</time>
      </trkpt>
      <trkpt lat="38.2244540" lon="-1.4496990">
        <ele>265.9</ele>
        <time>2021-11-07T10:01:54Z</time>
      </trkpt>
      <trkpt lat="38.2244930" lon="-1.4496660">
        <ele>265.6</ele>
        <time>2021-11-07T10:01:56Z</time>
      </trkpt>
      <trkpt lat="38.2245070" lon="-1.4496580">
        <ele>265.5</ele>
        <time>2021-11-07T10:01:57Z</time>
      </trkpt>
      <trkpt lat="38.2245210" lon="-1.4496500">
        <ele>265.5</ele>
        <time>2021-11-07T10:01:58Z</time>
      </trkpt>
      <trkpt lat="38.2245690" lon="-1.4496360">
        <ele>265.2</ele>
        <time>2021-11-07T10:01:59Z</time>
      </trkpt>
      <trkpt lat="38.2246090" lon="-1.4496320">
        <ele>264.9</ele>
        <time>2021-11-07T10:02:01Z</time>
      </trkpt>
      <trkpt lat="38.2246350" lon="-1.4496190">
        <ele>264.8</ele>
        <time>2021-11-07T10:02:02Z</time>
      </trkpt>
      <trkpt lat="38.2246590" lon="-1.4496120">
        <ele>264.6</ele>
        <time>2021-11-07T10:02:03Z</time>
      </trkpt>
      <trkpt lat="38.2246910" lon="-1.4496010">
        <ele>264.4</ele>
        <time>2021-11-07T10:02:05Z</time>
      </trkpt>
      <trkpt lat="38.2247150" lon="-1.4495850">
        <ele>264.3</ele>
        <time>2021-11-07T10:02:06Z</time>
      </trkpt>
      <trkpt lat="38.2247510" lon="-1.4495700">
        <ele>264.1</ele>
        <time>2021-11-07T10:02:08Z</time>
      </trkpt>
      <trkpt lat="38.2247820" lon="-1.4495610">
        <ele>263.9</ele>
        <time>2021-11-07T10:02:09Z</time>
      </trkpt>
      <trkpt lat="38.2248170" lon="-1.4495460">
        <ele>263.7</ele>
        <time>2021-11-07T10:02:10Z</time>
      </trkpt>
      <trkpt lat="38.2248280" lon="-1.4495420">
        <ele>263.7</ele>
        <time>2021-11-07T10:02:11Z</time>
      </trkpt>
      <trkpt lat="38.2248520" lon="-1.4495350">
        <ele>263.6</ele>
        <time>2021-11-07T10:02:12Z</time>
      </trkpt>
      <trkpt lat="38.2248810" lon="-1.4495300">
        <ele>263.5</ele>
        <time>2021-11-07T10:02:14Z</time>
      </trkpt>
      <trkpt lat="38.2249170" lon="-1.4495280">
        <ele>263.3</ele>
        <time>2021-11-07T10:02:15Z</time>
      </trkpt>
      <trkpt lat="38.2249550" lon="-1.4495240">
        <ele>263.2</ele>
        <time>2021-11-07T10:02:16Z</time>
      </trkpt>
      <trkpt lat="38.2250090" lon="-1.4495200">
        <ele>263.0</ele>
        <time>2021-11-07T10:02:18Z</time>
      </trkpt>
      <trkpt lat="38.2250320" lon="-1.4495190">
        <ele>262.9</ele>
        <time>2021-11-07T10:02:19Z</time>
      </trkpt>
      <trkpt lat="38.2250560" lon="-1.4495180">
        <ele>262.8</ele>
        <time>2021-11-07T10:02:20Z</time>
      </trkpt>
      <trkpt lat="38.2250970" lon="-1.4495140">
        <ele>262.6</ele>
        <time>2021-11-07T10:02:22Z</time>
      </trkpt>
      <trkpt lat="38.2251430" lon="-1.4495150">
        <ele>262.4</ele>
        <time>2021-11-07T10:02:23Z</time>
      </trkpt>
      <trkpt lat="38.2251870" lon="-1.4495100">
        <ele>262.2</ele>
        <time>2021-11-07T10:02:25Z</time>
      </trkpt>
      <trkpt lat="38.2252280" lon="-1.4495030">
        <ele>262.0</ele>
        <time>2021-11-07T10:02:27Z</time>
      </trkpt>
      <trkpt lat="38.2252580" lon="-1.4494930">
        <ele>261.8</ele>
        <time>2021-11-07T10:02:28Z</time>
      </trkpt>
      <trkpt lat="38.2252800" lon="-1.4494840">
        <ele>261.7</ele>
        <time>2021-11-07T10:02:29Z</time>
      </trkpt>
      <trkpt lat="38.2253080" lon="-1.4494860">
        <ele>261.6</ele>
        <time>2021-11-07T10:02:31Z</time>
      </trkpt>
      <trkpt lat="38.2252370" lon="-1.4494840">
        <ele>261.5</ele>
        <time>2021-11-07T10:02:32Z</time>
      </trkpt>
      <trkpt lat="38.2252420" lon="-1.4494810">
        <ele>261.4</ele>
        <time>2021-11-07T10:02:33Z</time>
      </trkpt>
      <trkpt lat="38.2252580" lon="-1.4494690">
        <ele>261.4</ele>
        <time>2021-11-07T10:02:34Z</time>
      </trkpt>
      <trkpt lat="38.2252610" lon="-1.4494680">
        <ele>261.4</ele>
        <time>2021-11-07T10:02:36Z</time>
      </trkpt>
      <trkpt lat="38.2252630" lon="-1.4494690">
        <ele>261.4</ele>
        <time>2021-11-07T10:02:37Z</time>
      </trkpt>
      <trkpt lat="38.2252660" lon="-1.4494700">
        <ele>261.3</ele>
        <time>2021-11-07T10:02:38Z</time>
      </trkpt>
      <trkpt lat="38.2252700" lon="-1.4494720">
        <ele>261.3</ele>
        <time>2021-11-07T10:02:39Z</time>
      </trkpt>
      <trkpt lat="38.2252720" lon="-1.4494770">
        <ele>261.3</ele>
        <time>2021-11-07T10:02:41Z</time>
      </trkpt>
      <trkpt lat="38.2252730" lon="-1.4494850">
        <ele>261.3</ele>
        <time>2021-11-07T10:02:42Z</time>
      </trkpt>
      <trkpt lat="38.2252750" lon="-1.4494910">
        <ele>261.2</ele>
        <time>2021-11-07T10:02:43Z</time>
      </trkpt>
      <trkpt lat="38.2252810" lon="-1.4494960">
        <ele>261.2</ele>
        <time>2021-11-07T10:02:44Z</time>
      </trkpt>
      <trkpt lat="38.2253130" lon="-1.4494920">
        <ele>261.0</ele>
        <time>2021-11-07T10:02:45Z</time>
      </trkpt>
      <trkpt lat="38.2253290" lon="-1.4494870">
        <ele>260.9</ele>
        <time>2021-11-07T10:02:46Z</time>
      </trkpt>
      <trkpt lat="38.2253650" lon="-1.4494540">
        <ele>260.5</ele>
        <time>2021-11-07T10:02:48Z</time>
      </trkpt>
      <trkpt lat="38.2253790" lon="-1.4494330">
        <ele>260.3</ele>
        <time>2021-11-07T10:02:49Z</time>
      </trkpt>
      <trkpt lat="38.2253880" lon="-1.4494210">
        <ele>260.2</ele>
        <time>2021-11-07T10:02:50Z</time>
      </trkpt>
      <trkpt lat="38.2254100" lon="-1.4494030">
        <ele>259.9</ele>
        <time>2021-11-07T10:02:52Z</time>
      </trkpt>
      <trkpt lat="38.2254400" lon="-1.4493780">
        <ele>259.6</ele>
        <time>2021-11-07T10:02:53Z</time>
      </trkpt>
      <trkpt lat="38.2254650" lon="-1.4493620">
        <ele>259.4</ele>
        <time>2021-11-07T10:02:54Z</time>
      </trkpt>
      <trkpt lat="38.2255050" lon="-1.4493570">
        <ele>259.0</ele>
        <time>2021-11-07T10:02:55Z</time>
      </trkpt>
      <trkpt lat="38.2255180" lon="-1.4493550">
        <ele>259.0</ele>
        <time>2021-11-07T10:02:56Z</time>
      </trkpt>
      <trkpt lat="38.2255450" lon="-1.4493510">
        <ele>258.8</ele>
        <time>2021-11-07T10:02:57Z</time>
      </trkpt>
      <trkpt lat="38.2255770" lon="-1.4493670">
        <ele>258.6</ele>
        <time>2021-11-07T10:02:59Z</time>
      </trkpt>
      <trkpt lat="38.2256170" lon="-1.4493850">
        <ele>258.3</ele>
        <time>2021-11-07T10:03:00Z</time>
      </trkpt>
      <trkpt lat="38.2256480" lon="-1.4493990">
        <ele>258.2</ele>
        <time>2021-11-07T10:03:01Z</time>
      </trkpt>
      <trkpt lat="38.2256860" lon="-1.4494150">
        <ele>258.1</ele>
        <time>2021-11-07T10:03:03Z</time>
      </trkpt>
      <trkpt lat="38.2257260" lon="-1.4494310">
        <ele>257.9</ele>
        <time>2021-11-07T10:03:04Z</time>
      </trkpt>
      <trkpt lat="38.2257510" lon="-1.4494440">
        <ele>257.8</ele>
        <time>2021-11-07T10:03:05Z</time>
      </trkpt>
      <trkpt lat="38.2257870" lon="-1.4494620">
        <ele>257.7</ele>
        <time>2021-11-07T10:03:06Z</time>
      </trkpt>
      <trkpt lat="38.2258000" lon="-1.4494680">
        <ele>257.7</ele>
        <time>2021-11-07T10:03:07Z</time>
      </trkpt>
      <trkpt lat="38.2258270" lon="-1.4494850">
        <ele>257.7</ele>
        <time>2021-11-07T10:03:09Z</time>
      </trkpt>
      <trkpt lat="38.2258670" lon="-1.4494960">
        <ele>257.6</ele>
        <time>2021-11-07T10:03:10Z</time>
      </trkpt>
      <trkpt lat="38.2259120" lon="-1.4495030">
        <ele>257.5</ele>
        <time>2021-11-07T10:03:12Z</time>
      </trkpt>
      <trkpt lat="38.2259290" lon="-1.4495070">
        <ele>257.5</ele>
        <time>2021-11-07T10:03:13Z</time>
      </trkpt>
      <trkpt lat="38.2259470" lon="-1.4495110">
        <ele>257.5</ele>
        <time>2021-11-07T10:03:14Z</time>
      </trkpt>
      <trkpt lat="38.2259860" lon="-1.4495140">
        <ele>257.4</ele>
        <time>2021-11-07T10:03:15Z</time>
      </trkpt>
      <trkpt lat="38.2260210" lon="-1.4495130">
        <ele>257.4</ele>
        <time>2021-11-07T10:03:17Z</time>
      </trkpt>
      <trkpt lat="38.2260310" lon="-1.4495110">
        <ele>257.3</ele>
        <time>2021-11-07T10:03:18Z</time>
      </trkpt>
      <trkpt lat="38.2260570" lon="-1.4495140">
        <ele>257.3</ele>
        <time>2021-11-07T10:03:19Z</time>
      </trkpt>
      <trkpt lat="38.2261010" lon="-1.4495260">
        <ele>257.2</ele>
        <time>2021-11-07T10:03:21Z</time>
      </trkpt>
      <trkpt lat="38.2261370" lon="-1.4495360">
        <ele>257.1</ele>
        <time>2021-11-07T10:03:22Z</time>
      </trkpt>
      <trkpt lat="38.2261690" lon="-1.4495450">
        <ele>257.0</ele>
        <time>2021-11-07T10:03:24Z</time>
      </trkpt>
      <trkpt lat="38.2262070" lon="-1.4495500">
        <ele>256.9</ele>
        <time>2021-11-07T10:03:25Z</time>
      </trkpt>
      <trkpt lat="38.2262460" lon="-1.4495530">
        <ele>256.9</ele>
        <time>2021-11-07T10:03:26Z</time>
      </trkpt>
      <trkpt lat="38.2262580" lon="-1.4495540">
        <ele>256.8</ele>
        <time>2021-11-07T10:03:27Z</time>
      </trkpt>
      <trkpt lat="38.2262960" lon="-1.4495510">
        <ele>256.8</ele>
        <time>2021-11-07T10:03:29Z</time>
      </trkpt>
      <trkpt lat="38.2263210" lon="-1.4495450">
        <ele>256.8</ele>
        <time>2021-11-07T10:03:30Z</time>
      </trkpt>
      <trkpt lat="38.2263540" lon="-1.4495370">
        <ele>256.9</ele>
        <time>2021-11-07T10:03:32Z</time>
      </trkpt>
      <trkpt lat="38.2263920" lon="-1.4495240">
        <ele>257.1</ele>
        <time>2021-11-07T10:03:33Z</time>
      </trkpt>
      <trkpt lat="38.2264090" lon="-1.4495170">
        <ele>257.2</ele>
        <time>2021-11-07T10:03:34Z</time>
      </trkpt>
      <trkpt lat="38.2264490" lon="-1.4494960">
        <ele>257.5</ele>
        <time>2021-11-07T10:03:36Z</time>
      </trkpt>
      <trkpt lat="38.2264640" lon="-1.4494850">
        <ele>257.7</ele>
        <time>2021-11-07T10:03:37Z</time>
      </trkpt>
      <trkpt lat="38.2264810" lon="-1.4494710">
        <ele>257.9</ele>
        <time>2021-11-07T10:03:38Z</time>
      </trkpt>
      <trkpt lat="38.2265010" lon="-1.4494500">
        <ele>258.2</ele>
        <time>2021-11-07T10:03:40Z</time>
      </trkpt>
      <trkpt lat="38.2265140" lon="-1.4494340">
        <ele>258.5</ele>
        <time>2021-11-07T10:03:42Z</time>
      </trkpt>
      <trkpt lat="38.2265210" lon="-1.4494230">
        <ele>258.7</ele>
        <time>2021-11-07T10:03:43Z</time>
      </trkpt>
      <trkpt lat="38.2265260" lon="-1.4494060">
        <ele>258.9</ele>
        <time>2021-11-07T10:03:44Z</time>
      </trkpt>
      <trkpt lat="38.2265310" lon="-1.4493960">
        <ele>259.0</ele>
        <time>2021-11-07T10:03:45Z</time>
      </trkpt>
      <trkpt lat="38.2265380" lon="-1.4493880">
        <ele>259.1</ele>
        <time>2021-11-07T10:03:46Z</time>
      </trkpt>
      <trkpt lat="38.2265500" lon="-1.4493780">
        <ele>259.4</ele>
        <time>2021-11-07T10:03:48Z</time>
      </trkpt>
      <trkpt lat="38.2265730" lon="-1.4493700">
        <ele>259.7</ele>
        <time>2021-11-07T10:03:50Z</time>
      </trkpt>
      <trkpt lat="38.2266050" lon="-1.4493700">
        <ele>260.1</ele>
        <time>2021-11-07T10:03:51Z</time>
      </trkpt>
      <trkpt lat="38.2266160" lon="-1.4493720">
        <ele>260.2</ele>
        <time>2021-11-07T10:03:53Z</time>
      </trkpt>
      <trkpt lat="38.2266360" lon="-1.4493710">
        <ele>260.5</ele>
        <time>2021-11-07T10:03:54Z</time>
      </trkpt>
      <trkpt lat="38.2266650" lon="-1.4493660">
        <ele>260.7</ele>
        <time>2021-11-07T10:03:56Z</time>
      </trkpt>
      <trkpt lat="38.2266780" lon="-1.4493610">
        <ele>260.9</ele>
        <time>2021-11-07T10:03:57Z</time>
      </trkpt>
      <trkpt lat="38.2266870" lon="-1.4493590">
        <ele>260.9</ele>
        <time>2021-11-07T10:03:58Z</time>
      </trkpt>
      <trkpt lat="38.2267060" lon="-1.4493530">
        <ele>261.1</ele>
        <time>2021-11-07T10:04:00Z</time>
      </trkpt>
      <trkpt lat="38.2267170" lon="-1.4493490">
        <ele>261.2</ele>
        <time>2021-11-07T10:04:01Z</time>
      </trkpt>
      <trkpt lat="38.2267400" lon="-1.4493400">
        <ele>261.3</ele>
        <time>2021-11-07T10:04:02Z</time>
      </trkpt>
      <trkpt lat="38.2267530" lon="-1.4493390">
        <ele>261.4</ele>
        <time>2021-11-07T10:04:03Z</time>
      </trkpt>
      <trkpt lat="38.2267710" lon="-1.4493390">
        <ele>261.5</ele>
        <time>2021-11-07T10:04:05Z</time>
      </trkpt>
      <trkpt lat="38.2267830" lon="-1.4493390">
        <ele>261.6</ele>
        <time>2021-11-07T10:04:06Z</time>
      </trkpt>
      <trkpt lat="38.2268150" lon="-1.4493360">
        <ele>261.7</ele>
        <time>2021-11-07T10:04:08Z</time>
      </trkpt>
      <trkpt lat="38.2268300" lon="-1.4493370">
        <ele>261.8</ele>
        <time>2021-11-07T10:04:09Z</time>
      </trkpt>
      <trkpt lat="38.2268530" lon="-1.4493370">
        <ele>262.0</ele>
        <time>2021-11-07T10:04:11Z</time>
      </trkpt>
      <trkpt lat="38.2268820" lon="-1.4493380">
        <ele>262.2</ele>
        <time>2021-11-07T10:04:12Z</time>
      </trkpt>
      <trkpt lat="38.2269100" lon="-1.4493390">
        <ele>262.5</ele>
        <time>2021-11-07T10:04:14Z</time>
      </trkpt>
      <trkpt lat="38.2269330" lon="-1.4493410">
        <ele>262.7</ele>
        <time>2021-11-07T10:04:15Z</time>
      </trkpt>
      <trkpt lat="38.2269530" lon="-1.4493420">
        <ele>263.0</ele>
        <time>2021-11-07T10:04:17Z</time>
      </trkpt>
      <trkpt lat="38.2269670" lon="-1.4493430">
        <ele>263.2</ele>
        <time>2021-11-07T10:04:18Z</time>
      </trkpt>
      <trkpt lat="38.2269830" lon="-1.4493470">
        <ele>263.4</ele>
        <time>2021-11-07T10:04:19Z</time>
      </trkpt>
      <trkpt lat="38.2269980" lon="-1.4493530">
        <ele>263.7</ele>
        <time>2021-11-07T10:04:20Z</time>
      </trkpt>
      <trkpt lat="38.2270160" lon="-1.4493640">
        <ele>264.0</ele>
        <time>2021-11-07T10:04:21Z</time>
      </trkpt>
      <trkpt lat="38.2270420" lon="-1.4493770">
        <ele>264.5</ele>
        <time>2021-11-07T10:04:22Z</time>
      </trkpt>
      <trkpt lat="38.2270780" lon="-1.4493980">
        <ele>265.3</ele>
        <time>2021-11-07T10:04:24Z</time>
      </trkpt>
      <trkpt lat="38.2270950" lon="-1.4494070">
        <ele>265.6</ele>
        <time>2021-11-07T10:04:25Z</time>
      </trkpt>
      <trkpt lat="38.2271200" lon="-1.4494140">
        <ele>266.1</ele>
        <time>2021-11-07T10:04:27Z</time>
      </trkpt>
      <trkpt lat="38.2271320" lon="-1.4494140">
        <ele>266.3</ele>
        <time>2021-11-07T10:04:28Z</time>
      </trkpt>
      <trkpt lat="38.2271490" lon="-1.4493920">
        <ele>266.7</ele>
        <time>2021-11-07T10:04:30Z</time>
      </trkpt>
      <trkpt lat="38.2271490" lon="-1.4493810">
        <ele>266.8</ele>
        <time>2021-11-07T10:04:31Z</time>
      </trkpt>
      <trkpt lat="38.2271480" lon="-1.4493700">
        <ele>267.0</ele>
        <time>2021-11-07T10:04:32Z</time>
      </trkpt>
      <trkpt lat="38.2271490" lon="-1.4493520">
        <ele>267.2</ele>
        <time>2021-11-07T10:04:33Z</time>
      </trkpt>
      <trkpt lat="38.2271500" lon="-1.4493310">
        <ele>267.4</ele>
        <time>2021-11-07T10:04:35Z</time>
      </trkpt>
      <trkpt lat="38.2271560" lon="-1.4492990">
        <ele>267.8</ele>
        <time>2021-11-07T10:04:36Z</time>
      </trkpt>
      <trkpt lat="38.2271550" lon="-1.4492820">
        <ele>268.0</ele>
        <time>2021-11-07T10:04:38Z</time>
      </trkpt>
      <trkpt lat="38.2271640" lon="-1.4492340">
        <ele>268.0</ele>
        <time>2021-11-07T10:04:40Z</time>
      </trkpt>
      <trkpt lat="38.2271680" lon="-1.4492190">
        <ele>268.0</ele>
        <time>2021-11-07T10:04:41Z</time>
      </trkpt>
      <trkpt lat="38.2271810" lon="-1.4492000">
        <ele>268.0</ele>
        <time>2021-11-07T10:04:43Z</time>
      </trkpt>
      <trkpt lat="38.2271930" lon="-1.4491740">
        <ele>268.0</ele>
        <time>2021-11-07T10:04:45Z</time>
      </trkpt>
      <trkpt lat="38.2272140" lon="-1.4491380">
        <ele>268.3</ele>
        <time>2021-11-07T10:04:48Z</time>
      </trkpt>
      <trkpt lat="38.2272070" lon="-1.4491320">
        <ele>268.3</ele>
        <time>2021-11-07T10:04:49Z</time>
      </trkpt>
      <trkpt lat="38.2272030" lon="-1.4491640">
        <ele>268.4</ele>
        <time>2021-11-07T10:04:51Z</time>
      </trkpt>
      <trkpt lat="38.2272030" lon="-1.4491750">
        <ele>268.4</ele>
        <time>2021-11-07T10:04:53Z</time>
      </trkpt>
      <trkpt lat="38.2272020" lon="-1.4491760">
        <ele>268.4</ele>
        <time>2021-11-07T10:04:54Z</time>
      </trkpt>
      <trkpt lat="38.2272000" lon="-1.4491760">
        <ele>268.4</ele>
        <time>2021-11-07T10:04:56Z</time>
      </trkpt>
      <trkpt lat="38.2271990" lon="-1.4491760">
        <ele>268.4</ele>
        <time>2021-11-07T10:04:57Z</time>
      </trkpt>
      <trkpt lat="38.2271990" lon="-1.4491670">
        <ele>268.4</ele>
        <time>2021-11-07T10:04:59Z</time>
      </trkpt>
      <trkpt lat="38.2272000" lon="-1.4491670">
        <ele>268.4</ele>
        <time>2021-11-07T10:05:00Z</time>
      </trkpt>
      <trkpt lat="38.2272050" lon="-1.4491730">
        <ele>268.4</ele>
        <time>2021-11-07T10:05:02Z</time>
      </trkpt>
      <trkpt lat="38.2272060" lon="-1.4491690">
        <ele>268.5</ele>
        <time>2021-11-07T10:05:04Z</time>
      </trkpt>
      <trkpt lat="38.2272050" lon="-1.4491790">
        <ele>268.5</ele>
        <time>2021-11-07T10:05:06Z</time>
      </trkpt>
      <trkpt lat="38.2272060" lon="-1.4491780">
        <ele>268.5</ele>
        <time>2021-11-07T10:05:07Z</time>
      </trkpt>
      <trkpt lat="38.2272000" lon="-1.4491630">
        <ele>268.5</ele>
        <time>2021-11-07T10:05:09Z</time>
      </trkpt>
      <trkpt lat="38.2271980" lon="-1.4491510">
        <ele>268.5</ele>
        <time>2021-11-07T10:05:10Z</time>
      </trkpt>
      <trkpt lat="38.2272030" lon="-1.4491350">
        <ele>268.6</ele>
        <time>2021-11-07T10:05:11Z</time>
      </trkpt>
      <trkpt lat="38.2272170" lon="-1.4491260">
        <ele>268.6</ele>
        <time>2021-11-07T10:05:12Z</time>
      </trkpt>
      <trkpt lat="38.2272960" lon="-1.4491400">
        <ele>268.9</ele>
        <time>2021-11-07T10:05:14Z</time>
      </trkpt>
      <trkpt lat="38.2272960" lon="-1.4491360">
        <ele>268.9</ele>
        <time>2021-11-07T10:05:15Z</time>
      </trkpt>
      <trkpt lat="38.2272980" lon="-1.4491350">
        <ele>268.9</ele>
        <time>2021-11-07T10:05:16Z</time>
      </trkpt>
      <trkpt lat="38.2273090" lon="-1.4491360">
        <ele>268.9</ele>
        <time>2021-11-07T10:05:18Z</time>
      </trkpt>
      <trkpt lat="38.2273190" lon="-1.4491440">
        <ele>268.9</ele>
        <time>2021-11-07T10:05:19Z</time>
      </trkpt>
      <trkpt lat="38.2273280" lon="-1.4491470">
        <ele>269.0</ele>
        <time>2021-11-07T10:05:20Z</time>
      </trkpt>
      <trkpt lat="38.2273480" lon="-1.4491550">
        <ele>269.0</ele>
        <time>2021-11-07T10:05:21Z</time>
      </trkpt>
      <trkpt lat="38.2273610" lon="-1.4491480">
        <ele>269.1</ele>
        <time>2021-11-07T10:05:22Z</time>
      </trkpt>
      <trkpt lat="38.2273740" lon="-1.4491400">
        <ele>269.1</ele>
        <time>2021-11-07T10:05:24Z</time>
      </trkpt>
      <trkpt lat="38.2273870" lon="-1.4491330">
        <ele>269.2</ele>
        <time>2021-11-07T10:05:25Z</time>
      </trkpt>
      <trkpt lat="38.2274000" lon="-1.4491260">
        <ele>269.2</ele>
        <time>2021-11-07T10:05:27Z</time>
      </trkpt>
      <trkpt lat="38.2274130" lon="-1.4491180">
        <ele>269.3</ele>
        <time>2021-11-07T10:05:29Z</time>
      </trkpt>
      <trkpt lat="38.2274260" lon="-1.4491110">
        <ele>269.3</ele>
        <time>2021-11-07T10:05:31Z</time>
      </trkpt>
      <trkpt lat="38.2274390" lon="-1.4491040">
        <ele>269.4</ele>
        <time>2021-11-07T10:05:32Z</time>
      </trkpt>
      <trkpt lat="38.2274530" lon="-1.4490640">
        <ele>269.5</ele>
        <time>2021-11-07T10:05:33Z</time>
      </trkpt>
      <trkpt lat="38.2274440" lon="-1.4490570">
        <ele>269.5</ele>
        <time>2021-11-07T10:05:34Z</time>
      </trkpt>
      <trkpt lat="38.2274380" lon="-1.4490320">
        <ele>269.6</ele>
        <time>2021-11-07T10:05:35Z</time>
      </trkpt>
      <trkpt lat="38.2274420" lon="-1.4490060">
        <ele>269.6</ele>
        <time>2021-11-07T10:05:36Z</time>
      </trkpt>
      <trkpt lat="38.2274420" lon="-1.4489640">
        <ele>269.7</ele>
        <time>2021-11-07T10:05:38Z</time>
      </trkpt>
      <trkpt lat="38.2274360" lon="-1.4489510">
        <ele>269.8</ele>
        <time>2021-11-07T10:05:39Z</time>
      </trkpt>
      <trkpt lat="38.2274250" lon="-1.4489280">
        <ele>269.8</ele>
        <time>2021-11-07T10:05:40Z</time>
      </trkpt>
      <trkpt lat="38.2274170" lon="-1.4489100">
        <ele>270.8</ele>
        <time>2021-11-07T10:05:41Z</time>
      </trkpt>
      <trkpt lat="38.2273970" lon="-1.4488740">
        <ele>271.2</ele>
        <time>2021-11-07T10:05:43Z</time>
      </trkpt>
      <trkpt lat="38.2273950" lon="-1.4488490">
        <ele>271.5</ele>
        <time>2021-11-07T10:05:44Z</time>
      </trkpt>
      <trkpt lat="38.2273950" lon="-1.4488340">
        <ele>271.7</ele>
        <time>2021-11-07T10:05:45Z</time>
      </trkpt>
      <trkpt lat="38.2273950" lon="-1.4488180">
        <ele>271.8</ele>
        <time>2021-11-07T10:05:46Z</time>
      </trkpt>
      <trkpt lat="38.2273820" lon="-1.4487840">
        <ele>272.3</ele>
        <time>2021-11-07T10:05:47Z</time>
      </trkpt>
      <trkpt lat="38.2273640" lon="-1.4487600">
        <ele>272.7</ele>
        <time>2021-11-07T10:05:49Z</time>
      </trkpt>
      <trkpt lat="38.2273550" lon="-1.4487430">
        <ele>272.9</ele>
        <time>2021-11-07T10:05:51Z</time>
      </trkpt>
      <trkpt lat="38.2273450" lon="-1.4487250">
        <ele>273.2</ele>
        <time>2021-11-07T10:05:52Z</time>
      </trkpt>
      <trkpt lat="38.2273360" lon="-1.4487080">
        <ele>273.4</ele>
        <time>2021-11-07T10:05:53Z</time>
      </trkpt>
      <trkpt lat="38.2273300" lon="-1.4486920">
        <ele>273.6</ele>
        <time>2021-11-07T10:05:54Z</time>
      </trkpt>
      <trkpt lat="38.2273180" lon="-1.4486660">
        <ele>273.9</ele>
        <time>2021-11-07T10:05:56Z</time>
      </trkpt>
      <trkpt lat="38.2273100" lon="-1.4486480">
        <ele>274.2</ele>
        <time>2021-11-07T10:05:57Z</time>
      </trkpt>
      <trkpt lat="38.2273010" lon="-1.4486340">
        <ele>274.4</ele>
        <time>2021-11-07T10:05:58Z</time>
      </trkpt>
      <trkpt lat="38.2272710" lon="-1.4486140">
        <ele>274.9</ele>
        <time>2021-11-07T10:06:00Z</time>
      </trkpt>
      <trkpt lat="38.2272600" lon="-1.4485910">
        <ele>275.2</ele>
        <time>2021-11-07T10:06:01Z</time>
      </trkpt>
      <trkpt lat="38.2272530" lon="-1.4485730">
        <ele>275.4</ele>
        <time>2021-11-07T10:06:03Z</time>
      </trkpt>
      <trkpt lat="38.2272490" lon="-1.4485560">
        <ele>275.6</ele>
        <time>2021-11-07T10:06:04Z</time>
      </trkpt>
      <trkpt lat="38.2272380" lon="-1.4485220">
        <ele>275.9</ele>
        <time>2021-11-07T10:06:06Z</time>
      </trkpt>
      <trkpt lat="38.2272310" lon="-1.4485080">
        <ele>276.1</ele>
        <time>2021-11-07T10:06:07Z</time>
      </trkpt>
      <trkpt lat="38.2272140" lon="-1.4484810">
        <ele>276.4</ele>
        <time>2021-11-07T10:06:09Z</time>
      </trkpt>
      <trkpt lat="38.2272040" lon="-1.4484680">
        <ele>276.5</ele>
        <time>2021-11-07T10:06:10Z</time>
      </trkpt>
      <trkpt lat="38.2271990" lon="-1.4484500">
        <ele>276.7</ele>
        <time>2021-11-07T10:06:11Z</time>
      </trkpt>
      <trkpt lat="38.2272060" lon="-1.4484130">
        <ele>277.0</ele>
        <time>2021-11-07T10:06:13Z</time>
      </trkpt>
      <trkpt lat="38.2272100" lon="-1.4483950">
        <ele>277.1</ele>
        <time>2021-11-07T10:06:14Z</time>
      </trkpt>
      <trkpt lat="38.2272260" lon="-1.4483620">
        <ele>277.4</ele>
        <time>2021-11-07T10:06:16Z</time>
      </trkpt>
      <trkpt lat="38.2272470" lon="-1.4483310">
        <ele>277.7</ele>
        <time>2021-11-07T10:06:18Z</time>
      </trkpt>
      <trkpt lat="38.2272690" lon="-1.4483050">
        <ele>278.0</ele>
        <time>2021-11-07T10:06:20Z</time>
      </trkpt>
      <trkpt lat="38.2272850" lon="-1.4482770">
        <ele>278.3</ele>
        <time>2021-11-07T10:06:22Z</time>
      </trkpt>
      <trkpt lat="38.2273000" lon="-1.4482580">
        <ele>278.5</ele>
        <time>2021-11-07T10:06:24Z</time>
      </trkpt>
      <trkpt lat="38.2273190" lon="-1.4482450">
        <ele>278.8</ele>
        <time>2021-11-07T10:06:26Z</time>
      </trkpt>
      <trkpt lat="38.2273370" lon="-1.4482440">
        <ele>279.0</ele>
        <time>2021-11-07T10:06:27Z</time>
      </trkpt>
      <trkpt lat="38.2273470" lon="-1.4482190">
        <ele>279.4</ele>
        <time>2021-11-07T10:06:28Z</time>
      </trkpt>
      <trkpt lat="38.2273530" lon="-1.4481990">
        <ele>279.6</ele>
        <time>2021-11-07T10:06:29Z</time>
      </trkpt>
      <trkpt lat="38.2273590" lon="-1.4481830">
        <ele>279.8</ele>
        <time>2021-11-07T10:06:31Z</time>
      </trkpt>
      <trkpt lat="38.2273620" lon="-1.4481660">
        <ele>280.0</ele>
        <time>2021-11-07T10:06:32Z</time>
      </trkpt>
      <trkpt lat="38.2273680" lon="-1.4481280">
        <ele>280.5</ele>
        <time>2021-11-07T10:06:34Z</time>
      </trkpt>
      <trkpt lat="38.2273510" lon="-1.4481080">
        <ele>280.9</ele>
        <time>2021-11-07T10:06:36Z</time>
      </trkpt>
      <trkpt lat="38.2273220" lon="-1.4480920">
        <ele>281.4</ele>
        <time>2021-11-07T10:06:38Z</time>
      </trkpt>
      <trkpt lat="38.2272880" lon="-1.4480930">
        <ele>282.0</ele>
        <time>2021-11-07T10:06:40Z</time>
      </trkpt>
      <trkpt lat="38.2272770" lon="-1.4480960">
        <ele>282.2</ele>
        <time>2021-11-07T10:06:41Z</time>
      </trkpt>
      <trkpt lat="38.2272450" lon="-1.4480950">
        <ele>282.7</ele>
        <time>2021-11-07T10:06:43Z</time>
      </trkpt>
      <trkpt lat="38.2272390" lon="-1.4480940">
        <ele>282.8</ele>
        <time>2021-11-07T10:06:44Z</time>
      </trkpt>
      <trkpt lat="38.2272140" lon="-1.4480800">
        <ele>283.3</ele>
        <time>2021-11-07T10:06:46Z</time>
      </trkpt>
      <trkpt lat="38.2271990" lon="-1.4480720">
        <ele>283.5</ele>
        <time>2021-11-07T10:06:49Z</time>
      </trkpt>
      <trkpt lat="38.2271840" lon="-1.4480630">
        <ele>283.8</ele>
        <time>2021-11-07T10:06:50Z</time>
      </trkpt>
      <trkpt lat="38.2271690" lon="-1.4480550">
        <ele>284.1</ele>
        <time>2021-11-07T10:06:52Z</time>
      </trkpt>
      <trkpt lat="38.2271540" lon="-1.4480470">
        <ele>284.3</ele>
        <time>2021-11-07T10:06:53Z</time>
      </trkpt>
      <trkpt lat="38.2271380" lon="-1.4480410">
        <ele>284.6</ele>
        <time>2021-11-07T10:06:55Z</time>
      </trkpt>
      <trkpt lat="38.2271140" lon="-1.4480320">
        <ele>285.0</ele>
        <time>2021-11-07T10:06:57Z</time>
      </trkpt>
      <trkpt lat="38.2270840" lon="-1.4480200">
        <ele>285.5</ele>
        <time>2021-11-07T10:06:59Z</time>
      </trkpt>
      <trkpt lat="38.2270760" lon="-1.4480170">
        <ele>285.6</ele>
        <time>2021-11-07T10:07:00Z</time>
      </trkpt>
      <trkpt lat="38.2270660" lon="-1.4480100">
        <ele>285.8</ele>
        <time>2021-11-07T10:07:01Z</time>
      </trkpt>
      <trkpt lat="38.2270550" lon="-1.4480030">
        <ele>286.0</ele>
        <time>2021-11-07T10:07:02Z</time>
      </trkpt>
      <trkpt lat="38.2270280" lon="-1.4479830">
        <ele>286.5</ele>
        <time>2021-11-07T10:07:04Z</time>
      </trkpt>
      <trkpt lat="38.2270140" lon="-1.4479620">
        <ele>286.9</ele>
        <time>2021-11-07T10:07:06Z</time>
      </trkpt>
      <trkpt lat="38.2269760" lon="-1.4479450">
        <ele>287.5</ele>
        <time>2021-11-07T10:07:09Z</time>
      </trkpt>
      <trkpt lat="38.2269630" lon="-1.4479450">
        <ele>287.8</ele>
        <time>2021-11-07T10:07:10Z</time>
      </trkpt>
      <trkpt lat="38.2269350" lon="-1.4479430">
        <ele>288.2</ele>
        <time>2021-11-07T10:07:12Z</time>
      </trkpt>
      <trkpt lat="38.2269030" lon="-1.4479230">
        <ele>288.7</ele>
        <time>2021-11-07T10:07:14Z</time>
      </trkpt>
      <trkpt lat="38.2268980" lon="-1.4479120">
        <ele>288.9</ele>
        <time>2021-11-07T10:07:15Z</time>
      </trkpt>
      <trkpt lat="38.2268940" lon="-1.4479020">
        <ele>289.0</ele>
        <time>2021-11-07T10:07:16Z</time>
      </trkpt>
      <trkpt lat="38.2268890" lon="-1.4478920">
        <ele>289.2</ele>
        <time>2021-11-07T10:07:17Z</time>
      </trkpt>
      <trkpt lat="38.2268940" lon="-1.4478690">
        <ele>289.4</ele>
        <time>2021-11-07T10:07:18Z</time>
      </trkpt>
      <trkpt lat="38.2269060" lon="-1.4478370">
        <ele>289.8</ele>
        <time>2021-11-07T10:07:20Z</time>
      </trkpt>
      <trkpt lat="38.2269090" lon="-1.4478230">
        <ele>289.9</ele>
        <time>2021-11-07T10:07:21Z</time>
      </trkpt>
      <trkpt lat="38.2269160" lon="-1.4477770">
        <ele>290.4</ele>
        <time>2021-11-07T10:07:23Z</time>
      </trkpt>
      <trkpt lat="38.2269190" lon="-1.4477610">
        <ele>290.6</ele>
        <time>2021-11-07T10:07:24Z</time>
      </trkpt>
      <trkpt lat="38.2269230" lon="-1.4477430">
        <ele>290.7</ele>
        <time>2021-11-07T10:07:25Z</time>
      </trkpt>
      <trkpt lat="38.2269260" lon="-1.4477250">
        <ele>290.9</ele>
        <time>2021-11-07T10:07:26Z</time>
      </trkpt>
      <trkpt lat="38.2269290" lon="-1.4477030">
        <ele>291.1</ele>
        <time>2021-11-07T10:07:27Z</time>
      </trkpt>
      <trkpt lat="38.2269330" lon="-1.4476640">
        <ele>291.4</ele>
        <time>2021-11-07T10:07:29Z</time>
      </trkpt>
      <trkpt lat="38.2269340" lon="-1.4476550">
        <ele>291.5</ele>
        <time>2021-11-07T10:07:30Z</time>
      </trkpt>
      <trkpt lat="38.2269360" lon="-1.4476200">
        <ele>291.8</ele>
        <time>2021-11-07T10:07:32Z</time>
      </trkpt>
      <trkpt lat="38.2269420" lon="-1.4475840">
        <ele>292.1</ele>
        <time>2021-11-07T10:07:33Z</time>
      </trkpt>
      <trkpt lat="38.2269460" lon="-1.4475620">
        <ele>292.3</ele>
        <time>2021-11-07T10:07:34Z</time>
      </trkpt>
      <trkpt lat="38.2269510" lon="-1.4475420">
        <ele>292.5</ele>
        <time>2021-11-07T10:07:36Z</time>
      </trkpt>
      <trkpt lat="38.2269550" lon="-1.4475250">
        <ele>292.6</ele>
        <time>2021-11-07T10:07:37Z</time>
      </trkpt>
      <trkpt lat="38.2269590" lon="-1.4475090">
        <ele>292.7</ele>
        <time>2021-11-07T10:07:38Z</time>
      </trkpt>
      <trkpt lat="38.2269770" lon="-1.4474790">
        <ele>293.0</ele>
        <time>2021-11-07T10:07:39Z</time>
      </trkpt>
      <trkpt lat="38.2269830" lon="-1.4474620">
        <ele>293.1</ele>
        <time>2021-11-07T10:07:41Z</time>
      </trkpt>
      <trkpt lat="38.2269890" lon="-1.4474460">
        <ele>293.3</ele>
        <time>2021-11-07T10:07:42Z</time>
      </trkpt>
      <trkpt lat="38.2270130" lon="-1.4474010">
        <ele>293.7</ele>
        <time>2021-11-07T10:07:43Z</time>
      </trkpt>
      <trkpt lat="38.2270250" lon="-1.4473980">
        <ele>293.8</ele>
        <time>2021-11-07T10:07:45Z</time>
      </trkpt>
      <trkpt lat="38.2270400" lon="-1.4473790">
        <ele>294.0</ele>
        <time>2021-11-07T10:07:46Z</time>
      </trkpt>
      <trkpt lat="38.2270690" lon="-1.4473380">
        <ele>294.5</ele>
        <time>2021-11-07T10:07:48Z</time>
      </trkpt>
      <trkpt lat="38.2270780" lon="-1.4473270">
        <ele>294.6</ele>
        <time>2021-11-07T10:07:50Z</time>
      </trkpt>
      <trkpt lat="38.2270900" lon="-1.4473060">
        <ele>294.8</ele>
        <time>2021-11-07T10:07:51Z</time>
      </trkpt>
      <trkpt lat="38.2271200" lon="-1.4472680">
        <ele>295.3</ele>
        <time>2021-11-07T10:07:53Z</time>
      </trkpt>
      <trkpt lat="38.2271210" lon="-1.4472600">
        <ele>295.4</ele>
        <time>2021-11-07T10:07:54Z</time>
      </trkpt>
      <trkpt lat="38.2271240" lon="-1.4472440">
        <ele>295.5</ele>
        <time>2021-11-07T10:07:55Z</time>
      </trkpt>
      <trkpt lat="38.2271280" lon="-1.4472190">
        <ele>295.7</ele>
        <time>2021-11-07T10:07:57Z</time>
      </trkpt>
      <trkpt lat="38.2271360" lon="-1.4471810">
        <ele>296.0</ele>
        <time>2021-11-07T10:07:58Z</time>
      </trkpt>
      <trkpt lat="38.2271410" lon="-1.4471620">
        <ele>296.2</ele>
        <time>2021-11-07T10:07:59Z</time>
      </trkpt>
      <trkpt lat="38.2271400" lon="-1.4471500">
        <ele>296.3</ele>
        <time>2021-11-07T10:08:00Z</time>
      </trkpt>
      <trkpt lat="38.2271460" lon="-1.4471240">
        <ele>296.4</ele>
        <time>2021-11-07T10:08:01Z</time>
      </trkpt>
      <trkpt lat="38.2271540" lon="-1.4470830">
        <ele>296.7</ele>
        <time>2021-11-07T10:08:03Z</time>
      </trkpt>
      <trkpt lat="38.2271600" lon="-1.4470630">
        <ele>296.8</ele>
        <time>2021-11-07T10:08:04Z</time>
      </trkpt>
      <trkpt lat="38.2271640" lon="-1.4470410">
        <ele>296.9</ele>
        <time>2021-11-07T10:08:05Z</time>
      </trkpt>
      <trkpt lat="38.2271670" lon="-1.4470280">
        <ele>297.0</ele>
        <time>2021-11-07T10:08:06Z</time>
      </trkpt>
      <trkpt lat="38.2271700" lon="-1.4470160">
        <ele>297.0</ele>
        <time>2021-11-07T10:08:07Z</time>
      </trkpt>
      <trkpt lat="38.2271800" lon="-1.4469740">
        <ele>297.2</ele>
        <time>2021-11-07T10:08:08Z</time>
      </trkpt>
      <trkpt lat="38.2271790" lon="-1.4469650">
        <ele>297.3</ele>
        <time>2021-11-07T10:08:10Z</time>
      </trkpt>
      <trkpt lat="38.2271800" lon="-1.4469340">
        <ele>297.4</ele>
        <time>2021-11-07T10:08:11Z</time>
      </trkpt>
      <trkpt lat="38.2271840" lon="-1.4468960">
        <ele>297.6</ele>
        <time>2021-11-07T10:08:13Z</time>
      </trkpt>
      <trkpt lat="38.2271890" lon="-1.4468560">
        <ele>297.7</ele>
        <time>2021-11-07T10:08:14Z</time>
      </trkpt>
      <trkpt lat="38.2271980" lon="-1.4468230">
        <ele>297.8</ele>
        <time>2021-11-07T10:08:15Z</time>
      </trkpt>
      <trkpt lat="38.2272240" lon="-1.4467820">
        <ele>298.0</ele>
        <time>2021-11-07T10:08:17Z</time>
      </trkpt>
      <trkpt lat="38.2272360" lon="-1.4467630">
        <ele>298.1</ele>
        <time>2021-11-07T10:08:18Z</time>
      </trkpt>
      <trkpt lat="38.2272640" lon="-1.4467150">
        <ele>298.4</ele>
        <time>2021-11-07T10:08:20Z</time>
      </trkpt>
      <trkpt lat="38.2272740" lon="-1.4466970">
        <ele>298.5</ele>
        <time>2021-11-07T10:08:21Z</time>
      </trkpt>
      <trkpt lat="38.2272840" lon="-1.4466800">
        <ele>298.5</ele>
        <time>2021-11-07T10:08:22Z</time>
      </trkpt>
      <trkpt lat="38.2273000" lon="-1.4466420">
        <ele>298.7</ele>
        <time>2021-11-07T10:08:23Z</time>
      </trkpt>
      <trkpt lat="38.2273190" lon="-1.4465760">
        <ele>299.0</ele>
        <time>2021-11-07T10:08:25Z</time>
      </trkpt>
      <trkpt lat="38.2273260" lon="-1.4465500">
        <ele>299.0</ele>
        <time>2021-11-07T10:08:26Z</time>
      </trkpt>
      <trkpt lat="38.2273340" lon="-1.4465250">
        <ele>299.1</ele>
        <time>2021-11-07T10:08:27Z</time>
      </trkpt>
      <trkpt lat="38.2273470" lon="-1.4464800">
        <ele>299.3</ele>
        <time>2021-11-07T10:08:29Z</time>
      </trkpt>
      <trkpt lat="38.2273620" lon="-1.4464170">
        <ele>299.5</ele>
        <time>2021-11-07T10:08:31Z</time>
      </trkpt>
      <trkpt lat="38.2273700" lon="-1.4463820">
        <ele>299.7</ele>
        <time>2021-11-07T10:08:32Z</time>
      </trkpt>
      <trkpt lat="38.2273800" lon="-1.4463500">
        <ele>299.8</ele>
        <time>2021-11-07T10:08:33Z</time>
      </trkpt>
      <trkpt lat="38.2273920" lon="-1.4463100">
        <ele>299.9</ele>
        <time>2021-11-07T10:08:34Z</time>
      </trkpt>
      <trkpt lat="38.2274090" lon="-1.4462720">
        <ele>300.1</ele>
        <time>2021-11-07T10:08:35Z</time>
      </trkpt>
      <trkpt lat="38.2274320" lon="-1.4462330">
        <ele>300.4</ele>
        <time>2021-11-07T10:08:37Z</time>
      </trkpt>
      <trkpt lat="38.2274400" lon="-1.4462210">
        <ele>300.4</ele>
        <time>2021-11-07T10:08:38Z</time>
      </trkpt>
      <trkpt lat="38.2274650" lon="-1.4461890">
        <ele>300.6</ele>
        <time>2021-11-07T10:08:39Z</time>
      </trkpt>
      <trkpt lat="38.2274900" lon="-1.4461600">
        <ele>300.8</ele>
        <time>2021-11-07T10:08:41Z</time>
      </trkpt>
      <trkpt lat="38.2275230" lon="-1.4461380">
        <ele>301.1</ele>
        <time>2021-11-07T10:08:42Z</time>
      </trkpt>
      <trkpt lat="38.2275490" lon="-1.4461220">
        <ele>301.2</ele>
        <time>2021-11-07T10:08:43Z</time>
      </trkpt>
      <trkpt lat="38.2275890" lon="-1.4460910">
        <ele>301.5</ele>
        <time>2021-11-07T10:08:45Z</time>
      </trkpt>
      <trkpt lat="38.2276060" lon="-1.4460790">
        <ele>301.6</ele>
        <time>2021-11-07T10:08:46Z</time>
      </trkpt>
      <trkpt lat="38.2276440" lon="-1.4460520">
        <ele>301.9</ele>
        <time>2021-11-07T10:08:48Z</time>
      </trkpt>
      <trkpt lat="38.2276600" lon="-1.4460420">
        <ele>302.0</ele>
        <time>2021-11-07T10:08:49Z</time>
      </trkpt>
      <trkpt lat="38.2276880" lon="-1.4460230">
        <ele>302.2</ele>
        <time>2021-11-07T10:08:51Z</time>
      </trkpt>
      <trkpt lat="38.2277310" lon="-1.4460010">
        <ele>302.4</ele>
        <time>2021-11-07T10:08:53Z</time>
      </trkpt>
      <trkpt lat="38.2277680" lon="-1.4459840">
        <ele>302.7</ele>
        <time>2021-11-07T10:08:54Z</time>
      </trkpt>
      <trkpt lat="38.2278160" lon="-1.4459630">
        <ele>303.0</ele>
        <time>2021-11-07T10:08:56Z</time>
      </trkpt>
      <trkpt lat="38.2278310" lon="-1.4459560">
        <ele>303.1</ele>
        <time>2021-11-07T10:08:57Z</time>
      </trkpt>
      <trkpt lat="38.2278460" lon="-1.4459490">
        <ele>303.2</ele>
        <time>2021-11-07T10:08:58Z</time>
      </trkpt>
      <trkpt lat="38.2278790" lon="-1.4459290">
        <ele>303.4</ele>
        <time>2021-11-07T10:08:59Z</time>
      </trkpt>
      <trkpt lat="38.2279110" lon="-1.4459200">
        <ele>303.7</ele>
        <time>2021-11-07T10:09:00Z</time>
      </trkpt>
      <trkpt lat="38.2279220" lon="-1.4459180">
        <ele>303.7</ele>
        <time>2021-11-07T10:09:01Z</time>
      </trkpt>
      <trkpt lat="38.2279580" lon="-1.4459100">
        <ele>304.0</ele>
        <time>2021-11-07T10:09:03Z</time>
      </trkpt>
      <trkpt lat="38.2279720" lon="-1.4459080">
        <ele>304.1</ele>
        <time>2021-11-07T10:09:04Z</time>
      </trkpt>
      <trkpt lat="38.2280040" lon="-1.4458960">
        <ele>304.3</ele>
        <time>2021-11-07T10:09:06Z</time>
      </trkpt>
      <trkpt lat="38.2280150" lon="-1.4458920">
        <ele>304.4</ele>
        <time>2021-11-07T10:09:07Z</time>
      </trkpt>
      <trkpt lat="38.2280430" lon="-1.4458800">
        <ele>304.6</ele>
        <time>2021-11-07T10:09:09Z</time>
      </trkpt>
      <trkpt lat="38.2280700" lon="-1.4458600">
        <ele>304.9</ele>
        <time>2021-11-07T10:09:10Z</time>
      </trkpt>
      <trkpt lat="38.2280830" lon="-1.4458480">
        <ele>305.0</ele>
        <time>2021-11-07T10:09:11Z</time>
      </trkpt>
      <trkpt lat="38.2280960" lon="-1.4458330">
        <ele>305.2</ele>
        <time>2021-11-07T10:09:12Z</time>
      </trkpt>
      <trkpt lat="38.2281150" lon="-1.4458050">
        <ele>305.4</ele>
        <time>2021-11-07T10:09:15Z</time>
      </trkpt>
      <trkpt lat="38.2281200" lon="-1.4457740">
        <ele>305.6</ele>
        <time>2021-11-07T10:09:16Z</time>
      </trkpt>
      <trkpt lat="38.2281220" lon="-1.4457480">
        <ele>305.7</ele>
        <time>2021-11-07T10:09:18Z</time>
      </trkpt>
      <trkpt lat="38.2281200" lon="-1.4457040">
        <ele>306.0</ele>
        <time>2021-11-07T10:09:19Z</time>
      </trkpt>
      <trkpt lat="38.2281190" lon="-1.4456930">
        <ele>306.1</ele>
        <time>2021-11-07T10:09:20Z</time>
      </trkpt>
      <trkpt lat="38.2281220" lon="-1.4456580">
        <ele>306.3</ele>
        <time>2021-11-07T10:09:21Z</time>
      </trkpt>
      <trkpt lat="38.2281240" lon="-1.4456450">
        <ele>306.4</ele>
        <time>2021-11-07T10:09:22Z</time>
      </trkpt>
      <trkpt lat="38.2281300" lon="-1.4456110">
        <ele>306.6</ele>
        <time>2021-11-07T10:09:24Z</time>
      </trkpt>
      <trkpt lat="38.2281360" lon="-1.4455700">
        <ele>306.8</ele>
        <time>2021-11-07T10:09:25Z</time>
      </trkpt>
      <trkpt lat="38.2281430" lon="-1.4455350">
        <ele>307.0</ele>
        <time>2021-11-07T10:09:26Z</time>
      </trkpt>
      <trkpt lat="38.2281470" lon="-1.4454980">
        <ele>307.2</ele>
        <time>2021-11-07T10:09:28Z</time>
      </trkpt>
      <trkpt lat="38.2281490" lon="-1.4454880">
        <ele>307.2</ele>
        <time>2021-11-07T10:09:29Z</time>
      </trkpt>
      <trkpt lat="38.2281530" lon="-1.4454620">
        <ele>307.3</ele>
        <time>2021-11-07T10:09:30Z</time>
      </trkpt>
      <trkpt lat="38.2281560" lon="-1.4454440">
        <ele>307.4</ele>
        <time>2021-11-07T10:09:31Z</time>
      </trkpt>
      <trkpt lat="38.2281650" lon="-1.4454130">
        <ele>307.6</ele>
        <time>2021-11-07T10:09:32Z</time>
      </trkpt>
      <trkpt lat="38.2281730" lon="-1.4453920">
        <ele>307.7</ele>
        <time>2021-11-07T10:09:34Z</time>
      </trkpt>
      <trkpt lat="38.2281970" lon="-1.4453560">
        <ele>308.0</ele>
        <time>2021-11-07T10:09:35Z</time>
      </trkpt>
      <trkpt lat="38.2282080" lon="-1.4453410">
        <ele>308.1</ele>
        <time>2021-11-07T10:09:36Z</time>
      </trkpt>
      <trkpt lat="38.2282280" lon="-1.4453210">
        <ele>308.3</ele>
        <time>2021-11-07T10:09:37Z</time>
      </trkpt>
      <trkpt lat="38.2282510" lon="-1.4453010">
        <ele>308.6</ele>
        <time>2021-11-07T10:09:39Z</time>
      </trkpt>
      <trkpt lat="38.2282740" lon="-1.4452690">
        <ele>308.9</ele>
        <time>2021-11-07T10:09:40Z</time>
      </trkpt>
      <trkpt lat="38.2283010" lon="-1.4452400">
        <ele>309.3</ele>
        <time>2021-11-07T10:09:42Z</time>
      </trkpt>
      <trkpt lat="38.2283150" lon="-1.4452200">
        <ele>309.5</ele>
        <time>2021-11-07T10:09:43Z</time>
      </trkpt>
      <trkpt lat="38.2283310" lon="-1.4452040">
        <ele>309.7</ele>
        <time>2021-11-07T10:09:45Z</time>
      </trkpt>
      <trkpt lat="38.2283400" lon="-1.4451850">
        <ele>309.9</ele>
        <time>2021-11-07T10:09:46Z</time>
      </trkpt>
      <trkpt lat="38.2283460" lon="-1.4451710">
        <ele>310.0</ele>
        <time>2021-11-07T10:09:48Z</time>
      </trkpt>
      <trkpt lat="38.2283530" lon="-1.4451430">
        <ele>310.3</ele>
        <time>2021-11-07T10:09:49Z</time>
      </trkpt>
      <trkpt lat="38.2283530" lon="-1.4451360">
        <ele>310.3</ele>
        <time>2021-11-07T10:09:50Z</time>
      </trkpt>
      <trkpt lat="38.2283550" lon="-1.4451210">
        <ele>310.5</ele>
        <time>2021-11-07T10:09:51Z</time>
      </trkpt>
      <trkpt lat="38.2283580" lon="-1.4451000">
        <ele>310.6</ele>
        <time>2021-11-07T10:09:52Z</time>
      </trkpt>
      <trkpt lat="38.2283600" lon="-1.4450910">
        <ele>310.7</ele>
        <time>2021-11-07T10:09:53Z</time>
      </trkpt>
      <trkpt lat="38.2283620" lon="-1.4450740">
        <ele>310.9</ele>
        <time>2021-11-07T10:09:55Z</time>
      </trkpt>
      <trkpt lat="38.2283620" lon="-1.4450620">
        <ele>311.0</ele>
        <time>2021-11-07T10:09:56Z</time>
      </trkpt>
      <trkpt lat="38.2283600" lon="-1.4450360">
        <ele>311.2</ele>
        <time>2021-11-07T10:09:57Z</time>
      </trkpt>
      <trkpt lat="38.2283510" lon="-1.4450110">
        <ele>311.4</ele>
        <time>2021-11-07T10:09:59Z</time>
      </trkpt>
      <trkpt lat="38.2283480" lon="-1.4449860">
        <ele>311.7</ele>
        <time>2021-11-07T10:10:00Z</time>
      </trkpt>
      <trkpt lat="38.2283480" lon="-1.4449690">
        <ele>311.8</ele>
        <time>2021-11-07T10:10:02Z</time>
      </trkpt>
      <trkpt lat="38.2283330" lon="-1.4449270">
        <ele>312.2</ele>
        <time>2021-11-07T10:10:03Z</time>
      </trkpt>
      <trkpt lat="38.2283110" lon="-1.4449170">
        <ele>312.5</ele>
        <time>2021-11-07T10:10:04Z</time>
      </trkpt>
      <trkpt lat="38.2282950" lon="-1.4449130">
        <ele>312.7</ele>
        <time>2021-11-07T10:10:06Z</time>
      </trkpt>
      <trkpt lat="38.2282780" lon="-1.4449080">
        <ele>312.9</ele>
        <time>2021-11-07T10:10:07Z</time>
      </trkpt>
      <trkpt lat="38.2282610" lon="-1.4449030">
        <ele>313.1</ele>
        <time>2021-11-07T10:10:08Z</time>
      </trkpt>
      <trkpt lat="38.2282540" lon="-1.4449080">
        <ele>313.2</ele>
        <time>2021-11-07T10:10:10Z</time>
      </trkpt>
      <trkpt lat="38.2282420" lon="-1.4449090">
        <ele>313.3</ele>
        <time>2021-11-07T10:10:11Z</time>
      </trkpt>
      <trkpt lat="38.2282280" lon="-1.4449090">
        <ele>313.5</ele>
        <time>2021-11-07T10:10:12Z</time>
      </trkpt>
      <trkpt lat="38.2282080" lon="-1.4449110">
        <ele>313.7</ele>
        <time>2021-11-07T10:10:14Z</time>
      </trkpt>
      <trkpt lat="38.2282000" lon="-1.4449060">
        <ele>313.9</ele>
        <time>2021-11-07T10:10:15Z</time>
      </trkpt>
      <trkpt lat="38.2281720" lon="-1.4449100">
        <ele>314.2</ele>
        <time>2021-11-07T10:10:17Z</time>
      </trkpt>
      <trkpt lat="38.2281560" lon="-1.4449160">
        <ele>314.5</ele>
        <time>2021-11-07T10:10:18Z</time>
      </trkpt>
      <trkpt lat="38.2281520" lon="-1.4449180">
        <ele>314.5</ele>
        <time>2021-11-07T10:10:19Z</time>
      </trkpt>
      <trkpt lat="38.2281360" lon="-1.4449310">
        <ele>314.8</ele>
        <time>2021-11-07T10:10:21Z</time>
      </trkpt>
      <trkpt lat="38.2281280" lon="-1.4449370">
        <ele>314.9</ele>
        <time>2021-11-07T10:10:22Z</time>
      </trkpt>
      <trkpt lat="38.2281040" lon="-1.4449440">
        <ele>315.2</ele>
        <time>2021-11-07T10:10:23Z</time>
      </trkpt>
      <trkpt lat="38.2281020" lon="-1.4449410">
        <ele>315.3</ele>
        <time>2021-11-07T10:10:25Z</time>
      </trkpt>
      <trkpt lat="38.2280950" lon="-1.4449350">
        <ele>315.4</ele>
        <time>2021-11-07T10:10:26Z</time>
      </trkpt>
      <trkpt lat="38.2280920" lon="-1.4448860">
        <ele>315.9</ele>
        <time>2021-11-07T10:10:28Z</time>
      </trkpt>
      <trkpt lat="38.2280900" lon="-1.4448700">
        <ele>316.1</ele>
        <time>2021-11-07T10:10:29Z</time>
      </trkpt>
      <trkpt lat="38.2280830" lon="-1.4448500">
        <ele>316.3</ele>
        <time>2021-11-07T10:10:30Z</time>
      </trkpt>
      <trkpt lat="38.2280790" lon="-1.4448390">
        <ele>316.5</ele>
        <time>2021-11-07T10:10:32Z</time>
      </trkpt>
      <trkpt lat="38.2280740" lon="-1.4448280">
        <ele>316.6</ele>
        <time>2021-11-07T10:10:33Z</time>
      </trkpt>
      <trkpt lat="38.2280540" lon="-1.4447970">
        <ele>317.0</ele>
        <time>2021-11-07T10:10:34Z</time>
      </trkpt>
      <trkpt lat="38.2280360" lon="-1.4447820">
        <ele>317.3</ele>
        <time>2021-11-07T10:10:36Z</time>
      </trkpt>
      <trkpt lat="38.2280300" lon="-1.4447760">
        <ele>317.4</ele>
        <time>2021-11-07T10:10:37Z</time>
      </trkpt>
      <trkpt lat="38.2280240" lon="-1.4447690">
        <ele>317.5</ele>
        <time>2021-11-07T10:10:38Z</time>
      </trkpt>
      <trkpt lat="38.2280040" lon="-1.4447420">
        <ele>317.8</ele>
        <time>2021-11-07T10:10:39Z</time>
      </trkpt>
      <trkpt lat="38.2279880" lon="-1.4447250">
        <ele>318.1</ele>
        <time>2021-11-07T10:10:40Z</time>
      </trkpt>
      <trkpt lat="38.2279790" lon="-1.4447130">
        <ele>318.2</ele>
        <time>2021-11-07T10:10:42Z</time>
      </trkpt>
      <trkpt lat="38.2279710" lon="-1.4447020">
        <ele>318.3</ele>
        <time>2021-11-07T10:10:43Z</time>
      </trkpt>
      <trkpt lat="38.2279660" lon="-1.4446940">
        <ele>318.4</ele>
        <time>2021-11-07T10:10:44Z</time>
      </trkpt>
      <trkpt lat="38.2279590" lon="-1.4446680">
        <ele>318.6</ele>
        <time>2021-11-07T10:10:46Z</time>
      </trkpt>
      <trkpt lat="38.2279570" lon="-1.4446500">
        <ele>318.7</ele>
        <time>2021-11-07T10:10:47Z</time>
      </trkpt>
      <trkpt lat="38.2279540" lon="-1.4446350">
        <ele>318.8</ele>
        <time>2021-11-07T10:10:48Z</time>
      </trkpt>
      <trkpt lat="38.2279450" lon="-1.4445970">
        <ele>319.0</ele>
        <time>2021-11-07T10:10:50Z</time>
      </trkpt>
      <trkpt lat="38.2279470" lon="-1.4445560">
        <ele>319.2</ele>
        <time>2021-11-07T10:10:52Z</time>
      </trkpt>
      <trkpt lat="38.2279520" lon="-1.4445400">
        <ele>319.3</ele>
        <time>2021-11-07T10:10:53Z</time>
      </trkpt>
      <trkpt lat="38.2279580" lon="-1.4445060">
        <ele>319.4</ele>
        <time>2021-11-07T10:10:54Z</time>
      </trkpt>
      <trkpt lat="38.2279620" lon="-1.4444870">
        <ele>319.5</ele>
        <time>2021-11-07T10:10:56Z</time>
      </trkpt>
      <trkpt lat="38.2279650" lon="-1.4444670">
        <ele>319.6</ele>
        <time>2021-11-07T10:10:57Z</time>
      </trkpt>
      <trkpt lat="38.2279690" lon="-1.4444480">
        <ele>319.6</ele>
        <time>2021-11-07T10:10:58Z</time>
      </trkpt>
      <trkpt lat="38.2279770" lon="-1.4444140">
        <ele>319.7</ele>
        <time>2021-11-07T10:10:59Z</time>
      </trkpt>
      <trkpt lat="38.2279800" lon="-1.4444020">
        <ele>319.7</ele>
        <time>2021-11-07T10:11:00Z</time>
      </trkpt>
      <trkpt lat="38.2279910" lon="-1.4443510">
        <ele>319.8</ele>
        <time>2021-11-07T10:11:01Z</time>
      </trkpt>
      <trkpt lat="38.2279960" lon="-1.4443100">
        <ele>319.9</ele>
        <time>2021-11-07T10:11:02Z</time>
      </trkpt>
      <trkpt lat="38.2280010" lon="-1.4442750">
        <ele>319.9</ele>
        <time>2021-11-07T10:11:03Z</time>
      </trkpt>
      <trkpt lat="38.2280070" lon="-1.4442350">
        <ele>320.0</ele>
        <time>2021-11-07T10:11:05Z</time>
      </trkpt>
      <trkpt lat="38.2280190" lon="-1.4442080">
        <ele>320.0</ele>
        <time>2021-11-07T10:11:06Z</time>
      </trkpt>
      <trkpt lat="38.2280200" lon="-1.4441790">
        <ele>320.1</ele>
        <time>2021-11-07T10:11:08Z</time>
      </trkpt>
      <trkpt lat="38.2280140" lon="-1.4441460">
        <ele>320.1</ele>
        <time>2021-11-07T10:11:09Z</time>
      </trkpt>
      <trkpt lat="38.2280140" lon="-1.4441290">
        <ele>320.2</ele>
        <time>2021-11-07T10:11:10Z</time>
      </trkpt>
      <trkpt lat="38.2280200" lon="-1.4440870">
        <ele>320.3</ele>
        <time>2021-11-07T10:11:11Z</time>
      </trkpt>
      <trkpt lat="38.2280270" lon="-1.4440190">
        <ele>320.4</ele>
        <time>2021-11-07T10:11:13Z</time>
      </trkpt>
      <trkpt lat="38.2280310" lon="-1.4439950">
        <ele>320.5</ele>
        <time>2021-11-07T10:11:14Z</time>
      </trkpt>
      <trkpt lat="38.2280340" lon="-1.4439720">
        <ele>320.5</ele>
        <time>2021-11-07T10:11:15Z</time>
      </trkpt>
      <trkpt lat="38.2280400" lon="-1.4439170">
        <ele>320.6</ele>
        <time>2021-11-07T10:11:16Z</time>
      </trkpt>
      <trkpt lat="38.2280560" lon="-1.4438830">
        <ele>320.7</ele>
        <time>2021-11-07T10:11:17Z</time>
      </trkpt>
      <trkpt lat="38.2280730" lon="-1.4438550">
        <ele>320.8</ele>
        <time>2021-11-07T10:11:18Z</time>
      </trkpt>
      <trkpt lat="38.2280880" lon="-1.4438210">
        <ele>320.9</ele>
        <time>2021-11-07T10:11:20Z</time>
      </trkpt>
      <trkpt lat="38.2281050" lon="-1.4437730">
        <ele>321.1</ele>
        <time>2021-11-07T10:11:21Z</time>
      </trkpt>
      <trkpt lat="38.2280990" lon="-1.4437040">
        <ele>321.3</ele>
        <time>2021-11-07T10:11:23Z</time>
      </trkpt>
      <trkpt lat="38.2280880" lon="-1.4436730">
        <ele>321.5</ele>
        <time>2021-11-07T10:11:24Z</time>
      </trkpt>
      <trkpt lat="38.2280740" lon="-1.4436190">
        <ele>321.7</ele>
        <time>2021-11-07T10:11:26Z</time>
      </trkpt>
      <trkpt lat="38.2281150" lon="-1.4436270">
        <ele>321.9</ele>
        <time>2021-11-07T10:11:28Z</time>
      </trkpt>
      <trkpt lat="38.2281170" lon="-1.4436220">
        <ele>322.0</ele>
        <time>2021-11-07T10:11:29Z</time>
      </trkpt>
      <trkpt lat="38.2281230" lon="-1.4436160">
        <ele>322.0</ele>
        <time>2021-11-07T10:11:31Z</time>
      </trkpt>
      <trkpt lat="38.2281270" lon="-1.4436130">
        <ele>322.0</ele>
        <time>2021-11-07T10:11:33Z</time>
      </trkpt>
      <trkpt lat="38.2281280" lon="-1.4436120">
        <ele>322.1</ele>
        <time>2021-11-07T10:11:34Z</time>
      </trkpt>
      <trkpt lat="38.2281290" lon="-1.4436110">
        <ele>322.1</ele>
        <time>2021-11-07T10:11:35Z</time>
      </trkpt>
      <trkpt lat="38.2281330" lon="-1.4436150">
        <ele>322.1</ele>
        <time>2021-11-07T10:11:37Z</time>
      </trkpt>
      <trkpt lat="38.2281380" lon="-1.4436160">
        <ele>322.1</ele>
        <time>2021-11-07T10:11:38Z</time>
      </trkpt>
      <trkpt lat="38.2281520" lon="-1.4436030">
        <ele>322.2</ele>
        <time>2021-11-07T10:11:40Z</time>
      </trkpt>
      <trkpt lat="38.2281610" lon="-1.4435940">
        <ele>322.3</ele>
        <time>2021-11-07T10:11:41Z</time>
      </trkpt>
      <trkpt lat="38.2281820" lon="-1.4435540">
        <ele>322.6</ele>
        <time>2021-11-07T10:11:43Z</time>
      </trkpt>
      <trkpt lat="38.2281880" lon="-1.4435330">
        <ele>322.7</ele>
        <time>2021-11-07T10:11:44Z</time>
      </trkpt>
      <trkpt lat="38.2282030" lon="-1.4434800">
        <ele>323.0</ele>
        <time>2021-11-07T10:11:46Z</time>
      </trkpt>
      <trkpt lat="38.2282190" lon="-1.4434660">
        <ele>323.2</ele>
        <time>2021-11-07T10:11:48Z</time>
      </trkpt>
      <trkpt lat="38.2282200" lon="-1.4434440">
        <ele>323.3</ele>
        <time>2021-11-07T10:11:50Z</time>
      </trkpt>
      <trkpt lat="38.2282190" lon="-1.4434340">
        <ele>323.3</ele>
        <time>2021-11-07T10:11:51Z</time>
      </trkpt>
      <trkpt lat="38.2282200" lon="-1.4434220">
        <ele>323.4</ele>
        <time>2021-11-07T10:11:52Z</time>
      </trkpt>
      <trkpt lat="38.2282270" lon="-1.4433950">
        <ele>323.5</ele>
        <time>2021-11-07T10:11:54Z</time>
      </trkpt>
      <trkpt lat="38.2282280" lon="-1.4433790">
        <ele>323.6</ele>
        <time>2021-11-07T10:11:55Z</time>
      </trkpt>
      <trkpt lat="38.2282300" lon="-1.4433410">
        <ele>323.7</ele>
        <time>2021-11-07T10:11:57Z</time>
      </trkpt>
      <trkpt lat="38.2282340" lon="-1.4432880">
        <ele>323.9</ele>
        <time>2021-11-07T10:11:59Z</time>
      </trkpt>
      <trkpt lat="38.2282240" lon="-1.4432220">
        <ele>324.1</ele>
        <time>2021-11-07T10:12:01Z</time>
      </trkpt>
      <trkpt lat="38.2282230" lon="-1.4431990">
        <ele>324.1</ele>
        <time>2021-11-07T10:12:02Z</time>
      </trkpt>
      <trkpt lat="38.2282260" lon="-1.4431470">
        <ele>324.2</ele>
        <time>2021-11-07T10:12:04Z</time>
      </trkpt>
      <trkpt lat="38.2282270" lon="-1.4431190">
        <ele>324.2</ele>
        <time>2021-11-07T10:12:05Z</time>
      </trkpt>
      <trkpt lat="38.2282270" lon="-1.4430600">
        <ele>324.2</ele>
        <time>2021-11-07T10:12:07Z</time>
      </trkpt>
      <trkpt lat="38.2282210" lon="-1.4430230">
        <ele>324.2</ele>
        <time>2021-11-07T10:12:08Z</time>
      </trkpt>
      <trkpt lat="38.2282190" lon="-1.4430080">
        <ele>324.2</ele>
        <time>2021-11-07T10:12:09Z</time>
      </trkpt>
      <trkpt lat="38.2282120" lon="-1.4429520">
        <ele>324.1</ele>
        <time>2021-11-07T10:12:11Z</time>
      </trkpt>
      <trkpt lat="38.2282060" lon="-1.4429080">
        <ele>324.1</ele>
        <time>2021-11-07T10:12:12Z</time>
      </trkpt>
      <trkpt lat="38.2282040" lon="-1.4428940">
        <ele>324.0</ele>
        <time>2021-11-07T10:12:13Z</time>
      </trkpt>
      <trkpt lat="38.2282020" lon="-1.4428460">
        <ele>323.9</ele>
        <time>2021-11-07T10:12:14Z</time>
      </trkpt>
      <trkpt lat="38.2281960" lon="-1.4428000">
        <ele>323.8</ele>
        <time>2021-11-07T10:12:15Z</time>
      </trkpt>
      <trkpt lat="38.2281930" lon="-1.4427830">
        <ele>323.7</ele>
        <time>2021-11-07T10:12:16Z</time>
      </trkpt>
      <trkpt lat="38.2281830" lon="-1.4427510">
        <ele>323.6</ele>
        <time>2021-11-07T10:12:18Z</time>
      </trkpt>
      <trkpt lat="38.2281780" lon="-1.4427100">
        <ele>323.4</ele>
        <time>2021-11-07T10:12:19Z</time>
      </trkpt>
      <trkpt lat="38.2281750" lon="-1.4426810">
        <ele>323.3</ele>
        <time>2021-11-07T10:12:21Z</time>
      </trkpt>
      <trkpt lat="38.2281640" lon="-1.4426410">
        <ele>323.1</ele>
        <time>2021-11-07T10:12:23Z</time>
      </trkpt>
      <trkpt lat="38.2281580" lon="-1.4425890">
        <ele>322.7</ele>
        <time>2021-11-07T10:12:25Z</time>
      </trkpt>
      <trkpt lat="38.2281620" lon="-1.4425790">
        <ele>322.7</ele>
        <time>2021-11-07T10:12:27Z</time>
      </trkpt>
      <trkpt lat="38.2281660" lon="-1.4425700">
        <ele>322.6</ele>
        <time>2021-11-07T10:12:28Z</time>
      </trkpt>
      <trkpt lat="38.2281700" lon="-1.4425610">
        <ele>322.5</ele>
        <time>2021-11-07T10:12:29Z</time>
      </trkpt>
      <trkpt lat="38.2281740" lon="-1.4425510">
        <ele>322.4</ele>
        <time>2021-11-07T10:12:30Z</time>
      </trkpt>
      <trkpt lat="38.2281780" lon="-1.4425420">
        <ele>322.3</ele>
        <time>2021-11-07T10:12:31Z</time>
      </trkpt>
      <trkpt lat="38.2281820" lon="-1.4425330">
        <ele>322.2</ele>
        <time>2021-11-07T10:12:32Z</time>
      </trkpt>
      <trkpt lat="38.2281860" lon="-1.4425230">
        <ele>322.1</ele>
        <time>2021-11-07T10:12:34Z</time>
      </trkpt>
      <trkpt lat="38.2281900" lon="-1.4425140">
        <ele>322.0</ele>
        <time>2021-11-07T10:12:35Z</time>
      </trkpt>
      <trkpt lat="38.2281940" lon="-1.4425050">
        <ele>321.9</ele>
        <time>2021-11-07T10:12:36Z</time>
      </trkpt>
      <trkpt lat="38.2282260" lon="-1.4424780">
        <ele>321.4</ele>
        <time>2021-11-07T10:12:37Z</time>
      </trkpt>
      <trkpt lat="38.2282700" lon="-1.4424540">
        <ele>320.7</ele>
        <time>2021-11-07T10:12:39Z</time>
      </trkpt>
      <trkpt lat="38.2283040" lon="-1.4424410">
        <ele>320.2</ele>
        <time>2021-11-07T10:12:40Z</time>
      </trkpt>
      <trkpt lat="38.2283350" lon="-1.4424300">
        <ele>319.8</ele>
        <time>2021-11-07T10:12:41Z</time>
      </trkpt>
      <trkpt lat="38.2283820" lon="-1.4424350">
        <ele>319.1</ele>
        <time>2021-11-07T10:12:43Z</time>
      </trkpt>
      <trkpt lat="38.2284150" lon="-1.4424300">
        <ele>318.7</ele>
        <time>2021-11-07T10:12:44Z</time>
      </trkpt>
      <trkpt lat="38.2284610" lon="-1.4424110">
        <ele>318.0</ele>
        <time>2021-11-07T10:12:45Z</time>
      </trkpt>
      <trkpt lat="38.2284920" lon="-1.4423950">
        <ele>317.6</ele>
        <time>2021-11-07T10:12:47Z</time>
      </trkpt>
      <trkpt lat="38.2285200" lon="-1.4423780">
        <ele>317.2</ele>
        <time>2021-11-07T10:12:48Z</time>
      </trkpt>
      <trkpt lat="38.2285460" lon="-1.4423670">
        <ele>316.8</ele>
        <time>2021-11-07T10:12:49Z</time>
      </trkpt>
      <trkpt lat="38.2285820" lon="-1.4423450">
        <ele>316.3</ele>
        <time>2021-11-07T10:12:50Z</time>
      </trkpt>
      <trkpt lat="38.2286040" lon="-1.4423090">
        <ele>315.9</ele>
        <time>2021-11-07T10:12:51Z</time>
      </trkpt>
      <trkpt lat="38.2286130" lon="-1.4422980">
        <ele>315.8</ele>
        <time>2021-11-07T10:12:52Z</time>
      </trkpt>
      <trkpt lat="38.2286470" lon="-1.4422740">
        <ele>315.4</ele>
        <time>2021-11-07T10:12:53Z</time>
      </trkpt>
      <trkpt lat="38.2286620" lon="-1.4422700">
        <ele>315.3</ele>
        <time>2021-11-07T10:12:54Z</time>
      </trkpt>
      <trkpt lat="38.2287000" lon="-1.4422680">
        <ele>314.9</ele>
        <time>2021-11-07T10:12:55Z</time>
      </trkpt>
      <trkpt lat="38.2287320" lon="-1.4422640">
        <ele>314.7</ele>
        <time>2021-11-07T10:12:56Z</time>
      </trkpt>
      <trkpt lat="38.2287630" lon="-1.4422600">
        <ele>314.4</ele>
        <time>2021-11-07T10:12:58Z</time>
      </trkpt>
      <trkpt lat="38.2287960" lon="-1.4422430">
        <ele>314.1</ele>
        <time>2021-11-07T10:12:59Z</time>
      </trkpt>
      <trkpt lat="38.2288220" lon="-1.4422260">
        <ele>313.9</ele>
        <time>2021-11-07T10:13:00Z</time>
      </trkpt>
      <trkpt lat="38.2288290" lon="-1.4422180">
        <ele>313.8</ele>
        <time>2021-11-07T10:13:01Z</time>
      </trkpt>
      <trkpt lat="38.2288620" lon="-1.4422020">
        <ele>313.6</ele>
        <time>2021-11-07T10:13:02Z</time>
      </trkpt>
      <trkpt lat="38.2288730" lon="-1.4421960">
        <ele>313.4</ele>
        <time>2021-11-07T10:13:03Z</time>
      </trkpt>
      <trkpt lat="38.2289040" lon="-1.4421670">
        <ele>313.1</ele>
        <time>2021-11-07T10:13:05Z</time>
      </trkpt>
      <trkpt lat="38.2289320" lon="-1.4421440">
        <ele>312.7</ele>
        <time>2021-11-07T10:13:06Z</time>
      </trkpt>
      <trkpt lat="38.2289410" lon="-1.4421400">
        <ele>312.6</ele>
        <time>2021-11-07T10:13:07Z</time>
      </trkpt>
      <trkpt lat="38.2289630" lon="-1.4421440">
        <ele>312.3</ele>
        <time>2021-11-07T10:13:08Z</time>
      </trkpt>
      <trkpt lat="38.2289800" lon="-1.4421710">
        <ele>311.9</ele>
        <time>2021-11-07T10:13:10Z</time>
      </trkpt>
      <trkpt lat="38.2289650" lon="-1.4422210">
        <ele>311.2</ele>
        <time>2021-11-07T10:13:11Z</time>
      </trkpt>
      <trkpt lat="38.2289500" lon="-1.4422670">
        <ele>310.6</ele>
        <time>2021-11-07T10:13:13Z</time>
      </trkpt>
      <trkpt lat="38.2289350" lon="-1.4423000">
        <ele>310.2</ele>
        <time>2021-11-07T10:13:14Z</time>
      </trkpt>
      <trkpt lat="38.2289260" lon="-1.4423400">
        <ele>309.6</ele>
        <time>2021-11-07T10:13:15Z</time>
      </trkpt>
      <trkpt lat="38.2289270" lon="-1.4423840">
        <ele>309.0</ele>
        <time>2021-11-07T10:13:17Z</time>
      </trkpt>
      <trkpt lat="38.2289300" lon="-1.4423980">
        <ele>308.8</ele>
        <time>2021-11-07T10:13:18Z</time>
      </trkpt>
      <trkpt lat="38.2289270" lon="-1.4424480">
        <ele>308.1</ele>
        <time>2021-11-07T10:13:19Z</time>
      </trkpt>
      <trkpt lat="38.2289240" lon="-1.4424650">
        <ele>307.9</ele>
        <time>2021-11-07T10:13:20Z</time>
      </trkpt>
      <trkpt lat="38.2289510" lon="-1.4425120">
        <ele>307.0</ele>
        <time>2021-11-07T10:13:22Z</time>
      </trkpt>
      <trkpt lat="38.2289610" lon="-1.4425250">
        <ele>306.7</ele>
        <time>2021-11-07T10:13:23Z</time>
      </trkpt>
      <trkpt lat="38.2289720" lon="-1.4425380">
        <ele>306.4</ele>
        <time>2021-11-07T10:13:24Z</time>
      </trkpt>
      <trkpt lat="38.2290090" lon="-1.4425550">
        <ele>305.7</ele>
        <time>2021-11-07T10:13:25Z</time>
      </trkpt>
      <trkpt lat="38.2290220" lon="-1.4425570">
        <ele>305.5</ele>
        <time>2021-11-07T10:13:26Z</time>
      </trkpt>
      <trkpt lat="38.2290480" lon="-1.4425710">
        <ele>304.9</ele>
        <time>2021-11-07T10:13:27Z</time>
      </trkpt>
      <trkpt lat="38.2290760" lon="-1.4425800">
        <ele>304.4</ele>
        <time>2021-11-07T10:13:28Z</time>
      </trkpt>
      <trkpt lat="38.2291060" lon="-1.4425890">
        <ele>303.8</ele>
        <time>2021-11-07T10:13:29Z</time>
      </trkpt>
      <trkpt lat="38.2291320" lon="-1.4426000">
        <ele>303.3</ele>
        <time>2021-11-07T10:13:30Z</time>
      </trkpt>
      <trkpt lat="38.2291550" lon="-1.4426020">
        <ele>302.9</ele>
        <time>2021-11-07T10:13:31Z</time>
      </trkpt>
      <trkpt lat="38.2291800" lon="-1.4425990">
        <ele>302.5</ele>
        <time>2021-11-07T10:13:33Z</time>
      </trkpt>
      <trkpt lat="38.2292100" lon="-1.4425760">
        <ele>301.9</ele>
        <time>2021-11-07T10:13:35Z</time>
      </trkpt>
      <trkpt lat="38.2292320" lon="-1.4425410">
        <ele>301.4</ele>
        <time>2021-11-07T10:13:37Z</time>
      </trkpt>
      <trkpt lat="38.2292420" lon="-1.4424790">
        <ele>300.6</ele>
        <time>2021-11-07T10:13:39Z</time>
      </trkpt>
      <trkpt lat="38.2292500" lon="-1.4424320">
        <ele>300.0</ele>
        <time>2021-11-07T10:13:40Z</time>
      </trkpt>
      <trkpt lat="38.2292520" lon="-1.4424120">
        <ele>299.7</ele>
        <time>2021-11-07T10:13:41Z</time>
      </trkpt>
      <trkpt lat="38.2292580" lon="-1.4423740">
        <ele>299.3</ele>
        <time>2021-11-07T10:13:42Z</time>
      </trkpt>
      <trkpt lat="38.2292630" lon="-1.4423320">
        <ele>298.7</ele>
        <time>2021-11-07T10:13:43Z</time>
      </trkpt>
      <trkpt lat="38.2292670" lon="-1.4422900">
        <ele>298.2</ele>
        <time>2021-11-07T10:13:44Z</time>
      </trkpt>
      <trkpt lat="38.2292820" lon="-1.4422480">
        <ele>297.6</ele>
        <time>2021-11-07T10:13:45Z</time>
      </trkpt>
      <trkpt lat="38.2293110" lon="-1.4421880">
        <ele>296.8</ele>
        <time>2021-11-07T10:13:46Z</time>
      </trkpt>
      <trkpt lat="38.2293410" lon="-1.4421160">
        <ele>295.9</ele>
        <time>2021-11-07T10:13:48Z</time>
      </trkpt>
      <trkpt lat="38.2293530" lon="-1.4420550">
        <ele>295.0</ele>
        <time>2021-11-07T10:13:49Z</time>
      </trkpt>
      <trkpt lat="38.2293520" lon="-1.4420200">
        <ele>294.8</ele>
        <time>2021-11-07T10:13:50Z</time>
      </trkpt>
      <trkpt lat="38.2293680" lon="-1.4419950">
        <ele>294.7</ele>
        <time>2021-11-07T10:13:51Z</time>
      </trkpt>
      <trkpt lat="38.2293770" lon="-1.4419930">
        <ele>294.6</ele>
        <time>2021-11-07T10:13:53Z</time>
      </trkpt>
      <trkpt lat="38.2293940" lon="-1.4420280">
        <ele>294.4</ele>
        <time>2021-11-07T10:13:54Z</time>
      </trkpt>
      <trkpt lat="38.2294240" lon="-1.4420820">
        <ele>294.1</ele>
        <time>2021-11-07T10:13:56Z</time>
      </trkpt>
      <trkpt lat="38.2294110" lon="-1.4420900">
        <ele>294.0</ele>
        <time>2021-11-07T10:13:57Z</time>
      </trkpt>
      <trkpt lat="38.2294010" lon="-1.4421190">
        <ele>293.9</ele>
        <time>2021-11-07T10:13:59Z</time>
      </trkpt>
      <trkpt lat="38.2293770" lon="-1.4421740">
        <ele>293.6</ele>
        <time>2021-11-07T10:14:01Z</time>
      </trkpt>
      <trkpt lat="38.2293670" lon="-1.4422020">
        <ele>293.4</ele>
        <time>2021-11-07T10:14:03Z</time>
      </trkpt>
      <trkpt lat="38.2293570" lon="-1.4422320">
        <ele>293.2</ele>
        <time>2021-11-07T10:14:05Z</time>
      </trkpt>
      <trkpt lat="38.2293510" lon="-1.4422680">
        <ele>293.1</ele>
        <time>2021-11-07T10:14:06Z</time>
      </trkpt>
      <trkpt lat="38.2293490" lon="-1.4422860">
        <ele>293.0</ele>
        <time>2021-11-07T10:14:07Z</time>
      </trkpt>
      <trkpt lat="38.2293490" lon="-1.4422990">
        <ele>292.4</ele>
        <time>2021-11-07T10:14:08Z</time>
      </trkpt>
      <trkpt lat="38.2293500" lon="-1.4423130">
        <ele>292.3</ele>
        <time>2021-11-07T10:14:09Z</time>
      </trkpt>
      <trkpt lat="38.2293520" lon="-1.4423310">
        <ele>292.1</ele>
        <time>2021-11-07T10:14:11Z</time>
      </trkpt>
      <trkpt lat="38.2293500" lon="-1.4423250">
        <ele>292.0</ele>
        <time>2021-11-07T10:14:13Z</time>
      </trkpt>
      <trkpt lat="38.2293490" lon="-1.4423230">
        <ele>291.8</ele>
        <time>2021-11-07T10:14:14Z</time>
      </trkpt>
      <trkpt lat="38.2293570" lon="-1.4423210">
        <ele>291.7</ele>
        <time>2021-11-07T10:14:15Z</time>
      </trkpt>
      <trkpt lat="38.2294030" lon="-1.4423390">
        <ele>290.5</ele>
        <time>2021-11-07T10:14:17Z</time>
      </trkpt>
      <trkpt lat="38.2294130" lon="-1.4423460">
        <ele>290.0</ele>
        <time>2021-11-07T10:14:18Z</time>
      </trkpt>
      <trkpt lat="38.2294250" lon="-1.4423500">
        <ele>288.8</ele>
        <time>2021-11-07T10:14:19Z</time>
      </trkpt>
      <trkpt lat="38.2294440" lon="-1.4423670">
        <ele>288.7</ele>
        <time>2021-11-07T10:14:21Z</time>
      </trkpt>
      <trkpt lat="38.2294650" lon="-1.4423810">
        <ele>287.6</ele>
        <time>2021-11-07T10:14:22Z</time>
      </trkpt>
      <trkpt lat="38.2294750" lon="-1.4423810">
        <ele>287.4</ele>
        <time>2021-11-07T10:14:23Z</time>
      </trkpt>
      <trkpt lat="38.2295020" lon="-1.4423900">
        <ele>286.0</ele>
        <time>2021-11-07T10:14:25Z</time>
      </trkpt>
      <trkpt lat="38.2295420" lon="-1.4424040">
        <ele>285.1</ele>
        <time>2021-11-07T10:14:27Z</time>
      </trkpt>
      <trkpt lat="38.2295480" lon="-1.4424120">
        <ele>284.9</ele>
        <time>2021-11-07T10:14:28Z</time>
      </trkpt>
      <trkpt lat="38.2295800" lon="-1.4424280">
        <ele>283.4</ele>
        <time>2021-11-07T10:14:30Z</time>
      </trkpt>
      <trkpt lat="38.2295960" lon="-1.4424390">
        <ele>282.6</ele>
        <time>2021-11-07T10:14:31Z</time>
      </trkpt>
      <trkpt lat="38.2296290" lon="-1.4424630">
        <ele>281.7</ele>
        <time>2021-11-07T10:14:33Z</time>
      </trkpt>
      <trkpt lat="38.2296520" lon="-1.4424820">
        <ele>280.6</ele>
        <time>2021-11-07T10:14:34Z</time>
      </trkpt>
      <trkpt lat="38.2296770" lon="-1.4424860">
        <ele>280.5</ele>
        <time>2021-11-07T10:14:35Z</time>
      </trkpt>
      <trkpt lat="38.2296980" lon="-1.4424840">
        <ele>279.6</ele>
        <time>2021-11-07T10:14:36Z</time>
      </trkpt>
      <trkpt lat="38.2297180" lon="-1.4424810">
        <ele>279.4</ele>
        <time>2021-11-07T10:14:37Z</time>
      </trkpt>
      <trkpt lat="38.2297540" lon="-1.4424810">
        <ele>278.0</ele>
        <time>2021-11-07T10:14:38Z</time>
      </trkpt>
      <trkpt lat="38.2298010" lon="-1.4424770">
        <ele>277.3</ele>
        <time>2021-11-07T10:14:40Z</time>
      </trkpt>
      <trkpt lat="38.2298350" lon="-1.4424740">
        <ele>276.6</ele>
        <time>2021-11-07T10:14:41Z</time>
      </trkpt>
      <trkpt lat="38.2298700" lon="-1.4424620">
        <ele>276.1</ele>
        <time>2021-11-07T10:14:42Z</time>
      </trkpt>
      <trkpt lat="38.2299080" lon="-1.4424410">
        <ele>275.5</ele>
        <time>2021-11-07T10:14:43Z</time>
      </trkpt>
      <trkpt lat="38.2299380" lon="-1.4424280">
        <ele>274.9</ele>
        <time>2021-11-07T10:14:44Z</time>
      </trkpt>
      <trkpt lat="38.2299690" lon="-1.4424210">
        <ele>274.5</ele>
        <time>2021-11-07T10:14:45Z</time>
      </trkpt>
      <trkpt lat="38.2299930" lon="-1.4424200">
        <ele>274.0</ele>
        <time>2021-11-07T10:14:46Z</time>
      </trkpt>
      <trkpt lat="38.2300190" lon="-1.4424160">
        <ele>273.8</ele>
        <time>2021-11-07T10:14:48Z</time>
      </trkpt>
      <trkpt lat="38.2300490" lon="-1.4424160">
        <ele>273.3</ele>
        <time>2021-11-07T10:14:49Z</time>
      </trkpt>
      <trkpt lat="38.2300580" lon="-1.4424150">
        <ele>272.8</ele>
        <time>2021-11-07T10:14:50Z</time>
      </trkpt>
      <trkpt lat="38.2300810" lon="-1.4424030">
        <ele>272.7</ele>
        <time>2021-11-07T10:14:51Z</time>
      </trkpt>
      <trkpt lat="38.2301140" lon="-1.4423970">
        <ele>272.2</ele>
        <time>2021-11-07T10:14:53Z</time>
      </trkpt>
      <trkpt lat="38.2301520" lon="-1.4423840">
        <ele>272.1</ele>
        <time>2021-11-07T10:14:54Z</time>
      </trkpt>
      <trkpt lat="38.2301840" lon="-1.4423750">
        <ele>271.6</ele>
        <time>2021-11-07T10:14:55Z</time>
      </trkpt>
      <trkpt lat="38.2302170" lon="-1.4423580">
        <ele>271.2</ele>
        <time>2021-11-07T10:14:57Z</time>
      </trkpt>
      <trkpt lat="38.2302540" lon="-1.4423530">
        <ele>270.7</ele>
        <time>2021-11-07T10:14:58Z</time>
      </trkpt>
      <trkpt lat="38.2302870" lon="-1.4423640">
        <ele>270.3</ele>
        <time>2021-11-07T10:14:59Z</time>
      </trkpt>
      <trkpt lat="38.2303140" lon="-1.4423770">
        <ele>269.8</ele>
        <time>2021-11-07T10:15:01Z</time>
      </trkpt>
      <trkpt lat="38.2303350" lon="-1.4423520">
        <ele>269.5</ele>
        <time>2021-11-07T10:15:03Z</time>
      </trkpt>
      <trkpt lat="38.2303160" lon="-1.4423150">
        <ele>269.9</ele>
        <time>2021-11-07T10:15:05Z</time>
      </trkpt>
      <trkpt lat="38.2303210" lon="-1.4423010">
        <ele>269.7</ele>
        <time>2021-11-07T10:15:07Z</time>
      </trkpt>
      <trkpt lat="38.2303280" lon="-1.4423050">
        <ele>269.3</ele>
        <time>2021-11-07T10:15:09Z</time>
      </trkpt>
      <trkpt lat="38.2303320" lon="-1.4423030">
        <ele>269.2</ele>
        <time>2021-11-07T10:15:11Z</time>
      </trkpt>
      <trkpt lat="38.2303310" lon="-1.4423100">
        <ele>269.0</ele>
        <time>2021-11-07T10:15:13Z</time>
      </trkpt>
      <trkpt lat="38.2303410" lon="-1.4423410">
        <ele>268.9</ele>
        <time>2021-11-07T10:15:14Z</time>
      </trkpt>
      <trkpt lat="38.2303760" lon="-1.4423460">
        <ele>268.2</ele>
        <time>2021-11-07T10:15:16Z</time>
      </trkpt>
      <trkpt lat="38.2303910" lon="-1.4423280">
        <ele>268.3</ele>
        <time>2021-11-07T10:15:17Z</time>
      </trkpt>
      <trkpt lat="38.2304060" lon="-1.4423100">
        <ele>268.0</ele>
        <time>2021-11-07T10:15:18Z</time>
      </trkpt>
      <trkpt lat="38.2304010" lon="-1.4422610">
        <ele>268.2</ele>
        <time>2021-11-07T10:15:20Z</time>
      </trkpt>
      <trkpt lat="38.2303990" lon="-1.4422230">
        <ele>268.4</ele>
        <time>2021-11-07T10:15:22Z</time>
      </trkpt>
      <trkpt lat="38.2304050" lon="-1.4421940">
        <ele>268.6</ele>
        <time>2021-11-07T10:15:23Z</time>
      </trkpt>
      <trkpt lat="38.2304200" lon="-1.4421840">
        <ele>268.4</ele>
        <time>2021-11-07T10:15:25Z</time>
      </trkpt>
      <trkpt lat="38.2304390" lon="-1.4421820">
        <ele>268.0</ele>
        <time>2021-11-07T10:15:26Z</time>
      </trkpt>
      <trkpt lat="38.2304590" lon="-1.4421920">
        <ele>267.9</ele>
        <time>2021-11-07T10:15:28Z</time>
      </trkpt>
      <trkpt lat="38.2305030" lon="-1.4422120">
        <ele>267.3</ele>
        <time>2021-11-07T10:15:29Z</time>
      </trkpt>
      <trkpt lat="38.2305300" lon="-1.4422150">
        <ele>266.6</ele>
        <time>2021-11-07T10:15:30Z</time>
      </trkpt>
      <trkpt lat="38.2305700" lon="-1.4422060">
        <ele>266.5</ele>
        <time>2021-11-07T10:15:32Z</time>
      </trkpt>
      <trkpt lat="38.2305840" lon="-1.4422000">
        <ele>266.3</ele>
        <time>2021-11-07T10:15:33Z</time>
      </trkpt>
      <trkpt lat="38.2306160" lon="-1.4421950">
        <ele>265.9</ele>
        <time>2021-11-07T10:15:34Z</time>
      </trkpt>
      <trkpt lat="38.2306260" lon="-1.4421940">
        <ele>265.8</ele>
        <time>2021-11-07T10:15:35Z</time>
      </trkpt>
      <trkpt lat="38.2306720" lon="-1.4421900">
        <ele>265.2</ele>
        <time>2021-11-07T10:15:36Z</time>
      </trkpt>
      <trkpt lat="38.2307000" lon="-1.4421920">
        <ele>264.8</ele>
        <time>2021-11-07T10:15:38Z</time>
      </trkpt>
      <trkpt lat="38.2307440" lon="-1.4422030">
        <ele>264.3</ele>
        <time>2021-11-07T10:15:39Z</time>
      </trkpt>
      <trkpt lat="38.2307870" lon="-1.4422060">
        <ele>263.9</ele>
        <time>2021-11-07T10:15:41Z</time>
      </trkpt>
      <trkpt lat="38.2308160" lon="-1.4422030">
        <ele>263.5</ele>
        <time>2021-11-07T10:15:42Z</time>
      </trkpt>
      <trkpt lat="38.2308580" lon="-1.4422050">
        <ele>263.0</ele>
        <time>2021-11-07T10:15:43Z</time>
      </trkpt>
      <trkpt lat="38.2308880" lon="-1.4422050">
        <ele>262.5</ele>
        <time>2021-11-07T10:15:44Z</time>
      </trkpt>
      <trkpt lat="38.2309320" lon="-1.4422090">
        <ele>262.0</ele>
        <time>2021-11-07T10:15:45Z</time>
      </trkpt>
      <trkpt lat="38.2309660" lon="-1.4422100">
        <ele>261.5</ele>
        <time>2021-11-07T10:15:46Z</time>
      </trkpt>
      <trkpt lat="38.2310000" lon="-1.4422080">
        <ele>261.0</ele>
        <time>2021-11-07T10:15:48Z</time>
      </trkpt>
      <trkpt lat="38.2310340" lon="-1.4421990">
        <ele>260.0</ele>
        <time>2021-11-07T10:15:49Z</time>
      </trkpt>
      <trkpt lat="38.2310710" lon="-1.4421900">
        <ele>259.5</ele>
        <time>2021-11-07T10:15:50Z</time>
      </trkpt>
      <trkpt lat="38.2310970" lon="-1.4421900">
        <ele>259.3</ele>
        <time>2021-11-07T10:15:51Z</time>
      </trkpt>
      <trkpt lat="38.2311300" lon="-1.4421980">
        <ele>258.7</ele>
        <time>2021-11-07T10:15:53Z</time>
      </trkpt>
      <trkpt lat="38.2311750" lon="-1.4421970">
        <ele>257.6</ele>
        <time>2021-11-07T10:15:54Z</time>
      </trkpt>
      <trkpt lat="38.2312120" lon="-1.4421910">
        <ele>257.0</ele>
        <time>2021-11-07T10:15:56Z</time>
      </trkpt>
      <trkpt lat="38.2312400" lon="-1.4421810">
        <ele>256.3</ele>
        <time>2021-11-07T10:15:57Z</time>
      </trkpt>
      <trkpt lat="38.2312680" lon="-1.4421750">
        <ele>256.1</ele>
        <time>2021-11-07T10:15:58Z</time>
      </trkpt>
      <trkpt lat="38.2313100" lon="-1.4421730">
        <ele>255.0</ele>
        <time>2021-11-07T10:15:59Z</time>
      </trkpt>
      <trkpt lat="38.2313250" lon="-1.4421720">
        <ele>254.8</ele>
        <time>2021-11-07T10:16:00Z</time>
      </trkpt>
      <trkpt lat="38.2313530" lon="-1.4421670">
        <ele>254.4</ele>
        <time>2021-11-07T10:16:01Z</time>
      </trkpt>
      <trkpt lat="38.2313830" lon="-1.4421440">
        <ele>253.7</ele>
        <time>2021-11-07T10:16:02Z</time>
      </trkpt>
      <trkpt lat="38.2314090" lon="-1.4421180">
        <ele>253.2</ele>
        <time>2021-11-07T10:16:03Z</time>
      </trkpt>
      <trkpt lat="38.2314340" lon="-1.4420970">
        <ele>253.1</ele>
        <time>2021-11-07T10:16:04Z</time>
      </trkpt>
      <trkpt lat="38.2314580" lon="-1.4420710">
        <ele>252.6</ele>
        <time>2021-11-07T10:16:05Z</time>
      </trkpt>
      <trkpt lat="38.2314830" lon="-1.4420520">
        <ele>251.9</ele>
        <time>2021-11-07T10:16:07Z</time>
      </trkpt>
      <trkpt lat="38.2315290" lon="-1.4420250">
        <ele>251.6</ele>
        <time>2021-11-07T10:16:09Z</time>
      </trkpt>
      <trkpt lat="38.2315660" lon="-1.4420110">
        <ele>250.9</ele>
        <time>2021-11-07T10:16:10Z</time>
      </trkpt>
      <trkpt lat="38.2316010" lon="-1.4419950">
        <ele>250.6</ele>
        <time>2021-11-07T10:16:11Z</time>
      </trkpt>
      <trkpt lat="38.2316300" lon="-1.4419810">
        <ele>249.9</ele>
        <time>2021-11-07T10:16:13Z</time>
      </trkpt>
      <trkpt lat="38.2316550" lon="-1.4419700">
        <ele>249.3</ele>
        <time>2021-11-07T10:16:14Z</time>
      </trkpt>
      <trkpt lat="38.2317030" lon="-1.4419470">
        <ele>248.9</ele>
        <time>2021-11-07T10:16:16Z</time>
      </trkpt>
      <trkpt lat="38.2317390" lon="-1.4419310">
        <ele>248.2</ele>
        <time>2021-11-07T10:16:17Z</time>
      </trkpt>
      <trkpt lat="38.2317810" lon="-1.4419010">
        <ele>247.3</ele>
        <time>2021-11-07T10:16:19Z</time>
      </trkpt>
      <trkpt lat="38.2318110" lon="-1.4418820">
        <ele>246.7</ele>
        <time>2021-11-07T10:16:20Z</time>
      </trkpt>
      <trkpt lat="38.2318400" lon="-1.4418650">
        <ele>246.7</ele>
        <time>2021-11-07T10:16:21Z</time>
      </trkpt>
      <trkpt lat="38.2318760" lon="-1.4418440">
        <ele>246.1</ele>
        <time>2021-11-07T10:16:22Z</time>
      </trkpt>
      <trkpt lat="38.2319200" lon="-1.4418210">
        <ele>245.2</ele>
        <time>2021-11-07T10:16:23Z</time>
      </trkpt>
      <trkpt lat="38.2319710" lon="-1.4417970">
        <ele>244.6</ele>
        <time>2021-11-07T10:16:25Z</time>
      </trkpt>
      <trkpt lat="38.2320210" lon="-1.4417620">
        <ele>243.7</ele>
        <time>2021-11-07T10:16:26Z</time>
      </trkpt>
      <trkpt lat="38.2320590" lon="-1.4417290">
        <ele>243.4</ele>
        <time>2021-11-07T10:16:27Z</time>
      </trkpt>
      <trkpt lat="38.2320970" lon="-1.4416920">
        <ele>243.2</ele>
        <time>2021-11-07T10:16:29Z</time>
      </trkpt>
      <trkpt lat="38.2321280" lon="-1.4416630">
        <ele>242.8</ele>
        <time>2021-11-07T10:16:30Z</time>
      </trkpt>
      <trkpt lat="38.2321580" lon="-1.4416370">
        <ele>242.6</ele>
        <time>2021-11-07T10:16:31Z</time>
      </trkpt>
      <trkpt lat="38.2321970" lon="-1.4416130">
        <ele>242.1</ele>
        <time>2021-11-07T10:16:32Z</time>
      </trkpt>
      <trkpt lat="38.2322310" lon="-1.4415870">
        <ele>241.9</ele>
        <time>2021-11-07T10:16:34Z</time>
      </trkpt>
      <trkpt lat="38.2322720" lon="-1.4415590">
        <ele>241.6</ele>
        <time>2021-11-07T10:16:35Z</time>
      </trkpt>
      <trkpt lat="38.2323080" lon="-1.4415350">
        <ele>241.1</ele>
        <time>2021-11-07T10:16:37Z</time>
      </trkpt>
      <trkpt lat="38.2323370" lon="-1.4415200">
        <ele>240.8</ele>
        <time>2021-11-07T10:16:38Z</time>
      </trkpt>
      <trkpt lat="38.2323900" lon="-1.4415000">
        <ele>240.2</ele>
        <time>2021-11-07T10:16:39Z</time>
      </trkpt>
      <trkpt lat="38.2324200" lon="-1.4414880">
        <ele>239.8</ele>
        <time>2021-11-07T10:16:40Z</time>
      </trkpt>
      <trkpt lat="38.2324560" lon="-1.4414770">
        <ele>239.5</ele>
        <time>2021-11-07T10:16:42Z</time>
      </trkpt>
      <trkpt lat="38.2324910" lon="-1.4414670">
        <ele>239.1</ele>
        <time>2021-11-07T10:16:43Z</time>
      </trkpt>
      <trkpt lat="38.2325260" lon="-1.4414550">
        <ele>238.7</ele>
        <time>2021-11-07T10:16:44Z</time>
      </trkpt>
      <trkpt lat="38.2325600" lon="-1.4414500">
        <ele>238.2</ele>
        <time>2021-11-07T10:16:45Z</time>
      </trkpt>
      <trkpt lat="38.2326130" lon="-1.4414360">
        <ele>238.1</ele>
        <time>2021-11-07T10:16:46Z</time>
      </trkpt>
      <trkpt lat="38.2326430" lon="-1.4414210">
        <ele>237.7</ele>
        <time>2021-11-07T10:16:48Z</time>
      </trkpt>
      <trkpt lat="38.2326700" lon="-1.4414020">
        <ele>237.4</ele>
        <time>2021-11-07T10:16:49Z</time>
      </trkpt>
      <trkpt lat="38.2327010" lon="-1.4413610">
        <ele>237.2</ele>
        <time>2021-11-07T10:16:50Z</time>
      </trkpt>
      <trkpt lat="38.2327240" lon="-1.4413180">
        <ele>236.9</ele>
        <time>2021-11-07T10:16:51Z</time>
      </trkpt>
      <trkpt lat="38.2327250" lon="-1.4412740">
        <ele>237.0</ele>
        <time>2021-11-07T10:16:53Z</time>
      </trkpt>
      <trkpt lat="38.2327290" lon="-1.4412570">
        <ele>237.0</ele>
        <time>2021-11-07T10:16:54Z</time>
      </trkpt>
      <trkpt lat="38.2327430" lon="-1.4412470">
        <ele>236.9</ele>
        <time>2021-11-07T10:16:55Z</time>
      </trkpt>
      <trkpt lat="38.2327670" lon="-1.4412430">
        <ele>237.0</ele>
        <time>2021-11-07T10:16:56Z</time>
      </trkpt>
      <trkpt lat="38.2328050" lon="-1.4412470">
        <ele>237.1</ele>
        <time>2021-11-07T10:16:58Z</time>
      </trkpt>
      <trkpt lat="38.2328330" lon="-1.4412530">
        <ele>237.2</ele>
        <time>2021-11-07T10:16:59Z</time>
      </trkpt>
      <trkpt lat="38.2328650" lon="-1.4412670">
        <ele>237.3</ele>
        <time>2021-11-07T10:17:00Z</time>
      </trkpt>
      <trkpt lat="38.2329000" lon="-1.4412750">
        <ele>237.5</ele>
        <time>2021-11-07T10:17:01Z</time>
      </trkpt>
      <trkpt lat="38.2329370" lon="-1.4412890">
        <ele>237.6</ele>
        <time>2021-11-07T10:17:03Z</time>
      </trkpt>
      <trkpt lat="38.2329800" lon="-1.4412900">
        <ele>237.7</ele>
        <time>2021-11-07T10:17:04Z</time>
      </trkpt>
      <trkpt lat="38.2330190" lon="-1.4412860">
        <ele>237.8</ele>
        <time>2021-11-07T10:17:05Z</time>
      </trkpt>
      <trkpt lat="38.2330620" lon="-1.4412850">
        <ele>237.9</ele>
        <time>2021-11-07T10:17:07Z</time>
      </trkpt>
      <trkpt lat="38.2331070" lon="-1.4412760">
        <ele>238.0</ele>
        <time>2021-11-07T10:17:08Z</time>
      </trkpt>
      <trkpt lat="38.2331370" lon="-1.4412700">
        <ele>238.0</ele>
        <time>2021-11-07T10:17:09Z</time>
      </trkpt>
      <trkpt lat="38.2331740" lon="-1.4412590">
        <ele>238.1</ele>
        <time>2021-11-07T10:17:10Z</time>
      </trkpt>
      <trkpt lat="38.2331860" lon="-1.4412530">
        <ele>238.1</ele>
        <time>2021-11-07T10:17:11Z</time>
      </trkpt>
      <trkpt lat="38.2332300" lon="-1.4412380">
        <ele>238.1</ele>
        <time>2021-11-07T10:17:13Z</time>
      </trkpt>
      <trkpt lat="38.2332480" lon="-1.4412330">
        <ele>238.1</ele>
        <time>2021-11-07T10:17:14Z</time>
      </trkpt>
      <trkpt lat="38.2332840" lon="-1.4412260">
        <ele>238.2</ele>
        <time>2021-11-07T10:17:16Z</time>
      </trkpt>
      <trkpt lat="38.2333050" lon="-1.4412040">
        <ele>238.2</ele>
        <time>2021-11-07T10:17:17Z</time>
      </trkpt>
      <trkpt lat="38.2333420" lon="-1.4411790">
        <ele>238.1</ele>
        <time>2021-11-07T10:17:18Z</time>
      </trkpt>
      <trkpt lat="38.2333580" lon="-1.4411710">
        <ele>238.1</ele>
        <time>2021-11-07T10:17:19Z</time>
      </trkpt>
      <trkpt lat="38.2333780" lon="-1.4411470">
        <ele>238.1</ele>
        <time>2021-11-07T10:17:21Z</time>
      </trkpt>
      <trkpt lat="38.2333950" lon="-1.4411280">
        <ele>238.0</ele>
        <time>2021-11-07T10:17:22Z</time>
      </trkpt>
      <trkpt lat="38.2334110" lon="-1.4411100">
        <ele>238.0</ele>
        <time>2021-11-07T10:17:24Z</time>
      </trkpt>
      <trkpt lat="38.2334240" lon="-1.4411010">
        <ele>237.9</ele>
        <time>2021-11-07T10:17:25Z</time>
      </trkpt>
      <trkpt lat="38.2334370" lon="-1.4410940">
        <ele>237.8</ele>
        <time>2021-11-07T10:17:26Z</time>
      </trkpt>
      <trkpt lat="38.2334500" lon="-1.4410890">
        <ele>237.8</ele>
        <time>2021-11-07T10:17:27Z</time>
      </trkpt>
      <trkpt lat="38.2334630" lon="-1.4410860">
        <ele>237.7</ele>
        <time>2021-11-07T10:17:29Z</time>
      </trkpt>
      <trkpt lat="38.2334800" lon="-1.4410770">
        <ele>237.6</ele>
        <time>2021-11-07T10:17:31Z</time>
      </trkpt>
      <trkpt lat="38.2334840" lon="-1.4410740">
        <ele>237.6</ele>
        <time>2021-11-07T10:17:32Z</time>
      </trkpt>
      <trkpt lat="38.2334890" lon="-1.4410700">
        <ele>237.5</ele>
        <time>2021-11-07T10:17:33Z</time>
      </trkpt>
      <trkpt lat="38.2334940" lon="-1.4410640">
        <ele>237.5</ele>
        <time>2021-11-07T10:17:34Z</time>
      </trkpt>
      <trkpt lat="38.2334960" lon="-1.4410580">
        <ele>237.4</ele>
        <time>2021-11-07T10:17:35Z</time>
      </trkpt>
      <trkpt lat="38.2334960" lon="-1.4410510">
        <ele>237.4</ele>
        <time>2021-11-07T10:17:36Z</time>
      </trkpt>
      <trkpt lat="38.2334980" lon="-1.4410540">
        <ele>237.4</ele>
        <time>2021-11-07T10:17:38Z</time>
      </trkpt>
      <trkpt lat="38.2334990" lon="-1.4410600">
        <ele>237.3</ele>
        <time>2021-11-07T10:17:39Z</time>
      </trkpt>
      <trkpt lat="38.2335010" lon="-1.4410630">
        <ele>237.3</ele>
        <time>2021-11-07T10:17:42Z</time>
      </trkpt>
      <trkpt lat="38.2335030" lon="-1.4410700">
        <ele>237.2</ele>
        <time>2021-11-07T10:17:44Z</time>
      </trkpt>
      <trkpt lat="38.2335090" lon="-1.4410780">
        <ele>237.2</ele>
        <time>2021-11-07T10:17:47Z</time>
      </trkpt>
      <trkpt lat="38.2335130" lon="-1.4410820">
        <ele>237.1</ele>
        <time>2021-11-07T10:17:49Z</time>
      </trkpt>
      <trkpt lat="38.2335140" lon="-1.4410890">
        <ele>237.1</ele>
        <time>2021-11-07T10:17:50Z</time>
      </trkpt>
      <trkpt lat="38.2335260" lon="-1.4410790">
        <ele>236.9</ele>
        <time>2021-11-07T10:17:52Z</time>
      </trkpt>
      <trkpt lat="38.2335320" lon="-1.4410770">
        <ele>236.9</ele>
        <time>2021-11-07T10:17:53Z</time>
      </trkpt>
      <trkpt lat="38.2335410" lon="-1.4410720">
        <ele>236.8</ele>
        <time>2021-11-07T10:17:54Z</time>
      </trkpt>
      <trkpt lat="38.2335490" lon="-1.4410610">
        <ele>236.7</ele>
        <time>2021-11-07T10:17:56Z</time>
      </trkpt>
      <trkpt lat="38.2335510" lon="-1.4410580">
        <ele>236.6</ele>
        <time>2021-11-07T10:17:57Z</time>
      </trkpt>
      <trkpt lat="38.2335530" lon="-1.4410540">
        <ele>236.6</ele>
        <time>2021-11-07T10:17:59Z</time>
      </trkpt>
      <trkpt lat="38.2335550" lon="-1.4410510">
        <ele>236.6</ele>
        <time>2021-11-07T10:18:00Z</time>
      </trkpt>
      <trkpt lat="38.2335570" lon="-1.4410480">
        <ele>236.5</ele>
        <time>2021-11-07T10:18:02Z</time>
      </trkpt>
      <trkpt lat="38.2335590" lon="-1.4410440">
        <ele>236.5</ele>
        <time>2021-11-07T10:18:03Z</time>
      </trkpt>
      <trkpt lat="38.2335610" lon="-1.4410410">
        <ele>236.4</ele>
        <time>2021-11-07T10:18:04Z</time>
      </trkpt>
      <trkpt lat="38.2335630" lon="-1.4410380">
        <ele>236.4</ele>
        <time>2021-11-07T10:18:06Z</time>
      </trkpt>
      <trkpt lat="38.2335650" lon="-1.4410340">
        <ele>236.4</ele>
        <time>2021-11-07T10:18:07Z</time>
      </trkpt>
      <trkpt lat="38.2335840" lon="-1.4410100">
        <ele>236.0</ele>
        <time>2021-11-07T10:18:09Z</time>
      </trkpt>
      <trkpt lat="38.2335910" lon="-1.4409970">
        <ele>235.9</ele>
        <time>2021-11-07T10:18:10Z</time>
      </trkpt>
      <trkpt lat="38.2336190" lon="-1.4409670">
        <ele>235.4</ele>
        <time>2021-11-07T10:18:11Z</time>
      </trkpt>
      <trkpt lat="38.2336420" lon="-1.4409390">
        <ele>235.0</ele>
        <time>2021-11-07T10:18:12Z</time>
      </trkpt>
      <trkpt lat="38.2336710" lon="-1.4409010">
        <ele>234.5</ele>
        <time>2021-11-07T10:18:14Z</time>
      </trkpt>
      <trkpt lat="38.2336990" lon="-1.4408670">
        <ele>234.0</ele>
        <time>2021-11-07T10:18:15Z</time>
      </trkpt>
      <trkpt lat="38.2337350" lon="-1.4408240">
        <ele>233.4</ele>
        <time>2021-11-07T10:18:16Z</time>
      </trkpt>
      <trkpt lat="38.2337580" lon="-1.4407940">
        <ele>233.0</ele>
        <time>2021-11-07T10:18:17Z</time>
      </trkpt>
      <trkpt lat="38.2337870" lon="-1.4407570">
        <ele>232.6</ele>
        <time>2021-11-07T10:18:19Z</time>
      </trkpt>
      <trkpt lat="38.2338210" lon="-1.4407040">
        <ele>232.0</ele>
        <time>2021-11-07T10:18:20Z</time>
      </trkpt>
      <trkpt lat="38.2338530" lon="-1.4406610">
        <ele>231.5</ele>
        <time>2021-11-07T10:18:22Z</time>
      </trkpt>
      <trkpt lat="38.2338770" lon="-1.4406360">
        <ele>231.2</ele>
        <time>2021-11-07T10:18:23Z</time>
      </trkpt>
      <trkpt lat="38.2339110" lon="-1.4405950">
        <ele>230.7</ele>
        <time>2021-11-07T10:18:24Z</time>
      </trkpt>
      <trkpt lat="38.2339230" lon="-1.4405760">
        <ele>230.5</ele>
        <time>2021-11-07T10:18:25Z</time>
      </trkpt>
      <trkpt lat="38.2339390" lon="-1.4405270">
        <ele>229.6</ele>
        <time>2021-11-07T10:18:26Z</time>
      </trkpt>
      <trkpt lat="38.2339440" lon="-1.4405090">
        <ele>229.6</ele>
        <time>2021-11-07T10:18:27Z</time>
      </trkpt>
      <trkpt lat="38.2339540" lon="-1.4404660">
        <ele>229.6</ele>
        <time>2021-11-07T10:18:29Z</time>
      </trkpt>
      <trkpt lat="38.2339750" lon="-1.4404230">
        <ele>229.7</ele>
        <time>2021-11-07T10:18:30Z</time>
      </trkpt>
      <trkpt lat="38.2339920" lon="-1.4403960">
        <ele>229.7</ele>
        <time>2021-11-07T10:18:31Z</time>
      </trkpt>
      <trkpt lat="38.2340070" lon="-1.4403560">
        <ele>229.7</ele>
        <time>2021-11-07T10:18:33Z</time>
      </trkpt>
      <trkpt lat="38.2340130" lon="-1.4403220">
        <ele>229.8</ele>
        <time>2021-11-07T10:18:34Z</time>
      </trkpt>
      <trkpt lat="38.2340110" lon="-1.4402680">
        <ele>229.8</ele>
        <time>2021-11-07T10:18:35Z</time>
      </trkpt>
      <trkpt lat="38.2340080" lon="-1.4402370">
        <ele>229.8</ele>
        <time>2021-11-07T10:18:36Z</time>
      </trkpt>
      <trkpt lat="38.2340080" lon="-1.4402000">
        <ele>229.9</ele>
        <time>2021-11-07T10:18:38Z</time>
      </trkpt>
      <trkpt lat="38.2339900" lon="-1.4401580">
        <ele>230.0</ele>
        <time>2021-11-07T10:18:39Z</time>
      </trkpt>
      <trkpt lat="38.2339830" lon="-1.4401410">
        <ele>230.1</ele>
        <time>2021-11-07T10:18:40Z</time>
      </trkpt>
      <trkpt lat="38.2339770" lon="-1.4401110">
        <ele>230.2</ele>
        <time>2021-11-07T10:18:41Z</time>
      </trkpt>
      <trkpt lat="38.2339800" lon="-1.4400880">
        <ele>230.3</ele>
        <time>2021-11-07T10:18:43Z</time>
      </trkpt>
      <trkpt lat="38.2339820" lon="-1.4400520">
        <ele>230.4</ele>
        <time>2021-11-07T10:18:45Z</time>
      </trkpt>
      <trkpt lat="38.2339840" lon="-1.4400820">
        <ele>230.5</ele>
        <time>2021-11-07T10:18:47Z</time>
      </trkpt>
      <trkpt lat="38.2339860" lon="-1.4400940">
        <ele>230.6</ele>
        <time>2021-11-07T10:18:48Z</time>
      </trkpt>
      <trkpt lat="38.2339890" lon="-1.4400980">
        <ele>230.6</ele>
        <time>2021-11-07T10:18:50Z</time>
      </trkpt>
      <trkpt lat="38.2339900" lon="-1.4400990">
        <ele>230.6</ele>
        <time>2021-11-07T10:18:51Z</time>
      </trkpt>
      <trkpt lat="38.2339920" lon="-1.4401020">
        <ele>230.6</ele>
        <time>2021-11-07T10:18:53Z</time>
      </trkpt>
      <trkpt lat="38.2339930" lon="-1.4401020">
        <ele>230.6</ele>
        <time>2021-11-07T10:18:54Z</time>
      </trkpt>
      <trkpt lat="38.2339940" lon="-1.4401160">
        <ele>230.7</ele>
        <time>2021-11-07T10:18:56Z</time>
      </trkpt>
      <trkpt lat="38.2339960" lon="-1.4401160">
        <ele>230.7</ele>
        <time>2021-11-07T10:18:57Z</time>
      </trkpt>
      <trkpt lat="38.2339990" lon="-1.4401170">
        <ele>230.7</ele>
        <time>2021-11-07T10:18:59Z</time>
      </trkpt>
      <trkpt lat="38.2340050" lon="-1.4401160">
        <ele>230.7</ele>
        <time>2021-11-07T10:19:01Z</time>
      </trkpt>
      <trkpt lat="38.2340040" lon="-1.4401000">
        <ele>230.8</ele>
        <time>2021-11-07T10:19:02Z</time>
      </trkpt>
      <trkpt lat="38.2339920" lon="-1.4400740">
        <ele>230.9</ele>
        <time>2021-11-07T10:19:03Z</time>
      </trkpt>
      <trkpt lat="38.2339710" lon="-1.4400580">
        <ele>231.0</ele>
        <time>2021-11-07T10:19:04Z</time>
      </trkpt>
      <trkpt lat="38.2339510" lon="-1.4400340">
        <ele>231.2</ele>
        <time>2021-11-07T10:19:06Z</time>
      </trkpt>
      <trkpt lat="38.2339330" lon="-1.4400250">
        <ele>231.3</ele>
        <time>2021-11-07T10:19:08Z</time>
      </trkpt>
      <trkpt lat="38.2339220" lon="-1.4400200">
        <ele>231.3</ele>
        <time>2021-11-07T10:19:09Z</time>
      </trkpt>
      <trkpt lat="38.2339100" lon="-1.4400370">
        <ele>231.5</ele>
        <time>2021-11-07T10:19:10Z</time>
      </trkpt>
      <trkpt lat="38.2339000" lon="-1.4400400">
        <ele>231.5</ele>
        <time>2021-11-07T10:19:11Z</time>
      </trkpt>
      <trkpt lat="38.2338900" lon="-1.4400420">
        <ele>231.6</ele>
        <time>2021-11-07T10:19:12Z</time>
      </trkpt>
      <trkpt lat="38.2338690" lon="-1.4399800">
        <ele>231.9</ele>
        <time>2021-11-07T10:19:13Z</time>
      </trkpt>
      <trkpt lat="38.2338610" lon="-1.4399470">
        <ele>232.1</ele>
        <time>2021-11-07T10:19:14Z</time>
      </trkpt>
      <trkpt lat="38.2338540" lon="-1.4398980">
        <ele>232.3</ele>
        <time>2021-11-07T10:19:15Z</time>
      </trkpt>
      <trkpt lat="38.2338480" lon="-1.4398430">
        <ele>232.6</ele>
        <time>2021-11-07T10:19:16Z</time>
      </trkpt>
      <trkpt lat="38.2338430" lon="-1.4397960">
        <ele>232.8</ele>
        <time>2021-11-07T10:19:18Z</time>
      </trkpt>
      <trkpt lat="38.2338340" lon="-1.4397470">
        <ele>233.1</ele>
        <time>2021-11-07T10:19:19Z</time>
      </trkpt>
      <trkpt lat="38.2338310" lon="-1.4397020">
        <ele>233.3</ele>
        <time>2021-11-07T10:19:21Z</time>
      </trkpt>
      <trkpt lat="38.2338370" lon="-1.4396380">
        <ele>233.7</ele>
        <time>2021-11-07T10:19:22Z</time>
      </trkpt>
      <trkpt lat="38.2338250" lon="-1.4395940">
        <ele>233.9</ele>
        <time>2021-11-07T10:19:23Z</time>
      </trkpt>
      <trkpt lat="38.2338120" lon="-1.4395540">
        <ele>234.1</ele>
        <time>2021-11-07T10:19:25Z</time>
      </trkpt>
      <trkpt lat="38.2338030" lon="-1.4395320">
        <ele>234.3</ele>
        <time>2021-11-07T10:19:26Z</time>
      </trkpt>
      <trkpt lat="38.2337850" lon="-1.4395130">
        <ele>234.4</ele>
        <time>2021-11-07T10:19:28Z</time>
      </trkpt>
      <trkpt lat="38.2337760" lon="-1.4394780">
        <ele>234.7</ele>
        <time>2021-11-07T10:19:29Z</time>
      </trkpt>
      <trkpt lat="38.2337670" lon="-1.4394430">
        <ele>234.9</ele>
        <time>2021-11-07T10:19:31Z</time>
      </trkpt>
      <trkpt lat="38.2337590" lon="-1.4393930">
        <ele>235.1</ele>
        <time>2021-11-07T10:19:32Z</time>
      </trkpt>
      <trkpt lat="38.2337530" lon="-1.4393470">
        <ele>235.4</ele>
        <time>2021-11-07T10:19:33Z</time>
      </trkpt>
      <trkpt lat="38.2337420" lon="-1.4393070">
        <ele>235.6</ele>
        <time>2021-11-07T10:19:35Z</time>
      </trkpt>
      <trkpt lat="38.2337290" lon="-1.4392630">
        <ele>235.9</ele>
        <time>2021-11-07T10:19:36Z</time>
      </trkpt>
      <trkpt lat="38.2337110" lon="-1.4392160">
        <ele>236.2</ele>
        <time>2021-11-07T10:19:37Z</time>
      </trkpt>
      <trkpt lat="38.2337040" lon="-1.4391990">
        <ele>236.4</ele>
        <time>2021-11-07T10:19:38Z</time>
      </trkpt>
      <trkpt lat="38.2336870" lon="-1.4391430">
        <ele>236.7</ele>
        <time>2021-11-07T10:19:40Z</time>
      </trkpt>
      <trkpt lat="38.2336800" lon="-1.4391260">
        <ele>236.8</ele>
        <time>2021-11-07T10:19:41Z</time>
      </trkpt>
      <trkpt lat="38.2336730" lon="-1.4391090">
        <ele>236.9</ele>
        <time>2021-11-07T10:19:42Z</time>
      </trkpt>
      <trkpt lat="38.2336490" lon="-1.4390790">
        <ele>237.2</ele>
        <time>2021-11-07T10:19:43Z</time>
      </trkpt>
      <trkpt lat="38.2336320" lon="-1.4390620">
        <ele>237.4</ele>
        <time>2021-11-07T10:19:44Z</time>
      </trkpt>
      <trkpt lat="38.2336060" lon="-1.4390480">
        <ele>237.6</ele>
        <time>2021-11-07T10:19:46Z</time>
      </trkpt>
      <trkpt lat="38.2335930" lon="-1.4390070">
        <ele>237.9</ele>
        <time>2021-11-07T10:19:47Z</time>
      </trkpt>
      <trkpt lat="38.2335840" lon="-1.4389640">
        <ele>238.1</ele>
        <time>2021-11-07T10:19:48Z</time>
      </trkpt>
      <trkpt lat="38.2335810" lon="-1.4389490">
        <ele>238.2</ele>
        <time>2021-11-07T10:19:49Z</time>
      </trkpt>
      <trkpt lat="38.2335740" lon="-1.4389220">
        <ele>238.4</ele>
        <time>2021-11-07T10:19:50Z</time>
      </trkpt>
      <trkpt lat="38.2335690" lon="-1.4388760">
        <ele>238.6</ele>
        <time>2021-11-07T10:19:53Z</time>
      </trkpt>
      <trkpt lat="38.2335500" lon="-1.4388420">
        <ele>238.9</ele>
        <time>2021-11-07T10:19:54Z</time>
      </trkpt>
      <trkpt lat="38.2335430" lon="-1.4388310">
        <ele>239.0</ele>
        <time>2021-11-07T10:19:55Z</time>
      </trkpt>
      <trkpt lat="38.2335200" lon="-1.4387980">
        <ele>239.2</ele>
        <time>2021-11-07T10:19:56Z</time>
      </trkpt>
      <trkpt lat="38.2335100" lon="-1.4387870">
        <ele>239.3</ele>
        <time>2021-11-07T10:19:57Z</time>
      </trkpt>
      <trkpt lat="38.2334870" lon="-1.4387620">
        <ele>239.5</ele>
        <time>2021-11-07T10:19:58Z</time>
      </trkpt>
      <trkpt lat="38.2334610" lon="-1.4387410">
        <ele>239.8</ele>
        <time>2021-11-07T10:20:00Z</time>
      </trkpt>
      <trkpt lat="38.2334230" lon="-1.4387120">
        <ele>240.1</ele>
        <time>2021-11-07T10:20:01Z</time>
      </trkpt>
      <trkpt lat="38.2333820" lon="-1.4386820">
        <ele>240.5</ele>
        <time>2021-11-07T10:20:03Z</time>
      </trkpt>
      <trkpt lat="38.2333680" lon="-1.4386720">
        <ele>240.6</ele>
        <time>2021-11-07T10:20:04Z</time>
      </trkpt>
      <trkpt lat="38.2333540" lon="-1.4386630">
        <ele>240.7</ele>
        <time>2021-11-07T10:20:05Z</time>
      </trkpt>
      <trkpt lat="38.2333300" lon="-1.4386420">
        <ele>240.9</ele>
        <time>2021-11-07T10:20:06Z</time>
      </trkpt>
      <trkpt lat="38.2333110" lon="-1.4386200">
        <ele>241.1</ele>
        <time>2021-11-07T10:20:07Z</time>
      </trkpt>
      <trkpt lat="38.2332970" lon="-1.4385980">
        <ele>241.3</ele>
        <time>2021-11-07T10:20:09Z</time>
      </trkpt>
      <trkpt lat="38.2332740" lon="-1.4385630">
        <ele>241.6</ele>
        <time>2021-11-07T10:20:10Z</time>
      </trkpt>
      <trkpt lat="38.2332460" lon="-1.4385220">
        <ele>241.9</ele>
        <time>2021-11-07T10:20:12Z</time>
      </trkpt>
      <trkpt lat="38.2332180" lon="-1.4384810">
        <ele>242.2</ele>
        <time>2021-11-07T10:20:13Z</time>
      </trkpt>
      <trkpt lat="38.2331900" lon="-1.4384380">
        <ele>242.6</ele>
        <time>2021-11-07T10:20:15Z</time>
      </trkpt>
      <trkpt lat="38.2331650" lon="-1.4383960">
        <ele>242.9</ele>
        <time>2021-11-07T10:20:16Z</time>
      </trkpt>
      <trkpt lat="38.2331550" lon="-1.4383790">
        <ele>243.0</ele>
        <time>2021-11-07T10:20:17Z</time>
      </trkpt>
      <trkpt lat="38.2331450" lon="-1.4383500">
        <ele>243.2</ele>
        <time>2021-11-07T10:20:18Z</time>
      </trkpt>
      <trkpt lat="38.2331260" lon="-1.4383180">
        <ele>243.4</ele>
        <time>2021-11-07T10:20:20Z</time>
      </trkpt>
      <trkpt lat="38.2330980" lon="-1.4382900">
        <ele>243.6</ele>
        <time>2021-11-07T10:20:22Z</time>
      </trkpt>
      <trkpt lat="38.2330870" lon="-1.4382530">
        <ele>243.9</ele>
        <time>2021-11-07T10:20:24Z</time>
      </trkpt>
      <trkpt lat="38.2330980" lon="-1.4382420">
        <ele>244.0</ele>
        <time>2021-11-07T10:20:25Z</time>
      </trkpt>
      <trkpt lat="38.2331080" lon="-1.4382300">
        <ele>244.1</ele>
        <time>2021-11-07T10:20:26Z</time>
      </trkpt>
      <trkpt lat="38.2331120" lon="-1.4382040">
        <ele>244.2</ele>
        <time>2021-11-07T10:20:27Z</time>
      </trkpt>
      <trkpt lat="38.2331080" lon="-1.4381850">
        <ele>244.3</ele>
        <time>2021-11-07T10:20:28Z</time>
      </trkpt>
      <trkpt lat="38.2330800" lon="-1.4381570">
        <ele>244.6</ele>
        <time>2021-11-07T10:20:30Z</time>
      </trkpt>
      <trkpt lat="38.2330650" lon="-1.4381450">
        <ele>244.7</ele>
        <time>2021-11-07T10:20:31Z</time>
      </trkpt>
      <trkpt lat="38.2330370" lon="-1.4381200">
        <ele>245.0</ele>
        <time>2021-11-07T10:20:33Z</time>
      </trkpt>
      <trkpt lat="38.2330070" lon="-1.4380810">
        <ele>245.3</ele>
        <time>2021-11-07T10:20:34Z</time>
      </trkpt>
      <trkpt lat="38.2329850" lon="-1.4380440">
        <ele>245.6</ele>
        <time>2021-11-07T10:20:35Z</time>
      </trkpt>
      <trkpt lat="38.2329660" lon="-1.4380080">
        <ele>245.8</ele>
        <time>2021-11-07T10:20:36Z</time>
      </trkpt>
      <trkpt lat="38.2329390" lon="-1.4379670">
        <ele>246.1</ele>
        <time>2021-11-07T10:20:38Z</time>
      </trkpt>
      <trkpt lat="38.2329090" lon="-1.4379240">
        <ele>246.5</ele>
        <time>2021-11-07T10:20:39Z</time>
      </trkpt>
      <trkpt lat="38.2328910" lon="-1.4379120">
        <ele>246.7</ele>
        <time>2021-11-07T10:20:40Z</time>
      </trkpt>
      <trkpt lat="38.2328670" lon="-1.4378940">
        <ele>246.9</ele>
        <time>2021-11-07T10:20:42Z</time>
      </trkpt>
      <trkpt lat="38.2328370" lon="-1.4378850">
        <ele>247.2</ele>
        <time>2021-11-07T10:20:43Z</time>
      </trkpt>
      <trkpt lat="38.2328250" lon="-1.4378840">
        <ele>247.3</ele>
        <time>2021-11-07T10:20:44Z</time>
      </trkpt>
      <trkpt lat="38.2328230" lon="-1.4378990">
        <ele>247.3</ele>
        <time>2021-11-07T10:20:46Z</time>
      </trkpt>
      <trkpt lat="38.2328140" lon="-1.4379380">
        <ele>247.5</ele>
        <time>2021-11-07T10:20:48Z</time>
      </trkpt>
      <trkpt lat="38.2328330" lon="-1.4379510">
        <ele>247.7</ele>
        <time>2021-11-07T10:20:50Z</time>
      </trkpt>
      <trkpt lat="38.2328410" lon="-1.4379550">
        <ele>247.7</ele>
        <time>2021-11-07T10:20:51Z</time>
      </trkpt>
      <trkpt lat="38.2328380" lon="-1.4379570">
        <ele>247.7</ele>
        <time>2021-11-07T10:20:53Z</time>
      </trkpt>
      <trkpt lat="38.2328290" lon="-1.4379520">
        <ele>247.8</ele>
        <time>2021-11-07T10:20:54Z</time>
      </trkpt>
      <trkpt lat="38.2328210" lon="-1.4379440">
        <ele>247.8</ele>
        <time>2021-11-07T10:20:55Z</time>
      </trkpt>
      <trkpt lat="38.2328010" lon="-1.4379240">
        <ele>248.0</ele>
        <time>2021-11-07T10:20:57Z</time>
      </trkpt>
      <trkpt lat="38.2327710" lon="-1.4379060">
        <ele>248.2</ele>
        <time>2021-11-07T10:20:58Z</time>
      </trkpt>
      <trkpt lat="38.2327440" lon="-1.4378910">
        <ele>248.4</ele>
        <time>2021-11-07T10:20:59Z</time>
      </trkpt>
      <trkpt lat="38.2327140" lon="-1.4378780">
        <ele>248.6</ele>
        <time>2021-11-07T10:21:00Z</time>
      </trkpt>
      <trkpt lat="38.2326780" lon="-1.4378470">
        <ele>249.0</ele>
        <time>2021-11-07T10:21:01Z</time>
      </trkpt>
      <trkpt lat="38.2326530" lon="-1.4378190">
        <ele>249.3</ele>
        <time>2021-11-07T10:21:02Z</time>
      </trkpt>
      <trkpt lat="38.2326320" lon="-1.4377890">
        <ele>249.6</ele>
        <time>2021-11-07T10:21:03Z</time>
      </trkpt>
      <trkpt lat="38.2326160" lon="-1.4377460">
        <ele>250.0</ele>
        <time>2021-11-07T10:21:04Z</time>
      </trkpt>
      <trkpt lat="38.2326130" lon="-1.4377300">
        <ele>250.1</ele>
        <time>2021-11-07T10:21:05Z</time>
      </trkpt>
      <trkpt lat="38.2326140" lon="-1.4376690">
        <ele>250.6</ele>
        <time>2021-11-07T10:21:07Z</time>
      </trkpt>
      <trkpt lat="38.2326110" lon="-1.4376440">
        <ele>250.8</ele>
        <time>2021-11-07T10:21:08Z</time>
      </trkpt>
      <trkpt lat="38.2326090" lon="-1.4376200">
        <ele>251.0</ele>
        <time>2021-11-07T10:21:09Z</time>
      </trkpt>
      <trkpt lat="38.2325860" lon="-1.4375860">
        <ele>251.3</ele>
        <time>2021-11-07T10:21:11Z</time>
      </trkpt>
      <trkpt lat="38.2325740" lon="-1.4375740">
        <ele>251.4</ele>
        <time>2021-11-07T10:21:12Z</time>
      </trkpt>
      <trkpt lat="38.2325340" lon="-1.4375530">
        <ele>251.8</ele>
        <time>2021-11-07T10:21:14Z</time>
      </trkpt>
      <trkpt lat="38.2325100" lon="-1.4375360">
        <ele>252.1</ele>
        <time>2021-11-07T10:21:15Z</time>
      </trkpt>
      <trkpt lat="38.2324570" lon="-1.4375110">
        <ele>252.6</ele>
        <time>2021-11-07T10:21:17Z</time>
      </trkpt>
      <trkpt lat="38.2324360" lon="-1.4375020">
        <ele>252.9</ele>
        <time>2021-11-07T10:21:18Z</time>
      </trkpt>
      <trkpt lat="38.2324160" lon="-1.4374920">
        <ele>253.1</ele>
        <time>2021-11-07T10:21:19Z</time>
      </trkpt>
      <trkpt lat="38.2323950" lon="-1.4374820">
        <ele>253.3</ele>
        <time>2021-11-07T10:21:20Z</time>
      </trkpt>
      <trkpt lat="38.2323760" lon="-1.4374660">
        <ele>253.5</ele>
        <time>2021-11-07T10:21:22Z</time>
      </trkpt>
      <trkpt lat="38.2323390" lon="-1.4374380">
        <ele>253.9</ele>
        <time>2021-11-07T10:21:23Z</time>
      </trkpt>
      <trkpt lat="38.2323210" lon="-1.4374280">
        <ele>254.1</ele>
        <time>2021-11-07T10:21:24Z</time>
      </trkpt>
      <trkpt lat="38.2322860" lon="-1.4374180">
        <ele>254.4</ele>
        <time>2021-11-07T10:21:26Z</time>
      </trkpt>
      <trkpt lat="38.2322730" lon="-1.4374160">
        <ele>254.5</ele>
        <time>2021-11-07T10:21:27Z</time>
      </trkpt>
      <trkpt lat="38.2322440" lon="-1.4374000">
        <ele>254.7</ele>
        <time>2021-11-07T10:21:29Z</time>
      </trkpt>
      <trkpt lat="38.2322180" lon="-1.4373710">
        <ele>255.0</ele>
        <time>2021-11-07T10:21:30Z</time>
      </trkpt>
      <trkpt lat="38.2321940" lon="-1.4373420">
        <ele>255.2</ele>
        <time>2021-11-07T10:21:31Z</time>
      </trkpt>
      <trkpt lat="38.2321870" lon="-1.4373340">
        <ele>255.2</ele>
        <time>2021-11-07T10:21:32Z</time>
      </trkpt>
      <trkpt lat="38.2321610" lon="-1.4373010">
        <ele>255.5</ele>
        <time>2021-11-07T10:21:33Z</time>
      </trkpt>
      <trkpt lat="38.2321530" lon="-1.4372900">
        <ele>255.5</ele>
        <time>2021-11-07T10:21:34Z</time>
      </trkpt>
      <trkpt lat="38.2321390" lon="-1.4372360">
        <ele>255.8</ele>
        <time>2021-11-07T10:21:36Z</time>
      </trkpt>
      <trkpt lat="38.2321350" lon="-1.4372120">
        <ele>255.9</ele>
        <time>2021-11-07T10:21:37Z</time>
      </trkpt>
      <trkpt lat="38.2321430" lon="-1.4371600">
        <ele>256.1</ele>
        <time>2021-11-07T10:21:39Z</time>
      </trkpt>
      <trkpt lat="38.2321500" lon="-1.4371440">
        <ele>256.2</ele>
        <time>2021-11-07T10:21:40Z</time>
      </trkpt>
      <trkpt lat="38.2321570" lon="-1.4371280">
        <ele>256.3</ele>
        <time>2021-11-07T10:21:41Z</time>
      </trkpt>
      <trkpt lat="38.2321560" lon="-1.4370900">
        <ele>256.5</ele>
        <time>2021-11-07T10:21:42Z</time>
      </trkpt>
      <trkpt lat="38.2321520" lon="-1.4370510">
        <ele>256.6</ele>
        <time>2021-11-07T10:21:43Z</time>
      </trkpt>
      <trkpt lat="38.2321450" lon="-1.4370170">
        <ele>256.8</ele>
        <time>2021-11-07T10:21:44Z</time>
      </trkpt>
      <trkpt lat="38.2321420" lon="-1.4369760">
        <ele>257.0</ele>
        <time>2021-11-07T10:21:46Z</time>
      </trkpt>
      <trkpt lat="38.2321440" lon="-1.4369130">
        <ele>257.3</ele>
        <time>2021-11-07T10:21:47Z</time>
      </trkpt>
      <trkpt lat="38.2321330" lon="-1.4368680">
        <ele>257.5</ele>
        <time>2021-11-07T10:21:49Z</time>
      </trkpt>
      <trkpt lat="38.2321030" lon="-1.4368330">
        <ele>257.8</ele>
        <time>2021-11-07T10:21:50Z</time>
      </trkpt>
      <trkpt lat="38.2320900" lon="-1.4368220">
        <ele>257.8</ele>
        <time>2021-11-07T10:21:51Z</time>
      </trkpt>
      <trkpt lat="38.2320640" lon="-1.4368010">
        <ele>258.0</ele>
        <time>2021-11-07T10:21:52Z</time>
      </trkpt>
      <trkpt lat="38.2320270" lon="-1.4367770">
        <ele>258.2</ele>
        <time>2021-11-07T10:21:54Z</time>
      </trkpt>
      <trkpt lat="38.2320120" lon="-1.4367680">
        <ele>258.3</ele>
        <time>2021-11-07T10:21:55Z</time>
      </trkpt>
      <trkpt lat="38.2319880" lon="-1.4367320">
        <ele>258.4</ele>
        <time>2021-11-07T10:21:57Z</time>
      </trkpt>
      <trkpt lat="38.2319510" lon="-1.4367000">
        <ele>258.6</ele>
        <time>2021-11-07T10:21:59Z</time>
      </trkpt>
      <trkpt lat="38.2319150" lon="-1.4366800">
        <ele>258.7</ele>
        <time>2021-11-07T10:22:00Z</time>
      </trkpt>
      <trkpt lat="38.2318920" lon="-1.4366680">
        <ele>258.7</ele>
        <time>2021-11-07T10:22:01Z</time>
      </trkpt>
      <trkpt lat="38.2318620" lon="-1.4366560">
        <ele>258.7</ele>
        <time>2021-11-07T10:22:03Z</time>
      </trkpt>
      <trkpt lat="38.2318300" lon="-1.4366320">
        <ele>258.7</ele>
        <time>2021-11-07T10:22:04Z</time>
      </trkpt>
      <trkpt lat="38.2318220" lon="-1.4366230">
        <ele>258.7</ele>
        <time>2021-11-07T10:22:05Z</time>
      </trkpt>
      <trkpt lat="38.2318040" lon="-1.4365810">
        <ele>258.7</ele>
        <time>2021-11-07T10:22:07Z</time>
      </trkpt>
      <trkpt lat="38.2317990" lon="-1.4365650">
        <ele>258.7</ele>
        <time>2021-11-07T10:22:08Z</time>
      </trkpt>
      <trkpt lat="38.2317860" lon="-1.4365330">
        <ele>258.6</ele>
        <time>2021-11-07T10:22:09Z</time>
      </trkpt>
      <trkpt lat="38.2317860" lon="-1.4364940">
        <ele>258.6</ele>
        <time>2021-11-07T10:22:11Z</time>
      </trkpt>
      <trkpt lat="38.2317910" lon="-1.4364600">
        <ele>258.5</ele>
        <time>2021-11-07T10:22:12Z</time>
      </trkpt>
      <trkpt lat="38.2318110" lon="-1.4364200">
        <ele>258.5</ele>
        <time>2021-11-07T10:22:14Z</time>
      </trkpt>
      <trkpt lat="38.2318460" lon="-1.4363710">
        <ele>258.4</ele>
        <time>2021-11-07T10:22:15Z</time>
      </trkpt>
      <trkpt lat="38.2318690" lon="-1.4363150">
        <ele>258.4</ele>
        <time>2021-11-07T10:22:17Z</time>
      </trkpt>
      <trkpt lat="38.2318960" lon="-1.4362690">
        <ele>258.4</ele>
        <time>2021-11-07T10:22:18Z</time>
      </trkpt>
      <trkpt lat="38.2319360" lon="-1.4362170">
        <ele>258.5</ele>
        <time>2021-11-07T10:22:19Z</time>
      </trkpt>
      <trkpt lat="38.2319910" lon="-1.4361670">
        <ele>258.6</ele>
        <time>2021-11-07T10:22:21Z</time>
      </trkpt>
      <trkpt lat="38.2320320" lon="-1.4361220">
        <ele>258.7</ele>
        <time>2021-11-07T10:22:22Z</time>
      </trkpt>
      <trkpt lat="38.2320690" lon="-1.4360880">
        <ele>258.9</ele>
        <time>2021-11-07T10:22:23Z</time>
      </trkpt>
      <trkpt lat="38.2321040" lon="-1.4360630">
        <ele>259.0</ele>
        <time>2021-11-07T10:22:25Z</time>
      </trkpt>
      <trkpt lat="38.2321460" lon="-1.4360250">
        <ele>259.2</ele>
        <time>2021-11-07T10:22:26Z</time>
      </trkpt>
      <trkpt lat="38.2321740" lon="-1.4359970">
        <ele>259.3</ele>
        <time>2021-11-07T10:22:28Z</time>
      </trkpt>
      <trkpt lat="38.2322000" lon="-1.4359680">
        <ele>259.5</ele>
        <time>2021-11-07T10:22:29Z</time>
      </trkpt>
      <trkpt lat="38.2322250" lon="-1.4359390">
        <ele>259.6</ele>
        <time>2021-11-07T10:22:30Z</time>
      </trkpt>
      <trkpt lat="38.2322590" lon="-1.4359050">
        <ele>259.8</ele>
        <time>2021-11-07T10:22:32Z</time>
      </trkpt>
      <trkpt lat="38.2322720" lon="-1.4358890">
        <ele>259.9</ele>
        <time>2021-11-07T10:22:33Z</time>
      </trkpt>
      <trkpt lat="38.2322910" lon="-1.4358560">
        <ele>260.1</ele>
        <time>2021-11-07T10:22:35Z</time>
      </trkpt>
      <trkpt lat="38.2323040" lon="-1.4358170">
        <ele>260.2</ele>
        <time>2021-11-07T10:22:36Z</time>
      </trkpt>
      <trkpt lat="38.2323140" lon="-1.4357610">
        <ele>260.3</ele>
        <time>2021-11-07T10:22:38Z</time>
      </trkpt>
      <trkpt lat="38.2323130" lon="-1.4357380">
        <ele>260.4</ele>
        <time>2021-11-07T10:22:39Z</time>
      </trkpt>
      <trkpt lat="38.2323120" lon="-1.4357140">
        <ele>260.4</ele>
        <time>2021-11-07T10:22:40Z</time>
      </trkpt>
      <trkpt lat="38.2322850" lon="-1.4356850">
        <ele>260.4</ele>
        <time>2021-11-07T10:22:42Z</time>
      </trkpt>
      <trkpt lat="38.2322730" lon="-1.4356760">
        <ele>260.4</ele>
        <time>2021-11-07T10:22:43Z</time>
      </trkpt>
      <trkpt lat="38.2322490" lon="-1.4356590">
        <ele>260.4</ele>
        <time>2021-11-07T10:22:45Z</time>
      </trkpt>
      <trkpt lat="38.2322140" lon="-1.4356500">
        <ele>260.4</ele>
        <time>2021-11-07T10:22:46Z</time>
      </trkpt>
      <trkpt lat="38.2321720" lon="-1.4356190">
        <ele>260.2</ele>
        <time>2021-11-07T10:22:48Z</time>
      </trkpt>
      <trkpt lat="38.2321600" lon="-1.4356110">
        <ele>260.2</ele>
        <time>2021-11-07T10:22:49Z</time>
      </trkpt>
      <trkpt lat="38.2321470" lon="-1.4356040">
        <ele>260.2</ele>
        <time>2021-11-07T10:22:50Z</time>
      </trkpt>
      <trkpt lat="38.2321270" lon="-1.4355810">
        <ele>260.1</ele>
        <time>2021-11-07T10:22:51Z</time>
      </trkpt>
      <trkpt lat="38.2321140" lon="-1.4355430">
        <ele>260.0</ele>
        <time>2021-11-07T10:22:53Z</time>
      </trkpt>
      <trkpt lat="38.2321120" lon="-1.4354860">
        <ele>259.8</ele>
        <time>2021-11-07T10:22:54Z</time>
      </trkpt>
      <trkpt lat="38.2321170" lon="-1.4354470">
        <ele>259.8</ele>
        <time>2021-11-07T10:22:56Z</time>
      </trkpt>
      <trkpt lat="38.2321260" lon="-1.4354140">
        <ele>259.7</ele>
        <time>2021-11-07T10:22:57Z</time>
      </trkpt>
      <trkpt lat="38.2321360" lon="-1.4353790">
        <ele>259.7</ele>
        <time>2021-11-07T10:22:58Z</time>
      </trkpt>
      <trkpt lat="38.2321520" lon="-1.4353240">
        <ele>259.7</ele>
        <time>2021-11-07T10:22:59Z</time>
      </trkpt>
      <trkpt lat="38.2321610" lon="-1.4353000">
        <ele>259.7</ele>
        <time>2021-11-07T10:23:00Z</time>
      </trkpt>
      <trkpt lat="38.2321780" lon="-1.4352580">
        <ele>259.7</ele>
        <time>2021-11-07T10:23:01Z</time>
      </trkpt>
      <trkpt lat="38.2321920" lon="-1.4352240">
        <ele>259.8</ele>
        <time>2021-11-07T10:23:03Z</time>
      </trkpt>
      <trkpt lat="38.2322010" lon="-1.4351810">
        <ele>259.9</ele>
        <time>2021-11-07T10:23:04Z</time>
      </trkpt>
      <trkpt lat="38.2322100" lon="-1.4351460">
        <ele>260.0</ele>
        <time>2021-11-07T10:23:05Z</time>
      </trkpt>
      <trkpt lat="38.2322220" lon="-1.4350980">
        <ele>260.1</ele>
        <time>2021-11-07T10:23:06Z</time>
      </trkpt>
      <trkpt lat="38.2322400" lon="-1.4350610">
        <ele>260.2</ele>
        <time>2021-11-07T10:23:08Z</time>
      </trkpt>
      <trkpt lat="38.2322650" lon="-1.4350140">
        <ele>260.4</ele>
        <time>2021-11-07T10:23:09Z</time>
      </trkpt>
      <trkpt lat="38.2322860" lon="-1.4349720">
        <ele>260.6</ele>
        <time>2021-11-07T10:23:11Z</time>
      </trkpt>
      <trkpt lat="38.2323120" lon="-1.4349450">
        <ele>260.7</ele>
        <time>2021-11-07T10:23:12Z</time>
      </trkpt>
      <trkpt lat="38.2323510" lon="-1.4348960">
        <ele>261.0</ele>
        <time>2021-11-07T10:23:13Z</time>
      </trkpt>
      <trkpt lat="38.2323750" lon="-1.4348630">
        <ele>261.1</ele>
        <time>2021-11-07T10:23:15Z</time>
      </trkpt>
      <trkpt lat="38.2323980" lon="-1.4348300">
        <ele>261.3</ele>
        <time>2021-11-07T10:23:16Z</time>
      </trkpt>
      <trkpt lat="38.2324260" lon="-1.4348080">
        <ele>261.5</ele>
        <time>2021-11-07T10:23:18Z</time>
      </trkpt>
      <trkpt lat="38.2324550" lon="-1.4347810">
        <ele>261.6</ele>
        <time>2021-11-07T10:23:19Z</time>
      </trkpt>
      <trkpt lat="38.2324820" lon="-1.4347300">
        <ele>262.0</ele>
        <time>2021-11-07T10:23:21Z</time>
      </trkpt>
      <trkpt lat="38.2324890" lon="-1.4347120">
        <ele>262.0</ele>
        <time>2021-11-07T10:23:22Z</time>
      </trkpt>
      <trkpt lat="38.2324970" lon="-1.4346940">
        <ele>262.1</ele>
        <time>2021-11-07T10:23:23Z</time>
      </trkpt>
      <trkpt lat="38.2325120" lon="-1.4346530">
        <ele>262.2</ele>
        <time>2021-11-07T10:23:24Z</time>
      </trkpt>
      <trkpt lat="38.2325170" lon="-1.4346270">
        <ele>262.3</ele>
        <time>2021-11-07T10:23:26Z</time>
      </trkpt>
      <trkpt lat="38.2325180" lon="-1.4345860">
        <ele>262.5</ele>
        <time>2021-11-07T10:23:28Z</time>
      </trkpt>
      <trkpt lat="38.2325030" lon="-1.4345740">
        <ele>262.5</ele>
        <time>2021-11-07T10:23:29Z</time>
      </trkpt>
      <trkpt lat="38.2324930" lon="-1.4345780">
        <ele>262.6</ele>
        <time>2021-11-07T10:23:31Z</time>
      </trkpt>
      <trkpt lat="38.2324830" lon="-1.4345810">
        <ele>262.6</ele>
        <time>2021-11-07T10:23:32Z</time>
      </trkpt>
      <trkpt lat="38.2324740" lon="-1.4345840">
        <ele>262.7</ele>
        <time>2021-11-07T10:23:34Z</time>
      </trkpt>
      <trkpt lat="38.2324640" lon="-1.4345870">
        <ele>262.7</ele>
        <time>2021-11-07T10:23:35Z</time>
      </trkpt>
      <trkpt lat="38.2324580" lon="-1.4345940">
        <ele>262.7</ele>
        <time>2021-11-07T10:23:37Z</time>
      </trkpt>
      <trkpt lat="38.2324580" lon="-1.4345940">
        <ele>262.7</ele>
        <time>2021-11-07T10:23:38Z</time>
      </trkpt>
      <trkpt lat="38.2324590" lon="-1.4345960">
        <ele>262.7</ele>
        <time>2021-11-07T10:23:39Z</time>
      </trkpt>
      <trkpt lat="38.2324610" lon="-1.4345970">
        <ele>262.7</ele>
        <time>2021-11-07T10:23:41Z</time>
      </trkpt>
      <trkpt lat="38.2324580" lon="-1.4345950">
        <ele>262.8</ele>
        <time>2021-11-07T10:23:42Z</time>
      </trkpt>
      <trkpt lat="38.2324610" lon="-1.4345960">
        <ele>262.8</ele>
        <time>2021-11-07T10:23:44Z</time>
      </trkpt>
      <trkpt lat="38.2324620" lon="-1.4345980">
        <ele>262.8</ele>
        <time>2021-11-07T10:23:46Z</time>
      </trkpt>
      <trkpt lat="38.2324640" lon="-1.4345990">
        <ele>262.8</ele>
        <time>2021-11-07T10:23:47Z</time>
      </trkpt>
      <trkpt lat="38.2324650" lon="-1.4346010">
        <ele>262.8</ele>
        <time>2021-11-07T10:23:48Z</time>
      </trkpt>
      <trkpt lat="38.2324500" lon="-1.4346000">
        <ele>262.8</ele>
        <time>2021-11-07T10:23:49Z</time>
      </trkpt>
      <trkpt lat="38.2324200" lon="-1.4345760">
        <ele>263.0</ele>
        <time>2021-11-07T10:23:51Z</time>
      </trkpt>
      <trkpt lat="38.2323950" lon="-1.4344990">
        <ele>263.2</ele>
        <time>2021-11-07T10:23:52Z</time>
      </trkpt>
      <trkpt lat="38.2323680" lon="-1.4344620">
        <ele>263.3</ele>
        <time>2021-11-07T10:23:54Z</time>
      </trkpt>
      <trkpt lat="38.2323580" lon="-1.4344520">
        <ele>263.3</ele>
        <time>2021-11-07T10:23:55Z</time>
      </trkpt>
      <trkpt lat="38.2323250" lon="-1.4344270">
        <ele>263.4</ele>
        <time>2021-11-07T10:23:56Z</time>
      </trkpt>
      <trkpt lat="38.2323150" lon="-1.4344190">
        <ele>263.5</ele>
        <time>2021-11-07T10:23:57Z</time>
      </trkpt>
      <trkpt lat="38.2322880" lon="-1.4343890">
        <ele>263.6</ele>
        <time>2021-11-07T10:23:58Z</time>
      </trkpt>
      <trkpt lat="38.2322780" lon="-1.4343800">
        <ele>263.6</ele>
        <time>2021-11-07T10:23:59Z</time>
      </trkpt>
      <trkpt lat="38.2322480" lon="-1.4343470">
        <ele>263.7</ele>
        <time>2021-11-07T10:24:00Z</time>
      </trkpt>
      <trkpt lat="38.2322370" lon="-1.4343350">
        <ele>263.7</ele>
        <time>2021-11-07T10:24:01Z</time>
      </trkpt>
      <trkpt lat="38.2322080" lon="-1.4343080">
        <ele>263.8</ele>
        <time>2021-11-07T10:24:02Z</time>
      </trkpt>
      <trkpt lat="38.2321910" lon="-1.4342840">
        <ele>263.9</ele>
        <time>2021-11-07T10:24:03Z</time>
      </trkpt>
      <trkpt lat="38.2321720" lon="-1.4342630">
        <ele>264.0</ele>
        <time>2021-11-07T10:24:05Z</time>
      </trkpt>
      <trkpt lat="38.2321470" lon="-1.4342380">
        <ele>264.0</ele>
        <time>2021-11-07T10:24:06Z</time>
      </trkpt>
      <trkpt lat="38.2321400" lon="-1.4342290">
        <ele>264.1</ele>
        <time>2021-11-07T10:24:07Z</time>
      </trkpt>
      <trkpt lat="38.2321120" lon="-1.4341990">
        <ele>264.2</ele>
        <time>2021-11-07T10:24:09Z</time>
      </trkpt>
      <trkpt lat="38.2321060" lon="-1.4341910">
        <ele>264.2</ele>
        <time>2021-11-07T10:24:10Z</time>
      </trkpt>
      <trkpt lat="38.2321020" lon="-1.4341820">
        <ele>264.2</ele>
        <time>2021-11-07T10:24:11Z</time>
      </trkpt>
      <trkpt lat="38.2321000" lon="-1.4341900">
        <ele>264.2</ele>
        <time>2021-11-07T10:24:13Z</time>
      </trkpt>
      <trkpt lat="38.2320950" lon="-1.4341870">
        <ele>264.2</ele>
        <time>2021-11-07T10:24:14Z</time>
      </trkpt>
      <trkpt lat="38.2320910" lon="-1.4341840">
        <ele>264.2</ele>
        <time>2021-11-07T10:24:15Z</time>
      </trkpt>
      <trkpt lat="38.2320910" lon="-1.4341830">
        <ele>264.2</ele>
        <time>2021-11-07T10:24:16Z</time>
      </trkpt>
      <trkpt lat="38.2320910" lon="-1.4341830">
        <ele>264.2</ele>
        <time>2021-11-07T10:24:17Z</time>
      </trkpt>
      <trkpt lat="38.2320920" lon="-1.4341830">
        <ele>264.2</ele>
        <time>2021-11-07T10:24:19Z</time>
      </trkpt>
      <trkpt lat="38.2320840" lon="-1.4341830">
        <ele>264.3</ele>
        <time>2021-11-07T10:24:20Z</time>
      </trkpt>
      <trkpt lat="38.2320600" lon="-1.4341750">
        <ele>264.3</ele>
        <time>2021-11-07T10:24:21Z</time>
      </trkpt>
      <trkpt lat="38.2320490" lon="-1.4341700">
        <ele>264.3</ele>
        <time>2021-11-07T10:24:22Z</time>
      </trkpt>
      <trkpt lat="38.2320150" lon="-1.4341550">
        <ele>264.4</ele>
        <time>2021-11-07T10:24:23Z</time>
      </trkpt>
      <trkpt lat="38.2319730" lon="-1.4341380">
        <ele>264.5</ele>
        <time>2021-11-07T10:24:24Z</time>
      </trkpt>
      <trkpt lat="38.2319280" lon="-1.4341270">
        <ele>264.6</ele>
        <time>2021-11-07T10:24:25Z</time>
      </trkpt>
      <trkpt lat="38.2318720" lon="-1.4341110">
        <ele>264.8</ele>
        <time>2021-11-07T10:24:26Z</time>
      </trkpt>
      <trkpt lat="38.2318270" lon="-1.4340990">
        <ele>264.9</ele>
        <time>2021-11-07T10:24:27Z</time>
      </trkpt>
      <trkpt lat="38.2317890" lon="-1.4340650">
        <ele>265.0</ele>
        <time>2021-11-07T10:24:29Z</time>
      </trkpt>
      <trkpt lat="38.2317620" lon="-1.4340320">
        <ele>265.1</ele>
        <time>2021-11-07T10:24:30Z</time>
      </trkpt>
      <trkpt lat="38.2317540" lon="-1.4340210">
        <ele>265.1</ele>
        <time>2021-11-07T10:24:31Z</time>
      </trkpt>
      <trkpt lat="38.2317210" lon="-1.4339880">
        <ele>265.2</ele>
        <time>2021-11-07T10:24:32Z</time>
      </trkpt>
      <trkpt lat="38.2317060" lon="-1.4339760">
        <ele>265.3</ele>
        <time>2021-11-07T10:24:33Z</time>
      </trkpt>
      <trkpt lat="38.2316680" lon="-1.4339370">
        <ele>265.5</ele>
        <time>2021-11-07T10:24:34Z</time>
      </trkpt>
      <trkpt lat="38.2316420" lon="-1.4339110">
        <ele>265.6</ele>
        <time>2021-11-07T10:24:35Z</time>
      </trkpt>
      <trkpt lat="38.2316100" lon="-1.4339050">
        <ele>265.7</ele>
        <time>2021-11-07T10:24:36Z</time>
      </trkpt>
      <trkpt lat="38.2315760" lon="-1.4339060">
        <ele>265.9</ele>
        <time>2021-11-07T10:24:37Z</time>
      </trkpt>
      <trkpt lat="38.2315230" lon="-1.4339110">
        <ele>266.2</ele>
        <time>2021-11-07T10:24:39Z</time>
      </trkpt>
      <trkpt lat="38.2314980" lon="-1.4339110">
        <ele>266.3</ele>
        <time>2021-11-07T10:24:40Z</time>
      </trkpt>
      <trkpt lat="38.2314730" lon="-1.4339110">
        <ele>266.4</ele>
        <time>2021-11-07T10:24:41Z</time>
      </trkpt>
      <trkpt lat="38.2314270" lon="-1.4339120">
        <ele>266.7</ele>
        <time>2021-11-07T10:24:43Z</time>
      </trkpt>
      <trkpt lat="38.2314110" lon="-1.4339140">
        <ele>266.7</ele>
        <time>2021-11-07T10:24:44Z</time>
      </trkpt>
      <trkpt lat="38.2313950" lon="-1.4339160">
        <ele>266.8</ele>
        <time>2021-11-07T10:24:45Z</time>
      </trkpt>
      <trkpt lat="38.2313650" lon="-1.4339270">
        <ele>266.9</ele>
        <time>2021-11-07T10:24:46Z</time>
      </trkpt>
      <trkpt lat="38.2313410" lon="-1.4339420">
        <ele>267.0</ele>
        <time>2021-11-07T10:24:47Z</time>
      </trkpt>
      <trkpt lat="38.2313300" lon="-1.4339480">
        <ele>267.0</ele>
        <time>2021-11-07T10:24:48Z</time>
      </trkpt>
      <trkpt lat="38.2313410" lon="-1.4339700">
        <ele>267.1</ele>
        <time>2021-11-07T10:24:49Z</time>
      </trkpt>
      <trkpt lat="38.2313400" lon="-1.4339760">
        <ele>267.1</ele>
        <time>2021-11-07T10:24:51Z</time>
      </trkpt>
      <trkpt lat="38.2313270" lon="-1.4339490">
        <ele>267.1</ele>
        <time>2021-11-07T10:24:52Z</time>
      </trkpt>
      <trkpt lat="38.2313140" lon="-1.4339300">
        <ele>267.1</ele>
        <time>2021-11-07T10:24:53Z</time>
      </trkpt>
      <trkpt lat="38.2312970" lon="-1.4338940">
        <ele>267.2</ele>
        <time>2021-11-07T10:24:54Z</time>
      </trkpt>
      <trkpt lat="38.2312780" lon="-1.4338620">
        <ele>267.2</ele>
        <time>2021-11-07T10:24:55Z</time>
      </trkpt>
      <trkpt lat="38.2312570" lon="-1.4338370">
        <ele>267.2</ele>
        <time>2021-11-07T10:24:56Z</time>
      </trkpt>
      <trkpt lat="38.2312310" lon="-1.4338230">
        <ele>267.3</ele>
        <time>2021-11-07T10:24:58Z</time>
      </trkpt>
      <trkpt lat="38.2312170" lon="-1.4338130">
        <ele>267.3</ele>
        <time>2021-11-07T10:24:59Z</time>
      </trkpt>
      <trkpt lat="38.2311910" lon="-1.4337990">
        <ele>267.3</ele>
        <time>2021-11-07T10:25:00Z</time>
      </trkpt>
      <trkpt lat="38.2311480" lon="-1.4337730">
        <ele>267.4</ele>
        <time>2021-11-07T10:25:01Z</time>
      </trkpt>
      <trkpt lat="38.2310940" lon="-1.4337380">
        <ele>267.5</ele>
        <time>2021-11-07T10:25:03Z</time>
      </trkpt>
      <trkpt lat="38.2310620" lon="-1.4337180">
        <ele>267.6</ele>
        <time>2021-11-07T10:25:04Z</time>
      </trkpt>
      <trkpt lat="38.2310240" lon="-1.4337020">
        <ele>267.7</ele>
        <time>2021-11-07T10:25:05Z</time>
      </trkpt>
      <trkpt lat="38.2309860" lon="-1.4336890">
        <ele>267.8</ele>
        <time>2021-11-07T10:25:06Z</time>
      </trkpt>
      <trkpt lat="38.2309430" lon="-1.4336650">
        <ele>268.0</ele>
        <time>2021-11-07T10:25:07Z</time>
      </trkpt>
      <trkpt lat="38.2309060" lon="-1.4336350">
        <ele>268.1</ele>
        <time>2021-11-07T10:25:08Z</time>
      </trkpt>
      <trkpt lat="38.2308900" lon="-1.4336160">
        <ele>268.1</ele>
        <time>2021-11-07T10:25:09Z</time>
      </trkpt>
      <trkpt lat="38.2308760" lon="-1.4335820">
        <ele>268.2</ele>
        <time>2021-11-07T10:25:11Z</time>
      </trkpt>
      <trkpt lat="38.2308630" lon="-1.4335500">
        <ele>268.3</ele>
        <time>2021-11-07T10:25:12Z</time>
      </trkpt>
      <trkpt lat="38.2308590" lon="-1.4335370">
        <ele>268.3</ele>
        <time>2021-11-07T10:25:13Z</time>
      </trkpt>
      <trkpt lat="38.2308450" lon="-1.4334930">
        <ele>268.4</ele>
        <time>2021-11-07T10:25:14Z</time>
      </trkpt>
      <trkpt lat="38.2308390" lon="-1.4334770">
        <ele>268.5</ele>
        <time>2021-11-07T10:25:15Z</time>
      </trkpt>
      <trkpt lat="38.2308260" lon="-1.4334400">
        <ele>268.6</ele>
        <time>2021-11-07T10:25:16Z</time>
      </trkpt>
      <trkpt lat="38.2308200" lon="-1.4333980">
        <ele>268.7</ele>
        <time>2021-11-07T10:25:17Z</time>
      </trkpt>
      <trkpt lat="38.2308090" lon="-1.4333490">
        <ele>268.8</ele>
        <time>2021-11-07T10:25:18Z</time>
      </trkpt>
      <trkpt lat="38.2307950" lon="-1.4333090">
        <ele>269.0</ele>
        <time>2021-11-07T10:25:19Z</time>
      </trkpt>
      <trkpt lat="38.2307760" lon="-1.4332710">
        <ele>269.1</ele>
        <time>2021-11-07T10:25:20Z</time>
      </trkpt>
      <trkpt lat="38.2307550" lon="-1.4332400">
        <ele>269.2</ele>
        <time>2021-11-07T10:25:22Z</time>
      </trkpt>
      <trkpt lat="38.2307470" lon="-1.4332260">
        <ele>269.3</ele>
        <time>2021-11-07T10:25:23Z</time>
      </trkpt>
      <trkpt lat="38.2307340" lon="-1.4332050">
        <ele>269.4</ele>
        <time>2021-11-07T10:25:24Z</time>
      </trkpt>
      <trkpt lat="38.2306920" lon="-1.4331530">
        <ele>269.5</ele>
        <time>2021-11-07T10:25:25Z</time>
      </trkpt>
      <trkpt lat="38.2306730" lon="-1.4331250">
        <ele>269.6</ele>
        <time>2021-11-07T10:25:26Z</time>
      </trkpt>
      <trkpt lat="38.2306550" lon="-1.4330900">
        <ele>269.6</ele>
        <time>2021-11-07T10:25:27Z</time>
      </trkpt>
      <trkpt lat="38.2306500" lon="-1.4330790">
        <ele>269.6</ele>
        <time>2021-11-07T10:25:28Z</time>
      </trkpt>
      <trkpt lat="38.2306410" lon="-1.4330550">
        <ele>269.6</ele>
        <time>2021-11-07T10:25:30Z</time>
      </trkpt>
      <trkpt lat="38.2306310" lon="-1.4329960">
        <ele>269.6</ele>
        <time>2021-11-07T10:25:32Z</time>
      </trkpt>
      <trkpt lat="38.2306300" lon="-1.4329710">
        <ele>269.6</ele>
        <time>2021-11-07T10:25:33Z</time>
      </trkpt>
      <trkpt lat="38.2306290" lon="-1.4329580">
        <ele>269.6</ele>
        <time>2021-11-07T10:25:34Z</time>
      </trkpt>
      <trkpt lat="38.2306280" lon="-1.4329450">
        <ele>269.6</ele>
        <time>2021-11-07T10:25:35Z</time>
      </trkpt>
      <trkpt lat="38.2306200" lon="-1.4328910">
        <ele>269.6</ele>
        <time>2021-11-07T10:25:36Z</time>
      </trkpt>
      <trkpt lat="38.2306110" lon="-1.4328810">
        <ele>269.6</ele>
        <time>2021-11-07T10:25:37Z</time>
      </trkpt>
      <trkpt lat="38.2305970" lon="-1.4328670">
        <ele>269.6</ele>
        <time>2021-11-07T10:25:38Z</time>
      </trkpt>
      <trkpt lat="38.2305600" lon="-1.4328160">
        <ele>269.6</ele>
        <time>2021-11-07T10:25:40Z</time>
      </trkpt>
      <trkpt lat="38.2305400" lon="-1.4327810">
        <ele>269.6</ele>
        <time>2021-11-07T10:25:41Z</time>
      </trkpt>
      <trkpt lat="38.2305150" lon="-1.4327470">
        <ele>269.7</ele>
        <time>2021-11-07T10:25:43Z</time>
      </trkpt>
      <trkpt lat="38.2305060" lon="-1.4327290">
        <ele>269.7</ele>
        <time>2021-11-07T10:25:44Z</time>
      </trkpt>
      <trkpt lat="38.2304910" lon="-1.4326960">
        <ele>269.7</ele>
        <time>2021-11-07T10:25:46Z</time>
      </trkpt>
      <trkpt lat="38.2304750" lon="-1.4326450">
        <ele>269.7</ele>
        <time>2021-11-07T10:25:47Z</time>
      </trkpt>
      <trkpt lat="38.2304690" lon="-1.4326100">
        <ele>269.8</ele>
        <time>2021-11-07T10:25:48Z</time>
      </trkpt>
      <trkpt lat="38.2304670" lon="-1.4325940">
        <ele>269.8</ele>
        <time>2021-11-07T10:25:49Z</time>
      </trkpt>
      <trkpt lat="38.2304620" lon="-1.4325610">
        <ele>269.8</ele>
        <time>2021-11-07T10:25:50Z</time>
      </trkpt>
      <trkpt lat="38.2304520" lon="-1.4324870">
        <ele>269.9</ele>
        <time>2021-11-07T10:25:52Z</time>
      </trkpt>
      <trkpt lat="38.2304500" lon="-1.4324560">
        <ele>269.9</ele>
        <time>2021-11-07T10:25:53Z</time>
      </trkpt>
      <trkpt lat="38.2304490" lon="-1.4324420">
        <ele>270.0</ele>
        <time>2021-11-07T10:25:54Z</time>
      </trkpt>
      <trkpt lat="38.2304460" lon="-1.4323990">
        <ele>270.0</ele>
        <time>2021-11-07T10:25:55Z</time>
      </trkpt>
      <trkpt lat="38.2304410" lon="-1.4323270">
        <ele>270.1</ele>
        <time>2021-11-07T10:25:56Z</time>
      </trkpt>
      <trkpt lat="38.2304340" lon="-1.4322900">
        <ele>270.1</ele>
        <time>2021-11-07T10:25:58Z</time>
      </trkpt>
      <trkpt lat="38.2304290" lon="-1.4322760">
        <ele>270.1</ele>
        <time>2021-11-07T10:25:59Z</time>
      </trkpt>
      <trkpt lat="38.2304160" lon="-1.4322390">
        <ele>270.2</ele>
        <time>2021-11-07T10:26:00Z</time>
      </trkpt>
      <trkpt lat="38.2303970" lon="-1.4321740">
        <ele>270.2</ele>
        <time>2021-11-07T10:26:02Z</time>
      </trkpt>
      <trkpt lat="38.2303910" lon="-1.4321690">
        <ele>270.2</ele>
        <time>2021-11-07T10:26:03Z</time>
      </trkpt>
      <trkpt lat="38.2303810" lon="-1.4321440">
        <ele>270.2</ele>
        <time>2021-11-07T10:26:04Z</time>
      </trkpt>
      <trkpt lat="38.2303680" lon="-1.4321090">
        <ele>270.3</ele>
        <time>2021-11-07T10:26:05Z</time>
      </trkpt>
      <trkpt lat="38.2303480" lon="-1.4320450">
        <ele>270.4</ele>
        <time>2021-11-07T10:26:06Z</time>
      </trkpt>
      <trkpt lat="38.2303380" lon="-1.4320370">
        <ele>270.4</ele>
        <time>2021-11-07T10:26:07Z</time>
      </trkpt>
      <trkpt lat="38.2303280" lon="-1.4320150">
        <ele>270.4</ele>
        <time>2021-11-07T10:26:08Z</time>
      </trkpt>
      <trkpt lat="38.2303150" lon="-1.4319930">
        <ele>270.5</ele>
        <time>2021-11-07T10:26:09Z</time>
      </trkpt>
      <trkpt lat="38.2302670" lon="-1.4319060">
        <ele>270.7</ele>
        <time>2021-11-07T10:26:12Z</time>
      </trkpt>
      <trkpt lat="38.2302460" lon="-1.4318790">
        <ele>270.8</ele>
        <time>2021-11-07T10:26:13Z</time>
      </trkpt>
      <trkpt lat="38.2302380" lon="-1.4318670">
        <ele>270.8</ele>
        <time>2021-11-07T10:26:14Z</time>
      </trkpt>
      <trkpt lat="38.2302100" lon="-1.4318300">
        <ele>271.0</ele>
        <time>2021-11-07T10:26:15Z</time>
      </trkpt>
      <trkpt lat="38.2301700" lon="-1.4317650">
        <ele>271.3</ele>
        <time>2021-11-07T10:26:16Z</time>
      </trkpt>
      <trkpt lat="38.2301590" lon="-1.4317560">
        <ele>271.4</ele>
        <time>2021-11-07T10:26:17Z</time>
      </trkpt>
      <trkpt lat="38.2301490" lon="-1.4317400">
        <ele>271.5</ele>
        <time>2021-11-07T10:26:18Z</time>
      </trkpt>
      <trkpt lat="38.2301300" lon="-1.4317060">
        <ele>271.7</ele>
        <time>2021-11-07T10:26:19Z</time>
      </trkpt>
      <trkpt lat="38.2301230" lon="-1.4316940">
        <ele>271.7</ele>
        <time>2021-11-07T10:26:20Z</time>
      </trkpt>
      <trkpt lat="38.2300910" lon="-1.4316330">
        <ele>272.1</ele>
        <time>2021-11-07T10:26:21Z</time>
      </trkpt>
      <trkpt lat="38.2300890" lon="-1.4316180">
        <ele>272.2</ele>
        <time>2021-11-07T10:26:23Z</time>
      </trkpt>
      <trkpt lat="38.2300860" lon="-1.4315940">
        <ele>272.4</ele>
        <time>2021-11-07T10:26:24Z</time>
      </trkpt>
      <trkpt lat="38.2300900" lon="-1.4315570">
        <ele>272.6</ele>
        <time>2021-11-07T10:26:25Z</time>
      </trkpt>
      <trkpt lat="38.2300780" lon="-1.4314830">
        <ele>273.1</ele>
        <time>2021-11-07T10:26:26Z</time>
      </trkpt>
      <trkpt lat="38.2300840" lon="-1.4314770">
        <ele>273.2</ele>
        <time>2021-11-07T10:26:27Z</time>
      </trkpt>
      <trkpt lat="38.2300810" lon="-1.4314630">
        <ele>273.3</ele>
        <time>2021-11-07T10:26:28Z</time>
      </trkpt>
      <trkpt lat="38.2300760" lon="-1.4314480">
        <ele>273.4</ele>
        <time>2021-11-07T10:26:29Z</time>
      </trkpt>
      <trkpt lat="38.2300610" lon="-1.4314140">
        <ele>273.6</ele>
        <time>2021-11-07T10:26:30Z</time>
      </trkpt>
      <trkpt lat="38.2300540" lon="-1.4313960">
        <ele>273.8</ele>
        <time>2021-11-07T10:26:31Z</time>
      </trkpt>
      <trkpt lat="38.2300510" lon="-1.4313830">
        <ele>273.9</ele>
        <time>2021-11-07T10:26:33Z</time>
      </trkpt>
      <trkpt lat="38.2300410" lon="-1.4313570">
        <ele>274.1</ele>
        <time>2021-11-07T10:26:34Z</time>
      </trkpt>
      <trkpt lat="38.2300230" lon="-1.4313120">
        <ele>274.4</ele>
        <time>2021-11-07T10:26:35Z</time>
      </trkpt>
      <trkpt lat="38.2300150" lon="-1.4312900">
        <ele>274.6</ele>
        <time>2021-11-07T10:26:36Z</time>
      </trkpt>
      <trkpt lat="38.2300060" lon="-1.4312660">
        <ele>274.8</ele>
        <time>2021-11-07T10:26:37Z</time>
      </trkpt>
      <trkpt lat="38.2300020" lon="-1.4312530">
        <ele>274.9</ele>
        <time>2021-11-07T10:26:38Z</time>
      </trkpt>
      <trkpt lat="38.2299990" lon="-1.4312400">
        <ele>275.0</ele>
        <time>2021-11-07T10:26:39Z</time>
      </trkpt>
      <trkpt lat="38.2299830" lon="-1.4311840">
        <ele>275.4</ele>
        <time>2021-11-07T10:26:41Z</time>
      </trkpt>
      <trkpt lat="38.2299770" lon="-1.4311580">
        <ele>275.5</ele>
        <time>2021-11-07T10:26:42Z</time>
      </trkpt>
      <trkpt lat="38.2299670" lon="-1.4311300">
        <ele>275.7</ele>
        <time>2021-11-07T10:26:43Z</time>
      </trkpt>
      <trkpt lat="38.2299630" lon="-1.4311140">
        <ele>275.8</ele>
        <time>2021-11-07T10:26:44Z</time>
      </trkpt>
      <trkpt lat="38.2299470" lon="-1.4310660">
        <ele>276.2</ele>
        <time>2021-11-07T10:26:45Z</time>
      </trkpt>
      <trkpt lat="38.2299400" lon="-1.4310420">
        <ele>276.3</ele>
        <time>2021-11-07T10:26:46Z</time>
      </trkpt>
      <trkpt lat="38.2299330" lon="-1.4310300">
        <ele>276.4</ele>
        <time>2021-11-07T10:26:48Z</time>
      </trkpt>
      <trkpt lat="38.2299240" lon="-1.4310150">
        <ele>276.5</ele>
        <time>2021-11-07T10:26:49Z</time>
      </trkpt>
      <trkpt lat="38.2298990" lon="-1.4309890">
        <ele>276.7</ele>
        <time>2021-11-07T10:26:50Z</time>
      </trkpt>
      <trkpt lat="38.2298570" lon="-1.4309470">
        <ele>277.1</ele>
        <time>2021-11-07T10:26:51Z</time>
      </trkpt>
      <trkpt lat="38.2298290" lon="-1.4309550">
        <ele>277.2</ele>
        <time>2021-11-07T10:26:52Z</time>
      </trkpt>
      <trkpt lat="38.2297800" lon="-1.4309730">
        <ele>277.5</ele>
        <time>2021-11-07T10:26:54Z</time>
      </trkpt>
      <trkpt lat="38.2297400" lon="-1.4309760">
        <ele>277.6</ele>
        <time>2021-11-07T10:26:55Z</time>
      </trkpt>
      <trkpt lat="38.2296790" lon="-1.4309680">
        <ele>277.8</ele>
        <time>2021-11-07T10:26:56Z</time>
      </trkpt>
      <trkpt lat="38.2296600" lon="-1.4309790">
        <ele>277.9</ele>
        <time>2021-11-07T10:26:57Z</time>
      </trkpt>
      <trkpt lat="38.2296360" lon="-1.4309850">
        <ele>278.0</ele>
        <time>2021-11-07T10:26:59Z</time>
      </trkpt>
      <trkpt lat="38.2295960" lon="-1.4309870">
        <ele>278.1</ele>
        <time>2021-11-07T10:27:00Z</time>
      </trkpt>
      <trkpt lat="38.2295290" lon="-1.4309670">
        <ele>278.4</ele>
        <time>2021-11-07T10:27:01Z</time>
      </trkpt>
      <trkpt lat="38.2295130" lon="-1.4309630">
        <ele>278.4</ele>
        <time>2021-11-07T10:27:02Z</time>
      </trkpt>
      <trkpt lat="38.2294990" lon="-1.4309500">
        <ele>278.5</ele>
        <time>2021-11-07T10:27:03Z</time>
      </trkpt>
      <trkpt lat="38.2294850" lon="-1.4309360">
        <ele>278.5</ele>
        <time>2021-11-07T10:27:05Z</time>
      </trkpt>
      <trkpt lat="38.2294710" lon="-1.4309230">
        <ele>278.6</ele>
        <time>2021-11-07T10:27:06Z</time>
      </trkpt>
      <trkpt lat="38.2294560" lon="-1.4309100">
        <ele>278.7</ele>
        <time>2021-11-07T10:27:07Z</time>
      </trkpt>
      <trkpt lat="38.2294370" lon="-1.4308800">
        <ele>278.8</ele>
        <time>2021-11-07T10:27:08Z</time>
      </trkpt>
      <trkpt lat="38.2294300" lon="-1.4308690">
        <ele>278.8</ele>
        <time>2021-11-07T10:27:09Z</time>
      </trkpt>
      <trkpt lat="38.2294140" lon="-1.4308390">
        <ele>278.9</ele>
        <time>2021-11-07T10:27:10Z</time>
      </trkpt>
      <trkpt lat="38.2293750" lon="-1.4307800">
        <ele>279.0</ele>
        <time>2021-11-07T10:27:12Z</time>
      </trkpt>
      <trkpt lat="38.2293730" lon="-1.4307360">
        <ele>279.1</ele>
        <time>2021-11-07T10:27:13Z</time>
      </trkpt>
      <trkpt lat="38.2293710" lon="-1.4307230">
        <ele>279.1</ele>
        <time>2021-11-07T10:27:14Z</time>
      </trkpt>
      <trkpt lat="38.2293690" lon="-1.4306890">
        <ele>279.2</ele>
        <time>2021-11-07T10:27:15Z</time>
      </trkpt>
      <trkpt lat="38.2293570" lon="-1.4305990">
        <ele>279.4</ele>
        <time>2021-11-07T10:27:17Z</time>
      </trkpt>
      <trkpt lat="38.2293630" lon="-1.4305780">
        <ele>279.4</ele>
        <time>2021-11-07T10:27:18Z</time>
      </trkpt>
      <trkpt lat="38.2293630" lon="-1.4305560">
        <ele>279.4</ele>
        <time>2021-11-07T10:27:19Z</time>
      </trkpt>
      <trkpt lat="38.2293690" lon="-1.4305200">
        <ele>279.5</ele>
        <time>2021-11-07T10:27:20Z</time>
      </trkpt>
      <trkpt lat="38.2293690" lon="-1.4304320">
        <ele>279.6</ele>
        <time>2021-11-07T10:27:21Z</time>
      </trkpt>
      <trkpt lat="38.2293680" lon="-1.4303910">
        <ele>279.7</ele>
        <time>2021-11-07T10:27:23Z</time>
      </trkpt>
      <trkpt lat="38.2293660" lon="-1.4303730">
        <ele>279.7</ele>
        <time>2021-11-07T10:27:24Z</time>
      </trkpt>
      <trkpt lat="38.2293510" lon="-1.4303320">
        <ele>279.8</ele>
        <time>2021-11-07T10:27:25Z</time>
      </trkpt>
      <trkpt lat="38.2293460" lon="-1.4303180">
        <ele>279.9</ele>
        <time>2021-11-07T10:27:26Z</time>
      </trkpt>
      <trkpt lat="38.2293270" lon="-1.4302620">
        <ele>280.0</ele>
        <time>2021-11-07T10:27:27Z</time>
      </trkpt>
      <trkpt lat="38.2293220" lon="-1.4302440">
        <ele>280.0</ele>
        <time>2021-11-07T10:27:28Z</time>
      </trkpt>
      <trkpt lat="38.2293150" lon="-1.4302170">
        <ele>280.1</ele>
        <time>2021-11-07T10:27:30Z</time>
      </trkpt>
      <trkpt lat="38.2293040" lon="-1.4301740">
        <ele>280.2</ele>
        <time>2021-11-07T10:27:31Z</time>
      </trkpt>
      <trkpt lat="38.2292960" lon="-1.4301210">
        <ele>280.3</ele>
        <time>2021-11-07T10:27:33Z</time>
      </trkpt>
      <trkpt lat="38.2292920" lon="-1.4300800">
        <ele>280.4</ele>
        <time>2021-11-07T10:27:34Z</time>
      </trkpt>
      <trkpt lat="38.2292910" lon="-1.4300650">
        <ele>280.4</ele>
        <time>2021-11-07T10:27:35Z</time>
      </trkpt>
      <trkpt lat="38.2292880" lon="-1.4300030">
        <ele>280.5</ele>
        <time>2021-11-07T10:27:37Z</time>
      </trkpt>
      <trkpt lat="38.2292960" lon="-1.4299660">
        <ele>280.6</ele>
        <time>2021-11-07T10:27:38Z</time>
      </trkpt>
      <trkpt lat="38.2292990" lon="-1.4299530">
        <ele>280.6</ele>
        <time>2021-11-07T10:27:39Z</time>
      </trkpt>
      <trkpt lat="38.2293070" lon="-1.4299060">
        <ele>280.7</ele>
        <time>2021-11-07T10:27:40Z</time>
      </trkpt>
      <trkpt lat="38.2293090" lon="-1.4298900">
        <ele>280.8</ele>
        <time>2021-11-07T10:27:41Z</time>
      </trkpt>
      <trkpt lat="38.2293080" lon="-1.4298320">
        <ele>280.9</ele>
        <time>2021-11-07T10:27:42Z</time>
      </trkpt>
      <trkpt lat="38.2292980" lon="-1.4298000">
        <ele>280.9</ele>
        <time>2021-11-07T10:27:43Z</time>
      </trkpt>
      <trkpt lat="38.2292940" lon="-1.4297880">
        <ele>281.0</ele>
        <time>2021-11-07T10:27:44Z</time>
      </trkpt>
      <trkpt lat="38.2292840" lon="-1.4297480">
        <ele>281.1</ele>
        <time>2021-11-07T10:27:46Z</time>
      </trkpt>
      <trkpt lat="38.2292690" lon="-1.4296910">
        <ele>281.2</ele>
        <time>2021-11-07T10:27:47Z</time>
      </trkpt>
      <trkpt lat="38.2292650" lon="-1.4296690">
        <ele>281.3</ele>
        <time>2021-11-07T10:27:48Z</time>
      </trkpt>
      <trkpt lat="38.2292640" lon="-1.4296460">
        <ele>281.3</ele>
        <time>2021-11-07T10:27:49Z</time>
      </trkpt>
      <trkpt lat="38.2292560" lon="-1.4295840">
        <ele>281.5</ele>
        <time>2021-11-07T10:27:51Z</time>
      </trkpt>
      <trkpt lat="38.2292510" lon="-1.4295520">
        <ele>281.6</ele>
        <time>2021-11-07T10:27:52Z</time>
      </trkpt>
      <trkpt lat="38.2292510" lon="-1.4295130">
        <ele>281.7</ele>
        <time>2021-11-07T10:27:53Z</time>
      </trkpt>
      <trkpt lat="38.2292430" lon="-1.4294700">
        <ele>281.8</ele>
        <time>2021-11-07T10:27:54Z</time>
      </trkpt>
      <trkpt lat="38.2292380" lon="-1.4294550">
        <ele>281.8</ele>
        <time>2021-11-07T10:27:55Z</time>
      </trkpt>
      <trkpt lat="38.2292120" lon="-1.4293800">
        <ele>282.0</ele>
        <time>2021-11-07T10:27:56Z</time>
      </trkpt>
      <trkpt lat="38.2292040" lon="-1.4293720">
        <ele>282.1</ele>
        <time>2021-11-07T10:27:58Z</time>
      </trkpt>
      <trkpt lat="38.2291880" lon="-1.4293530">
        <ele>282.2</ele>
        <time>2021-11-07T10:27:59Z</time>
      </trkpt>
      <trkpt lat="38.2291520" lon="-1.4293240">
        <ele>282.3</ele>
        <time>2021-11-07T10:28:00Z</time>
      </trkpt>
      <trkpt lat="38.2291010" lon="-1.4292860">
        <ele>282.6</ele>
        <time>2021-11-07T10:28:02Z</time>
      </trkpt>
      <trkpt lat="38.2290730" lon="-1.4292710">
        <ele>282.7</ele>
        <time>2021-11-07T10:28:03Z</time>
      </trkpt>
      <trkpt lat="38.2290630" lon="-1.4292640">
        <ele>282.8</ele>
        <time>2021-11-07T10:28:04Z</time>
      </trkpt>
      <trkpt lat="38.2290360" lon="-1.4292310">
        <ele>282.9</ele>
        <time>2021-11-07T10:28:05Z</time>
      </trkpt>
      <trkpt lat="38.2290280" lon="-1.4292190">
        <ele>283.0</ele>
        <time>2021-11-07T10:28:06Z</time>
      </trkpt>
      <trkpt lat="38.2290000" lon="-1.4291670">
        <ele>283.2</ele>
        <time>2021-11-07T10:28:08Z</time>
      </trkpt>
      <trkpt lat="38.2289850" lon="-1.4291310">
        <ele>283.3</ele>
        <time>2021-11-07T10:28:09Z</time>
      </trkpt>
      <trkpt lat="38.2289810" lon="-1.4291170">
        <ele>283.3</ele>
        <time>2021-11-07T10:28:10Z</time>
      </trkpt>
      <trkpt lat="38.2289570" lon="-1.4290720">
        <ele>283.5</ele>
        <time>2021-11-07T10:28:11Z</time>
      </trkpt>
      <trkpt lat="38.2289470" lon="-1.4290490">
        <ele>283.6</ele>
        <time>2021-11-07T10:28:12Z</time>
      </trkpt>
      <trkpt lat="38.2289360" lon="-1.4290390">
        <ele>283.7</ele>
        <time>2021-11-07T10:28:13Z</time>
      </trkpt>
      <trkpt lat="38.2289220" lon="-1.4290180">
        <ele>283.7</ele>
        <time>2021-11-07T10:28:14Z</time>
      </trkpt>
      <trkpt lat="38.2289060" lon="-1.4289900">
        <ele>283.8</ele>
        <time>2021-11-07T10:28:15Z</time>
      </trkpt>
      <trkpt lat="38.2288750" lon="-1.4289160">
        <ele>284.1</ele>
        <time>2021-11-07T10:28:16Z</time>
      </trkpt>
      <trkpt lat="38.2288520" lon="-1.4288880">
        <ele>284.2</ele>
        <time>2021-11-07T10:28:18Z</time>
      </trkpt>
      <trkpt lat="38.2288400" lon="-1.4288770">
        <ele>284.3</ele>
        <time>2021-11-07T10:28:19Z</time>
      </trkpt>
      <trkpt lat="38.2288150" lon="-1.4288520">
        <ele>284.4</ele>
        <time>2021-11-07T10:28:20Z</time>
      </trkpt>
      <trkpt lat="38.2287890" lon="-1.4288280">
        <ele>284.6</ele>
        <time>2021-11-07T10:28:21Z</time>
      </trkpt>
      <trkpt lat="38.2287480" lon="-1.4287780">
        <ele>284.8</ele>
        <time>2021-11-07T10:28:22Z</time>
      </trkpt>
      <trkpt lat="38.2287310" lon="-1.4287680">
        <ele>284.9</ele>
        <time>2021-11-07T10:28:23Z</time>
      </trkpt>
      <trkpt lat="38.2287020" lon="-1.4287470">
        <ele>285.0</ele>
        <time>2021-11-07T10:28:25Z</time>
      </trkpt>
      <trkpt lat="38.2286770" lon="-1.4287270">
        <ele>285.1</ele>
        <time>2021-11-07T10:28:26Z</time>
      </trkpt>
      <trkpt lat="38.2286430" lon="-1.4286940">
        <ele>285.3</ele>
        <time>2021-11-07T10:28:27Z</time>
      </trkpt>
      <trkpt lat="38.2286220" lon="-1.4286720">
        <ele>285.4</ele>
        <time>2021-11-07T10:28:28Z</time>
      </trkpt>
      <trkpt lat="38.2286150" lon="-1.4286640">
        <ele>285.5</ele>
        <time>2021-11-07T10:28:29Z</time>
      </trkpt>
      <trkpt lat="38.2285870" lon="-1.4286410">
        <ele>285.6</ele>
        <time>2021-11-07T10:28:30Z</time>
      </trkpt>
      <trkpt lat="38.2285760" lon="-1.4286330">
        <ele>285.6</ele>
        <time>2021-11-07T10:28:31Z</time>
      </trkpt>
      <trkpt lat="38.2285330" lon="-1.4286020">
        <ele>285.8</ele>
        <time>2021-11-07T10:28:32Z</time>
      </trkpt>
      <trkpt lat="38.2285190" lon="-1.4286000">
        <ele>285.9</ele>
        <time>2021-11-07T10:28:33Z</time>
      </trkpt>
      <trkpt lat="38.2285000" lon="-1.4285920">
        <ele>286.0</ele>
        <time>2021-11-07T10:28:34Z</time>
      </trkpt>
      <trkpt lat="38.2284680" lon="-1.4285730">
        <ele>286.1</ele>
        <time>2021-11-07T10:28:35Z</time>
      </trkpt>
      <trkpt lat="38.2284560" lon="-1.4285650">
        <ele>286.2</ele>
        <time>2021-11-07T10:28:36Z</time>
      </trkpt>
      <trkpt lat="38.2284190" lon="-1.4285440">
        <ele>286.3</ele>
        <time>2021-11-07T10:28:37Z</time>
      </trkpt>
      <trkpt lat="38.2284060" lon="-1.4285400">
        <ele>286.4</ele>
        <time>2021-11-07T10:28:38Z</time>
      </trkpt>
      <trkpt lat="38.2283870" lon="-1.4285330">
        <ele>286.5</ele>
        <time>2021-11-07T10:28:39Z</time>
      </trkpt>
      <trkpt lat="38.2283660" lon="-1.4285250">
        <ele>286.5</ele>
        <time>2021-11-07T10:28:40Z</time>
      </trkpt>
      <trkpt lat="38.2283250" lon="-1.4285050">
        <ele>286.7</ele>
        <time>2021-11-07T10:28:42Z</time>
      </trkpt>
      <trkpt lat="38.2283020" lon="-1.4285040">
        <ele>286.8</ele>
        <time>2021-11-07T10:28:43Z</time>
      </trkpt>
      <trkpt lat="38.2282730" lon="-1.4285050">
        <ele>286.9</ele>
        <time>2021-11-07T10:28:45Z</time>
      </trkpt>
      <trkpt lat="38.2282250" lon="-1.4284930">
        <ele>287.1</ele>
        <time>2021-11-07T10:28:46Z</time>
      </trkpt>
      <trkpt lat="38.2281990" lon="-1.4284820">
        <ele>287.3</ele>
        <time>2021-11-07T10:28:47Z</time>
      </trkpt>
      <trkpt lat="38.2281950" lon="-1.4284780">
        <ele>287.3</ele>
        <time>2021-11-07T10:28:48Z</time>
      </trkpt>
      <trkpt lat="38.2281890" lon="-1.4284670">
        <ele>287.3</ele>
        <time>2021-11-07T10:28:49Z</time>
      </trkpt>
      <trkpt lat="38.2281790" lon="-1.4284480">
        <ele>287.4</ele>
        <time>2021-11-07T10:28:50Z</time>
      </trkpt>
      <trkpt lat="38.2281510" lon="-1.4284080">
        <ele>287.6</ele>
        <time>2021-11-07T10:28:51Z</time>
      </trkpt>
      <trkpt lat="38.2281350" lon="-1.4283890">
        <ele>287.6</ele>
        <time>2021-11-07T10:28:52Z</time>
      </trkpt>
      <trkpt lat="38.2281300" lon="-1.4283560">
        <ele>287.7</ele>
        <time>2021-11-07T10:28:53Z</time>
      </trkpt>
      <trkpt lat="38.2281280" lon="-1.4283440">
        <ele>287.8</ele>
        <time>2021-11-07T10:28:54Z</time>
      </trkpt>
      <trkpt lat="38.2281100" lon="-1.4283130">
        <ele>287.9</ele>
        <time>2021-11-07T10:28:55Z</time>
      </trkpt>
      <trkpt lat="38.2281020" lon="-1.4283020">
        <ele>287.9</ele>
        <time>2021-11-07T10:28:56Z</time>
      </trkpt>
      <trkpt lat="38.2280600" lon="-1.4282630">
        <ele>288.1</ele>
        <time>2021-11-07T10:28:58Z</time>
      </trkpt>
      <trkpt lat="38.2280300" lon="-1.4282410">
        <ele>288.3</ele>
        <time>2021-11-07T10:28:59Z</time>
      </trkpt>
      <trkpt lat="38.2280200" lon="-1.4282330">
        <ele>288.3</ele>
        <time>2021-11-07T10:29:00Z</time>
      </trkpt>
      <trkpt lat="38.2279970" lon="-1.4282130">
        <ele>288.4</ele>
        <time>2021-11-07T10:29:01Z</time>
      </trkpt>
      <trkpt lat="38.2279590" lon="-1.4281790">
        <ele>288.6</ele>
        <time>2021-11-07T10:29:02Z</time>
      </trkpt>
      <trkpt lat="38.2279460" lon="-1.4281770">
        <ele>288.6</ele>
        <time>2021-11-07T10:29:03Z</time>
      </trkpt>
      <trkpt lat="38.2279290" lon="-1.4281700">
        <ele>288.7</ele>
        <time>2021-11-07T10:29:04Z</time>
      </trkpt>
      <trkpt lat="38.2278970" lon="-1.4281530">
        <ele>288.8</ele>
        <time>2021-11-07T10:29:06Z</time>
      </trkpt>
      <trkpt lat="38.2278860" lon="-1.4281470">
        <ele>288.8</ele>
        <time>2021-11-07T10:29:07Z</time>
      </trkpt>
      <trkpt lat="38.2278380" lon="-1.4281170">
        <ele>289.0</ele>
        <time>2021-11-07T10:29:08Z</time>
      </trkpt>
      <trkpt lat="38.2278180" lon="-1.4281080">
        <ele>289.1</ele>
        <time>2021-11-07T10:29:09Z</time>
      </trkpt>
      <trkpt lat="38.2277920" lon="-1.4280910">
        <ele>289.2</ele>
        <time>2021-11-07T10:29:11Z</time>
      </trkpt>
      <trkpt lat="38.2277540" lon="-1.4280650">
        <ele>289.4</ele>
        <time>2021-11-07T10:29:12Z</time>
      </trkpt>
      <trkpt lat="38.2277370" lon="-1.4280540">
        <ele>289.5</ele>
        <time>2021-11-07T10:29:13Z</time>
      </trkpt>
      <trkpt lat="38.2277240" lon="-1.4280470">
        <ele>289.5</ele>
        <time>2021-11-07T10:29:14Z</time>
      </trkpt>
      <trkpt lat="38.2277090" lon="-1.4280350">
        <ele>289.6</ele>
        <time>2021-11-07T10:29:15Z</time>
      </trkpt>
      <trkpt lat="38.2276640" lon="-1.4280000">
        <ele>289.8</ele>
        <time>2021-11-07T10:29:16Z</time>
      </trkpt>
      <trkpt lat="38.2276410" lon="-1.4279830">
        <ele>289.9</ele>
        <time>2021-11-07T10:29:17Z</time>
      </trkpt>
      <trkpt lat="38.2276350" lon="-1.4279690">
        <ele>289.9</ele>
        <time>2021-11-07T10:29:18Z</time>
      </trkpt>
      <trkpt lat="38.2276250" lon="-1.4279540">
        <ele>290.0</ele>
        <time>2021-11-07T10:29:19Z</time>
      </trkpt>
      <trkpt lat="38.2275980" lon="-1.4279330">
        <ele>290.1</ele>
        <time>2021-11-07T10:29:20Z</time>
      </trkpt>
      <trkpt lat="38.2275870" lon="-1.4279270">
        <ele>290.2</ele>
        <time>2021-11-07T10:29:21Z</time>
      </trkpt>
      <trkpt lat="38.2275410" lon="-1.4279130">
        <ele>290.3</ele>
        <time>2021-11-07T10:29:22Z</time>
      </trkpt>
      <trkpt lat="38.2275090" lon="-1.4279090">
        <ele>290.5</ele>
        <time>2021-11-07T10:29:23Z</time>
      </trkpt>
      <trkpt lat="38.2274970" lon="-1.4279080">
        <ele>290.5</ele>
        <time>2021-11-07T10:29:24Z</time>
      </trkpt>
      <trkpt lat="38.2274690" lon="-1.4279080">
        <ele>290.6</ele>
        <time>2021-11-07T10:29:26Z</time>
      </trkpt>
      <trkpt lat="38.2274420" lon="-1.4279020">
        <ele>290.7</ele>
        <time>2021-11-07T10:29:27Z</time>
      </trkpt>
      <trkpt lat="38.2274010" lon="-1.4278730">
        <ele>290.9</ele>
        <time>2021-11-07T10:29:28Z</time>
      </trkpt>
      <trkpt lat="38.2273840" lon="-1.4278300">
        <ele>291.0</ele>
        <time>2021-11-07T10:29:29Z</time>
      </trkpt>
      <trkpt lat="38.2273780" lon="-1.4278130">
        <ele>291.1</ele>
        <time>2021-11-07T10:29:30Z</time>
      </trkpt>
      <trkpt lat="38.2273640" lon="-1.4277790">
        <ele>291.2</ele>
        <time>2021-11-07T10:29:31Z</time>
      </trkpt>
      <trkpt lat="38.2273210" lon="-1.4276930">
        <ele>291.6</ele>
        <time>2021-11-07T10:29:33Z</time>
      </trkpt>
      <trkpt lat="38.2273000" lon="-1.4276590">
        <ele>293.3</ele>
        <time>2021-11-07T10:29:34Z</time>
      </trkpt>
      <trkpt lat="38.2272890" lon="-1.4276420">
        <ele>293.3</ele>
        <time>2021-11-07T10:29:35Z</time>
      </trkpt>
      <trkpt lat="38.2272670" lon="-1.4276130">
        <ele>293.4</ele>
        <time>2021-11-07T10:29:36Z</time>
      </trkpt>
      <trkpt lat="38.2272190" lon="-1.4275760">
        <ele>293.6</ele>
        <time>2021-11-07T10:29:38Z</time>
      </trkpt>
      <trkpt lat="38.2272060" lon="-1.4276250">
        <ele>293.7</ele>
        <time>2021-11-07T10:29:39Z</time>
      </trkpt>
      <trkpt lat="38.2271970" lon="-1.4276600">
        <ele>293.8</ele>
        <time>2021-11-07T10:29:40Z</time>
      </trkpt>
      <trkpt lat="38.2271940" lon="-1.4276700">
        <ele>293.8</ele>
        <time>2021-11-07T10:29:41Z</time>
      </trkpt>
      <trkpt lat="38.2271830" lon="-1.4276990">
        <ele>293.9</ele>
        <time>2021-11-07T10:29:42Z</time>
      </trkpt>
      <trkpt lat="38.2271780" lon="-1.4277110">
        <ele>293.9</ele>
        <time>2021-11-07T10:29:44Z</time>
      </trkpt>
      <trkpt lat="38.2271690" lon="-1.4277360">
        <ele>294.0</ele>
        <time>2021-11-07T10:29:45Z</time>
      </trkpt>
      <trkpt lat="38.2271660" lon="-1.4277460">
        <ele>294.0</ele>
        <time>2021-11-07T10:29:46Z</time>
      </trkpt>
      <trkpt lat="38.2271630" lon="-1.4277560">
        <ele>294.1</ele>
        <time>2021-11-07T10:29:47Z</time>
      </trkpt>
      <trkpt lat="38.2271560" lon="-1.4277800">
        <ele>294.1</ele>
        <time>2021-11-07T10:29:48Z</time>
      </trkpt>
      <trkpt lat="38.2271550" lon="-1.4277850">
        <ele>294.1</ele>
        <time>2021-11-07T10:29:49Z</time>
      </trkpt>
      <trkpt lat="38.2271520" lon="-1.4277920">
        <ele>294.1</ele>
        <time>2021-11-07T10:29:50Z</time>
      </trkpt>
      <trkpt lat="38.2271470" lon="-1.4278130">
        <ele>294.2</ele>
        <time>2021-11-07T10:29:51Z</time>
      </trkpt>
      <trkpt lat="38.2271470" lon="-1.4278250">
        <ele>295.1</ele>
        <time>2021-11-07T10:29:53Z</time>
      </trkpt>
      <trkpt lat="38.2271470" lon="-1.4278370">
        <ele>295.1</ele>
        <time>2021-11-07T10:29:54Z</time>
      </trkpt>
      <trkpt lat="38.2271480" lon="-1.4278490">
        <ele>295.2</ele>
        <time>2021-11-07T10:29:55Z</time>
      </trkpt>
      <trkpt lat="38.2271480" lon="-1.4278610">
        <ele>295.3</ele>
        <time>2021-11-07T10:29:56Z</time>
      </trkpt>
      <trkpt lat="38.2271480" lon="-1.4278730">
        <ele>295.4</ele>
        <time>2021-11-07T10:29:57Z</time>
      </trkpt>
      <trkpt lat="38.2271830" lon="-1.4278880">
        <ele>295.7</ele>
        <time>2021-11-07T10:29:59Z</time>
      </trkpt>
      <trkpt lat="38.2272480" lon="-1.4279170">
        <ele>296.2</ele>
        <time>2021-11-07T10:30:00Z</time>
      </trkpt>
      <trkpt lat="38.2272820" lon="-1.4279400">
        <ele>296.5</ele>
        <time>2021-11-07T10:30:01Z</time>
      </trkpt>
      <trkpt lat="38.2273240" lon="-1.4279920">
        <ele>297.1</ele>
        <time>2021-11-07T10:30:03Z</time>
      </trkpt>
      <trkpt lat="38.2273120" lon="-1.4280310">
        <ele>297.3</ele>
        <time>2021-11-07T10:30:04Z</time>
      </trkpt>
      <trkpt lat="38.2273150" lon="-1.4280780">
        <ele>297.7</ele>
        <time>2021-11-07T10:30:05Z</time>
      </trkpt>
      <trkpt lat="38.2273180" lon="-1.4280930">
        <ele>297.8</ele>
        <time>2021-11-07T10:30:06Z</time>
      </trkpt>
      <trkpt lat="38.2273230" lon="-1.4281520">
        <ele>298.2</ele>
        <time>2021-11-07T10:30:07Z</time>
      </trkpt>
      <trkpt lat="38.2272880" lon="-1.4281670">
        <ele>298.5</ele>
        <time>2021-11-07T10:30:09Z</time>
      </trkpt>
      <trkpt lat="38.2272770" lon="-1.4281700">
        <ele>298.6</ele>
        <time>2021-11-07T10:30:10Z</time>
      </trkpt>
      <trkpt lat="38.2272480" lon="-1.4281690">
        <ele>298.8</ele>
        <time>2021-11-07T10:30:11Z</time>
      </trkpt>
      <trkpt lat="38.2272100" lon="-1.4281600">
        <ele>299.1</ele>
        <time>2021-11-07T10:30:13Z</time>
      </trkpt>
      <trkpt lat="38.2271920" lon="-1.4281630">
        <ele>299.2</ele>
        <time>2021-11-07T10:30:14Z</time>
      </trkpt>
      <trkpt lat="38.2271820" lon="-1.4281640">
        <ele>299.3</ele>
        <time>2021-11-07T10:30:15Z</time>
      </trkpt>
      <trkpt lat="38.2271710" lon="-1.4281650">
        <ele>299.4</ele>
        <time>2021-11-07T10:30:16Z</time>
      </trkpt>
      <trkpt lat="38.2271310" lon="-1.4281810">
        <ele>299.6</ele>
        <time>2021-11-07T10:30:17Z</time>
      </trkpt>
      <trkpt lat="38.2271100" lon="-1.4281870">
        <ele>299.8</ele>
        <time>2021-11-07T10:30:18Z</time>
      </trkpt>
      <trkpt lat="38.2270850" lon="-1.4282000">
        <ele>299.9</ele>
        <time>2021-11-07T10:30:19Z</time>
      </trkpt>
      <trkpt lat="38.2270770" lon="-1.4282040">
        <ele>300.0</ele>
        <time>2021-11-07T10:30:20Z</time>
      </trkpt>
      <trkpt lat="38.2270220" lon="-1.4282040">
        <ele>300.3</ele>
        <time>2021-11-07T10:30:22Z</time>
      </trkpt>
      <trkpt lat="38.2269910" lon="-1.4281980">
        <ele>300.5</ele>
        <time>2021-11-07T10:30:23Z</time>
      </trkpt>
      <trkpt lat="38.2269720" lon="-1.4281690">
        <ele>300.7</ele>
        <time>2021-11-07T10:30:25Z</time>
      </trkpt>
      <trkpt lat="38.2269660" lon="-1.4281570">
        <ele>300.7</ele>
        <time>2021-11-07T10:30:26Z</time>
      </trkpt>
      <trkpt lat="38.2269540" lon="-1.4281370">
        <ele>300.8</ele>
        <time>2021-11-07T10:30:27Z</time>
      </trkpt>
      <trkpt lat="38.2269480" lon="-1.4281180">
        <ele>300.9</ele>
        <time>2021-11-07T10:30:28Z</time>
      </trkpt>
      <trkpt lat="38.2269370" lon="-1.4281100">
        <ele>301.0</ele>
        <time>2021-11-07T10:30:30Z</time>
      </trkpt>
      <trkpt lat="38.2269450" lon="-1.4280760">
        <ele>301.2</ele>
        <time>2021-11-07T10:30:31Z</time>
      </trkpt>
      <trkpt lat="38.2269560" lon="-1.4280390">
        <ele>301.4</ele>
        <time>2021-11-07T10:30:32Z</time>
      </trkpt>
      <trkpt lat="38.2269660" lon="-1.4279880">
        <ele>301.7</ele>
        <time>2021-11-07T10:30:34Z</time>
      </trkpt>
      <trkpt lat="38.2269790" lon="-1.4279460">
        <ele>302.0</ele>
        <time>2021-11-07T10:30:35Z</time>
      </trkpt>
      <trkpt lat="38.2269940" lon="-1.4278930">
        <ele>302.4</ele>
        <time>2021-11-07T10:30:36Z</time>
      </trkpt>
      <trkpt lat="38.2270020" lon="-1.4278600">
        <ele>302.6</ele>
        <time>2021-11-07T10:30:37Z</time>
      </trkpt>
      <trkpt lat="38.2270120" lon="-1.4278190">
        <ele>302.9</ele>
        <time>2021-11-07T10:30:38Z</time>
      </trkpt>
      <trkpt lat="38.2270160" lon="-1.4277690">
        <ele>303.2</ele>
        <time>2021-11-07T10:30:40Z</time>
      </trkpt>
      <trkpt lat="38.2270190" lon="-1.4277150">
        <ele>303.6</ele>
        <time>2021-11-07T10:30:41Z</time>
      </trkpt>
      <trkpt lat="38.2270150" lon="-1.4276660">
        <ele>303.9</ele>
        <time>2021-11-07T10:30:42Z</time>
      </trkpt>
      <trkpt lat="38.2270150" lon="-1.4276500">
        <ele>304.0</ele>
        <time>2021-11-07T10:30:43Z</time>
      </trkpt>
      <trkpt lat="38.2270090" lon="-1.4276030">
        <ele>304.3</ele>
        <time>2021-11-07T10:30:45Z</time>
      </trkpt>
      <trkpt lat="38.2270080" lon="-1.4275900">
        <ele>304.4</ele>
        <time>2021-11-07T10:30:46Z</time>
      </trkpt>
      <trkpt lat="38.2270080" lon="-1.4276060">
        <ele>304.5</ele>
        <time>2021-11-07T10:30:48Z</time>
      </trkpt>
      <trkpt lat="38.2270080" lon="-1.4276050">
        <ele>304.5</ele>
        <time>2021-11-07T10:30:49Z</time>
      </trkpt>
      <trkpt lat="38.2270090" lon="-1.4275970">
        <ele>304.6</ele>
        <time>2021-11-07T10:30:50Z</time>
      </trkpt>
      <trkpt lat="38.2270150" lon="-1.4275820">
        <ele>304.7</ele>
        <time>2021-11-07T10:30:52Z</time>
      </trkpt>
      <trkpt lat="38.2270240" lon="-1.4275610">
        <ele>304.9</ele>
        <time>2021-11-07T10:30:53Z</time>
      </trkpt>
      <trkpt lat="38.2270320" lon="-1.4275380">
        <ele>305.0</ele>
        <time>2021-11-07T10:30:54Z</time>
      </trkpt>
      <trkpt lat="38.2270360" lon="-1.4275210">
        <ele>308.4</ele>
        <time>2021-11-07T10:30:55Z</time>
      </trkpt>
      <trkpt lat="38.2270440" lon="-1.4274970">
        <ele>308.6</ele>
        <time>2021-11-07T10:30:56Z</time>
      </trkpt>
      <trkpt lat="38.2270560" lon="-1.4274670">
        <ele>309.0</ele>
        <time>2021-11-07T10:30:58Z</time>
      </trkpt>
      <trkpt lat="38.2270690" lon="-1.4274580">
        <ele>309.2</ele>
        <time>2021-11-07T10:30:59Z</time>
      </trkpt>
      <trkpt lat="38.2270790" lon="-1.4274180">
        <ele>309.6</ele>
        <time>2021-11-07T10:31:01Z</time>
      </trkpt>
      <trkpt lat="38.2270590" lon="-1.4274000">
        <ele>309.9</ele>
        <time>2021-11-07T10:31:02Z</time>
      </trkpt>
      <trkpt lat="38.2270450" lon="-1.4273940">
        <ele>310.1</ele>
        <time>2021-11-07T10:31:04Z</time>
      </trkpt>
      <trkpt lat="38.2270310" lon="-1.4273880">
        <ele>310.3</ele>
        <time>2021-11-07T10:31:05Z</time>
      </trkpt>
      <trkpt lat="38.2270160" lon="-1.4273810">
        <ele>310.6</ele>
        <time>2021-11-07T10:31:06Z</time>
      </trkpt>
      <trkpt lat="38.2269810" lon="-1.4273950">
        <ele>311.1</ele>
        <time>2021-11-07T10:31:08Z</time>
      </trkpt>
      <trkpt lat="38.2269710" lon="-1.4274000">
        <ele>311.2</ele>
        <time>2021-11-07T10:31:09Z</time>
      </trkpt>
      <trkpt lat="38.2269490" lon="-1.4274020">
        <ele>311.5</ele>
        <time>2021-11-07T10:31:10Z</time>
      </trkpt>
      <trkpt lat="38.2269160" lon="-1.4274090">
        <ele>312.0</ele>
        <time>2021-11-07T10:31:12Z</time>
      </trkpt>
      <trkpt lat="38.2269100" lon="-1.4274360">
        <ele>312.3</ele>
        <time>2021-11-07T10:31:13Z</time>
      </trkpt>
      <trkpt lat="38.2269090" lon="-1.4274510">
        <ele>312.4</ele>
        <time>2021-11-07T10:31:14Z</time>
      </trkpt>
      <trkpt lat="38.2269080" lon="-1.4274650">
        <ele>312.6</ele>
        <time>2021-11-07T10:31:15Z</time>
      </trkpt>
      <trkpt lat="38.2269160" lon="-1.4275050">
        <ele>313.0</ele>
        <time>2021-11-07T10:31:17Z</time>
      </trkpt>
      <trkpt lat="38.2269180" lon="-1.4275160">
        <ele>313.1</ele>
        <time>2021-11-07T10:31:18Z</time>
      </trkpt>
      <trkpt lat="38.2269190" lon="-1.4275550">
        <ele>313.5</ele>
        <time>2021-11-07T10:31:19Z</time>
      </trkpt>
      <trkpt lat="38.2269170" lon="-1.4275660">
        <ele>313.7</ele>
        <time>2021-11-07T10:31:20Z</time>
      </trkpt>
      <trkpt lat="38.2268950" lon="-1.4276230">
        <ele>315.4</ele>
        <time>2021-11-07T10:31:22Z</time>
      </trkpt>
      <trkpt lat="38.2268880" lon="-1.4276400">
        <ele>315.6</ele>
        <time>2021-11-07T10:31:23Z</time>
      </trkpt>
      <trkpt lat="38.2268820" lon="-1.4276580">
        <ele>315.8</ele>
        <time>2021-11-07T10:31:24Z</time>
      </trkpt>
      <trkpt lat="38.2268790" lon="-1.4276780">
        <ele>316.1</ele>
        <time>2021-11-07T10:31:25Z</time>
      </trkpt>
      <trkpt lat="38.2268750" lon="-1.4277010">
        <ele>316.4</ele>
        <time>2021-11-07T10:31:26Z</time>
      </trkpt>
      <trkpt lat="38.2268700" lon="-1.4277230">
        <ele>316.6</ele>
        <time>2021-11-07T10:31:28Z</time>
      </trkpt>
      <trkpt lat="38.2268690" lon="-1.4277460">
        <ele>316.9</ele>
        <time>2021-11-07T10:31:29Z</time>
      </trkpt>
      <trkpt lat="38.2268670" lon="-1.4277680">
        <ele>317.2</ele>
        <time>2021-11-07T10:31:30Z</time>
      </trkpt>
      <trkpt lat="38.2268590" lon="-1.4277870">
        <ele>317.5</ele>
        <time>2021-11-07T10:31:31Z</time>
      </trkpt>
      <trkpt lat="38.2268420" lon="-1.4278190">
        <ele>317.9</ele>
        <time>2021-11-07T10:31:32Z</time>
      </trkpt>
      <trkpt lat="38.2268360" lon="-1.4278320">
        <ele>318.1</ele>
        <time>2021-11-07T10:31:33Z</time>
      </trkpt>
      <trkpt lat="38.2268210" lon="-1.4278690">
        <ele>318.6</ele>
        <time>2021-11-07T10:31:35Z</time>
      </trkpt>
      <trkpt lat="38.2268150" lon="-1.4278840">
        <ele>318.8</ele>
        <time>2021-11-07T10:31:36Z</time>
      </trkpt>
      <trkpt lat="38.2267960" lon="-1.4279140">
        <ele>319.3</ele>
        <time>2021-11-07T10:31:37Z</time>
      </trkpt>
      <trkpt lat="38.2267890" lon="-1.4279220">
        <ele>319.4</ele>
        <time>2021-11-07T10:31:38Z</time>
      </trkpt>
      <trkpt lat="38.2267850" lon="-1.4279270">
        <ele>319.5</ele>
        <time>2021-11-07T10:31:39Z</time>
      </trkpt>
      <trkpt lat="38.2267770" lon="-1.4279380">
        <ele>319.7</ele>
        <time>2021-11-07T10:31:40Z</time>
      </trkpt>
      <trkpt lat="38.2267670" lon="-1.4279550">
        <ele>320.0</ele>
        <time>2021-11-07T10:31:42Z</time>
      </trkpt>
      <trkpt lat="38.2267640" lon="-1.4279640">
        <ele>320.1</ele>
        <time>2021-11-07T10:31:43Z</time>
      </trkpt>
      <trkpt lat="38.2267590" lon="-1.4279810">
        <ele>320.3</ele>
        <time>2021-11-07T10:31:44Z</time>
      </trkpt>
      <trkpt lat="38.2267510" lon="-1.4280110">
        <ele>320.8</ele>
        <time>2021-11-07T10:31:46Z</time>
      </trkpt>
      <trkpt lat="38.2267450" lon="-1.4280370">
        <ele>321.1</ele>
        <time>2021-11-07T10:31:47Z</time>
      </trkpt>
      <trkpt lat="38.2267410" lon="-1.4280460">
        <ele>321.2</ele>
        <time>2021-11-07T10:31:48Z</time>
      </trkpt>
      <trkpt lat="38.2267380" lon="-1.4280550">
        <ele>321.4</ele>
        <time>2021-11-07T10:31:49Z</time>
      </trkpt>
      <trkpt lat="38.2267340" lon="-1.4280640">
        <ele>321.5</ele>
        <time>2021-11-07T10:31:50Z</time>
      </trkpt>
      <trkpt lat="38.2267130" lon="-1.4280470">
        <ele>321.9</ele>
        <time>2021-11-07T10:31:51Z</time>
      </trkpt>
      <trkpt lat="38.2266900" lon="-1.4280230">
        <ele>322.4</ele>
        <time>2021-11-07T10:31:53Z</time>
      </trkpt>
      <trkpt lat="38.2266750" lon="-1.4280100">
        <ele>322.7</ele>
        <time>2021-11-07T10:31:54Z</time>
      </trkpt>
      <trkpt lat="38.2267050" lon="-1.4279670">
        <ele>323.4</ele>
        <time>2021-11-07T10:31:56Z</time>
      </trkpt>
      <trkpt lat="38.2267000" lon="-1.4279300">
        <ele>323.9</ele>
        <time>2021-11-07T10:31:57Z</time>
      </trkpt>
      <trkpt lat="38.2266970" lon="-1.4279160">
        <ele>324.1</ele>
        <time>2021-11-07T10:31:58Z</time>
      </trkpt>
      <trkpt lat="38.2266990" lon="-1.4278770">
        <ele>324.5</ele>
        <time>2021-11-07T10:32:00Z</time>
      </trkpt>
      <trkpt lat="38.2267010" lon="-1.4278620">
        <ele>324.7</ele>
        <time>2021-11-07T10:32:01Z</time>
      </trkpt>
      <trkpt lat="38.2267090" lon="-1.4278110">
        <ele>325.3</ele>
        <time>2021-11-07T10:32:03Z</time>
      </trkpt>
      <trkpt lat="38.2267130" lon="-1.4277550">
        <ele>325.9</ele>
        <time>2021-11-07T10:32:05Z</time>
      </trkpt>
      <trkpt lat="38.2267410" lon="-1.4277410">
        <ele>326.4</ele>
        <time>2021-11-07T10:32:06Z</time>
      </trkpt>
      <trkpt lat="38.2267530" lon="-1.4277310">
        <ele>326.6</ele>
        <time>2021-11-07T10:32:07Z</time>
      </trkpt>
      <trkpt lat="38.2267420" lon="-1.4277250">
        <ele>326.7</ele>
        <time>2021-11-07T10:32:08Z</time>
      </trkpt>
      <trkpt lat="38.2267420" lon="-1.4277030">
        <ele>327.0</ele>
        <time>2021-11-07T10:32:10Z</time>
      </trkpt>
      <trkpt lat="38.2267410" lon="-1.4276870">
        <ele>327.1</ele>
        <time>2021-11-07T10:32:11Z</time>
      </trkpt>
      <trkpt lat="38.2267380" lon="-1.4276650">
        <ele>327.4</ele>
        <time>2021-11-07T10:32:12Z</time>
      </trkpt>
      <trkpt lat="38.2267080" lon="-1.4276760">
        <ele>327.8</ele>
        <time>2021-11-07T10:32:14Z</time>
      </trkpt>
      <trkpt lat="38.2267040" lon="-1.4276650">
        <ele>327.9</ele>
        <time>2021-11-07T10:32:15Z</time>
      </trkpt>
      <trkpt lat="38.2267000" lon="-1.4276530">
        <ele>328.1</ele>
        <time>2021-11-07T10:32:16Z</time>
      </trkpt>
      <trkpt lat="38.2266970" lon="-1.4276420">
        <ele>328.2</ele>
        <time>2021-11-07T10:32:17Z</time>
      </trkpt>
      <trkpt lat="38.2266860" lon="-1.4276040">
        <ele>328.6</ele>
        <time>2021-11-07T10:32:19Z</time>
      </trkpt>
      <trkpt lat="38.2266830" lon="-1.4275980">
        <ele>328.7</ele>
        <time>2021-11-07T10:32:20Z</time>
      </trkpt>
      <trkpt lat="38.2266780" lon="-1.4275930">
        <ele>328.7</ele>
        <time>2021-11-07T10:32:21Z</time>
      </trkpt>
      <trkpt lat="38.2266730" lon="-1.4275920">
        <ele>328.7</ele>
        <time>2021-11-07T10:32:22Z</time>
      </trkpt>
      <trkpt lat="38.2266690" lon="-1.4275930">
        <ele>328.8</ele>
        <time>2021-11-07T10:32:23Z</time>
      </trkpt>
      <trkpt lat="38.2266570" lon="-1.4275940">
        <ele>328.9</ele>
        <time>2021-11-07T10:32:25Z</time>
      </trkpt>
      <trkpt lat="38.2266500" lon="-1.4275860">
        <ele>329.0</ele>
        <time>2021-11-07T10:32:26Z</time>
      </trkpt>
      <trkpt lat="38.2266460" lon="-1.4275600">
        <ele>329.1</ele>
        <time>2021-11-07T10:32:27Z</time>
      </trkpt>
      <trkpt lat="38.2266450" lon="-1.4275420">
        <ele>329.2</ele>
        <time>2021-11-07T10:32:28Z</time>
      </trkpt>
      <trkpt lat="38.2266440" lon="-1.4275240">
        <ele>329.4</ele>
        <time>2021-11-07T10:32:29Z</time>
      </trkpt>
      <trkpt lat="38.2266460" lon="-1.4274770">
        <ele>329.7</ele>
        <time>2021-11-07T10:32:30Z</time>
      </trkpt>
      <trkpt lat="38.2266450" lon="-1.4274000">
        <ele>330.2</ele>
        <time>2021-11-07T10:32:32Z</time>
      </trkpt>
      <trkpt lat="38.2266400" lon="-1.4273630">
        <ele>330.5</ele>
        <time>2021-11-07T10:32:33Z</time>
      </trkpt>
      <trkpt lat="38.2266370" lon="-1.4273480">
        <ele>330.6</ele>
        <time>2021-11-07T10:32:34Z</time>
      </trkpt>
      <trkpt lat="38.2266120" lon="-1.4273170">
        <ele>331.0</ele>
        <time>2021-11-07T10:32:35Z</time>
      </trkpt>
      <trkpt lat="38.2265850" lon="-1.4273000">
        <ele>331.4</ele>
        <time>2021-11-07T10:32:36Z</time>
      </trkpt>
      <trkpt lat="38.2265730" lon="-1.4272900">
        <ele>331.5</ele>
        <time>2021-11-07T10:32:38Z</time>
      </trkpt>
      <trkpt lat="38.2265680" lon="-1.4272770">
        <ele>331.7</ele>
        <time>2021-11-07T10:32:39Z</time>
      </trkpt>
      <trkpt lat="38.2265960" lon="-1.4272650">
        <ele>332.0</ele>
        <time>2021-11-07T10:32:40Z</time>
      </trkpt>
      <trkpt lat="38.2265970" lon="-1.4272510">
        <ele>332.1</ele>
        <time>2021-11-07T10:32:42Z</time>
      </trkpt>
      <trkpt lat="38.2265930" lon="-1.4272460">
        <ele>332.2</ele>
        <time>2021-11-07T10:32:43Z</time>
      </trkpt>
      <trkpt lat="38.2265930" lon="-1.4272670">
        <ele>332.3</ele>
        <time>2021-11-07T10:32:44Z</time>
      </trkpt>
      <trkpt lat="38.2265900" lon="-1.4272810">
        <ele>332.4</ele>
        <time>2021-11-07T10:32:45Z</time>
      </trkpt>
      <trkpt lat="38.2265880" lon="-1.4273000">
        <ele>332.6</ele>
        <time>2021-11-07T10:32:47Z</time>
      </trkpt>
      <trkpt lat="38.2265870" lon="-1.4274220">
        <ele>333.4</ele>
        <time>2021-11-07T10:32:49Z</time>
      </trkpt>
      <trkpt lat="38.2265850" lon="-1.4275100">
        <ele>334.0</ele>
        <time>2021-11-07T10:32:50Z</time>
      </trkpt>
      <trkpt lat="38.2265830" lon="-1.4275350">
        <ele>334.1</ele>
        <time>2021-11-07T10:32:51Z</time>
      </trkpt>
      <trkpt lat="38.2265780" lon="-1.4275550">
        <ele>334.2</ele>
        <time>2021-11-07T10:32:52Z</time>
      </trkpt>
      <trkpt lat="38.2265740" lon="-1.4275770">
        <ele>334.4</ele>
        <time>2021-11-07T10:32:53Z</time>
      </trkpt>
      <trkpt lat="38.2265670" lon="-1.4276130">
        <ele>334.6</ele>
        <time>2021-11-07T10:32:55Z</time>
      </trkpt>
      <trkpt lat="38.2265550" lon="-1.4276520">
        <ele>334.9</ele>
        <time>2021-11-07T10:32:56Z</time>
      </trkpt>
      <trkpt lat="38.2265430" lon="-1.4276810">
        <ele>335.2</ele>
        <time>2021-11-07T10:32:57Z</time>
      </trkpt>
      <trkpt lat="38.2265270" lon="-1.4277160">
        <ele>335.6</ele>
        <time>2021-11-07T10:32:59Z</time>
      </trkpt>
      <trkpt lat="38.2265070" lon="-1.4277580">
        <ele>336.0</ele>
        <time>2021-11-07T10:33:00Z</time>
      </trkpt>
      <trkpt lat="38.2264930" lon="-1.4277910">
        <ele>336.4</ele>
        <time>2021-11-07T10:33:01Z</time>
      </trkpt>
      <trkpt lat="38.2264800" lon="-1.4278240">
        <ele>336.7</ele>
        <time>2021-11-07T10:33:03Z</time>
      </trkpt>
      <trkpt lat="38.2264700" lon="-1.4278670">
        <ele>337.1</ele>
        <time>2021-11-07T10:33:04Z</time>
      </trkpt>
      <trkpt lat="38.2264630" lon="-1.4278940">
        <ele>337.3</ele>
        <time>2021-11-07T10:33:05Z</time>
      </trkpt>
      <trkpt lat="38.2264530" lon="-1.4279240">
        <ele>337.6</ele>
        <time>2021-11-07T10:33:07Z</time>
      </trkpt>
      <trkpt lat="38.2264400" lon="-1.4279630">
        <ele>338.0</ele>
        <time>2021-11-07T10:33:08Z</time>
      </trkpt>
      <trkpt lat="38.2264290" lon="-1.4280100">
        <ele>338.4</ele>
        <time>2021-11-07T10:33:10Z</time>
      </trkpt>
      <trkpt lat="38.2264250" lon="-1.4280280">
        <ele>338.6</ele>
        <time>2021-11-07T10:33:11Z</time>
      </trkpt>
      <trkpt lat="38.2264170" lon="-1.4280650">
        <ele>338.9</ele>
        <time>2021-11-07T10:33:12Z</time>
      </trkpt>
      <trkpt lat="38.2264120" lon="-1.4280780">
        <ele>339.0</ele>
        <time>2021-11-07T10:33:13Z</time>
      </trkpt>
      <trkpt lat="38.2263910" lon="-1.4281180">
        <ele>339.5</ele>
        <time>2021-11-07T10:33:15Z</time>
      </trkpt>
      <trkpt lat="38.2263840" lon="-1.4281300">
        <ele>339.6</ele>
        <time>2021-11-07T10:33:16Z</time>
      </trkpt>
      <trkpt lat="38.2263600" lon="-1.4281590">
        <ele>340.0</ele>
        <time>2021-11-07T10:33:18Z</time>
      </trkpt>
      <trkpt lat="38.2263520" lon="-1.4281690">
        <ele>340.1</ele>
        <time>2021-11-07T10:33:19Z</time>
      </trkpt>
      <trkpt lat="38.2263300" lon="-1.4281890">
        <ele>340.5</ele>
        <time>2021-11-07T10:33:20Z</time>
      </trkpt>
      <trkpt lat="38.2263090" lon="-1.4282070">
        <ele>340.8</ele>
        <time>2021-11-07T10:33:22Z</time>
      </trkpt>
      <trkpt lat="38.2262890" lon="-1.4282260">
        <ele>341.1</ele>
        <time>2021-11-07T10:33:23Z</time>
      </trkpt>
      <trkpt lat="38.2262700" lon="-1.4282530">
        <ele>341.4</ele>
        <time>2021-11-07T10:33:25Z</time>
      </trkpt>
      <trkpt lat="38.2262520" lon="-1.4282810">
        <ele>341.8</ele>
        <time>2021-11-07T10:33:26Z</time>
      </trkpt>
      <trkpt lat="38.2262340" lon="-1.4283120">
        <ele>342.2</ele>
        <time>2021-11-07T10:33:28Z</time>
      </trkpt>
      <trkpt lat="38.2262160" lon="-1.4283320">
        <ele>342.5</ele>
        <time>2021-11-07T10:33:29Z</time>
      </trkpt>
      <trkpt lat="38.2261900" lon="-1.4283540">
        <ele>344.1</ele>
        <time>2021-11-07T10:33:31Z</time>
      </trkpt>
      <trkpt lat="38.2261480" lon="-1.4283720">
        <ele>344.1</ele>
        <time>2021-11-07T10:33:33Z</time>
      </trkpt>
      <trkpt lat="38.2261360" lon="-1.4283710">
        <ele>344.1</ele>
        <time>2021-11-07T10:33:34Z</time>
      </trkpt>
      <trkpt lat="38.2261230" lon="-1.4283700">
        <ele>344.7</ele>
        <time>2021-11-07T10:33:35Z</time>
      </trkpt>
      <trkpt lat="38.2261130" lon="-1.4283410">
        <ele>345.1</ele>
        <time>2021-11-07T10:33:37Z</time>
      </trkpt>
      <trkpt lat="38.2261150" lon="-1.4283220">
        <ele>345.3</ele>
        <time>2021-11-07T10:33:39Z</time>
      </trkpt>
      <trkpt lat="38.2261250" lon="-1.4282760">
        <ele>346.0</ele>
        <time>2021-11-07T10:33:40Z</time>
      </trkpt>
      <trkpt lat="38.2261290" lon="-1.4282460">
        <ele>346.4</ele>
        <time>2021-11-07T10:33:41Z</time>
      </trkpt>
      <trkpt lat="38.2261430" lon="-1.4281960">
        <ele>347.1</ele>
        <time>2021-11-07T10:33:43Z</time>
      </trkpt>
      <trkpt lat="38.2261550" lon="-1.4281470">
        <ele>347.7</ele>
        <time>2021-11-07T10:33:44Z</time>
      </trkpt>
      <trkpt lat="38.2261610" lon="-1.4281290">
        <ele>348.0</ele>
        <time>2021-11-07T10:33:45Z</time>
      </trkpt>
      <trkpt lat="38.2261740" lon="-1.4280920">
        <ele>348.5</ele>
        <time>2021-11-07T10:33:47Z</time>
      </trkpt>
      <trkpt lat="38.2261680" lon="-1.4280480">
        <ele>349.0</ele>
        <time>2021-11-07T10:33:49Z</time>
      </trkpt>
      <trkpt lat="38.2261700" lon="-1.4280270">
        <ele>349.2</ele>
        <time>2021-11-07T10:33:50Z</time>
      </trkpt>
      <trkpt lat="38.2261640" lon="-1.4280030">
        <ele>349.4</ele>
        <time>2021-11-07T10:33:52Z</time>
      </trkpt>
      <trkpt lat="38.2261560" lon="-1.4280010">
        <ele>349.5</ele>
        <time>2021-11-07T10:33:53Z</time>
      </trkpt>
      <trkpt lat="38.2261440" lon="-1.4279960">
        <ele>349.6</ele>
        <time>2021-11-07T10:33:54Z</time>
      </trkpt>
      <trkpt lat="38.2261410" lon="-1.4279820">
        <ele>349.7</ele>
        <time>2021-11-07T10:33:56Z</time>
      </trkpt>
      <trkpt lat="38.2261430" lon="-1.4279710">
        <ele>349.8</ele>
        <time>2021-11-07T10:33:57Z</time>
      </trkpt>
      <trkpt lat="38.2261500" lon="-1.4279450">
        <ele>350.0</ele>
        <time>2021-11-07T10:33:59Z</time>
      </trkpt>
      <trkpt lat="38.2261440" lon="-1.4279320">
        <ele>350.1</ele>
        <time>2021-11-07T10:34:01Z</time>
      </trkpt>
      <trkpt lat="38.2261450" lon="-1.4279230">
        <ele>350.2</ele>
        <time>2021-11-07T10:34:02Z</time>
      </trkpt>
      <trkpt lat="38.2261470" lon="-1.4279110">
        <ele>350.3</ele>
        <time>2021-11-07T10:34:03Z</time>
      </trkpt>
      <trkpt lat="38.2261470" lon="-1.4279010">
        <ele>350.3</ele>
        <time>2021-11-07T10:34:05Z</time>
      </trkpt>
      <trkpt lat="38.2261540" lon="-1.4278880">
        <ele>350.4</ele>
        <time>2021-11-07T10:34:06Z</time>
      </trkpt>
      <trkpt lat="38.2261560" lon="-1.4278770">
        <ele>350.3</ele>
        <time>2021-11-07T10:34:07Z</time>
      </trkpt>
      <trkpt lat="38.2261590" lon="-1.4278660">
        <ele>350.2</ele>
        <time>2021-11-07T10:34:08Z</time>
      </trkpt>
      <trkpt lat="38.2261690" lon="-1.4278380">
        <ele>350.1</ele>
        <time>2021-11-07T10:34:10Z</time>
      </trkpt>
      <trkpt lat="38.2261740" lon="-1.4278290">
        <ele>350.1</ele>
        <time>2021-11-07T10:34:11Z</time>
      </trkpt>
      <trkpt lat="38.2261810" lon="-1.4278180">
        <ele>350.0</ele>
        <time>2021-11-07T10:34:12Z</time>
      </trkpt>
      <trkpt lat="38.2261860" lon="-1.4278060">
        <ele>350.0</ele>
        <time>2021-11-07T10:34:13Z</time>
      </trkpt>
      <trkpt lat="38.2261940" lon="-1.4277830">
        <ele>349.9</ele>
        <time>2021-11-07T10:34:14Z</time>
      </trkpt>
      <trkpt lat="38.2261980" lon="-1.4277710">
        <ele>349.8</ele>
        <time>2021-11-07T10:34:16Z</time>
      </trkpt>
      <trkpt lat="38.2262050" lon="-1.4277530">
        <ele>349.7</ele>
        <time>2021-11-07T10:34:17Z</time>
      </trkpt>
      <trkpt lat="38.2262120" lon="-1.4277370">
        <ele>349.6</ele>
        <time>2021-11-07T10:34:18Z</time>
      </trkpt>
      <trkpt lat="38.2262360" lon="-1.4276980">
        <ele>349.3</ele>
        <time>2021-11-07T10:34:20Z</time>
      </trkpt>
      <trkpt lat="38.2262420" lon="-1.4276890">
        <ele>349.2</ele>
        <time>2021-11-07T10:34:21Z</time>
      </trkpt>
      <trkpt lat="38.2262490" lon="-1.4276790">
        <ele>349.1</ele>
        <time>2021-11-07T10:34:22Z</time>
      </trkpt>
      <trkpt lat="38.2262550" lon="-1.4276690">
        <ele>349.0</ele>
        <time>2021-11-07T10:34:23Z</time>
      </trkpt>
      <trkpt lat="38.2262710" lon="-1.4276340">
        <ele>348.7</ele>
        <time>2021-11-07T10:34:24Z</time>
      </trkpt>
      <trkpt lat="38.2262740" lon="-1.4276220">
        <ele>348.6</ele>
        <time>2021-11-07T10:34:26Z</time>
      </trkpt>
      <trkpt lat="38.2262790" lon="-1.4276120">
        <ele>348.4</ele>
        <time>2021-11-07T10:34:27Z</time>
      </trkpt>
      <trkpt lat="38.2262870" lon="-1.4275950">
        <ele>348.2</ele>
        <time>2021-11-07T10:34:29Z</time>
      </trkpt>
      <trkpt lat="38.2262930" lon="-1.4275870">
        <ele>348.0</ele>
        <time>2021-11-07T10:34:30Z</time>
      </trkpt>
      <trkpt lat="38.2262970" lon="-1.4275840">
        <ele>347.9</ele>
        <time>2021-11-07T10:34:31Z</time>
      </trkpt>
      <trkpt lat="38.2263030" lon="-1.4275810">
        <ele>347.7</ele>
        <time>2021-11-07T10:34:32Z</time>
      </trkpt>
      <trkpt lat="38.2263100" lon="-1.4275890">
        <ele>347.6</ele>
        <time>2021-11-07T10:34:35Z</time>
      </trkpt>
      <trkpt lat="38.2263060" lon="-1.4275980">
        <ele>347.5</ele>
        <time>2021-11-07T10:34:37Z</time>
      </trkpt>
      <trkpt lat="38.2263040" lon="-1.4276010">
        <ele>347.3</ele>
        <time>2021-11-07T10:34:38Z</time>
      </trkpt>
      <trkpt lat="38.2263010" lon="-1.4276070">
        <ele>347.2</ele>
        <time>2021-11-07T10:34:40Z</time>
      </trkpt>
      <trkpt lat="38.2263040" lon="-1.4275980">
        <ele>347.0</ele>
        <time>2021-11-07T10:34:42Z</time>
      </trkpt>
      <trkpt lat="38.2262880" lon="-1.4275630">
        <ele>346.8</ele>
        <time>2021-11-07T10:34:44Z</time>
      </trkpt>
      <trkpt lat="38.2262820" lon="-1.4275530">
        <ele>346.7</ele>
        <time>2021-11-07T10:34:45Z</time>
      </trkpt>
      <trkpt lat="38.2262820" lon="-1.4275520">
        <ele>346.6</ele>
        <time>2021-11-07T10:34:46Z</time>
      </trkpt>
      <trkpt lat="38.2262820" lon="-1.4275520">
        <ele>346.4</ele>
        <time>2021-11-07T10:34:48Z</time>
      </trkpt>
      <trkpt lat="38.2262820" lon="-1.4275520">
        <ele>346.3</ele>
        <time>2021-11-07T10:34:50Z</time>
      </trkpt>
      <trkpt lat="38.2262810" lon="-1.4275510">
        <ele>346.1</ele>
        <time>2021-11-07T10:34:51Z</time>
      </trkpt>
      <trkpt lat="38.2262870" lon="-1.4275520">
        <ele>346.0</ele>
        <time>2021-11-07T10:34:52Z</time>
      </trkpt>
      <trkpt lat="38.2263020" lon="-1.4275680">
        <ele>345.8</ele>
        <time>2021-11-07T10:34:54Z</time>
      </trkpt>
      <trkpt lat="38.2263060" lon="-1.4275840">
        <ele>345.8</ele>
        <time>2021-11-07T10:34:55Z</time>
      </trkpt>
      <trkpt lat="38.2262990" lon="-1.4275820">
        <ele>345.6</ele>
        <time>2021-11-07T10:34:57Z</time>
      </trkpt>
      <trkpt lat="38.2262950" lon="-1.4275770">
        <ele>345.4</ele>
        <time>2021-11-07T10:34:58Z</time>
      </trkpt>
      <trkpt lat="38.2262930" lon="-1.4275540">
        <ele>345.3</ele>
        <time>2021-11-07T10:35:00Z</time>
      </trkpt>
      <trkpt lat="38.2262930" lon="-1.4275390">
        <ele>345.1</ele>
        <time>2021-11-07T10:35:02Z</time>
      </trkpt>
      <trkpt lat="38.2262910" lon="-1.4275320">
        <ele>345.0</ele>
        <time>2021-11-07T10:35:03Z</time>
      </trkpt>
      <trkpt lat="38.2262820" lon="-1.4275290">
        <ele>344.8</ele>
        <time>2021-11-07T10:35:05Z</time>
      </trkpt>
      <trkpt lat="38.2262790" lon="-1.4275300">
        <ele>344.8</ele>
        <time>2021-11-07T10:35:06Z</time>
      </trkpt>
      <trkpt lat="38.2262690" lon="-1.4275090">
        <ele>344.6</ele>
        <time>2021-11-07T10:35:08Z</time>
      </trkpt>
      <trkpt lat="38.2262620" lon="-1.4274950">
        <ele>344.5</ele>
        <time>2021-11-07T10:35:09Z</time>
      </trkpt>
      <trkpt lat="38.2262570" lon="-1.4274790">
        <ele>344.3</ele>
        <time>2021-11-07T10:35:10Z</time>
      </trkpt>
      <trkpt lat="38.2262450" lon="-1.4274520">
        <ele>344.2</ele>
        <time>2021-11-07T10:35:12Z</time>
      </trkpt>
      <trkpt lat="38.2262400" lon="-1.4274450">
        <ele>344.0</ele>
        <time>2021-11-07T10:35:13Z</time>
      </trkpt>
      <trkpt lat="38.2262240" lon="-1.4274230">
        <ele>343.9</ele>
        <time>2021-11-07T10:35:15Z</time>
      </trkpt>
      <trkpt lat="38.2262320" lon="-1.4274020">
        <ele>343.7</ele>
        <time>2021-11-07T10:35:17Z</time>
      </trkpt>
      <trkpt lat="38.2262380" lon="-1.4273950">
        <ele>343.6</ele>
        <time>2021-11-07T10:35:18Z</time>
      </trkpt>
      <trkpt lat="38.2262290" lon="-1.4273670">
        <ele>343.4</ele>
        <time>2021-11-07T10:35:20Z</time>
      </trkpt>
      <trkpt lat="38.2262300" lon="-1.4273660">
        <ele>343.3</ele>
        <time>2021-11-07T10:35:21Z</time>
      </trkpt>
      <trkpt lat="38.2262340" lon="-1.4273710">
        <ele>343.2</ele>
        <time>2021-11-07T10:35:22Z</time>
      </trkpt>
      <trkpt lat="38.2262380" lon="-1.4273860">
        <ele>343.0</ele>
        <time>2021-11-07T10:35:24Z</time>
      </trkpt>
      <trkpt lat="38.2262370" lon="-1.4273900">
        <ele>342.9</ele>
        <time>2021-11-07T10:35:25Z</time>
      </trkpt>
      <trkpt lat="38.2262310" lon="-1.4273880">
        <ele>342.7</ele>
        <time>2021-11-07T10:35:27Z</time>
      </trkpt>
      <trkpt lat="38.2262300" lon="-1.4273650">
        <ele>342.6</ele>
        <time>2021-11-07T10:35:29Z</time>
      </trkpt>
      <trkpt lat="38.2262320" lon="-1.4273540">
        <ele>342.4</ele>
        <time>2021-11-07T10:35:31Z</time>
      </trkpt>
      <trkpt lat="38.2262330" lon="-1.4273570">
        <ele>342.3</ele>
        <time>2021-11-07T10:35:32Z</time>
      </trkpt>
      <trkpt lat="38.2262370" lon="-1.4273660">
        <ele>342.2</ele>
        <time>2021-11-07T10:35:34Z</time>
      </trkpt>
      <trkpt lat="38.2262360" lon="-1.4273630">
        <ele>342.0</ele>
        <time>2021-11-07T10:35:35Z</time>
      </trkpt>
      <trkpt lat="38.2262230" lon="-1.4273430">
        <ele>341.9</ele>
        <time>2021-11-07T10:35:37Z</time>
      </trkpt>
      <trkpt lat="38.2262190" lon="-1.4273270">
        <ele>341.7</ele>
        <time>2021-11-07T10:35:38Z</time>
      </trkpt>
      <trkpt lat="38.2262190" lon="-1.4273140">
        <ele>341.6</ele>
        <time>2021-11-07T10:35:39Z</time>
      </trkpt>
      <trkpt lat="38.2262080" lon="-1.4272720">
        <ele>341.5</ele>
        <time>2021-11-07T10:35:41Z</time>
      </trkpt>
      <trkpt lat="38.2262080" lon="-1.4272650">
        <ele>341.3</ele>
        <time>2021-11-07T10:35:42Z</time>
      </trkpt>
      <trkpt lat="38.2262230" lon="-1.4272760">
        <ele>341.2</ele>
        <time>2021-11-07T10:35:44Z</time>
      </trkpt>
      <trkpt lat="38.2262340" lon="-1.4272880">
        <ele>341.0</ele>
        <time>2021-11-07T10:35:46Z</time>
      </trkpt>
      <trkpt lat="38.2262380" lon="-1.4272950">
        <ele>340.9</ele>
        <time>2021-11-07T10:35:48Z</time>
      </trkpt>
      <trkpt lat="38.2262510" lon="-1.4272870">
        <ele>340.7</ele>
        <time>2021-11-07T10:35:49Z</time>
      </trkpt>
      <trkpt lat="38.2262400" lon="-1.4272640">
        <ele>340.6</ele>
        <time>2021-11-07T10:35:51Z</time>
      </trkpt>
      <trkpt lat="38.2262410" lon="-1.4272500">
        <ele>340.5</ele>
        <time>2021-11-07T10:35:52Z</time>
      </trkpt>
      <trkpt lat="38.2262450" lon="-1.4272210">
        <ele>340.4</ele>
        <time>2021-11-07T10:35:53Z</time>
      </trkpt>
      <trkpt lat="38.2262430" lon="-1.4271920">
        <ele>340.3</ele>
        <time>2021-11-07T10:35:55Z</time>
      </trkpt>
      <trkpt lat="38.2262400" lon="-1.4271730">
        <ele>340.2</ele>
        <time>2021-11-07T10:35:56Z</time>
      </trkpt>
      <trkpt lat="38.2262370" lon="-1.4271480">
        <ele>340.2</ele>
        <time>2021-11-07T10:35:57Z</time>
      </trkpt>
      <trkpt lat="38.2262270" lon="-1.4271040">
        <ele>340.2</ele>
        <time>2021-11-07T10:35:58Z</time>
      </trkpt>
      <trkpt lat="38.2262220" lon="-1.4270900">
        <ele>340.1</ele>
        <time>2021-11-07T10:35:59Z</time>
      </trkpt>
      <trkpt lat="38.2262060" lon="-1.4270550">
        <ele>340.2</ele>
        <time>2021-11-07T10:36:00Z</time>
      </trkpt>
      <trkpt lat="38.2261990" lon="-1.4270480">
        <ele>340.0</ele>
        <time>2021-11-07T10:36:01Z</time>
      </trkpt>
      <trkpt lat="38.2261870" lon="-1.4270260">
        <ele>339.9</ele>
        <time>2021-11-07T10:36:02Z</time>
      </trkpt>
      <trkpt lat="38.2261650" lon="-1.4269940">
        <ele>340.0</ele>
        <time>2021-11-07T10:36:04Z</time>
      </trkpt>
      <trkpt lat="38.2261420" lon="-1.4269510">
        <ele>340.0</ele>
        <time>2021-11-07T10:36:05Z</time>
      </trkpt>
      <trkpt lat="38.2261340" lon="-1.4269350">
        <ele>340.0</ele>
        <time>2021-11-07T10:36:06Z</time>
      </trkpt>
      <trkpt lat="38.2261250" lon="-1.4269160">
        <ele>340.0</ele>
        <time>2021-11-07T10:36:08Z</time>
      </trkpt>
      <trkpt lat="38.2261060" lon="-1.4268930">
        <ele>340.0</ele>
        <time>2021-11-07T10:36:10Z</time>
      </trkpt>
      <trkpt lat="38.2260820" lon="-1.4269030">
        <ele>339.9</ele>
        <time>2021-11-07T10:36:11Z</time>
      </trkpt>
      <trkpt lat="38.2260720" lon="-1.4269190">
        <ele>339.9</ele>
        <time>2021-11-07T10:36:12Z</time>
      </trkpt>
      <trkpt lat="38.2260410" lon="-1.4269330">
        <ele>339.8</ele>
        <time>2021-11-07T10:36:14Z</time>
      </trkpt>
      <trkpt lat="38.2260280" lon="-1.4269380">
        <ele>339.7</ele>
        <time>2021-11-07T10:36:15Z</time>
      </trkpt>
      <trkpt lat="38.2259870" lon="-1.4269600">
        <ele>339.4</ele>
        <time>2021-11-07T10:36:17Z</time>
      </trkpt>
      <trkpt lat="38.2259770" lon="-1.4269710">
        <ele>339.4</ele>
        <time>2021-11-07T10:36:18Z</time>
      </trkpt>
      <trkpt lat="38.2259670" lon="-1.4269810">
        <ele>339.3</ele>
        <time>2021-11-07T10:36:19Z</time>
      </trkpt>
      <trkpt lat="38.2259400" lon="-1.4269850">
        <ele>339.1</ele>
        <time>2021-11-07T10:36:20Z</time>
      </trkpt>
      <trkpt lat="38.2259200" lon="-1.4269810">
        <ele>339.1</ele>
        <time>2021-11-07T10:36:21Z</time>
      </trkpt>
      <trkpt lat="38.2259000" lon="-1.4269780">
        <ele>339.0</ele>
        <time>2021-11-07T10:36:23Z</time>
      </trkpt>
      <trkpt lat="38.2258740" lon="-1.4269820">
        <ele>338.8</ele>
        <time>2021-11-07T10:36:24Z</time>
      </trkpt>
      <trkpt lat="38.2258640" lon="-1.4269850">
        <ele>338.8</ele>
        <time>2021-11-07T10:36:25Z</time>
      </trkpt>
      <trkpt lat="38.2258330" lon="-1.4270050">
        <ele>338.5</ele>
        <time>2021-11-07T10:36:26Z</time>
      </trkpt>
      <trkpt lat="38.2258220" lon="-1.4270150">
        <ele>338.5</ele>
        <time>2021-11-07T10:36:27Z</time>
      </trkpt>
      <trkpt lat="38.2258050" lon="-1.4270350">
        <ele>338.4</ele>
        <time>2021-11-07T10:36:28Z</time>
      </trkpt>
      <trkpt lat="38.2257870" lon="-1.4270640">
        <ele>338.2</ele>
        <time>2021-11-07T10:36:30Z</time>
      </trkpt>
      <trkpt lat="38.2257700" lon="-1.4270970">
        <ele>338.1</ele>
        <time>2021-11-07T10:36:31Z</time>
      </trkpt>
      <trkpt lat="38.2257540" lon="-1.4271340">
        <ele>338.1</ele>
        <time>2021-11-07T10:36:32Z</time>
      </trkpt>
      <trkpt lat="38.2257410" lon="-1.4271720">
        <ele>338.0</ele>
        <time>2021-11-07T10:36:33Z</time>
      </trkpt>
      <trkpt lat="38.2257270" lon="-1.4272120">
        <ele>337.9</ele>
        <time>2021-11-07T10:36:34Z</time>
      </trkpt>
      <trkpt lat="38.2257240" lon="-1.4272230">
        <ele>337.9</ele>
        <time>2021-11-07T10:36:35Z</time>
      </trkpt>
      <trkpt lat="38.2257070" lon="-1.4272550">
        <ele>337.8</ele>
        <time>2021-11-07T10:36:36Z</time>
      </trkpt>
      <trkpt lat="38.2257010" lon="-1.4272660">
        <ele>337.8</ele>
        <time>2021-11-07T10:36:37Z</time>
      </trkpt>
      <trkpt lat="38.2256760" lon="-1.4273020">
        <ele>337.7</ele>
        <time>2021-11-07T10:36:38Z</time>
      </trkpt>
      <trkpt lat="38.2256660" lon="-1.4273130">
        <ele>337.7</ele>
        <time>2021-11-07T10:36:39Z</time>
      </trkpt>
      <trkpt lat="38.2256490" lon="-1.4273560">
        <ele>337.6</ele>
        <time>2021-11-07T10:36:40Z</time>
      </trkpt>
      <trkpt lat="38.2256440" lon="-1.4273700">
        <ele>337.6</ele>
        <time>2021-11-07T10:36:41Z</time>
      </trkpt>
      <trkpt lat="38.2256360" lon="-1.4274010">
        <ele>337.5</ele>
        <time>2021-11-07T10:36:42Z</time>
      </trkpt>
      <trkpt lat="38.2256250" lon="-1.4274410">
        <ele>337.4</ele>
        <time>2021-11-07T10:36:44Z</time>
      </trkpt>
      <trkpt lat="38.2256170" lon="-1.4274750">
        <ele>337.3</ele>
        <time>2021-11-07T10:36:45Z</time>
      </trkpt>
      <trkpt lat="38.2256110" lon="-1.4275090">
        <ele>337.2</ele>
        <time>2021-11-07T10:36:46Z</time>
      </trkpt>
      <trkpt lat="38.2256070" lon="-1.4275790">
        <ele>337.0</ele>
        <time>2021-11-07T10:36:48Z</time>
      </trkpt>
      <trkpt lat="38.2256180" lon="-1.4276180">
        <ele>336.8</ele>
        <time>2021-11-07T10:36:49Z</time>
      </trkpt>
      <trkpt lat="38.2256280" lon="-1.4276680">
        <ele>336.6</ele>
        <time>2021-11-07T10:36:50Z</time>
      </trkpt>
      <trkpt lat="38.2256320" lon="-1.4276850">
        <ele>336.6</ele>
        <time>2021-11-07T10:36:51Z</time>
      </trkpt>
      <trkpt lat="38.2256460" lon="-1.4277310">
        <ele>336.4</ele>
        <time>2021-11-07T10:36:52Z</time>
      </trkpt>
      <trkpt lat="38.2256530" lon="-1.4277460">
        <ele>336.4</ele>
        <time>2021-11-07T10:36:53Z</time>
      </trkpt>
      <trkpt lat="38.2256760" lon="-1.4277810">
        <ele>336.3</ele>
        <time>2021-11-07T10:36:54Z</time>
      </trkpt>
      <trkpt lat="38.2256840" lon="-1.4277930">
        <ele>336.3</ele>
        <time>2021-11-07T10:36:55Z</time>
      </trkpt>
      <trkpt lat="38.2257050" lon="-1.4278340">
        <ele>336.3</ele>
        <time>2021-11-07T10:36:56Z</time>
      </trkpt>
      <trkpt lat="38.2257120" lon="-1.4278490">
        <ele>336.3</ele>
        <time>2021-11-07T10:36:57Z</time>
      </trkpt>
      <trkpt lat="38.2257340" lon="-1.4278850">
        <ele>336.3</ele>
        <time>2021-11-07T10:36:58Z</time>
      </trkpt>
      <trkpt lat="38.2257410" lon="-1.4278960">
        <ele>336.3</ele>
        <time>2021-11-07T10:36:59Z</time>
      </trkpt>
      <trkpt lat="38.2257630" lon="-1.4279340">
        <ele>336.4</ele>
        <time>2021-11-07T10:37:00Z</time>
      </trkpt>
      <trkpt lat="38.2257720" lon="-1.4279480">
        <ele>336.4</ele>
        <time>2021-11-07T10:37:01Z</time>
      </trkpt>
      <trkpt lat="38.2257890" lon="-1.4279750">
        <ele>336.5</ele>
        <time>2021-11-07T10:37:02Z</time>
      </trkpt>
      <trkpt lat="38.2258020" lon="-1.4280190">
        <ele>336.7</ele>
        <time>2021-11-07T10:37:04Z</time>
      </trkpt>
      <trkpt lat="38.2258040" lon="-1.4280330">
        <ele>336.7</ele>
        <time>2021-11-07T10:37:05Z</time>
      </trkpt>
      <trkpt lat="38.2257860" lon="-1.4280680">
        <ele>336.1</ele>
        <time>2021-11-07T10:37:06Z</time>
      </trkpt>
      <trkpt lat="38.2257680" lon="-1.4280490">
        <ele>335.7</ele>
        <time>2021-11-07T10:37:08Z</time>
      </trkpt>
      <trkpt lat="38.2257610" lon="-1.4280310">
        <ele>335.4</ele>
        <time>2021-11-07T10:37:09Z</time>
      </trkpt>
      <trkpt lat="38.2257420" lon="-1.4279870">
        <ele>334.8</ele>
        <time>2021-11-07T10:37:10Z</time>
      </trkpt>
      <trkpt lat="38.2257360" lon="-1.4279730">
        <ele>334.6</ele>
        <time>2021-11-07T10:37:11Z</time>
      </trkpt>
      <trkpt lat="38.2257210" lon="-1.4279420">
        <ele>334.1</ele>
        <time>2021-11-07T10:37:12Z</time>
      </trkpt>
      <trkpt lat="38.2257070" lon="-1.4279090">
        <ele>333.6</ele>
        <time>2021-11-07T10:37:14Z</time>
      </trkpt>
      <trkpt lat="38.2256930" lon="-1.4278790">
        <ele>333.1</ele>
        <time>2021-11-07T10:37:15Z</time>
      </trkpt>
      <trkpt lat="38.2256740" lon="-1.4278380">
        <ele>332.7</ele>
        <time>2021-11-07T10:37:16Z</time>
      </trkpt>
      <trkpt lat="38.2256560" lon="-1.4277940">
        <ele>332.3</ele>
        <time>2021-11-07T10:37:17Z</time>
      </trkpt>
      <trkpt lat="38.2256330" lon="-1.4277410">
        <ele>331.8</ele>
        <time>2021-11-07T10:37:18Z</time>
      </trkpt>
      <trkpt lat="38.2256140" lon="-1.4276920">
        <ele>331.4</ele>
        <time>2021-11-07T10:37:20Z</time>
      </trkpt>
      <trkpt lat="38.2256030" lon="-1.4276510">
        <ele>331.2</ele>
        <time>2021-11-07T10:37:21Z</time>
      </trkpt>
      <trkpt lat="38.2255860" lon="-1.4276000">
        <ele>330.9</ele>
        <time>2021-11-07T10:37:22Z</time>
      </trkpt>
      <trkpt lat="38.2255730" lon="-1.4275610">
        <ele>330.7</ele>
        <time>2021-11-07T10:37:23Z</time>
      </trkpt>
      <trkpt lat="38.2255620" lon="-1.4275230">
        <ele>330.5</ele>
        <time>2021-11-07T10:37:24Z</time>
      </trkpt>
      <trkpt lat="38.2255500" lon="-1.4274850">
        <ele>330.3</ele>
        <time>2021-11-07T10:37:25Z</time>
      </trkpt>
      <trkpt lat="38.2255360" lon="-1.4274460">
        <ele>330.1</ele>
        <time>2021-11-07T10:37:26Z</time>
      </trkpt>
      <trkpt lat="38.2255260" lon="-1.4274150">
        <ele>329.9</ele>
        <time>2021-11-07T10:37:27Z</time>
      </trkpt>
      <trkpt lat="38.2255110" lon="-1.4273680">
        <ele>329.6</ele>
        <time>2021-11-07T10:37:29Z</time>
      </trkpt>
      <trkpt lat="38.2254940" lon="-1.4273200">
        <ele>329.2</ele>
        <time>2021-11-07T10:37:30Z</time>
      </trkpt>
      <trkpt lat="38.2254820" lon="-1.4272840">
        <ele>328.9</ele>
        <time>2021-11-07T10:37:31Z</time>
      </trkpt>
      <trkpt lat="38.2254730" lon="-1.4272510">
        <ele>328.6</ele>
        <time>2021-11-07T10:37:32Z</time>
      </trkpt>
      <trkpt lat="38.2254600" lon="-1.4272100">
        <ele>328.2</ele>
        <time>2021-11-07T10:37:34Z</time>
      </trkpt>
      <trkpt lat="38.2254340" lon="-1.4271770">
        <ele>327.8</ele>
        <time>2021-11-07T10:37:35Z</time>
      </trkpt>
      <trkpt lat="38.2254050" lon="-1.4271560">
        <ele>327.3</ele>
        <time>2021-11-07T10:37:36Z</time>
      </trkpt>
      <trkpt lat="38.2253980" lon="-1.4271490">
        <ele>327.1</ele>
        <time>2021-11-07T10:37:37Z</time>
      </trkpt>
      <trkpt lat="38.2253850" lon="-1.4271340">
        <ele>326.8</ele>
        <time>2021-11-07T10:37:38Z</time>
      </trkpt>
      <trkpt lat="38.2253710" lon="-1.4271130">
        <ele>326.5</ele>
        <time>2021-11-07T10:37:40Z</time>
      </trkpt>
      <trkpt lat="38.2253500" lon="-1.4270870">
        <ele>326.0</ele>
        <time>2021-11-07T10:37:41Z</time>
      </trkpt>
      <trkpt lat="38.2253320" lon="-1.4270610">
        <ele>325.5</ele>
        <time>2021-11-07T10:37:42Z</time>
      </trkpt>
      <trkpt lat="38.2253150" lon="-1.4270330">
        <ele>325.1</ele>
        <time>2021-11-07T10:37:43Z</time>
      </trkpt>
      <trkpt lat="38.2253020" lon="-1.4269990">
        <ele>323.5</ele>
        <time>2021-11-07T10:37:44Z</time>
      </trkpt>
      <trkpt lat="38.2252920" lon="-1.4269710">
        <ele>323.3</ele>
        <time>2021-11-07T10:37:45Z</time>
      </trkpt>
      <trkpt lat="38.2252820" lon="-1.4269290">
        <ele>323.1</ele>
        <time>2021-11-07T10:37:47Z</time>
      </trkpt>
      <trkpt lat="38.2252830" lon="-1.4268830">
        <ele>322.9</ele>
        <time>2021-11-07T10:37:48Z</time>
      </trkpt>
      <trkpt lat="38.2252850" lon="-1.4268700">
        <ele>322.8</ele>
        <time>2021-11-07T10:37:49Z</time>
      </trkpt>
      <trkpt lat="38.2252890" lon="-1.4268410">
        <ele>322.7</ele>
        <time>2021-11-07T10:37:50Z</time>
      </trkpt>
      <trkpt lat="38.2252900" lon="-1.4267960">
        <ele>322.6</ele>
        <time>2021-11-07T10:37:52Z</time>
      </trkpt>
      <trkpt lat="38.2252850" lon="-1.4267460">
        <ele>322.4</ele>
        <time>2021-11-07T10:37:53Z</time>
      </trkpt>
      <trkpt lat="38.2252830" lon="-1.4267280">
        <ele>322.3</ele>
        <time>2021-11-07T10:37:54Z</time>
      </trkpt>
      <trkpt lat="38.2252800" lon="-1.4266760">
        <ele>322.1</ele>
        <time>2021-11-07T10:37:55Z</time>
      </trkpt>
      <trkpt lat="38.2252790" lon="-1.4266560">
        <ele>322.1</ele>
        <time>2021-11-07T10:37:56Z</time>
      </trkpt>
      <trkpt lat="38.2252770" lon="-1.4266280">
        <ele>322.0</ele>
        <time>2021-11-07T10:37:57Z</time>
      </trkpt>
      <trkpt lat="38.2252740" lon="-1.4265870">
        <ele>321.8</ele>
        <time>2021-11-07T10:37:59Z</time>
      </trkpt>
      <trkpt lat="38.2252680" lon="-1.4265370">
        <ele>321.6</ele>
        <time>2021-11-07T10:38:00Z</time>
      </trkpt>
      <trkpt lat="38.2252660" lon="-1.4265190">
        <ele>321.6</ele>
        <time>2021-11-07T10:38:01Z</time>
      </trkpt>
      <trkpt lat="38.2252600" lon="-1.4264830">
        <ele>321.5</ele>
        <time>2021-11-07T10:38:02Z</time>
      </trkpt>
      <trkpt lat="38.2252530" lon="-1.4264380">
        <ele>321.3</ele>
        <time>2021-11-07T10:38:03Z</time>
      </trkpt>
      <trkpt lat="38.2252430" lon="-1.4263900">
        <ele>321.1</ele>
        <time>2021-11-07T10:38:04Z</time>
      </trkpt>
      <trkpt lat="38.2252400" lon="-1.4263730">
        <ele>321.0</ele>
        <time>2021-11-07T10:38:05Z</time>
      </trkpt>
      <trkpt lat="38.2252340" lon="-1.4263380">
        <ele>320.8</ele>
        <time>2021-11-07T10:38:06Z</time>
      </trkpt>
      <trkpt lat="38.2252220" lon="-1.4263010">
        <ele>320.6</ele>
        <time>2021-11-07T10:38:08Z</time>
      </trkpt>
      <trkpt lat="38.2252120" lon="-1.4262650">
        <ele>320.4</ele>
        <time>2021-11-07T10:38:09Z</time>
      </trkpt>
      <trkpt lat="38.2251940" lon="-1.4262260">
        <ele>320.0</ele>
        <time>2021-11-07T10:38:10Z</time>
      </trkpt>
      <trkpt lat="38.2251880" lon="-1.4262140">
        <ele>319.8</ele>
        <time>2021-11-07T10:38:11Z</time>
      </trkpt>
      <trkpt lat="38.2251700" lon="-1.4261760">
        <ele>319.5</ele>
        <time>2021-11-07T10:38:12Z</time>
      </trkpt>
      <trkpt lat="38.2251630" lon="-1.4261640">
        <ele>319.4</ele>
        <time>2021-11-07T10:38:13Z</time>
      </trkpt>
      <trkpt lat="38.2251520" lon="-1.4261380">
        <ele>319.1</ele>
        <time>2021-11-07T10:38:14Z</time>
      </trkpt>
      <trkpt lat="38.2251430" lon="-1.4261030">
        <ele>318.8</ele>
        <time>2021-11-07T10:38:16Z</time>
      </trkpt>
      <trkpt lat="38.2251450" lon="-1.4260640">
        <ele>318.5</ele>
        <time>2021-11-07T10:38:17Z</time>
      </trkpt>
      <trkpt lat="38.2251520" lon="-1.4260240">
        <ele>318.2</ele>
        <time>2021-11-07T10:38:18Z</time>
      </trkpt>
      <trkpt lat="38.2251550" lon="-1.4260090">
        <ele>318.1</ele>
        <time>2021-11-07T10:38:19Z</time>
      </trkpt>
      <trkpt lat="38.2251540" lon="-1.4259810">
        <ele>317.9</ele>
        <time>2021-11-07T10:38:20Z</time>
      </trkpt>
      <trkpt lat="38.2251520" lon="-1.4259440">
        <ele>317.7</ele>
        <time>2021-11-07T10:38:22Z</time>
      </trkpt>
      <trkpt lat="38.2251480" lon="-1.4259070">
        <ele>317.4</ele>
        <time>2021-11-07T10:38:23Z</time>
      </trkpt>
      <trkpt lat="38.2251420" lon="-1.4258620">
        <ele>317.1</ele>
        <time>2021-11-07T10:38:24Z</time>
      </trkpt>
      <trkpt lat="38.2251180" lon="-1.4258060">
        <ele>316.8</ele>
        <time>2021-11-07T10:38:26Z</time>
      </trkpt>
      <trkpt lat="38.2251030" lon="-1.4257810">
        <ele>316.6</ele>
        <time>2021-11-07T10:38:27Z</time>
      </trkpt>
      <trkpt lat="38.2250880" lon="-1.4257570">
        <ele>316.4</ele>
        <time>2021-11-07T10:38:28Z</time>
      </trkpt>
      <trkpt lat="38.2250670" lon="-1.4257280">
        <ele>316.2</ele>
        <time>2021-11-07T10:38:30Z</time>
      </trkpt>
      <trkpt lat="38.2250420" lon="-1.4256900">
        <ele>316.0</ele>
        <time>2021-11-07T10:38:31Z</time>
      </trkpt>
      <trkpt lat="38.2250270" lon="-1.4256570">
        <ele>315.8</ele>
        <time>2021-11-07T10:38:32Z</time>
      </trkpt>
      <trkpt lat="38.2250150" lon="-1.4256120">
        <ele>315.6</ele>
        <time>2021-11-07T10:38:33Z</time>
      </trkpt>
      <trkpt lat="38.2250110" lon="-1.4255990">
        <ele>315.5</ele>
        <time>2021-11-07T10:38:34Z</time>
      </trkpt>
      <trkpt lat="38.2250000" lon="-1.4255700">
        <ele>315.4</ele>
        <time>2021-11-07T10:38:35Z</time>
      </trkpt>
      <trkpt lat="38.2249880" lon="-1.4255350">
        <ele>315.3</ele>
        <time>2021-11-07T10:38:37Z</time>
      </trkpt>
      <trkpt lat="38.2249680" lon="-1.4254880">
        <ele>315.0</ele>
        <time>2021-11-07T10:38:39Z</time>
      </trkpt>
      <trkpt lat="38.2249530" lon="-1.4254760">
        <ele>314.9</ele>
        <time>2021-11-07T10:38:40Z</time>
      </trkpt>
      <trkpt lat="38.2249210" lon="-1.4254590">
        <ele>314.8</ele>
        <time>2021-11-07T10:38:42Z</time>
      </trkpt>
      <trkpt lat="38.2249350" lon="-1.4254700">
        <ele>314.7</ele>
        <time>2021-11-07T10:38:44Z</time>
      </trkpt>
      <trkpt lat="38.2249510" lon="-1.4254740">
        <ele>314.6</ele>
        <time>2021-11-07T10:38:46Z</time>
      </trkpt>
      <trkpt lat="38.2249530" lon="-1.4254740">
        <ele>314.6</ele>
        <time>2021-11-07T10:38:47Z</time>
      </trkpt>
      <trkpt lat="38.2249530" lon="-1.4254730">
        <ele>314.6</ele>
        <time>2021-11-07T10:38:48Z</time>
      </trkpt>
      <trkpt lat="38.2249560" lon="-1.4254720">
        <ele>314.6</ele>
        <time>2021-11-07T10:38:50Z</time>
      </trkpt>
      <trkpt lat="38.2249580" lon="-1.4254710">
        <ele>314.5</ele>
        <time>2021-11-07T10:38:52Z</time>
      </trkpt>
      <trkpt lat="38.2249620" lon="-1.4254680">
        <ele>314.5</ele>
        <time>2021-11-07T10:38:53Z</time>
      </trkpt>
      <trkpt lat="38.2249630" lon="-1.4254700">
        <ele>314.5</ele>
        <time>2021-11-07T10:38:54Z</time>
      </trkpt>
      <trkpt lat="38.2249640" lon="-1.4254720">
        <ele>314.5</ele>
        <time>2021-11-07T10:38:55Z</time>
      </trkpt>
      <trkpt lat="38.2249670" lon="-1.4254660">
        <ele>314.5</ele>
        <time>2021-11-07T10:38:57Z</time>
      </trkpt>
      <trkpt lat="38.2249710" lon="-1.4254440">
        <ele>314.4</ele>
        <time>2021-11-07T10:38:58Z</time>
      </trkpt>
      <trkpt lat="38.2249690" lon="-1.4254190">
        <ele>314.2</ele>
        <time>2021-11-07T10:38:59Z</time>
      </trkpt>
      <trkpt lat="38.2249560" lon="-1.4253680">
        <ele>314.0</ele>
        <time>2021-11-07T10:39:01Z</time>
      </trkpt>
      <trkpt lat="38.2249360" lon="-1.4253240">
        <ele>313.7</ele>
        <time>2021-11-07T10:39:03Z</time>
      </trkpt>
      <trkpt lat="38.2249190" lon="-1.4252760">
        <ele>313.5</ele>
        <time>2021-11-07T10:39:05Z</time>
      </trkpt>
      <trkpt lat="38.2249070" lon="-1.4252320">
        <ele>313.3</ele>
        <time>2021-11-07T10:39:06Z</time>
      </trkpt>
      <trkpt lat="38.2249040" lon="-1.4252160">
        <ele>313.2</ele>
        <time>2021-11-07T10:39:07Z</time>
      </trkpt>
      <trkpt lat="38.2248970" lon="-1.4251480">
        <ele>312.9</ele>
        <time>2021-11-07T10:39:09Z</time>
      </trkpt>
      <trkpt lat="38.2248930" lon="-1.4251160">
        <ele>312.9</ele>
        <time>2021-11-07T10:39:10Z</time>
      </trkpt>
      <trkpt lat="38.2248610" lon="-1.4250430">
        <ele>312.7</ele>
        <time>2021-11-07T10:39:12Z</time>
      </trkpt>
      <trkpt lat="38.2248440" lon="-1.4250260">
        <ele>312.6</ele>
        <time>2021-11-07T10:39:13Z</time>
      </trkpt>
      <trkpt lat="38.2248100" lon="-1.4249810">
        <ele>312.4</ele>
        <time>2021-11-07T10:39:15Z</time>
      </trkpt>
      <trkpt lat="38.2247890" lon="-1.4248940">
        <ele>312.0</ele>
        <time>2021-11-07T10:39:17Z</time>
      </trkpt>
      <trkpt lat="38.2247730" lon="-1.4248390">
        <ele>311.8</ele>
        <time>2021-11-07T10:39:19Z</time>
      </trkpt>
      <trkpt lat="38.2247760" lon="-1.4248260">
        <ele>311.7</ele>
        <time>2021-11-07T10:39:20Z</time>
      </trkpt>
      <trkpt lat="38.2247800" lon="-1.4248090">
        <ele>311.6</ele>
        <time>2021-11-07T10:39:21Z</time>
      </trkpt>
      <trkpt lat="38.2247860" lon="-1.4248000">
        <ele>311.6</ele>
        <time>2021-11-07T10:39:22Z</time>
      </trkpt>
      <trkpt lat="38.2248070" lon="-1.4247450">
        <ele>311.2</ele>
        <time>2021-11-07T10:39:24Z</time>
      </trkpt>
      <trkpt lat="38.2248350" lon="-1.4246930">
        <ele>310.9</ele>
        <time>2021-11-07T10:39:25Z</time>
      </trkpt>
      <trkpt lat="38.2248550" lon="-1.4246570">
        <ele>310.6</ele>
        <time>2021-11-07T10:39:27Z</time>
      </trkpt>
      <trkpt lat="38.2248920" lon="-1.4246150">
        <ele>310.1</ele>
        <time>2021-11-07T10:39:28Z</time>
      </trkpt>
      <trkpt lat="38.2249160" lon="-1.4245830">
        <ele>309.8</ele>
        <time>2021-11-07T10:39:29Z</time>
      </trkpt>
      <trkpt lat="38.2249230" lon="-1.4245340">
        <ele>309.5</ele>
        <time>2021-11-07T10:39:30Z</time>
      </trkpt>
      <trkpt lat="38.2249240" lon="-1.4244800">
        <ele>309.1</ele>
        <time>2021-11-07T10:39:32Z</time>
      </trkpt>
      <trkpt lat="38.2249440" lon="-1.4244430">
        <ele>308.8</ele>
        <time>2021-11-07T10:39:33Z</time>
      </trkpt>
      <trkpt lat="38.2249640" lon="-1.4243960">
        <ele>308.5</ele>
        <time>2021-11-07T10:39:34Z</time>
      </trkpt>
      <trkpt lat="38.2249800" lon="-1.4243500">
        <ele>308.2</ele>
        <time>2021-11-07T10:39:35Z</time>
      </trkpt>
      <trkpt lat="38.2249980" lon="-1.4242910">
        <ele>307.8</ele>
        <time>2021-11-07T10:39:36Z</time>
      </trkpt>
      <trkpt lat="38.2250160" lon="-1.4242250">
        <ele>307.5</ele>
        <time>2021-11-07T10:39:38Z</time>
      </trkpt>
      <trkpt lat="38.2250310" lon="-1.4241720">
        <ele>307.2</ele>
        <time>2021-11-07T10:39:39Z</time>
      </trkpt>
      <trkpt lat="38.2250410" lon="-1.4241290">
        <ele>306.9</ele>
        <time>2021-11-07T10:39:41Z</time>
      </trkpt>
      <trkpt lat="38.2250620" lon="-1.4240700">
        <ele>306.6</ele>
        <time>2021-11-07T10:39:42Z</time>
      </trkpt>
      <trkpt lat="38.2250820" lon="-1.4240190">
        <ele>306.3</ele>
        <time>2021-11-07T10:39:43Z</time>
      </trkpt>
      <trkpt lat="38.2251030" lon="-1.4239760">
        <ele>306.0</ele>
        <time>2021-11-07T10:39:45Z</time>
      </trkpt>
      <trkpt lat="38.2251230" lon="-1.4239340">
        <ele>305.8</ele>
        <time>2021-11-07T10:39:46Z</time>
      </trkpt>
      <trkpt lat="38.2251480" lon="-1.4238790">
        <ele>305.5</ele>
        <time>2021-11-07T10:39:47Z</time>
      </trkpt>
      <trkpt lat="38.2251640" lon="-1.4238370">
        <ele>305.3</ele>
        <time>2021-11-07T10:39:48Z</time>
      </trkpt>
      <trkpt lat="38.2251820" lon="-1.4237950">
        <ele>305.0</ele>
        <time>2021-11-07T10:39:49Z</time>
      </trkpt>
      <trkpt lat="38.2251950" lon="-1.4237510">
        <ele>304.8</ele>
        <time>2021-11-07T10:39:50Z</time>
      </trkpt>
      <trkpt lat="38.2252140" lon="-1.4236940">
        <ele>304.5</ele>
        <time>2021-11-07T10:39:52Z</time>
      </trkpt>
      <trkpt lat="38.2252360" lon="-1.4236370">
        <ele>304.1</ele>
        <time>2021-11-07T10:39:53Z</time>
      </trkpt>
      <trkpt lat="38.2252540" lon="-1.4236030">
        <ele>303.9</ele>
        <time>2021-11-07T10:39:54Z</time>
      </trkpt>
      <trkpt lat="38.2252700" lon="-1.4235700">
        <ele>303.7</ele>
        <time>2021-11-07T10:39:55Z</time>
      </trkpt>
      <trkpt lat="38.2252900" lon="-1.4235370">
        <ele>303.5</ele>
        <time>2021-11-07T10:39:56Z</time>
      </trkpt>
      <trkpt lat="38.2253070" lon="-1.4234980">
        <ele>303.2</ele>
        <time>2021-11-07T10:39:58Z</time>
      </trkpt>
      <trkpt lat="38.2253220" lon="-1.4234620">
        <ele>303.0</ele>
        <time>2021-11-07T10:39:59Z</time>
      </trkpt>
      <trkpt lat="38.2253370" lon="-1.4234300">
        <ele>302.8</ele>
        <time>2021-11-07T10:40:00Z</time>
      </trkpt>
      <trkpt lat="38.2253500" lon="-1.4233950">
        <ele>302.6</ele>
        <time>2021-11-07T10:40:01Z</time>
      </trkpt>
      <trkpt lat="38.2253660" lon="-1.4233600">
        <ele>302.4</ele>
        <time>2021-11-07T10:40:02Z</time>
      </trkpt>
      <trkpt lat="38.2253820" lon="-1.4233220">
        <ele>302.2</ele>
        <time>2021-11-07T10:40:03Z</time>
      </trkpt>
      <trkpt lat="38.2253900" lon="-1.4232820">
        <ele>302.0</ele>
        <time>2021-11-07T10:40:04Z</time>
      </trkpt>
      <trkpt lat="38.2253930" lon="-1.4232260">
        <ele>301.8</ele>
        <time>2021-11-07T10:40:06Z</time>
      </trkpt>
      <trkpt lat="38.2253970" lon="-1.4231650">
        <ele>301.6</ele>
        <time>2021-11-07T10:40:07Z</time>
      </trkpt>
      <trkpt lat="38.2253920" lon="-1.4231260">
        <ele>301.4</ele>
        <time>2021-11-07T10:40:08Z</time>
      </trkpt>
      <trkpt lat="38.2253820" lon="-1.4230660">
        <ele>301.2</ele>
        <time>2021-11-07T10:40:10Z</time>
      </trkpt>
      <trkpt lat="38.2253820" lon="-1.4230450">
        <ele>301.2</ele>
        <time>2021-11-07T10:40:11Z</time>
      </trkpt>
      <trkpt lat="38.2253820" lon="-1.4230240">
        <ele>301.1</ele>
        <time>2021-11-07T10:40:12Z</time>
      </trkpt>
      <trkpt lat="38.2253860" lon="-1.4229890">
        <ele>301.0</ele>
        <time>2021-11-07T10:40:13Z</time>
      </trkpt>
      <trkpt lat="38.2253930" lon="-1.4229480">
        <ele>300.9</ele>
        <time>2021-11-07T10:40:14Z</time>
      </trkpt>
      <trkpt lat="38.2254050" lon="-1.4229060">
        <ele>300.8</ele>
        <time>2021-11-07T10:40:15Z</time>
      </trkpt>
      <trkpt lat="38.2254090" lon="-1.4228940">
        <ele>300.7</ele>
        <time>2021-11-07T10:40:16Z</time>
      </trkpt>
      <trkpt lat="38.2254190" lon="-1.4228640">
        <ele>300.7</ele>
        <time>2021-11-07T10:40:17Z</time>
      </trkpt>
      <trkpt lat="38.2254250" lon="-1.4228150">
        <ele>300.6</ele>
        <time>2021-11-07T10:40:19Z</time>
      </trkpt>
      <trkpt lat="38.2254390" lon="-1.4227600">
        <ele>300.5</ele>
        <time>2021-11-07T10:40:20Z</time>
      </trkpt>
      <trkpt lat="38.2254460" lon="-1.4227110">
        <ele>300.3</ele>
        <time>2021-11-07T10:40:22Z</time>
      </trkpt>
      <trkpt lat="38.2254460" lon="-1.4226940">
        <ele>300.3</ele>
        <time>2021-11-07T10:40:23Z</time>
      </trkpt>
      <trkpt lat="38.2254340" lon="-1.4226840">
        <ele>300.2</ele>
        <time>2021-11-07T10:40:25Z</time>
      </trkpt>
      <trkpt lat="38.2254290" lon="-1.4226680">
        <ele>300.1</ele>
        <time>2021-11-07T10:40:26Z</time>
      </trkpt>
      <trkpt lat="38.2254280" lon="-1.4226580">
        <ele>300.1</ele>
        <time>2021-11-07T10:40:27Z</time>
      </trkpt>
      <trkpt lat="38.2254270" lon="-1.4226710">
        <ele>300.0</ele>
        <time>2021-11-07T10:40:28Z</time>
      </trkpt>
      <trkpt lat="38.2254270" lon="-1.4226830">
        <ele>300.0</ele>
        <time>2021-11-07T10:40:29Z</time>
      </trkpt>
      <trkpt lat="38.2254260" lon="-1.4226960">
        <ele>299.9</ele>
        <time>2021-11-07T10:40:31Z</time>
      </trkpt>
      <trkpt lat="38.2254260" lon="-1.4227080">
        <ele>299.8</ele>
        <time>2021-11-07T10:40:33Z</time>
      </trkpt>
      <trkpt lat="38.2254260" lon="-1.4227210">
        <ele>299.7</ele>
        <time>2021-11-07T10:40:34Z</time>
      </trkpt>
      <trkpt lat="38.2254270" lon="-1.4227450">
        <ele>299.5</ele>
        <time>2021-11-07T10:40:36Z</time>
      </trkpt>
      <trkpt lat="38.2254290" lon="-1.4227510">
        <ele>299.4</ele>
        <time>2021-11-07T10:40:38Z</time>
      </trkpt>
      <trkpt lat="38.2254290" lon="-1.4227520">
        <ele>299.4</ele>
        <time>2021-11-07T10:40:39Z</time>
      </trkpt>
      <trkpt lat="38.2254260" lon="-1.4227610">
        <ele>299.3</ele>
        <time>2021-11-07T10:40:41Z</time>
      </trkpt>
      <trkpt lat="38.2254120" lon="-1.4227590">
        <ele>299.1</ele>
        <time>2021-11-07T10:40:42Z</time>
      </trkpt>
      <trkpt lat="38.2254040" lon="-1.4227460">
        <ele>298.9</ele>
        <time>2021-11-07T10:40:44Z</time>
      </trkpt>
      <trkpt lat="38.2254000" lon="-1.4227360">
        <ele>298.7</ele>
        <time>2021-11-07T10:40:45Z</time>
      </trkpt>
      <trkpt lat="38.2254050" lon="-1.4226920">
        <ele>298.0</ele>
        <time>2021-11-07T10:40:46Z</time>
      </trkpt>
      <trkpt lat="38.2254020" lon="-1.4226440">
        <ele>297.2</ele>
        <time>2021-11-07T10:40:48Z</time>
      </trkpt>
      <trkpt lat="38.2254000" lon="-1.4225910">
        <ele>296.3</ele>
        <time>2021-11-07T10:40:49Z</time>
      </trkpt>
      <trkpt lat="38.2253990" lon="-1.4225720">
        <ele>295.9</ele>
        <time>2021-11-07T10:40:50Z</time>
      </trkpt>
      <trkpt lat="38.2253900" lon="-1.4225100">
        <ele>294.6</ele>
        <time>2021-11-07T10:40:51Z</time>
      </trkpt>
      <trkpt lat="38.2254020" lon="-1.4224600">
        <ele>293.5</ele>
        <time>2021-11-07T10:40:52Z</time>
      </trkpt>
      <trkpt lat="38.2254060" lon="-1.4224310">
        <ele>292.8</ele>
        <time>2021-11-07T10:40:54Z</time>
      </trkpt>
      <trkpt lat="38.2253870" lon="-1.4223930">
        <ele>291.8</ele>
        <time>2021-11-07T10:40:56Z</time>
      </trkpt>
      <trkpt lat="38.2253770" lon="-1.4223760">
        <ele>291.3</ele>
        <time>2021-11-07T10:40:57Z</time>
      </trkpt>
      <trkpt lat="38.2253500" lon="-1.4223640">
        <ele>290.5</ele>
        <time>2021-11-07T10:40:59Z</time>
      </trkpt>
      <trkpt lat="38.2253390" lon="-1.4223450">
        <ele>290.0</ele>
        <time>2021-11-07T10:41:00Z</time>
      </trkpt>
      <trkpt lat="38.2253270" lon="-1.4223370">
        <ele>289.6</ele>
        <time>2021-11-07T10:41:01Z</time>
      </trkpt>
      <trkpt lat="38.2252960" lon="-1.4223410">
        <ele>288.6</ele>
        <time>2021-11-07T10:41:03Z</time>
      </trkpt>
      <trkpt lat="38.2252870" lon="-1.4223450">
        <ele>288.3</ele>
        <time>2021-11-07T10:41:04Z</time>
      </trkpt>
      <trkpt lat="38.2252550" lon="-1.4223640">
        <ele>287.3</ele>
        <time>2021-11-07T10:41:05Z</time>
      </trkpt>
      <trkpt lat="38.2252290" lon="-1.4223660">
        <ele>286.6</ele>
        <time>2021-11-07T10:41:06Z</time>
      </trkpt>
      <trkpt lat="38.2252110" lon="-1.4223550">
        <ele>286.0</ele>
        <time>2021-11-07T10:41:08Z</time>
      </trkpt>
      <trkpt lat="38.2251890" lon="-1.4223540">
        <ele>285.5</ele>
        <time>2021-11-07T10:41:10Z</time>
      </trkpt>
      <trkpt lat="38.2251780" lon="-1.4223700">
        <ele>285.1</ele>
        <time>2021-11-07T10:41:12Z</time>
      </trkpt>
      <trkpt lat="38.2251660" lon="-1.4223850">
        <ele>284.7</ele>
        <time>2021-11-07T10:41:13Z</time>
      </trkpt>
      <trkpt lat="38.2251550" lon="-1.4224010">
        <ele>284.3</ele>
        <time>2021-11-07T10:41:14Z</time>
      </trkpt>
      <trkpt lat="38.2251410" lon="-1.4224000">
        <ele>284.0</ele>
        <time>2021-11-07T10:41:16Z</time>
      </trkpt>
      <trkpt lat="38.2251230" lon="-1.4224060">
        <ele>283.6</ele>
        <time>2021-11-07T10:41:17Z</time>
      </trkpt>
      <trkpt lat="38.2250800" lon="-1.4224050">
        <ele>282.9</ele>
        <time>2021-11-07T10:41:19Z</time>
      </trkpt>
      <trkpt lat="38.2250660" lon="-1.4223970">
        <ele>282.6</ele>
        <time>2021-11-07T10:41:20Z</time>
      </trkpt>
      <trkpt lat="38.2250530" lon="-1.4223880">
        <ele>282.4</ele>
        <time>2021-11-07T10:41:21Z</time>
      </trkpt>
      <trkpt lat="38.2250260" lon="-1.4223680">
        <ele>282.0</ele>
        <time>2021-11-07T10:41:22Z</time>
      </trkpt>
      <trkpt lat="38.2250180" lon="-1.4223640">
        <ele>281.9</ele>
        <time>2021-11-07T10:41:23Z</time>
      </trkpt>
      <trkpt lat="38.2249870" lon="-1.4223480">
        <ele>281.6</ele>
        <time>2021-11-07T10:41:24Z</time>
      </trkpt>
      <trkpt lat="38.2249780" lon="-1.4223440">
        <ele>281.5</ele>
        <time>2021-11-07T10:41:25Z</time>
      </trkpt>
      <trkpt lat="38.2249510" lon="-1.4223300">
        <ele>281.2</ele>
        <time>2021-11-07T10:41:26Z</time>
      </trkpt>
      <trkpt lat="38.2249420" lon="-1.4223240">
        <ele>281.1</ele>
        <time>2021-11-07T10:41:27Z</time>
      </trkpt>
      <trkpt lat="38.2249260" lon="-1.4223160">
        <ele>281.0</ele>
        <time>2021-11-07T10:41:29Z</time>
      </trkpt>
      <trkpt lat="38.2248930" lon="-1.4223150">
        <ele>280.7</ele>
        <time>2021-11-07T10:41:31Z</time>
      </trkpt>
      <trkpt lat="38.2248740" lon="-1.4222840">
        <ele>280.5</ele>
        <time>2021-11-07T10:41:32Z</time>
      </trkpt>
      <trkpt lat="38.2248690" lon="-1.4222760">
        <ele>280.5</ele>
        <time>2021-11-07T10:41:33Z</time>
      </trkpt>
      <trkpt lat="38.2248590" lon="-1.4222600">
        <ele>280.5</ele>
        <time>2021-11-07T10:41:35Z</time>
      </trkpt>
      <trkpt lat="38.2248380" lon="-1.4222680">
        <ele>280.5</ele>
        <time>2021-11-07T10:41:37Z</time>
      </trkpt>
      <trkpt lat="38.2248210" lon="-1.4222710">
        <ele>280.5</ele>
        <time>2021-11-07T10:41:39Z</time>
      </trkpt>
      <trkpt lat="38.2248190" lon="-1.4222700">
        <ele>280.5</ele>
        <time>2021-11-07T10:41:40Z</time>
      </trkpt>
      <trkpt lat="38.2248290" lon="-1.4222640">
        <ele>280.5</ele>
        <time>2021-11-07T10:41:42Z</time>
      </trkpt>
      <trkpt lat="38.2248320" lon="-1.4222620">
        <ele>280.5</ele>
        <time>2021-11-07T10:41:43Z</time>
      </trkpt>
      <trkpt lat="38.2248340" lon="-1.4222620">
        <ele>280.5</ele>
        <time>2021-11-07T10:41:44Z</time>
      </trkpt>
      <trkpt lat="38.2248380" lon="-1.4222610">
        <ele>280.5</ele>
        <time>2021-11-07T10:41:46Z</time>
      </trkpt>
      <trkpt lat="38.2248430" lon="-1.4222610">
        <ele>280.5</ele>
        <time>2021-11-07T10:41:48Z</time>
      </trkpt>
      <trkpt lat="38.2248460" lon="-1.4222620">
        <ele>280.5</ele>
        <time>2021-11-07T10:41:49Z</time>
      </trkpt>
      <trkpt lat="38.2248480" lon="-1.4222630">
        <ele>280.5</ele>
        <time>2021-11-07T10:41:50Z</time>
      </trkpt>
      <trkpt lat="38.2248530" lon="-1.4222650">
        <ele>280.5</ele>
        <time>2021-11-07T10:41:52Z</time>
      </trkpt>
      <trkpt lat="38.2248630" lon="-1.4222620">
        <ele>280.5</ele>
        <time>2021-11-07T10:41:54Z</time>
      </trkpt>
      <trkpt lat="38.2248720" lon="-1.4222640">
        <ele>280.5</ele>
        <time>2021-11-07T10:41:55Z</time>
      </trkpt>
      <trkpt lat="38.2248770" lon="-1.4222660">
        <ele>280.5</ele>
        <time>2021-11-07T10:41:56Z</time>
      </trkpt>
      <trkpt lat="38.2248780" lon="-1.4222660">
        <ele>280.5</ele>
        <time>2021-11-07T10:41:58Z</time>
      </trkpt>
      <trkpt lat="38.2248770" lon="-1.4222640">
        <ele>280.5</ele>
        <time>2021-11-07T10:41:59Z</time>
      </trkpt>
      <trkpt lat="38.2248660" lon="-1.4222660">
        <ele>280.5</ele>
        <time>2021-11-07T10:42:01Z</time>
      </trkpt>
      <trkpt lat="38.2248640" lon="-1.4222670">
        <ele>280.5</ele>
        <time>2021-11-07T10:42:02Z</time>
      </trkpt>
      <trkpt lat="38.2248640" lon="-1.4222700">
        <ele>280.5</ele>
        <time>2021-11-07T10:42:04Z</time>
      </trkpt>
      <trkpt lat="38.2248690" lon="-1.4222770">
        <ele>280.5</ele>
        <time>2021-11-07T10:42:06Z</time>
      </trkpt>
      <trkpt lat="38.2248720" lon="-1.4222780">
        <ele>280.5</ele>
        <time>2021-11-07T10:42:07Z</time>
      </trkpt>
      <trkpt lat="38.2248770" lon="-1.4222750">
        <ele>280.5</ele>
        <time>2021-11-07T10:42:09Z</time>
      </trkpt>
      <trkpt lat="38.2248770" lon="-1.4222730">
        <ele>280.5</ele>
        <time>2021-11-07T10:42:10Z</time>
      </trkpt>
      <trkpt lat="38.2248770" lon="-1.4222740">
        <ele>280.5</ele>
        <time>2021-11-07T10:42:11Z</time>
      </trkpt>
      <trkpt lat="38.2248740" lon="-1.4222740">
        <ele>280.5</ele>
        <time>2021-11-07T10:42:13Z</time>
      </trkpt>
      <trkpt lat="38.2248770" lon="-1.4222740">
        <ele>280.5</ele>
        <time>2021-11-07T10:42:15Z</time>
      </trkpt>
      <trkpt lat="38.2248800" lon="-1.4222740">
        <ele>280.5</ele>
        <time>2021-11-07T10:42:16Z</time>
      </trkpt>
      <trkpt lat="38.2248820" lon="-1.4222740">
        <ele>280.5</ele>
        <time>2021-11-07T10:42:18Z</time>
      </trkpt>
      <trkpt lat="38.2248810" lon="-1.4222670">
        <ele>280.5</ele>
        <time>2021-11-07T10:42:20Z</time>
      </trkpt>
      <trkpt lat="38.2248790" lon="-1.4222590">
        <ele>280.5</ele>
        <time>2021-11-07T10:42:21Z</time>
      </trkpt>
      <trkpt lat="38.2248790" lon="-1.4222560">
        <ele>280.5</ele>
        <time>2021-11-07T10:42:23Z</time>
      </trkpt>
      <trkpt lat="38.2248780" lon="-1.4222560">
        <ele>280.5</ele>
        <time>2021-11-07T10:42:24Z</time>
      </trkpt>
      <trkpt lat="38.2248770" lon="-1.4222560">
        <ele>280.5</ele>
        <time>2021-11-07T10:42:25Z</time>
      </trkpt>
      <trkpt lat="38.2248780" lon="-1.4222590">
        <ele>280.5</ele>
        <time>2021-11-07T10:42:27Z</time>
      </trkpt>
      <trkpt lat="38.2248790" lon="-1.4222630">
        <ele>280.5</ele>
        <time>2021-11-07T10:42:28Z</time>
      </trkpt>
      <trkpt lat="38.2248790" lon="-1.4222670">
        <ele>280.5</ele>
        <time>2021-11-07T10:42:29Z</time>
      </trkpt>
      <trkpt lat="38.2248770" lon="-1.4222700">
        <ele>280.5</ele>
        <time>2021-11-07T10:42:30Z</time>
      </trkpt>
      <trkpt lat="38.2248730" lon="-1.4222720">
        <ele>280.5</ele>
        <time>2021-11-07T10:42:32Z</time>
      </trkpt>
      <trkpt lat="38.2248700" lon="-1.4222670">
        <ele>280.5</ele>
        <time>2021-11-07T10:42:33Z</time>
      </trkpt>
      <trkpt lat="38.2248660" lon="-1.4222610">
        <ele>280.5</ele>
        <time>2021-11-07T10:42:35Z</time>
      </trkpt>
      <trkpt lat="38.2248660" lon="-1.4222620">
        <ele>280.5</ele>
        <time>2021-11-07T10:42:36Z</time>
      </trkpt>
      <trkpt lat="38.2248660" lon="-1.4222630">
        <ele>280.5</ele>
        <time>2021-11-07T10:42:38Z</time>
      </trkpt>
      <trkpt lat="38.2248690" lon="-1.4222620">
        <ele>280.5</ele>
        <time>2021-11-07T10:42:39Z</time>
      </trkpt>
      <trkpt lat="38.2248700" lon="-1.4222590">
        <ele>280.5</ele>
        <time>2021-11-07T10:42:41Z</time>
      </trkpt>
      <trkpt lat="38.2248730" lon="-1.4222550">
        <ele>280.5</ele>
        <time>2021-11-07T10:42:42Z</time>
      </trkpt>
      <trkpt lat="38.2248750" lon="-1.4222560">
        <ele>280.5</ele>
        <time>2021-11-07T10:42:44Z</time>
      </trkpt>
      <trkpt lat="38.2248790" lon="-1.4222530">
        <ele>280.5</ele>
        <time>2021-11-07T10:42:45Z</time>
      </trkpt>
      <trkpt lat="38.2248830" lon="-1.4222510">
        <ele>280.5</ele>
        <time>2021-11-07T10:42:46Z</time>
      </trkpt>
      <trkpt lat="38.2248940" lon="-1.4222510">
        <ele>280.5</ele>
        <time>2021-11-07T10:42:48Z</time>
      </trkpt>
      <trkpt lat="38.2249050" lon="-1.4222540">
        <ele>280.5</ele>
        <time>2021-11-07T10:42:50Z</time>
      </trkpt>
      <trkpt lat="38.2249130" lon="-1.4222560">
        <ele>280.5</ele>
        <time>2021-11-07T10:42:52Z</time>
      </trkpt>
      <trkpt lat="38.2249150" lon="-1.4222560">
        <ele>280.5</ele>
        <time>2021-11-07T10:42:53Z</time>
      </trkpt>
      <trkpt lat="38.2249110" lon="-1.4222590">
        <ele>280.5</ele>
        <time>2021-11-07T10:42:55Z</time>
      </trkpt>
      <trkpt lat="38.2249050" lon="-1.4222600">
        <ele>280.5</ele>
        <time>2021-11-07T10:42:57Z</time>
      </trkpt>
      <trkpt lat="38.2249030" lon="-1.4222600">
        <ele>280.5</ele>
        <time>2021-11-07T10:42:58Z</time>
      </trkpt>
      <trkpt lat="38.2249010" lon="-1.4222590">
        <ele>280.5</ele>
        <time>2021-11-07T10:42:59Z</time>
      </trkpt>
      <trkpt lat="38.2249000" lon="-1.4222590">
        <ele>280.5</ele>
        <time>2021-11-07T10:43:00Z</time>
      </trkpt>
      <trkpt lat="38.2249000" lon="-1.4222590">
        <ele>280.5</ele>
        <time>2021-11-07T10:43:02Z</time>
      </trkpt>
      <trkpt lat="38.2248980" lon="-1.4222600">
        <ele>280.5</ele>
        <time>2021-11-07T10:43:03Z</time>
      </trkpt>
      <trkpt lat="38.2248960" lon="-1.4222600">
        <ele>280.5</ele>
        <time>2021-11-07T10:43:05Z</time>
      </trkpt>
      <trkpt lat="38.2248950" lon="-1.4222540">
        <ele>280.5</ele>
        <time>2021-11-07T10:43:07Z</time>
      </trkpt>
      <trkpt lat="38.2248940" lon="-1.4222520">
        <ele>280.5</ele>
        <time>2021-11-07T10:43:08Z</time>
      </trkpt>
      <trkpt lat="38.2248800" lon="-1.4222600">
        <ele>280.5</ele>
        <time>2021-11-07T10:43:10Z</time>
      </trkpt>
      <trkpt lat="38.2248770" lon="-1.4222660">
        <ele>280.5</ele>
        <time>2021-11-07T10:43:11Z</time>
      </trkpt>
      <trkpt lat="38.2248810" lon="-1.4222810">
        <ele>280.5</ele>
        <time>2021-11-07T10:43:13Z</time>
      </trkpt>
      <trkpt lat="38.2248770" lon="-1.4222970">
        <ele>280.5</ele>
        <time>2021-11-07T10:43:15Z</time>
      </trkpt>
      <trkpt lat="38.2248740" lon="-1.4223010">
        <ele>280.5</ele>
        <time>2021-11-07T10:43:17Z</time>
      </trkpt>
      <trkpt lat="38.2248740" lon="-1.4222980">
        <ele>280.5</ele>
        <time>2021-11-07T10:43:18Z</time>
      </trkpt>
      <trkpt lat="38.2248740" lon="-1.4222970">
        <ele>280.5</ele>
        <time>2021-11-07T10:43:19Z</time>
      </trkpt>
      <trkpt lat="38.2248750" lon="-1.4222910">
        <ele>280.5</ele>
        <time>2021-11-07T10:43:21Z</time>
      </trkpt>
      <trkpt lat="38.2248640" lon="-1.4222950">
        <ele>280.5</ele>
        <time>2021-11-07T10:43:23Z</time>
      </trkpt>
      <trkpt lat="38.2248380" lon="-1.4222920">
        <ele>280.5</ele>
        <time>2021-11-07T10:43:25Z</time>
      </trkpt>
      <trkpt lat="38.2248310" lon="-1.4222910">
        <ele>280.5</ele>
        <time>2021-11-07T10:43:27Z</time>
      </trkpt>
      <trkpt lat="38.2248280" lon="-1.4222900">
        <ele>280.5</ele>
        <time>2021-11-07T10:43:28Z</time>
      </trkpt>
      <trkpt lat="38.2248280" lon="-1.4222830">
        <ele>280.5</ele>
        <time>2021-11-07T10:43:29Z</time>
      </trkpt>
      <trkpt lat="38.2248510" lon="-1.4222510">
        <ele>280.5</ele>
        <time>2021-11-07T10:43:31Z</time>
      </trkpt>
      <trkpt lat="38.2248560" lon="-1.4222500">
        <ele>280.5</ele>
        <time>2021-11-07T10:43:32Z</time>
      </trkpt>
      <trkpt lat="38.2248600" lon="-1.4222620">
        <ele>280.5</ele>
        <time>2021-11-07T10:43:34Z</time>
      </trkpt>
      <trkpt lat="38.2248590" lon="-1.4222800">
        <ele>280.5</ele>
        <time>2021-11-07T10:43:36Z</time>
      </trkpt>
      <trkpt lat="38.2248590" lon="-1.4222820">
        <ele>280.5</ele>
        <time>2021-11-07T10:43:37Z</time>
      </trkpt>
      <trkpt lat="38.2248590" lon="-1.4222770">
        <ele>280.5</ele>
        <time>2021-11-07T10:43:38Z</time>
      </trkpt>
      <trkpt lat="38.2248620" lon="-1.4222660">
        <ele>280.5</ele>
        <time>2021-11-07T10:43:40Z</time>
      </trkpt>
      <trkpt lat="38.2248650" lon="-1.4222650">
        <ele>280.5</ele>
        <time>2021-11-07T10:43:41Z</time>
      </trkpt>
      <trkpt lat="38.2248620" lon="-1.4222620">
        <ele>280.5</ele>
        <time>2021-11-07T10:43:43Z</time>
      </trkpt>
      <trkpt lat="38.2248590" lon="-1.4222620">
        <ele>280.5</ele>
        <time>2021-11-07T10:43:44Z</time>
      </trkpt>
      <trkpt lat="38.2248550" lon="-1.4222770">
        <ele>280.5</ele>
        <time>2021-11-07T10:43:46Z</time>
      </trkpt>
      <trkpt lat="38.2248490" lon="-1.4222800">
        <ele>280.5</ele>
        <time>2021-11-07T10:43:48Z</time>
      </trkpt>
      <trkpt lat="38.2248480" lon="-1.4222770">
        <ele>280.5</ele>
        <time>2021-11-07T10:43:49Z</time>
      </trkpt>
      <trkpt lat="38.2248550" lon="-1.4222780">
        <ele>280.5</ele>
        <time>2021-11-07T10:43:50Z</time>
      </trkpt>
      <trkpt lat="38.2248580" lon="-1.4222780">
        <ele>280.5</ele>
        <time>2021-11-07T10:43:51Z</time>
      </trkpt>
      <trkpt lat="38.2248650" lon="-1.4222780">
        <ele>280.5</ele>
        <time>2021-11-07T10:43:52Z</time>
      </trkpt>
      <trkpt lat="38.2248730" lon="-1.4222750">
        <ele>280.5</ele>
        <time>2021-11-07T10:43:54Z</time>
      </trkpt>
      <trkpt lat="38.2248710" lon="-1.4222760">
        <ele>280.5</ele>
        <time>2021-11-07T10:43:55Z</time>
      </trkpt>
      <trkpt lat="38.2248670" lon="-1.4222830">
        <ele>280.5</ele>
        <time>2021-11-07T10:43:56Z</time>
      </trkpt>
      <trkpt lat="38.2248630" lon="-1.4222960">
        <ele>280.5</ele>
        <time>2021-11-07T10:43:57Z</time>
      </trkpt>
      <trkpt lat="38.2248600" lon="-1.4223070">
        <ele>280.5</ele>
        <time>2021-11-07T10:43:58Z</time>
      </trkpt>
      <trkpt lat="38.2248540" lon="-1.4223140">
        <ele>280.5</ele>
        <time>2021-11-07T10:43:59Z</time>
      </trkpt>
      <trkpt lat="38.2248380" lon="-1.4223180">
        <ele>280.5</ele>
        <time>2021-11-07T10:44:00Z</time>
      </trkpt>
      <trkpt lat="38.2247950" lon="-1.4223450">
        <ele>280.2</ele>
        <time>2021-11-07T10:44:02Z</time>
      </trkpt>
      <trkpt lat="38.2247730" lon="-1.4223660">
        <ele>280.0</ele>
        <time>2021-11-07T10:44:04Z</time>
      </trkpt>
      <trkpt lat="38.2247610" lon="-1.4223260">
        <ele>279.8</ele>
        <time>2021-11-07T10:44:05Z</time>
      </trkpt>
      <trkpt lat="38.2247620" lon="-1.4223810">
        <ele>279.4</ele>
        <time>2021-11-07T10:44:06Z</time>
      </trkpt>
      <trkpt lat="38.2247620" lon="-1.4224000">
        <ele>279.3</ele>
        <time>2021-11-07T10:44:07Z</time>
      </trkpt>
      <trkpt lat="38.2247600" lon="-1.4224240">
        <ele>279.1</ele>
        <time>2021-11-07T10:44:08Z</time>
      </trkpt>
      <trkpt lat="38.2247610" lon="-1.4224570">
        <ele>278.8</ele>
        <time>2021-11-07T10:44:10Z</time>
      </trkpt>
      <trkpt lat="38.2247690" lon="-1.4224650">
        <ele>278.7</ele>
        <time>2021-11-07T10:44:11Z</time>
      </trkpt>
      <trkpt lat="38.2247810" lon="-1.4224770">
        <ele>278.5</ele>
        <time>2021-11-07T10:44:13Z</time>
      </trkpt>
      <trkpt lat="38.2247810" lon="-1.4224770">
        <ele>278.5</ele>
        <time>2021-11-07T10:44:15Z</time>
      </trkpt>
      <trkpt lat="38.2247780" lon="-1.4224640">
        <ele>278.4</ele>
        <time>2021-11-07T10:44:17Z</time>
      </trkpt>
      <trkpt lat="38.2247760" lon="-1.4224570">
        <ele>278.3</ele>
        <time>2021-11-07T10:44:19Z</time>
      </trkpt>
      <trkpt lat="38.2247740" lon="-1.4224530">
        <ele>278.3</ele>
        <time>2021-11-07T10:44:21Z</time>
      </trkpt>
      <trkpt lat="38.2247740" lon="-1.4224510">
        <ele>278.2</ele>
        <time>2021-11-07T10:44:22Z</time>
      </trkpt>
      <trkpt lat="38.2247730" lon="-1.4224500">
        <ele>278.2</ele>
        <time>2021-11-07T10:44:23Z</time>
      </trkpt>
      <trkpt lat="38.2247730" lon="-1.4224490">
        <ele>278.2</ele>
        <time>2021-11-07T10:44:24Z</time>
      </trkpt>
      <trkpt lat="38.2247710" lon="-1.4224430">
        <ele>278.1</ele>
        <time>2021-11-07T10:44:26Z</time>
      </trkpt>
      <trkpt lat="38.2247680" lon="-1.4224400">
        <ele>278.1</ele>
        <time>2021-11-07T10:44:28Z</time>
      </trkpt>
      <trkpt lat="38.2247670" lon="-1.4224400">
        <ele>278.1</ele>
        <time>2021-11-07T10:44:29Z</time>
      </trkpt>
      <trkpt lat="38.2247640" lon="-1.4224370">
        <ele>278.0</ele>
        <time>2021-11-07T10:44:30Z</time>
      </trkpt>
      <trkpt lat="38.2247610" lon="-1.4224210">
        <ele>277.8</ele>
        <time>2021-11-07T10:44:31Z</time>
      </trkpt>
      <trkpt lat="38.2247590" lon="-1.4223960">
        <ele>277.6</ele>
        <time>2021-11-07T10:44:33Z</time>
      </trkpt>
      <trkpt lat="38.2247520" lon="-1.4223640">
        <ele>277.2</ele>
        <time>2021-11-07T10:44:35Z</time>
      </trkpt>
      <trkpt lat="38.2247740" lon="-1.4223410">
        <ele>276.7</ele>
        <time>2021-11-07T10:44:37Z</time>
      </trkpt>
      <trkpt lat="38.2247870" lon="-1.4223440">
        <ele>276.5</ele>
        <time>2021-11-07T10:44:38Z</time>
      </trkpt>
      <trkpt lat="38.2248140" lon="-1.4223570">
        <ele>276.1</ele>
        <time>2021-11-07T10:44:40Z</time>
      </trkpt>
      <trkpt lat="38.2247990" lon="-1.4223490">
        <ele>275.8</ele>
        <time>2021-11-07T10:44:41Z</time>
      </trkpt>
      <trkpt lat="38.2247890" lon="-1.4223420">
        <ele>275.6</ele>
        <time>2021-11-07T10:44:43Z</time>
      </trkpt>
      <trkpt lat="38.2247790" lon="-1.4223350">
        <ele>275.4</ele>
        <time>2021-11-07T10:44:44Z</time>
      </trkpt>
      <trkpt lat="38.2247600" lon="-1.4223140">
        <ele>275.0</ele>
        <time>2021-11-07T10:44:46Z</time>
      </trkpt>
      <trkpt lat="38.2247580" lon="-1.4223120">
        <ele>274.9</ele>
        <time>2021-11-07T10:44:47Z</time>
      </trkpt>
      <trkpt lat="38.2247550" lon="-1.4223070">
        <ele>274.8</ele>
        <time>2021-11-07T10:44:49Z</time>
      </trkpt>
      <trkpt lat="38.2247570" lon="-1.4223080">
        <ele>274.8</ele>
        <time>2021-11-07T10:44:51Z</time>
      </trkpt>
      <trkpt lat="38.2247580" lon="-1.4223090">
        <ele>274.8</ele>
        <time>2021-11-07T10:44:52Z</time>
      </trkpt>
      <trkpt lat="38.2247570" lon="-1.4223080">
        <ele>274.7</ele>
        <time>2021-11-07T10:44:54Z</time>
      </trkpt>
      <trkpt lat="38.2247570" lon="-1.4223040">
        <ele>274.7</ele>
        <time>2021-11-07T10:44:55Z</time>
      </trkpt>
      <trkpt lat="38.2247570" lon="-1.4223010">
        <ele>274.6</ele>
        <time>2021-11-07T10:44:56Z</time>
      </trkpt>
      <trkpt lat="38.2247590" lon="-1.4222990">
        <ele>274.6</ele>
        <time>2021-11-07T10:44:57Z</time>
      </trkpt>
      <trkpt lat="38.2247570" lon="-1.4222990">
        <ele>274.6</ele>
        <time>2021-11-07T10:44:58Z</time>
      </trkpt>
      <trkpt lat="38.2247590" lon="-1.4223010">
        <ele>274.5</ele>
        <time>2021-11-07T10:45:00Z</time>
      </trkpt>
      <trkpt lat="38.2247600" lon="-1.4223060">
        <ele>274.4</ele>
        <time>2021-11-07T10:45:02Z</time>
      </trkpt>
      <trkpt lat="38.2247590" lon="-1.4223090">
        <ele>274.4</ele>
        <time>2021-11-07T10:45:04Z</time>
      </trkpt>
      <trkpt lat="38.2247600" lon="-1.4223120">
        <ele>274.4</ele>
        <time>2021-11-07T10:45:05Z</time>
      </trkpt>
      <trkpt lat="38.2247600" lon="-1.4223130">
        <ele>274.3</ele>
        <time>2021-11-07T10:45:06Z</time>
      </trkpt>
      <trkpt lat="38.2247590" lon="-1.4223150">
        <ele>274.3</ele>
        <time>2021-11-07T10:45:07Z</time>
      </trkpt>
      <trkpt lat="38.2247560" lon="-1.4223180">
        <ele>274.2</ele>
        <time>2021-11-07T10:45:09Z</time>
      </trkpt>
      <trkpt lat="38.2247550" lon="-1.4223210">
        <ele>274.2</ele>
        <time>2021-11-07T10:45:10Z</time>
      </trkpt>
      <trkpt lat="38.2247580" lon="-1.4223230">
        <ele>274.1</ele>
        <time>2021-11-07T10:45:12Z</time>
      </trkpt>
      <trkpt lat="38.2247600" lon="-1.4223240">
        <ele>274.1</ele>
        <time>2021-11-07T10:45:13Z</time>
      </trkpt>
      <trkpt lat="38.2247630" lon="-1.4223240">
        <ele>274.0</ele>
        <time>2021-11-07T10:45:14Z</time>
      </trkpt>
      <trkpt lat="38.2247630" lon="-1.4223260">
        <ele>274.0</ele>
        <time>2021-11-07T10:45:15Z</time>
      </trkpt>
      <trkpt lat="38.2247590" lon="-1.4223260">
        <ele>273.9</ele>
        <time>2021-11-07T10:45:17Z</time>
      </trkpt>
      <trkpt lat="38.2247600" lon="-1.4223270">
        <ele>273.9</ele>
        <time>2021-11-07T10:45:18Z</time>
      </trkpt>
      <trkpt lat="38.2247620" lon="-1.4223230">
        <ele>273.8</ele>
        <time>2021-11-07T10:45:20Z</time>
      </trkpt>
      <trkpt lat="38.2247610" lon="-1.4223260">
        <ele>273.8</ele>
        <time>2021-11-07T10:45:21Z</time>
      </trkpt>
      <trkpt lat="38.2247590" lon="-1.4223330">
        <ele>273.7</ele>
        <time>2021-11-07T10:45:23Z</time>
      </trkpt>
      <trkpt lat="38.2247600" lon="-1.4223340">
        <ele>273.7</ele>
        <time>2021-11-07T10:45:24Z</time>
      </trkpt>
      <trkpt lat="38.2247600" lon="-1.4223340">
        <ele>273.7</ele>
        <time>2021-11-07T10:45:26Z</time>
      </trkpt>
      <trkpt lat="38.2247590" lon="-1.4223320">
        <ele>273.6</ele>
        <time>2021-11-07T10:45:27Z</time>
      </trkpt>
      <trkpt lat="38.2247580" lon="-1.4223290">
        <ele>273.6</ele>
        <time>2021-11-07T10:45:29Z</time>
      </trkpt>
      <trkpt lat="38.2247610" lon="-1.4223300">
        <ele>273.5</ele>
        <time>2021-11-07T10:45:30Z</time>
      </trkpt>
      <trkpt lat="38.2247710" lon="-1.4223410">
        <ele>273.3</ele>
        <time>2021-11-07T10:45:32Z</time>
      </trkpt>
      <trkpt lat="38.2247820" lon="-1.4223560">
        <ele>273.0</ele>
        <time>2021-11-07T10:45:34Z</time>
      </trkpt>
      <trkpt lat="38.2247660" lon="-1.4223710">
        <ele>272.6</ele>
        <time>2021-11-07T10:45:35Z</time>
      </trkpt>
      <trkpt lat="38.2247640" lon="-1.4223900">
        <ele>272.4</ele>
        <time>2021-11-07T10:45:36Z</time>
      </trkpt>
      <trkpt lat="38.2247700" lon="-1.4224400">
        <ele>271.6</ele>
        <time>2021-11-07T10:45:38Z</time>
      </trkpt>
      <trkpt lat="38.2247730" lon="-1.4224870">
        <ele>270.9</ele>
        <time>2021-11-07T10:45:40Z</time>
      </trkpt>
      <trkpt lat="38.2247650" lon="-1.4225470">
        <ele>270.0</ele>
        <time>2021-11-07T10:45:41Z</time>
      </trkpt>
      <trkpt lat="38.2247600" lon="-1.4225740">
        <ele>269.6</ele>
        <time>2021-11-07T10:45:42Z</time>
      </trkpt>
      <trkpt lat="38.2247340" lon="-1.4226030">
        <ele>269.0</ele>
        <time>2021-11-07T10:45:43Z</time>
      </trkpt>
      <trkpt lat="38.2247270" lon="-1.4226100">
        <ele>268.9</ele>
        <time>2021-11-07T10:45:44Z</time>
      </trkpt>
      <trkpt lat="38.2246980" lon="-1.4226340">
        <ele>268.3</ele>
        <time>2021-11-07T10:45:46Z</time>
      </trkpt>
      <trkpt lat="38.2246860" lon="-1.4226450">
        <ele>268.1</ele>
        <time>2021-11-07T10:45:47Z</time>
      </trkpt>
      <trkpt lat="38.2246580" lon="-1.4226650">
        <ele>267.6</ele>
        <time>2021-11-07T10:45:49Z</time>
      </trkpt>
      <trkpt lat="38.2246510" lon="-1.4226750">
        <ele>267.5</ele>
        <time>2021-11-07T10:45:50Z</time>
      </trkpt>
      <trkpt lat="38.2246240" lon="-1.4226940">
        <ele>267.1</ele>
        <time>2021-11-07T10:45:52Z</time>
      </trkpt>
      <trkpt lat="38.2245940" lon="-1.4227110">
        <ele>266.7</ele>
        <time>2021-11-07T10:45:53Z</time>
      </trkpt>
      <trkpt lat="38.2245660" lon="-1.4227150">
        <ele>266.4</ele>
        <time>2021-11-07T10:45:54Z</time>
      </trkpt>
      <trkpt lat="38.2245340" lon="-1.4227230">
        <ele>266.1</ele>
        <time>2021-11-07T10:45:56Z</time>
      </trkpt>
      <trkpt lat="38.2245040" lon="-1.4227190">
        <ele>265.7</ele>
        <time>2021-11-07T10:45:57Z</time>
      </trkpt>
      <trkpt lat="38.2244700" lon="-1.4226950">
        <ele>265.3</ele>
        <time>2021-11-07T10:45:58Z</time>
      </trkpt>
      <trkpt lat="38.2244600" lon="-1.4226790">
        <ele>265.2</ele>
        <time>2021-11-07T10:45:59Z</time>
      </trkpt>
      <trkpt lat="38.2244390" lon="-1.4226600">
        <ele>264.9</ele>
        <time>2021-11-07T10:46:01Z</time>
      </trkpt>
      <trkpt lat="38.2244330" lon="-1.4226550">
        <ele>264.8</ele>
        <time>2021-11-07T10:46:02Z</time>
      </trkpt>
      <trkpt lat="38.2244280" lon="-1.4226490">
        <ele>264.7</ele>
        <time>2021-11-07T10:46:03Z</time>
      </trkpt>
      <trkpt lat="38.2244080" lon="-1.4226460">
        <ele>264.5</ele>
        <time>2021-11-07T10:46:05Z</time>
      </trkpt>
      <trkpt lat="38.2243940" lon="-1.4226500">
        <ele>264.4</ele>
        <time>2021-11-07T10:46:06Z</time>
      </trkpt>
      <trkpt lat="38.2243840" lon="-1.4226590">
        <ele>264.2</ele>
        <time>2021-11-07T10:46:07Z</time>
      </trkpt>
      <trkpt lat="38.2243780" lon="-1.4226780">
        <ele>264.0</ele>
        <time>2021-11-07T10:46:08Z</time>
      </trkpt>
      <trkpt lat="38.2243590" lon="-1.4227120">
        <ele>263.7</ele>
        <time>2021-11-07T10:46:10Z</time>
      </trkpt>
      <trkpt lat="38.2243500" lon="-1.4227290">
        <ele>263.5</ele>
        <time>2021-11-07T10:46:11Z</time>
      </trkpt>
      <trkpt lat="38.2243120" lon="-1.4227650">
        <ele>262.9</ele>
        <time>2021-11-07T10:46:13Z</time>
      </trkpt>
      <trkpt lat="38.2242970" lon="-1.4227680">
        <ele>262.7</ele>
        <time>2021-11-07T10:46:14Z</time>
      </trkpt>
      <trkpt lat="38.2242830" lon="-1.4227710">
        <ele>262.6</ele>
        <time>2021-11-07T10:46:15Z</time>
      </trkpt>
      <trkpt lat="38.2242460" lon="-1.4227710">
        <ele>262.1</ele>
        <time>2021-11-07T10:46:16Z</time>
      </trkpt>
      <trkpt lat="38.2242340" lon="-1.4227720">
        <ele>262.0</ele>
        <time>2021-11-07T10:46:17Z</time>
      </trkpt>
      <trkpt lat="38.2241930" lon="-1.4227770">
        <ele>261.4</ele>
        <time>2021-11-07T10:46:19Z</time>
      </trkpt>
      <trkpt lat="38.2241740" lon="-1.4227790">
        <ele>261.2</ele>
        <time>2021-11-07T10:46:20Z</time>
      </trkpt>
      <trkpt lat="38.2241370" lon="-1.4227750">
        <ele>260.7</ele>
        <time>2021-11-07T10:46:22Z</time>
      </trkpt>
      <trkpt lat="38.2240900" lon="-1.4227530">
        <ele>260.1</ele>
        <time>2021-11-07T10:46:23Z</time>
      </trkpt>
      <trkpt lat="38.2240570" lon="-1.4227450">
        <ele>259.6</ele>
        <time>2021-11-07T10:46:24Z</time>
      </trkpt>
      <trkpt lat="38.2240250" lon="-1.4227400">
        <ele>259.2</ele>
        <time>2021-11-07T10:46:25Z</time>
      </trkpt>
      <trkpt lat="38.2239860" lon="-1.4227280">
        <ele>258.7</ele>
        <time>2021-11-07T10:46:27Z</time>
      </trkpt>
      <trkpt lat="38.2239530" lon="-1.4227020">
        <ele>258.1</ele>
        <time>2021-11-07T10:46:28Z</time>
      </trkpt>
      <trkpt lat="38.2239330" lon="-1.4226850">
        <ele>257.7</ele>
        <time>2021-11-07T10:46:29Z</time>
      </trkpt>
      <trkpt lat="38.2239050" lon="-1.4226650">
        <ele>257.3</ele>
        <time>2021-11-07T10:46:31Z</time>
      </trkpt>
      <trkpt lat="38.2238680" lon="-1.4226290">
        <ele>256.6</ele>
        <time>2021-11-07T10:46:32Z</time>
      </trkpt>
      <trkpt lat="38.2238380" lon="-1.4226020">
        <ele>256.1</ele>
        <time>2021-11-07T10:46:34Z</time>
      </trkpt>
      <trkpt lat="38.2238260" lon="-1.4225950">
        <ele>255.9</ele>
        <time>2021-11-07T10:46:35Z</time>
      </trkpt>
      <trkpt lat="38.2237960" lon="-1.4225620">
        <ele>255.4</ele>
        <time>2021-11-07T10:46:36Z</time>
      </trkpt>
      <trkpt lat="38.2237770" lon="-1.4225410">
        <ele>255.0</ele>
        <time>2021-11-07T10:46:38Z</time>
      </trkpt>
      <trkpt lat="38.2237710" lon="-1.4225280">
        <ele>254.9</ele>
        <time>2021-11-07T10:46:39Z</time>
      </trkpt>
      <trkpt lat="38.2237580" lon="-1.4225040">
        <ele>254.6</ele>
        <time>2021-11-07T10:46:40Z</time>
      </trkpt>
      <trkpt lat="38.2237470" lon="-1.4224610">
        <ele>254.3</ele>
        <time>2021-11-07T10:46:42Z</time>
      </trkpt>
      <trkpt lat="38.2237310" lon="-1.4224270">
        <ele>254.0</ele>
        <time>2021-11-07T10:46:43Z</time>
      </trkpt>
      <trkpt lat="38.2237010" lon="-1.4224110">
        <ele>253.7</ele>
        <time>2021-11-07T10:46:44Z</time>
      </trkpt>
      <trkpt lat="38.2236920" lon="-1.4224060">
        <ele>253.6</ele>
        <time>2021-11-07T10:46:45Z</time>
      </trkpt>
      <trkpt lat="38.2236550" lon="-1.4223910">
        <ele>253.3</ele>
        <time>2021-11-07T10:46:47Z</time>
      </trkpt>
      <trkpt lat="38.2236280" lon="-1.4223800">
        <ele>253.1</ele>
        <time>2021-11-07T10:46:48Z</time>
      </trkpt>
      <trkpt lat="38.2235800" lon="-1.4223660">
        <ele>252.8</ele>
        <time>2021-11-07T10:46:49Z</time>
      </trkpt>
      <trkpt lat="38.2235490" lon="-1.4223590">
        <ele>252.7</ele>
        <time>2021-11-07T10:46:51Z</time>
      </trkpt>
      <trkpt lat="38.2235210" lon="-1.4223470">
        <ele>252.6</ele>
        <time>2021-11-07T10:46:52Z</time>
      </trkpt>
      <trkpt lat="38.2234920" lon="-1.4223310">
        <ele>252.4</ele>
        <time>2021-11-07T10:46:53Z</time>
      </trkpt>
      <trkpt lat="38.2234440" lon="-1.4223160">
        <ele>252.3</ele>
        <time>2021-11-07T10:46:54Z</time>
      </trkpt>
      <trkpt lat="38.2234090" lon="-1.4223280">
        <ele>252.2</ele>
        <time>2021-11-07T10:46:56Z</time>
      </trkpt>
      <trkpt lat="38.2233870" lon="-1.4223510">
        <ele>252.2</ele>
        <time>2021-11-07T10:46:57Z</time>
      </trkpt>
      <trkpt lat="38.2233680" lon="-1.4223800">
        <ele>252.2</ele>
        <time>2021-11-07T10:46:58Z</time>
      </trkpt>
      <trkpt lat="38.2233390" lon="-1.4224060">
        <ele>252.2</ele>
        <time>2021-11-07T10:46:59Z</time>
      </trkpt>
      <trkpt lat="38.2233300" lon="-1.4224110">
        <ele>252.2</ele>
        <time>2021-11-07T10:47:00Z</time>
      </trkpt>
      <trkpt lat="38.2232990" lon="-1.4223910">
        <ele>252.2</ele>
        <time>2021-11-07T10:47:02Z</time>
      </trkpt>
      <trkpt lat="38.2232930" lon="-1.4223800">
        <ele>252.2</ele>
        <time>2021-11-07T10:47:03Z</time>
      </trkpt>
      <trkpt lat="38.2232680" lon="-1.4223430">
        <ele>252.2</ele>
        <time>2021-11-07T10:47:04Z</time>
      </trkpt>
      <trkpt lat="38.2232600" lon="-1.4223290">
        <ele>252.2</ele>
        <time>2021-11-07T10:47:05Z</time>
      </trkpt>
      <trkpt lat="38.2232420" lon="-1.4222900">
        <ele>252.2</ele>
        <time>2021-11-07T10:47:06Z</time>
      </trkpt>
      <trkpt lat="38.2232350" lon="-1.4222760">
        <ele>252.2</ele>
        <time>2021-11-07T10:47:07Z</time>
      </trkpt>
      <trkpt lat="38.2232140" lon="-1.4222370">
        <ele>252.2</ele>
        <time>2021-11-07T10:47:09Z</time>
      </trkpt>
      <trkpt lat="38.2232030" lon="-1.4222190">
        <ele>252.3</ele>
        <time>2021-11-07T10:47:10Z</time>
      </trkpt>
      <trkpt lat="38.2231930" lon="-1.4222060">
        <ele>252.3</ele>
        <time>2021-11-07T10:47:11Z</time>
      </trkpt>
      <trkpt lat="38.2231830" lon="-1.4221920">
        <ele>252.3</ele>
        <time>2021-11-07T10:47:12Z</time>
      </trkpt>
      <trkpt lat="38.2231720" lon="-1.4221870">
        <ele>252.3</ele>
        <time>2021-11-07T10:47:14Z</time>
      </trkpt>
      <trkpt lat="38.2231620" lon="-1.4221700">
        <ele>252.4</ele>
        <time>2021-11-07T10:47:16Z</time>
      </trkpt>
      <trkpt lat="38.2231710" lon="-1.4221600">
        <ele>252.4</ele>
        <time>2021-11-07T10:47:17Z</time>
      </trkpt>
      <trkpt lat="38.2231740" lon="-1.4221550">
        <ele>252.4</ele>
        <time>2021-11-07T10:47:18Z</time>
      </trkpt>
      <trkpt lat="38.2231770" lon="-1.4221490">
        <ele>252.4</ele>
        <time>2021-11-07T10:47:21Z</time>
      </trkpt>
      <trkpt lat="38.2231800" lon="-1.4221440">
        <ele>252.4</ele>
        <time>2021-11-07T10:47:22Z</time>
      </trkpt>
      <trkpt lat="38.2231820" lon="-1.4221390">
        <ele>252.4</ele>
        <time>2021-11-07T10:47:23Z</time>
      </trkpt>
      <trkpt lat="38.2231850" lon="-1.4221330">
        <ele>252.5</ele>
        <time>2021-11-07T10:47:24Z</time>
      </trkpt>
      <trkpt lat="38.2231880" lon="-1.4221280">
        <ele>252.5</ele>
        <time>2021-11-07T10:47:25Z</time>
      </trkpt>
      <trkpt lat="38.2231910" lon="-1.4221230">
        <ele>252.5</ele>
        <time>2021-11-07T10:47:27Z</time>
      </trkpt>
      <trkpt lat="38.2231940" lon="-1.4221170">
        <ele>252.5</ele>
        <time>2021-11-07T10:47:28Z</time>
      </trkpt>
      <trkpt lat="38.2231960" lon="-1.4221120">
        <ele>252.5</ele>
        <time>2021-11-07T10:47:29Z</time>
      </trkpt>
      <trkpt lat="38.2231930" lon="-1.4220680">
        <ele>252.6</ele>
        <time>2021-11-07T10:47:30Z</time>
      </trkpt>
      <trkpt lat="38.2231900" lon="-1.4220460">
        <ele>252.6</ele>
        <time>2021-11-07T10:47:31Z</time>
      </trkpt>
      <trkpt lat="38.2231830" lon="-1.4220190">
        <ele>252.6</ele>
        <time>2021-11-07T10:47:33Z</time>
      </trkpt>
      <trkpt lat="38.2231850" lon="-1.4219720">
        <ele>252.7</ele>
        <time>2021-11-07T10:47:34Z</time>
      </trkpt>
      <trkpt lat="38.2231960" lon="-1.4219190">
        <ele>252.8</ele>
        <time>2021-11-07T10:47:35Z</time>
      </trkpt>
      <trkpt lat="38.2232020" lon="-1.4218990">
        <ele>252.8</ele>
        <time>2021-11-07T10:47:36Z</time>
      </trkpt>
      <trkpt lat="38.2232140" lon="-1.4218610">
        <ele>252.9</ele>
        <time>2021-11-07T10:47:38Z</time>
      </trkpt>
      <trkpt lat="38.2232150" lon="-1.4218190">
        <ele>252.9</ele>
        <time>2021-11-07T10:47:39Z</time>
      </trkpt>
      <trkpt lat="38.2232120" lon="-1.4217500">
        <ele>252.9</ele>
        <time>2021-11-07T10:47:40Z</time>
      </trkpt>
      <trkpt lat="38.2232130" lon="-1.4217040">
        <ele>252.9</ele>
        <time>2021-11-07T10:47:42Z</time>
      </trkpt>
      <trkpt lat="38.2232180" lon="-1.4216500">
        <ele>252.9</ele>
        <time>2021-11-07T10:47:43Z</time>
      </trkpt>
      <trkpt lat="38.2232200" lon="-1.4215970">
        <ele>252.8</ele>
        <time>2021-11-07T10:47:45Z</time>
      </trkpt>
      <trkpt lat="38.2232290" lon="-1.4215390">
        <ele>252.8</ele>
        <time>2021-11-07T10:47:46Z</time>
      </trkpt>
      <trkpt lat="38.2232400" lon="-1.4214970">
        <ele>252.7</ele>
        <time>2021-11-07T10:47:47Z</time>
      </trkpt>
      <trkpt lat="38.2232500" lon="-1.4214590">
        <ele>252.7</ele>
        <time>2021-11-07T10:47:48Z</time>
      </trkpt>
      <trkpt lat="38.2232670" lon="-1.4214120">
        <ele>252.6</ele>
        <time>2021-11-07T10:47:49Z</time>
      </trkpt>
      <trkpt lat="38.2232920" lon="-1.4213680">
        <ele>252.6</ele>
        <time>2021-11-07T10:47:51Z</time>
      </trkpt>
      <trkpt lat="38.2233190" lon="-1.4213240">
        <ele>252.5</ele>
        <time>2021-11-07T10:47:52Z</time>
      </trkpt>
      <trkpt lat="38.2233400" lon="-1.4212910">
        <ele>252.5</ele>
        <time>2021-11-07T10:47:54Z</time>
      </trkpt>
      <trkpt lat="38.2233560" lon="-1.4212600">
        <ele>252.4</ele>
        <time>2021-11-07T10:47:55Z</time>
      </trkpt>
      <trkpt lat="38.2233740" lon="-1.4212250">
        <ele>252.3</ele>
        <time>2021-11-07T10:47:56Z</time>
      </trkpt>
      <trkpt lat="38.2233950" lon="-1.4212030">
        <ele>252.3</ele>
        <time>2021-11-07T10:47:57Z</time>
      </trkpt>
      <trkpt lat="38.2234220" lon="-1.4211720">
        <ele>252.2</ele>
        <time>2021-11-07T10:47:58Z</time>
      </trkpt>
      <trkpt lat="38.2234360" lon="-1.4211350">
        <ele>252.1</ele>
        <time>2021-11-07T10:47:59Z</time>
      </trkpt>
      <trkpt lat="38.2234510" lon="-1.4211010">
        <ele>252.1</ele>
        <time>2021-11-07T10:48:01Z</time>
      </trkpt>
      <trkpt lat="38.2234630" lon="-1.4210680">
        <ele>252.0</ele>
        <time>2021-11-07T10:48:02Z</time>
      </trkpt>
      <trkpt lat="38.2234790" lon="-1.4210260">
        <ele>251.9</ele>
        <time>2021-11-07T10:48:03Z</time>
      </trkpt>
      <trkpt lat="38.2234970" lon="-1.4209930">
        <ele>251.8</ele>
        <time>2021-11-07T10:48:05Z</time>
      </trkpt>
      <trkpt lat="38.2235120" lon="-1.4209630">
        <ele>251.7</ele>
        <time>2021-11-07T10:48:06Z</time>
      </trkpt>
      <trkpt lat="38.2235400" lon="-1.4209360">
        <ele>251.5</ele>
        <time>2021-11-07T10:48:07Z</time>
      </trkpt>
      <trkpt lat="38.2235580" lon="-1.4209190">
        <ele>251.4</ele>
        <time>2021-11-07T10:48:08Z</time>
      </trkpt>
      <trkpt lat="38.2235850" lon="-1.4208930">
        <ele>251.2</ele>
        <time>2021-11-07T10:48:10Z</time>
      </trkpt>
      <trkpt lat="38.2236150" lon="-1.4208650">
        <ele>251.0</ele>
        <time>2021-11-07T10:48:11Z</time>
      </trkpt>
      <trkpt lat="38.2236500" lon="-1.4208400">
        <ele>250.8</ele>
        <time>2021-11-07T10:48:12Z</time>
      </trkpt>
      <trkpt lat="38.2236760" lon="-1.4208220">
        <ele>250.6</ele>
        <time>2021-11-07T10:48:14Z</time>
      </trkpt>
      <trkpt lat="38.2237050" lon="-1.4208090">
        <ele>250.3</ele>
        <time>2021-11-07T10:48:15Z</time>
      </trkpt>
      <trkpt lat="38.2237360" lon="-1.4207920">
        <ele>250.1</ele>
        <time>2021-11-07T10:48:16Z</time>
      </trkpt>
      <trkpt lat="38.2237620" lon="-1.4207750">
        <ele>249.7</ele>
        <time>2021-11-07T10:48:17Z</time>
      </trkpt>
      <trkpt lat="38.2238020" lon="-1.4207690">
        <ele>249.4</ele>
        <time>2021-11-07T10:48:19Z</time>
      </trkpt>
      <trkpt lat="38.2238360" lon="-1.4207870">
        <ele>248.9</ele>
        <time>2021-11-07T10:48:20Z</time>
      </trkpt>
      <trkpt lat="38.2238480" lon="-1.4207970">
        <ele>248.7</ele>
        <time>2021-11-07T10:48:21Z</time>
      </trkpt>
      <trkpt lat="38.2238790" lon="-1.4208220">
        <ele>248.1</ele>
        <time>2021-11-07T10:48:22Z</time>
      </trkpt>
      <trkpt lat="38.2238890" lon="-1.4208320">
        <ele>247.9</ele>
        <time>2021-11-07T10:48:23Z</time>
      </trkpt>
      <trkpt lat="38.2239160" lon="-1.4208480">
        <ele>247.4</ele>
        <time>2021-11-07T10:48:25Z</time>
      </trkpt>
      <trkpt lat="38.2239230" lon="-1.4208490">
        <ele>247.3</ele>
        <time>2021-11-07T10:48:26Z</time>
      </trkpt>
      <trkpt lat="38.2239250" lon="-1.4208490">
        <ele>247.3</ele>
        <time>2021-11-07T10:48:28Z</time>
      </trkpt>
      <trkpt lat="38.2239250" lon="-1.4208390">
        <ele>247.1</ele>
        <time>2021-11-07T10:48:29Z</time>
      </trkpt>
      <trkpt lat="38.2239140" lon="-1.4208300">
        <ele>246.9</ele>
        <time>2021-11-07T10:48:31Z</time>
      </trkpt>
      <trkpt lat="38.2239050" lon="-1.4208150">
        <ele>246.6</ele>
        <time>2021-11-07T10:48:32Z</time>
      </trkpt>
      <trkpt lat="38.2239110" lon="-1.4208030">
        <ele>246.4</ele>
        <time>2021-11-07T10:48:34Z</time>
      </trkpt>
      <trkpt lat="38.2239310" lon="-1.4207940">
        <ele>245.9</ele>
        <time>2021-11-07T10:48:35Z</time>
      </trkpt>
      <trkpt lat="38.2239410" lon="-1.4207880">
        <ele>245.7</ele>
        <time>2021-11-07T10:48:36Z</time>
      </trkpt>
      <trkpt lat="38.2239550" lon="-1.4207710">
        <ele>245.3</ele>
        <time>2021-11-07T10:48:37Z</time>
      </trkpt>
      <trkpt lat="38.2239660" lon="-1.4207530">
        <ele>244.9</ele>
        <time>2021-11-07T10:48:38Z</time>
      </trkpt>
      <trkpt lat="38.2239720" lon="-1.4207140">
        <ele>244.3</ele>
        <time>2021-11-07T10:48:40Z</time>
      </trkpt>
      <trkpt lat="38.2239780" lon="-1.4206800">
        <ele>243.7</ele>
        <time>2021-11-07T10:48:41Z</time>
      </trkpt>
      <trkpt lat="38.2239810" lon="-1.4206680">
        <ele>243.5</ele>
        <time>2021-11-07T10:48:42Z</time>
      </trkpt>
      <trkpt lat="38.2239840" lon="-1.4206310">
        <ele>242.8</ele>
        <time>2021-11-07T10:48:44Z</time>
      </trkpt>
      <trkpt lat="38.2239820" lon="-1.4206170">
        <ele>242.6</ele>
        <time>2021-11-07T10:48:45Z</time>
      </trkpt>
      <trkpt lat="38.2239770" lon="-1.4205950">
        <ele>242.2</ele>
        <time>2021-11-07T10:48:46Z</time>
      </trkpt>
      <trkpt lat="38.2239850" lon="-1.4205650">
        <ele>241.7</ele>
        <time>2021-11-07T10:48:48Z</time>
      </trkpt>
      <trkpt lat="38.2239960" lon="-1.4205260">
        <ele>240.9</ele>
        <time>2021-11-07T10:48:49Z</time>
      </trkpt>
      <trkpt lat="38.2240220" lon="-1.4204880">
        <ele>240.1</ele>
        <time>2021-11-07T10:48:51Z</time>
      </trkpt>
      <trkpt lat="38.2240510" lon="-1.4204990">
        <ele>239.4</ele>
        <time>2021-11-07T10:48:53Z</time>
      </trkpt>
      <trkpt lat="38.2240630" lon="-1.4205160">
        <ele>239.0</ele>
        <time>2021-11-07T10:48:54Z</time>
      </trkpt>
      <trkpt lat="38.2240710" lon="-1.4205270">
        <ele>238.7</ele>
        <time>2021-11-07T10:48:56Z</time>
      </trkpt>
      <trkpt lat="38.2240870" lon="-1.4205290">
        <ele>238.4</ele>
        <time>2021-11-07T10:48:58Z</time>
      </trkpt>
      <trkpt lat="38.2240950" lon="-1.4205410">
        <ele>238.0</ele>
        <time>2021-11-07T10:48:59Z</time>
      </trkpt>
      <trkpt lat="38.2241010" lon="-1.4205490">
        <ele>237.8</ele>
        <time>2021-11-07T10:49:00Z</time>
      </trkpt>
      <trkpt lat="38.2241160" lon="-1.4205600">
        <ele>237.4</ele>
        <time>2021-11-07T10:49:01Z</time>
      </trkpt>
      <trkpt lat="38.2241320" lon="-1.4205740">
        <ele>236.9</ele>
        <time>2021-11-07T10:49:03Z</time>
      </trkpt>
      <trkpt lat="38.2241460" lon="-1.4205870">
        <ele>236.5</ele>
        <time>2021-11-07T10:49:04Z</time>
      </trkpt>
      <trkpt lat="38.2241620" lon="-1.4205940">
        <ele>236.1</ele>
        <time>2021-11-07T10:49:05Z</time>
      </trkpt>
      <trkpt lat="38.2241790" lon="-1.4205890">
        <ele>235.7</ele>
        <time>2021-11-07T10:49:06Z</time>
      </trkpt>
      <trkpt lat="38.2241870" lon="-1.4205720">
        <ele>235.3</ele>
        <time>2021-11-07T10:49:07Z</time>
      </trkpt>
      <trkpt lat="38.2242010" lon="-1.4205640">
        <ele>234.8</ele>
        <time>2021-11-07T10:49:09Z</time>
      </trkpt>
      <trkpt lat="38.2242150" lon="-1.4205630">
        <ele>234.4</ele>
        <time>2021-11-07T10:49:10Z</time>
      </trkpt>
      <trkpt lat="38.2242320" lon="-1.4205590">
        <ele>234.0</ele>
        <time>2021-11-07T10:49:11Z</time>
      </trkpt>
      <trkpt lat="38.2242490" lon="-1.4205510">
        <ele>233.5</ele>
        <time>2021-11-07T10:49:12Z</time>
      </trkpt>
      <trkpt lat="38.2242630" lon="-1.4205380">
        <ele>233.0</ele>
        <time>2021-11-07T10:49:13Z</time>
      </trkpt>
      <trkpt lat="38.2242760" lon="-1.4205360">
        <ele>232.6</ele>
        <time>2021-11-07T10:49:15Z</time>
      </trkpt>
      <trkpt lat="38.2242750" lon="-1.4205510">
        <ele>232.3</ele>
        <time>2021-11-07T10:49:16Z</time>
      </trkpt>
      <trkpt lat="38.2242780" lon="-1.4205620">
        <ele>232.1</ele>
        <time>2021-11-07T10:49:17Z</time>
      </trkpt>
      <trkpt lat="38.2242800" lon="-1.4205830">
        <ele>231.6</ele>
        <time>2021-11-07T10:49:19Z</time>
      </trkpt>
      <trkpt lat="38.2242860" lon="-1.4206030">
        <ele>231.1</ele>
        <time>2021-11-07T10:49:20Z</time>
      </trkpt>
      <trkpt lat="38.2242950" lon="-1.4206230">
        <ele>230.6</ele>
        <time>2021-11-07T10:49:21Z</time>
      </trkpt>
      <trkpt lat="38.2243090" lon="-1.4206530">
        <ele>229.9</ele>
        <time>2021-11-07T10:49:22Z</time>
      </trkpt>
      <trkpt lat="38.2243140" lon="-1.4206650">
        <ele>229.6</ele>
        <time>2021-11-07T10:49:23Z</time>
      </trkpt>
      <trkpt lat="38.2243340" lon="-1.4207000">
        <ele>228.7</ele>
        <time>2021-11-07T10:49:24Z</time>
      </trkpt>
      <trkpt lat="38.2243410" lon="-1.4207130">
        <ele>228.4</ele>
        <time>2021-11-07T10:49:25Z</time>
      </trkpt>
      <trkpt lat="38.2243580" lon="-1.4207350">
        <ele>227.8</ele>
        <time>2021-11-07T10:49:26Z</time>
      </trkpt>
      <trkpt lat="38.2243740" lon="-1.4207490">
        <ele>227.3</ele>
        <time>2021-11-07T10:49:28Z</time>
      </trkpt>
      <trkpt lat="38.2243870" lon="-1.4207590">
        <ele>227.0</ele>
        <time>2021-11-07T10:49:29Z</time>
      </trkpt>
      <trkpt lat="38.2244000" lon="-1.4207360">
        <ele>226.4</ele>
        <time>2021-11-07T10:49:31Z</time>
      </trkpt>
      <trkpt lat="38.2244090" lon="-1.4207440">
        <ele>226.2</ele>
        <time>2021-11-07T10:49:33Z</time>
      </trkpt>
      <trkpt lat="38.2244080" lon="-1.4207440">
        <ele>226.2</ele>
        <time>2021-11-07T10:49:35Z</time>
      </trkpt>
      <trkpt lat="38.2244010" lon="-1.4207470">
        <ele>226.0</ele>
        <time>2021-11-07T10:49:36Z</time>
      </trkpt>
      <trkpt lat="38.2243940" lon="-1.4207510">
        <ele>225.8</ele>
        <time>2021-11-07T10:49:38Z</time>
      </trkpt>
      <trkpt lat="38.2243900" lon="-1.4207960">
        <ele>225.1</ele>
        <time>2021-11-07T10:49:40Z</time>
      </trkpt>
      <trkpt lat="38.2243880" lon="-1.4207890">
        <ele>224.7</ele>
        <time>2021-11-07T10:49:42Z</time>
      </trkpt>
      <trkpt lat="38.2243850" lon="-1.4207740">
        <ele>224.8</ele>
        <time>2021-11-07T10:49:44Z</time>
      </trkpt>
      <trkpt lat="38.2243790" lon="-1.4207740">
        <ele>224.9</ele>
        <time>2021-11-07T10:49:46Z</time>
      </trkpt>
      <trkpt lat="38.2243740" lon="-1.4207800">
        <ele>224.9</ele>
        <time>2021-11-07T10:49:48Z</time>
      </trkpt>
      <trkpt lat="38.2243750" lon="-1.4207900">
        <ele>225.0</ele>
        <time>2021-11-07T10:49:50Z</time>
      </trkpt>
      <trkpt lat="38.2243740" lon="-1.4207920">
        <ele>225.0</ele>
        <time>2021-11-07T10:49:51Z</time>
      </trkpt>
      <trkpt lat="38.2243730" lon="-1.4207930">
        <ele>225.1</ele>
        <time>2021-11-07T10:49:52Z</time>
      </trkpt>
      <trkpt lat="38.2243670" lon="-1.4207930">
        <ele>225.1</ele>
        <time>2021-11-07T10:49:54Z</time>
      </trkpt>
      <trkpt lat="38.2243660" lon="-1.4207890">
        <ele>225.2</ele>
        <time>2021-11-07T10:49:55Z</time>
      </trkpt>
      <trkpt lat="38.2243640" lon="-1.4207930">
        <ele>225.2</ele>
        <time>2021-11-07T10:49:57Z</time>
      </trkpt>
      <trkpt lat="38.2243630" lon="-1.4208290">
        <ele>225.5</ele>
        <time>2021-11-07T10:49:59Z</time>
      </trkpt>
      <trkpt lat="38.2243820" lon="-1.4208970">
        <ele>226.2</ele>
        <time>2021-11-07T10:50:00Z</time>
      </trkpt>
      <trkpt lat="38.2243830" lon="-1.4209170">
        <ele>226.3</ele>
        <time>2021-11-07T10:50:01Z</time>
      </trkpt>
      <trkpt lat="38.2243700" lon="-1.4209660">
        <ele>226.8</ele>
        <time>2021-11-07T10:50:03Z</time>
      </trkpt>
      <trkpt lat="38.2243660" lon="-1.4210090">
        <ele>227.2</ele>
        <time>2021-11-07T10:50:04Z</time>
      </trkpt>
      <trkpt lat="38.2243670" lon="-1.4210210">
        <ele>227.3</ele>
        <time>2021-11-07T10:50:05Z</time>
      </trkpt>
      <trkpt lat="38.2243600" lon="-1.4210680">
        <ele>227.8</ele>
        <time>2021-11-07T10:50:07Z</time>
      </trkpt>
      <trkpt lat="38.2243540" lon="-1.4211090">
        <ele>228.1</ele>
        <time>2021-11-07T10:50:08Z</time>
      </trkpt>
      <trkpt lat="38.2243530" lon="-1.4211240">
        <ele>228.3</ele>
        <time>2021-11-07T10:50:09Z</time>
      </trkpt>
      <trkpt lat="38.2243570" lon="-1.4211660">
        <ele>228.7</ele>
        <time>2021-11-07T10:50:10Z</time>
      </trkpt>
      <trkpt lat="38.2243680" lon="-1.4212000">
        <ele>229.0</ele>
        <time>2021-11-07T10:50:11Z</time>
      </trkpt>
      <trkpt lat="38.2243800" lon="-1.4212410">
        <ele>229.4</ele>
        <time>2021-11-07T10:50:12Z</time>
      </trkpt>
      <trkpt lat="38.2243840" lon="-1.4212500">
        <ele>229.5</ele>
        <time>2021-11-07T10:50:13Z</time>
      </trkpt>
      <trkpt lat="38.2244020" lon="-1.4212590">
        <ele>229.7</ele>
        <time>2021-11-07T10:50:14Z</time>
      </trkpt>
      <trkpt lat="38.2244330" lon="-1.4212770">
        <ele>230.1</ele>
        <time>2021-11-07T10:50:16Z</time>
      </trkpt>
      <trkpt lat="38.2244590" lon="-1.4213100">
        <ele>230.5</ele>
        <time>2021-11-07T10:50:18Z</time>
      </trkpt>
      <trkpt lat="38.2244660" lon="-1.4213210">
        <ele>230.5</ele>
        <time>2021-11-07T10:50:19Z</time>
      </trkpt>
      <trkpt lat="38.2244870" lon="-1.4213330">
        <ele>230.7</ele>
        <time>2021-11-07T10:50:21Z</time>
      </trkpt>
      <trkpt lat="38.2245070" lon="-1.4213480">
        <ele>230.8</ele>
        <time>2021-11-07T10:50:22Z</time>
      </trkpt>
      <trkpt lat="38.2245490" lon="-1.4213920">
        <ele>230.9</ele>
        <time>2021-11-07T10:50:24Z</time>
      </trkpt>
      <trkpt lat="38.2245810" lon="-1.4214640">
        <ele>230.9</ele>
        <time>2021-11-07T10:50:26Z</time>
      </trkpt>
      <trkpt lat="38.2246300" lon="-1.4215040">
        <ele>230.8</ele>
        <time>2021-11-07T10:50:27Z</time>
      </trkpt>
      <trkpt lat="38.2246780" lon="-1.4215200">
        <ele>230.8</ele>
        <time>2021-11-07T10:50:28Z</time>
      </trkpt>
      <trkpt lat="38.2247130" lon="-1.4215230">
        <ele>230.8</ele>
        <time>2021-11-07T10:50:29Z</time>
      </trkpt>
      <trkpt lat="38.2247490" lon="-1.4215250">
        <ele>231.0</ele>
        <time>2021-11-07T10:50:31Z</time>
      </trkpt>
      <trkpt lat="38.2247900" lon="-1.4215180">
        <ele>231.3</ele>
        <time>2021-11-07T10:50:33Z</time>
      </trkpt>
      <trkpt lat="38.2248090" lon="-1.4215140">
        <ele>231.5</ele>
        <time>2021-11-07T10:50:34Z</time>
      </trkpt>
      <trkpt lat="38.2248230" lon="-1.4215070">
        <ele>231.7</ele>
        <time>2021-11-07T10:50:35Z</time>
      </trkpt>
      <trkpt lat="38.2248500" lon="-1.4215080">
        <ele>232.0</ele>
        <time>2021-11-07T10:50:37Z</time>
      </trkpt>
      <trkpt lat="38.2248790" lon="-1.4215330">
        <ele>232.4</ele>
        <time>2021-11-07T10:50:39Z</time>
      </trkpt>
      <trkpt lat="38.2249000" lon="-1.4215440">
        <ele>232.7</ele>
        <time>2021-11-07T10:50:41Z</time>
      </trkpt>
      <trkpt lat="38.2249210" lon="-1.4215400">
        <ele>233.0</ele>
        <time>2021-11-07T10:50:43Z</time>
      </trkpt>
      <trkpt lat="38.2249310" lon="-1.4215360">
        <ele>233.1</ele>
        <time>2021-11-07T10:50:44Z</time>
      </trkpt>
      <trkpt lat="38.2249590" lon="-1.4215350">
        <ele>233.5</ele>
        <time>2021-11-07T10:50:46Z</time>
      </trkpt>
      <trkpt lat="38.2249650" lon="-1.4215410">
        <ele>233.6</ele>
        <time>2021-11-07T10:50:47Z</time>
      </trkpt>
      <trkpt lat="38.2249800" lon="-1.4215620">
        <ele>233.8</ele>
        <time>2021-11-07T10:50:49Z</time>
      </trkpt>
      <trkpt lat="38.2249970" lon="-1.4215790">
        <ele>234.1</ele>
        <time>2021-11-07T10:50:50Z</time>
      </trkpt>
      <trkpt lat="38.2250120" lon="-1.4215920">
        <ele>234.4</ele>
        <time>2021-11-07T10:50:52Z</time>
      </trkpt>
      <trkpt lat="38.2250250" lon="-1.4216050">
        <ele>234.6</ele>
        <time>2021-11-07T10:50:53Z</time>
      </trkpt>
      <trkpt lat="38.2250470" lon="-1.4216160">
        <ele>234.9</ele>
        <time>2021-11-07T10:50:55Z</time>
      </trkpt>
      <trkpt lat="38.2250740" lon="-1.4216170">
        <ele>235.3</ele>
        <time>2021-11-07T10:50:56Z</time>
      </trkpt>
      <trkpt lat="38.2250880" lon="-1.4216140">
        <ele>235.5</ele>
        <time>2021-11-07T10:50:57Z</time>
      </trkpt>
      <trkpt lat="38.2251200" lon="-1.4215700">
        <ele>236.3</ele>
        <time>2021-11-07T10:50:59Z</time>
      </trkpt>
      <trkpt lat="38.2251310" lon="-1.4215500">
        <ele>236.6</ele>
        <time>2021-11-07T10:51:00Z</time>
      </trkpt>
      <trkpt lat="38.2251410" lon="-1.4215310">
        <ele>236.9</ele>
        <time>2021-11-07T10:51:01Z</time>
      </trkpt>
      <trkpt lat="38.2251420" lon="-1.4215150">
        <ele>237.1</ele>
        <time>2021-11-07T10:51:03Z</time>
      </trkpt>
      <trkpt lat="38.2251520" lon="-1.4214920">
        <ele>237.4</ele>
        <time>2021-11-07T10:51:04Z</time>
      </trkpt>
      <trkpt lat="38.2251670" lon="-1.4214730">
        <ele>237.8</ele>
        <time>2021-11-07T10:51:06Z</time>
      </trkpt>
      <trkpt lat="38.2251800" lon="-1.4214660">
        <ele>238.0</ele>
        <time>2021-11-07T10:51:07Z</time>
      </trkpt>
      <trkpt lat="38.2251950" lon="-1.4214700">
        <ele>238.3</ele>
        <time>2021-11-07T10:51:08Z</time>
      </trkpt>
      <trkpt lat="38.2252130" lon="-1.4214720">
        <ele>238.5</ele>
        <time>2021-11-07T10:51:09Z</time>
      </trkpt>
      <trkpt lat="38.2252400" lon="-1.4214840">
        <ele>239.0</ele>
        <time>2021-11-07T10:51:11Z</time>
      </trkpt>
      <trkpt lat="38.2252500" lon="-1.4214880">
        <ele>239.1</ele>
        <time>2021-11-07T10:51:12Z</time>
      </trkpt>
      <trkpt lat="38.2252770" lon="-1.4215120">
        <ele>239.6</ele>
        <time>2021-11-07T10:51:14Z</time>
      </trkpt>
      <trkpt lat="38.2252870" lon="-1.4215200">
        <ele>239.7</ele>
        <time>2021-11-07T10:51:15Z</time>
      </trkpt>
      <trkpt lat="38.2253130" lon="-1.4215370">
        <ele>240.1</ele>
        <time>2021-11-07T10:51:17Z</time>
      </trkpt>
      <trkpt lat="38.2253220" lon="-1.4215460">
        <ele>240.3</ele>
        <time>2021-11-07T10:51:18Z</time>
      </trkpt>
      <trkpt lat="38.2253480" lon="-1.4215460">
        <ele>240.6</ele>
        <time>2021-11-07T10:51:19Z</time>
      </trkpt>
      <trkpt lat="38.2253590" lon="-1.4215430">
        <ele>240.7</ele>
        <time>2021-11-07T10:51:20Z</time>
      </trkpt>
      <trkpt lat="38.2253730" lon="-1.4215420">
        <ele>240.9</ele>
        <time>2021-11-07T10:51:21Z</time>
      </trkpt>
      <trkpt lat="38.2253990" lon="-1.4215400">
        <ele>241.2</ele>
        <time>2021-11-07T10:51:23Z</time>
      </trkpt>
      <trkpt lat="38.2254150" lon="-1.4215400">
        <ele>241.3</ele>
        <time>2021-11-07T10:51:25Z</time>
      </trkpt>
      <trkpt lat="38.2254300" lon="-1.4215410">
        <ele>241.5</ele>
        <time>2021-11-07T10:51:26Z</time>
      </trkpt>
      <trkpt lat="38.2254540" lon="-1.4215420">
        <ele>241.7</ele>
        <time>2021-11-07T10:51:27Z</time>
      </trkpt>
      <trkpt lat="38.2254720" lon="-1.4215420">
        <ele>241.9</ele>
        <time>2021-11-07T10:51:29Z</time>
      </trkpt>
      <trkpt lat="38.2254860" lon="-1.4215410">
        <ele>242.0</ele>
        <time>2021-11-07T10:51:30Z</time>
      </trkpt>
      <trkpt lat="38.2255020" lon="-1.4215400">
        <ele>242.2</ele>
        <time>2021-11-07T10:51:31Z</time>
      </trkpt>
      <trkpt lat="38.2255310" lon="-1.4215420">
        <ele>242.5</ele>
        <time>2021-11-07T10:51:33Z</time>
      </trkpt>
      <trkpt lat="38.2255610" lon="-1.4215440">
        <ele>242.8</ele>
        <time>2021-11-07T10:51:34Z</time>
      </trkpt>
      <trkpt lat="38.2255780" lon="-1.4215440">
        <ele>242.9</ele>
        <time>2021-11-07T10:51:35Z</time>
      </trkpt>
      <trkpt lat="38.2255960" lon="-1.4215410">
        <ele>243.1</ele>
        <time>2021-11-07T10:51:37Z</time>
      </trkpt>
      <trkpt lat="38.2256110" lon="-1.4215360">
        <ele>243.3</ele>
        <time>2021-11-07T10:51:38Z</time>
      </trkpt>
      <trkpt lat="38.2256250" lon="-1.4215380">
        <ele>243.4</ele>
        <time>2021-11-07T10:51:39Z</time>
      </trkpt>
      <trkpt lat="38.2256520" lon="-1.4215440">
        <ele>243.7</ele>
        <time>2021-11-07T10:51:40Z</time>
      </trkpt>
      <trkpt lat="38.2256760" lon="-1.4215450">
        <ele>244.0</ele>
        <time>2021-11-07T10:51:42Z</time>
      </trkpt>
      <trkpt lat="38.2257000" lon="-1.4215440">
        <ele>244.3</ele>
        <time>2021-11-07T10:51:43Z</time>
      </trkpt>
      <trkpt lat="38.2257200" lon="-1.4215310">
        <ele>244.5</ele>
        <time>2021-11-07T10:51:45Z</time>
      </trkpt>
      <trkpt lat="38.2257400" lon="-1.4215210">
        <ele>244.8</ele>
        <time>2021-11-07T10:51:46Z</time>
      </trkpt>
      <trkpt lat="38.2257630" lon="-1.4215100">
        <ele>245.1</ele>
        <time>2021-11-07T10:51:48Z</time>
      </trkpt>
      <trkpt lat="38.2257890" lon="-1.4215070">
        <ele>245.4</ele>
        <time>2021-11-07T10:51:49Z</time>
      </trkpt>
      <trkpt lat="38.2258010" lon="-1.4215090">
        <ele>245.5</ele>
        <time>2021-11-07T10:51:50Z</time>
      </trkpt>
      <trkpt lat="38.2258380" lon="-1.4215130">
        <ele>245.9</ele>
        <time>2021-11-07T10:51:52Z</time>
      </trkpt>
      <trkpt lat="38.2258520" lon="-1.4215150">
        <ele>246.1</ele>
        <time>2021-11-07T10:51:53Z</time>
      </trkpt>
      <trkpt lat="38.2258910" lon="-1.4215160">
        <ele>246.6</ele>
        <time>2021-11-07T10:51:54Z</time>
      </trkpt>
      <trkpt lat="38.2259040" lon="-1.4215140">
        <ele>246.8</ele>
        <time>2021-11-07T10:51:55Z</time>
      </trkpt>
      <trkpt lat="38.2259320" lon="-1.4215060">
        <ele>247.1</ele>
        <time>2021-11-07T10:51:56Z</time>
      </trkpt>
      <trkpt lat="38.2259780" lon="-1.4215110">
        <ele>247.7</ele>
        <time>2021-11-07T10:51:58Z</time>
      </trkpt>
      <trkpt lat="38.2259940" lon="-1.4215170">
        <ele>248.0</ele>
        <time>2021-11-07T10:51:59Z</time>
      </trkpt>
      <trkpt lat="38.2260090" lon="-1.4215230">
        <ele>248.2</ele>
        <time>2021-11-07T10:52:00Z</time>
      </trkpt>
      <trkpt lat="38.2260390" lon="-1.4215390">
        <ele>248.6</ele>
        <time>2021-11-07T10:52:02Z</time>
      </trkpt>
      <trkpt lat="38.2260550" lon="-1.4215530">
        <ele>247.6</ele>
        <time>2021-11-07T10:52:03Z</time>
      </trkpt>
      <trkpt lat="38.2260760" lon="-1.4215670">
        <ele>247.4</ele>
        <time>2021-11-07T10:52:05Z</time>
      </trkpt>
      <trkpt lat="38.2260840" lon="-1.4215610">
        <ele>246.2</ele>
        <time>2021-11-07T10:52:07Z</time>
      </trkpt>
      <trkpt lat="38.2260860" lon="-1.4215540">
        <ele>246.1</ele>
        <time>2021-11-07T10:52:08Z</time>
      </trkpt>
      <trkpt lat="38.2260880" lon="-1.4215520">
        <ele>245.9</ele>
        <time>2021-11-07T10:52:09Z</time>
      </trkpt>
      <trkpt lat="38.2260920" lon="-1.4215600">
        <ele>245.7</ele>
        <time>2021-11-07T10:52:11Z</time>
      </trkpt>
      <trkpt lat="38.2261040" lon="-1.4215790">
        <ele>247.4</ele>
        <time>2021-11-07T10:52:12Z</time>
      </trkpt>
      <trkpt lat="38.2261140" lon="-1.4215980">
        <ele>246.1</ele>
        <time>2021-11-07T10:52:14Z</time>
      </trkpt>
      <trkpt lat="38.2261020" lon="-1.4216180">
        <ele>248.9</ele>
        <time>2021-11-07T10:52:16Z</time>
      </trkpt>
      <trkpt lat="38.2260830" lon="-1.4216240">
        <ele>248.8</ele>
        <time>2021-11-07T10:52:17Z</time>
      </trkpt>
      <trkpt lat="38.2260650" lon="-1.4216190">
        <ele>249.7</ele>
        <time>2021-11-07T10:52:19Z</time>
      </trkpt>
      <trkpt lat="38.2260520" lon="-1.4216150">
        <ele>249.5</ele>
        <time>2021-11-07T10:52:20Z</time>
      </trkpt>
      <trkpt lat="38.2260210" lon="-1.4216050">
        <ele>248.4</ele>
        <time>2021-11-07T10:52:22Z</time>
      </trkpt>
      <trkpt lat="38.2259890" lon="-1.4215960">
        <ele>249.1</ele>
        <time>2021-11-07T10:52:24Z</time>
      </trkpt>
      <trkpt lat="38.2259560" lon="-1.4215770">
        <ele>249.7</ele>
        <time>2021-11-07T10:52:25Z</time>
      </trkpt>
      <trkpt lat="38.2259210" lon="-1.4215570">
        <ele>248.3</ele>
        <time>2021-11-07T10:52:27Z</time>
      </trkpt>
      <trkpt lat="38.2259140" lon="-1.4215470">
        <ele>248.2</ele>
        <time>2021-11-07T10:52:29Z</time>
      </trkpt>
      <trkpt lat="38.2259150" lon="-1.4215440">
        <ele>248.0</ele>
        <time>2021-11-07T10:52:30Z</time>
      </trkpt>
      <trkpt lat="38.2259200" lon="-1.4215430">
        <ele>247.8</ele>
        <time>2021-11-07T10:52:32Z</time>
      </trkpt>
      <trkpt lat="38.2258970" lon="-1.4215730">
        <ele>250.2</ele>
        <time>2021-11-07T10:52:34Z</time>
      </trkpt>
      <trkpt lat="38.2258690" lon="-1.4216000">
        <ele>250.6</ele>
        <time>2021-11-07T10:52:36Z</time>
      </trkpt>
      <trkpt lat="38.2258590" lon="-1.4216120">
        <ele>250.5</ele>
        <time>2021-11-07T10:52:37Z</time>
      </trkpt>
      <trkpt lat="38.2258400" lon="-1.4216360">
        <ele>252.7</ele>
        <time>2021-11-07T10:52:39Z</time>
      </trkpt>
      <trkpt lat="38.2258260" lon="-1.4216560">
        <ele>252.6</ele>
        <time>2021-11-07T10:52:41Z</time>
      </trkpt>
      <trkpt lat="38.2258170" lon="-1.4216640">
        <ele>254.4</ele>
        <time>2021-11-07T10:52:42Z</time>
      </trkpt>
      <trkpt lat="38.2258080" lon="-1.4216710">
        <ele>254.6</ele>
        <time>2021-11-07T10:52:43Z</time>
      </trkpt>
      <trkpt lat="38.2257930" lon="-1.4216890">
        <ele>254.4</ele>
        <time>2021-11-07T10:52:45Z</time>
      </trkpt>
      <trkpt lat="38.2257900" lon="-1.4217140">
        <ele>256.2</ele>
        <time>2021-11-07T10:52:46Z</time>
      </trkpt>
      <trkpt lat="38.2258080" lon="-1.4217290">
        <ele>256.0</ele>
        <time>2021-11-07T10:52:48Z</time>
      </trkpt>
      <trkpt lat="38.2258180" lon="-1.4217310">
        <ele>255.5</ele>
        <time>2021-11-07T10:52:49Z</time>
      </trkpt>
      <trkpt lat="38.2258450" lon="-1.4217350">
        <ele>254.8</ele>
        <time>2021-11-07T10:52:51Z</time>
      </trkpt>
      <trkpt lat="38.2258680" lon="-1.4217490">
        <ele>256.5</ele>
        <time>2021-11-07T10:52:53Z</time>
      </trkpt>
      <trkpt lat="38.2258900" lon="-1.4217560">
        <ele>256.8</ele>
        <time>2021-11-07T10:52:55Z</time>
      </trkpt>
      <trkpt lat="38.2259180" lon="-1.4217690">
        <ele>257.2</ele>
        <time>2021-11-07T10:52:57Z</time>
      </trkpt>
      <trkpt lat="38.2259220" lon="-1.4217680">
        <ele>257.3</ele>
        <time>2021-11-07T10:52:58Z</time>
      </trkpt>
      <trkpt lat="38.2259400" lon="-1.4217680">
        <ele>257.5</ele>
        <time>2021-11-07T10:53:00Z</time>
      </trkpt>
      <trkpt lat="38.2259510" lon="-1.4217720">
        <ele>257.6</ele>
        <time>2021-11-07T10:53:01Z</time>
      </trkpt>
      <trkpt lat="38.2259810" lon="-1.4217860">
        <ele>258.0</ele>
        <time>2021-11-07T10:53:03Z</time>
      </trkpt>
      <trkpt lat="38.2259860" lon="-1.4217870">
        <ele>258.0</ele>
        <time>2021-11-07T10:53:04Z</time>
      </trkpt>
      <trkpt lat="38.2260030" lon="-1.4217910">
        <ele>258.2</ele>
        <time>2021-11-07T10:53:06Z</time>
      </trkpt>
      <trkpt lat="38.2260240" lon="-1.4218070">
        <ele>258.4</ele>
        <time>2021-11-07T10:53:08Z</time>
      </trkpt>
      <trkpt lat="38.2260480" lon="-1.4218280">
        <ele>258.6</ele>
        <time>2021-11-07T10:53:09Z</time>
      </trkpt>
      <trkpt lat="38.2260620" lon="-1.4218420">
        <ele>258.7</ele>
        <time>2021-11-07T10:53:11Z</time>
      </trkpt>
      <trkpt lat="38.2260760" lon="-1.4218550">
        <ele>258.8</ele>
        <time>2021-11-07T10:53:12Z</time>
      </trkpt>
      <trkpt lat="38.2260900" lon="-1.4218680">
        <ele>259.0</ele>
        <time>2021-11-07T10:53:13Z</time>
      </trkpt>
      <trkpt lat="38.2261030" lon="-1.4218880">
        <ele>259.1</ele>
        <time>2021-11-07T10:53:15Z</time>
      </trkpt>
      <trkpt lat="38.2261130" lon="-1.4218940">
        <ele>259.2</ele>
        <time>2021-11-07T10:53:16Z</time>
      </trkpt>
      <trkpt lat="38.2261210" lon="-1.4219100">
        <ele>259.3</ele>
        <time>2021-11-07T10:53:17Z</time>
      </trkpt>
      <trkpt lat="38.2261300" lon="-1.4219230">
        <ele>259.3</ele>
        <time>2021-11-07T10:53:19Z</time>
      </trkpt>
      <trkpt lat="38.2261520" lon="-1.4219500">
        <ele>259.5</ele>
        <time>2021-11-07T10:53:21Z</time>
      </trkpt>
      <trkpt lat="38.2261860" lon="-1.4219550">
        <ele>259.8</ele>
        <time>2021-11-07T10:53:23Z</time>
      </trkpt>
      <trkpt lat="38.2262030" lon="-1.4219550">
        <ele>259.9</ele>
        <time>2021-11-07T10:53:24Z</time>
      </trkpt>
      <trkpt lat="38.2262200" lon="-1.4219820">
        <ele>260.1</ele>
        <time>2021-11-07T10:53:26Z</time>
      </trkpt>
      <trkpt lat="38.2262330" lon="-1.4219930">
        <ele>260.2</ele>
        <time>2021-11-07T10:53:27Z</time>
      </trkpt>
      <trkpt lat="38.2262460" lon="-1.4219980">
        <ele>260.3</ele>
        <time>2021-11-07T10:53:28Z</time>
      </trkpt>
      <trkpt lat="38.2262660" lon="-1.4220060">
        <ele>260.5</ele>
        <time>2021-11-07T10:53:29Z</time>
      </trkpt>
      <trkpt lat="38.2262700" lon="-1.4220260">
        <ele>260.7</ele>
        <time>2021-11-07T10:53:30Z</time>
      </trkpt>
      <trkpt lat="38.2262820" lon="-1.4220640">
        <ele>260.9</ele>
        <time>2021-11-07T10:53:32Z</time>
      </trkpt>
      <trkpt lat="38.2262920" lon="-1.4221020">
        <ele>261.2</ele>
        <time>2021-11-07T10:53:34Z</time>
      </trkpt>
      <trkpt lat="38.2263000" lon="-1.4221230">
        <ele>261.4</ele>
        <time>2021-11-07T10:53:36Z</time>
      </trkpt>
      <trkpt lat="38.2263050" lon="-1.4221420">
        <ele>261.5</ele>
        <time>2021-11-07T10:53:37Z</time>
      </trkpt>
      <trkpt lat="38.2263170" lon="-1.4221760">
        <ele>261.8</ele>
        <time>2021-11-07T10:53:39Z</time>
      </trkpt>
      <trkpt lat="38.2263230" lon="-1.4221910">
        <ele>261.9</ele>
        <time>2021-11-07T10:53:40Z</time>
      </trkpt>
      <trkpt lat="38.2263300" lon="-1.4222250">
        <ele>262.2</ele>
        <time>2021-11-07T10:53:42Z</time>
      </trkpt>
      <trkpt lat="38.2263500" lon="-1.4222570">
        <ele>262.5</ele>
        <time>2021-11-07T10:53:44Z</time>
      </trkpt>
      <trkpt lat="38.2263510" lon="-1.4222740">
        <ele>262.7</ele>
        <time>2021-11-07T10:53:45Z</time>
      </trkpt>
      <trkpt lat="38.2263680" lon="-1.4223040">
        <ele>263.0</ele>
        <time>2021-11-07T10:53:47Z</time>
      </trkpt>
      <trkpt lat="38.2263910" lon="-1.4223460">
        <ele>263.4</ele>
        <time>2021-11-07T10:53:49Z</time>
      </trkpt>
      <trkpt lat="38.2264010" lon="-1.4223590">
        <ele>263.6</ele>
        <time>2021-11-07T10:53:50Z</time>
      </trkpt>
      <trkpt lat="38.2264100" lon="-1.4223710">
        <ele>263.7</ele>
        <time>2021-11-07T10:53:51Z</time>
      </trkpt>
      <trkpt lat="38.2264170" lon="-1.4223920">
        <ele>263.9</ele>
        <time>2021-11-07T10:53:53Z</time>
      </trkpt>
      <trkpt lat="38.2264420" lon="-1.4224160">
        <ele>264.3</ele>
        <time>2021-11-07T10:53:55Z</time>
      </trkpt>
      <trkpt lat="38.2264610" lon="-1.4224410">
        <ele>264.6</ele>
        <time>2021-11-07T10:53:56Z</time>
      </trkpt>
      <trkpt lat="38.2264700" lon="-1.4224520">
        <ele>264.7</ele>
        <time>2021-11-07T10:53:57Z</time>
      </trkpt>
      <trkpt lat="38.2264840" lon="-1.4224680">
        <ele>264.9</ele>
        <time>2021-11-07T10:53:59Z</time>
      </trkpt>
      <trkpt lat="38.2264970" lon="-1.4224800">
        <ele>265.1</ele>
        <time>2021-11-07T10:54:00Z</time>
      </trkpt>
      <trkpt lat="38.2265120" lon="-1.4224980">
        <ele>265.4</ele>
        <time>2021-11-07T10:54:01Z</time>
      </trkpt>
      <trkpt lat="38.2265300" lon="-1.4225160">
        <ele>265.6</ele>
        <time>2021-11-07T10:54:03Z</time>
      </trkpt>
      <trkpt lat="38.2265520" lon="-1.4225410">
        <ele>266.0</ele>
        <time>2021-11-07T10:54:05Z</time>
      </trkpt>
      <trkpt lat="38.2265640" lon="-1.4225500">
        <ele>266.2</ele>
        <time>2021-11-07T10:54:06Z</time>
      </trkpt>
      <trkpt lat="38.2265820" lon="-1.4225540">
        <ele>266.4</ele>
        <time>2021-11-07T10:54:07Z</time>
      </trkpt>
      <trkpt lat="38.2265950" lon="-1.4225590">
        <ele>266.5</ele>
        <time>2021-11-07T10:54:08Z</time>
      </trkpt>
      <trkpt lat="38.2266080" lon="-1.4225620">
        <ele>266.7</ele>
        <time>2021-11-07T10:54:09Z</time>
      </trkpt>
      <trkpt lat="38.2266290" lon="-1.4225660">
        <ele>267.0</ele>
        <time>2021-11-07T10:54:11Z</time>
      </trkpt>
      <trkpt lat="38.2266430" lon="-1.4225730">
        <ele>267.1</ele>
        <time>2021-11-07T10:54:12Z</time>
      </trkpt>
      <trkpt lat="38.2266550" lon="-1.4225760">
        <ele>267.3</ele>
        <time>2021-11-07T10:54:13Z</time>
      </trkpt>
      <trkpt lat="38.2266680" lon="-1.4225820">
        <ele>267.5</ele>
        <time>2021-11-07T10:54:14Z</time>
      </trkpt>
      <trkpt lat="38.2266800" lon="-1.4225920">
        <ele>267.6</ele>
        <time>2021-11-07T10:54:15Z</time>
      </trkpt>
      <trkpt lat="38.2266780" lon="-1.4226110">
        <ele>267.8</ele>
        <time>2021-11-07T10:54:17Z</time>
      </trkpt>
      <trkpt lat="38.2266650" lon="-1.4226230">
        <ele>268.0</ele>
        <time>2021-11-07T10:54:18Z</time>
      </trkpt>
      <trkpt lat="38.2266490" lon="-1.4226320">
        <ele>268.2</ele>
        <time>2021-11-07T10:54:19Z</time>
      </trkpt>
      <trkpt lat="38.2266320" lon="-1.4226410">
        <ele>268.4</ele>
        <time>2021-11-07T10:54:20Z</time>
      </trkpt>
      <trkpt lat="38.2265960" lon="-1.4226420">
        <ele>268.8</ele>
        <time>2021-11-07T10:54:22Z</time>
      </trkpt>
      <trkpt lat="38.2265840" lon="-1.4226420">
        <ele>268.9</ele>
        <time>2021-11-07T10:54:23Z</time>
      </trkpt>
      <trkpt lat="38.2265510" lon="-1.4226450">
        <ele>269.2</ele>
        <time>2021-11-07T10:54:25Z</time>
      </trkpt>
      <trkpt lat="38.2265410" lon="-1.4226470">
        <ele>269.3</ele>
        <time>2021-11-07T10:54:26Z</time>
      </trkpt>
      <trkpt lat="38.2265140" lon="-1.4226510">
        <ele>269.5</ele>
        <time>2021-11-07T10:54:27Z</time>
      </trkpt>
      <trkpt lat="38.2264890" lon="-1.4226500">
        <ele>269.7</ele>
        <time>2021-11-07T10:54:29Z</time>
      </trkpt>
      <trkpt lat="38.2264440" lon="-1.4226470">
        <ele>270.1</ele>
        <time>2021-11-07T10:54:31Z</time>
      </trkpt>
      <trkpt lat="38.2264310" lon="-1.4226460">
        <ele>270.3</ele>
        <time>2021-11-07T10:54:32Z</time>
      </trkpt>
      <trkpt lat="38.2264190" lon="-1.4226450">
        <ele>270.4</ele>
        <time>2021-11-07T10:54:33Z</time>
      </trkpt>
      <trkpt lat="38.2263870" lon="-1.4226400">
        <ele>270.6</ele>
        <time>2021-11-07T10:54:35Z</time>
      </trkpt>
      <trkpt lat="38.2263800" lon="-1.4226380">
        <ele>270.7</ele>
        <time>2021-11-07T10:54:36Z</time>
      </trkpt>
      <trkpt lat="38.2263500" lon="-1.4226270">
        <ele>271.0</ele>
        <time>2021-11-07T10:54:38Z</time>
      </trkpt>
      <trkpt lat="38.2263320" lon="-1.4226100">
        <ele>271.2</ele>
        <time>2021-11-07T10:54:39Z</time>
      </trkpt>
      <trkpt lat="38.2263080" lon="-1.4225970">
        <ele>271.5</ele>
        <time>2021-11-07T10:54:41Z</time>
      </trkpt>
      <trkpt lat="38.2262930" lon="-1.4225870">
        <ele>271.7</ele>
        <time>2021-11-07T10:54:42Z</time>
      </trkpt>
      <trkpt lat="38.2262660" lon="-1.4225650">
        <ele>272.0</ele>
        <time>2021-11-07T10:54:44Z</time>
      </trkpt>
      <trkpt lat="38.2262430" lon="-1.4225420">
        <ele>272.4</ele>
        <time>2021-11-07T10:54:45Z</time>
      </trkpt>
      <trkpt lat="38.2262200" lon="-1.4225200">
        <ele>272.7</ele>
        <time>2021-11-07T10:54:47Z</time>
      </trkpt>
      <trkpt lat="38.2262140" lon="-1.4225130">
        <ele>272.8</ele>
        <time>2021-11-07T10:54:48Z</time>
      </trkpt>
      <trkpt lat="38.2261960" lon="-1.4224840">
        <ele>273.1</ele>
        <time>2021-11-07T10:54:50Z</time>
      </trkpt>
      <trkpt lat="38.2261800" lon="-1.4224740">
        <ele>273.3</ele>
        <time>2021-11-07T10:54:51Z</time>
      </trkpt>
      <trkpt lat="38.2261670" lon="-1.4224720">
        <ele>273.5</ele>
        <time>2021-11-07T10:54:52Z</time>
      </trkpt>
      <trkpt lat="38.2261640" lon="-1.4224960">
        <ele>273.7</ele>
        <time>2021-11-07T10:54:53Z</time>
      </trkpt>
      <trkpt lat="38.2261690" lon="-1.4225110">
        <ele>273.8</ele>
        <time>2021-11-07T10:54:54Z</time>
      </trkpt>
      <trkpt lat="38.2261750" lon="-1.4225260">
        <ele>274.0</ele>
        <time>2021-11-07T10:54:56Z</time>
      </trkpt>
      <trkpt lat="38.2261800" lon="-1.4225400">
        <ele>274.1</ele>
        <time>2021-11-07T10:54:57Z</time>
      </trkpt>
      <trkpt lat="38.2261860" lon="-1.4225550">
        <ele>274.2</ele>
        <time>2021-11-07T10:54:58Z</time>
      </trkpt>
      <trkpt lat="38.2261980" lon="-1.4225790">
        <ele>274.5</ele>
        <time>2021-11-07T10:54:59Z</time>
      </trkpt>
      <trkpt lat="38.2262100" lon="-1.4225960">
        <ele>274.7</ele>
        <time>2021-11-07T10:55:01Z</time>
      </trkpt>
      <trkpt lat="38.2262350" lon="-1.4226420">
        <ele>275.1</ele>
        <time>2021-11-07T10:55:03Z</time>
      </trkpt>
      <trkpt lat="38.2262410" lon="-1.4226560">
        <ele>275.2</ele>
        <time>2021-11-07T10:55:04Z</time>
      </trkpt>
      <trkpt lat="38.2262470" lon="-1.4226690">
        <ele>275.4</ele>
        <time>2021-11-07T10:55:05Z</time>
      </trkpt>
      <trkpt lat="38.2262570" lon="-1.4226860">
        <ele>275.5</ele>
        <time>2021-11-07T10:55:06Z</time>
      </trkpt>
      <trkpt lat="38.2262680" lon="-1.4227040">
        <ele>275.7</ele>
        <time>2021-11-07T10:55:07Z</time>
      </trkpt>
      <trkpt lat="38.2262780" lon="-1.4227210">
        <ele>275.9</ele>
        <time>2021-11-07T10:55:08Z</time>
      </trkpt>
      <trkpt lat="38.2262910" lon="-1.4227340">
        <ele>276.1</ele>
        <time>2021-11-07T10:55:09Z</time>
      </trkpt>
      <trkpt lat="38.2263030" lon="-1.4227460">
        <ele>276.3</ele>
        <time>2021-11-07T10:55:10Z</time>
      </trkpt>
      <trkpt lat="38.2263150" lon="-1.4227550">
        <ele>276.4</ele>
        <time>2021-11-07T10:55:11Z</time>
      </trkpt>
      <trkpt lat="38.2263280" lon="-1.4227650">
        <ele>276.6</ele>
        <time>2021-11-07T10:55:12Z</time>
      </trkpt>
      <trkpt lat="38.2263410" lon="-1.4227760">
        <ele>276.8</ele>
        <time>2021-11-07T10:55:13Z</time>
      </trkpt>
      <trkpt lat="38.2263540" lon="-1.4227850">
        <ele>276.9</ele>
        <time>2021-11-07T10:55:14Z</time>
      </trkpt>
      <trkpt lat="38.2263670" lon="-1.4227960">
        <ele>277.1</ele>
        <time>2021-11-07T10:55:15Z</time>
      </trkpt>
      <trkpt lat="38.2263820" lon="-1.4228090">
        <ele>277.3</ele>
        <time>2021-11-07T10:55:16Z</time>
      </trkpt>
      <trkpt lat="38.2264080" lon="-1.4228280">
        <ele>277.6</ele>
        <time>2021-11-07T10:55:18Z</time>
      </trkpt>
      <trkpt lat="38.2264380" lon="-1.4228430">
        <ele>278.0</ele>
        <time>2021-11-07T10:55:19Z</time>
      </trkpt>
      <trkpt lat="38.2264530" lon="-1.4228490">
        <ele>278.2</ele>
        <time>2021-11-07T10:55:21Z</time>
      </trkpt>
      <trkpt lat="38.2264690" lon="-1.4228550">
        <ele>278.4</ele>
        <time>2021-11-07T10:55:22Z</time>
      </trkpt>
      <trkpt lat="38.2264850" lon="-1.4228620">
        <ele>278.6</ele>
        <time>2021-11-07T10:55:23Z</time>
      </trkpt>
      <trkpt lat="38.2265000" lon="-1.4228680">
        <ele>278.7</ele>
        <time>2021-11-07T10:55:25Z</time>
      </trkpt>
      <trkpt lat="38.2265140" lon="-1.4228750">
        <ele>278.9</ele>
        <time>2021-11-07T10:55:26Z</time>
      </trkpt>
      <trkpt lat="38.2265400" lon="-1.4228850">
        <ele>279.2</ele>
        <time>2021-11-07T10:55:27Z</time>
      </trkpt>
      <trkpt lat="38.2265510" lon="-1.4228900">
        <ele>279.3</ele>
        <time>2021-11-07T10:55:28Z</time>
      </trkpt>
      <trkpt lat="38.2265660" lon="-1.4228950">
        <ele>279.5</ele>
        <time>2021-11-07T10:55:29Z</time>
      </trkpt>
      <trkpt lat="38.2265790" lon="-1.4229040">
        <ele>279.7</ele>
        <time>2021-11-07T10:55:31Z</time>
      </trkpt>
      <trkpt lat="38.2265900" lon="-1.4229120">
        <ele>279.8</ele>
        <time>2021-11-07T10:55:32Z</time>
      </trkpt>
      <trkpt lat="38.2266120" lon="-1.4229190">
        <ele>280.1</ele>
        <time>2021-11-07T10:55:33Z</time>
      </trkpt>
      <trkpt lat="38.2266410" lon="-1.4229300">
        <ele>280.4</ele>
        <time>2021-11-07T10:55:35Z</time>
      </trkpt>
      <trkpt lat="38.2266540" lon="-1.4229340">
        <ele>280.6</ele>
        <time>2021-11-07T10:55:36Z</time>
      </trkpt>
      <trkpt lat="38.2266700" lon="-1.4229380">
        <ele>280.8</ele>
        <time>2021-11-07T10:55:38Z</time>
      </trkpt>
      <trkpt lat="38.2267010" lon="-1.4229360">
        <ele>281.1</ele>
        <time>2021-11-07T10:55:40Z</time>
      </trkpt>
      <trkpt lat="38.2267320" lon="-1.4229390">
        <ele>281.5</ele>
        <time>2021-11-07T10:55:42Z</time>
      </trkpt>
      <trkpt lat="38.2267470" lon="-1.4229370">
        <ele>281.6</ele>
        <time>2021-11-07T10:55:43Z</time>
      </trkpt>
      <trkpt lat="38.2267670" lon="-1.4229370">
        <ele>281.8</ele>
        <time>2021-11-07T10:55:44Z</time>
      </trkpt>
      <trkpt lat="38.2267930" lon="-1.4229390">
        <ele>282.1</ele>
        <time>2021-11-07T10:55:45Z</time>
      </trkpt>
      <trkpt lat="38.2268130" lon="-1.4229370">
        <ele>282.3</ele>
        <time>2021-11-07T10:55:47Z</time>
      </trkpt>
      <trkpt lat="38.2268450" lon="-1.4229330">
        <ele>282.7</ele>
        <time>2021-11-07T10:55:48Z</time>
      </trkpt>
      <trkpt lat="38.2268610" lon="-1.4229330">
        <ele>282.8</ele>
        <time>2021-11-07T10:55:49Z</time>
      </trkpt>
      <trkpt lat="38.2268820" lon="-1.4229380">
        <ele>283.0</ele>
        <time>2021-11-07T10:55:51Z</time>
      </trkpt>
      <trkpt lat="38.2269100" lon="-1.4229450">
        <ele>283.3</ele>
        <time>2021-11-07T10:55:53Z</time>
      </trkpt>
      <trkpt lat="38.2269470" lon="-1.4229690">
        <ele>283.6</ele>
        <time>2021-11-07T10:55:55Z</time>
      </trkpt>
      <trkpt lat="38.2269570" lon="-1.4229800">
        <ele>283.8</ele>
        <time>2021-11-07T10:55:57Z</time>
      </trkpt>
      <trkpt lat="38.2269670" lon="-1.4229910">
        <ele>283.9</ele>
        <time>2021-11-07T10:55:58Z</time>
      </trkpt>
      <trkpt lat="38.2269890" lon="-1.4230160">
        <ele>284.1</ele>
        <time>2021-11-07T10:56:00Z</time>
      </trkpt>
      <trkpt lat="38.2269990" lon="-1.4230280">
        <ele>284.2</ele>
        <time>2021-11-07T10:56:01Z</time>
      </trkpt>
      <trkpt lat="38.2270210" lon="-1.4230520">
        <ele>284.5</ele>
        <time>2021-11-07T10:56:03Z</time>
      </trkpt>
      <trkpt lat="38.2270310" lon="-1.4230680">
        <ele>284.6</ele>
        <time>2021-11-07T10:56:04Z</time>
      </trkpt>
      <trkpt lat="38.2270480" lon="-1.4230930">
        <ele>284.8</ele>
        <time>2021-11-07T10:56:06Z</time>
      </trkpt>
      <trkpt lat="38.2270720" lon="-1.4231210">
        <ele>285.0</ele>
        <time>2021-11-07T10:56:07Z</time>
      </trkpt>
      <trkpt lat="38.2270780" lon="-1.4231290">
        <ele>285.1</ele>
        <time>2021-11-07T10:56:08Z</time>
      </trkpt>
      <trkpt lat="38.2271010" lon="-1.4231520">
        <ele>285.3</ele>
        <time>2021-11-07T10:56:10Z</time>
      </trkpt>
      <trkpt lat="38.2271080" lon="-1.4231600">
        <ele>285.4</ele>
        <time>2021-11-07T10:56:11Z</time>
      </trkpt>
      <trkpt lat="38.2271320" lon="-1.4231880">
        <ele>285.6</ele>
        <time>2021-11-07T10:56:13Z</time>
      </trkpt>
      <trkpt lat="38.2271420" lon="-1.4232000">
        <ele>285.8</ele>
        <time>2021-11-07T10:56:14Z</time>
      </trkpt>
      <trkpt lat="38.2271580" lon="-1.4232210">
        <ele>285.9</ele>
        <time>2021-11-07T10:56:16Z</time>
      </trkpt>
      <trkpt lat="38.2271770" lon="-1.4232460">
        <ele>286.1</ele>
        <time>2021-11-07T10:56:18Z</time>
      </trkpt>
      <trkpt lat="38.2271890" lon="-1.4232700">
        <ele>286.3</ele>
        <time>2021-11-07T10:56:19Z</time>
      </trkpt>
      <trkpt lat="38.2272010" lon="-1.4232930">
        <ele>286.5</ele>
        <time>2021-11-07T10:56:21Z</time>
      </trkpt>
      <trkpt lat="38.2272150" lon="-1.4233240">
        <ele>286.7</ele>
        <time>2021-11-07T10:56:23Z</time>
      </trkpt>
      <trkpt lat="38.2272230" lon="-1.4233410">
        <ele>286.8</ele>
        <time>2021-11-07T10:56:24Z</time>
      </trkpt>
      <trkpt lat="38.2272330" lon="-1.4233570">
        <ele>287.0</ele>
        <time>2021-11-07T10:56:25Z</time>
      </trkpt>
      <trkpt lat="38.2272460" lon="-1.4233790">
        <ele>287.1</ele>
        <time>2021-11-07T10:56:26Z</time>
      </trkpt>
      <trkpt lat="38.2272580" lon="-1.4234070">
        <ele>287.3</ele>
        <time>2021-11-07T10:56:28Z</time>
      </trkpt>
      <trkpt lat="38.2272720" lon="-1.4234350">
        <ele>287.6</ele>
        <time>2021-11-07T10:56:29Z</time>
      </trkpt>
      <trkpt lat="38.2272780" lon="-1.4234460">
        <ele>287.6</ele>
        <time>2021-11-07T10:56:30Z</time>
      </trkpt>
      <trkpt lat="38.2272910" lon="-1.4234710">
        <ele>287.8</ele>
        <time>2021-11-07T10:56:32Z</time>
      </trkpt>
      <trkpt lat="38.2273080" lon="-1.4235040">
        <ele>288.1</ele>
        <time>2021-11-07T10:56:34Z</time>
      </trkpt>
      <trkpt lat="38.2273250" lon="-1.4235330">
        <ele>288.4</ele>
        <time>2021-11-07T10:56:36Z</time>
      </trkpt>
      <trkpt lat="38.2273330" lon="-1.4235500">
        <ele>288.5</ele>
        <time>2021-11-07T10:56:37Z</time>
      </trkpt>
      <trkpt lat="38.2273410" lon="-1.4235720">
        <ele>288.7</ele>
        <time>2021-11-07T10:56:38Z</time>
      </trkpt>
      <trkpt lat="38.2273510" lon="-1.4236000">
        <ele>288.9</ele>
        <time>2021-11-07T10:56:39Z</time>
      </trkpt>
      <trkpt lat="38.2273570" lon="-1.4236220">
        <ele>289.1</ele>
        <time>2021-11-07T10:56:41Z</time>
      </trkpt>
      <trkpt lat="38.2273700" lon="-1.4236530">
        <ele>289.3</ele>
        <time>2021-11-07T10:56:42Z</time>
      </trkpt>
      <trkpt lat="38.2273760" lon="-1.4236650">
        <ele>289.4</ele>
        <time>2021-11-07T10:56:43Z</time>
      </trkpt>
      <trkpt lat="38.2273890" lon="-1.4236950">
        <ele>289.7</ele>
        <time>2021-11-07T10:56:44Z</time>
      </trkpt>
      <trkpt lat="38.2273940" lon="-1.4237070">
        <ele>289.8</ele>
        <time>2021-11-07T10:56:45Z</time>
      </trkpt>
      <trkpt lat="38.2274050" lon="-1.4237440">
        <ele>290.1</ele>
        <time>2021-11-07T10:56:46Z</time>
      </trkpt>
      <trkpt lat="38.2274080" lon="-1.4237620">
        <ele>290.2</ele>
        <time>2021-11-07T10:56:48Z</time>
      </trkpt>
      <trkpt lat="38.2274110" lon="-1.4237800">
        <ele>290.3</ele>
        <time>2021-11-07T10:56:49Z</time>
      </trkpt>
      <trkpt lat="38.2274140" lon="-1.4237980">
        <ele>290.5</ele>
        <time>2021-11-07T10:56:50Z</time>
      </trkpt>
      <trkpt lat="38.2274240" lon="-1.4238380">
        <ele>290.8</ele>
        <time>2021-11-07T10:56:52Z</time>
      </trkpt>
      <trkpt lat="38.2274260" lon="-1.4238470">
        <ele>290.8</ele>
        <time>2021-11-07T10:56:53Z</time>
      </trkpt>
      <trkpt lat="38.2274340" lon="-1.4238680">
        <ele>291.0</ele>
        <time>2021-11-07T10:56:54Z</time>
      </trkpt>
      <trkpt lat="38.2274400" lon="-1.4238930">
        <ele>291.2</ele>
        <time>2021-11-07T10:56:56Z</time>
      </trkpt>
      <trkpt lat="38.2274470" lon="-1.4239250">
        <ele>291.5</ele>
        <time>2021-11-07T10:56:57Z</time>
      </trkpt>
      <trkpt lat="38.2274500" lon="-1.4239380">
        <ele>291.6</ele>
        <time>2021-11-07T10:56:58Z</time>
      </trkpt>
      <trkpt lat="38.2274580" lon="-1.4239760">
        <ele>291.9</ele>
        <time>2021-11-07T10:57:00Z</time>
      </trkpt>
      <trkpt lat="38.2274600" lon="-1.4239870">
        <ele>292.0</ele>
        <time>2021-11-07T10:57:01Z</time>
      </trkpt>
      <trkpt lat="38.2274690" lon="-1.4240140">
        <ele>292.2</ele>
        <time>2021-11-07T10:57:02Z</time>
      </trkpt>
      <trkpt lat="38.2274760" lon="-1.4240410">
        <ele>292.4</ele>
        <time>2021-11-07T10:57:04Z</time>
      </trkpt>
      <trkpt lat="38.2274800" lon="-1.4240570">
        <ele>292.6</ele>
        <time>2021-11-07T10:57:05Z</time>
      </trkpt>
      <trkpt lat="38.2274880" lon="-1.4240830">
        <ele>292.8</ele>
        <time>2021-11-07T10:57:06Z</time>
      </trkpt>
      <trkpt lat="38.2274950" lon="-1.4241240">
        <ele>293.1</ele>
        <time>2021-11-07T10:57:08Z</time>
      </trkpt>
      <trkpt lat="38.2274960" lon="-1.4241340">
        <ele>293.2</ele>
        <time>2021-11-07T10:57:09Z</time>
      </trkpt>
      <trkpt lat="38.2275000" lon="-1.4241520">
        <ele>293.3</ele>
        <time>2021-11-07T10:57:10Z</time>
      </trkpt>
      <trkpt lat="38.2275050" lon="-1.4241860">
        <ele>293.6</ele>
        <time>2021-11-07T10:57:12Z</time>
      </trkpt>
      <trkpt lat="38.2275090" lon="-1.4242020">
        <ele>293.7</ele>
        <time>2021-11-07T10:57:13Z</time>
      </trkpt>
      <trkpt lat="38.2275180" lon="-1.4242240">
        <ele>293.9</ele>
        <time>2021-11-07T10:57:14Z</time>
      </trkpt>
      <trkpt lat="38.2275310" lon="-1.4242650">
        <ele>294.2</ele>
        <time>2021-11-07T10:57:16Z</time>
      </trkpt>
      <trkpt lat="38.2275360" lon="-1.4242740">
        <ele>294.3</ele>
        <time>2021-11-07T10:57:17Z</time>
      </trkpt>
      <trkpt lat="38.2275490" lon="-1.4243140">
        <ele>294.6</ele>
        <time>2021-11-07T10:57:19Z</time>
      </trkpt>
      <trkpt lat="38.2275520" lon="-1.4243230">
        <ele>294.7</ele>
        <time>2021-11-07T10:57:20Z</time>
      </trkpt>
      <trkpt lat="38.2275650" lon="-1.4243610">
        <ele>295.0</ele>
        <time>2021-11-07T10:57:21Z</time>
      </trkpt>
      <trkpt lat="38.2275680" lon="-1.4243700">
        <ele>295.1</ele>
        <time>2021-11-07T10:57:22Z</time>
      </trkpt>
      <trkpt lat="38.2275730" lon="-1.4243890">
        <ele>295.3</ele>
        <time>2021-11-07T10:57:24Z</time>
      </trkpt>
      <trkpt lat="38.2275780" lon="-1.4244060">
        <ele>295.4</ele>
        <time>2021-11-07T10:57:25Z</time>
      </trkpt>
      <trkpt lat="38.2275860" lon="-1.4244280">
        <ele>295.6</ele>
        <time>2021-11-07T10:57:26Z</time>
      </trkpt>
      <trkpt lat="38.2275910" lon="-1.4244470">
        <ele>295.7</ele>
        <time>2021-11-07T10:57:27Z</time>
      </trkpt>
      <trkpt lat="38.2275950" lon="-1.4244750">
        <ele>295.9</ele>
        <time>2021-11-07T10:57:28Z</time>
      </trkpt>
      <trkpt lat="38.2275920" lon="-1.4244950">
        <ele>295.9</ele>
        <time>2021-11-07T10:57:30Z</time>
      </trkpt>
      <trkpt lat="38.2275940" lon="-1.4245320">
        <ele>296.2</ele>
        <time>2021-11-07T10:57:31Z</time>
      </trkpt>
      <trkpt lat="38.2275950" lon="-1.4245480">
        <ele>296.3</ele>
        <time>2021-11-07T10:57:32Z</time>
      </trkpt>
      <trkpt lat="38.2275940" lon="-1.4245890">
        <ele>296.6</ele>
        <time>2021-11-07T10:57:34Z</time>
      </trkpt>
      <trkpt lat="38.2275940" lon="-1.4246060">
        <ele>296.7</ele>
        <time>2021-11-07T10:57:35Z</time>
      </trkpt>
      <trkpt lat="38.2275880" lon="-1.4246490">
        <ele>297.0</ele>
        <time>2021-11-07T10:57:37Z</time>
      </trkpt>
      <trkpt lat="38.2275870" lon="-1.4246660">
        <ele>297.1</ele>
        <time>2021-11-07T10:57:38Z</time>
      </trkpt>
      <trkpt lat="38.2275850" lon="-1.4246920">
        <ele>297.3</ele>
        <time>2021-11-07T10:57:39Z</time>
      </trkpt>
      <trkpt lat="38.2275800" lon="-1.4247210">
        <ele>297.5</ele>
        <time>2021-11-07T10:57:41Z</time>
      </trkpt>
      <trkpt lat="38.2275650" lon="-1.4247620">
        <ele>297.8</ele>
        <time>2021-11-07T10:57:43Z</time>
      </trkpt>
      <trkpt lat="38.2275600" lon="-1.4247770">
        <ele>297.8</ele>
        <time>2021-11-07T10:57:44Z</time>
      </trkpt>
      <trkpt lat="38.2275490" lon="-1.4247950">
        <ele>298.0</ele>
        <time>2021-11-07T10:57:45Z</time>
      </trkpt>
      <trkpt lat="38.2275350" lon="-1.4248250">
        <ele>298.2</ele>
        <time>2021-11-07T10:57:47Z</time>
      </trkpt>
      <trkpt lat="38.2275300" lon="-1.4248470">
        <ele>298.3</ele>
        <time>2021-11-07T10:57:49Z</time>
      </trkpt>
      <trkpt lat="38.2275250" lon="-1.4248650">
        <ele>298.4</ele>
        <time>2021-11-07T10:57:50Z</time>
      </trkpt>
      <trkpt lat="38.2275180" lon="-1.4248870">
        <ele>298.5</ele>
        <time>2021-11-07T10:57:51Z</time>
      </trkpt>
      <trkpt lat="38.2275170" lon="-1.4249070">
        <ele>298.5</ele>
        <time>2021-11-07T10:57:52Z</time>
      </trkpt>
      <trkpt lat="38.2275170" lon="-1.4249510">
        <ele>298.7</ele>
        <time>2021-11-07T10:57:54Z</time>
      </trkpt>
      <trkpt lat="38.2275180" lon="-1.4249600">
        <ele>298.7</ele>
        <time>2021-11-07T10:57:55Z</time>
      </trkpt>
      <trkpt lat="38.2275240" lon="-1.4249910">
        <ele>298.8</ele>
        <time>2021-11-07T10:57:56Z</time>
      </trkpt>
      <trkpt lat="38.2275280" lon="-1.4250130">
        <ele>298.9</ele>
        <time>2021-11-07T10:57:58Z</time>
      </trkpt>
      <trkpt lat="38.2275400" lon="-1.4250640">
        <ele>298.9</ele>
        <time>2021-11-07T10:57:59Z</time>
      </trkpt>
      <trkpt lat="38.2275450" lon="-1.4250870">
        <ele>298.9</ele>
        <time>2021-11-07T10:58:00Z</time>
      </trkpt>
      <trkpt lat="38.2275520" lon="-1.4251210">
        <ele>298.9</ele>
        <time>2021-11-07T10:58:01Z</time>
      </trkpt>
      <trkpt lat="38.2275610" lon="-1.4251560">
        <ele>298.9</ele>
        <time>2021-11-07T10:58:02Z</time>
      </trkpt>
      <trkpt lat="38.2275730" lon="-1.4251900">
        <ele>298.8</ele>
        <time>2021-11-07T10:58:04Z</time>
      </trkpt>
      <trkpt lat="38.2275880" lon="-1.4252350">
        <ele>298.7</ele>
        <time>2021-11-07T10:58:05Z</time>
      </trkpt>
      <trkpt lat="38.2275980" lon="-1.4252680">
        <ele>298.7</ele>
        <time>2021-11-07T10:58:06Z</time>
      </trkpt>
      <trkpt lat="38.2276110" lon="-1.4253030">
        <ele>298.6</ele>
        <time>2021-11-07T10:58:07Z</time>
      </trkpt>
      <trkpt lat="38.2276290" lon="-1.4253480">
        <ele>298.4</ele>
        <time>2021-11-07T10:58:09Z</time>
      </trkpt>
      <trkpt lat="38.2276470" lon="-1.4253890">
        <ele>298.3</ele>
        <time>2021-11-07T10:58:10Z</time>
      </trkpt>
      <trkpt lat="38.2276630" lon="-1.4254340">
        <ele>298.1</ele>
        <time>2021-11-07T10:58:11Z</time>
      </trkpt>
      <trkpt lat="38.2276690" lon="-1.4254490">
        <ele>298.1</ele>
        <time>2021-11-07T10:58:12Z</time>
      </trkpt>
      <trkpt lat="38.2276870" lon="-1.4254880">
        <ele>297.9</ele>
        <time>2021-11-07T10:58:13Z</time>
      </trkpt>
      <trkpt lat="38.2277020" lon="-1.4255220">
        <ele>297.8</ele>
        <time>2021-11-07T10:58:15Z</time>
      </trkpt>
      <trkpt lat="38.2277150" lon="-1.4255530">
        <ele>297.7</ele>
        <time>2021-11-07T10:58:16Z</time>
      </trkpt>
      <trkpt lat="38.2277320" lon="-1.4255970">
        <ele>297.5</ele>
        <time>2021-11-07T10:58:17Z</time>
      </trkpt>
      <trkpt lat="38.2277410" lon="-1.4256310">
        <ele>297.4</ele>
        <time>2021-11-07T10:58:18Z</time>
      </trkpt>
      <trkpt lat="38.2277480" lon="-1.4256790">
        <ele>297.3</ele>
        <time>2021-11-07T10:58:20Z</time>
      </trkpt>
      <trkpt lat="38.2277520" lon="-1.4257300">
        <ele>297.1</ele>
        <time>2021-11-07T10:58:21Z</time>
      </trkpt>
      <trkpt lat="38.2277670" lon="-1.4257750">
        <ele>296.9</ele>
        <time>2021-11-07T10:58:22Z</time>
      </trkpt>
      <trkpt lat="38.2277710" lon="-1.4257880">
        <ele>296.9</ele>
        <time>2021-11-07T10:58:23Z</time>
      </trkpt>
      <trkpt lat="38.2277830" lon="-1.4258280">
        <ele>296.7</ele>
        <time>2021-11-07T10:58:25Z</time>
      </trkpt>
      <trkpt lat="38.2277890" lon="-1.4258750">
        <ele>296.6</ele>
        <time>2021-11-07T10:58:26Z</time>
      </trkpt>
      <trkpt lat="38.2277940" lon="-1.4259100">
        <ele>296.5</ele>
        <time>2021-11-07T10:58:27Z</time>
      </trkpt>
      <trkpt lat="38.2277950" lon="-1.4259660">
        <ele>296.3</ele>
        <time>2021-11-07T10:58:29Z</time>
      </trkpt>
      <trkpt lat="38.2277930" lon="-1.4260020">
        <ele>296.2</ele>
        <time>2021-11-07T10:58:30Z</time>
      </trkpt>
      <trkpt lat="38.2277920" lon="-1.4260560">
        <ele>296.0</ele>
        <time>2021-11-07T10:58:32Z</time>
      </trkpt>
      <trkpt lat="38.2277900" lon="-1.4260910">
        <ele>295.9</ele>
        <time>2021-11-07T10:58:33Z</time>
      </trkpt>
      <trkpt lat="38.2277840" lon="-1.4261260">
        <ele>295.8</ele>
        <time>2021-11-07T10:58:34Z</time>
      </trkpt>
      <trkpt lat="38.2277740" lon="-1.4261880">
        <ele>295.6</ele>
        <time>2021-11-07T10:58:35Z</time>
      </trkpt>
      <trkpt lat="38.2277530" lon="-1.4262590">
        <ele>295.4</ele>
        <time>2021-11-07T10:58:37Z</time>
      </trkpt>
      <trkpt lat="38.2277430" lon="-1.4262870">
        <ele>295.4</ele>
        <time>2021-11-07T10:58:38Z</time>
      </trkpt>
      <trkpt lat="38.2277320" lon="-1.4263140">
        <ele>295.3</ele>
        <time>2021-11-07T10:58:39Z</time>
      </trkpt>
      <trkpt lat="38.2277080" lon="-1.4263460">
        <ele>295.2</ele>
        <time>2021-11-07T10:58:41Z</time>
      </trkpt>
      <trkpt lat="38.2276860" lon="-1.4263820">
        <ele>295.2</ele>
        <time>2021-11-07T10:58:42Z</time>
      </trkpt>
      <trkpt lat="38.2276670" lon="-1.4264200">
        <ele>295.1</ele>
        <time>2021-11-07T10:58:43Z</time>
      </trkpt>
      <trkpt lat="38.2276480" lon="-1.4264530">
        <ele>295.1</ele>
        <time>2021-11-07T10:58:45Z</time>
      </trkpt>
      <trkpt lat="38.2276210" lon="-1.4264990">
        <ele>295.0</ele>
        <time>2021-11-07T10:58:46Z</time>
      </trkpt>
      <trkpt lat="38.2275980" lon="-1.4265350">
        <ele>295.0</ele>
        <time>2021-11-07T10:58:48Z</time>
      </trkpt>
      <trkpt lat="38.2275770" lon="-1.4265730">
        <ele>294.9</ele>
        <time>2021-11-07T10:58:49Z</time>
      </trkpt>
      <trkpt lat="38.2275520" lon="-1.4266130">
        <ele>294.8</ele>
        <time>2021-11-07T10:58:50Z</time>
      </trkpt>
      <trkpt lat="38.2275430" lon="-1.4266250">
        <ele>294.8</ele>
        <time>2021-11-07T10:58:51Z</time>
      </trkpt>
      <trkpt lat="38.2275200" lon="-1.4266480">
        <ele>294.8</ele>
        <time>2021-11-07T10:58:52Z</time>
      </trkpt>
      <trkpt lat="38.2275030" lon="-1.4266840">
        <ele>294.7</ele>
        <time>2021-11-07T10:58:54Z</time>
      </trkpt>
      <trkpt lat="38.2274890" lon="-1.4267300">
        <ele>294.6</ele>
        <time>2021-11-07T10:58:55Z</time>
      </trkpt>
      <trkpt lat="38.2274790" lon="-1.4267710">
        <ele>294.6</ele>
        <time>2021-11-07T10:58:57Z</time>
      </trkpt>
      <trkpt lat="38.2274700" lon="-1.4268090">
        <ele>294.5</ele>
        <time>2021-11-07T10:58:58Z</time>
      </trkpt>
      <trkpt lat="38.2274630" lon="-1.4268510">
        <ele>294.4</ele>
        <time>2021-11-07T10:58:59Z</time>
      </trkpt>
      <trkpt lat="38.2274510" lon="-1.4269000">
        <ele>294.2</ele>
        <time>2021-11-07T10:59:01Z</time>
      </trkpt>
      <trkpt lat="38.2274470" lon="-1.4269160">
        <ele>294.2</ele>
        <time>2021-11-07T10:59:02Z</time>
      </trkpt>
      <trkpt lat="38.2274390" lon="-1.4269770">
        <ele>294.0</ele>
        <time>2021-11-07T10:59:03Z</time>
      </trkpt>
      <trkpt lat="38.2274350" lon="-1.4270230">
        <ele>293.8</ele>
        <time>2021-11-07T10:59:04Z</time>
      </trkpt>
      <trkpt lat="38.2274270" lon="-1.4270650">
        <ele>293.7</ele>
        <time>2021-11-07T10:59:06Z</time>
      </trkpt>
      <trkpt lat="38.2274180" lon="-1.4271190">
        <ele>293.5</ele>
        <time>2021-11-07T10:59:07Z</time>
      </trkpt>
      <trkpt lat="38.2274120" lon="-1.4271580">
        <ele>293.3</ele>
        <time>2021-11-07T10:59:08Z</time>
      </trkpt>
      <trkpt lat="38.2274060" lon="-1.4271940">
        <ele>293.2</ele>
        <time>2021-11-07T10:59:09Z</time>
      </trkpt>
      <trkpt lat="38.2273960" lon="-1.4272300">
        <ele>293.0</ele>
        <time>2021-11-07T10:59:10Z</time>
      </trkpt>
      <trkpt lat="38.2273890" lon="-1.4272680">
        <ele>292.9</ele>
        <time>2021-11-07T10:59:11Z</time>
      </trkpt>
      <trkpt lat="38.2273840" lon="-1.4273120">
        <ele>292.7</ele>
        <time>2021-11-07T10:59:13Z</time>
      </trkpt>
      <trkpt lat="38.2273800" lon="-1.4273560">
        <ele>292.5</ele>
        <time>2021-11-07T10:59:14Z</time>
      </trkpt>
      <trkpt lat="38.2273720" lon="-1.4273910">
        <ele>292.4</ele>
        <time>2021-11-07T10:59:15Z</time>
      </trkpt>
      <trkpt lat="38.2273640" lon="-1.4274300">
        <ele>292.3</ele>
        <time>2021-11-07T10:59:17Z</time>
      </trkpt>
      <trkpt lat="38.2273450" lon="-1.4274730">
        <ele>292.1</ele>
        <time>2021-11-07T10:59:19Z</time>
      </trkpt>
      <trkpt lat="38.2273340" lon="-1.4274920">
        <ele>292.0</ele>
        <time>2021-11-07T10:59:20Z</time>
      </trkpt>
      <trkpt lat="38.2273280" lon="-1.4275080">
        <ele>291.9</ele>
        <time>2021-11-07T10:59:21Z</time>
      </trkpt>
      <trkpt lat="38.2273340" lon="-1.4275200">
        <ele>291.8</ele>
        <time>2021-11-07T10:59:23Z</time>
      </trkpt>
      <trkpt lat="38.2273350" lon="-1.4275000">
        <ele>291.6</ele>
        <time>2021-11-07T10:59:24Z</time>
      </trkpt>
      <trkpt lat="38.2273340" lon="-1.4275050">
        <ele>291.6</ele>
        <time>2021-11-07T10:59:26Z</time>
      </trkpt>
      <trkpt lat="38.2273370" lon="-1.4275000">
        <ele>291.5</ele>
        <time>2021-11-07T10:59:27Z</time>
      </trkpt>
      <trkpt lat="38.2273390" lon="-1.4274950">
        <ele>291.5</ele>
        <time>2021-11-07T10:59:28Z</time>
      </trkpt>
      <trkpt lat="38.2273410" lon="-1.4274920">
        <ele>291.4</ele>
        <time>2021-11-07T10:59:29Z</time>
      </trkpt>
      <trkpt lat="38.2273440" lon="-1.4274900">
        <ele>291.4</ele>
        <time>2021-11-07T10:59:31Z</time>
      </trkpt>
      <trkpt lat="38.2273470" lon="-1.4274880">
        <ele>291.4</ele>
        <time>2021-11-07T10:59:32Z</time>
      </trkpt>
      <trkpt lat="38.2273500" lon="-1.4274860">
        <ele>291.3</ele>
        <time>2021-11-07T10:59:33Z</time>
      </trkpt>
      <trkpt lat="38.2273540" lon="-1.4274830">
        <ele>291.3</ele>
        <time>2021-11-07T10:59:35Z</time>
      </trkpt>
      <trkpt lat="38.2273570" lon="-1.4274810">
        <ele>291.2</ele>
        <time>2021-11-07T10:59:37Z</time>
      </trkpt>
      <trkpt lat="38.2273590" lon="-1.4274810">
        <ele>291.2</ele>
        <time>2021-11-07T10:59:38Z</time>
      </trkpt>
      <trkpt lat="38.2273640" lon="-1.4274820">
        <ele>291.2</ele>
        <time>2021-11-07T10:59:40Z</time>
      </trkpt>
      <trkpt lat="38.2273610" lon="-1.4274800">
        <ele>291.1</ele>
        <time>2021-11-07T10:59:42Z</time>
      </trkpt>
      <trkpt lat="38.2273550" lon="-1.4274780">
        <ele>291.1</ele>
        <time>2021-11-07T10:59:44Z</time>
      </trkpt>
      <trkpt lat="38.2273570" lon="-1.4274780">
        <ele>291.0</ele>
        <time>2021-11-07T10:59:46Z</time>
      </trkpt>
      <trkpt lat="38.2273580" lon="-1.4274780">
        <ele>291.0</ele>
        <time>2021-11-07T10:59:47Z</time>
      </trkpt>
      <trkpt lat="38.2273580" lon="-1.4274790">
        <ele>291.0</ele>
        <time>2021-11-07T10:59:48Z</time>
      </trkpt>
      <trkpt lat="38.2273560" lon="-1.4274790">
        <ele>291.0</ele>
        <time>2021-11-07T10:59:50Z</time>
      </trkpt>
      <trkpt lat="38.2273550" lon="-1.4274790">
        <ele>291.0</ele>
        <time>2021-11-07T10:59:52Z</time>
      </trkpt>
      <trkpt lat="38.2273560" lon="-1.4274830">
        <ele>290.9</ele>
        <time>2021-11-07T10:59:53Z</time>
      </trkpt>
      <trkpt lat="38.2273560" lon="-1.4274950">
        <ele>290.8</ele>
        <time>2021-11-07T10:59:55Z</time>
      </trkpt>
      <trkpt lat="38.2273550" lon="-1.4275020">
        <ele>290.8</ele>
        <time>2021-11-07T10:59:56Z</time>
      </trkpt>
      <trkpt lat="38.2273450" lon="-1.4274940">
        <ele>290.6</ele>
        <time>2021-11-07T10:59:58Z</time>
      </trkpt>
      <trkpt lat="38.2273410" lon="-1.4274930">
        <ele>290.6</ele>
        <time>2021-11-07T11:00:00Z</time>
      </trkpt>
      <trkpt lat="38.2273370" lon="-1.4275040">
        <ele>290.5</ele>
        <time>2021-11-07T11:00:02Z</time>
      </trkpt>
      <trkpt lat="38.2273380" lon="-1.4275170">
        <ele>290.4</ele>
        <time>2021-11-07T11:00:04Z</time>
      </trkpt>
      <trkpt lat="38.2273400" lon="-1.4275200">
        <ele>290.3</ele>
        <time>2021-11-07T11:00:05Z</time>
      </trkpt>
      <trkpt lat="38.2273420" lon="-1.4275210">
        <ele>290.3</ele>
        <time>2021-11-07T11:00:07Z</time>
      </trkpt>
      <trkpt lat="38.2273400" lon="-1.4275230">
        <ele>290.3</ele>
        <time>2021-11-07T11:00:08Z</time>
      </trkpt>
      <trkpt lat="38.2273390" lon="-1.4275240">
        <ele>290.3</ele>
        <time>2021-11-07T11:00:10Z</time>
      </trkpt>
      <trkpt lat="38.2273350" lon="-1.4275250">
        <ele>290.2</ele>
        <time>2021-11-07T11:00:11Z</time>
      </trkpt>
      <trkpt lat="38.2273340" lon="-1.4275250">
        <ele>290.2</ele>
        <time>2021-11-07T11:00:12Z</time>
      </trkpt>
      <trkpt lat="38.2273350" lon="-1.4275250">
        <ele>290.2</ele>
        <time>2021-11-07T11:00:14Z</time>
      </trkpt>
      <trkpt lat="38.2273370" lon="-1.4275250">
        <ele>290.2</ele>
        <time>2021-11-07T11:00:16Z</time>
      </trkpt>
      <trkpt lat="38.2273370" lon="-1.4275250">
        <ele>290.2</ele>
        <time>2021-11-07T11:00:17Z</time>
      </trkpt>
      <trkpt lat="38.2273390" lon="-1.4275250">
        <ele>290.1</ele>
        <time>2021-11-07T11:00:18Z</time>
      </trkpt>
      <trkpt lat="38.2273440" lon="-1.4275300">
        <ele>290.1</ele>
        <time>2021-11-07T11:00:20Z</time>
      </trkpt>
      <trkpt lat="38.2273640" lon="-1.4275430">
        <ele>289.8</ele>
        <time>2021-11-07T11:00:22Z</time>
      </trkpt>
      <trkpt lat="38.2273620" lon="-1.4275430">
        <ele>289.8</ele>
        <time>2021-11-07T11:00:23Z</time>
      </trkpt>
      <trkpt lat="38.2273580" lon="-1.4275410">
        <ele>289.8</ele>
        <time>2021-11-07T11:00:25Z</time>
      </trkpt>
      <trkpt lat="38.2273560" lon="-1.4275400">
        <ele>289.7</ele>
        <time>2021-11-07T11:00:27Z</time>
      </trkpt>
      <trkpt lat="38.2273560" lon="-1.4275400">
        <ele>289.7</ele>
        <time>2021-11-07T11:00:28Z</time>
      </trkpt>
      <trkpt lat="38.2273530" lon="-1.4275420">
        <ele>289.7</ele>
        <time>2021-11-07T11:00:30Z</time>
      </trkpt>
      <trkpt lat="38.2273500" lon="-1.4275400">
        <ele>289.7</ele>
        <time>2021-11-07T11:00:31Z</time>
      </trkpt>
      <trkpt lat="38.2273530" lon="-1.4275380">
        <ele>289.6</ele>
        <time>2021-11-07T11:00:33Z</time>
      </trkpt>
      <trkpt lat="38.2273490" lon="-1.4275440">
        <ele>289.5</ele>
        <time>2021-11-07T11:00:35Z</time>
      </trkpt>
      <trkpt lat="38.2273380" lon="-1.4275510">
        <ele>289.4</ele>
        <time>2021-11-07T11:00:37Z</time>
      </trkpt>
      <trkpt lat="38.2273410" lon="-1.4275540">
        <ele>289.4</ele>
        <time>2021-11-07T11:00:39Z</time>
      </trkpt>
      <trkpt lat="38.2273410" lon="-1.4275600">
        <ele>289.3</ele>
        <time>2021-11-07T11:00:41Z</time>
      </trkpt>
      <trkpt lat="38.2273390" lon="-1.4275620">
        <ele>289.3</ele>
        <time>2021-11-07T11:00:43Z</time>
      </trkpt>
      <trkpt lat="38.2273370" lon="-1.4275620">
        <ele>289.3</ele>
        <time>2021-11-07T11:00:44Z</time>
      </trkpt>
      <trkpt lat="38.2273320" lon="-1.4275630">
        <ele>289.2</ele>
        <time>2021-11-07T11:00:46Z</time>
      </trkpt>
      <trkpt lat="38.2273320" lon="-1.4275630">
        <ele>289.2</ele>
        <time>2021-11-07T11:00:48Z</time>
      </trkpt>
      <trkpt lat="38.2273320" lon="-1.4275630">
        <ele>289.2</ele>
        <time>2021-11-07T11:00:50Z</time>
      </trkpt>
      <trkpt lat="38.2273320" lon="-1.4275630">
        <ele>289.2</ele>
        <time>2021-11-07T11:00:51Z</time>
      </trkpt>
      <trkpt lat="38.2273380" lon="-1.4275550">
        <ele>289.1</ele>
        <time>2021-11-07T11:00:53Z</time>
      </trkpt>
      <trkpt lat="38.2273400" lon="-1.4275520">
        <ele>289.1</ele>
        <time>2021-11-07T11:00:54Z</time>
      </trkpt>
      <trkpt lat="38.2273410" lon="-1.4275490">
        <ele>289.0</ele>
        <time>2021-11-07T11:00:55Z</time>
      </trkpt>
      <trkpt lat="38.2273420" lon="-1.4275470">
        <ele>289.0</ele>
        <time>2021-11-07T11:00:56Z</time>
      </trkpt>
      <trkpt lat="38.2273410" lon="-1.4275470">
        <ele>289.0</ele>
        <time>2021-11-07T11:00:58Z</time>
      </trkpt>
      <trkpt lat="38.2273410" lon="-1.4275470">
        <ele>289.0</ele>
        <time>2021-11-07T11:01:00Z</time>
      </trkpt>
      <trkpt lat="38.2273410" lon="-1.4275480">
        <ele>289.0</ele>
        <time>2021-11-07T11:01:02Z</time>
      </trkpt>
      <trkpt lat="38.2273430" lon="-1.4275450">
        <ele>289.0</ele>
        <time>2021-11-07T11:01:04Z</time>
      </trkpt>
      <trkpt lat="38.2273440" lon="-1.4275440">
        <ele>288.9</ele>
        <time>2021-11-07T11:01:05Z</time>
      </trkpt>
      <trkpt lat="38.2273480" lon="-1.4275430">
        <ele>288.9</ele>
        <time>2021-11-07T11:01:06Z</time>
      </trkpt>
      <trkpt lat="38.2273500" lon="-1.4275430">
        <ele>288.9</ele>
        <time>2021-11-07T11:01:07Z</time>
      </trkpt>
      <trkpt lat="38.2273500" lon="-1.4275430">
        <ele>288.9</ele>
        <time>2021-11-07T11:01:08Z</time>
      </trkpt>
      <trkpt lat="38.2273510" lon="-1.4275440">
        <ele>288.9</ele>
        <time>2021-11-07T11:01:10Z</time>
      </trkpt>
      <trkpt lat="38.2273500" lon="-1.4275440">
        <ele>288.9</ele>
        <time>2021-11-07T11:01:11Z</time>
      </trkpt>
      <trkpt lat="38.2273500" lon="-1.4275440">
        <ele>288.9</ele>
        <time>2021-11-07T11:01:13Z</time>
      </trkpt>
      <trkpt lat="38.2273500" lon="-1.4275440">
        <ele>288.9</ele>
        <time>2021-11-07T11:01:15Z</time>
      </trkpt>
      <trkpt lat="38.2273510" lon="-1.4275440">
        <ele>288.8</ele>
        <time>2021-11-07T11:01:16Z</time>
      </trkpt>
      <trkpt lat="38.2273590" lon="-1.4275430">
        <ele>288.7</ele>
        <time>2021-11-07T11:01:18Z</time>
      </trkpt>
      <trkpt lat="38.2273600" lon="-1.4275410">
        <ele>288.7</ele>
        <time>2021-11-07T11:01:20Z</time>
      </trkpt>
      <trkpt lat="38.2273590" lon="-1.4275400">
        <ele>288.7</ele>
        <time>2021-11-07T11:01:21Z</time>
      </trkpt>
      <trkpt lat="38.2273590" lon="-1.4275400">
        <ele>288.7</ele>
        <time>2021-11-07T11:01:22Z</time>
      </trkpt>
      <trkpt lat="38.2273580" lon="-1.4275400">
        <ele>288.7</ele>
        <time>2021-11-07T11:01:24Z</time>
      </trkpt>
      <trkpt lat="38.2273580" lon="-1.4275400">
        <ele>288.7</ele>
        <time>2021-11-07T11:01:26Z</time>
      </trkpt>
      <trkpt lat="38.2273580" lon="-1.4275400">
        <ele>288.7</ele>
        <time>2021-11-07T11:01:27Z</time>
      </trkpt>
      <trkpt lat="38.2273580" lon="-1.4275400">
        <ele>288.7</ele>
        <time>2021-11-07T11:01:28Z</time>
      </trkpt>
      <trkpt lat="38.2273590" lon="-1.4275390">
        <ele>288.7</ele>
        <time>2021-11-07T11:01:30Z</time>
      </trkpt>
      <trkpt lat="38.2273610" lon="-1.4275370">
        <ele>288.7</ele>
        <time>2021-11-07T11:01:31Z</time>
      </trkpt>
      <trkpt lat="38.2273610" lon="-1.4275360">
        <ele>288.6</ele>
        <time>2021-11-07T11:01:33Z</time>
      </trkpt>
      <trkpt lat="38.2273670" lon="-1.4275290">
        <ele>288.6</ele>
        <time>2021-11-07T11:01:35Z</time>
      </trkpt>
      <trkpt lat="38.2273690" lon="-1.4275280">
        <ele>288.5</ele>
        <time>2021-11-07T11:01:36Z</time>
      </trkpt>
      <trkpt lat="38.2273650" lon="-1.4275330">
        <ele>288.5</ele>
        <time>2021-11-07T11:01:38Z</time>
      </trkpt>
      <trkpt lat="38.2273630" lon="-1.4275350">
        <ele>288.4</ele>
        <time>2021-11-07T11:01:40Z</time>
      </trkpt>
      <trkpt lat="38.2273630" lon="-1.4275360">
        <ele>288.4</ele>
        <time>2021-11-07T11:01:41Z</time>
      </trkpt>
      <trkpt lat="38.2273630" lon="-1.4275350">
        <ele>288.4</ele>
        <time>2021-11-07T11:01:43Z</time>
      </trkpt>
      <trkpt lat="38.2273630" lon="-1.4275350">
        <ele>288.4</ele>
        <time>2021-11-07T11:01:44Z</time>
      </trkpt>
      <trkpt lat="38.2273640" lon="-1.4275350">
        <ele>288.4</ele>
        <time>2021-11-07T11:01:46Z</time>
      </trkpt>
      <trkpt lat="38.2273630" lon="-1.4275350">
        <ele>288.4</ele>
        <time>2021-11-07T11:01:47Z</time>
      </trkpt>
      <trkpt lat="38.2273640" lon="-1.4275350">
        <ele>288.4</ele>
        <time>2021-11-07T11:01:48Z</time>
      </trkpt>
      <trkpt lat="38.2273690" lon="-1.4275180">
        <ele>288.2</ele>
        <time>2021-11-07T11:01:50Z</time>
      </trkpt>
      <trkpt lat="38.2273700" lon="-1.4274840">
        <ele>287.9</ele>
        <time>2021-11-07T11:01:52Z</time>
      </trkpt>
      <trkpt lat="38.2273750" lon="-1.4274380">
        <ele>287.5</ele>
        <time>2021-11-07T11:01:54Z</time>
      </trkpt>
      <trkpt lat="38.2273810" lon="-1.4274140">
        <ele>287.3</ele>
        <time>2021-11-07T11:01:55Z</time>
      </trkpt>
      <trkpt lat="38.2274040" lon="-1.4273790">
        <ele>286.9</ele>
        <time>2021-11-07T11:01:57Z</time>
      </trkpt>
      <trkpt lat="38.2274230" lon="-1.4273710">
        <ele>286.7</ele>
        <time>2021-11-07T11:01:58Z</time>
      </trkpt>
      <trkpt lat="38.2274390" lon="-1.4273470">
        <ele>286.4</ele>
        <time>2021-11-07T11:02:00Z</time>
      </trkpt>
      <trkpt lat="38.2274550" lon="-1.4273230">
        <ele>286.1</ele>
        <time>2021-11-07T11:02:01Z</time>
      </trkpt>
      <trkpt lat="38.2274740" lon="-1.4272930">
        <ele>285.8</ele>
        <time>2021-11-07T11:02:02Z</time>
      </trkpt>
      <trkpt lat="38.2274950" lon="-1.4272520">
        <ele>285.4</ele>
        <time>2021-11-07T11:02:04Z</time>
      </trkpt>
      <trkpt lat="38.2275190" lon="-1.4271880">
        <ele>284.8</ele>
        <time>2021-11-07T11:02:05Z</time>
      </trkpt>
      <trkpt lat="38.2275220" lon="-1.4271500">
        <ele>284.4</ele>
        <time>2021-11-07T11:02:06Z</time>
      </trkpt>
      <trkpt lat="38.2275250" lon="-1.4271070">
        <ele>284.0</ele>
        <time>2021-11-07T11:02:07Z</time>
      </trkpt>
      <trkpt lat="38.2275350" lon="-1.4270660">
        <ele>283.6</ele>
        <time>2021-11-07T11:02:09Z</time>
      </trkpt>
      <trkpt lat="38.2275480" lon="-1.4270200">
        <ele>283.2</ele>
        <time>2021-11-07T11:02:10Z</time>
      </trkpt>
      <trkpt lat="38.2275660" lon="-1.4269570">
        <ele>282.6</ele>
        <time>2021-11-07T11:02:11Z</time>
      </trkpt>
      <trkpt lat="38.2275880" lon="-1.4269110">
        <ele>282.1</ele>
        <time>2021-11-07T11:02:12Z</time>
      </trkpt>
      <trkpt lat="38.2276300" lon="-1.4268560">
        <ele>281.4</ele>
        <time>2021-11-07T11:02:13Z</time>
      </trkpt>
      <trkpt lat="38.2276580" lon="-1.4268180">
        <ele>280.9</ele>
        <time>2021-11-07T11:02:14Z</time>
      </trkpt>
      <trkpt lat="38.2276940" lon="-1.4267790">
        <ele>280.3</ele>
        <time>2021-11-07T11:02:16Z</time>
      </trkpt>
      <trkpt lat="38.2277420" lon="-1.4267400">
        <ele>279.6</ele>
        <time>2021-11-07T11:02:17Z</time>
      </trkpt>
      <trkpt lat="38.2277820" lon="-1.4267150">
        <ele>279.1</ele>
        <time>2021-11-07T11:02:18Z</time>
      </trkpt>
      <trkpt lat="38.2278630" lon="-1.4266680">
        <ele>278.0</ele>
        <time>2021-11-07T11:02:20Z</time>
      </trkpt>
      <trkpt lat="38.2279080" lon="-1.4266620">
        <ele>277.5</ele>
        <time>2021-11-07T11:02:21Z</time>
      </trkpt>
      <trkpt lat="38.2279440" lon="-1.4266410">
        <ele>277.1</ele>
        <time>2021-11-07T11:02:22Z</time>
      </trkpt>
      <trkpt lat="38.2279910" lon="-1.4265920">
        <ele>276.4</ele>
        <time>2021-11-07T11:02:24Z</time>
      </trkpt>
      <trkpt lat="38.2280200" lon="-1.4265620">
        <ele>276.0</ele>
        <time>2021-11-07T11:02:25Z</time>
      </trkpt>
      <trkpt lat="38.2280620" lon="-1.4265190">
        <ele>275.3</ele>
        <time>2021-11-07T11:02:26Z</time>
      </trkpt>
      <trkpt lat="38.2280930" lon="-1.4264890">
        <ele>274.9</ele>
        <time>2021-11-07T11:02:27Z</time>
      </trkpt>
      <trkpt lat="38.2281390" lon="-1.4264530">
        <ele>274.2</ele>
        <time>2021-11-07T11:02:29Z</time>
      </trkpt>
      <trkpt lat="38.2281730" lon="-1.4264230">
        <ele>273.8</ele>
        <time>2021-11-07T11:02:30Z</time>
      </trkpt>
      <trkpt lat="38.2282330" lon="-1.4263720">
        <ele>272.9</ele>
        <time>2021-11-07T11:02:31Z</time>
      </trkpt>
      <trkpt lat="38.2282680" lon="-1.4263510">
        <ele>272.5</ele>
        <time>2021-11-07T11:02:33Z</time>
      </trkpt>
      <trkpt lat="38.2283360" lon="-1.4263110">
        <ele>271.6</ele>
        <time>2021-11-07T11:02:35Z</time>
      </trkpt>
      <trkpt lat="38.2283740" lon="-1.4262970">
        <ele>271.2</ele>
        <time>2021-11-07T11:02:36Z</time>
      </trkpt>
      <trkpt lat="38.2284390" lon="-1.4262750">
        <ele>270.5</ele>
        <time>2021-11-07T11:02:37Z</time>
      </trkpt>
      <trkpt lat="38.2284750" lon="-1.4262590">
        <ele>270.1</ele>
        <time>2021-11-07T11:02:38Z</time>
      </trkpt>
      <trkpt lat="38.2285130" lon="-1.4262360">
        <ele>269.8</ele>
        <time>2021-11-07T11:02:40Z</time>
      </trkpt>
      <trkpt lat="38.2285440" lon="-1.4262160">
        <ele>269.5</ele>
        <time>2021-11-07T11:02:41Z</time>
      </trkpt>
      <trkpt lat="38.2285810" lon="-1.4261880">
        <ele>269.1</ele>
        <time>2021-11-07T11:02:42Z</time>
      </trkpt>
      <trkpt lat="38.2286130" lon="-1.4261490">
        <ele>268.7</ele>
        <time>2021-11-07T11:02:43Z</time>
      </trkpt>
      <trkpt lat="38.2286450" lon="-1.4260900">
        <ele>268.2</ele>
        <time>2021-11-07T11:02:45Z</time>
      </trkpt>
      <trkpt lat="38.2286660" lon="-1.4260510">
        <ele>267.9</ele>
        <time>2021-11-07T11:02:46Z</time>
      </trkpt>
      <trkpt lat="38.2286850" lon="-1.4260060">
        <ele>267.5</ele>
        <time>2021-11-07T11:02:47Z</time>
      </trkpt>
      <trkpt lat="38.2287020" lon="-1.4259660">
        <ele>267.2</ele>
        <time>2021-11-07T11:02:49Z</time>
      </trkpt>
      <trkpt lat="38.2287120" lon="-1.4259320">
        <ele>266.9</ele>
        <time>2021-11-07T11:02:50Z</time>
      </trkpt>
      <trkpt lat="38.2287220" lon="-1.4258810">
        <ele>266.4</ele>
        <time>2021-11-07T11:02:51Z</time>
      </trkpt>
      <trkpt lat="38.2287380" lon="-1.4258350">
        <ele>266.0</ele>
        <time>2021-11-07T11:02:52Z</time>
      </trkpt>
      <trkpt lat="38.2287680" lon="-1.4258060">
        <ele>265.6</ele>
        <time>2021-11-07T11:02:54Z</time>
      </trkpt>
      <trkpt lat="38.2288030" lon="-1.4257910">
        <ele>265.1</ele>
        <time>2021-11-07T11:02:55Z</time>
      </trkpt>
      <trkpt lat="38.2288360" lon="-1.4257910">
        <ele>264.7</ele>
        <time>2021-11-07T11:02:57Z</time>
      </trkpt>
      <trkpt lat="38.2288750" lon="-1.4258130">
        <ele>264.2</ele>
        <time>2021-11-07T11:02:58Z</time>
      </trkpt>
      <trkpt lat="38.2289040" lon="-1.4258370">
        <ele>263.8</ele>
        <time>2021-11-07T11:02:59Z</time>
      </trkpt>
      <trkpt lat="38.2289300" lon="-1.4258760">
        <ele>263.3</ele>
        <time>2021-11-07T11:03:00Z</time>
      </trkpt>
      <trkpt lat="38.2289620" lon="-1.4259380">
        <ele>262.7</ele>
        <time>2021-11-07T11:03:02Z</time>
      </trkpt>
      <trkpt lat="38.2289770" lon="-1.4260050">
        <ele>262.2</ele>
        <time>2021-11-07T11:03:03Z</time>
      </trkpt>
      <trkpt lat="38.2289930" lon="-1.4260710">
        <ele>261.7</ele>
        <time>2021-11-07T11:03:04Z</time>
      </trkpt>
      <trkpt lat="38.2289950" lon="-1.4261270">
        <ele>261.3</ele>
        <time>2021-11-07T11:03:05Z</time>
      </trkpt>
      <trkpt lat="38.2289980" lon="-1.4261890">
        <ele>260.8</ele>
        <time>2021-11-07T11:03:06Z</time>
      </trkpt>
      <trkpt lat="38.2289960" lon="-1.4262480">
        <ele>260.4</ele>
        <time>2021-11-07T11:03:08Z</time>
      </trkpt>
      <trkpt lat="38.2289940" lon="-1.4263230">
        <ele>259.8</ele>
        <time>2021-11-07T11:03:09Z</time>
      </trkpt>
      <trkpt lat="38.2289980" lon="-1.4263750">
        <ele>259.4</ele>
        <time>2021-11-07T11:03:10Z</time>
      </trkpt>
      <trkpt lat="38.2290060" lon="-1.4264390">
        <ele>258.9</ele>
        <time>2021-11-07T11:03:11Z</time>
      </trkpt>
      <trkpt lat="38.2290120" lon="-1.4264910">
        <ele>258.4</ele>
        <time>2021-11-07T11:03:13Z</time>
      </trkpt>
      <trkpt lat="38.2290170" lon="-1.4265540">
        <ele>257.9</ele>
        <time>2021-11-07T11:03:14Z</time>
      </trkpt>
      <trkpt lat="38.2290240" lon="-1.4265990">
        <ele>257.4</ele>
        <time>2021-11-07T11:03:15Z</time>
      </trkpt>
      <trkpt lat="38.2290360" lon="-1.4266400">
        <ele>257.0</ele>
        <time>2021-11-07T11:03:16Z</time>
      </trkpt>
      <trkpt lat="38.2290440" lon="-1.4266580">
        <ele>256.8</ele>
        <time>2021-11-07T11:03:17Z</time>
      </trkpt>
      <trkpt lat="38.2290500" lon="-1.4266330">
        <ele>256.6</ele>
        <time>2021-11-07T11:03:19Z</time>
      </trkpt>
      <trkpt lat="38.2290580" lon="-1.4266070">
        <ele>256.3</ele>
        <time>2021-11-07T11:03:20Z</time>
      </trkpt>
      <trkpt lat="38.2290770" lon="-1.4265530">
        <ele>255.8</ele>
        <time>2021-11-07T11:03:21Z</time>
      </trkpt>
      <trkpt lat="38.2291010" lon="-1.4264970">
        <ele>255.2</ele>
        <time>2021-11-07T11:03:23Z</time>
      </trkpt>
      <trkpt lat="38.2291300" lon="-1.4264330">
        <ele>254.5</ele>
        <time>2021-11-07T11:03:24Z</time>
      </trkpt>
      <trkpt lat="38.2291500" lon="-1.4263890">
        <ele>254.0</ele>
        <time>2021-11-07T11:03:25Z</time>
      </trkpt>
      <trkpt lat="38.2291750" lon="-1.4263420">
        <ele>253.5</ele>
        <time>2021-11-07T11:03:26Z</time>
      </trkpt>
      <trkpt lat="38.2292040" lon="-1.4263010">
        <ele>253.1</ele>
        <time>2021-11-07T11:03:28Z</time>
      </trkpt>
      <trkpt lat="38.2292370" lon="-1.4262430">
        <ele>252.4</ele>
        <time>2021-11-07T11:03:29Z</time>
      </trkpt>
      <trkpt lat="38.2292690" lon="-1.4261830">
        <ele>251.8</ele>
        <time>2021-11-07T11:03:30Z</time>
      </trkpt>
      <trkpt lat="38.2292930" lon="-1.4261300">
        <ele>251.3</ele>
        <time>2021-11-07T11:03:32Z</time>
      </trkpt>
      <trkpt lat="38.2293240" lon="-1.4260650">
        <ele>250.6</ele>
        <time>2021-11-07T11:03:33Z</time>
      </trkpt>
      <trkpt lat="38.2293460" lon="-1.4260120">
        <ele>250.1</ele>
        <time>2021-11-07T11:03:34Z</time>
      </trkpt>
      <trkpt lat="38.2293630" lon="-1.4259630">
        <ele>248.7</ele>
        <time>2021-11-07T11:03:35Z</time>
      </trkpt>
      <trkpt lat="38.2293750" lon="-1.4259090">
        <ele>248.5</ele>
        <time>2021-11-07T11:03:36Z</time>
      </trkpt>
      <trkpt lat="38.2293880" lon="-1.4258550">
        <ele>247.1</ele>
        <time>2021-11-07T11:03:38Z</time>
      </trkpt>
      <trkpt lat="38.2293830" lon="-1.4257830">
        <ele>246.9</ele>
        <time>2021-11-07T11:03:40Z</time>
      </trkpt>
      <trkpt lat="38.2293590" lon="-1.4257300">
        <ele>247.9</ele>
        <time>2021-11-07T11:03:41Z</time>
      </trkpt>
      <trkpt lat="38.2293340" lon="-1.4256710">
        <ele>248.8</ele>
        <time>2021-11-07T11:03:42Z</time>
      </trkpt>
      <trkpt lat="38.2293100" lon="-1.4256350">
        <ele>249.6</ele>
        <time>2021-11-07T11:03:43Z</time>
      </trkpt>
      <trkpt lat="38.2292770" lon="-1.4255990">
        <ele>250.4</ele>
        <time>2021-11-07T11:03:45Z</time>
      </trkpt>
      <trkpt lat="38.2292550" lon="-1.4255600">
        <ele>250.2</ele>
        <time>2021-11-07T11:03:46Z</time>
      </trkpt>
      <trkpt lat="38.2292730" lon="-1.4255340">
        <ele>250.0</ele>
        <time>2021-11-07T11:03:47Z</time>
      </trkpt>
      <trkpt lat="38.2292850" lon="-1.4255330">
        <ele>248.7</ele>
        <time>2021-11-07T11:03:48Z</time>
      </trkpt>
      <trkpt lat="38.2293070" lon="-1.4255640">
        <ele>248.5</ele>
        <time>2021-11-07T11:03:50Z</time>
      </trkpt>
      <trkpt lat="38.2293160" lon="-1.4255760">
        <ele>247.3</ele>
        <time>2021-11-07T11:03:51Z</time>
      </trkpt>
      <trkpt lat="38.2293450" lon="-1.4256110">
        <ele>247.0</ele>
        <time>2021-11-07T11:03:52Z</time>
      </trkpt>
      <trkpt lat="38.2293550" lon="-1.4256240">
        <ele>245.7</ele>
        <time>2021-11-07T11:03:53Z</time>
      </trkpt>
      <trkpt lat="38.2293780" lon="-1.4256630">
        <ele>245.5</ele>
        <time>2021-11-07T11:03:54Z</time>
      </trkpt>
      <trkpt lat="38.2294110" lon="-1.4256870">
        <ele>244.1</ele>
        <time>2021-11-07T11:03:55Z</time>
      </trkpt>
      <trkpt lat="38.2294470" lon="-1.4257100">
        <ele>242.7</ele>
        <time>2021-11-07T11:03:57Z</time>
      </trkpt>
      <trkpt lat="38.2295000" lon="-1.4257650">
        <ele>240.1</ele>
        <time>2021-11-07T11:03:58Z</time>
      </trkpt>
      <trkpt lat="38.2295430" lon="-1.4258080">
        <ele>238.8</ele>
        <time>2021-11-07T11:04:00Z</time>
      </trkpt>
      <trkpt lat="38.2295510" lon="-1.4257820">
        <ele>237.0</ele>
        <time>2021-11-07T11:04:02Z</time>
      </trkpt>
      <trkpt lat="38.2295350" lon="-1.4257670">
        <ele>238.4</ele>
        <time>2021-11-07T11:04:03Z</time>
      </trkpt>
      <trkpt lat="38.2295190" lon="-1.4257460">
        <ele>238.2</ele>
        <time>2021-11-07T11:04:04Z</time>
      </trkpt>
      <trkpt lat="38.2295000" lon="-1.4257200">
        <ele>239.1</ele>
        <time>2021-11-07T11:04:06Z</time>
      </trkpt>
      <trkpt lat="38.2294670" lon="-1.4256790">
        <ele>240.0</ele>
        <time>2021-11-07T11:04:07Z</time>
      </trkpt>
      <trkpt lat="38.2294470" lon="-1.4256320">
        <ele>241.0</ele>
        <time>2021-11-07T11:04:08Z</time>
      </trkpt>
      <trkpt lat="38.2294300" lon="-1.4255860">
        <ele>240.8</ele>
        <time>2021-11-07T11:04:10Z</time>
      </trkpt>
      <trkpt lat="38.2294060" lon="-1.4255200">
        <ele>241.7</ele>
        <time>2021-11-07T11:04:11Z</time>
      </trkpt>
      <trkpt lat="38.2294000" lon="-1.4254610">
        <ele>241.5</ele>
        <time>2021-11-07T11:04:13Z</time>
      </trkpt>
      <trkpt lat="38.2294140" lon="-1.4253980">
        <ele>241.3</ele>
        <time>2021-11-07T11:04:14Z</time>
      </trkpt>
      <trkpt lat="38.2294380" lon="-1.4253530">
        <ele>240.0</ele>
        <time>2021-11-07T11:04:15Z</time>
      </trkpt>
      <trkpt lat="38.2294720" lon="-1.4253270">
        <ele>238.7</ele>
        <time>2021-11-07T11:04:17Z</time>
      </trkpt>
      <trkpt lat="38.2295180" lon="-1.4252950">
        <ele>236.5</ele>
        <time>2021-11-07T11:04:18Z</time>
      </trkpt>
      <trkpt lat="38.2295560" lon="-1.4252760">
        <ele>234.9</ele>
        <time>2021-11-07T11:04:20Z</time>
      </trkpt>
      <trkpt lat="38.2295940" lon="-1.4252400">
        <ele>233.9</ele>
        <time>2021-11-07T11:04:21Z</time>
      </trkpt>
      <trkpt lat="38.2296180" lon="-1.4252060">
        <ele>232.9</ele>
        <time>2021-11-07T11:04:22Z</time>
      </trkpt>
      <trkpt lat="38.2296510" lon="-1.4251670">
        <ele>232.8</ele>
        <time>2021-11-07T11:04:24Z</time>
      </trkpt>
      <trkpt lat="38.2296820" lon="-1.4251230">
        <ele>231.6</ele>
        <time>2021-11-07T11:04:25Z</time>
      </trkpt>
      <trkpt lat="38.2297010" lon="-1.4250960">
        <ele>230.4</ele>
        <time>2021-11-07T11:04:26Z</time>
      </trkpt>
      <trkpt lat="38.2297210" lon="-1.4250630">
        <ele>229.3</ele>
        <time>2021-11-07T11:04:27Z</time>
      </trkpt>
      <trkpt lat="38.2297430" lon="-1.4250260">
        <ele>229.1</ele>
        <time>2021-11-07T11:04:28Z</time>
      </trkpt>
      <trkpt lat="38.2297790" lon="-1.4249720">
        <ele>228.1</ele>
        <time>2021-11-07T11:04:30Z</time>
      </trkpt>
      <trkpt lat="38.2298040" lon="-1.4249230">
        <ele>227.1</ele>
        <time>2021-11-07T11:04:31Z</time>
      </trkpt>
      <trkpt lat="38.2298260" lon="-1.4248920">
        <ele>226.1</ele>
        <time>2021-11-07T11:04:32Z</time>
      </trkpt>
      <trkpt lat="38.2298680" lon="-1.4248880">
        <ele>225.0</ele>
        <time>2021-11-07T11:04:34Z</time>
      </trkpt>
      <trkpt lat="38.2298820" lon="-1.4249060">
        <ele>224.8</ele>
        <time>2021-11-07T11:04:35Z</time>
      </trkpt>
      <trkpt lat="38.2298950" lon="-1.4249250">
        <ele>223.5</ele>
        <time>2021-11-07T11:04:36Z</time>
      </trkpt>
      <trkpt lat="38.2298960" lon="-1.4249650">
        <ele>223.2</ele>
        <time>2021-11-07T11:04:37Z</time>
      </trkpt>
      <trkpt lat="38.2299000" lon="-1.4250090">
        <ele>222.8</ele>
        <time>2021-11-07T11:04:38Z</time>
      </trkpt>
      <trkpt lat="38.2298860" lon="-1.4250810">
        <ele>223.5</ele>
        <time>2021-11-07T11:04:40Z</time>
      </trkpt>
      <trkpt lat="38.2298760" lon="-1.4251130">
        <ele>223.1</ele>
        <time>2021-11-07T11:04:41Z</time>
      </trkpt>
      <trkpt lat="38.2298630" lon="-1.4251620">
        <ele>222.8</ele>
        <time>2021-11-07T11:04:42Z</time>
      </trkpt>
      <trkpt lat="38.2298550" lon="-1.4252040">
        <ele>222.4</ele>
        <time>2021-11-07T11:04:43Z</time>
      </trkpt>
      <trkpt lat="38.2298550" lon="-1.4252400">
        <ele>222.0</ele>
        <time>2021-11-07T11:04:44Z</time>
      </trkpt>
      <trkpt lat="38.2298710" lon="-1.4252740">
        <ele>221.7</ele>
        <time>2021-11-07T11:04:45Z</time>
      </trkpt>
      <trkpt lat="38.2298780" lon="-1.4252810">
        <ele>221.5</ele>
        <time>2021-11-07T11:04:46Z</time>
      </trkpt>
      <trkpt lat="38.2299040" lon="-1.4252730">
        <ele>220.2</ele>
        <time>2021-11-07T11:04:48Z</time>
      </trkpt>
      <trkpt lat="38.2299270" lon="-1.4252510">
        <ele>219.1</ele>
        <time>2021-11-07T11:04:49Z</time>
      </trkpt>
      <trkpt lat="38.2299690" lon="-1.4252190">
        <ele>217.8</ele>
        <time>2021-11-07T11:04:50Z</time>
      </trkpt>
      <trkpt lat="38.2299870" lon="-1.4252050">
        <ele>217.7</ele>
        <time>2021-11-07T11:04:51Z</time>
      </trkpt>
      <trkpt lat="38.2300160" lon="-1.4251710">
        <ele>216.6</ele>
        <time>2021-11-07T11:04:53Z</time>
      </trkpt>
      <trkpt lat="38.2300610" lon="-1.4251170">
        <ele>214.6</ele>
        <time>2021-11-07T11:04:54Z</time>
      </trkpt>
      <trkpt lat="38.2300930" lon="-1.4250840">
        <ele>213.6</ele>
        <time>2021-11-07T11:04:55Z</time>
      </trkpt>
      <trkpt lat="38.2301210" lon="-1.4250350">
        <ele>213.5</ele>
        <time>2021-11-07T11:04:57Z</time>
      </trkpt>
      <trkpt lat="38.2301540" lon="-1.4249760">
        <ele>212.5</ele>
        <time>2021-11-07T11:04:58Z</time>
      </trkpt>
      <trkpt lat="38.2301770" lon="-1.4249340">
        <ele>211.5</ele>
        <time>2021-11-07T11:04:59Z</time>
      </trkpt>
      <trkpt lat="38.2302090" lon="-1.4248910">
        <ele>210.4</ele>
        <time>2021-11-07T11:05:00Z</time>
      </trkpt>
      <trkpt lat="38.2302350" lon="-1.4248480">
        <ele>209.3</ele>
        <time>2021-11-07T11:05:02Z</time>
      </trkpt>
      <trkpt lat="38.2302540" lon="-1.4248070">
        <ele>209.2</ele>
        <time>2021-11-07T11:05:03Z</time>
      </trkpt>
      <trkpt lat="38.2302990" lon="-1.4247470">
        <ele>207.3</ele>
        <time>2021-11-07T11:05:05Z</time>
      </trkpt>
      <trkpt lat="38.2303220" lon="-1.4247100">
        <ele>207.2</ele>
        <time>2021-11-07T11:05:06Z</time>
      </trkpt>
      <trkpt lat="38.2303500" lon="-1.4246620">
        <ele>206.2</ele>
        <time>2021-11-07T11:05:07Z</time>
      </trkpt>
      <trkpt lat="38.2303800" lon="-1.4246550">
        <ele>205.2</ele>
        <time>2021-11-07T11:05:08Z</time>
      </trkpt>
      <trkpt lat="38.2303870" lon="-1.4246620">
        <ele>204.9</ele>
        <time>2021-11-07T11:05:09Z</time>
      </trkpt>
      <trkpt lat="38.2304130" lon="-1.4246880">
        <ele>203.9</ele>
        <time>2021-11-07T11:05:11Z</time>
      </trkpt>
      <trkpt lat="38.2304290" lon="-1.4247300">
        <ele>202.7</ele>
        <time>2021-11-07T11:05:13Z</time>
      </trkpt>
      <trkpt lat="38.2304250" lon="-1.4247820">
        <ele>203.2</ele>
        <time>2021-11-07T11:05:14Z</time>
      </trkpt>
      <trkpt lat="38.2304130" lon="-1.4248200">
        <ele>203.6</ele>
        <time>2021-11-07T11:05:15Z</time>
      </trkpt>
      <trkpt lat="38.2303930" lon="-1.4248690">
        <ele>204.2</ele>
        <time>2021-11-07T11:05:16Z</time>
      </trkpt>
      <trkpt lat="38.2303740" lon="-1.4249140">
        <ele>204.8</ele>
        <time>2021-11-07T11:05:17Z</time>
      </trkpt>
      <trkpt lat="38.2303620" lon="-1.4249580">
        <ele>205.3</ele>
        <time>2021-11-07T11:05:19Z</time>
      </trkpt>
      <trkpt lat="38.2303440" lon="-1.4250060">
        <ele>205.8</ele>
        <time>2021-11-07T11:05:20Z</time>
      </trkpt>
      <trkpt lat="38.2303210" lon="-1.4250550">
        <ele>206.5</ele>
        <time>2021-11-07T11:05:21Z</time>
      </trkpt>
      <trkpt lat="38.2303030" lon="-1.4251050">
        <ele>207.1</ele>
        <time>2021-11-07T11:05:22Z</time>
      </trkpt>
      <trkpt lat="38.2302610" lon="-1.4251580">
        <ele>207.8</ele>
        <time>2021-11-07T11:05:24Z</time>
      </trkpt>
      <trkpt lat="38.2302420" lon="-1.4251980">
        <ele>207.4</ele>
        <time>2021-11-07T11:05:25Z</time>
      </trkpt>
      <trkpt lat="38.2302540" lon="-1.4252430">
        <ele>207.0</ele>
        <time>2021-11-07T11:05:27Z</time>
      </trkpt>
      <trkpt lat="38.2302660" lon="-1.4252460">
        <ele>206.8</ele>
        <time>2021-11-07T11:05:28Z</time>
      </trkpt>
      <trkpt lat="38.2302780" lon="-1.4252490">
        <ele>206.7</ele>
        <time>2021-11-07T11:05:29Z</time>
      </trkpt>
      <trkpt lat="38.2302990" lon="-1.4252240">
        <ele>206.4</ele>
        <time>2021-11-07T11:05:30Z</time>
      </trkpt>
      <trkpt lat="38.2303200" lon="-1.4251950">
        <ele>206.0</ele>
        <time>2021-11-07T11:05:31Z</time>
      </trkpt>
      <trkpt lat="38.2303470" lon="-1.4251440">
        <ele>205.5</ele>
        <time>2021-11-07T11:05:33Z</time>
      </trkpt>
      <trkpt lat="38.2303720" lon="-1.4250820">
        <ele>204.9</ele>
        <time>2021-11-07T11:05:34Z</time>
      </trkpt>
      <trkpt lat="38.2303880" lon="-1.4250340">
        <ele>204.5</ele>
        <time>2021-11-07T11:05:35Z</time>
      </trkpt>
      <trkpt lat="38.2304060" lon="-1.4249700">
        <ele>203.9</ele>
        <time>2021-11-07T11:05:37Z</time>
      </trkpt>
      <trkpt lat="38.2304210" lon="-1.4249310">
        <ele>203.6</ele>
        <time>2021-11-07T11:05:38Z</time>
      </trkpt>
      <trkpt lat="38.2304400" lon="-1.4248950">
        <ele>203.2</ele>
        <time>2021-11-07T11:05:39Z</time>
      </trkpt>
      <trkpt lat="38.2304580" lon="-1.4248570">
        <ele>202.9</ele>
        <time>2021-11-07T11:05:40Z</time>
      </trkpt>
      <trkpt lat="38.2304770" lon="-1.4248160">
        <ele>202.5</ele>
        <time>2021-11-07T11:05:41Z</time>
      </trkpt>
      <trkpt lat="38.2304970" lon="-1.4247580">
        <ele>202.0</ele>
        <time>2021-11-07T11:05:42Z</time>
      </trkpt>
      <trkpt lat="38.2305080" lon="-1.4247150">
        <ele>201.7</ele>
        <time>2021-11-07T11:05:43Z</time>
      </trkpt>
      <trkpt lat="38.2305170" lon="-1.4246780">
        <ele>201.4</ele>
        <time>2021-11-07T11:05:44Z</time>
      </trkpt>
      <trkpt lat="38.2305220" lon="-1.4246300">
        <ele>201.0</ele>
        <time>2021-11-07T11:05:46Z</time>
      </trkpt>
      <trkpt lat="38.2305320" lon="-1.4245770">
        <ele>200.6</ele>
        <time>2021-11-07T11:05:47Z</time>
      </trkpt>
      <trkpt lat="38.2305470" lon="-1.4245400">
        <ele>200.3</ele>
        <time>2021-11-07T11:05:48Z</time>
      </trkpt>
      <trkpt lat="38.2305630" lon="-1.4244840">
        <ele>199.9</ele>
        <time>2021-11-07T11:05:49Z</time>
      </trkpt>
      <trkpt lat="38.2305710" lon="-1.4244390">
        <ele>199.6</ele>
        <time>2021-11-07T11:05:50Z</time>
      </trkpt>
      <trkpt lat="38.2305730" lon="-1.4243940">
        <ele>199.3</ele>
        <time>2021-11-07T11:05:52Z</time>
      </trkpt>
      <trkpt lat="38.2305740" lon="-1.4243420">
        <ele>199.0</ele>
        <time>2021-11-07T11:05:53Z</time>
      </trkpt>
      <trkpt lat="38.2305540" lon="-1.4243040">
        <ele>198.7</ele>
        <time>2021-11-07T11:05:54Z</time>
      </trkpt>
      <trkpt lat="38.2305230" lon="-1.4242820">
        <ele>198.4</ele>
        <time>2021-11-07T11:05:55Z</time>
      </trkpt>
      <trkpt lat="38.2304830" lon="-1.4242640">
        <ele>198.1</ele>
        <time>2021-11-07T11:05:56Z</time>
      </trkpt>
      <trkpt lat="38.2304530" lon="-1.4242510">
        <ele>197.8</ele>
        <time>2021-11-07T11:05:58Z</time>
      </trkpt>
      <trkpt lat="38.2304220" lon="-1.4242390">
        <ele>197.6</ele>
        <time>2021-11-07T11:05:59Z</time>
      </trkpt>
      <trkpt lat="38.2303760" lon="-1.4242160">
        <ele>197.2</ele>
        <time>2021-11-07T11:06:00Z</time>
      </trkpt>
      <trkpt lat="38.2303400" lon="-1.4242080">
        <ele>197.0</ele>
        <time>2021-11-07T11:06:02Z</time>
      </trkpt>
      <trkpt lat="38.2302980" lon="-1.4241770">
        <ele>196.6</ele>
        <time>2021-11-07T11:06:03Z</time>
      </trkpt>
      <trkpt lat="38.2302700" lon="-1.4241340">
        <ele>196.5</ele>
        <time>2021-11-07T11:06:05Z</time>
      </trkpt>
      <trkpt lat="38.2302790" lon="-1.4240960">
        <ele>196.3</ele>
        <time>2021-11-07T11:06:06Z</time>
      </trkpt>
      <trkpt lat="38.2302930" lon="-1.4240660">
        <ele>196.0</ele>
        <time>2021-11-07T11:06:07Z</time>
      </trkpt>
      <trkpt lat="38.2303080" lon="-1.4240390">
        <ele>195.8</ele>
        <time>2021-11-07T11:06:08Z</time>
      </trkpt>
      <trkpt lat="38.2303390" lon="-1.4239960">
        <ele>195.3</ele>
        <time>2021-11-07T11:06:10Z</time>
      </trkpt>
      <trkpt lat="38.2303620" lon="-1.4239690">
        <ele>195.0</ele>
        <time>2021-11-07T11:06:11Z</time>
      </trkpt>
      <trkpt lat="38.2304010" lon="-1.4239110">
        <ele>194.4</ele>
        <time>2021-11-07T11:06:12Z</time>
      </trkpt>
      <trkpt lat="38.2304220" lon="-1.4238710">
        <ele>194.0</ele>
        <time>2021-11-07T11:06:14Z</time>
      </trkpt>
      <trkpt lat="38.2304360" lon="-1.4238340">
        <ele>193.6</ele>
        <time>2021-11-07T11:06:15Z</time>
      </trkpt>
      <trkpt lat="38.2304500" lon="-1.4238010">
        <ele>193.2</ele>
        <time>2021-11-07T11:06:16Z</time>
      </trkpt>
      <trkpt lat="38.2304610" lon="-1.4237660">
        <ele>192.8</ele>
        <time>2021-11-07T11:06:17Z</time>
      </trkpt>
      <trkpt lat="38.2304780" lon="-1.4237060">
        <ele>192.2</ele>
        <time>2021-11-07T11:06:18Z</time>
      </trkpt>
      <trkpt lat="38.2304940" lon="-1.4236410">
        <ele>191.5</ele>
        <time>2021-11-07T11:06:20Z</time>
      </trkpt>
      <trkpt lat="38.2305020" lon="-1.4236000">
        <ele>191.1</ele>
        <time>2021-11-07T11:06:21Z</time>
      </trkpt>
      <trkpt lat="38.2305100" lon="-1.4235470">
        <ele>190.5</ele>
        <time>2021-11-07T11:06:22Z</time>
      </trkpt>
      <trkpt lat="38.2305220" lon="-1.4234950">
        <ele>190.0</ele>
        <time>2021-11-07T11:06:24Z</time>
      </trkpt>
      <trkpt lat="38.2305380" lon="-1.4234380">
        <ele>189.4</ele>
        <time>2021-11-07T11:06:25Z</time>
      </trkpt>
      <trkpt lat="38.2305420" lon="-1.4233840">
        <ele>188.9</ele>
        <time>2021-11-07T11:06:26Z</time>
      </trkpt>
      <trkpt lat="38.2305450" lon="-1.4233400">
        <ele>188.1</ele>
        <time>2021-11-07T11:06:28Z</time>
      </trkpt>
      <trkpt lat="38.2305600" lon="-1.4233030">
        <ele>188.0</ele>
        <time>2021-11-07T11:06:29Z</time>
      </trkpt>
      <trkpt lat="38.2305750" lon="-1.4233170">
        <ele>188.0</ele>
        <time>2021-11-07T11:06:31Z</time>
      </trkpt>
      <trkpt lat="38.2305790" lon="-1.4233350">
        <ele>188.0</ele>
        <time>2021-11-07T11:06:32Z</time>
      </trkpt>
      <trkpt lat="38.2305820" lon="-1.4233530">
        <ele>187.9</ele>
        <time>2021-11-07T11:06:33Z</time>
      </trkpt>
      <trkpt lat="38.2305850" lon="-1.4234080">
        <ele>187.8</ele>
        <time>2021-11-07T11:06:34Z</time>
      </trkpt>
      <trkpt lat="38.2305880" lon="-1.4234540">
        <ele>187.7</ele>
        <time>2021-11-07T11:06:35Z</time>
      </trkpt>
      <trkpt lat="38.2305900" lon="-1.4235080">
        <ele>187.7</ele>
        <time>2021-11-07T11:06:36Z</time>
      </trkpt>
      <trkpt lat="38.2305900" lon="-1.4235560">
        <ele>187.8</ele>
        <time>2021-11-07T11:06:37Z</time>
      </trkpt>
      <trkpt lat="38.2305910" lon="-1.4236000">
        <ele>187.9</ele>
        <time>2021-11-07T11:06:38Z</time>
      </trkpt>
      <trkpt lat="38.2305860" lon="-1.4236580">
        <ele>188.1</ele>
        <time>2021-11-07T11:06:40Z</time>
      </trkpt>
      <trkpt lat="38.2305860" lon="-1.4237040">
        <ele>188.2</ele>
        <time>2021-11-07T11:06:41Z</time>
      </trkpt>
      <trkpt lat="38.2305810" lon="-1.4237440">
        <ele>188.4</ele>
        <time>2021-11-07T11:06:42Z</time>
      </trkpt>
      <trkpt lat="38.2305780" lon="-1.4237930">
        <ele>188.5</ele>
        <time>2021-11-07T11:06:43Z</time>
      </trkpt>
      <trkpt lat="38.2305770" lon="-1.4238560">
        <ele>188.7</ele>
        <time>2021-11-07T11:06:45Z</time>
      </trkpt>
      <trkpt lat="38.2305770" lon="-1.4238800">
        <ele>188.8</ele>
        <time>2021-11-07T11:06:46Z</time>
      </trkpt>
      <trkpt lat="38.2305770" lon="-1.4239040">
        <ele>188.8</ele>
        <time>2021-11-07T11:06:47Z</time>
      </trkpt>
      <trkpt lat="38.2305730" lon="-1.4239530">
        <ele>188.9</ele>
        <time>2021-11-07T11:06:48Z</time>
      </trkpt>
      <trkpt lat="38.2305710" lon="-1.4239690">
        <ele>189.0</ele>
        <time>2021-11-07T11:06:49Z</time>
      </trkpt>
      <trkpt lat="38.2305690" lon="-1.4240080">
        <ele>189.1</ele>
        <time>2021-11-07T11:06:51Z</time>
      </trkpt>
      <trkpt lat="38.2305710" lon="-1.4240470">
        <ele>189.2</ele>
        <time>2021-11-07T11:06:52Z</time>
      </trkpt>
      <trkpt lat="38.2305870" lon="-1.4240960">
        <ele>189.3</ele>
        <time>2021-11-07T11:06:53Z</time>
      </trkpt>
      <trkpt lat="38.2305940" lon="-1.4241130">
        <ele>189.3</ele>
        <time>2021-11-07T11:06:54Z</time>
      </trkpt>
      <trkpt lat="38.2306140" lon="-1.4241480">
        <ele>189.4</ele>
        <time>2021-11-07T11:06:55Z</time>
      </trkpt>
      <trkpt lat="38.2306330" lon="-1.4241760">
        <ele>189.4</ele>
        <time>2021-11-07T11:06:57Z</time>
      </trkpt>
      <trkpt lat="38.2306580" lon="-1.4242140">
        <ele>189.5</ele>
        <time>2021-11-07T11:06:58Z</time>
      </trkpt>
      <trkpt lat="38.2306790" lon="-1.4242580">
        <ele>189.5</ele>
        <time>2021-11-07T11:07:00Z</time>
      </trkpt>
      <trkpt lat="38.2307040" lon="-1.4242910">
        <ele>189.6</ele>
        <time>2021-11-07T11:07:01Z</time>
      </trkpt>
      <trkpt lat="38.2307220" lon="-1.4243270">
        <ele>189.6</ele>
        <time>2021-11-07T11:07:02Z</time>
      </trkpt>
      <trkpt lat="38.2307380" lon="-1.4243560">
        <ele>189.6</ele>
        <time>2021-11-07T11:07:03Z</time>
      </trkpt>
      <trkpt lat="38.2307540" lon="-1.4244080">
        <ele>189.6</ele>
        <time>2021-11-07T11:07:05Z</time>
      </trkpt>
      <trkpt lat="38.2307600" lon="-1.4244530">
        <ele>189.6</ele>
        <time>2021-11-07T11:07:07Z</time>
      </trkpt>
      <trkpt lat="38.2307640" lon="-1.4245220">
        <ele>189.5</ele>
        <time>2021-11-07T11:07:09Z</time>
      </trkpt>
      <trkpt lat="38.2307590" lon="-1.4245620">
        <ele>189.5</ele>
        <time>2021-11-07T11:07:10Z</time>
      </trkpt>
      <trkpt lat="38.2307560" lon="-1.4245960">
        <ele>189.4</ele>
        <time>2021-11-07T11:07:11Z</time>
      </trkpt>
      <trkpt lat="38.2307500" lon="-1.4246580">
        <ele>189.4</ele>
        <time>2021-11-07T11:07:13Z</time>
      </trkpt>
      <trkpt lat="38.2307480" lon="-1.4247030">
        <ele>189.3</ele>
        <time>2021-11-07T11:07:14Z</time>
      </trkpt>
      <trkpt lat="38.2307500" lon="-1.4247460">
        <ele>189.3</ele>
        <time>2021-11-07T11:07:15Z</time>
      </trkpt>
      <trkpt lat="38.2307450" lon="-1.4247820">
        <ele>189.2</ele>
        <time>2021-11-07T11:07:17Z</time>
      </trkpt>
      <trkpt lat="38.2307420" lon="-1.4248390">
        <ele>189.1</ele>
        <time>2021-11-07T11:07:18Z</time>
      </trkpt>
      <trkpt lat="38.2307330" lon="-1.4248860">
        <ele>189.1</ele>
        <time>2021-11-07T11:07:20Z</time>
      </trkpt>
      <trkpt lat="38.2307300" lon="-1.4249220">
        <ele>189.0</ele>
        <time>2021-11-07T11:07:21Z</time>
      </trkpt>
      <trkpt lat="38.2307270" lon="-1.4249570">
        <ele>189.0</ele>
        <time>2021-11-07T11:07:22Z</time>
      </trkpt>
      <trkpt lat="38.2307220" lon="-1.4250060">
        <ele>189.0</ele>
        <time>2021-11-07T11:07:23Z</time>
      </trkpt>
      <trkpt lat="38.2307150" lon="-1.4250480">
        <ele>188.9</ele>
        <time>2021-11-07T11:07:24Z</time>
      </trkpt>
      <trkpt lat="38.2307050" lon="-1.4250910">
        <ele>188.9</ele>
        <time>2021-11-07T11:07:26Z</time>
      </trkpt>
      <trkpt lat="38.2307000" lon="-1.4251410">
        <ele>188.8</ele>
        <time>2021-11-07T11:07:27Z</time>
      </trkpt>
      <trkpt lat="38.2306960" lon="-1.4251830">
        <ele>188.8</ele>
        <time>2021-11-07T11:07:28Z</time>
      </trkpt>
      <trkpt lat="38.2306900" lon="-1.4252160">
        <ele>188.8</ele>
        <time>2021-11-07T11:07:30Z</time>
      </trkpt>
      <trkpt lat="38.2306770" lon="-1.4252710">
        <ele>188.8</ele>
        <time>2021-11-07T11:07:31Z</time>
      </trkpt>
      <trkpt lat="38.2306640" lon="-1.4253190">
        <ele>188.8</ele>
        <time>2021-11-07T11:07:33Z</time>
      </trkpt>
      <trkpt lat="38.2306540" lon="-1.4253540">
        <ele>188.8</ele>
        <time>2021-11-07T11:07:34Z</time>
      </trkpt>
      <trkpt lat="38.2306350" lon="-1.4253860">
        <ele>188.8</ele>
        <time>2021-11-07T11:07:35Z</time>
      </trkpt>
      <trkpt lat="38.2306050" lon="-1.4254480">
        <ele>188.8</ele>
        <time>2021-11-07T11:07:37Z</time>
      </trkpt>
      <trkpt lat="38.2305970" lon="-1.4254820">
        <ele>188.7</ele>
        <time>2021-11-07T11:07:38Z</time>
      </trkpt>
      <trkpt lat="38.2305850" lon="-1.4255390">
        <ele>188.7</ele>
        <time>2021-11-07T11:07:39Z</time>
      </trkpt>
      <trkpt lat="38.2305800" lon="-1.4255650">
        <ele>188.7</ele>
        <time>2021-11-07T11:07:40Z</time>
      </trkpt>
      <trkpt lat="38.2305760" lon="-1.4256010">
        <ele>188.7</ele>
        <time>2021-11-07T11:07:41Z</time>
      </trkpt>
      <trkpt lat="38.2305690" lon="-1.4256640">
        <ele>188.7</ele>
        <time>2021-11-07T11:07:43Z</time>
      </trkpt>
      <trkpt lat="38.2305630" lon="-1.4257110">
        <ele>188.7</ele>
        <time>2021-11-07T11:07:44Z</time>
      </trkpt>
      <trkpt lat="38.2305600" lon="-1.4257590">
        <ele>188.8</ele>
        <time>2021-11-07T11:07:46Z</time>
      </trkpt>
      <trkpt lat="38.2305590" lon="-1.4258090">
        <ele>188.8</ele>
        <time>2021-11-07T11:07:47Z</time>
      </trkpt>
      <trkpt lat="38.2305600" lon="-1.4258250">
        <ele>188.8</ele>
        <time>2021-11-07T11:07:48Z</time>
      </trkpt>
      <trkpt lat="38.2305750" lon="-1.4258860">
        <ele>188.8</ele>
        <time>2021-11-07T11:07:49Z</time>
      </trkpt>
      <trkpt lat="38.2305830" lon="-1.4259160">
        <ele>188.9</ele>
        <time>2021-11-07T11:07:50Z</time>
      </trkpt>
      <trkpt lat="38.2305930" lon="-1.4259520">
        <ele>188.9</ele>
        <time>2021-11-07T11:07:52Z</time>
      </trkpt>
      <trkpt lat="38.2306070" lon="-1.4259960">
        <ele>188.9</ele>
        <time>2021-11-07T11:07:53Z</time>
      </trkpt>
      <trkpt lat="38.2306130" lon="-1.4260400">
        <ele>189.0</ele>
        <time>2021-11-07T11:07:55Z</time>
      </trkpt>
      <trkpt lat="38.2306200" lon="-1.4260800">
        <ele>189.0</ele>
        <time>2021-11-07T11:07:56Z</time>
      </trkpt>
      <trkpt lat="38.2306270" lon="-1.4261240">
        <ele>189.0</ele>
        <time>2021-11-07T11:07:57Z</time>
      </trkpt>
      <trkpt lat="38.2306360" lon="-1.4261660">
        <ele>189.0</ele>
        <time>2021-11-07T11:07:59Z</time>
      </trkpt>
      <trkpt lat="38.2306490" lon="-1.4262280">
        <ele>189.0</ele>
        <time>2021-11-07T11:08:00Z</time>
      </trkpt>
      <trkpt lat="38.2306550" lon="-1.4262800">
        <ele>188.9</ele>
        <time>2021-11-07T11:08:01Z</time>
      </trkpt>
      <trkpt lat="38.2306590" lon="-1.4263190">
        <ele>188.9</ele>
        <time>2021-11-07T11:08:03Z</time>
      </trkpt>
      <trkpt lat="38.2306610" lon="-1.4263730">
        <ele>188.9</ele>
        <time>2021-11-07T11:08:04Z</time>
      </trkpt>
      <trkpt lat="38.2306580" lon="-1.4264250">
        <ele>188.8</ele>
        <time>2021-11-07T11:08:06Z</time>
      </trkpt>
      <trkpt lat="38.2306510" lon="-1.4264780">
        <ele>188.7</ele>
        <time>2021-11-07T11:08:07Z</time>
      </trkpt>
      <trkpt lat="38.2306430" lon="-1.4265160">
        <ele>188.7</ele>
        <time>2021-11-07T11:08:08Z</time>
      </trkpt>
      <trkpt lat="38.2306370" lon="-1.4265620">
        <ele>188.6</ele>
        <time>2021-11-07T11:08:10Z</time>
      </trkpt>
      <trkpt lat="38.2306310" lon="-1.4266060">
        <ele>188.6</ele>
        <time>2021-11-07T11:08:11Z</time>
      </trkpt>
      <trkpt lat="38.2306280" lon="-1.4266510">
        <ele>188.5</ele>
        <time>2021-11-07T11:08:12Z</time>
      </trkpt>
      <trkpt lat="38.2306250" lon="-1.4266910">
        <ele>188.5</ele>
        <time>2021-11-07T11:08:14Z</time>
      </trkpt>
      <trkpt lat="38.2306250" lon="-1.4267410">
        <ele>188.4</ele>
        <time>2021-11-07T11:08:15Z</time>
      </trkpt>
      <trkpt lat="38.2306190" lon="-1.4267860">
        <ele>188.4</ele>
        <time>2021-11-07T11:08:16Z</time>
      </trkpt>
      <trkpt lat="38.2306120" lon="-1.4268210">
        <ele>188.3</ele>
        <time>2021-11-07T11:08:18Z</time>
      </trkpt>
      <trkpt lat="38.2305980" lon="-1.4268750">
        <ele>188.2</ele>
        <time>2021-11-07T11:08:19Z</time>
      </trkpt>
      <trkpt lat="38.2305860" lon="-1.4269200">
        <ele>188.1</ele>
        <time>2021-11-07T11:08:21Z</time>
      </trkpt>
      <trkpt lat="38.2305780" lon="-1.4269710">
        <ele>188.0</ele>
        <time>2021-11-07T11:08:22Z</time>
      </trkpt>
      <trkpt lat="38.2305780" lon="-1.4270290">
        <ele>187.9</ele>
        <time>2021-11-07T11:08:24Z</time>
      </trkpt>
      <trkpt lat="38.2305830" lon="-1.4270650">
        <ele>187.9</ele>
        <time>2021-11-07T11:08:25Z</time>
      </trkpt>
      <trkpt lat="38.2305980" lon="-1.4271060">
        <ele>187.9</ele>
        <time>2021-11-07T11:08:26Z</time>
      </trkpt>
      <trkpt lat="38.2306260" lon="-1.4271300">
        <ele>187.8</ele>
        <time>2021-11-07T11:08:27Z</time>
      </trkpt>
      <trkpt lat="38.2306530" lon="-1.4271420">
        <ele>187.8</ele>
        <time>2021-11-07T11:08:29Z</time>
      </trkpt>
      <trkpt lat="38.2306970" lon="-1.4271470">
        <ele>187.8</ele>
        <time>2021-11-07T11:08:30Z</time>
      </trkpt>
      <trkpt lat="38.2307270" lon="-1.4271430">
        <ele>187.8</ele>
        <time>2021-11-07T11:08:32Z</time>
      </trkpt>
      <trkpt lat="38.2307600" lon="-1.4271300">
        <ele>187.8</ele>
        <time>2021-11-07T11:08:33Z</time>
      </trkpt>
      <trkpt lat="38.2307890" lon="-1.4271270">
        <ele>187.8</ele>
        <time>2021-11-07T11:08:34Z</time>
      </trkpt>
      <trkpt lat="38.2308330" lon="-1.4271140">
        <ele>187.8</ele>
        <time>2021-11-07T11:08:36Z</time>
      </trkpt>
      <trkpt lat="38.2308480" lon="-1.4271090">
        <ele>187.8</ele>
        <time>2021-11-07T11:08:37Z</time>
      </trkpt>
      <trkpt lat="38.2308620" lon="-1.4271040">
        <ele>187.8</ele>
        <time>2021-11-07T11:08:38Z</time>
      </trkpt>
      <trkpt lat="38.2309010" lon="-1.4270970">
        <ele>187.8</ele>
        <time>2021-11-07T11:08:39Z</time>
      </trkpt>
      <trkpt lat="38.2309330" lon="-1.4270890">
        <ele>187.9</ele>
        <time>2021-11-07T11:08:41Z</time>
      </trkpt>
      <trkpt lat="38.2309650" lon="-1.4270780">
        <ele>187.9</ele>
        <time>2021-11-07T11:08:42Z</time>
      </trkpt>
      <trkpt lat="38.2310010" lon="-1.4270780">
        <ele>187.9</ele>
        <time>2021-11-07T11:08:43Z</time>
      </trkpt>
      <trkpt lat="38.2310310" lon="-1.4270760">
        <ele>187.9</ele>
        <time>2021-11-07T11:08:45Z</time>
      </trkpt>
      <trkpt lat="38.2310680" lon="-1.4270610">
        <ele>187.9</ele>
        <time>2021-11-07T11:08:46Z</time>
      </trkpt>
      <trkpt lat="38.2311020" lon="-1.4270510">
        <ele>188.0</ele>
        <time>2021-11-07T11:08:47Z</time>
      </trkpt>
      <trkpt lat="38.2311310" lon="-1.4270420">
        <ele>188.0</ele>
        <time>2021-11-07T11:08:49Z</time>
      </trkpt>
      <trkpt lat="38.2311720" lon="-1.4270320">
        <ele>188.0</ele>
        <time>2021-11-07T11:08:50Z</time>
      </trkpt>
      <trkpt lat="38.2312150" lon="-1.4270180">
        <ele>188.1</ele>
        <time>2021-11-07T11:08:52Z</time>
      </trkpt>
      <trkpt lat="38.2312550" lon="-1.4270060">
        <ele>188.1</ele>
        <time>2021-11-07T11:08:53Z</time>
      </trkpt>
      <trkpt lat="38.2312880" lon="-1.4270010">
        <ele>188.2</ele>
        <time>2021-11-07T11:08:55Z</time>
      </trkpt>
      <trkpt lat="38.2313400" lon="-1.4270180">
        <ele>188.2</ele>
        <time>2021-11-07T11:08:57Z</time>
      </trkpt>
      <trkpt lat="38.2313690" lon="-1.4270380">
        <ele>188.3</ele>
        <time>2021-11-07T11:08:58Z</time>
      </trkpt>
      <trkpt lat="38.2314120" lon="-1.4270650">
        <ele>188.4</ele>
        <time>2021-11-07T11:08:59Z</time>
      </trkpt>
      <trkpt lat="38.2314410" lon="-1.4270980">
        <ele>188.5</ele>
        <time>2021-11-07T11:09:01Z</time>
      </trkpt>
      <trkpt lat="38.2314770" lon="-1.4271410">
        <ele>188.5</ele>
        <time>2021-11-07T11:09:02Z</time>
      </trkpt>
      <trkpt lat="38.2314990" lon="-1.4271860">
        <ele>188.6</ele>
        <time>2021-11-07T11:09:04Z</time>
      </trkpt>
      <trkpt lat="38.2315070" lon="-1.4272250">
        <ele>188.7</ele>
        <time>2021-11-07T11:09:05Z</time>
      </trkpt>
      <trkpt lat="38.2315230" lon="-1.4272870">
        <ele>188.7</ele>
        <time>2021-11-07T11:09:06Z</time>
      </trkpt>
      <trkpt lat="38.2315330" lon="-1.4273320">
        <ele>188.8</ele>
        <time>2021-11-07T11:09:08Z</time>
      </trkpt>
      <trkpt lat="38.2315520" lon="-1.4273890">
        <ele>188.8</ele>
        <time>2021-11-07T11:09:09Z</time>
      </trkpt>
      <trkpt lat="38.2315590" lon="-1.4274330">
        <ele>188.9</ele>
        <time>2021-11-07T11:09:10Z</time>
      </trkpt>
      <trkpt lat="38.2315610" lon="-1.4274720">
        <ele>188.9</ele>
        <time>2021-11-07T11:09:12Z</time>
      </trkpt>
      <trkpt lat="38.2315630" lon="-1.4275070">
        <ele>189.0</ele>
        <time>2021-11-07T11:09:13Z</time>
      </trkpt>
      <trkpt lat="38.2315630" lon="-1.4275790">
        <ele>189.1</ele>
        <time>2021-11-07T11:09:15Z</time>
      </trkpt>
      <trkpt lat="38.2315570" lon="-1.4276270">
        <ele>189.2</ele>
        <time>2021-11-07T11:09:16Z</time>
      </trkpt>
      <trkpt lat="38.2315580" lon="-1.4276710">
        <ele>189.3</ele>
        <time>2021-11-07T11:09:17Z</time>
      </trkpt>
      <trkpt lat="38.2315570" lon="-1.4277260">
        <ele>189.4</ele>
        <time>2021-11-07T11:09:19Z</time>
      </trkpt>
      <trkpt lat="38.2315560" lon="-1.4277470">
        <ele>189.4</ele>
        <time>2021-11-07T11:09:20Z</time>
      </trkpt>
      <trkpt lat="38.2315550" lon="-1.4278120">
        <ele>189.5</ele>
        <time>2021-11-07T11:09:22Z</time>
      </trkpt>
      <trkpt lat="38.2315540" lon="-1.4278320">
        <ele>189.6</ele>
        <time>2021-11-07T11:09:23Z</time>
      </trkpt>
      <trkpt lat="38.2315520" lon="-1.4278520">
        <ele>189.6</ele>
        <time>2021-11-07T11:09:24Z</time>
      </trkpt>
      <trkpt lat="38.2315490" lon="-1.4278980">
        <ele>189.8</ele>
        <time>2021-11-07T11:09:25Z</time>
      </trkpt>
      <trkpt lat="38.2315420" lon="-1.4279380">
        <ele>189.9</ele>
        <time>2021-11-07T11:09:26Z</time>
      </trkpt>
      <trkpt lat="38.2315320" lon="-1.4279770">
        <ele>190.0</ele>
        <time>2021-11-07T11:09:28Z</time>
      </trkpt>
      <trkpt lat="38.2315270" lon="-1.4280220">
        <ele>190.1</ele>
        <time>2021-11-07T11:09:29Z</time>
      </trkpt>
      <trkpt lat="38.2315200" lon="-1.4280780">
        <ele>190.3</ele>
        <time>2021-11-07T11:09:31Z</time>
      </trkpt>
      <trkpt lat="38.2315210" lon="-1.4281040">
        <ele>190.4</ele>
        <time>2021-11-07T11:09:32Z</time>
      </trkpt>
      <trkpt lat="38.2315240" lon="-1.4281440">
        <ele>190.6</ele>
        <time>2021-11-07T11:09:34Z</time>
      </trkpt>
      <trkpt lat="38.2315280" lon="-1.4281870">
        <ele>190.7</ele>
        <time>2021-11-07T11:09:35Z</time>
      </trkpt>
      <trkpt lat="38.2315260" lon="-1.4282300">
        <ele>190.9</ele>
        <time>2021-11-07T11:09:36Z</time>
      </trkpt>
      <trkpt lat="38.2315210" lon="-1.4282650">
        <ele>191.0</ele>
        <time>2021-11-07T11:09:38Z</time>
      </trkpt>
      <trkpt lat="38.2315140" lon="-1.4283200">
        <ele>191.2</ele>
        <time>2021-11-07T11:09:39Z</time>
      </trkpt>
      <trkpt lat="38.2315070" lon="-1.4283690">
        <ele>191.5</ele>
        <time>2021-11-07T11:09:41Z</time>
      </trkpt>
      <trkpt lat="38.2315010" lon="-1.4284090">
        <ele>191.7</ele>
        <time>2021-11-07T11:09:42Z</time>
      </trkpt>
      <trkpt lat="38.2315000" lon="-1.4284610">
        <ele>191.9</ele>
        <time>2021-11-07T11:09:43Z</time>
      </trkpt>
      <trkpt lat="38.2314980" lon="-1.4284960">
        <ele>192.1</ele>
        <time>2021-11-07T11:09:45Z</time>
      </trkpt>
      <trkpt lat="38.2314960" lon="-1.4285480">
        <ele>192.4</ele>
        <time>2021-11-07T11:09:46Z</time>
      </trkpt>
      <trkpt lat="38.2314930" lon="-1.4285950">
        <ele>192.6</ele>
        <time>2021-11-07T11:09:48Z</time>
      </trkpt>
      <trkpt lat="38.2314960" lon="-1.4286420">
        <ele>192.9</ele>
        <time>2021-11-07T11:09:49Z</time>
      </trkpt>
      <trkpt lat="38.2314940" lon="-1.4286890">
        <ele>193.1</ele>
        <time>2021-11-07T11:09:50Z</time>
      </trkpt>
      <trkpt lat="38.2314920" lon="-1.4287240">
        <ele>193.3</ele>
        <time>2021-11-07T11:09:51Z</time>
      </trkpt>
      <trkpt lat="38.2314850" lon="-1.4287840">
        <ele>193.7</ele>
        <time>2021-11-07T11:09:53Z</time>
      </trkpt>
      <trkpt lat="38.2314800" lon="-1.4288080">
        <ele>193.9</ele>
        <time>2021-11-07T11:09:54Z</time>
      </trkpt>
      <trkpt lat="38.2314740" lon="-1.4288310">
        <ele>194.0</ele>
        <time>2021-11-07T11:09:55Z</time>
      </trkpt>
      <trkpt lat="38.2314620" lon="-1.4288710">
        <ele>194.3</ele>
        <time>2021-11-07T11:09:56Z</time>
      </trkpt>
      <trkpt lat="38.2314360" lon="-1.4289210">
        <ele>194.6</ele>
        <time>2021-11-07T11:09:59Z</time>
      </trkpt>
      <trkpt lat="38.2314300" lon="-1.4289380">
        <ele>194.7</ele>
        <time>2021-11-07T11:10:00Z</time>
      </trkpt>
      <trkpt lat="38.2314270" lon="-1.4289560">
        <ele>194.8</ele>
        <time>2021-11-07T11:10:01Z</time>
      </trkpt>
      <trkpt lat="38.2314190" lon="-1.4289860">
        <ele>194.9</ele>
        <time>2021-11-07T11:10:03Z</time>
      </trkpt>
      <trkpt lat="38.2314110" lon="-1.4289920">
        <ele>195.0</ele>
        <time>2021-11-07T11:10:04Z</time>
      </trkpt>
      <trkpt lat="38.2313920" lon="-1.4290040">
        <ele>195.1</ele>
        <time>2021-11-07T11:10:05Z</time>
      </trkpt>
      <trkpt lat="38.2313810" lon="-1.4290080">
        <ele>195.2</ele>
        <time>2021-11-07T11:10:06Z</time>
      </trkpt>
      <trkpt lat="38.2313700" lon="-1.4290130">
        <ele>195.3</ele>
        <time>2021-11-07T11:10:07Z</time>
      </trkpt>
      <trkpt lat="38.2313540" lon="-1.4290210">
        <ele>195.4</ele>
        <time>2021-11-07T11:10:09Z</time>
      </trkpt>
      <trkpt lat="38.2313390" lon="-1.4290290">
        <ele>195.5</ele>
        <time>2021-11-07T11:10:10Z</time>
      </trkpt>
      <trkpt lat="38.2313140" lon="-1.4290560">
        <ele>195.7</ele>
        <time>2021-11-07T11:10:11Z</time>
      </trkpt>
      <trkpt lat="38.2313080" lon="-1.4290640">
        <ele>195.7</ele>
        <time>2021-11-07T11:10:12Z</time>
      </trkpt>
      <trkpt lat="38.2312810" lon="-1.4290870">
        <ele>195.9</ele>
        <time>2021-11-07T11:10:13Z</time>
      </trkpt>
      <trkpt lat="38.2312640" lon="-1.4290970">
        <ele>196.0</ele>
        <time>2021-11-07T11:10:16Z</time>
      </trkpt>
      <trkpt lat="38.2312470" lon="-1.4291070">
        <ele>196.1</ele>
        <time>2021-11-07T11:10:17Z</time>
      </trkpt>
      <trkpt lat="38.2312300" lon="-1.4291170">
        <ele>196.2</ele>
        <time>2021-11-07T11:10:18Z</time>
      </trkpt>
      <trkpt lat="38.2312030" lon="-1.4291350">
        <ele>196.4</ele>
        <time>2021-11-07T11:10:20Z</time>
      </trkpt>
      <trkpt lat="38.2311950" lon="-1.4291400">
        <ele>196.4</ele>
        <time>2021-11-07T11:10:21Z</time>
      </trkpt>
      <trkpt lat="38.2311680" lon="-1.4291510">
        <ele>196.6</ele>
        <time>2021-11-07T11:10:22Z</time>
      </trkpt>
      <trkpt lat="38.2311600" lon="-1.4291540">
        <ele>196.7</ele>
        <time>2021-11-07T11:10:23Z</time>
      </trkpt>
      <trkpt lat="38.2311170" lon="-1.4291820">
        <ele>196.9</ele>
        <time>2021-11-07T11:10:25Z</time>
      </trkpt>
      <trkpt lat="38.2311020" lon="-1.4291940">
        <ele>197.0</ele>
        <time>2021-11-07T11:10:27Z</time>
      </trkpt>
      <trkpt lat="38.2310860" lon="-1.4292060">
        <ele>197.1</ele>
        <time>2021-11-07T11:10:28Z</time>
      </trkpt>
      <trkpt lat="38.2310710" lon="-1.4292180">
        <ele>197.2</ele>
        <time>2021-11-07T11:10:29Z</time>
      </trkpt>
      <trkpt lat="38.2310610" lon="-1.4292570">
        <ele>197.4</ele>
        <time>2021-11-07T11:10:32Z</time>
      </trkpt>
      <trkpt lat="38.2310590" lon="-1.4292770">
        <ele>197.5</ele>
        <time>2021-11-07T11:10:33Z</time>
      </trkpt>
      <trkpt lat="38.2310560" lon="-1.4292970">
        <ele>197.5</ele>
        <time>2021-11-07T11:10:34Z</time>
      </trkpt>
      <trkpt lat="38.2310510" lon="-1.4293390">
        <ele>197.7</ele>
        <time>2021-11-07T11:10:35Z</time>
      </trkpt>
      <trkpt lat="38.2310490" lon="-1.4293510">
        <ele>197.7</ele>
        <time>2021-11-07T11:10:36Z</time>
      </trkpt>
      <trkpt lat="38.2310310" lon="-1.4293890">
        <ele>197.9</ele>
        <time>2021-11-07T11:10:38Z</time>
      </trkpt>
      <trkpt lat="38.2310240" lon="-1.4293990">
        <ele>198.0</ele>
        <time>2021-11-07T11:10:39Z</time>
      </trkpt>
      <trkpt lat="38.2310120" lon="-1.4294210">
        <ele>198.1</ele>
        <time>2021-11-07T11:10:41Z</time>
      </trkpt>
      <trkpt lat="38.2310040" lon="-1.4294370">
        <ele>198.1</ele>
        <time>2021-11-07T11:10:42Z</time>
      </trkpt>
      <trkpt lat="38.2309900" lon="-1.4294680">
        <ele>198.3</ele>
        <time>2021-11-07T11:10:43Z</time>
      </trkpt>
      <trkpt lat="38.2309840" lon="-1.4294820">
        <ele>198.3</ele>
        <time>2021-11-07T11:10:44Z</time>
      </trkpt>
      <trkpt lat="38.2309730" lon="-1.4294980">
        <ele>198.4</ele>
        <time>2021-11-07T11:10:45Z</time>
      </trkpt>
      <trkpt lat="38.2309620" lon="-1.4295280">
        <ele>198.5</ele>
        <time>2021-11-07T11:10:47Z</time>
      </trkpt>
      <trkpt lat="38.2309440" lon="-1.4295900">
        <ele>198.8</ele>
        <time>2021-11-07T11:10:49Z</time>
      </trkpt>
      <trkpt lat="38.2309370" lon="-1.4296080">
        <ele>198.9</ele>
        <time>2021-11-07T11:10:50Z</time>
      </trkpt>
      <trkpt lat="38.2309300" lon="-1.4296270">
        <ele>199.0</ele>
        <time>2021-11-07T11:10:51Z</time>
      </trkpt>
      <trkpt lat="38.2309180" lon="-1.4296720">
        <ele>199.2</ele>
        <time>2021-11-07T11:10:54Z</time>
      </trkpt>
      <trkpt lat="38.2309100" lon="-1.4297040">
        <ele>199.3</ele>
        <time>2021-11-07T11:10:55Z</time>
      </trkpt>
      <trkpt lat="38.2309030" lon="-1.4297510">
        <ele>199.6</ele>
        <time>2021-11-07T11:10:58Z</time>
      </trkpt>
      <trkpt lat="38.2309140" lon="-1.4298040">
        <ele>199.8</ele>
        <time>2021-11-07T11:11:00Z</time>
      </trkpt>
      <trkpt lat="38.2309240" lon="-1.4298220">
        <ele>199.9</ele>
        <time>2021-11-07T11:11:02Z</time>
      </trkpt>
      <trkpt lat="38.2309340" lon="-1.4298400">
        <ele>200.0</ele>
        <time>2021-11-07T11:11:03Z</time>
      </trkpt>
      <trkpt lat="38.2309430" lon="-1.4298580">
        <ele>200.1</ele>
        <time>2021-11-07T11:11:04Z</time>
      </trkpt>
      <trkpt lat="38.2309550" lon="-1.4298710">
        <ele>200.2</ele>
        <time>2021-11-07T11:11:06Z</time>
      </trkpt>
      <trkpt lat="38.2309780" lon="-1.4298920">
        <ele>200.4</ele>
        <time>2021-11-07T11:11:08Z</time>
      </trkpt>
      <trkpt lat="38.2309970" lon="-1.4299270">
        <ele>200.5</ele>
        <time>2021-11-07T11:11:09Z</time>
      </trkpt>
      <trkpt lat="38.2310020" lon="-1.4299340">
        <ele>200.6</ele>
        <time>2021-11-07T11:11:10Z</time>
      </trkpt>
      <trkpt lat="38.2310280" lon="-1.4299640">
        <ele>200.8</ele>
        <time>2021-11-07T11:11:12Z</time>
      </trkpt>
      <trkpt lat="38.2310360" lon="-1.4299730">
        <ele>200.8</ele>
        <time>2021-11-07T11:11:13Z</time>
      </trkpt>
      <trkpt lat="38.2310560" lon="-1.4299970">
        <ele>201.0</ele>
        <time>2021-11-07T11:11:15Z</time>
      </trkpt>
      <trkpt lat="38.2310640" lon="-1.4300070">
        <ele>201.0</ele>
        <time>2021-11-07T11:11:16Z</time>
      </trkpt>
      <trkpt lat="38.2310760" lon="-1.4300200">
        <ele>201.1</ele>
        <time>2021-11-07T11:11:17Z</time>
      </trkpt>
      <trkpt lat="38.2310870" lon="-1.4300360">
        <ele>201.2</ele>
        <time>2021-11-07T11:11:19Z</time>
      </trkpt>
      <trkpt lat="38.2310970" lon="-1.4300530">
        <ele>201.3</ele>
        <time>2021-11-07T11:11:20Z</time>
      </trkpt>
      <trkpt lat="38.2311090" lon="-1.4300680">
        <ele>201.4</ele>
        <time>2021-11-07T11:11:21Z</time>
      </trkpt>
      <trkpt lat="38.2311280" lon="-1.4300900">
        <ele>201.5</ele>
        <time>2021-11-07T11:11:22Z</time>
      </trkpt>
      <trkpt lat="38.2311370" lon="-1.4300980">
        <ele>201.6</ele>
        <time>2021-11-07T11:11:23Z</time>
      </trkpt>
      <trkpt lat="38.2311540" lon="-1.4301170">
        <ele>201.7</ele>
        <time>2021-11-07T11:11:25Z</time>
      </trkpt>
      <trkpt lat="38.2311740" lon="-1.4301500">
        <ele>201.9</ele>
        <time>2021-11-07T11:11:27Z</time>
      </trkpt>
      <trkpt lat="38.2311850" lon="-1.4301680">
        <ele>202.0</ele>
        <time>2021-11-07T11:11:28Z</time>
      </trkpt>
      <trkpt lat="38.2311940" lon="-1.4301830">
        <ele>202.1</ele>
        <time>2021-11-07T11:11:29Z</time>
      </trkpt>
      <trkpt lat="38.2312040" lon="-1.4302050">
        <ele>202.2</ele>
        <time>2021-11-07T11:11:30Z</time>
      </trkpt>
      <trkpt lat="38.2312200" lon="-1.4302290">
        <ele>202.4</ele>
        <time>2021-11-07T11:11:32Z</time>
      </trkpt>
      <trkpt lat="38.2312310" lon="-1.4302410">
        <ele>202.4</ele>
        <time>2021-11-07T11:11:33Z</time>
      </trkpt>
      <trkpt lat="38.2312420" lon="-1.4302550">
        <ele>202.5</ele>
        <time>2021-11-07T11:11:34Z</time>
      </trkpt>
      <trkpt lat="38.2312620" lon="-1.4302770">
        <ele>202.7</ele>
        <time>2021-11-07T11:11:36Z</time>
      </trkpt>
      <trkpt lat="38.2312730" lon="-1.4302900">
        <ele>202.8</ele>
        <time>2021-11-07T11:11:37Z</time>
      </trkpt>
      <trkpt lat="38.2312830" lon="-1.4303020">
        <ele>202.8</ele>
        <time>2021-11-07T11:11:38Z</time>
      </trkpt>
      <trkpt lat="38.2313010" lon="-1.4303240">
        <ele>203.0</ele>
        <time>2021-11-07T11:11:39Z</time>
      </trkpt>
      <trkpt lat="38.2313140" lon="-1.4303380">
        <ele>203.1</ele>
        <time>2021-11-07T11:11:41Z</time>
      </trkpt>
      <trkpt lat="38.2313320" lon="-1.4303660">
        <ele>203.2</ele>
        <time>2021-11-07T11:11:42Z</time>
      </trkpt>
      <trkpt lat="38.2313380" lon="-1.4303770">
        <ele>203.2</ele>
        <time>2021-11-07T11:11:43Z</time>
      </trkpt>
      <trkpt lat="38.2313490" lon="-1.4303940">
        <ele>203.3</ele>
        <time>2021-11-07T11:11:45Z</time>
      </trkpt>
      <trkpt lat="38.2313580" lon="-1.4304110">
        <ele>203.4</ele>
        <time>2021-11-07T11:11:46Z</time>
      </trkpt>
      <trkpt lat="38.2313690" lon="-1.4304390">
        <ele>203.5</ele>
        <time>2021-11-07T11:11:47Z</time>
      </trkpt>
      <trkpt lat="38.2313800" lon="-1.4304610">
        <ele>203.5</ele>
        <time>2021-11-07T11:11:49Z</time>
      </trkpt>
      <trkpt lat="38.2313880" lon="-1.4304800">
        <ele>203.6</ele>
        <time>2021-11-07T11:11:50Z</time>
      </trkpt>
      <trkpt lat="38.2313950" lon="-1.4305000">
        <ele>203.6</ele>
        <time>2021-11-07T11:11:51Z</time>
      </trkpt>
      <trkpt lat="38.2314040" lon="-1.4305370">
        <ele>203.6</ele>
        <time>2021-11-07T11:11:52Z</time>
      </trkpt>
      <trkpt lat="38.2314070" lon="-1.4305530">
        <ele>203.6</ele>
        <time>2021-11-07T11:11:53Z</time>
      </trkpt>
      <trkpt lat="38.2314120" lon="-1.4305970">
        <ele>203.6</ele>
        <time>2021-11-07T11:11:55Z</time>
      </trkpt>
      <trkpt lat="38.2314140" lon="-1.4306120">
        <ele>203.6</ele>
        <time>2021-11-07T11:11:56Z</time>
      </trkpt>
      <trkpt lat="38.2314250" lon="-1.4306550">
        <ele>203.6</ele>
        <time>2021-11-07T11:11:58Z</time>
      </trkpt>
      <trkpt lat="38.2314280" lon="-1.4306740">
        <ele>203.5</ele>
        <time>2021-11-07T11:11:59Z</time>
      </trkpt>
      <trkpt lat="38.2314320" lon="-1.4306940">
        <ele>203.5</ele>
        <time>2021-11-07T11:12:00Z</time>
      </trkpt>
      <trkpt lat="38.2314340" lon="-1.4307140">
        <ele>203.4</ele>
        <time>2021-11-07T11:12:01Z</time>
      </trkpt>
      <trkpt lat="38.2314400" lon="-1.4307500">
        <ele>203.3</ele>
        <time>2021-11-07T11:12:03Z</time>
      </trkpt>
      <trkpt lat="38.2314450" lon="-1.4307670">
        <ele>203.3</ele>
        <time>2021-11-07T11:12:04Z</time>
      </trkpt>
      <trkpt lat="38.2314490" lon="-1.4307950">
        <ele>203.1</ele>
        <time>2021-11-07T11:12:05Z</time>
      </trkpt>
      <trkpt lat="38.2314470" lon="-1.4308260">
        <ele>203.0</ele>
        <time>2021-11-07T11:12:07Z</time>
      </trkpt>
      <trkpt lat="38.2314470" lon="-1.4308510">
        <ele>202.9</ele>
        <time>2021-11-07T11:12:08Z</time>
      </trkpt>
      <trkpt lat="38.2314500" lon="-1.4308720">
        <ele>202.8</ele>
        <time>2021-11-07T11:12:10Z</time>
      </trkpt>
      <trkpt lat="38.2314590" lon="-1.4309100">
        <ele>202.6</ele>
        <time>2021-11-07T11:12:11Z</time>
      </trkpt>
      <trkpt lat="38.2314630" lon="-1.4309220">
        <ele>202.6</ele>
        <time>2021-11-07T11:12:12Z</time>
      </trkpt>
      <trkpt lat="38.2314760" lon="-1.4309530">
        <ele>202.4</ele>
        <time>2021-11-07T11:12:13Z</time>
      </trkpt>
      <trkpt lat="38.2314830" lon="-1.4309700">
        <ele>202.3</ele>
        <time>2021-11-07T11:12:15Z</time>
      </trkpt>
      <trkpt lat="38.2314900" lon="-1.4309880">
        <ele>202.2</ele>
        <time>2021-11-07T11:12:16Z</time>
      </trkpt>
      <trkpt lat="38.2314970" lon="-1.4310050">
        <ele>202.0</ele>
        <time>2021-11-07T11:12:17Z</time>
      </trkpt>
      <trkpt lat="38.2315230" lon="-1.4310340">
        <ele>201.8</ele>
        <time>2021-11-07T11:12:19Z</time>
      </trkpt>
      <trkpt lat="38.2315350" lon="-1.4310430">
        <ele>201.7</ele>
        <time>2021-11-07T11:12:20Z</time>
      </trkpt>
      <trkpt lat="38.2315690" lon="-1.4310500">
        <ele>201.5</ele>
        <time>2021-11-07T11:12:22Z</time>
      </trkpt>
      <trkpt lat="38.2315790" lon="-1.4310530">
        <ele>201.4</ele>
        <time>2021-11-07T11:12:23Z</time>
      </trkpt>
      <trkpt lat="38.2315950" lon="-1.4310580">
        <ele>201.3</ele>
        <time>2021-11-07T11:12:24Z</time>
      </trkpt>
      <trkpt lat="38.2316260" lon="-1.4310550">
        <ele>201.1</ele>
        <time>2021-11-07T11:12:26Z</time>
      </trkpt>
      <trkpt lat="38.2316570" lon="-1.4310540">
        <ele>200.9</ele>
        <time>2021-11-07T11:12:27Z</time>
      </trkpt>
      <trkpt lat="38.2316660" lon="-1.4310530">
        <ele>200.8</ele>
        <time>2021-11-07T11:12:28Z</time>
      </trkpt>
      <trkpt lat="38.2316970" lon="-1.4310570">
        <ele>200.6</ele>
        <time>2021-11-07T11:12:30Z</time>
      </trkpt>
      <trkpt lat="38.2317080" lon="-1.4310580">
        <ele>200.5</ele>
        <time>2021-11-07T11:12:31Z</time>
      </trkpt>
      <trkpt lat="38.2317240" lon="-1.4310620">
        <ele>200.4</ele>
        <time>2021-11-07T11:12:32Z</time>
      </trkpt>
      <trkpt lat="38.2317490" lon="-1.4310720">
        <ele>200.3</ele>
        <time>2021-11-07T11:12:34Z</time>
      </trkpt>
      <trkpt lat="38.2317670" lon="-1.4310810">
        <ele>200.2</ele>
        <time>2021-11-07T11:12:35Z</time>
      </trkpt>
      <trkpt lat="38.2317810" lon="-1.4310890">
        <ele>200.1</ele>
        <time>2021-11-07T11:12:36Z</time>
      </trkpt>
      <trkpt lat="38.2318030" lon="-1.4311020">
        <ele>199.9</ele>
        <time>2021-11-07T11:12:38Z</time>
      </trkpt>
      <trkpt lat="38.2318340" lon="-1.4311190">
        <ele>199.7</ele>
        <time>2021-11-07T11:12:40Z</time>
      </trkpt>
      <trkpt lat="38.2318480" lon="-1.4311270">
        <ele>199.7</ele>
        <time>2021-11-07T11:12:41Z</time>
      </trkpt>
      <trkpt lat="38.2318660" lon="-1.4311380">
        <ele>199.5</ele>
        <time>2021-11-07T11:12:42Z</time>
      </trkpt>
      <trkpt lat="38.2318920" lon="-1.4311580">
        <ele>199.4</ele>
        <time>2021-11-07T11:12:43Z</time>
      </trkpt>
      <trkpt lat="38.2318980" lon="-1.4311630">
        <ele>199.3</ele>
        <time>2021-11-07T11:12:44Z</time>
      </trkpt>
      <trkpt lat="38.2319220" lon="-1.4311900">
        <ele>199.2</ele>
        <time>2021-11-07T11:12:45Z</time>
      </trkpt>
      <trkpt lat="38.2319340" lon="-1.4312030">
        <ele>199.1</ele>
        <time>2021-11-07T11:12:47Z</time>
      </trkpt>
      <trkpt lat="38.2319460" lon="-1.4312150">
        <ele>199.0</ele>
        <time>2021-11-07T11:12:48Z</time>
      </trkpt>
      <trkpt lat="38.2319580" lon="-1.4312280">
        <ele>198.9</ele>
        <time>2021-11-07T11:12:49Z</time>
      </trkpt>
      <trkpt lat="38.2319860" lon="-1.4312660">
        <ele>198.7</ele>
        <time>2021-11-07T11:12:51Z</time>
      </trkpt>
      <trkpt lat="38.2319940" lon="-1.4312780">
        <ele>198.6</ele>
        <time>2021-11-07T11:12:53Z</time>
      </trkpt>
      <trkpt lat="38.2320010" lon="-1.4312910">
        <ele>198.5</ele>
        <time>2021-11-07T11:12:54Z</time>
      </trkpt>
      <trkpt lat="38.2320140" lon="-1.4313190">
        <ele>198.4</ele>
        <time>2021-11-07T11:12:55Z</time>
      </trkpt>
      <trkpt lat="38.2320240" lon="-1.4313400">
        <ele>198.3</ele>
        <time>2021-11-07T11:12:57Z</time>
      </trkpt>
      <trkpt lat="38.2320320" lon="-1.4313820">
        <ele>198.1</ele>
        <time>2021-11-07T11:12:58Z</time>
      </trkpt>
      <trkpt lat="38.2320330" lon="-1.4313940">
        <ele>198.0</ele>
        <time>2021-11-07T11:12:59Z</time>
      </trkpt>
      <trkpt lat="38.2320340" lon="-1.4314140">
        <ele>197.9</ele>
        <time>2021-11-07T11:13:00Z</time>
      </trkpt>
      <trkpt lat="38.2320360" lon="-1.4314420">
        <ele>197.8</ele>
        <time>2021-11-07T11:13:02Z</time>
      </trkpt>
      <trkpt lat="38.2320340" lon="-1.4314710">
        <ele>197.6</ele>
        <time>2021-11-07T11:13:03Z</time>
      </trkpt>
      <trkpt lat="38.2320290" lon="-1.4314960">
        <ele>197.5</ele>
        <time>2021-11-07T11:13:05Z</time>
      </trkpt>
      <trkpt lat="38.2320230" lon="-1.4315340">
        <ele>197.3</ele>
        <time>2021-11-07T11:13:06Z</time>
      </trkpt>
      <trkpt lat="38.2320220" lon="-1.4315510">
        <ele>197.2</ele>
        <time>2021-11-07T11:13:07Z</time>
      </trkpt>
      <trkpt lat="38.2320190" lon="-1.4315720">
        <ele>197.1</ele>
        <time>2021-11-07T11:13:08Z</time>
      </trkpt>
      <trkpt lat="38.2320150" lon="-1.4316020">
        <ele>197.0</ele>
        <time>2021-11-07T11:13:10Z</time>
      </trkpt>
      <trkpt lat="38.2320120" lon="-1.4316200">
        <ele>196.9</ele>
        <time>2021-11-07T11:13:11Z</time>
      </trkpt>
      <trkpt lat="38.2320140" lon="-1.4316450">
        <ele>196.7</ele>
        <time>2021-11-07T11:13:12Z</time>
      </trkpt>
      <trkpt lat="38.2320170" lon="-1.4316880">
        <ele>196.5</ele>
        <time>2021-11-07T11:13:14Z</time>
      </trkpt>
      <trkpt lat="38.2320170" lon="-1.4317010">
        <ele>196.5</ele>
        <time>2021-11-07T11:13:15Z</time>
      </trkpt>
      <trkpt lat="38.2320210" lon="-1.4317380">
        <ele>196.3</ele>
        <time>2021-11-07T11:13:16Z</time>
      </trkpt>
      <trkpt lat="38.2320220" lon="-1.4317570">
        <ele>196.3</ele>
        <time>2021-11-07T11:13:18Z</time>
      </trkpt>
      <trkpt lat="38.2320220" lon="-1.4317760">
        <ele>196.2</ele>
        <time>2021-11-07T11:13:19Z</time>
      </trkpt>
      <trkpt lat="38.2320230" lon="-1.4317950">
        <ele>196.1</ele>
        <time>2021-11-07T11:13:20Z</time>
      </trkpt>
      <trkpt lat="38.2320230" lon="-1.4318220">
        <ele>196.0</ele>
        <time>2021-11-07T11:13:22Z</time>
      </trkpt>
      <trkpt lat="38.2320220" lon="-1.4318400">
        <ele>195.9</ele>
        <time>2021-11-07T11:13:23Z</time>
      </trkpt>
      <trkpt lat="38.2320210" lon="-1.4318590">
        <ele>195.9</ele>
        <time>2021-11-07T11:13:24Z</time>
      </trkpt>
      <trkpt lat="38.2320200" lon="-1.4318830">
        <ele>195.8</ele>
        <time>2021-11-07T11:13:25Z</time>
      </trkpt>
      <trkpt lat="38.2320200" lon="-1.4319200">
        <ele>195.7</ele>
        <time>2021-11-07T11:13:27Z</time>
      </trkpt>
      <trkpt lat="38.2320190" lon="-1.4319300">
        <ele>195.7</ele>
        <time>2021-11-07T11:13:28Z</time>
      </trkpt>
      <trkpt lat="38.2320150" lon="-1.4319560">
        <ele>195.6</ele>
        <time>2021-11-07T11:13:29Z</time>
      </trkpt>
      <trkpt lat="38.2320130" lon="-1.4319740">
        <ele>195.5</ele>
        <time>2021-11-07T11:13:30Z</time>
      </trkpt>
      <trkpt lat="38.2320110" lon="-1.4319930">
        <ele>195.5</ele>
        <time>2021-11-07T11:13:31Z</time>
      </trkpt>
      <trkpt lat="38.2320110" lon="-1.4320270">
        <ele>195.4</ele>
        <time>2021-11-07T11:13:33Z</time>
      </trkpt>
      <trkpt lat="38.2320170" lon="-1.4320750">
        <ele>195.3</ele>
        <time>2021-11-07T11:13:35Z</time>
      </trkpt>
      <trkpt lat="38.2320210" lon="-1.4320920">
        <ele>195.3</ele>
        <time>2021-11-07T11:13:36Z</time>
      </trkpt>
      <trkpt lat="38.2320350" lon="-1.4321270">
        <ele>195.2</ele>
        <time>2021-11-07T11:13:38Z</time>
      </trkpt>
      <trkpt lat="38.2320410" lon="-1.4321400">
        <ele>195.1</ele>
        <time>2021-11-07T11:13:39Z</time>
      </trkpt>
      <trkpt lat="38.2320490" lon="-1.4321570">
        <ele>195.1</ele>
        <time>2021-11-07T11:13:40Z</time>
      </trkpt>
      <trkpt lat="38.2320630" lon="-1.4321790">
        <ele>195.0</ele>
        <time>2021-11-07T11:13:42Z</time>
      </trkpt>
      <trkpt lat="38.2320770" lon="-1.4322010">
        <ele>194.9</ele>
        <time>2021-11-07T11:13:43Z</time>
      </trkpt>
      <trkpt lat="38.2320910" lon="-1.4322240">
        <ele>194.9</ele>
        <time>2021-11-07T11:13:45Z</time>
      </trkpt>
      <trkpt lat="38.2321110" lon="-1.4322470">
        <ele>194.8</ele>
        <time>2021-11-07T11:13:46Z</time>
      </trkpt>
      <trkpt lat="38.2321210" lon="-1.4322570">
        <ele>194.7</ele>
        <time>2021-11-07T11:13:47Z</time>
      </trkpt>
      <trkpt lat="38.2321430" lon="-1.4322800">
        <ele>194.6</ele>
        <time>2021-11-07T11:13:49Z</time>
      </trkpt>
      <trkpt lat="38.2321500" lon="-1.4322880">
        <ele>194.6</ele>
        <time>2021-11-07T11:13:50Z</time>
      </trkpt>
      <trkpt lat="38.2321600" lon="-1.4323120">
        <ele>194.5</ele>
        <time>2021-11-07T11:13:51Z</time>
      </trkpt>
      <trkpt lat="38.2321730" lon="-1.4323340">
        <ele>194.4</ele>
        <time>2021-11-07T11:13:53Z</time>
      </trkpt>
      <trkpt lat="38.2321880" lon="-1.4323570">
        <ele>194.3</ele>
        <time>2021-11-07T11:13:54Z</time>
      </trkpt>
      <trkpt lat="38.2322000" lon="-1.4323800">
        <ele>194.3</ele>
        <time>2021-11-07T11:13:56Z</time>
      </trkpt>
      <trkpt lat="38.2322080" lon="-1.4323950">
        <ele>194.2</ele>
        <time>2021-11-07T11:13:57Z</time>
      </trkpt>
      <trkpt lat="38.2322180" lon="-1.4324130">
        <ele>194.2</ele>
        <time>2021-11-07T11:13:58Z</time>
      </trkpt>
      <trkpt lat="38.2322360" lon="-1.4324340">
        <ele>194.1</ele>
        <time>2021-11-07T11:13:59Z</time>
      </trkpt>
      <trkpt lat="38.2322510" lon="-1.4324570">
        <ele>194.0</ele>
        <time>2021-11-07T11:14:01Z</time>
      </trkpt>
      <trkpt lat="38.2322630" lon="-1.4324710">
        <ele>193.9</ele>
        <time>2021-11-07T11:14:02Z</time>
      </trkpt>
      <trkpt lat="38.2322740" lon="-1.4324860">
        <ele>193.9</ele>
        <time>2021-11-07T11:14:03Z</time>
      </trkpt>
      <trkpt lat="38.2322920" lon="-1.4325000">
        <ele>193.8</ele>
        <time>2021-11-07T11:14:04Z</time>
      </trkpt>
      <trkpt lat="38.2323050" lon="-1.4325100">
        <ele>193.7</ele>
        <time>2021-11-07T11:14:05Z</time>
      </trkpt>
      <trkpt lat="38.2323250" lon="-1.4325190">
        <ele>193.6</ele>
        <time>2021-11-07T11:14:07Z</time>
      </trkpt>
      <trkpt lat="38.2323390" lon="-1.4325180">
        <ele>193.6</ele>
        <time>2021-11-07T11:14:08Z</time>
      </trkpt>
      <trkpt lat="38.2323680" lon="-1.4325050">
        <ele>193.4</ele>
        <time>2021-11-07T11:14:09Z</time>
      </trkpt>
      <trkpt lat="38.2323750" lon="-1.4325020">
        <ele>193.4</ele>
        <time>2021-11-07T11:14:10Z</time>
      </trkpt>
      <trkpt lat="38.2324090" lon="-1.4324920">
        <ele>193.2</ele>
        <time>2021-11-07T11:14:12Z</time>
      </trkpt>
      <trkpt lat="38.2324190" lon="-1.4324870">
        <ele>193.2</ele>
        <time>2021-11-07T11:14:13Z</time>
      </trkpt>
      <trkpt lat="38.2324340" lon="-1.4324800">
        <ele>193.1</ele>
        <time>2021-11-07T11:14:14Z</time>
      </trkpt>
      <trkpt lat="38.2324560" lon="-1.4324710">
        <ele>193.0</ele>
        <time>2021-11-07T11:14:16Z</time>
      </trkpt>
      <trkpt lat="38.2324710" lon="-1.4324650">
        <ele>192.9</ele>
        <time>2021-11-07T11:14:17Z</time>
      </trkpt>
      <trkpt lat="38.2324840" lon="-1.4324600">
        <ele>192.8</ele>
        <time>2021-11-07T11:14:18Z</time>
      </trkpt>
      <trkpt lat="38.2325060" lon="-1.4324490">
        <ele>192.7</ele>
        <time>2021-11-07T11:14:19Z</time>
      </trkpt>
      <trkpt lat="38.2325280" lon="-1.4324430">
        <ele>192.6</ele>
        <time>2021-11-07T11:14:21Z</time>
      </trkpt>
      <trkpt lat="38.2325590" lon="-1.4324350">
        <ele>192.4</ele>
        <time>2021-11-07T11:14:22Z</time>
      </trkpt>
      <trkpt lat="38.2325880" lon="-1.4324260">
        <ele>192.3</ele>
        <time>2021-11-07T11:14:24Z</time>
      </trkpt>
      <trkpt lat="38.2326060" lon="-1.4324250">
        <ele>192.2</ele>
        <time>2021-11-07T11:14:26Z</time>
      </trkpt>
      <trkpt lat="38.2326190" lon="-1.4324220">
        <ele>192.1</ele>
        <time>2021-11-07T11:14:27Z</time>
      </trkpt>
      <trkpt lat="38.2326340" lon="-1.4324170">
        <ele>192.0</ele>
        <time>2021-11-07T11:14:28Z</time>
      </trkpt>
      <trkpt lat="38.2326490" lon="-1.4324090">
        <ele>191.9</ele>
        <time>2021-11-07T11:14:29Z</time>
      </trkpt>
      <trkpt lat="38.2326800" lon="-1.4324090">
        <ele>191.8</ele>
        <time>2021-11-07T11:14:30Z</time>
      </trkpt>
      <trkpt lat="38.2326860" lon="-1.4324100">
        <ele>191.7</ele>
        <time>2021-11-07T11:14:31Z</time>
      </trkpt>
      <trkpt lat="38.2327200" lon="-1.4324190">
        <ele>191.7</ele>
        <time>2021-11-07T11:14:33Z</time>
      </trkpt>
      <trkpt lat="38.2327320" lon="-1.4324220">
        <ele>191.6</ele>
        <time>2021-11-07T11:14:34Z</time>
      </trkpt>
      <trkpt lat="38.2327640" lon="-1.4324360">
        <ele>191.4</ele>
        <time>2021-11-07T11:14:36Z</time>
      </trkpt>
      <trkpt lat="38.2327740" lon="-1.4324440">
        <ele>191.4</ele>
        <time>2021-11-07T11:14:37Z</time>
      </trkpt>
      <trkpt lat="38.2327910" lon="-1.4324560">
        <ele>191.3</ele>
        <time>2021-11-07T11:14:39Z</time>
      </trkpt>
      <trkpt lat="38.2328050" lon="-1.4324650">
        <ele>191.2</ele>
        <time>2021-11-07T11:14:40Z</time>
      </trkpt>
      <trkpt lat="38.2328220" lon="-1.4324840">
        <ele>191.1</ele>
        <time>2021-11-07T11:14:41Z</time>
      </trkpt>
      <trkpt lat="38.2328390" lon="-1.4325000">
        <ele>191.0</ele>
        <time>2021-11-07T11:14:43Z</time>
      </trkpt>
      <trkpt lat="38.2328600" lon="-1.4325230">
        <ele>190.9</ele>
        <time>2021-11-07T11:14:44Z</time>
      </trkpt>
      <trkpt lat="38.2328690" lon="-1.4325350">
        <ele>190.9</ele>
        <time>2021-11-07T11:14:45Z</time>
      </trkpt>
      <trkpt lat="38.2328870" lon="-1.4325610">
        <ele>190.8</ele>
        <time>2021-11-07T11:14:46Z</time>
      </trkpt>
      <trkpt lat="38.2328960" lon="-1.4325740">
        <ele>190.7</ele>
        <time>2021-11-07T11:14:48Z</time>
      </trkpt>
      <trkpt lat="38.2329060" lon="-1.4325880">
        <ele>190.7</ele>
        <time>2021-11-07T11:14:49Z</time>
      </trkpt>
      <trkpt lat="38.2329150" lon="-1.4326010">
        <ele>190.6</ele>
        <time>2021-11-07T11:14:50Z</time>
      </trkpt>
      <trkpt lat="38.2329260" lon="-1.4326420">
        <ele>190.5</ele>
        <time>2021-11-07T11:14:52Z</time>
      </trkpt>
      <trkpt lat="38.2329280" lon="-1.4326530">
        <ele>190.5</ele>
        <time>2021-11-07T11:14:53Z</time>
      </trkpt>
      <trkpt lat="38.2329370" lon="-1.4326780">
        <ele>190.4</ele>
        <time>2021-11-07T11:14:55Z</time>
      </trkpt>
      <trkpt lat="38.2329480" lon="-1.4327040">
        <ele>190.4</ele>
        <time>2021-11-07T11:14:57Z</time>
      </trkpt>
      <trkpt lat="38.2329580" lon="-1.4327170">
        <ele>190.3</ele>
        <time>2021-11-07T11:14:58Z</time>
      </trkpt>
      <trkpt lat="38.2329680" lon="-1.4327350">
        <ele>190.3</ele>
        <time>2021-11-07T11:14:59Z</time>
      </trkpt>
      <trkpt lat="38.2329830" lon="-1.4327640">
        <ele>190.2</ele>
        <time>2021-11-07T11:15:00Z</time>
      </trkpt>
      <trkpt lat="38.2329880" lon="-1.4327740">
        <ele>190.2</ele>
        <time>2021-11-07T11:15:01Z</time>
      </trkpt>
      <trkpt lat="38.2330050" lon="-1.4328100">
        <ele>190.2</ele>
        <time>2021-11-07T11:15:03Z</time>
      </trkpt>
      <trkpt lat="38.2330100" lon="-1.4328220">
        <ele>190.2</ele>
        <time>2021-11-07T11:15:04Z</time>
      </trkpt>
      <trkpt lat="38.2330230" lon="-1.4328620">
        <ele>190.1</ele>
        <time>2021-11-07T11:15:06Z</time>
      </trkpt>
      <trkpt lat="38.2330290" lon="-1.4328740">
        <ele>190.1</ele>
        <time>2021-11-07T11:15:07Z</time>
      </trkpt>
      <trkpt lat="38.2330370" lon="-1.4328950">
        <ele>190.1</ele>
        <time>2021-11-07T11:15:08Z</time>
      </trkpt>
      <trkpt lat="38.2330490" lon="-1.4329290">
        <ele>190.1</ele>
        <time>2021-11-07T11:15:10Z</time>
      </trkpt>
      <trkpt lat="38.2330630" lon="-1.4329660">
        <ele>190.0</ele>
        <time>2021-11-07T11:15:11Z</time>
      </trkpt>
      <trkpt lat="38.2330690" lon="-1.4329780">
        <ele>190.0</ele>
        <time>2021-11-07T11:15:12Z</time>
      </trkpt>
      <trkpt lat="38.2330910" lon="-1.4330110">
        <ele>190.0</ele>
        <time>2021-11-07T11:15:14Z</time>
      </trkpt>
      <trkpt lat="38.2330990" lon="-1.4330270">
        <ele>190.0</ele>
        <time>2021-11-07T11:15:15Z</time>
      </trkpt>
      <trkpt lat="38.2331190" lon="-1.4330580">
        <ele>190.0</ele>
        <time>2021-11-07T11:15:17Z</time>
      </trkpt>
      <trkpt lat="38.2331250" lon="-1.4330670">
        <ele>190.0</ele>
        <time>2021-11-07T11:15:18Z</time>
      </trkpt>
      <trkpt lat="38.2331410" lon="-1.4330910">
        <ele>190.0</ele>
        <time>2021-11-07T11:15:19Z</time>
      </trkpt>
      <trkpt lat="38.2331570" lon="-1.4331110">
        <ele>190.0</ele>
        <time>2021-11-07T11:15:21Z</time>
      </trkpt>
      <trkpt lat="38.2331780" lon="-1.4331410">
        <ele>189.9</ele>
        <time>2021-11-07T11:15:22Z</time>
      </trkpt>
      <trkpt lat="38.2331830" lon="-1.4331510">
        <ele>189.9</ele>
        <time>2021-11-07T11:15:23Z</time>
      </trkpt>
      <trkpt lat="38.2332060" lon="-1.4331850">
        <ele>189.9</ele>
        <time>2021-11-07T11:15:25Z</time>
      </trkpt>
      <trkpt lat="38.2332140" lon="-1.4331970">
        <ele>189.9</ele>
        <time>2021-11-07T11:15:26Z</time>
      </trkpt>
      <trkpt lat="38.2332380" lon="-1.4332340">
        <ele>189.9</ele>
        <time>2021-11-07T11:15:28Z</time>
      </trkpt>
      <trkpt lat="38.2332470" lon="-1.4332490">
        <ele>189.9</ele>
        <time>2021-11-07T11:15:29Z</time>
      </trkpt>
      <trkpt lat="38.2332600" lon="-1.4332620">
        <ele>189.9</ele>
        <time>2021-11-07T11:15:31Z</time>
      </trkpt>
      <trkpt lat="38.2332720" lon="-1.4332760">
        <ele>189.9</ele>
        <time>2021-11-07T11:15:32Z</time>
      </trkpt>
      <trkpt lat="38.2332910" lon="-1.4332940">
        <ele>189.9</ele>
        <time>2021-11-07T11:15:33Z</time>
      </trkpt>
      <trkpt lat="38.2333090" lon="-1.4333100">
        <ele>189.9</ele>
        <time>2021-11-07T11:15:35Z</time>
      </trkpt>
      <trkpt lat="38.2333300" lon="-1.4333290">
        <ele>189.9</ele>
        <time>2021-11-07T11:15:36Z</time>
      </trkpt>
      <trkpt lat="38.2333550" lon="-1.4333390">
        <ele>189.9</ele>
        <time>2021-11-07T11:15:38Z</time>
      </trkpt>
      <trkpt lat="38.2333760" lon="-1.4333500">
        <ele>189.9</ele>
        <time>2021-11-07T11:15:39Z</time>
      </trkpt>
      <trkpt lat="38.2334000" lon="-1.4333620">
        <ele>189.9</ele>
        <time>2021-11-07T11:15:41Z</time>
      </trkpt>
      <trkpt lat="38.2334170" lon="-1.4333680">
        <ele>190.0</ele>
        <time>2021-11-07T11:15:42Z</time>
      </trkpt>
      <trkpt lat="38.2334320" lon="-1.4333770">
        <ele>190.0</ele>
        <time>2021-11-07T11:15:43Z</time>
      </trkpt>
      <trkpt lat="38.2334590" lon="-1.4333870">
        <ele>190.0</ele>
        <time>2021-11-07T11:15:44Z</time>
      </trkpt>
      <trkpt lat="38.2334680" lon="-1.4333900">
        <ele>190.0</ele>
        <time>2021-11-07T11:15:45Z</time>
      </trkpt>
      <trkpt lat="38.2334980" lon="-1.4333960">
        <ele>190.1</ele>
        <time>2021-11-07T11:15:46Z</time>
      </trkpt>
      <trkpt lat="38.2335060" lon="-1.4333990">
        <ele>190.1</ele>
        <time>2021-11-07T11:15:47Z</time>
      </trkpt>
      <trkpt lat="38.2335300" lon="-1.4334080">
        <ele>190.1</ele>
        <time>2021-11-07T11:15:48Z</time>
      </trkpt>
      <trkpt lat="38.2335480" lon="-1.4334160">
        <ele>190.2</ele>
        <time>2021-11-07T11:15:50Z</time>
      </trkpt>
      <trkpt lat="38.2335740" lon="-1.4334280">
        <ele>190.2</ele>
        <time>2021-11-07T11:15:51Z</time>
      </trkpt>
      <trkpt lat="38.2335900" lon="-1.4334360">
        <ele>190.3</ele>
        <time>2021-11-07T11:15:52Z</time>
      </trkpt>
      <trkpt lat="38.2336220" lon="-1.4334560">
        <ele>190.4</ele>
        <time>2021-11-07T11:15:55Z</time>
      </trkpt>
      <trkpt lat="38.2336430" lon="-1.4334690">
        <ele>190.4</ele>
        <time>2021-11-07T11:15:56Z</time>
      </trkpt>
      <trkpt lat="38.2336590" lon="-1.4334820">
        <ele>190.5</ele>
        <time>2021-11-07T11:15:58Z</time>
      </trkpt>
      <trkpt lat="38.2336700" lon="-1.4334920">
        <ele>190.5</ele>
        <time>2021-11-07T11:15:59Z</time>
      </trkpt>
      <trkpt lat="38.2336870" lon="-1.4335060">
        <ele>190.6</ele>
        <time>2021-11-07T11:16:00Z</time>
      </trkpt>
      <trkpt lat="38.2337020" lon="-1.4335230">
        <ele>190.6</ele>
        <time>2021-11-07T11:16:01Z</time>
      </trkpt>
      <trkpt lat="38.2337160" lon="-1.4335480">
        <ele>190.7</ele>
        <time>2021-11-07T11:16:03Z</time>
      </trkpt>
      <trkpt lat="38.2337210" lon="-1.4335750">
        <ele>190.7</ele>
        <time>2021-11-07T11:16:04Z</time>
      </trkpt>
      <trkpt lat="38.2337240" lon="-1.4336000">
        <ele>190.7</ele>
        <time>2021-11-07T11:16:06Z</time>
      </trkpt>
      <trkpt lat="38.2337260" lon="-1.4336370">
        <ele>190.7</ele>
        <time>2021-11-07T11:16:07Z</time>
      </trkpt>
      <trkpt lat="38.2337270" lon="-1.4336520">
        <ele>190.8</ele>
        <time>2021-11-07T11:16:08Z</time>
      </trkpt>
      <trkpt lat="38.2337300" lon="-1.4336750">
        <ele>190.8</ele>
        <time>2021-11-07T11:16:09Z</time>
      </trkpt>
      <trkpt lat="38.2337370" lon="-1.4337090">
        <ele>190.7</ele>
        <time>2021-11-07T11:16:11Z</time>
      </trkpt>
      <trkpt lat="38.2337390" lon="-1.4337320">
        <ele>190.7</ele>
        <time>2021-11-07T11:16:12Z</time>
      </trkpt>
      <trkpt lat="38.2337410" lon="-1.4337530">
        <ele>190.7</ele>
        <time>2021-11-07T11:16:13Z</time>
      </trkpt>
      <trkpt lat="38.2337540" lon="-1.4337930">
        <ele>190.7</ele>
        <time>2021-11-07T11:16:14Z</time>
      </trkpt>
      <trkpt lat="38.2337600" lon="-1.4338070">
        <ele>190.7</ele>
        <time>2021-11-07T11:16:15Z</time>
      </trkpt>
      <trkpt lat="38.2337810" lon="-1.4338430">
        <ele>190.7</ele>
        <time>2021-11-07T11:16:17Z</time>
      </trkpt>
      <trkpt lat="38.2337890" lon="-1.4338550">
        <ele>190.7</ele>
        <time>2021-11-07T11:16:18Z</time>
      </trkpt>
      <trkpt lat="38.2338100" lon="-1.4338800">
        <ele>190.6</ele>
        <time>2021-11-07T11:16:20Z</time>
      </trkpt>
      <trkpt lat="38.2338170" lon="-1.4338890">
        <ele>190.6</ele>
        <time>2021-11-07T11:16:21Z</time>
      </trkpt>
      <trkpt lat="38.2338320" lon="-1.4339090">
        <ele>190.6</ele>
        <time>2021-11-07T11:16:22Z</time>
      </trkpt>
      <trkpt lat="38.2338530" lon="-1.4339230">
        <ele>190.6</ele>
        <time>2021-11-07T11:16:24Z</time>
      </trkpt>
      <trkpt lat="38.2338730" lon="-1.4339310">
        <ele>190.6</ele>
        <time>2021-11-07T11:16:25Z</time>
      </trkpt>
      <trkpt lat="38.2338950" lon="-1.4339370">
        <ele>190.6</ele>
        <time>2021-11-07T11:16:27Z</time>
      </trkpt>
      <trkpt lat="38.2339220" lon="-1.4339480">
        <ele>190.5</ele>
        <time>2021-11-07T11:16:28Z</time>
      </trkpt>
      <trkpt lat="38.2339350" lon="-1.4339530">
        <ele>190.5</ele>
        <time>2021-11-07T11:16:29Z</time>
      </trkpt>
      <trkpt lat="38.2339690" lon="-1.4339640">
        <ele>190.5</ele>
        <time>2021-11-07T11:16:31Z</time>
      </trkpt>
      <trkpt lat="38.2339800" lon="-1.4339680">
        <ele>190.5</ele>
        <time>2021-11-07T11:16:32Z</time>
      </trkpt>
      <trkpt lat="38.2340040" lon="-1.4339710">
        <ele>190.4</ele>
        <time>2021-11-07T11:16:33Z</time>
      </trkpt>
      <trkpt lat="38.2340340" lon="-1.4339660">
        <ele>190.4</ele>
        <time>2021-11-07T11:16:35Z</time>
      </trkpt>
      <trkpt lat="38.2340660" lon="-1.4339580">
        <ele>190.4</ele>
        <time>2021-11-07T11:16:37Z</time>
      </trkpt>
      <trkpt lat="38.2340800" lon="-1.4339550">
        <ele>190.4</ele>
        <time>2021-11-07T11:16:38Z</time>
      </trkpt>
      <trkpt lat="38.2341080" lon="-1.4339490">
        <ele>190.3</ele>
        <time>2021-11-07T11:16:40Z</time>
      </trkpt>
      <trkpt lat="38.2341170" lon="-1.4339480">
        <ele>190.3</ele>
        <time>2021-11-07T11:16:41Z</time>
      </trkpt>
      <trkpt lat="38.2341430" lon="-1.4339470">
        <ele>190.3</ele>
        <time>2021-11-07T11:16:42Z</time>
      </trkpt>
      <trkpt lat="38.2341630" lon="-1.4339510">
        <ele>190.3</ele>
        <time>2021-11-07T11:16:44Z</time>
      </trkpt>
      <trkpt lat="38.2341930" lon="-1.4339570">
        <ele>190.2</ele>
        <time>2021-11-07T11:16:45Z</time>
      </trkpt>
      <trkpt lat="38.2342030" lon="-1.4339600">
        <ele>190.2</ele>
        <time>2021-11-07T11:16:46Z</time>
      </trkpt>
      <trkpt lat="38.2342340" lon="-1.4339770">
        <ele>190.2</ele>
        <time>2021-11-07T11:16:48Z</time>
      </trkpt>
      <trkpt lat="38.2342450" lon="-1.4339810">
        <ele>190.2</ele>
        <time>2021-11-07T11:16:49Z</time>
      </trkpt>
      <trkpt lat="38.2342600" lon="-1.4339910">
        <ele>190.2</ele>
        <time>2021-11-07T11:16:50Z</time>
      </trkpt>
      <trkpt lat="38.2342750" lon="-1.4340040">
        <ele>190.1</ele>
        <time>2021-11-07T11:16:52Z</time>
      </trkpt>
      <trkpt lat="38.2342880" lon="-1.4340150">
        <ele>190.1</ele>
        <time>2021-11-07T11:16:53Z</time>
      </trkpt>
      <trkpt lat="38.2342950" lon="-1.4340330">
        <ele>190.1</ele>
        <time>2021-11-07T11:16:54Z</time>
      </trkpt>
      <trkpt lat="38.2343140" lon="-1.4340580">
        <ele>190.1</ele>
        <time>2021-11-07T11:16:55Z</time>
      </trkpt>
      <trkpt lat="38.2343270" lon="-1.4340970">
        <ele>190.0</ele>
        <time>2021-11-07T11:16:57Z</time>
      </trkpt>
      <trkpt lat="38.2343300" lon="-1.4341090">
        <ele>190.0</ele>
        <time>2021-11-07T11:16:58Z</time>
      </trkpt>
      <trkpt lat="38.2343370" lon="-1.4341470">
        <ele>190.0</ele>
        <time>2021-11-07T11:16:59Z</time>
      </trkpt>
      <trkpt lat="38.2343400" lon="-1.4341600">
        <ele>190.0</ele>
        <time>2021-11-07T11:17:00Z</time>
      </trkpt>
      <trkpt lat="38.2343440" lon="-1.4341830">
        <ele>190.0</ele>
        <time>2021-11-07T11:17:01Z</time>
      </trkpt>
      <trkpt lat="38.2343510" lon="-1.4342130">
        <ele>190.0</ele>
        <time>2021-11-07T11:17:03Z</time>
      </trkpt>
      <trkpt lat="38.2343580" lon="-1.4342570">
        <ele>189.9</ele>
        <time>2021-11-07T11:17:04Z</time>
      </trkpt>
      <trkpt lat="38.2343710" lon="-1.4342980">
        <ele>189.9</ele>
        <time>2021-11-07T11:17:06Z</time>
      </trkpt>
      <trkpt lat="38.2343760" lon="-1.4343130">
        <ele>189.9</ele>
        <time>2021-11-07T11:17:07Z</time>
      </trkpt>
      <trkpt lat="38.2343950" lon="-1.4343480">
        <ele>189.9</ele>
        <time>2021-11-07T11:17:09Z</time>
      </trkpt>
      <trkpt lat="38.2344040" lon="-1.4343610">
        <ele>189.9</ele>
        <time>2021-11-07T11:17:10Z</time>
      </trkpt>
      <trkpt lat="38.2344280" lon="-1.4343930">
        <ele>189.8</ele>
        <time>2021-11-07T11:17:12Z</time>
      </trkpt>
      <trkpt lat="38.2344360" lon="-1.4344030">
        <ele>189.8</ele>
        <time>2021-11-07T11:17:13Z</time>
      </trkpt>
      <trkpt lat="38.2344470" lon="-1.4344250">
        <ele>189.8</ele>
        <time>2021-11-07T11:17:14Z</time>
      </trkpt>
      <trkpt lat="38.2344630" lon="-1.4344400">
        <ele>189.8</ele>
        <time>2021-11-07T11:17:16Z</time>
      </trkpt>
      <trkpt lat="38.2344830" lon="-1.4344640">
        <ele>189.8</ele>
        <time>2021-11-07T11:17:17Z</time>
      </trkpt>
      <trkpt lat="38.2345120" lon="-1.4345010">
        <ele>189.8</ele>
        <time>2021-11-07T11:17:19Z</time>
      </trkpt>
      <trkpt lat="38.2345220" lon="-1.4345120">
        <ele>189.8</ele>
        <time>2021-11-07T11:17:21Z</time>
      </trkpt>
      <trkpt lat="38.2345330" lon="-1.4345230">
        <ele>189.8</ele>
        <time>2021-11-07T11:17:22Z</time>
      </trkpt>
      <trkpt lat="38.2345500" lon="-1.4345410">
        <ele>189.8</ele>
        <time>2021-11-07T11:17:23Z</time>
      </trkpt>
      <trkpt lat="38.2345610" lon="-1.4345630">
        <ele>189.7</ele>
        <time>2021-11-07T11:17:25Z</time>
      </trkpt>
      <trkpt lat="38.2345700" lon="-1.4345780">
        <ele>189.7</ele>
        <time>2021-11-07T11:17:26Z</time>
      </trkpt>
      <trkpt lat="38.2345830" lon="-1.4345960">
        <ele>189.7</ele>
        <time>2021-11-07T11:17:27Z</time>
      </trkpt>
      <trkpt lat="38.2345950" lon="-1.4346160">
        <ele>189.6</ele>
        <time>2021-11-07T11:17:29Z</time>
      </trkpt>
      <trkpt lat="38.2346030" lon="-1.4346310">
        <ele>189.6</ele>
        <time>2021-11-07T11:17:30Z</time>
      </trkpt>
      <trkpt lat="38.2346090" lon="-1.4346600">
        <ele>189.6</ele>
        <time>2021-11-07T11:17:31Z</time>
      </trkpt>
      <trkpt lat="38.2346150" lon="-1.4346910">
        <ele>189.5</ele>
        <time>2021-11-07T11:17:33Z</time>
      </trkpt>
      <trkpt lat="38.2346210" lon="-1.4347250">
        <ele>189.5</ele>
        <time>2021-11-07T11:17:34Z</time>
      </trkpt>
      <trkpt lat="38.2346230" lon="-1.4347380">
        <ele>189.4</ele>
        <time>2021-11-07T11:17:35Z</time>
      </trkpt>
      <trkpt lat="38.2346300" lon="-1.4347690">
        <ele>189.4</ele>
        <time>2021-11-07T11:17:36Z</time>
      </trkpt>
      <trkpt lat="38.2346350" lon="-1.4348070">
        <ele>189.3</ele>
        <time>2021-11-07T11:17:38Z</time>
      </trkpt>
      <trkpt lat="38.2346350" lon="-1.4348280">
        <ele>189.2</ele>
        <time>2021-11-07T11:17:39Z</time>
      </trkpt>
      <trkpt lat="38.2346300" lon="-1.4348680">
        <ele>189.1</ele>
        <time>2021-11-07T11:17:41Z</time>
      </trkpt>
      <trkpt lat="38.2346280" lon="-1.4349040">
        <ele>189.1</ele>
        <time>2021-11-07T11:17:43Z</time>
      </trkpt>
      <trkpt lat="38.2346270" lon="-1.4349150">
        <ele>189.0</ele>
        <time>2021-11-07T11:17:44Z</time>
      </trkpt>
      <trkpt lat="38.2346300" lon="-1.4349570">
        <ele>189.0</ele>
        <time>2021-11-07T11:17:45Z</time>
      </trkpt>
      <trkpt lat="38.2346350" lon="-1.4349950">
        <ele>188.9</ele>
        <time>2021-11-07T11:17:47Z</time>
      </trkpt>
      <trkpt lat="38.2346390" lon="-1.4350080">
        <ele>188.9</ele>
        <time>2021-11-07T11:17:48Z</time>
      </trkpt>
      <trkpt lat="38.2346510" lon="-1.4350410">
        <ele>188.9</ele>
        <time>2021-11-07T11:17:50Z</time>
      </trkpt>
      <trkpt lat="38.2346620" lon="-1.4350570">
        <ele>188.9</ele>
        <time>2021-11-07T11:17:52Z</time>
      </trkpt>
      <trkpt lat="38.2346710" lon="-1.4350700">
        <ele>188.9</ele>
        <time>2021-11-07T11:17:53Z</time>
      </trkpt>
      <trkpt lat="38.2346910" lon="-1.4350810">
        <ele>188.9</ele>
        <time>2021-11-07T11:17:54Z</time>
      </trkpt>
      <trkpt lat="38.2347140" lon="-1.4350890">
        <ele>188.9</ele>
        <time>2021-11-07T11:17:56Z</time>
      </trkpt>
      <trkpt lat="38.2347340" lon="-1.4350930">
        <ele>188.9</ele>
        <time>2021-11-07T11:17:57Z</time>
      </trkpt>
      <trkpt lat="38.2347580" lon="-1.4350970">
        <ele>189.0</ele>
        <time>2021-11-07T11:17:59Z</time>
      </trkpt>
      <trkpt lat="38.2347900" lon="-1.4350970">
        <ele>189.0</ele>
        <time>2021-11-07T11:18:01Z</time>
      </trkpt>
      <trkpt lat="38.2347970" lon="-1.4350960">
        <ele>189.0</ele>
        <time>2021-11-07T11:18:02Z</time>
      </trkpt>
      <trkpt lat="38.2348130" lon="-1.4350920">
        <ele>189.0</ele>
        <time>2021-11-07T11:18:03Z</time>
      </trkpt>
      <trkpt lat="38.2348310" lon="-1.4350880">
        <ele>189.1</ele>
        <time>2021-11-07T11:18:04Z</time>
      </trkpt>
      <trkpt lat="38.2348490" lon="-1.4350780">
        <ele>189.1</ele>
        <time>2021-11-07T11:18:05Z</time>
      </trkpt>
      <trkpt lat="38.2348660" lon="-1.4350750">
        <ele>189.2</ele>
        <time>2021-11-07T11:18:06Z</time>
      </trkpt>
      <trkpt lat="38.2348810" lon="-1.4350690">
        <ele>189.2</ele>
        <time>2021-11-07T11:18:08Z</time>
      </trkpt>
      <trkpt lat="38.2348990" lon="-1.4350700">
        <ele>189.3</ele>
        <time>2021-11-07T11:18:09Z</time>
      </trkpt>
      <trkpt lat="38.2349210" lon="-1.4350640">
        <ele>189.3</ele>
        <time>2021-11-07T11:18:10Z</time>
      </trkpt>
      <trkpt lat="38.2349440" lon="-1.4350640">
        <ele>189.4</ele>
        <time>2021-11-07T11:18:12Z</time>
      </trkpt>
      <trkpt lat="38.2349750" lon="-1.4350580">
        <ele>189.6</ele>
        <time>2021-11-07T11:18:13Z</time>
      </trkpt>
      <trkpt lat="38.2349830" lon="-1.4350570">
        <ele>189.6</ele>
        <time>2021-11-07T11:18:14Z</time>
      </trkpt>
      <trkpt lat="38.2349990" lon="-1.4350520">
        <ele>189.7</ele>
        <time>2021-11-07T11:18:15Z</time>
      </trkpt>
      <trkpt lat="38.2350170" lon="-1.4350440">
        <ele>189.8</ele>
        <time>2021-11-07T11:18:16Z</time>
      </trkpt>
      <trkpt lat="38.2350370" lon="-1.4350410">
        <ele>189.9</ele>
        <time>2021-11-07T11:18:18Z</time>
      </trkpt>
      <trkpt lat="38.2350510" lon="-1.4350380">
        <ele>190.0</ele>
        <time>2021-11-07T11:18:19Z</time>
      </trkpt>
      <trkpt lat="38.2350810" lon="-1.4350290">
        <ele>190.2</ele>
        <time>2021-11-07T11:18:20Z</time>
      </trkpt>
      <trkpt lat="38.2350900" lon="-1.4350260">
        <ele>190.3</ele>
        <time>2021-11-07T11:18:21Z</time>
      </trkpt>
      <trkpt lat="38.2351180" lon="-1.4350170">
        <ele>190.5</ele>
        <time>2021-11-07T11:18:23Z</time>
      </trkpt>
      <trkpt lat="38.2351250" lon="-1.4350150">
        <ele>190.5</ele>
        <time>2021-11-07T11:18:24Z</time>
      </trkpt>
      <trkpt lat="38.2351390" lon="-1.4350110">
        <ele>190.6</ele>
        <time>2021-11-07T11:18:25Z</time>
      </trkpt>
      <trkpt lat="38.2351690" lon="-1.4350020">
        <ele>190.9</ele>
        <time>2021-11-07T11:18:27Z</time>
      </trkpt>
      <trkpt lat="38.2351840" lon="-1.4349990">
        <ele>191.0</ele>
        <time>2021-11-07T11:18:28Z</time>
      </trkpt>
      <trkpt lat="38.2351980" lon="-1.4349930">
        <ele>191.1</ele>
        <time>2021-11-07T11:18:29Z</time>
      </trkpt>
      <trkpt lat="38.2352280" lon="-1.4349830">
        <ele>191.4</ele>
        <time>2021-11-07T11:18:30Z</time>
      </trkpt>
      <trkpt lat="38.2352370" lon="-1.4349800">
        <ele>191.4</ele>
        <time>2021-11-07T11:18:31Z</time>
      </trkpt>
      <trkpt lat="38.2352510" lon="-1.4349740">
        <ele>191.5</ele>
        <time>2021-11-07T11:18:32Z</time>
      </trkpt>
      <trkpt lat="38.2352640" lon="-1.4349660">
        <ele>191.7</ele>
        <time>2021-11-07T11:18:33Z</time>
      </trkpt>
      <trkpt lat="38.2352770" lon="-1.4349590">
        <ele>191.8</ele>
        <time>2021-11-07T11:18:34Z</time>
      </trkpt>
      <trkpt lat="38.2352890" lon="-1.4349490">
        <ele>191.6</ele>
        <time>2021-11-07T11:18:35Z</time>
      </trkpt>
      <trkpt lat="38.2353010" lon="-1.4349380">
        <ele>191.4</ele>
        <time>2021-11-07T11:18:37Z</time>
      </trkpt>
      <trkpt lat="38.2353060" lon="-1.4349190">
        <ele>191.2</ele>
        <time>2021-11-07T11:18:38Z</time>
      </trkpt>
      <trkpt lat="38.2353130" lon="-1.4349040">
        <ele>191.1</ele>
        <time>2021-11-07T11:18:39Z</time>
      </trkpt>
      <trkpt lat="38.2353190" lon="-1.4348920">
        <ele>190.9</ele>
        <time>2021-11-07T11:18:40Z</time>
      </trkpt>
      <trkpt lat="38.2353270" lon="-1.4348850">
        <ele>190.8</ele>
        <time>2021-11-07T11:18:41Z</time>
      </trkpt>
      <trkpt lat="38.2353370" lon="-1.4348790">
        <ele>190.7</ele>
        <time>2021-11-07T11:18:42Z</time>
      </trkpt>
      <trkpt lat="38.2353520" lon="-1.4348850">
        <ele>190.5</ele>
        <time>2021-11-07T11:18:44Z</time>
      </trkpt>
      <trkpt lat="38.2353610" lon="-1.4348870">
        <ele>190.4</ele>
        <time>2021-11-07T11:18:46Z</time>
      </trkpt>
      <trkpt lat="38.2353500" lon="-1.4348890">
        <ele>190.3</ele>
        <time>2021-11-07T11:18:48Z</time>
      </trkpt>
      <trkpt lat="38.2353440" lon="-1.4348890">
        <ele>190.2</ele>
        <time>2021-11-07T11:18:50Z</time>
      </trkpt>
      <trkpt lat="38.2353410" lon="-1.4348870">
        <ele>190.2</ele>
        <time>2021-11-07T11:18:51Z</time>
      </trkpt>
      <trkpt lat="38.2353440" lon="-1.4348830">
        <ele>190.1</ele>
        <time>2021-11-07T11:18:52Z</time>
      </trkpt>
      <trkpt lat="38.2353510" lon="-1.4348790">
        <ele>190.0</ele>
        <time>2021-11-07T11:18:54Z</time>
      </trkpt>
      <trkpt lat="38.2353660" lon="-1.4348740">
        <ele>189.8</ele>
        <time>2021-11-07T11:18:55Z</time>
      </trkpt>
      <trkpt lat="38.2353640" lon="-1.4348760">
        <ele>189.8</ele>
        <time>2021-11-07T11:18:57Z</time>
      </trkpt>
      <trkpt lat="38.2353640" lon="-1.4348780">
        <ele>189.8</ele>
        <time>2021-11-07T11:18:59Z</time>
      </trkpt>
      <trkpt lat="38.2353670" lon="-1.4348790">
        <ele>189.8</ele>
        <time>2021-11-07T11:19:01Z</time>
      </trkpt>
      <trkpt lat="38.2353690" lon="-1.4348780">
        <ele>189.7</ele>
        <time>2021-11-07T11:19:02Z</time>
      </trkpt>
      <trkpt lat="38.2353750" lon="-1.4348770">
        <ele>189.7</ele>
        <time>2021-11-07T11:19:03Z</time>
      </trkpt>
      <trkpt lat="38.2353810" lon="-1.4348700">
        <ele>189.6</ele>
        <time>2021-11-07T11:19:05Z</time>
      </trkpt>
      <trkpt lat="38.2353860" lon="-1.4348650">
        <ele>189.5</ele>
        <time>2021-11-07T11:19:06Z</time>
      </trkpt>
      <trkpt lat="38.2353980" lon="-1.4348490">
        <ele>189.3</ele>
        <time>2021-11-07T11:19:07Z</time>
      </trkpt>
      <trkpt lat="38.2354070" lon="-1.4348380">
        <ele>189.1</ele>
        <time>2021-11-07T11:19:08Z</time>
      </trkpt>
      <trkpt lat="38.2354150" lon="-1.4348270">
        <ele>189.0</ele>
        <time>2021-11-07T11:19:09Z</time>
      </trkpt>
      <trkpt lat="38.2354260" lon="-1.4347960">
        <ele>188.7</ele>
        <time>2021-11-07T11:19:11Z</time>
      </trkpt>
      <trkpt lat="38.2354300" lon="-1.4347800">
        <ele>188.5</ele>
        <time>2021-11-07T11:19:12Z</time>
      </trkpt>
      <trkpt lat="38.2354370" lon="-1.4347620">
        <ele>188.4</ele>
        <time>2021-11-07T11:19:13Z</time>
      </trkpt>
      <trkpt lat="38.2354520" lon="-1.4347340">
        <ele>188.1</ele>
        <time>2021-11-07T11:19:15Z</time>
      </trkpt>
      <trkpt lat="38.2354730" lon="-1.4347080">
        <ele>187.7</ele>
        <time>2021-11-07T11:19:17Z</time>
      </trkpt>
      <trkpt lat="38.2354800" lon="-1.4346920">
        <ele>187.6</ele>
        <time>2021-11-07T11:19:18Z</time>
      </trkpt>
      <trkpt lat="38.2354890" lon="-1.4346780">
        <ele>187.4</ele>
        <time>2021-11-07T11:19:19Z</time>
      </trkpt>
      <trkpt lat="38.2355080" lon="-1.4346510">
        <ele>187.1</ele>
        <time>2021-11-07T11:19:21Z</time>
      </trkpt>
      <trkpt lat="38.2355220" lon="-1.4346330">
        <ele>186.8</ele>
        <time>2021-11-07T11:19:22Z</time>
      </trkpt>
      <trkpt lat="38.2355340" lon="-1.4346120">
        <ele>186.6</ele>
        <time>2021-11-07T11:19:24Z</time>
      </trkpt>
      <trkpt lat="38.2355560" lon="-1.4345820">
        <ele>186.2</ele>
        <time>2021-11-07T11:19:26Z</time>
      </trkpt>
      <trkpt lat="38.2355610" lon="-1.4345760">
        <ele>186.1</ele>
        <time>2021-11-07T11:19:27Z</time>
      </trkpt>
      <trkpt lat="38.2355750" lon="-1.4345630">
        <ele>185.8</ele>
        <time>2021-11-07T11:19:28Z</time>
      </trkpt>
      <trkpt lat="38.2355850" lon="-1.4345550">
        <ele>185.7</ele>
        <time>2021-11-07T11:19:29Z</time>
      </trkpt>
      <trkpt lat="38.2355970" lon="-1.4345340">
        <ele>185.4</ele>
        <time>2021-11-07T11:19:30Z</time>
      </trkpt>
      <trkpt lat="38.2356020" lon="-1.4345220">
        <ele>185.2</ele>
        <time>2021-11-07T11:19:31Z</time>
      </trkpt>
      <trkpt lat="38.2356080" lon="-1.4345110">
        <ele>185.1</ele>
        <time>2021-11-07T11:19:33Z</time>
      </trkpt>
      <trkpt lat="38.2356140" lon="-1.4345000">
        <ele>184.9</ele>
        <time>2021-11-07T11:19:34Z</time>
      </trkpt>
      <trkpt lat="38.2356200" lon="-1.4344880">
        <ele>184.7</ele>
        <time>2021-11-07T11:19:35Z</time>
      </trkpt>
      <trkpt lat="38.2356250" lon="-1.4344770">
        <ele>184.6</ele>
        <time>2021-11-07T11:19:36Z</time>
      </trkpt>
      <trkpt lat="38.2356250" lon="-1.4344590">
        <ele>184.4</ele>
        <time>2021-11-07T11:19:37Z</time>
      </trkpt>
      <trkpt lat="38.2356240" lon="-1.4344360">
        <ele>184.1</ele>
        <time>2021-11-07T11:19:38Z</time>
      </trkpt>
      <trkpt lat="38.2356280" lon="-1.4344090">
        <ele>183.8</ele>
        <time>2021-11-07T11:19:40Z</time>
      </trkpt>
      <trkpt lat="38.2356300" lon="-1.4343920">
        <ele>183.5</ele>
        <time>2021-11-07T11:19:41Z</time>
      </trkpt>
      <trkpt lat="38.2356340" lon="-1.4343760">
        <ele>183.3</ele>
        <time>2021-11-07T11:19:42Z</time>
      </trkpt>
      <trkpt lat="38.2356400" lon="-1.4343510">
        <ele>183.0</ele>
        <time>2021-11-07T11:19:44Z</time>
      </trkpt>
      <trkpt lat="38.2356420" lon="-1.4343360">
        <ele>182.8</ele>
        <time>2021-11-07T11:19:45Z</time>
      </trkpt>
      <trkpt lat="38.2356430" lon="-1.4343250">
        <ele>182.7</ele>
        <time>2021-11-07T11:19:46Z</time>
      </trkpt>
      <trkpt lat="38.2356550" lon="-1.4343100">
        <ele>182.4</ele>
        <time>2021-11-07T11:19:48Z</time>
      </trkpt>
      <trkpt lat="38.2356730" lon="-1.4342900">
        <ele>182.1</ele>
        <time>2021-11-07T11:19:49Z</time>
      </trkpt>
      <trkpt lat="38.2356830" lon="-1.4342770">
        <ele>181.8</ele>
        <time>2021-11-07T11:19:51Z</time>
      </trkpt>
      <trkpt lat="38.2356920" lon="-1.4342650">
        <ele>181.6</ele>
        <time>2021-11-07T11:19:52Z</time>
      </trkpt>
      <trkpt lat="38.2357000" lon="-1.4342510">
        <ele>181.4</ele>
        <time>2021-11-07T11:19:53Z</time>
      </trkpt>
      <trkpt lat="38.2357170" lon="-1.4342310">
        <ele>181.1</ele>
        <time>2021-11-07T11:19:55Z</time>
      </trkpt>
      <trkpt lat="38.2357250" lon="-1.4342180">
        <ele>180.9</ele>
        <time>2021-11-07T11:19:56Z</time>
      </trkpt>
      <trkpt lat="38.2357340" lon="-1.4342060">
        <ele>180.8</ele>
        <time>2021-11-07T11:19:57Z</time>
      </trkpt>
      <trkpt lat="38.2357470" lon="-1.4341860">
        <ele>180.5</ele>
        <time>2021-11-07T11:19:58Z</time>
      </trkpt>
      <trkpt lat="38.2357640" lon="-1.4341560">
        <ele>180.1</ele>
        <time>2021-11-07T11:20:00Z</time>
      </trkpt>
      <trkpt lat="38.2357700" lon="-1.4341450">
        <ele>180.0</ele>
        <time>2021-11-07T11:20:01Z</time>
      </trkpt>
      <trkpt lat="38.2357790" lon="-1.4341270">
        <ele>179.8</ele>
        <time>2021-11-07T11:20:02Z</time>
      </trkpt>
      <trkpt lat="38.2357850" lon="-1.4341130">
        <ele>179.6</ele>
        <time>2021-11-07T11:20:03Z</time>
      </trkpt>
      <trkpt lat="38.2357910" lon="-1.4341010">
        <ele>179.5</ele>
        <time>2021-11-07T11:20:04Z</time>
      </trkpt>
      <trkpt lat="38.2358010" lon="-1.4340840">
        <ele>179.3</ele>
        <time>2021-11-07T11:20:06Z</time>
      </trkpt>
      <trkpt lat="38.2358130" lon="-1.4340590">
        <ele>179.0</ele>
        <time>2021-11-07T11:20:07Z</time>
      </trkpt>
      <trkpt lat="38.2358210" lon="-1.4340430">
        <ele>178.9</ele>
        <time>2021-11-07T11:20:09Z</time>
      </trkpt>
      <trkpt lat="38.2358330" lon="-1.4340120">
        <ele>178.6</ele>
        <time>2021-11-07T11:20:10Z</time>
      </trkpt>
      <trkpt lat="38.2358390" lon="-1.4340020">
        <ele>178.5</ele>
        <time>2021-11-07T11:20:11Z</time>
      </trkpt>
      <trkpt lat="38.2358470" lon="-1.4339850">
        <ele>178.3</ele>
        <time>2021-11-07T11:20:13Z</time>
      </trkpt>
      <trkpt lat="38.2358540" lon="-1.4339720">
        <ele>178.2</ele>
        <time>2021-11-07T11:20:14Z</time>
      </trkpt>
      <trkpt lat="38.2358660" lon="-1.4339510">
        <ele>178.0</ele>
        <time>2021-11-07T11:20:15Z</time>
      </trkpt>
      <trkpt lat="38.2358750" lon="-1.4339380">
        <ele>177.9</ele>
        <time>2021-11-07T11:20:16Z</time>
      </trkpt>
      <trkpt lat="38.2358900" lon="-1.4339080">
        <ele>177.6</ele>
        <time>2021-11-07T11:20:18Z</time>
      </trkpt>
      <trkpt lat="38.2358950" lon="-1.4338990">
        <ele>177.5</ele>
        <time>2021-11-07T11:20:19Z</time>
      </trkpt>
      <trkpt lat="38.2359070" lon="-1.4338680">
        <ele>177.2</ele>
        <time>2021-11-07T11:20:21Z</time>
      </trkpt>
      <trkpt lat="38.2359100" lon="-1.4338570">
        <ele>177.2</ele>
        <time>2021-11-07T11:20:22Z</time>
      </trkpt>
      <trkpt lat="38.2359180" lon="-1.4338170">
        <ele>176.8</ele>
        <time>2021-11-07T11:20:24Z</time>
      </trkpt>
      <trkpt lat="38.2359220" lon="-1.4338050">
        <ele>176.7</ele>
        <time>2021-11-07T11:20:25Z</time>
      </trkpt>
      <trkpt lat="38.2359250" lon="-1.4337840">
        <ele>176.6</ele>
        <time>2021-11-07T11:20:27Z</time>
      </trkpt>
      <trkpt lat="38.2359250" lon="-1.4337660">
        <ele>176.4</ele>
        <time>2021-11-07T11:20:28Z</time>
      </trkpt>
      <trkpt lat="38.2359240" lon="-1.4337340">
        <ele>176.2</ele>
        <time>2021-11-07T11:20:29Z</time>
      </trkpt>
      <trkpt lat="38.2359250" lon="-1.4337130">
        <ele>176.0</ele>
        <time>2021-11-07T11:20:31Z</time>
      </trkpt>
      <trkpt lat="38.2359310" lon="-1.4336950">
        <ele>175.8</ele>
        <time>2021-11-07T11:20:32Z</time>
      </trkpt>
      <trkpt lat="38.2359350" lon="-1.4336790">
        <ele>175.7</ele>
        <time>2021-11-07T11:20:33Z</time>
      </trkpt>
      <trkpt lat="38.2359360" lon="-1.4336570">
        <ele>175.5</ele>
        <time>2021-11-07T11:20:34Z</time>
      </trkpt>
      <trkpt lat="38.2359350" lon="-1.4336410">
        <ele>175.4</ele>
        <time>2021-11-07T11:20:35Z</time>
      </trkpt>
      <trkpt lat="38.2359370" lon="-1.4336160">
        <ele>175.1</ele>
        <time>2021-11-07T11:20:36Z</time>
      </trkpt>
      <trkpt lat="38.2359420" lon="-1.4335860">
        <ele>174.8</ele>
        <time>2021-11-07T11:20:38Z</time>
      </trkpt>
      <trkpt lat="38.2359470" lon="-1.4335630">
        <ele>174.6</ele>
        <time>2021-11-07T11:20:39Z</time>
      </trkpt>
      <trkpt lat="38.2359540" lon="-1.4335490">
        <ele>174.4</ele>
        <time>2021-11-07T11:20:41Z</time>
      </trkpt>
      <trkpt lat="38.2359610" lon="-1.4335350">
        <ele>174.2</ele>
        <time>2021-11-07T11:20:42Z</time>
      </trkpt>
      <trkpt lat="38.2359680" lon="-1.4335110">
        <ele>173.9</ele>
        <time>2021-11-07T11:20:43Z</time>
      </trkpt>
      <trkpt lat="38.2359750" lon="-1.4334910">
        <ele>173.7</ele>
        <time>2021-11-07T11:20:44Z</time>
      </trkpt>
      <trkpt lat="38.2359820" lon="-1.4334690">
        <ele>173.4</ele>
        <time>2021-11-07T11:20:46Z</time>
      </trkpt>
      <trkpt lat="38.2359950" lon="-1.4334420">
        <ele>173.0</ele>
        <time>2021-11-07T11:20:47Z</time>
      </trkpt>
      <trkpt lat="38.2360050" lon="-1.4334110">
        <ele>172.6</ele>
        <time>2021-11-07T11:20:49Z</time>
      </trkpt>
      <trkpt lat="38.2360170" lon="-1.4333800">
        <ele>172.2</ele>
        <time>2021-11-07T11:20:50Z</time>
      </trkpt>
      <trkpt lat="38.2360220" lon="-1.4333520">
        <ele>171.9</ele>
        <time>2021-11-07T11:20:51Z</time>
      </trkpt>
      <trkpt lat="38.2360250" lon="-1.4333300">
        <ele>171.6</ele>
        <time>2021-11-07T11:20:53Z</time>
      </trkpt>
      <trkpt lat="38.2360330" lon="-1.4332940">
        <ele>171.2</ele>
        <time>2021-11-07T11:20:54Z</time>
      </trkpt>
      <trkpt lat="38.2360340" lon="-1.4332810">
        <ele>171.1</ele>
        <time>2021-11-07T11:20:55Z</time>
      </trkpt>
      <trkpt lat="38.2360470" lon="-1.4332610">
        <ele>170.8</ele>
        <time>2021-11-07T11:20:57Z</time>
      </trkpt>
      <trkpt lat="38.2360680" lon="-1.4332480">
        <ele>170.5</ele>
        <time>2021-11-07T11:20:59Z</time>
      </trkpt>
      <trkpt lat="38.2360880" lon="-1.4332320">
        <ele>170.3</ele>
        <time>2021-11-07T11:21:00Z</time>
      </trkpt>
      <trkpt lat="38.2361040" lon="-1.4332190">
        <ele>170.0</ele>
        <time>2021-11-07T11:21:02Z</time>
      </trkpt>
      <trkpt lat="38.2361220" lon="-1.4332050">
        <ele>169.8</ele>
        <time>2021-11-07T11:21:03Z</time>
      </trkpt>
      <trkpt lat="38.2361390" lon="-1.4331870">
        <ele>169.5</ele>
        <time>2021-11-07T11:21:05Z</time>
      </trkpt>
      <trkpt lat="38.2361550" lon="-1.4331650">
        <ele>169.1</ele>
        <time>2021-11-07T11:21:06Z</time>
      </trkpt>
      <trkpt lat="38.2361670" lon="-1.4331410">
        <ele>169.0</ele>
        <time>2021-11-07T11:21:08Z</time>
      </trkpt>
      <trkpt lat="38.2361760" lon="-1.4331180">
        <ele>168.9</ele>
        <time>2021-11-07T11:21:09Z</time>
      </trkpt>
      <trkpt lat="38.2361830" lon="-1.4331000">
        <ele>168.8</ele>
        <time>2021-11-07T11:21:10Z</time>
      </trkpt>
      <trkpt lat="38.2361930" lon="-1.4330780">
        <ele>168.6</ele>
        <time>2021-11-07T11:21:12Z</time>
      </trkpt>
      <trkpt lat="38.2361990" lon="-1.4330590">
        <ele>168.6</ele>
        <time>2021-11-07T11:21:13Z</time>
      </trkpt>
      <trkpt lat="38.2362060" lon="-1.4330460">
        <ele>168.5</ele>
        <time>2021-11-07T11:21:14Z</time>
      </trkpt>
      <trkpt lat="38.2362150" lon="-1.4330320">
        <ele>168.4</ele>
        <time>2021-11-07T11:21:15Z</time>
      </trkpt>
      <trkpt lat="38.2362270" lon="-1.4330190">
        <ele>168.3</ele>
        <time>2021-11-07T11:21:16Z</time>
      </trkpt>
      <trkpt lat="38.2362340" lon="-1.4329990">
        <ele>168.2</ele>
        <time>2021-11-07T11:21:17Z</time>
      </trkpt>
      <trkpt lat="38.2362350" lon="-1.4329730">
        <ele>168.1</ele>
        <time>2021-11-07T11:21:19Z</time>
      </trkpt>
      <trkpt lat="38.2362380" lon="-1.4329590">
        <ele>168.0</ele>
        <time>2021-11-07T11:21:20Z</time>
      </trkpt>
      <trkpt lat="38.2362370" lon="-1.4329220">
        <ele>167.8</ele>
        <time>2021-11-07T11:21:22Z</time>
      </trkpt>
      <trkpt lat="38.2362320" lon="-1.4329110">
        <ele>167.8</ele>
        <time>2021-11-07T11:21:24Z</time>
      </trkpt>
      <trkpt lat="38.2362280" lon="-1.4329110">
        <ele>167.7</ele>
        <time>2021-11-07T11:21:26Z</time>
      </trkpt>
      <trkpt lat="38.2362270" lon="-1.4329060">
        <ele>167.7</ele>
        <time>2021-11-07T11:21:28Z</time>
      </trkpt>
      <trkpt lat="38.2362270" lon="-1.4329130">
        <ele>167.7</ele>
        <time>2021-11-07T11:21:29Z</time>
      </trkpt>
      <trkpt lat="38.2362280" lon="-1.4329210">
        <ele>167.6</ele>
        <time>2021-11-07T11:21:31Z</time>
      </trkpt>
      <trkpt lat="38.2362280" lon="-1.4329230">
        <ele>167.6</ele>
        <time>2021-11-07T11:21:32Z</time>
      </trkpt>
      <trkpt lat="38.2362270" lon="-1.4329230">
        <ele>167.6</ele>
        <time>2021-11-07T11:21:33Z</time>
      </trkpt>
      <trkpt lat="38.2362270" lon="-1.4329240">
        <ele>167.6</ele>
        <time>2021-11-07T11:21:35Z</time>
      </trkpt>
      <trkpt lat="38.2362270" lon="-1.4329250">
        <ele>167.6</ele>
        <time>2021-11-07T11:21:37Z</time>
      </trkpt>
      <trkpt lat="38.2362250" lon="-1.4329250">
        <ele>167.6</ele>
        <time>2021-11-07T11:21:39Z</time>
      </trkpt>
      <trkpt lat="38.2362180" lon="-1.4329370">
        <ele>167.5</ele>
        <time>2021-11-07T11:21:41Z</time>
      </trkpt>
      <trkpt lat="38.2362170" lon="-1.4329400">
        <ele>167.5</ele>
        <time>2021-11-07T11:21:42Z</time>
      </trkpt>
      <trkpt lat="38.2362150" lon="-1.4329430">
        <ele>167.5</ele>
        <time>2021-11-07T11:21:44Z</time>
      </trkpt>
      <trkpt lat="38.2362150" lon="-1.4329430">
        <ele>167.5</ele>
        <time>2021-11-07T11:21:46Z</time>
      </trkpt>
      <trkpt lat="38.2362150" lon="-1.4329430">
        <ele>167.5</ele>
        <time>2021-11-07T11:21:47Z</time>
      </trkpt>
      <trkpt lat="38.2362130" lon="-1.4329430">
        <ele>167.5</ele>
        <time>2021-11-07T11:21:49Z</time>
      </trkpt>
      <trkpt lat="38.2362100" lon="-1.4329420">
        <ele>167.5</ele>
        <time>2021-11-07T11:21:50Z</time>
      </trkpt>
      <trkpt lat="38.2362070" lon="-1.4329450">
        <ele>167.4</ele>
        <time>2021-11-07T11:21:52Z</time>
      </trkpt>
      <trkpt lat="38.2362040" lon="-1.4329470">
        <ele>167.4</ele>
        <time>2021-11-07T11:21:54Z</time>
      </trkpt>
      <trkpt lat="38.2362040" lon="-1.4329480">
        <ele>167.4</ele>
        <time>2021-11-07T11:21:55Z</time>
      </trkpt>
      <trkpt lat="38.2362040" lon="-1.4329480">
        <ele>167.4</ele>
        <time>2021-11-07T11:21:57Z</time>
      </trkpt>
      <trkpt lat="38.2362040" lon="-1.4329470">
        <ele>167.4</ele>
        <time>2021-11-07T11:21:58Z</time>
      </trkpt>
      <trkpt lat="38.2362060" lon="-1.4329510">
        <ele>167.4</ele>
        <time>2021-11-07T11:22:00Z</time>
      </trkpt>
      <trkpt lat="38.2362060" lon="-1.4329570">
        <ele>167.4</ele>
        <time>2021-11-07T11:22:02Z</time>
      </trkpt>
      <trkpt lat="38.2362060" lon="-1.4329630">
        <ele>167.3</ele>
        <time>2021-11-07T11:22:03Z</time>
      </trkpt>
      <trkpt lat="38.2361890" lon="-1.4329520">
        <ele>167.2</ele>
        <time>2021-11-07T11:22:05Z</time>
      </trkpt>
      <trkpt lat="38.2361890" lon="-1.4329510">
        <ele>167.2</ele>
        <time>2021-11-07T11:22:07Z</time>
      </trkpt>
      <trkpt lat="38.2361910" lon="-1.4329530">
        <ele>167.2</ele>
        <time>2021-11-07T11:22:08Z</time>
      </trkpt>
      <trkpt lat="38.2361920" lon="-1.4329530">
        <ele>167.2</ele>
        <time>2021-11-07T11:22:09Z</time>
      </trkpt>
      <trkpt lat="38.2361920" lon="-1.4329540">
        <ele>167.2</ele>
        <time>2021-11-07T11:22:11Z</time>
      </trkpt>
      <trkpt lat="38.2361920" lon="-1.4329540">
        <ele>167.2</ele>
        <time>2021-11-07T11:22:13Z</time>
      </trkpt>
      <trkpt lat="38.2361920" lon="-1.4329540">
        <ele>167.2</ele>
        <time>2021-11-07T11:22:14Z</time>
      </trkpt>
      <trkpt lat="38.2361920" lon="-1.4329540">
        <ele>167.2</ele>
        <time>2021-11-07T11:22:16Z</time>
      </trkpt>
      <trkpt lat="38.2361920" lon="-1.4329540">
        <ele>167.2</ele>
        <time>2021-11-07T11:22:17Z</time>
      </trkpt>
      <trkpt lat="38.2361920" lon="-1.4329540">
        <ele>167.2</ele>
        <time>2021-11-07T11:22:18Z</time>
      </trkpt>
      <trkpt lat="38.2361920" lon="-1.4329540">
        <ele>167.2</ele>
        <time>2021-11-07T11:22:20Z</time>
      </trkpt>
      <trkpt lat="38.2361920" lon="-1.4329540">
        <ele>167.2</ele>
        <time>2021-11-07T11:22:21Z</time>
      </trkpt>
      <trkpt lat="38.2361920" lon="-1.4329540">
        <ele>167.2</ele>
        <time>2021-11-07T11:22:22Z</time>
      </trkpt>
      <trkpt lat="38.2361920" lon="-1.4329480">
        <ele>167.2</ele>
        <time>2021-11-07T11:22:24Z</time>
      </trkpt>
      <trkpt lat="38.2361990" lon="-1.4329420">
        <ele>167.1</ele>
        <time>2021-11-07T11:22:26Z</time>
      </trkpt>
      <trkpt lat="38.2361960" lon="-1.4329490">
        <ele>167.1</ele>
        <time>2021-11-07T11:22:28Z</time>
      </trkpt>
      <trkpt lat="38.2361950" lon="-1.4329510">
        <ele>167.1</ele>
        <time>2021-11-07T11:22:30Z</time>
      </trkpt>
      <trkpt lat="38.2361960" lon="-1.4329450">
        <ele>167.0</ele>
        <time>2021-11-07T11:22:32Z</time>
      </trkpt>
      <trkpt lat="38.2361990" lon="-1.4329450">
        <ele>167.0</ele>
        <time>2021-11-07T11:22:34Z</time>
      </trkpt>
      <trkpt lat="38.2362010" lon="-1.4329470">
        <ele>167.0</ele>
        <time>2021-11-07T11:22:35Z</time>
      </trkpt>
      <trkpt lat="38.2362010" lon="-1.4329510">
        <ele>167.0</ele>
        <time>2021-11-07T11:22:37Z</time>
      </trkpt>
      <trkpt lat="38.2362010" lon="-1.4329530">
        <ele>167.0</ele>
        <time>2021-11-07T11:22:39Z</time>
      </trkpt>
      <trkpt lat="38.2362010" lon="-1.4329530">
        <ele>167.0</ele>
        <time>2021-11-07T11:22:40Z</time>
      </trkpt>
      <trkpt lat="38.2362010" lon="-1.4329520">
        <ele>167.0</ele>
        <time>2021-11-07T11:22:42Z</time>
      </trkpt>
      <trkpt lat="38.2362000" lon="-1.4329520">
        <ele>166.9</ele>
        <time>2021-11-07T11:22:44Z</time>
      </trkpt>
      <trkpt lat="38.2361990" lon="-1.4329500">
        <ele>166.9</ele>
        <time>2021-11-07T11:22:45Z</time>
      </trkpt>
      <trkpt lat="38.2361980" lon="-1.4329470">
        <ele>166.9</ele>
        <time>2021-11-07T11:22:47Z</time>
      </trkpt>
      <trkpt lat="38.2361950" lon="-1.4329500">
        <ele>166.9</ele>
        <time>2021-11-07T11:22:48Z</time>
      </trkpt>
      <trkpt lat="38.2361930" lon="-1.4329510">
        <ele>166.9</ele>
        <time>2021-11-07T11:22:49Z</time>
      </trkpt>
      <trkpt lat="38.2361950" lon="-1.4329470">
        <ele>166.9</ele>
        <time>2021-11-07T11:22:51Z</time>
      </trkpt>
      <trkpt lat="38.2361950" lon="-1.4329480">
        <ele>166.9</ele>
        <time>2021-11-07T11:22:52Z</time>
      </trkpt>
      <trkpt lat="38.2361960" lon="-1.4329520">
        <ele>166.8</ele>
        <time>2021-11-07T11:22:53Z</time>
      </trkpt>
      <trkpt lat="38.2362100" lon="-1.4329410">
        <ele>166.7</ele>
        <time>2021-11-07T11:22:55Z</time>
      </trkpt>
      <trkpt lat="38.2362360" lon="-1.4328930">
        <ele>166.5</ele>
        <time>2021-11-07T11:22:57Z</time>
      </trkpt>
      <trkpt lat="38.2362550" lon="-1.4328430">
        <ele>166.4</ele>
        <time>2021-11-07T11:22:59Z</time>
      </trkpt>
      <trkpt lat="38.2362790" lon="-1.4327920">
        <ele>166.4</ele>
        <time>2021-11-07T11:23:01Z</time>
      </trkpt>
      <trkpt lat="38.2362890" lon="-1.4327800">
        <ele>166.4</ele>
        <time>2021-11-07T11:23:02Z</time>
      </trkpt>
      <trkpt lat="38.2362990" lon="-1.4327680">
        <ele>166.4</ele>
        <time>2021-11-07T11:23:03Z</time>
      </trkpt>
      <trkpt lat="38.2363390" lon="-1.4327120">
        <ele>166.4</ele>
        <time>2021-11-07T11:23:05Z</time>
      </trkpt>
      <trkpt lat="38.2363670" lon="-1.4326760">
        <ele>166.4</ele>
        <time>2021-11-07T11:23:06Z</time>
      </trkpt>
      <trkpt lat="38.2363930" lon="-1.4326440">
        <ele>166.3</ele>
        <time>2021-11-07T11:23:07Z</time>
      </trkpt>
      <trkpt lat="38.2364160" lon="-1.4326180">
        <ele>166.3</ele>
        <time>2021-11-07T11:23:08Z</time>
      </trkpt>
      <trkpt lat="38.2364460" lon="-1.4325820">
        <ele>166.3</ele>
        <time>2021-11-07T11:23:10Z</time>
      </trkpt>
      <trkpt lat="38.2364800" lon="-1.4325350">
        <ele>166.3</ele>
        <time>2021-11-07T11:23:11Z</time>
      </trkpt>
      <trkpt lat="38.2365030" lon="-1.4324930">
        <ele>166.3</ele>
        <time>2021-11-07T11:23:12Z</time>
      </trkpt>
      <trkpt lat="38.2365230" lon="-1.4324560">
        <ele>166.3</ele>
        <time>2021-11-07T11:23:14Z</time>
      </trkpt>
      <trkpt lat="38.2365440" lon="-1.4324180">
        <ele>166.3</ele>
        <time>2021-11-07T11:23:15Z</time>
      </trkpt>
      <trkpt lat="38.2365670" lon="-1.4323840">
        <ele>166.3</ele>
        <time>2021-11-07T11:23:16Z</time>
      </trkpt>
      <trkpt lat="38.2365880" lon="-1.4323570">
        <ele>166.3</ele>
        <time>2021-11-07T11:23:17Z</time>
      </trkpt>
      <trkpt lat="38.2366080" lon="-1.4323270">
        <ele>166.3</ele>
        <time>2021-11-07T11:23:18Z</time>
      </trkpt>
      <trkpt lat="38.2366260" lon="-1.4322970">
        <ele>166.3</ele>
        <time>2021-11-07T11:23:19Z</time>
      </trkpt>
      <trkpt lat="38.2366580" lon="-1.4322560">
        <ele>166.3</ele>
        <time>2021-11-07T11:23:20Z</time>
      </trkpt>
      <trkpt lat="38.2366840" lon="-1.4322170">
        <ele>166.3</ele>
        <time>2021-11-07T11:23:21Z</time>
      </trkpt>
      <trkpt lat="38.2367050" lon="-1.4321880">
        <ele>166.3</ele>
        <time>2021-11-07T11:23:22Z</time>
      </trkpt>
      <trkpt lat="38.2367400" lon="-1.4321450">
        <ele>166.4</ele>
        <time>2021-11-07T11:23:24Z</time>
      </trkpt>
      <trkpt lat="38.2367700" lon="-1.4321060">
        <ele>166.4</ele>
        <time>2021-11-07T11:23:26Z</time>
      </trkpt>
      <trkpt lat="38.2367890" lon="-1.4320640">
        <ele>166.4</ele>
        <time>2021-11-07T11:23:27Z</time>
      </trkpt>
      <trkpt lat="38.2368120" lon="-1.4320240">
        <ele>166.4</ele>
        <time>2021-11-07T11:23:28Z</time>
      </trkpt>
      <trkpt lat="38.2368220" lon="-1.4320110">
        <ele>166.4</ele>
        <time>2021-11-07T11:23:29Z</time>
      </trkpt>
      <trkpt lat="38.2368410" lon="-1.4319820">
        <ele>166.4</ele>
        <time>2021-11-07T11:23:30Z</time>
      </trkpt>
      <trkpt lat="38.2368600" lon="-1.4319520">
        <ele>166.4</ele>
        <time>2021-11-07T11:23:31Z</time>
      </trkpt>
      <trkpt lat="38.2368830" lon="-1.4319080">
        <ele>166.4</ele>
        <time>2021-11-07T11:23:33Z</time>
      </trkpt>
      <trkpt lat="38.2369020" lon="-1.4318800">
        <ele>166.4</ele>
        <time>2021-11-07T11:23:34Z</time>
      </trkpt>
      <trkpt lat="38.2369370" lon="-1.4318430">
        <ele>166.4</ele>
        <time>2021-11-07T11:23:35Z</time>
      </trkpt>
      <trkpt lat="38.2369700" lon="-1.4317990">
        <ele>166.4</ele>
        <time>2021-11-07T11:23:37Z</time>
      </trkpt>
      <trkpt lat="38.2369960" lon="-1.4317590">
        <ele>166.4</ele>
        <time>2021-11-07T11:23:38Z</time>
      </trkpt>
      <trkpt lat="38.2370190" lon="-1.4317240">
        <ele>166.4</ele>
        <time>2021-11-07T11:23:39Z</time>
      </trkpt>
      <trkpt lat="38.2370470" lon="-1.4316800">
        <ele>166.4</ele>
        <time>2021-11-07T11:23:41Z</time>
      </trkpt>
      <trkpt lat="38.2370710" lon="-1.4316340">
        <ele>166.4</ele>
        <time>2021-11-07T11:23:42Z</time>
      </trkpt>
      <trkpt lat="38.2370900" lon="-1.4316040">
        <ele>166.4</ele>
        <time>2021-11-07T11:23:43Z</time>
      </trkpt>
      <trkpt lat="38.2371090" lon="-1.4315710">
        <ele>166.5</ele>
        <time>2021-11-07T11:23:44Z</time>
      </trkpt>
      <trkpt lat="38.2371380" lon="-1.4315300">
        <ele>166.5</ele>
        <time>2021-11-07T11:23:46Z</time>
      </trkpt>
      <trkpt lat="38.2371680" lon="-1.4314900">
        <ele>166.5</ele>
        <time>2021-11-07T11:23:47Z</time>
      </trkpt>
      <trkpt lat="38.2371940" lon="-1.4314530">
        <ele>166.5</ele>
        <time>2021-11-07T11:23:49Z</time>
      </trkpt>
      <trkpt lat="38.2372130" lon="-1.4314250">
        <ele>166.5</ele>
        <time>2021-11-07T11:23:50Z</time>
      </trkpt>
      <trkpt lat="38.2372310" lon="-1.4313870">
        <ele>166.5</ele>
        <time>2021-11-07T11:23:51Z</time>
      </trkpt>
      <trkpt lat="38.2372520" lon="-1.4313490">
        <ele>166.6</ele>
        <time>2021-11-07T11:23:52Z</time>
      </trkpt>
      <trkpt lat="38.2372600" lon="-1.4313370">
        <ele>166.6</ele>
        <time>2021-11-07T11:23:53Z</time>
      </trkpt>
      <trkpt lat="38.2372760" lon="-1.4313110">
        <ele>166.6</ele>
        <time>2021-11-07T11:23:54Z</time>
      </trkpt>
      <trkpt lat="38.2372920" lon="-1.4312830">
        <ele>166.6</ele>
        <time>2021-11-07T11:23:56Z</time>
      </trkpt>
      <trkpt lat="38.2373080" lon="-1.4312520">
        <ele>166.6</ele>
        <time>2021-11-07T11:23:57Z</time>
      </trkpt>
      <trkpt lat="38.2373320" lon="-1.4312100">
        <ele>166.7</ele>
        <time>2021-11-07T11:23:58Z</time>
      </trkpt>
      <trkpt lat="38.2373510" lon="-1.4311780">
        <ele>166.7</ele>
        <time>2021-11-07T11:23:59Z</time>
      </trkpt>
      <trkpt lat="38.2373720" lon="-1.4311370">
        <ele>166.7</ele>
        <time>2021-11-07T11:24:00Z</time>
      </trkpt>
      <trkpt lat="38.2373900" lon="-1.4311090">
        <ele>166.8</ele>
        <time>2021-11-07T11:24:02Z</time>
      </trkpt>
      <trkpt lat="38.2374040" lon="-1.4310790">
        <ele>166.8</ele>
        <time>2021-11-07T11:24:03Z</time>
      </trkpt>
      <trkpt lat="38.2374190" lon="-1.4310480">
        <ele>166.8</ele>
        <time>2021-11-07T11:24:04Z</time>
      </trkpt>
      <trkpt lat="38.2374360" lon="-1.4310070">
        <ele>166.9</ele>
        <time>2021-11-07T11:24:05Z</time>
      </trkpt>
      <trkpt lat="38.2374500" lon="-1.4309750">
        <ele>166.9</ele>
        <time>2021-11-07T11:24:06Z</time>
      </trkpt>
      <trkpt lat="38.2374700" lon="-1.4309340">
        <ele>167.0</ele>
        <time>2021-11-07T11:24:07Z</time>
      </trkpt>
      <trkpt lat="38.2374760" lon="-1.4309220">
        <ele>167.0</ele>
        <time>2021-11-07T11:24:08Z</time>
      </trkpt>
      <trkpt lat="38.2374970" lon="-1.4308910">
        <ele>167.1</ele>
        <time>2021-11-07T11:24:10Z</time>
      </trkpt>
      <trkpt lat="38.2375170" lon="-1.4308650">
        <ele>167.2</ele>
        <time>2021-11-07T11:24:11Z</time>
      </trkpt>
      <trkpt lat="38.2375370" lon="-1.4308290">
        <ele>167.3</ele>
        <time>2021-11-07T11:24:12Z</time>
      </trkpt>
      <trkpt lat="38.2375440" lon="-1.4308170">
        <ele>167.3</ele>
        <time>2021-11-07T11:24:13Z</time>
      </trkpt>
      <trkpt lat="38.2375610" lon="-1.4307900">
        <ele>167.4</ele>
        <time>2021-11-07T11:24:14Z</time>
      </trkpt>
      <trkpt lat="38.2375850" lon="-1.4307500">
        <ele>167.5</ele>
        <time>2021-11-07T11:24:15Z</time>
      </trkpt>
      <trkpt lat="38.2375920" lon="-1.4307360">
        <ele>167.6</ele>
        <time>2021-11-07T11:24:16Z</time>
      </trkpt>
      <trkpt lat="38.2376120" lon="-1.4307090">
        <ele>167.6</ele>
        <time>2021-11-07T11:24:18Z</time>
      </trkpt>
      <trkpt lat="38.2376290" lon="-1.4306760">
        <ele>167.7</ele>
        <time>2021-11-07T11:24:19Z</time>
      </trkpt>
      <trkpt lat="38.2376450" lon="-1.4306460">
        <ele>167.8</ele>
        <time>2021-11-07T11:24:20Z</time>
      </trkpt>
      <trkpt lat="38.2376620" lon="-1.4306100">
        <ele>167.9</ele>
        <time>2021-11-07T11:24:22Z</time>
      </trkpt>
      <trkpt lat="38.2376680" lon="-1.4305980">
        <ele>167.9</ele>
        <time>2021-11-07T11:24:23Z</time>
      </trkpt>
      <trkpt lat="38.2376850" lon="-1.4305610">
        <ele>168.0</ele>
        <time>2021-11-07T11:24:24Z</time>
      </trkpt>
      <trkpt lat="38.2376920" lon="-1.4305490">
        <ele>168.0</ele>
        <time>2021-11-07T11:24:25Z</time>
      </trkpt>
      <trkpt lat="38.2377090" lon="-1.4305150">
        <ele>168.1</ele>
        <time>2021-11-07T11:24:26Z</time>
      </trkpt>
      <trkpt lat="38.2377210" lon="-1.4304820">
        <ele>168.2</ele>
        <time>2021-11-07T11:24:28Z</time>
      </trkpt>
      <trkpt lat="38.2377240" lon="-1.4304430">
        <ele>168.3</ele>
        <time>2021-11-07T11:24:29Z</time>
      </trkpt>
      <trkpt lat="38.2377330" lon="-1.4304040">
        <ele>168.3</ele>
        <time>2021-11-07T11:24:30Z</time>
      </trkpt>
      <trkpt lat="38.2377500" lon="-1.4303560">
        <ele>168.5</ele>
        <time>2021-11-07T11:24:32Z</time>
      </trkpt>
      <trkpt lat="38.2377590" lon="-1.4303370">
        <ele>168.5</ele>
        <time>2021-11-07T11:24:33Z</time>
      </trkpt>
      <trkpt lat="38.2377820" lon="-1.4302700">
        <ele>168.7</ele>
        <time>2021-11-07T11:24:35Z</time>
      </trkpt>
      <trkpt lat="38.2377920" lon="-1.4302450">
        <ele>168.8</ele>
        <time>2021-11-07T11:24:36Z</time>
      </trkpt>
      <trkpt lat="38.2378020" lon="-1.4302190">
        <ele>168.8</ele>
        <time>2021-11-07T11:24:37Z</time>
      </trkpt>
      <trkpt lat="38.2378160" lon="-1.4301810">
        <ele>169.0</ele>
        <time>2021-11-07T11:24:39Z</time>
      </trkpt>
      <trkpt lat="38.2378270" lon="-1.4301300">
        <ele>169.2</ele>
        <time>2021-11-07T11:24:40Z</time>
      </trkpt>
      <trkpt lat="38.2378380" lon="-1.4300970">
        <ele>169.3</ele>
        <time>2021-11-07T11:24:41Z</time>
      </trkpt>
      <trkpt lat="38.2378530" lon="-1.4300650">
        <ele>169.5</ele>
        <time>2021-11-07T11:24:42Z</time>
      </trkpt>
      <trkpt lat="38.2378680" lon="-1.4300350">
        <ele>169.7</ele>
        <time>2021-11-07T11:24:43Z</time>
      </trkpt>
      <trkpt lat="38.2378860" lon="-1.4299910">
        <ele>169.9</ele>
        <time>2021-11-07T11:24:44Z</time>
      </trkpt>
      <trkpt lat="38.2378910" lon="-1.4299760">
        <ele>170.0</ele>
        <time>2021-11-07T11:24:45Z</time>
      </trkpt>
      <trkpt lat="38.2379100" lon="-1.4299330">
        <ele>170.2</ele>
        <time>2021-11-07T11:24:47Z</time>
      </trkpt>
      <trkpt lat="38.2379170" lon="-1.4299200">
        <ele>170.3</ele>
        <time>2021-11-07T11:24:48Z</time>
      </trkpt>
      <trkpt lat="38.2379320" lon="-1.4298770">
        <ele>170.5</ele>
        <time>2021-11-07T11:24:49Z</time>
      </trkpt>
      <trkpt lat="38.2379240" lon="-1.4298280">
        <ele>170.7</ele>
        <time>2021-11-07T11:24:51Z</time>
      </trkpt>
      <trkpt lat="38.2379130" lon="-1.4298180">
        <ele>170.7</ele>
        <time>2021-11-07T11:24:52Z</time>
      </trkpt>
      <trkpt lat="38.2379020" lon="-1.4298080">
        <ele>170.8</ele>
        <time>2021-11-07T11:24:53Z</time>
      </trkpt>
      <trkpt lat="38.2378810" lon="-1.4297930">
        <ele>170.8</ele>
        <time>2021-11-07T11:24:55Z</time>
      </trkpt>
      <trkpt lat="38.2378410" lon="-1.4297680">
        <ele>170.8</ele>
        <time>2021-11-07T11:24:57Z</time>
      </trkpt>
      <trkpt lat="38.2378070" lon="-1.4297700">
        <ele>170.9</ele>
        <time>2021-11-07T11:24:58Z</time>
      </trkpt>
      <trkpt lat="38.2377820" lon="-1.4297590">
        <ele>170.9</ele>
        <time>2021-11-07T11:24:59Z</time>
      </trkpt>
      <trkpt lat="38.2377440" lon="-1.4297520">
        <ele>171.0</ele>
        <time>2021-11-07T11:25:01Z</time>
      </trkpt>
      <trkpt lat="38.2376990" lon="-1.4297370">
        <ele>171.1</ele>
        <time>2021-11-07T11:25:02Z</time>
      </trkpt>
      <trkpt lat="38.2376680" lon="-1.4297240">
        <ele>171.1</ele>
        <time>2021-11-07T11:25:04Z</time>
      </trkpt>
      <trkpt lat="38.2376290" lon="-1.4297010">
        <ele>171.2</ele>
        <time>2021-11-07T11:25:05Z</time>
      </trkpt>
      <trkpt lat="38.2375950" lon="-1.4296860">
        <ele>171.2</ele>
        <time>2021-11-07T11:25:06Z</time>
      </trkpt>
      <trkpt lat="38.2375630" lon="-1.4296710">
        <ele>171.3</ele>
        <time>2021-11-07T11:25:08Z</time>
      </trkpt>
      <trkpt lat="38.2375230" lon="-1.4296470">
        <ele>171.4</ele>
        <time>2021-11-07T11:25:09Z</time>
      </trkpt>
      <trkpt lat="38.2374820" lon="-1.4296320">
        <ele>171.5</ele>
        <time>2021-11-07T11:25:10Z</time>
      </trkpt>
      <trkpt lat="38.2374440" lon="-1.4296220">
        <ele>171.6</ele>
        <time>2021-11-07T11:25:12Z</time>
      </trkpt>
      <trkpt lat="38.2373930" lon="-1.4296120">
        <ele>171.7</ele>
        <time>2021-11-07T11:25:13Z</time>
      </trkpt>
      <trkpt lat="38.2373580" lon="-1.4295950">
        <ele>171.7</ele>
        <time>2021-11-07T11:25:15Z</time>
      </trkpt>
      <trkpt lat="38.2373310" lon="-1.4295720">
        <ele>171.8</ele>
        <time>2021-11-07T11:25:16Z</time>
      </trkpt>
      <trkpt lat="38.2372980" lon="-1.4295610">
        <ele>171.8</ele>
        <time>2021-11-07T11:25:17Z</time>
      </trkpt>
      <trkpt lat="38.2372860" lon="-1.4295570">
        <ele>171.8</ele>
        <time>2021-11-07T11:25:18Z</time>
      </trkpt>
      <trkpt lat="38.2372520" lon="-1.4295310">
        <ele>172.1</ele>
        <time>2021-11-07T11:25:19Z</time>
      </trkpt>
      <trkpt lat="38.2372410" lon="-1.4295190">
        <ele>172.3</ele>
        <time>2021-11-07T11:25:20Z</time>
      </trkpt>
      <trkpt lat="38.2372000" lon="-1.4295130">
        <ele>172.6</ele>
        <time>2021-11-07T11:25:22Z</time>
      </trkpt>
      <trkpt lat="38.2371880" lon="-1.4295190">
        <ele>172.7</ele>
        <time>2021-11-07T11:25:23Z</time>
      </trkpt>
      <trkpt lat="38.2371750" lon="-1.4295250">
        <ele>172.8</ele>
        <time>2021-11-07T11:25:24Z</time>
      </trkpt>
      <trkpt lat="38.2371620" lon="-1.4295420">
        <ele>173.0</ele>
        <time>2021-11-07T11:25:26Z</time>
      </trkpt>
      <trkpt lat="38.2371430" lon="-1.4295600">
        <ele>173.2</ele>
        <time>2021-11-07T11:25:28Z</time>
      </trkpt>
      <trkpt lat="38.2371330" lon="-1.4295810">
        <ele>173.4</ele>
        <time>2021-11-07T11:25:29Z</time>
      </trkpt>
      <trkpt lat="38.2371170" lon="-1.4295930">
        <ele>173.6</ele>
        <time>2021-11-07T11:25:31Z</time>
      </trkpt>
      <trkpt lat="38.2371000" lon="-1.4296030">
        <ele>173.7</ele>
        <time>2021-11-07T11:25:32Z</time>
      </trkpt>
      <trkpt lat="38.2370730" lon="-1.4296280">
        <ele>174.0</ele>
        <time>2021-11-07T11:25:34Z</time>
      </trkpt>
      <trkpt lat="38.2370590" lon="-1.4296410">
        <ele>174.2</ele>
        <time>2021-11-07T11:25:35Z</time>
      </trkpt>
      <trkpt lat="38.2370430" lon="-1.4296610">
        <ele>174.4</ele>
        <time>2021-11-07T11:25:37Z</time>
      </trkpt>
      <trkpt lat="38.2370340" lon="-1.4296840">
        <ele>174.7</ele>
        <time>2021-11-07T11:25:38Z</time>
      </trkpt>
      <trkpt lat="38.2370270" lon="-1.4297100">
        <ele>174.9</ele>
        <time>2021-11-07T11:25:40Z</time>
      </trkpt>
      <trkpt lat="38.2370210" lon="-1.4297340">
        <ele>175.1</ele>
        <time>2021-11-07T11:25:42Z</time>
      </trkpt>
      <trkpt lat="38.2370130" lon="-1.4297450">
        <ele>175.2</ele>
        <time>2021-11-07T11:25:43Z</time>
      </trkpt>
      <trkpt lat="38.2369990" lon="-1.4297750">
        <ele>175.5</ele>
        <time>2021-11-07T11:25:44Z</time>
      </trkpt>
      <trkpt lat="38.2369930" lon="-1.4297870">
        <ele>175.6</ele>
        <time>2021-11-07T11:25:45Z</time>
      </trkpt>
      <trkpt lat="38.2369730" lon="-1.4298190">
        <ele>175.9</ele>
        <time>2021-11-07T11:25:47Z</time>
      </trkpt>
      <trkpt lat="38.2369680" lon="-1.4298270">
        <ele>176.0</ele>
        <time>2021-11-07T11:25:48Z</time>
      </trkpt>
      <trkpt lat="38.2369540" lon="-1.4298590">
        <ele>176.2</ele>
        <time>2021-11-07T11:25:49Z</time>
      </trkpt>
      <trkpt lat="38.2369470" lon="-1.4298720">
        <ele>176.4</ele>
        <time>2021-11-07T11:25:50Z</time>
      </trkpt>
      <trkpt lat="38.2369340" lon="-1.4298850">
        <ele>176.5</ele>
        <time>2021-11-07T11:25:51Z</time>
      </trkpt>
      <trkpt lat="38.2369150" lon="-1.4298970">
        <ele>176.7</ele>
        <time>2021-11-07T11:25:53Z</time>
      </trkpt>
      <trkpt lat="38.2368850" lon="-1.4299110">
        <ele>177.0</ele>
        <time>2021-11-07T11:25:54Z</time>
      </trkpt>
      <trkpt lat="38.2368720" lon="-1.4299150">
        <ele>177.2</ele>
        <time>2021-11-07T11:25:55Z</time>
      </trkpt>
      <trkpt lat="38.2368510" lon="-1.4299280">
        <ele>177.4</ele>
        <time>2021-11-07T11:25:56Z</time>
      </trkpt>
      <trkpt lat="38.2368320" lon="-1.4299390">
        <ele>177.6</ele>
        <time>2021-11-07T11:25:58Z</time>
      </trkpt>
      <trkpt lat="38.2368030" lon="-1.4299470">
        <ele>177.9</ele>
        <time>2021-11-07T11:26:00Z</time>
      </trkpt>
      <trkpt lat="38.2367700" lon="-1.4299600">
        <ele>178.3</ele>
        <time>2021-11-07T11:26:02Z</time>
      </trkpt>
      <trkpt lat="38.2367510" lon="-1.4299680">
        <ele>178.5</ele>
        <time>2021-11-07T11:26:03Z</time>
      </trkpt>
      <trkpt lat="38.2367160" lon="-1.4299690">
        <ele>179.0</ele>
        <time>2021-11-07T11:26:05Z</time>
      </trkpt>
      <trkpt lat="38.2366990" lon="-1.4299720">
        <ele>179.2</ele>
        <time>2021-11-07T11:26:06Z</time>
      </trkpt>
      <trkpt lat="38.2366700" lon="-1.4299780">
        <ele>179.5</ele>
        <time>2021-11-07T11:26:08Z</time>
      </trkpt>
      <trkpt lat="38.2366560" lon="-1.4299820">
        <ele>179.7</ele>
        <time>2021-11-07T11:26:09Z</time>
      </trkpt>
      <trkpt lat="38.2366250" lon="-1.4299830">
        <ele>180.1</ele>
        <time>2021-11-07T11:26:11Z</time>
      </trkpt>
      <trkpt lat="38.2366110" lon="-1.4299820">
        <ele>180.2</ele>
        <time>2021-11-07T11:26:12Z</time>
      </trkpt>
      <trkpt lat="38.2365610" lon="-1.4299660">
        <ele>180.9</ele>
        <time>2021-11-07T11:26:14Z</time>
      </trkpt>
      <trkpt lat="38.2365490" lon="-1.4299630">
        <ele>181.0</ele>
        <time>2021-11-07T11:26:15Z</time>
      </trkpt>
      <trkpt lat="38.2365360" lon="-1.4299610">
        <ele>181.2</ele>
        <time>2021-11-07T11:26:16Z</time>
      </trkpt>
      <trkpt lat="38.2365130" lon="-1.4299500">
        <ele>181.5</ele>
        <time>2021-11-07T11:26:18Z</time>
      </trkpt>
      <trkpt lat="38.2364770" lon="-1.4299200">
        <ele>182.0</ele>
        <time>2021-11-07T11:26:20Z</time>
      </trkpt>
      <trkpt lat="38.2364710" lon="-1.4299140">
        <ele>182.1</ele>
        <time>2021-11-07T11:26:21Z</time>
      </trkpt>
      <trkpt lat="38.2364510" lon="-1.4298930">
        <ele>182.3</ele>
        <time>2021-11-07T11:26:23Z</time>
      </trkpt>
      <trkpt lat="38.2364200" lon="-1.4298620">
        <ele>182.8</ele>
        <time>2021-11-07T11:26:25Z</time>
      </trkpt>
      <trkpt lat="38.2364140" lon="-1.4298540">
        <ele>182.9</ele>
        <time>2021-11-07T11:26:26Z</time>
      </trkpt>
      <trkpt lat="38.2364020" lon="-1.4298280">
        <ele>183.1</ele>
        <time>2021-11-07T11:26:28Z</time>
      </trkpt>
      <trkpt lat="38.2363940" lon="-1.4298020">
        <ele>183.3</ele>
        <time>2021-11-07T11:26:29Z</time>
      </trkpt>
      <trkpt lat="38.2363870" lon="-1.4297800">
        <ele>183.5</ele>
        <time>2021-11-07T11:26:31Z</time>
      </trkpt>
      <trkpt lat="38.2363820" lon="-1.4297650">
        <ele>183.6</ele>
        <time>2021-11-07T11:26:32Z</time>
      </trkpt>
      <trkpt lat="38.2363800" lon="-1.4297480">
        <ele>183.7</ele>
        <time>2021-11-07T11:26:33Z</time>
      </trkpt>
      <trkpt lat="38.2363830" lon="-1.4297120">
        <ele>184.2</ele>
        <time>2021-11-07T11:26:35Z</time>
      </trkpt>
      <trkpt lat="38.2363790" lon="-1.4296950">
        <ele>184.3</ele>
        <time>2021-11-07T11:26:36Z</time>
      </trkpt>
      <trkpt lat="38.2363690" lon="-1.4296780">
        <ele>184.3</ele>
        <time>2021-11-07T11:26:37Z</time>
      </trkpt>
      <trkpt lat="38.2363650" lon="-1.4296600">
        <ele>184.3</ele>
        <time>2021-11-07T11:26:38Z</time>
      </trkpt>
      <trkpt lat="38.2363610" lon="-1.4296090">
        <ele>184.4</ele>
        <time>2021-11-07T11:26:40Z</time>
      </trkpt>
      <trkpt lat="38.2363590" lon="-1.4296020">
        <ele>184.4</ele>
        <time>2021-11-07T11:26:41Z</time>
      </trkpt>
      <trkpt lat="38.2363540" lon="-1.4295910">
        <ele>184.5</ele>
        <time>2021-11-07T11:26:42Z</time>
      </trkpt>
      <trkpt lat="38.2363500" lon="-1.4295780">
        <ele>184.5</ele>
        <time>2021-11-07T11:26:43Z</time>
      </trkpt>
      <trkpt lat="38.2363310" lon="-1.4295360">
        <ele>184.7</ele>
        <time>2021-11-07T11:26:45Z</time>
      </trkpt>
      <trkpt lat="38.2363270" lon="-1.4295290">
        <ele>184.7</ele>
        <time>2021-11-07T11:26:46Z</time>
      </trkpt>
      <trkpt lat="38.2363170" lon="-1.4295060">
        <ele>184.8</ele>
        <time>2021-11-07T11:26:48Z</time>
      </trkpt>
      <trkpt lat="38.2363090" lon="-1.4294930">
        <ele>184.9</ele>
        <time>2021-11-07T11:26:49Z</time>
      </trkpt>
      <trkpt lat="38.2362900" lon="-1.4294560">
        <ele>185.1</ele>
        <time>2021-11-07T11:26:51Z</time>
      </trkpt>
      <trkpt lat="38.2362750" lon="-1.4294320">
        <ele>185.2</ele>
        <time>2021-11-07T11:26:53Z</time>
      </trkpt>
      <trkpt lat="38.2362420" lon="-1.4293980">
        <ele>185.3</ele>
        <time>2021-11-07T11:26:55Z</time>
      </trkpt>
      <trkpt lat="38.2362350" lon="-1.4293900">
        <ele>185.4</ele>
        <time>2021-11-07T11:26:56Z</time>
      </trkpt>
      <trkpt lat="38.2362160" lon="-1.4293730">
        <ele>185.4</ele>
        <time>2021-11-07T11:26:58Z</time>
      </trkpt>
      <trkpt lat="38.2361810" lon="-1.4293550">
        <ele>185.6</ele>
        <time>2021-11-07T11:27:00Z</time>
      </trkpt>
      <trkpt lat="38.2361700" lon="-1.4293330">
        <ele>185.6</ele>
        <time>2021-11-07T11:27:02Z</time>
      </trkpt>
      <trkpt lat="38.2361630" lon="-1.4293210">
        <ele>185.7</ele>
        <time>2021-11-07T11:27:03Z</time>
      </trkpt>
      <trkpt lat="38.2361530" lon="-1.4292710">
        <ele>185.9</ele>
        <time>2021-11-07T11:27:05Z</time>
      </trkpt>
      <trkpt lat="38.2361670" lon="-1.4292350">
        <ele>186.0</ele>
        <time>2021-11-07T11:27:07Z</time>
      </trkpt>
      <trkpt lat="38.2361710" lon="-1.4292280">
        <ele>186.1</ele>
        <time>2021-11-07T11:27:08Z</time>
      </trkpt>
      <trkpt lat="38.2361800" lon="-1.4292170">
        <ele>186.1</ele>
        <time>2021-11-07T11:27:09Z</time>
      </trkpt>
      <trkpt lat="38.2361870" lon="-1.4292040">
        <ele>186.2</ele>
        <time>2021-11-07T11:27:10Z</time>
      </trkpt>
      <trkpt lat="38.2361940" lon="-1.4291450">
        <ele>186.4</ele>
        <time>2021-11-07T11:27:12Z</time>
      </trkpt>
      <trkpt lat="38.2361870" lon="-1.4291160">
        <ele>186.5</ele>
        <time>2021-11-07T11:27:14Z</time>
      </trkpt>
      <trkpt lat="38.2361730" lon="-1.4290770">
        <ele>186.7</ele>
        <time>2021-11-07T11:27:16Z</time>
      </trkpt>
      <trkpt lat="38.2361780" lon="-1.4290350">
        <ele>186.7</ele>
        <time>2021-11-07T11:27:18Z</time>
      </trkpt>
      <trkpt lat="38.2361810" lon="-1.4290260">
        <ele>186.8</ele>
        <time>2021-11-07T11:27:19Z</time>
      </trkpt>
      <trkpt lat="38.2361980" lon="-1.4289890">
        <ele>186.8</ele>
        <time>2021-11-07T11:27:21Z</time>
      </trkpt>
    </trkseg>
  </trk>
</gpx>
